<?xml version="1.0" encoding="UTF-8" standalone="no" ?>
<gpx xmlns="http://www.topografix.com/GPX/1/1" xmlns:xsi="http://www.w3.org/2001/XMLSchema-instance" xsi:schemaLocation="http://www.topografix.com/GPX/1/1 http://www.topografix.com/GPX/1/1/gpx.xsd" version="1.1" creator="VisuGPX - https://www.visugpx.com">
  <metadata>
    <name>74 - D+ - Samoens</name>
    <desc><![CDATA[74 - D+ - Samoens J5 - Sixt fer à cheval - Balme dessus - dent de Verreu]]></desc>
  </metadata>
  <trk>
    <name><![CDATA[Samoens J5 - tête de Verreu 2026-06-26-01]]></name>
    <trkseg>
      <trkpt lat="46.06183" lon="6.75649">
        <ele>973.5</ele>
        <time>2026-06-26T06:17:59Z</time>
      </trkpt>
      <trkpt lat="46.06183" lon="6.75649">
        <ele>973.5</ele>
        <time>2026-06-26T06:18:00Z</time>
      </trkpt>
      <trkpt lat="46.06182" lon="6.75649">
        <ele>973.5</ele>
        <time>2026-06-26T06:18:01Z</time>
      </trkpt>
      <trkpt lat="46.06183" lon="6.7565">
        <ele>973.5</ele>
        <time>2026-06-26T06:18:02Z</time>
      </trkpt>
      <trkpt lat="46.06183" lon="6.7565">
        <ele>973.7</ele>
        <time>2026-06-26T06:18:03Z</time>
      </trkpt>
      <trkpt lat="46.06183" lon="6.7565">
        <ele>973.8</ele>
        <time>2026-06-26T06:18:04Z</time>
      </trkpt>
      <trkpt lat="46.06183" lon="6.7565">
        <ele>973.9</ele>
        <time>2026-06-26T06:18:05Z</time>
      </trkpt>
      <trkpt lat="46.06181" lon="6.75651">
        <ele>974</ele>
        <time>2026-06-26T06:18:06Z</time>
      </trkpt>
      <trkpt lat="46.06181" lon="6.75651">
        <ele>974.1</ele>
        <time>2026-06-26T06:18:07Z</time>
      </trkpt>
      <trkpt lat="46.06182" lon="6.75651">
        <ele>974.1</ele>
        <time>2026-06-26T06:18:08Z</time>
      </trkpt>
      <trkpt lat="46.06182" lon="6.7565">
        <ele>974.2</ele>
        <time>2026-06-26T06:18:09Z</time>
      </trkpt>
      <trkpt lat="46.06182" lon="6.7565">
        <ele>974.2</ele>
        <time>2026-06-26T06:18:10Z</time>
      </trkpt>
      <trkpt lat="46.06182" lon="6.75649">
        <ele>974.2</ele>
        <time>2026-06-26T06:18:11Z</time>
      </trkpt>
      <trkpt lat="46.06183" lon="6.7565">
        <ele>974.1</ele>
        <time>2026-06-26T06:18:12Z</time>
      </trkpt>
      <trkpt lat="46.06184" lon="6.7565">
        <ele>974.1</ele>
        <time>2026-06-26T06:18:13Z</time>
      </trkpt>
      <trkpt lat="46.06182" lon="6.75648">
        <ele>974</ele>
        <time>2026-06-26T06:18:14Z</time>
      </trkpt>
      <trkpt lat="46.0618" lon="6.75645">
        <ele>973.9</ele>
        <time>2026-06-26T06:18:15Z</time>
      </trkpt>
      <trkpt lat="46.06179" lon="6.75646">
        <ele>973.9</ele>
        <time>2026-06-26T06:18:16Z</time>
      </trkpt>
      <trkpt lat="46.06179" lon="6.75646">
        <ele>973.8</ele>
        <time>2026-06-26T06:18:17Z</time>
      </trkpt>
      <trkpt lat="46.06179" lon="6.75646">
        <ele>973.8</ele>
        <time>2026-06-26T06:18:18Z</time>
      </trkpt>
      <trkpt lat="46.06178" lon="6.75646">
        <ele>973.8</ele>
        <time>2026-06-26T06:18:19Z</time>
      </trkpt>
      <trkpt lat="46.06177" lon="6.75648">
        <ele>973.8</ele>
        <time>2026-06-26T06:18:20Z</time>
      </trkpt>
      <trkpt lat="46.06175" lon="6.75648">
        <ele>973.9</ele>
        <time>2026-06-26T06:18:21Z</time>
      </trkpt>
      <trkpt lat="46.06174" lon="6.75648">
        <ele>974</ele>
        <time>2026-06-26T06:18:22Z</time>
      </trkpt>
      <trkpt lat="46.06174" lon="6.75648">
        <ele>974</ele>
        <time>2026-06-26T06:18:23Z</time>
      </trkpt>
      <trkpt lat="46.06173" lon="6.75648">
        <ele>974.1</ele>
        <time>2026-06-26T06:18:24Z</time>
      </trkpt>
      <trkpt lat="46.06173" lon="6.75649">
        <ele>974.1</ele>
        <time>2026-06-26T06:18:25Z</time>
      </trkpt>
      <trkpt lat="46.06173" lon="6.75649">
        <ele>974.1</ele>
        <time>2026-06-26T06:18:26Z</time>
      </trkpt>
      <trkpt lat="46.06172" lon="6.7565">
        <ele>974.1</ele>
        <time>2026-06-26T06:18:27Z</time>
      </trkpt>
      <trkpt lat="46.06172" lon="6.75651">
        <ele>974.1</ele>
        <time>2026-06-26T06:18:28Z</time>
      </trkpt>
      <trkpt lat="46.06172" lon="6.75651">
        <ele>974.1</ele>
        <time>2026-06-26T06:18:29Z</time>
      </trkpt>
      <trkpt lat="46.06173" lon="6.75652">
        <ele>973.5</ele>
        <time>2026-06-26T06:18:30Z</time>
      </trkpt>
      <trkpt lat="46.06174" lon="6.75653">
        <ele>973.6</ele>
        <time>2026-06-26T06:18:31Z</time>
      </trkpt>
      <trkpt lat="46.06174" lon="6.75653">
        <ele>973.7</ele>
        <time>2026-06-26T06:18:32Z</time>
      </trkpt>
      <trkpt lat="46.06174" lon="6.75653">
        <ele>973.8</ele>
        <time>2026-06-26T06:18:33Z</time>
      </trkpt>
      <trkpt lat="46.06175" lon="6.75654">
        <ele>973.7</ele>
        <time>2026-06-26T06:18:34Z</time>
      </trkpt>
      <trkpt lat="46.06175" lon="6.75654">
        <ele>973.7</ele>
        <time>2026-06-26T06:18:35Z</time>
      </trkpt>
      <trkpt lat="46.06175" lon="6.75654">
        <ele>973.7</ele>
        <time>2026-06-26T06:18:36Z</time>
      </trkpt>
      <trkpt lat="46.06175" lon="6.75654">
        <ele>973.7</ele>
        <time>2026-06-26T06:18:37Z</time>
      </trkpt>
      <trkpt lat="46.06176" lon="6.75655">
        <ele>973.7</ele>
        <time>2026-06-26T06:18:38Z</time>
      </trkpt>
      <trkpt lat="46.06177" lon="6.75656">
        <ele>973.7</ele>
        <time>2026-06-26T06:18:39Z</time>
      </trkpt>
      <trkpt lat="46.06177" lon="6.75657">
        <ele>973.7</ele>
        <time>2026-06-26T06:18:40Z</time>
      </trkpt>
      <trkpt lat="46.06177" lon="6.75658">
        <ele>973.7</ele>
        <time>2026-06-26T06:18:41Z</time>
      </trkpt>
      <trkpt lat="46.06177" lon="6.75659">
        <ele>973.8</ele>
        <time>2026-06-26T06:18:42Z</time>
      </trkpt>
      <trkpt lat="46.06177" lon="6.7566">
        <ele>973.8</ele>
        <time>2026-06-26T06:18:43Z</time>
      </trkpt>
      <trkpt lat="46.06177" lon="6.75661">
        <ele>973.8</ele>
        <time>2026-06-26T06:18:44Z</time>
      </trkpt>
      <trkpt lat="46.06178" lon="6.75661">
        <ele>973.9</ele>
        <time>2026-06-26T06:18:45Z</time>
      </trkpt>
      <trkpt lat="46.06177" lon="6.75661">
        <ele>973.8</ele>
        <time>2026-06-26T06:18:46Z</time>
      </trkpt>
      <trkpt lat="46.06179" lon="6.75661">
        <ele>973.8</ele>
        <time>2026-06-26T06:18:47Z</time>
      </trkpt>
      <trkpt lat="46.06179" lon="6.75661">
        <ele>973.8</ele>
        <time>2026-06-26T06:18:48Z</time>
      </trkpt>
      <trkpt lat="46.06179" lon="6.7566">
        <ele>973.8</ele>
        <time>2026-06-26T06:18:49Z</time>
      </trkpt>
      <trkpt lat="46.06179" lon="6.7566">
        <ele>973.8</ele>
        <time>2026-06-26T06:18:50Z</time>
      </trkpt>
      <trkpt lat="46.0618" lon="6.7566">
        <ele>973.8</ele>
        <time>2026-06-26T06:18:51Z</time>
      </trkpt>
      <trkpt lat="46.0618" lon="6.75661">
        <ele>973.8</ele>
        <time>2026-06-26T06:18:52Z</time>
      </trkpt>
      <trkpt lat="46.0618" lon="6.75662">
        <ele>973.8</ele>
        <time>2026-06-26T06:18:53Z</time>
      </trkpt>
      <trkpt lat="46.0618" lon="6.75662">
        <ele>973.8</ele>
        <time>2026-06-26T06:18:54Z</time>
      </trkpt>
      <trkpt lat="46.0618" lon="6.75663">
        <ele>973.7</ele>
        <time>2026-06-26T06:18:55Z</time>
      </trkpt>
      <trkpt lat="46.06181" lon="6.75664">
        <ele>973.6</ele>
        <time>2026-06-26T06:18:56Z</time>
      </trkpt>
      <trkpt lat="46.06182" lon="6.75664">
        <ele>973.6</ele>
        <time>2026-06-26T06:18:57Z</time>
      </trkpt>
      <trkpt lat="46.06183" lon="6.75665">
        <ele>973.7</ele>
        <time>2026-06-26T06:18:58Z</time>
      </trkpt>
      <trkpt lat="46.06183" lon="6.75666">
        <ele>973.8</ele>
        <time>2026-06-26T06:18:59Z</time>
      </trkpt>
      <trkpt lat="46.06183" lon="6.75665">
        <ele>973.8</ele>
        <time>2026-06-26T06:19:00Z</time>
      </trkpt>
      <trkpt lat="46.06183" lon="6.75664">
        <ele>973.8</ele>
        <time>2026-06-26T06:19:01Z</time>
      </trkpt>
      <trkpt lat="46.06182" lon="6.75664">
        <ele>973.8</ele>
        <time>2026-06-26T06:19:02Z</time>
      </trkpt>
      <trkpt lat="46.06182" lon="6.75663">
        <ele>973.8</ele>
        <time>2026-06-26T06:19:03Z</time>
      </trkpt>
      <trkpt lat="46.06183" lon="6.75663">
        <ele>973.7</ele>
        <time>2026-06-26T06:19:04Z</time>
      </trkpt>
      <trkpt lat="46.06183" lon="6.75661">
        <ele>973.8</ele>
        <time>2026-06-26T06:19:05Z</time>
      </trkpt>
      <trkpt lat="46.06182" lon="6.7566">
        <ele>973.8</ele>
        <time>2026-06-26T06:19:06Z</time>
      </trkpt>
      <trkpt lat="46.06182" lon="6.7566">
        <ele>973.9</ele>
        <time>2026-06-26T06:19:07Z</time>
      </trkpt>
      <trkpt lat="46.06182" lon="6.75659">
        <ele>973.8</ele>
        <time>2026-06-26T06:19:08Z</time>
      </trkpt>
      <trkpt lat="46.06182" lon="6.75659">
        <ele>973.8</ele>
        <time>2026-06-26T06:19:09Z</time>
      </trkpt>
      <trkpt lat="46.06182" lon="6.75657">
        <ele>973.7</ele>
        <time>2026-06-26T06:19:10Z</time>
      </trkpt>
      <trkpt lat="46.06181" lon="6.75657">
        <ele>973.8</ele>
        <time>2026-06-26T06:19:11Z</time>
      </trkpt>
      <trkpt lat="46.06181" lon="6.75656">
        <ele>973.8</ele>
        <time>2026-06-26T06:19:12Z</time>
      </trkpt>
      <trkpt lat="46.06181" lon="6.75655">
        <ele>973.8</ele>
        <time>2026-06-26T06:19:13Z</time>
      </trkpt>
      <trkpt lat="46.0618" lon="6.75654">
        <ele>973.9</ele>
        <time>2026-06-26T06:19:14Z</time>
      </trkpt>
      <trkpt lat="46.06179" lon="6.75653">
        <ele>973.9</ele>
        <time>2026-06-26T06:19:15Z</time>
      </trkpt>
      <trkpt lat="46.06179" lon="6.75652">
        <ele>974</ele>
        <time>2026-06-26T06:19:16Z</time>
      </trkpt>
      <trkpt lat="46.06179" lon="6.75652">
        <ele>973.9</ele>
        <time>2026-06-26T06:19:17Z</time>
      </trkpt>
      <trkpt lat="46.06179" lon="6.75652">
        <ele>973.9</ele>
        <time>2026-06-26T06:19:18Z</time>
      </trkpt>
      <trkpt lat="46.06179" lon="6.75652">
        <ele>973.9</ele>
        <time>2026-06-26T06:19:19Z</time>
      </trkpt>
      <trkpt lat="46.06179" lon="6.75651">
        <ele>973.9</ele>
        <time>2026-06-26T06:19:20Z</time>
      </trkpt>
      <trkpt lat="46.06179" lon="6.7565">
        <ele>973.9</ele>
        <time>2026-06-26T06:19:21Z</time>
      </trkpt>
      <trkpt lat="46.06179" lon="6.7565">
        <ele>974</ele>
        <time>2026-06-26T06:19:22Z</time>
      </trkpt>
      <trkpt lat="46.06178" lon="6.75649">
        <ele>974</ele>
        <time>2026-06-26T06:19:23Z</time>
      </trkpt>
      <trkpt lat="46.06178" lon="6.75649">
        <ele>974</ele>
        <time>2026-06-26T06:19:24Z</time>
      </trkpt>
      <trkpt lat="46.06178" lon="6.75649">
        <ele>974</ele>
        <time>2026-06-26T06:19:25Z</time>
      </trkpt>
      <trkpt lat="46.06177" lon="6.75649">
        <ele>973.9</ele>
        <time>2026-06-26T06:19:26Z</time>
      </trkpt>
      <trkpt lat="46.06177" lon="6.75649">
        <ele>973.9</ele>
        <time>2026-06-26T06:19:27Z</time>
      </trkpt>
      <trkpt lat="46.06177" lon="6.75649">
        <ele>973.8</ele>
        <time>2026-06-26T06:19:28Z</time>
      </trkpt>
      <trkpt lat="46.06177" lon="6.75649">
        <ele>973.8</ele>
        <time>2026-06-26T06:19:29Z</time>
      </trkpt>
      <trkpt lat="46.06178" lon="6.7565">
        <ele>973.8</ele>
        <time>2026-06-26T06:19:30Z</time>
      </trkpt>
      <trkpt lat="46.06178" lon="6.7565">
        <ele>973.7</ele>
        <time>2026-06-26T06:19:31Z</time>
      </trkpt>
      <trkpt lat="46.06178" lon="6.75651">
        <ele>973.6</ele>
        <time>2026-06-26T06:19:32Z</time>
      </trkpt>
      <trkpt lat="46.06178" lon="6.75652">
        <ele>973.7</ele>
        <time>2026-06-26T06:19:33Z</time>
      </trkpt>
      <trkpt lat="46.06178" lon="6.75653">
        <ele>973.8</ele>
        <time>2026-06-26T06:19:34Z</time>
      </trkpt>
      <trkpt lat="46.06178" lon="6.75654">
        <ele>973.8</ele>
        <time>2026-06-26T06:19:35Z</time>
      </trkpt>
      <trkpt lat="46.06177" lon="6.75654">
        <ele>973.8</ele>
        <time>2026-06-26T06:19:36Z</time>
      </trkpt>
      <trkpt lat="46.06176" lon="6.75654">
        <ele>973.8</ele>
        <time>2026-06-26T06:19:37Z</time>
      </trkpt>
      <trkpt lat="46.06175" lon="6.75654">
        <ele>973.8</ele>
        <time>2026-06-26T06:19:38Z</time>
      </trkpt>
      <trkpt lat="46.06175" lon="6.75654">
        <ele>973.8</ele>
        <time>2026-06-26T06:19:39Z</time>
      </trkpt>
      <trkpt lat="46.06175" lon="6.75655">
        <ele>973.8</ele>
        <time>2026-06-26T06:19:40Z</time>
      </trkpt>
      <trkpt lat="46.06175" lon="6.75655">
        <ele>973.8</ele>
        <time>2026-06-26T06:19:41Z</time>
      </trkpt>
      <trkpt lat="46.06175" lon="6.75656">
        <ele>973.8</ele>
        <time>2026-06-26T06:19:42Z</time>
      </trkpt>
      <trkpt lat="46.06175" lon="6.75656">
        <ele>973.8</ele>
        <time>2026-06-26T06:19:43Z</time>
      </trkpt>
      <trkpt lat="46.06175" lon="6.75657">
        <ele>973.8</ele>
        <time>2026-06-26T06:19:44Z</time>
      </trkpt>
      <trkpt lat="46.06175" lon="6.75657">
        <ele>973.7</ele>
        <time>2026-06-26T06:19:45Z</time>
      </trkpt>
      <trkpt lat="46.06175" lon="6.75658">
        <ele>973.7</ele>
        <time>2026-06-26T06:19:46Z</time>
      </trkpt>
      <trkpt lat="46.06176" lon="6.75657">
        <ele>973.6</ele>
        <time>2026-06-26T06:19:47Z</time>
      </trkpt>
      <trkpt lat="46.06176" lon="6.75657">
        <ele>973.5</ele>
        <time>2026-06-26T06:19:48Z</time>
      </trkpt>
      <trkpt lat="46.06176" lon="6.75658">
        <ele>973.5</ele>
        <time>2026-06-26T06:19:49Z</time>
      </trkpt>
      <trkpt lat="46.06177" lon="6.75658">
        <ele>973.5</ele>
        <time>2026-06-26T06:19:50Z</time>
      </trkpt>
      <trkpt lat="46.06177" lon="6.75658">
        <ele>973.5</ele>
        <time>2026-06-26T06:19:51Z</time>
      </trkpt>
      <trkpt lat="46.06177" lon="6.75658">
        <ele>973.5</ele>
        <time>2026-06-26T06:19:52Z</time>
      </trkpt>
      <trkpt lat="46.06177" lon="6.75658">
        <ele>973.5</ele>
        <time>2026-06-26T06:19:53Z</time>
      </trkpt>
      <trkpt lat="46.06177" lon="6.75657">
        <ele>973.5</ele>
        <time>2026-06-26T06:19:54Z</time>
      </trkpt>
      <trkpt lat="46.06177" lon="6.75658">
        <ele>973.5</ele>
        <time>2026-06-26T06:19:55Z</time>
      </trkpt>
      <trkpt lat="46.06177" lon="6.75657">
        <ele>973.5</ele>
        <time>2026-06-26T06:19:56Z</time>
      </trkpt>
      <trkpt lat="46.06177" lon="6.75658">
        <ele>973.5</ele>
        <time>2026-06-26T06:19:57Z</time>
      </trkpt>
      <trkpt lat="46.06177" lon="6.75658">
        <ele>973.5</ele>
        <time>2026-06-26T06:19:58Z</time>
      </trkpt>
      <trkpt lat="46.06177" lon="6.75659">
        <ele>973.4</ele>
        <time>2026-06-26T06:19:59Z</time>
      </trkpt>
      <trkpt lat="46.06177" lon="6.75659">
        <ele>973.3</ele>
        <time>2026-06-26T06:20:00Z</time>
      </trkpt>
      <trkpt lat="46.06177" lon="6.7566">
        <ele>973.3</ele>
        <time>2026-06-26T06:20:01Z</time>
      </trkpt>
      <trkpt lat="46.06177" lon="6.75661">
        <ele>973.3</ele>
        <time>2026-06-26T06:20:02Z</time>
      </trkpt>
      <trkpt lat="46.06177" lon="6.75661">
        <ele>973.2</ele>
        <time>2026-06-26T06:20:03Z</time>
      </trkpt>
      <trkpt lat="46.06177" lon="6.75661">
        <ele>973.3</ele>
        <time>2026-06-26T06:20:04Z</time>
      </trkpt>
      <trkpt lat="46.06177" lon="6.75662">
        <ele>973.3</ele>
        <time>2026-06-26T06:20:05Z</time>
      </trkpt>
      <trkpt lat="46.06177" lon="6.75661">
        <ele>973.5</ele>
        <time>2026-06-26T06:20:06Z</time>
      </trkpt>
      <trkpt lat="46.06176" lon="6.75661">
        <ele>973.6</ele>
        <time>2026-06-26T06:20:07Z</time>
      </trkpt>
      <trkpt lat="46.06177" lon="6.75661">
        <ele>973.6</ele>
        <time>2026-06-26T06:20:08Z</time>
      </trkpt>
      <trkpt lat="46.06177" lon="6.7566">
        <ele>973.6</ele>
        <time>2026-06-26T06:20:09Z</time>
      </trkpt>
      <trkpt lat="46.06177" lon="6.7566">
        <ele>973.6</ele>
        <time>2026-06-26T06:20:10Z</time>
      </trkpt>
      <trkpt lat="46.06177" lon="6.7566">
        <ele>973.5</ele>
        <time>2026-06-26T06:20:11Z</time>
      </trkpt>
      <trkpt lat="46.06177" lon="6.7566">
        <ele>973.5</ele>
        <time>2026-06-26T06:20:12Z</time>
      </trkpt>
      <trkpt lat="46.06177" lon="6.7566">
        <ele>973.5</ele>
        <time>2026-06-26T06:20:13Z</time>
      </trkpt>
      <trkpt lat="46.06177" lon="6.7566">
        <ele>973.6</ele>
        <time>2026-06-26T06:20:14Z</time>
      </trkpt>
      <trkpt lat="46.06177" lon="6.7566">
        <ele>973.7</ele>
        <time>2026-06-26T06:20:15Z</time>
      </trkpt>
      <trkpt lat="46.06177" lon="6.7566">
        <ele>973.7</ele>
        <time>2026-06-26T06:20:16Z</time>
      </trkpt>
      <trkpt lat="46.06178" lon="6.75661">
        <ele>973.8</ele>
        <time>2026-06-26T06:20:17Z</time>
      </trkpt>
      <trkpt lat="46.06179" lon="6.75661">
        <ele>973.8</ele>
        <time>2026-06-26T06:20:18Z</time>
      </trkpt>
      <trkpt lat="46.06179" lon="6.75661">
        <ele>973.9</ele>
        <time>2026-06-26T06:20:19Z</time>
      </trkpt>
      <trkpt lat="46.0618" lon="6.75662">
        <ele>973.9</ele>
        <time>2026-06-26T06:20:20Z</time>
      </trkpt>
      <trkpt lat="46.0618" lon="6.75663">
        <ele>973.9</ele>
        <time>2026-06-26T06:20:21Z</time>
      </trkpt>
      <trkpt lat="46.0618" lon="6.75663">
        <ele>974</ele>
        <time>2026-06-26T06:20:22Z</time>
      </trkpt>
      <trkpt lat="46.0618" lon="6.75663">
        <ele>973.9</ele>
        <time>2026-06-26T06:20:23Z</time>
      </trkpt>
      <trkpt lat="46.0618" lon="6.75663">
        <ele>974</ele>
        <time>2026-06-26T06:20:24Z</time>
      </trkpt>
      <trkpt lat="46.0618" lon="6.75663">
        <ele>974</ele>
        <time>2026-06-26T06:20:25Z</time>
      </trkpt>
      <trkpt lat="46.0618" lon="6.75663">
        <ele>974</ele>
        <time>2026-06-26T06:20:26Z</time>
      </trkpt>
      <trkpt lat="46.0618" lon="6.75663">
        <ele>974.1</ele>
        <time>2026-06-26T06:20:27Z</time>
      </trkpt>
      <trkpt lat="46.0618" lon="6.75662">
        <ele>974.2</ele>
        <time>2026-06-26T06:20:28Z</time>
      </trkpt>
      <trkpt lat="46.0618" lon="6.75662">
        <ele>974.2</ele>
        <time>2026-06-26T06:20:29Z</time>
      </trkpt>
      <trkpt lat="46.06181" lon="6.75662">
        <ele>974.2</ele>
        <time>2026-06-26T06:20:30Z</time>
      </trkpt>
      <trkpt lat="46.0618" lon="6.75662">
        <ele>974.3</ele>
        <time>2026-06-26T06:20:31Z</time>
      </trkpt>
      <trkpt lat="46.0618" lon="6.75661">
        <ele>974.2</ele>
        <time>2026-06-26T06:20:32Z</time>
      </trkpt>
      <trkpt lat="46.0618" lon="6.75661">
        <ele>974.2</ele>
        <time>2026-06-26T06:20:33Z</time>
      </trkpt>
      <trkpt lat="46.0618" lon="6.7566">
        <ele>974.1</ele>
        <time>2026-06-26T06:20:34Z</time>
      </trkpt>
      <trkpt lat="46.0618" lon="6.7566">
        <ele>973.9</ele>
        <time>2026-06-26T06:20:35Z</time>
      </trkpt>
      <trkpt lat="46.0618" lon="6.7566">
        <ele>974</ele>
        <time>2026-06-26T06:20:36Z</time>
      </trkpt>
      <trkpt lat="46.0618" lon="6.75659">
        <ele>974.1</ele>
        <time>2026-06-26T06:20:37Z</time>
      </trkpt>
      <trkpt lat="46.0618" lon="6.7566">
        <ele>974.2</ele>
        <time>2026-06-26T06:20:38Z</time>
      </trkpt>
      <trkpt lat="46.0618" lon="6.7566">
        <ele>974.2</ele>
        <time>2026-06-26T06:20:39Z</time>
      </trkpt>
      <trkpt lat="46.0618" lon="6.7566">
        <ele>974.2</ele>
        <time>2026-06-26T06:20:40Z</time>
      </trkpt>
      <trkpt lat="46.0618" lon="6.7566">
        <ele>974.3</ele>
        <time>2026-06-26T06:20:41Z</time>
      </trkpt>
      <trkpt lat="46.0618" lon="6.7566">
        <ele>974.3</ele>
        <time>2026-06-26T06:20:42Z</time>
      </trkpt>
      <trkpt lat="46.0618" lon="6.7566">
        <ele>974.3</ele>
        <time>2026-06-26T06:20:43Z</time>
      </trkpt>
      <trkpt lat="46.0618" lon="6.7566">
        <ele>974.2</ele>
        <time>2026-06-26T06:20:44Z</time>
      </trkpt>
      <trkpt lat="46.0618" lon="6.7566">
        <ele>974.2</ele>
        <time>2026-06-26T06:20:45Z</time>
      </trkpt>
      <trkpt lat="46.0618" lon="6.7566">
        <ele>974.2</ele>
        <time>2026-06-26T06:20:46Z</time>
      </trkpt>
      <trkpt lat="46.0618" lon="6.75661">
        <ele>974.2</ele>
        <time>2026-06-26T06:20:47Z</time>
      </trkpt>
      <trkpt lat="46.06179" lon="6.7566">
        <ele>974.1</ele>
        <time>2026-06-26T06:20:48Z</time>
      </trkpt>
      <trkpt lat="46.06179" lon="6.7566">
        <ele>974</ele>
        <time>2026-06-26T06:20:49Z</time>
      </trkpt>
      <trkpt lat="46.06179" lon="6.7566">
        <ele>973.9</ele>
        <time>2026-06-26T06:20:50Z</time>
      </trkpt>
      <trkpt lat="46.0618" lon="6.7566">
        <ele>973.9</ele>
        <time>2026-06-26T06:20:51Z</time>
      </trkpt>
      <trkpt lat="46.0618" lon="6.7566">
        <ele>973.8</ele>
        <time>2026-06-26T06:20:52Z</time>
      </trkpt>
      <trkpt lat="46.0618" lon="6.7566">
        <ele>973.9</ele>
        <time>2026-06-26T06:20:53Z</time>
      </trkpt>
      <trkpt lat="46.06179" lon="6.7566">
        <ele>973.9</ele>
        <time>2026-06-26T06:20:54Z</time>
      </trkpt>
      <trkpt lat="46.06179" lon="6.7566">
        <ele>974</ele>
        <time>2026-06-26T06:20:55Z</time>
      </trkpt>
      <trkpt lat="46.06178" lon="6.7566">
        <ele>974</ele>
        <time>2026-06-26T06:20:56Z</time>
      </trkpt>
      <trkpt lat="46.06178" lon="6.7566">
        <ele>974.1</ele>
        <time>2026-06-26T06:20:57Z</time>
      </trkpt>
      <trkpt lat="46.06178" lon="6.7566">
        <ele>974.1</ele>
        <time>2026-06-26T06:20:58Z</time>
      </trkpt>
      <trkpt lat="46.06178" lon="6.7566">
        <ele>974.1</ele>
        <time>2026-06-26T06:20:59Z</time>
      </trkpt>
      <trkpt lat="46.06178" lon="6.7566">
        <ele>974</ele>
        <time>2026-06-26T06:21:00Z</time>
      </trkpt>
      <trkpt lat="46.06178" lon="6.7566">
        <ele>974</ele>
        <time>2026-06-26T06:21:01Z</time>
      </trkpt>
      <trkpt lat="46.06179" lon="6.7566">
        <ele>974</ele>
        <time>2026-06-26T06:21:02Z</time>
      </trkpt>
      <trkpt lat="46.06179" lon="6.75661">
        <ele>974</ele>
        <time>2026-06-26T06:21:03Z</time>
      </trkpt>
      <trkpt lat="46.06179" lon="6.75661">
        <ele>974</ele>
        <time>2026-06-26T06:21:04Z</time>
      </trkpt>
      <trkpt lat="46.06179" lon="6.75661">
        <ele>973.9</ele>
        <time>2026-06-26T06:21:05Z</time>
      </trkpt>
      <trkpt lat="46.06179" lon="6.75662">
        <ele>973.8</ele>
        <time>2026-06-26T06:21:06Z</time>
      </trkpt>
      <trkpt lat="46.0618" lon="6.75662">
        <ele>973.6</ele>
        <time>2026-06-26T06:21:07Z</time>
      </trkpt>
      <trkpt lat="46.06181" lon="6.75663">
        <ele>973.8</ele>
        <time>2026-06-26T06:21:08Z</time>
      </trkpt>
      <trkpt lat="46.06181" lon="6.75663">
        <ele>973.7</ele>
        <time>2026-06-26T06:21:09Z</time>
      </trkpt>
      <trkpt lat="46.0618" lon="6.75663">
        <ele>973.8</ele>
        <time>2026-06-26T06:21:10Z</time>
      </trkpt>
      <trkpt lat="46.0618" lon="6.75663">
        <ele>973.7</ele>
        <time>2026-06-26T06:21:11Z</time>
      </trkpt>
      <trkpt lat="46.0618" lon="6.75663">
        <ele>973.7</ele>
        <time>2026-06-26T06:21:12Z</time>
      </trkpt>
      <trkpt lat="46.0618" lon="6.75663">
        <ele>973.7</ele>
        <time>2026-06-26T06:21:13Z</time>
      </trkpt>
      <trkpt lat="46.0618" lon="6.75663">
        <ele>973.7</ele>
        <time>2026-06-26T06:21:14Z</time>
      </trkpt>
      <trkpt lat="46.0618" lon="6.75663">
        <ele>973.7</ele>
        <time>2026-06-26T06:21:15Z</time>
      </trkpt>
      <trkpt lat="46.0618" lon="6.75663">
        <ele>973.7</ele>
        <time>2026-06-26T06:21:16Z</time>
      </trkpt>
      <trkpt lat="46.0618" lon="6.75662">
        <ele>973.7</ele>
        <time>2026-06-26T06:21:17Z</time>
      </trkpt>
      <trkpt lat="46.0618" lon="6.75662">
        <ele>973.7</ele>
        <time>2026-06-26T06:21:18Z</time>
      </trkpt>
      <trkpt lat="46.0618" lon="6.75662">
        <ele>973.7</ele>
        <time>2026-06-26T06:21:19Z</time>
      </trkpt>
      <trkpt lat="46.0618" lon="6.75662">
        <ele>973.7</ele>
        <time>2026-06-26T06:21:20Z</time>
      </trkpt>
      <trkpt lat="46.0618" lon="6.75662">
        <ele>973.6</ele>
        <time>2026-06-26T06:21:21Z</time>
      </trkpt>
      <trkpt lat="46.0618" lon="6.75661">
        <ele>973.6</ele>
        <time>2026-06-26T06:21:22Z</time>
      </trkpt>
      <trkpt lat="46.06181" lon="6.75661">
        <ele>973.6</ele>
        <time>2026-06-26T06:21:23Z</time>
      </trkpt>
      <trkpt lat="46.06181" lon="6.75661">
        <ele>973.6</ele>
        <time>2026-06-26T06:21:24Z</time>
      </trkpt>
      <trkpt lat="46.06181" lon="6.75661">
        <ele>973.6</ele>
        <time>2026-06-26T06:21:25Z</time>
      </trkpt>
      <trkpt lat="46.06181" lon="6.75661">
        <ele>973.6</ele>
        <time>2026-06-26T06:21:26Z</time>
      </trkpt>
      <trkpt lat="46.06181" lon="6.75661">
        <ele>973.6</ele>
        <time>2026-06-26T06:21:27Z</time>
      </trkpt>
      <trkpt lat="46.06181" lon="6.75662">
        <ele>973.7</ele>
        <time>2026-06-26T06:21:28Z</time>
      </trkpt>
      <trkpt lat="46.06182" lon="6.75662">
        <ele>973.7</ele>
        <time>2026-06-26T06:21:29Z</time>
      </trkpt>
      <trkpt lat="46.06182" lon="6.75662">
        <ele>973.7</ele>
        <time>2026-06-26T06:21:30Z</time>
      </trkpt>
      <trkpt lat="46.06182" lon="6.75662">
        <ele>973.7</ele>
        <time>2026-06-26T06:21:31Z</time>
      </trkpt>
      <trkpt lat="46.06182" lon="6.75662">
        <ele>973.7</ele>
        <time>2026-06-26T06:21:32Z</time>
      </trkpt>
      <trkpt lat="46.06182" lon="6.75663">
        <ele>973.7</ele>
        <time>2026-06-26T06:21:33Z</time>
      </trkpt>
      <trkpt lat="46.06182" lon="6.75663">
        <ele>973.6</ele>
        <time>2026-06-26T06:21:34Z</time>
      </trkpt>
      <trkpt lat="46.06182" lon="6.75663">
        <ele>973.6</ele>
        <time>2026-06-26T06:21:35Z</time>
      </trkpt>
      <trkpt lat="46.06183" lon="6.75663">
        <ele>973.6</ele>
        <time>2026-06-26T06:21:36Z</time>
      </trkpt>
      <trkpt lat="46.06183" lon="6.75663">
        <ele>973.5</ele>
        <time>2026-06-26T06:21:37Z</time>
      </trkpt>
      <trkpt lat="46.06183" lon="6.75663">
        <ele>973.5</ele>
        <time>2026-06-26T06:21:38Z</time>
      </trkpt>
      <trkpt lat="46.06183" lon="6.75663">
        <ele>973.5</ele>
        <time>2026-06-26T06:21:39Z</time>
      </trkpt>
      <trkpt lat="46.06183" lon="6.75663">
        <ele>973.5</ele>
        <time>2026-06-26T06:21:40Z</time>
      </trkpt>
      <trkpt lat="46.06183" lon="6.75663">
        <ele>973.5</ele>
        <time>2026-06-26T06:21:41Z</time>
      </trkpt>
      <trkpt lat="46.06183" lon="6.75664">
        <ele>973.6</ele>
        <time>2026-06-26T06:21:42Z</time>
      </trkpt>
      <trkpt lat="46.06183" lon="6.75664">
        <ele>973.6</ele>
        <time>2026-06-26T06:21:43Z</time>
      </trkpt>
      <trkpt lat="46.06183" lon="6.75664">
        <ele>973.6</ele>
        <time>2026-06-26T06:21:44Z</time>
      </trkpt>
      <trkpt lat="46.06183" lon="6.75664">
        <ele>973.6</ele>
        <time>2026-06-26T06:21:45Z</time>
      </trkpt>
      <trkpt lat="46.06184" lon="6.75664">
        <ele>973.6</ele>
        <time>2026-06-26T06:21:46Z</time>
      </trkpt>
      <trkpt lat="46.06184" lon="6.75664">
        <ele>973.6</ele>
        <time>2026-06-26T06:21:47Z</time>
      </trkpt>
      <trkpt lat="46.06184" lon="6.75664">
        <ele>973.6</ele>
        <time>2026-06-26T06:21:48Z</time>
      </trkpt>
      <trkpt lat="46.06184" lon="6.75664">
        <ele>973.7</ele>
        <time>2026-06-26T06:21:49Z</time>
      </trkpt>
      <trkpt lat="46.06184" lon="6.75665">
        <ele>973.7</ele>
        <time>2026-06-26T06:21:50Z</time>
      </trkpt>
      <trkpt lat="46.06184" lon="6.75665">
        <ele>973.8</ele>
        <time>2026-06-26T06:21:51Z</time>
      </trkpt>
      <trkpt lat="46.06184" lon="6.75665">
        <ele>973.8</ele>
        <time>2026-06-26T06:21:52Z</time>
      </trkpt>
      <trkpt lat="46.06184" lon="6.75665">
        <ele>973.8</ele>
        <time>2026-06-26T06:21:53Z</time>
      </trkpt>
      <trkpt lat="46.06184" lon="6.75664">
        <ele>973.7</ele>
        <time>2026-06-26T06:21:54Z</time>
      </trkpt>
      <trkpt lat="46.06184" lon="6.75664">
        <ele>973.8</ele>
        <time>2026-06-26T06:21:55Z</time>
      </trkpt>
      <trkpt lat="46.06184" lon="6.75664">
        <ele>973.8</ele>
        <time>2026-06-26T06:21:56Z</time>
      </trkpt>
      <trkpt lat="46.06184" lon="6.75664">
        <ele>973.8</ele>
        <time>2026-06-26T06:21:57Z</time>
      </trkpt>
      <trkpt lat="46.06184" lon="6.75664">
        <ele>973.8</ele>
        <time>2026-06-26T06:21:58Z</time>
      </trkpt>
      <trkpt lat="46.06184" lon="6.75664">
        <ele>973.7</ele>
        <time>2026-06-26T06:21:59Z</time>
      </trkpt>
      <trkpt lat="46.06184" lon="6.75664">
        <ele>973.8</ele>
        <time>2026-06-26T06:22:00Z</time>
      </trkpt>
      <trkpt lat="46.06184" lon="6.75664">
        <ele>973.8</ele>
        <time>2026-06-26T06:22:01Z</time>
      </trkpt>
      <trkpt lat="46.06184" lon="6.75664">
        <ele>973.9</ele>
        <time>2026-06-26T06:22:02Z</time>
      </trkpt>
      <trkpt lat="46.06184" lon="6.75664">
        <ele>973.8</ele>
        <time>2026-06-26T06:22:03Z</time>
      </trkpt>
      <trkpt lat="46.06184" lon="6.75664">
        <ele>973.8</ele>
        <time>2026-06-26T06:22:04Z</time>
      </trkpt>
      <trkpt lat="46.06184" lon="6.75664">
        <ele>973.8</ele>
        <time>2026-06-26T06:22:05Z</time>
      </trkpt>
      <trkpt lat="46.06184" lon="6.75664">
        <ele>973.8</ele>
        <time>2026-06-26T06:22:06Z</time>
      </trkpt>
      <trkpt lat="46.06183" lon="6.75664">
        <ele>973.9</ele>
        <time>2026-06-26T06:22:07Z</time>
      </trkpt>
      <trkpt lat="46.06183" lon="6.75664">
        <ele>973.9</ele>
        <time>2026-06-26T06:22:08Z</time>
      </trkpt>
      <trkpt lat="46.06183" lon="6.75664">
        <ele>973.9</ele>
        <time>2026-06-26T06:22:09Z</time>
      </trkpt>
      <trkpt lat="46.06183" lon="6.75664">
        <ele>973.9</ele>
        <time>2026-06-26T06:22:10Z</time>
      </trkpt>
      <trkpt lat="46.06183" lon="6.75663">
        <ele>973.8</ele>
        <time>2026-06-26T06:22:11Z</time>
      </trkpt>
      <trkpt lat="46.06183" lon="6.75663">
        <ele>973.8</ele>
        <time>2026-06-26T06:22:12Z</time>
      </trkpt>
      <trkpt lat="46.06183" lon="6.75663">
        <ele>973.8</ele>
        <time>2026-06-26T06:22:13Z</time>
      </trkpt>
      <trkpt lat="46.06183" lon="6.75663">
        <ele>973.8</ele>
        <time>2026-06-26T06:22:14Z</time>
      </trkpt>
      <trkpt lat="46.06183" lon="6.75663">
        <ele>973.8</ele>
        <time>2026-06-26T06:22:15Z</time>
      </trkpt>
      <trkpt lat="46.06183" lon="6.75663">
        <ele>973.8</ele>
        <time>2026-06-26T06:22:16Z</time>
      </trkpt>
      <trkpt lat="46.06183" lon="6.75663">
        <ele>973.8</ele>
        <time>2026-06-26T06:22:17Z</time>
      </trkpt>
      <trkpt lat="46.06183" lon="6.75663">
        <ele>973.7</ele>
        <time>2026-06-26T06:22:18Z</time>
      </trkpt>
      <trkpt lat="46.06183" lon="6.75664">
        <ele>973.7</ele>
        <time>2026-06-26T06:22:19Z</time>
      </trkpt>
      <trkpt lat="46.06183" lon="6.75664">
        <ele>973.7</ele>
        <time>2026-06-26T06:22:20Z</time>
      </trkpt>
      <trkpt lat="46.06183" lon="6.75664">
        <ele>973.8</ele>
        <time>2026-06-26T06:22:21Z</time>
      </trkpt>
      <trkpt lat="46.06183" lon="6.75664">
        <ele>973.7</ele>
        <time>2026-06-26T06:22:22Z</time>
      </trkpt>
      <trkpt lat="46.06182" lon="6.75664">
        <ele>973.7</ele>
        <time>2026-06-26T06:22:23Z</time>
      </trkpt>
      <trkpt lat="46.06182" lon="6.75665">
        <ele>973.6</ele>
        <time>2026-06-26T06:22:24Z</time>
      </trkpt>
      <trkpt lat="46.06182" lon="6.75666">
        <ele>973.7</ele>
        <time>2026-06-26T06:22:25Z</time>
      </trkpt>
      <trkpt lat="46.06182" lon="6.75667">
        <ele>973.7</ele>
        <time>2026-06-26T06:22:26Z</time>
      </trkpt>
      <trkpt lat="46.06182" lon="6.75667">
        <ele>973.8</ele>
        <time>2026-06-26T06:22:27Z</time>
      </trkpt>
      <trkpt lat="46.06183" lon="6.75668">
        <ele>973.8</ele>
        <time>2026-06-26T06:22:28Z</time>
      </trkpt>
      <trkpt lat="46.06183" lon="6.75668">
        <ele>973.8</ele>
        <time>2026-06-26T06:22:29Z</time>
      </trkpt>
      <trkpt lat="46.06184" lon="6.75668">
        <ele>973.8</ele>
        <time>2026-06-26T06:22:30Z</time>
      </trkpt>
      <trkpt lat="46.06185" lon="6.75668">
        <ele>973.8</ele>
        <time>2026-06-26T06:22:31Z</time>
      </trkpt>
      <trkpt lat="46.06186" lon="6.75668">
        <ele>973.8</ele>
        <time>2026-06-26T06:22:32Z</time>
      </trkpt>
      <trkpt lat="46.06187" lon="6.75668">
        <ele>973.7</ele>
        <time>2026-06-26T06:22:33Z</time>
      </trkpt>
      <trkpt lat="46.06188" lon="6.75667">
        <ele>973.7</ele>
        <time>2026-06-26T06:22:34Z</time>
      </trkpt>
      <trkpt lat="46.06187" lon="6.75667">
        <ele>973.6</ele>
        <time>2026-06-26T06:22:35Z</time>
      </trkpt>
      <trkpt lat="46.06187" lon="6.75667">
        <ele>973.6</ele>
        <time>2026-06-26T06:22:36Z</time>
      </trkpt>
      <trkpt lat="46.06186" lon="6.75669">
        <ele>973.5</ele>
        <time>2026-06-26T06:22:37Z</time>
      </trkpt>
      <trkpt lat="46.06185" lon="6.7567">
        <ele>973.6</ele>
        <time>2026-06-26T06:22:38Z</time>
      </trkpt>
      <trkpt lat="46.06184" lon="6.75671">
        <ele>973.7</ele>
        <time>2026-06-26T06:22:39Z</time>
      </trkpt>
      <trkpt lat="46.06183" lon="6.75672">
        <ele>973.7</ele>
        <time>2026-06-26T06:22:40Z</time>
      </trkpt>
      <trkpt lat="46.06183" lon="6.75673">
        <ele>973.7</ele>
        <time>2026-06-26T06:22:41Z</time>
      </trkpt>
      <trkpt lat="46.06182" lon="6.75675">
        <ele>973.8</ele>
        <time>2026-06-26T06:22:42Z</time>
      </trkpt>
      <trkpt lat="46.06181" lon="6.75676">
        <ele>973.9</ele>
        <time>2026-06-26T06:22:43Z</time>
      </trkpt>
      <trkpt lat="46.06181" lon="6.75677">
        <ele>974</ele>
        <time>2026-06-26T06:22:44Z</time>
      </trkpt>
      <trkpt lat="46.0618" lon="6.75679">
        <ele>974</ele>
        <time>2026-06-26T06:22:45Z</time>
      </trkpt>
      <trkpt lat="46.0618" lon="6.7568">
        <ele>974.1</ele>
        <time>2026-06-26T06:22:46Z</time>
      </trkpt>
      <trkpt lat="46.0618" lon="6.75682">
        <ele>974.1</ele>
        <time>2026-06-26T06:22:47Z</time>
      </trkpt>
      <trkpt lat="46.06179" lon="6.75683">
        <ele>974.1</ele>
        <time>2026-06-26T06:22:48Z</time>
      </trkpt>
      <trkpt lat="46.06179" lon="6.75686">
        <ele>974.2</ele>
        <time>2026-06-26T06:22:49Z</time>
      </trkpt>
      <trkpt lat="46.06179" lon="6.75687">
        <ele>974.2</ele>
        <time>2026-06-26T06:22:50Z</time>
      </trkpt>
      <trkpt lat="46.06178" lon="6.75689">
        <ele>974.3</ele>
        <time>2026-06-26T06:22:51Z</time>
      </trkpt>
      <trkpt lat="46.06178" lon="6.7569">
        <ele>974.3</ele>
        <time>2026-06-26T06:22:52Z</time>
      </trkpt>
      <trkpt lat="46.06178" lon="6.75691">
        <ele>974.4</ele>
        <time>2026-06-26T06:22:53Z</time>
      </trkpt>
      <trkpt lat="46.06178" lon="6.75692">
        <ele>974.4</ele>
        <time>2026-06-26T06:22:54Z</time>
      </trkpt>
      <trkpt lat="46.06178" lon="6.75693">
        <ele>974.5</ele>
        <time>2026-06-26T06:22:55Z</time>
      </trkpt>
      <trkpt lat="46.06178" lon="6.75694">
        <ele>974.5</ele>
        <time>2026-06-26T06:22:56Z</time>
      </trkpt>
      <trkpt lat="46.06178" lon="6.75697">
        <ele>974.6</ele>
        <time>2026-06-26T06:22:57Z</time>
      </trkpt>
      <trkpt lat="46.06177" lon="6.75698">
        <ele>974.6</ele>
        <time>2026-06-26T06:22:58Z</time>
      </trkpt>
      <trkpt lat="46.06177" lon="6.757">
        <ele>974.6</ele>
        <time>2026-06-26T06:22:59Z</time>
      </trkpt>
      <trkpt lat="46.06177" lon="6.75702">
        <ele>974.7</ele>
        <time>2026-06-26T06:23:00Z</time>
      </trkpt>
      <trkpt lat="46.06177" lon="6.75703">
        <ele>974.8</ele>
        <time>2026-06-26T06:23:01Z</time>
      </trkpt>
      <trkpt lat="46.06177" lon="6.75704">
        <ele>974.9</ele>
        <time>2026-06-26T06:23:02Z</time>
      </trkpt>
      <trkpt lat="46.06177" lon="6.75706">
        <ele>975</ele>
        <time>2026-06-26T06:23:03Z</time>
      </trkpt>
      <trkpt lat="46.06176" lon="6.75707">
        <ele>975</ele>
        <time>2026-06-26T06:23:04Z</time>
      </trkpt>
      <trkpt lat="46.06176" lon="6.75708">
        <ele>975.1</ele>
        <time>2026-06-26T06:23:05Z</time>
      </trkpt>
      <trkpt lat="46.06176" lon="6.75709">
        <ele>975.1</ele>
        <time>2026-06-26T06:23:06Z</time>
      </trkpt>
      <trkpt lat="46.06176" lon="6.75711">
        <ele>975.1</ele>
        <time>2026-06-26T06:23:07Z</time>
      </trkpt>
      <trkpt lat="46.06175" lon="6.75712">
        <ele>975.1</ele>
        <time>2026-06-26T06:23:08Z</time>
      </trkpt>
      <trkpt lat="46.06175" lon="6.75713">
        <ele>975.1</ele>
        <time>2026-06-26T06:23:09Z</time>
      </trkpt>
      <trkpt lat="46.06175" lon="6.75714">
        <ele>975.1</ele>
        <time>2026-06-26T06:23:10Z</time>
      </trkpt>
      <trkpt lat="46.06174" lon="6.75715">
        <ele>975.3</ele>
        <time>2026-06-26T06:23:11Z</time>
      </trkpt>
      <trkpt lat="46.06174" lon="6.75717">
        <ele>975.4</ele>
        <time>2026-06-26T06:23:12Z</time>
      </trkpt>
      <trkpt lat="46.06173" lon="6.75718">
        <ele>975.4</ele>
        <time>2026-06-26T06:23:13Z</time>
      </trkpt>
      <trkpt lat="46.06173" lon="6.75719">
        <ele>975.4</ele>
        <time>2026-06-26T06:23:14Z</time>
      </trkpt>
      <trkpt lat="46.06173" lon="6.75721">
        <ele>975.4</ele>
        <time>2026-06-26T06:23:15Z</time>
      </trkpt>
      <trkpt lat="46.06172" lon="6.75722">
        <ele>975.4</ele>
        <time>2026-06-26T06:23:16Z</time>
      </trkpt>
      <trkpt lat="46.06172" lon="6.75723">
        <ele>975.5</ele>
        <time>2026-06-26T06:23:17Z</time>
      </trkpt>
      <trkpt lat="46.06172" lon="6.75724">
        <ele>975.5</ele>
        <time>2026-06-26T06:23:18Z</time>
      </trkpt>
      <trkpt lat="46.06171" lon="6.75725">
        <ele>975.5</ele>
        <time>2026-06-26T06:23:19Z</time>
      </trkpt>
      <trkpt lat="46.06171" lon="6.75726">
        <ele>975.5</ele>
        <time>2026-06-26T06:23:20Z</time>
      </trkpt>
      <trkpt lat="46.06171" lon="6.75728">
        <ele>975.5</ele>
        <time>2026-06-26T06:23:21Z</time>
      </trkpt>
      <trkpt lat="46.0617" lon="6.75729">
        <ele>975.6</ele>
        <time>2026-06-26T06:23:22Z</time>
      </trkpt>
      <trkpt lat="46.0617" lon="6.7573">
        <ele>975.6</ele>
        <time>2026-06-26T06:23:23Z</time>
      </trkpt>
      <trkpt lat="46.0617" lon="6.75731">
        <ele>975.6</ele>
        <time>2026-06-26T06:23:24Z</time>
      </trkpt>
      <trkpt lat="46.0617" lon="6.75733">
        <ele>975.6</ele>
        <time>2026-06-26T06:23:25Z</time>
      </trkpt>
      <trkpt lat="46.0617" lon="6.75734">
        <ele>975.6</ele>
        <time>2026-06-26T06:23:26Z</time>
      </trkpt>
      <trkpt lat="46.06169" lon="6.75735">
        <ele>975.7</ele>
        <time>2026-06-26T06:23:27Z</time>
      </trkpt>
      <trkpt lat="46.06169" lon="6.75737">
        <ele>975.8</ele>
        <time>2026-06-26T06:23:28Z</time>
      </trkpt>
      <trkpt lat="46.06168" lon="6.75738">
        <ele>975.8</ele>
        <time>2026-06-26T06:23:29Z</time>
      </trkpt>
      <trkpt lat="46.06168" lon="6.75739">
        <ele>975.8</ele>
        <time>2026-06-26T06:23:30Z</time>
      </trkpt>
      <trkpt lat="46.06168" lon="6.7574">
        <ele>975.9</ele>
        <time>2026-06-26T06:23:31Z</time>
      </trkpt>
      <trkpt lat="46.06168" lon="6.75742">
        <ele>976</ele>
        <time>2026-06-26T06:23:32Z</time>
      </trkpt>
      <trkpt lat="46.06168" lon="6.75743">
        <ele>976</ele>
        <time>2026-06-26T06:23:33Z</time>
      </trkpt>
      <trkpt lat="46.06167" lon="6.75744">
        <ele>976</ele>
        <time>2026-06-26T06:23:34Z</time>
      </trkpt>
      <trkpt lat="46.06167" lon="6.75745">
        <ele>976</ele>
        <time>2026-06-26T06:23:35Z</time>
      </trkpt>
      <trkpt lat="46.06167" lon="6.75747">
        <ele>976</ele>
        <time>2026-06-26T06:23:36Z</time>
      </trkpt>
      <trkpt lat="46.06166" lon="6.75748">
        <ele>976</ele>
        <time>2026-06-26T06:23:37Z</time>
      </trkpt>
      <trkpt lat="46.06166" lon="6.75749">
        <ele>976</ele>
        <time>2026-06-26T06:23:38Z</time>
      </trkpt>
      <trkpt lat="46.06166" lon="6.75751">
        <ele>976</ele>
        <time>2026-06-26T06:23:39Z</time>
      </trkpt>
      <trkpt lat="46.06166" lon="6.75752">
        <ele>976</ele>
        <time>2026-06-26T06:23:40Z</time>
      </trkpt>
      <trkpt lat="46.06165" lon="6.75753">
        <ele>976.1</ele>
        <time>2026-06-26T06:23:41Z</time>
      </trkpt>
      <trkpt lat="46.06165" lon="6.75754">
        <ele>976.2</ele>
        <time>2026-06-26T06:23:42Z</time>
      </trkpt>
      <trkpt lat="46.06165" lon="6.75754">
        <ele>976.2</ele>
        <time>2026-06-26T06:23:43Z</time>
      </trkpt>
      <trkpt lat="46.06165" lon="6.75755">
        <ele>976.2</ele>
        <time>2026-06-26T06:23:44Z</time>
      </trkpt>
      <trkpt lat="46.06164" lon="6.75755">
        <ele>976.2</ele>
        <time>2026-06-26T06:23:45Z</time>
      </trkpt>
      <trkpt lat="46.06164" lon="6.75755">
        <ele>976.3</ele>
        <time>2026-06-26T06:23:46Z</time>
      </trkpt>
      <trkpt lat="46.06163" lon="6.75755">
        <ele>976.3</ele>
        <time>2026-06-26T06:23:47Z</time>
      </trkpt>
      <trkpt lat="46.06164" lon="6.75755">
        <ele>976.3</ele>
        <time>2026-06-26T06:23:48Z</time>
      </trkpt>
      <trkpt lat="46.06164" lon="6.75755">
        <ele>976.3</ele>
        <time>2026-06-26T06:23:49Z</time>
      </trkpt>
      <trkpt lat="46.06164" lon="6.75755">
        <ele>976.3</ele>
        <time>2026-06-26T06:23:50Z</time>
      </trkpt>
      <trkpt lat="46.06164" lon="6.75755">
        <ele>976.3</ele>
        <time>2026-06-26T06:23:51Z</time>
      </trkpt>
      <trkpt lat="46.06165" lon="6.75755">
        <ele>976.4</ele>
        <time>2026-06-26T06:23:52Z</time>
      </trkpt>
      <trkpt lat="46.06165" lon="6.75754">
        <ele>976.5</ele>
        <time>2026-06-26T06:23:53Z</time>
      </trkpt>
      <trkpt lat="46.06165" lon="6.75754">
        <ele>976.5</ele>
        <time>2026-06-26T06:23:54Z</time>
      </trkpt>
      <trkpt lat="46.06165" lon="6.75754">
        <ele>976.5</ele>
        <time>2026-06-26T06:23:55Z</time>
      </trkpt>
      <trkpt lat="46.06166" lon="6.75754">
        <ele>976.5</ele>
        <time>2026-06-26T06:23:56Z</time>
      </trkpt>
      <trkpt lat="46.06166" lon="6.75754">
        <ele>976.5</ele>
        <time>2026-06-26T06:23:57Z</time>
      </trkpt>
      <trkpt lat="46.06165" lon="6.75755">
        <ele>976.4</ele>
        <time>2026-06-26T06:23:58Z</time>
      </trkpt>
      <trkpt lat="46.06165" lon="6.75756">
        <ele>976.3</ele>
        <time>2026-06-26T06:23:59Z</time>
      </trkpt>
      <trkpt lat="46.06166" lon="6.75757">
        <ele>976.2</ele>
        <time>2026-06-26T06:24:00Z</time>
      </trkpt>
      <trkpt lat="46.06165" lon="6.75759">
        <ele>976.3</ele>
        <time>2026-06-26T06:24:01Z</time>
      </trkpt>
      <trkpt lat="46.06165" lon="6.7576">
        <ele>976.3</ele>
        <time>2026-06-26T06:24:02Z</time>
      </trkpt>
      <trkpt lat="46.06165" lon="6.75761">
        <ele>976.4</ele>
        <time>2026-06-26T06:24:03Z</time>
      </trkpt>
      <trkpt lat="46.06165" lon="6.75763">
        <ele>976.6</ele>
        <time>2026-06-26T06:24:04Z</time>
      </trkpt>
      <trkpt lat="46.06164" lon="6.75764">
        <ele>976.6</ele>
        <time>2026-06-26T06:24:05Z</time>
      </trkpt>
      <trkpt lat="46.06164" lon="6.75765">
        <ele>976.7</ele>
        <time>2026-06-26T06:24:06Z</time>
      </trkpt>
      <trkpt lat="46.06163" lon="6.75766">
        <ele>976.7</ele>
        <time>2026-06-26T06:24:07Z</time>
      </trkpt>
      <trkpt lat="46.06163" lon="6.75766">
        <ele>976.7</ele>
        <time>2026-06-26T06:24:08Z</time>
      </trkpt>
      <trkpt lat="46.06163" lon="6.75766">
        <ele>976.7</ele>
        <time>2026-06-26T06:24:09Z</time>
      </trkpt>
      <trkpt lat="46.06163" lon="6.75766">
        <ele>976.7</ele>
        <time>2026-06-26T06:24:10Z</time>
      </trkpt>
      <trkpt lat="46.06163" lon="6.75766">
        <ele>976.7</ele>
        <time>2026-06-26T06:24:11Z</time>
      </trkpt>
      <trkpt lat="46.06163" lon="6.75766">
        <ele>976.7</ele>
        <time>2026-06-26T06:24:12Z</time>
      </trkpt>
      <trkpt lat="46.06163" lon="6.75766">
        <ele>976.7</ele>
        <time>2026-06-26T06:24:13Z</time>
      </trkpt>
      <trkpt lat="46.06163" lon="6.75766">
        <ele>976.8</ele>
        <time>2026-06-26T06:24:14Z</time>
      </trkpt>
      <trkpt lat="46.06164" lon="6.75766">
        <ele>976.8</ele>
        <time>2026-06-26T06:24:15Z</time>
      </trkpt>
      <trkpt lat="46.06164" lon="6.75766">
        <ele>976.8</ele>
        <time>2026-06-26T06:24:16Z</time>
      </trkpt>
      <trkpt lat="46.06164" lon="6.75766">
        <ele>976.8</ele>
        <time>2026-06-26T06:24:17Z</time>
      </trkpt>
      <trkpt lat="46.06164" lon="6.75766">
        <ele>976.8</ele>
        <time>2026-06-26T06:24:18Z</time>
      </trkpt>
      <trkpt lat="46.06164" lon="6.75766">
        <ele>976.8</ele>
        <time>2026-06-26T06:24:19Z</time>
      </trkpt>
      <trkpt lat="46.06164" lon="6.75766">
        <ele>976.8</ele>
        <time>2026-06-26T06:24:20Z</time>
      </trkpt>
      <trkpt lat="46.06164" lon="6.75766">
        <ele>976.8</ele>
        <time>2026-06-26T06:24:21Z</time>
      </trkpt>
      <trkpt lat="46.06164" lon="6.75766">
        <ele>976.7</ele>
        <time>2026-06-26T06:24:22Z</time>
      </trkpt>
      <trkpt lat="46.06164" lon="6.75766">
        <ele>976.7</ele>
        <time>2026-06-26T06:24:23Z</time>
      </trkpt>
      <trkpt lat="46.06164" lon="6.75767">
        <ele>976.7</ele>
        <time>2026-06-26T06:24:24Z</time>
      </trkpt>
      <trkpt lat="46.06163" lon="6.75768">
        <ele>976.7</ele>
        <time>2026-06-26T06:24:25Z</time>
      </trkpt>
      <trkpt lat="46.06163" lon="6.75771">
        <ele>976.7</ele>
        <time>2026-06-26T06:24:26Z</time>
      </trkpt>
      <trkpt lat="46.06163" lon="6.75773">
        <ele>976.7</ele>
        <time>2026-06-26T06:24:27Z</time>
      </trkpt>
      <trkpt lat="46.06162" lon="6.75773">
        <ele>976.7</ele>
        <time>2026-06-26T06:24:28Z</time>
      </trkpt>
      <trkpt lat="46.06162" lon="6.75775">
        <ele>976.8</ele>
        <time>2026-06-26T06:24:29Z</time>
      </trkpt>
      <trkpt lat="46.06161" lon="6.75776">
        <ele>976.8</ele>
        <time>2026-06-26T06:24:30Z</time>
      </trkpt>
      <trkpt lat="46.0616" lon="6.75779">
        <ele>976.8</ele>
        <time>2026-06-26T06:24:31Z</time>
      </trkpt>
      <trkpt lat="46.0616" lon="6.75781">
        <ele>976.9</ele>
        <time>2026-06-26T06:24:32Z</time>
      </trkpt>
      <trkpt lat="46.0616" lon="6.75782">
        <ele>977</ele>
        <time>2026-06-26T06:24:33Z</time>
      </trkpt>
      <trkpt lat="46.0616" lon="6.75783">
        <ele>977</ele>
        <time>2026-06-26T06:24:34Z</time>
      </trkpt>
      <trkpt lat="46.0616" lon="6.75785">
        <ele>977.1</ele>
        <time>2026-06-26T06:24:35Z</time>
      </trkpt>
      <trkpt lat="46.06159" lon="6.75786">
        <ele>977.1</ele>
        <time>2026-06-26T06:24:36Z</time>
      </trkpt>
      <trkpt lat="46.06159" lon="6.75788">
        <ele>977.3</ele>
        <time>2026-06-26T06:24:37Z</time>
      </trkpt>
      <trkpt lat="46.06159" lon="6.75789">
        <ele>977.4</ele>
        <time>2026-06-26T06:24:38Z</time>
      </trkpt>
      <trkpt lat="46.06158" lon="6.75791">
        <ele>977.5</ele>
        <time>2026-06-26T06:24:39Z</time>
      </trkpt>
      <trkpt lat="46.06158" lon="6.75792">
        <ele>977.6</ele>
        <time>2026-06-26T06:24:40Z</time>
      </trkpt>
      <trkpt lat="46.06158" lon="6.75794">
        <ele>977.6</ele>
        <time>2026-06-26T06:24:41Z</time>
      </trkpt>
      <trkpt lat="46.06158" lon="6.75796">
        <ele>977.7</ele>
        <time>2026-06-26T06:24:42Z</time>
      </trkpt>
      <trkpt lat="46.06157" lon="6.75797">
        <ele>977.7</ele>
        <time>2026-06-26T06:24:43Z</time>
      </trkpt>
      <trkpt lat="46.06157" lon="6.75798">
        <ele>977.7</ele>
        <time>2026-06-26T06:24:44Z</time>
      </trkpt>
      <trkpt lat="46.06157" lon="6.75799">
        <ele>977.8</ele>
        <time>2026-06-26T06:24:45Z</time>
      </trkpt>
      <trkpt lat="46.06157" lon="6.758">
        <ele>977.8</ele>
        <time>2026-06-26T06:24:46Z</time>
      </trkpt>
      <trkpt lat="46.06156" lon="6.75801">
        <ele>977.8</ele>
        <time>2026-06-26T06:24:47Z</time>
      </trkpt>
      <trkpt lat="46.06156" lon="6.75802">
        <ele>977.9</ele>
        <time>2026-06-26T06:24:48Z</time>
      </trkpt>
      <trkpt lat="46.06156" lon="6.75803">
        <ele>977.9</ele>
        <time>2026-06-26T06:24:49Z</time>
      </trkpt>
      <trkpt lat="46.06156" lon="6.75805">
        <ele>978</ele>
        <time>2026-06-26T06:24:50Z</time>
      </trkpt>
      <trkpt lat="46.06155" lon="6.75806">
        <ele>978</ele>
        <time>2026-06-26T06:24:51Z</time>
      </trkpt>
      <trkpt lat="46.06155" lon="6.75807">
        <ele>978.1</ele>
        <time>2026-06-26T06:24:52Z</time>
      </trkpt>
      <trkpt lat="46.06155" lon="6.75807">
        <ele>978.2</ele>
        <time>2026-06-26T06:24:53Z</time>
      </trkpt>
      <trkpt lat="46.06155" lon="6.75808">
        <ele>978.4</ele>
        <time>2026-06-26T06:24:54Z</time>
      </trkpt>
      <trkpt lat="46.06155" lon="6.75808">
        <ele>978.5</ele>
        <time>2026-06-26T06:24:55Z</time>
      </trkpt>
      <trkpt lat="46.06155" lon="6.75808">
        <ele>978.7</ele>
        <time>2026-06-26T06:24:56Z</time>
      </trkpt>
      <trkpt lat="46.06155" lon="6.75808">
        <ele>978.8</ele>
        <time>2026-06-26T06:24:57Z</time>
      </trkpt>
      <trkpt lat="46.06155" lon="6.75808">
        <ele>978.9</ele>
        <time>2026-06-26T06:24:58Z</time>
      </trkpt>
      <trkpt lat="46.06155" lon="6.75808">
        <ele>979</ele>
        <time>2026-06-26T06:24:59Z</time>
      </trkpt>
      <trkpt lat="46.06155" lon="6.75809">
        <ele>979.1</ele>
        <time>2026-06-26T06:25:00Z</time>
      </trkpt>
      <trkpt lat="46.06154" lon="6.7581">
        <ele>979.2</ele>
        <time>2026-06-26T06:25:01Z</time>
      </trkpt>
      <trkpt lat="46.06154" lon="6.75811">
        <ele>979.4</ele>
        <time>2026-06-26T06:25:02Z</time>
      </trkpt>
      <trkpt lat="46.06154" lon="6.75812">
        <ele>979.5</ele>
        <time>2026-06-26T06:25:03Z</time>
      </trkpt>
      <trkpt lat="46.06154" lon="6.75814">
        <ele>979.7</ele>
        <time>2026-06-26T06:25:04Z</time>
      </trkpt>
      <trkpt lat="46.06154" lon="6.75815">
        <ele>979.8</ele>
        <time>2026-06-26T06:25:05Z</time>
      </trkpt>
      <trkpt lat="46.06153" lon="6.75817">
        <ele>980</ele>
        <time>2026-06-26T06:25:06Z</time>
      </trkpt>
      <trkpt lat="46.06153" lon="6.75818">
        <ele>980.2</ele>
        <time>2026-06-26T06:25:07Z</time>
      </trkpt>
      <trkpt lat="46.06153" lon="6.75819">
        <ele>980.4</ele>
        <time>2026-06-26T06:25:08Z</time>
      </trkpt>
      <trkpt lat="46.06152" lon="6.7582">
        <ele>980.6</ele>
        <time>2026-06-26T06:25:09Z</time>
      </trkpt>
      <trkpt lat="46.06151" lon="6.75822">
        <ele>980.7</ele>
        <time>2026-06-26T06:25:10Z</time>
      </trkpt>
      <trkpt lat="46.06151" lon="6.75823">
        <ele>980.8</ele>
        <time>2026-06-26T06:25:11Z</time>
      </trkpt>
      <trkpt lat="46.0615" lon="6.75825">
        <ele>980.9</ele>
        <time>2026-06-26T06:25:12Z</time>
      </trkpt>
      <trkpt lat="46.0615" lon="6.75826">
        <ele>981</ele>
        <time>2026-06-26T06:25:13Z</time>
      </trkpt>
      <trkpt lat="46.06149" lon="6.75827">
        <ele>981.1</ele>
        <time>2026-06-26T06:25:14Z</time>
      </trkpt>
      <trkpt lat="46.06149" lon="6.75828">
        <ele>981.2</ele>
        <time>2026-06-26T06:25:15Z</time>
      </trkpt>
      <trkpt lat="46.06148" lon="6.75829">
        <ele>981.3</ele>
        <time>2026-06-26T06:25:16Z</time>
      </trkpt>
      <trkpt lat="46.06148" lon="6.75831">
        <ele>981.4</ele>
        <time>2026-06-26T06:25:17Z</time>
      </trkpt>
      <trkpt lat="46.06148" lon="6.75832">
        <ele>981.5</ele>
        <time>2026-06-26T06:25:18Z</time>
      </trkpt>
      <trkpt lat="46.06147" lon="6.75834">
        <ele>981.7</ele>
        <time>2026-06-26T06:25:19Z</time>
      </trkpt>
      <trkpt lat="46.06147" lon="6.75835">
        <ele>981.7</ele>
        <time>2026-06-26T06:25:20Z</time>
      </trkpt>
      <trkpt lat="46.06146" lon="6.75836">
        <ele>981.8</ele>
        <time>2026-06-26T06:25:21Z</time>
      </trkpt>
      <trkpt lat="46.06145" lon="6.75838">
        <ele>981.9</ele>
        <time>2026-06-26T06:25:22Z</time>
      </trkpt>
      <trkpt lat="46.06145" lon="6.75839">
        <ele>982</ele>
        <time>2026-06-26T06:25:23Z</time>
      </trkpt>
      <trkpt lat="46.06144" lon="6.7584">
        <ele>982.2</ele>
        <time>2026-06-26T06:25:24Z</time>
      </trkpt>
      <trkpt lat="46.06144" lon="6.75841">
        <ele>982.4</ele>
        <time>2026-06-26T06:25:25Z</time>
      </trkpt>
      <trkpt lat="46.06143" lon="6.75842">
        <ele>982.5</ele>
        <time>2026-06-26T06:25:26Z</time>
      </trkpt>
      <trkpt lat="46.06142" lon="6.75844">
        <ele>982.6</ele>
        <time>2026-06-26T06:25:27Z</time>
      </trkpt>
      <trkpt lat="46.06141" lon="6.75845">
        <ele>982.7</ele>
        <time>2026-06-26T06:25:28Z</time>
      </trkpt>
      <trkpt lat="46.06141" lon="6.75846">
        <ele>982.8</ele>
        <time>2026-06-26T06:25:29Z</time>
      </trkpt>
      <trkpt lat="46.0614" lon="6.75847">
        <ele>983</ele>
        <time>2026-06-26T06:25:30Z</time>
      </trkpt>
      <trkpt lat="46.06139" lon="6.75849">
        <ele>983.1</ele>
        <time>2026-06-26T06:25:31Z</time>
      </trkpt>
      <trkpt lat="46.06139" lon="6.7585">
        <ele>983.3</ele>
        <time>2026-06-26T06:25:32Z</time>
      </trkpt>
      <trkpt lat="46.06138" lon="6.75851">
        <ele>983.5</ele>
        <time>2026-06-26T06:25:33Z</time>
      </trkpt>
      <trkpt lat="46.06138" lon="6.75852">
        <ele>983.6</ele>
        <time>2026-06-26T06:25:34Z</time>
      </trkpt>
      <trkpt lat="46.06137" lon="6.75853">
        <ele>983.8</ele>
        <time>2026-06-26T06:25:35Z</time>
      </trkpt>
      <trkpt lat="46.06137" lon="6.75854">
        <ele>983.9</ele>
        <time>2026-06-26T06:25:36Z</time>
      </trkpt>
      <trkpt lat="46.06137" lon="6.75855">
        <ele>984</ele>
        <time>2026-06-26T06:25:37Z</time>
      </trkpt>
      <trkpt lat="46.06136" lon="6.75857">
        <ele>984.1</ele>
        <time>2026-06-26T06:25:38Z</time>
      </trkpt>
      <trkpt lat="46.06136" lon="6.75858">
        <ele>984.2</ele>
        <time>2026-06-26T06:25:39Z</time>
      </trkpt>
      <trkpt lat="46.06137" lon="6.75861">
        <ele>984.2</ele>
        <time>2026-06-26T06:25:40Z</time>
      </trkpt>
      <trkpt lat="46.06137" lon="6.75862">
        <ele>984.1</ele>
        <time>2026-06-26T06:25:41Z</time>
      </trkpt>
      <trkpt lat="46.06137" lon="6.75864">
        <ele>984.1</ele>
        <time>2026-06-26T06:25:42Z</time>
      </trkpt>
      <trkpt lat="46.06137" lon="6.75865">
        <ele>984.2</ele>
        <time>2026-06-26T06:25:43Z</time>
      </trkpt>
      <trkpt lat="46.06137" lon="6.75867">
        <ele>984.2</ele>
        <time>2026-06-26T06:25:44Z</time>
      </trkpt>
      <trkpt lat="46.06137" lon="6.75868">
        <ele>984.3</ele>
        <time>2026-06-26T06:25:45Z</time>
      </trkpt>
      <trkpt lat="46.06138" lon="6.7587">
        <ele>984.3</ele>
        <time>2026-06-26T06:25:46Z</time>
      </trkpt>
      <trkpt lat="46.06138" lon="6.75871">
        <ele>984.5</ele>
        <time>2026-06-26T06:25:47Z</time>
      </trkpt>
      <trkpt lat="46.06139" lon="6.75871">
        <ele>984.6</ele>
        <time>2026-06-26T06:25:48Z</time>
      </trkpt>
      <trkpt lat="46.06139" lon="6.75872">
        <ele>984.7</ele>
        <time>2026-06-26T06:25:49Z</time>
      </trkpt>
      <trkpt lat="46.06139" lon="6.75873">
        <ele>984.7</ele>
        <time>2026-06-26T06:25:50Z</time>
      </trkpt>
      <trkpt lat="46.06138" lon="6.75874">
        <ele>984.9</ele>
        <time>2026-06-26T06:25:51Z</time>
      </trkpt>
      <trkpt lat="46.06138" lon="6.75875">
        <ele>985</ele>
        <time>2026-06-26T06:25:52Z</time>
      </trkpt>
      <trkpt lat="46.06138" lon="6.75876">
        <ele>985</ele>
        <time>2026-06-26T06:25:53Z</time>
      </trkpt>
      <trkpt lat="46.06137" lon="6.75877">
        <ele>985.1</ele>
        <time>2026-06-26T06:25:54Z</time>
      </trkpt>
      <trkpt lat="46.06138" lon="6.75878">
        <ele>985.1</ele>
        <time>2026-06-26T06:25:55Z</time>
      </trkpt>
      <trkpt lat="46.06138" lon="6.75879">
        <ele>985.1</ele>
        <time>2026-06-26T06:25:56Z</time>
      </trkpt>
      <trkpt lat="46.06137" lon="6.75881">
        <ele>985.1</ele>
        <time>2026-06-26T06:25:57Z</time>
      </trkpt>
      <trkpt lat="46.06137" lon="6.75882">
        <ele>985.2</ele>
        <time>2026-06-26T06:25:58Z</time>
      </trkpt>
      <trkpt lat="46.06137" lon="6.75883">
        <ele>985.2</ele>
        <time>2026-06-26T06:25:59Z</time>
      </trkpt>
      <trkpt lat="46.06137" lon="6.75884">
        <ele>985.3</ele>
        <time>2026-06-26T06:26:00Z</time>
      </trkpt>
      <trkpt lat="46.06137" lon="6.75885">
        <ele>985.4</ele>
        <time>2026-06-26T06:26:01Z</time>
      </trkpt>
      <trkpt lat="46.06138" lon="6.75886">
        <ele>985.6</ele>
        <time>2026-06-26T06:26:02Z</time>
      </trkpt>
      <trkpt lat="46.06138" lon="6.75886">
        <ele>985.7</ele>
        <time>2026-06-26T06:26:03Z</time>
      </trkpt>
      <trkpt lat="46.06138" lon="6.75887">
        <ele>985.8</ele>
        <time>2026-06-26T06:26:04Z</time>
      </trkpt>
      <trkpt lat="46.06138" lon="6.75888">
        <ele>985.8</ele>
        <time>2026-06-26T06:26:05Z</time>
      </trkpt>
      <trkpt lat="46.06138" lon="6.75889">
        <ele>985.9</ele>
        <time>2026-06-26T06:26:06Z</time>
      </trkpt>
      <trkpt lat="46.06138" lon="6.75889">
        <ele>985.9</ele>
        <time>2026-06-26T06:26:07Z</time>
      </trkpt>
      <trkpt lat="46.06138" lon="6.75889">
        <ele>986</ele>
        <time>2026-06-26T06:26:08Z</time>
      </trkpt>
      <trkpt lat="46.06138" lon="6.7589">
        <ele>986.1</ele>
        <time>2026-06-26T06:26:09Z</time>
      </trkpt>
      <trkpt lat="46.06138" lon="6.75891">
        <ele>986.2</ele>
        <time>2026-06-26T06:26:10Z</time>
      </trkpt>
      <trkpt lat="46.06138" lon="6.75892">
        <ele>986.3</ele>
        <time>2026-06-26T06:26:11Z</time>
      </trkpt>
      <trkpt lat="46.06138" lon="6.75893">
        <ele>986.4</ele>
        <time>2026-06-26T06:26:12Z</time>
      </trkpt>
      <trkpt lat="46.06138" lon="6.75895">
        <ele>986.5</ele>
        <time>2026-06-26T06:26:13Z</time>
      </trkpt>
      <trkpt lat="46.06139" lon="6.75896">
        <ele>986.5</ele>
        <time>2026-06-26T06:26:14Z</time>
      </trkpt>
      <trkpt lat="46.06138" lon="6.75897">
        <ele>986.7</ele>
        <time>2026-06-26T06:26:15Z</time>
      </trkpt>
      <trkpt lat="46.06138" lon="6.75899">
        <ele>986.9</ele>
        <time>2026-06-26T06:26:16Z</time>
      </trkpt>
      <trkpt lat="46.06138" lon="6.75901">
        <ele>987</ele>
        <time>2026-06-26T06:26:17Z</time>
      </trkpt>
      <trkpt lat="46.06138" lon="6.75902">
        <ele>987</ele>
        <time>2026-06-26T06:26:18Z</time>
      </trkpt>
      <trkpt lat="46.06137" lon="6.75903">
        <ele>987.1</ele>
        <time>2026-06-26T06:26:19Z</time>
      </trkpt>
      <trkpt lat="46.06137" lon="6.75904">
        <ele>987.2</ele>
        <time>2026-06-26T06:26:20Z</time>
      </trkpt>
      <trkpt lat="46.06137" lon="6.75905">
        <ele>987.3</ele>
        <time>2026-06-26T06:26:21Z</time>
      </trkpt>
      <trkpt lat="46.06137" lon="6.75906">
        <ele>987.4</ele>
        <time>2026-06-26T06:26:22Z</time>
      </trkpt>
      <trkpt lat="46.06137" lon="6.75907">
        <ele>987.4</ele>
        <time>2026-06-26T06:26:23Z</time>
      </trkpt>
      <trkpt lat="46.06137" lon="6.75908">
        <ele>987.6</ele>
        <time>2026-06-26T06:26:24Z</time>
      </trkpt>
      <trkpt lat="46.06137" lon="6.75909">
        <ele>987.6</ele>
        <time>2026-06-26T06:26:25Z</time>
      </trkpt>
      <trkpt lat="46.06137" lon="6.7591">
        <ele>987.7</ele>
        <time>2026-06-26T06:26:26Z</time>
      </trkpt>
      <trkpt lat="46.06137" lon="6.7591">
        <ele>988</ele>
        <time>2026-06-26T06:26:27Z</time>
      </trkpt>
      <trkpt lat="46.06137" lon="6.75912">
        <ele>988</ele>
        <time>2026-06-26T06:26:28Z</time>
      </trkpt>
      <trkpt lat="46.06137" lon="6.75913">
        <ele>988</ele>
        <time>2026-06-26T06:26:29Z</time>
      </trkpt>
      <trkpt lat="46.06136" lon="6.75914">
        <ele>988</ele>
        <time>2026-06-26T06:26:30Z</time>
      </trkpt>
      <trkpt lat="46.06137" lon="6.75915">
        <ele>988.1</ele>
        <time>2026-06-26T06:26:31Z</time>
      </trkpt>
      <trkpt lat="46.06136" lon="6.75917">
        <ele>988.1</ele>
        <time>2026-06-26T06:26:32Z</time>
      </trkpt>
      <trkpt lat="46.06136" lon="6.75918">
        <ele>988.2</ele>
        <time>2026-06-26T06:26:33Z</time>
      </trkpt>
      <trkpt lat="46.06136" lon="6.75919">
        <ele>988.2</ele>
        <time>2026-06-26T06:26:34Z</time>
      </trkpt>
      <trkpt lat="46.06136" lon="6.7592">
        <ele>988.3</ele>
        <time>2026-06-26T06:26:35Z</time>
      </trkpt>
      <trkpt lat="46.06136" lon="6.75921">
        <ele>988.3</ele>
        <time>2026-06-26T06:26:36Z</time>
      </trkpt>
      <trkpt lat="46.06136" lon="6.75922">
        <ele>988.4</ele>
        <time>2026-06-26T06:26:37Z</time>
      </trkpt>
      <trkpt lat="46.06135" lon="6.75923">
        <ele>988.4</ele>
        <time>2026-06-26T06:26:38Z</time>
      </trkpt>
      <trkpt lat="46.06135" lon="6.75924">
        <ele>988.5</ele>
        <time>2026-06-26T06:26:39Z</time>
      </trkpt>
      <trkpt lat="46.06134" lon="6.75924">
        <ele>988.5</ele>
        <time>2026-06-26T06:26:40Z</time>
      </trkpt>
      <trkpt lat="46.06133" lon="6.75925">
        <ele>988.7</ele>
        <time>2026-06-26T06:26:41Z</time>
      </trkpt>
      <trkpt lat="46.06133" lon="6.75926">
        <ele>988.8</ele>
        <time>2026-06-26T06:26:42Z</time>
      </trkpt>
      <trkpt lat="46.06132" lon="6.75927">
        <ele>988.9</ele>
        <time>2026-06-26T06:26:43Z</time>
      </trkpt>
      <trkpt lat="46.06131" lon="6.75927">
        <ele>988.9</ele>
        <time>2026-06-26T06:26:44Z</time>
      </trkpt>
      <trkpt lat="46.06131" lon="6.75928">
        <ele>989</ele>
        <time>2026-06-26T06:26:45Z</time>
      </trkpt>
      <trkpt lat="46.06131" lon="6.75929">
        <ele>989.2</ele>
        <time>2026-06-26T06:26:46Z</time>
      </trkpt>
      <trkpt lat="46.06131" lon="6.7593">
        <ele>989.5</ele>
        <time>2026-06-26T06:26:47Z</time>
      </trkpt>
      <trkpt lat="46.0613" lon="6.75931">
        <ele>989.8</ele>
        <time>2026-06-26T06:26:48Z</time>
      </trkpt>
      <trkpt lat="46.0613" lon="6.75932">
        <ele>989.9</ele>
        <time>2026-06-26T06:26:49Z</time>
      </trkpt>
      <trkpt lat="46.06129" lon="6.75933">
        <ele>990</ele>
        <time>2026-06-26T06:26:50Z</time>
      </trkpt>
      <trkpt lat="46.06129" lon="6.75934">
        <ele>990.2</ele>
        <time>2026-06-26T06:26:51Z</time>
      </trkpt>
      <trkpt lat="46.06129" lon="6.75935">
        <ele>990.4</ele>
        <time>2026-06-26T06:26:52Z</time>
      </trkpt>
      <trkpt lat="46.06128" lon="6.75935">
        <ele>990.5</ele>
        <time>2026-06-26T06:26:53Z</time>
      </trkpt>
      <trkpt lat="46.06128" lon="6.75936">
        <ele>990.6</ele>
        <time>2026-06-26T06:26:54Z</time>
      </trkpt>
      <trkpt lat="46.06127" lon="6.75936">
        <ele>990.7</ele>
        <time>2026-06-26T06:26:55Z</time>
      </trkpt>
      <trkpt lat="46.06127" lon="6.75937">
        <ele>990.8</ele>
        <time>2026-06-26T06:26:56Z</time>
      </trkpt>
      <trkpt lat="46.06126" lon="6.75939">
        <ele>991</ele>
        <time>2026-06-26T06:26:57Z</time>
      </trkpt>
      <trkpt lat="46.06126" lon="6.7594">
        <ele>991.1</ele>
        <time>2026-06-26T06:26:58Z</time>
      </trkpt>
      <trkpt lat="46.06126" lon="6.75941">
        <ele>991.2</ele>
        <time>2026-06-26T06:26:59Z</time>
      </trkpt>
      <trkpt lat="46.06125" lon="6.75942">
        <ele>991.3</ele>
        <time>2026-06-26T06:27:00Z</time>
      </trkpt>
      <trkpt lat="46.06125" lon="6.75943">
        <ele>991.3</ele>
        <time>2026-06-26T06:27:01Z</time>
      </trkpt>
      <trkpt lat="46.06125" lon="6.75944">
        <ele>991.4</ele>
        <time>2026-06-26T06:27:02Z</time>
      </trkpt>
      <trkpt lat="46.06124" lon="6.75945">
        <ele>991.5</ele>
        <time>2026-06-26T06:27:03Z</time>
      </trkpt>
      <trkpt lat="46.06123" lon="6.75946">
        <ele>991.6</ele>
        <time>2026-06-26T06:27:04Z</time>
      </trkpt>
      <trkpt lat="46.06123" lon="6.75947">
        <ele>991.7</ele>
        <time>2026-06-26T06:27:05Z</time>
      </trkpt>
      <trkpt lat="46.06122" lon="6.75948">
        <ele>991.9</ele>
        <time>2026-06-26T06:27:06Z</time>
      </trkpt>
      <trkpt lat="46.06122" lon="6.75949">
        <ele>992</ele>
        <time>2026-06-26T06:27:07Z</time>
      </trkpt>
      <trkpt lat="46.06122" lon="6.7595">
        <ele>992.2</ele>
        <time>2026-06-26T06:27:08Z</time>
      </trkpt>
      <trkpt lat="46.06122" lon="6.75951">
        <ele>992.3</ele>
        <time>2026-06-26T06:27:09Z</time>
      </trkpt>
      <trkpt lat="46.06121" lon="6.75952">
        <ele>992.4</ele>
        <time>2026-06-26T06:27:10Z</time>
      </trkpt>
      <trkpt lat="46.06121" lon="6.75952">
        <ele>992.6</ele>
        <time>2026-06-26T06:27:11Z</time>
      </trkpt>
      <trkpt lat="46.0612" lon="6.75953">
        <ele>992.6</ele>
        <time>2026-06-26T06:27:12Z</time>
      </trkpt>
      <trkpt lat="46.0612" lon="6.75954">
        <ele>992.7</ele>
        <time>2026-06-26T06:27:13Z</time>
      </trkpt>
      <trkpt lat="46.0612" lon="6.75955">
        <ele>992.9</ele>
        <time>2026-06-26T06:27:14Z</time>
      </trkpt>
      <trkpt lat="46.06119" lon="6.75955">
        <ele>993</ele>
        <time>2026-06-26T06:27:15Z</time>
      </trkpt>
      <trkpt lat="46.06119" lon="6.75956">
        <ele>993.1</ele>
        <time>2026-06-26T06:27:16Z</time>
      </trkpt>
      <trkpt lat="46.06119" lon="6.75957">
        <ele>993.2</ele>
        <time>2026-06-26T06:27:17Z</time>
      </trkpt>
      <trkpt lat="46.06118" lon="6.75957">
        <ele>993.3</ele>
        <time>2026-06-26T06:27:18Z</time>
      </trkpt>
      <trkpt lat="46.06117" lon="6.75958">
        <ele>993.4</ele>
        <time>2026-06-26T06:27:19Z</time>
      </trkpt>
      <trkpt lat="46.06117" lon="6.75959">
        <ele>993.5</ele>
        <time>2026-06-26T06:27:20Z</time>
      </trkpt>
      <trkpt lat="46.06116" lon="6.7596">
        <ele>993.6</ele>
        <time>2026-06-26T06:27:21Z</time>
      </trkpt>
      <trkpt lat="46.06115" lon="6.75961">
        <ele>993.6</ele>
        <time>2026-06-26T06:27:22Z</time>
      </trkpt>
      <trkpt lat="46.06115" lon="6.75962">
        <ele>993.7</ele>
        <time>2026-06-26T06:27:23Z</time>
      </trkpt>
      <trkpt lat="46.06114" lon="6.75963">
        <ele>993.7</ele>
        <time>2026-06-26T06:27:24Z</time>
      </trkpt>
      <trkpt lat="46.06114" lon="6.75964">
        <ele>993.8</ele>
        <time>2026-06-26T06:27:25Z</time>
      </trkpt>
      <trkpt lat="46.06114" lon="6.75965">
        <ele>993.9</ele>
        <time>2026-06-26T06:27:26Z</time>
      </trkpt>
      <trkpt lat="46.06113" lon="6.75966">
        <ele>994.1</ele>
        <time>2026-06-26T06:27:27Z</time>
      </trkpt>
      <trkpt lat="46.06112" lon="6.75967">
        <ele>994.2</ele>
        <time>2026-06-26T06:27:28Z</time>
      </trkpt>
      <trkpt lat="46.06111" lon="6.75967">
        <ele>994.3</ele>
        <time>2026-06-26T06:27:29Z</time>
      </trkpt>
      <trkpt lat="46.06111" lon="6.75968">
        <ele>994.4</ele>
        <time>2026-06-26T06:27:30Z</time>
      </trkpt>
      <trkpt lat="46.06111" lon="6.75969">
        <ele>994.5</ele>
        <time>2026-06-26T06:27:31Z</time>
      </trkpt>
      <trkpt lat="46.0611" lon="6.7597">
        <ele>994.6</ele>
        <time>2026-06-26T06:27:32Z</time>
      </trkpt>
      <trkpt lat="46.0611" lon="6.75971">
        <ele>994.7</ele>
        <time>2026-06-26T06:27:33Z</time>
      </trkpt>
      <trkpt lat="46.0611" lon="6.75972">
        <ele>994.8</ele>
        <time>2026-06-26T06:27:34Z</time>
      </trkpt>
      <trkpt lat="46.06109" lon="6.75973">
        <ele>994.9</ele>
        <time>2026-06-26T06:27:35Z</time>
      </trkpt>
      <trkpt lat="46.06109" lon="6.75974">
        <ele>995</ele>
        <time>2026-06-26T06:27:36Z</time>
      </trkpt>
      <trkpt lat="46.06108" lon="6.75975">
        <ele>995.1</ele>
        <time>2026-06-26T06:27:37Z</time>
      </trkpt>
      <trkpt lat="46.06108" lon="6.75977">
        <ele>995.3</ele>
        <time>2026-06-26T06:27:38Z</time>
      </trkpt>
      <trkpt lat="46.06108" lon="6.75978">
        <ele>995.4</ele>
        <time>2026-06-26T06:27:39Z</time>
      </trkpt>
      <trkpt lat="46.06107" lon="6.75979">
        <ele>995.6</ele>
        <time>2026-06-26T06:27:40Z</time>
      </trkpt>
      <trkpt lat="46.06107" lon="6.7598">
        <ele>995.8</ele>
        <time>2026-06-26T06:27:41Z</time>
      </trkpt>
      <trkpt lat="46.06106" lon="6.7598">
        <ele>996</ele>
        <time>2026-06-26T06:27:42Z</time>
      </trkpt>
      <trkpt lat="46.06106" lon="6.75981">
        <ele>996.2</ele>
        <time>2026-06-26T06:27:43Z</time>
      </trkpt>
      <trkpt lat="46.06105" lon="6.75981">
        <ele>996.3</ele>
        <time>2026-06-26T06:27:44Z</time>
      </trkpt>
      <trkpt lat="46.06105" lon="6.75982">
        <ele>996.4</ele>
        <time>2026-06-26T06:27:45Z</time>
      </trkpt>
      <trkpt lat="46.06104" lon="6.75983">
        <ele>996.5</ele>
        <time>2026-06-26T06:27:46Z</time>
      </trkpt>
      <trkpt lat="46.06104" lon="6.75984">
        <ele>996.6</ele>
        <time>2026-06-26T06:27:47Z</time>
      </trkpt>
      <trkpt lat="46.06103" lon="6.75985">
        <ele>996.7</ele>
        <time>2026-06-26T06:27:48Z</time>
      </trkpt>
      <trkpt lat="46.06103" lon="6.75986">
        <ele>996.8</ele>
        <time>2026-06-26T06:27:49Z</time>
      </trkpt>
      <trkpt lat="46.06103" lon="6.75987">
        <ele>996.9</ele>
        <time>2026-06-26T06:27:50Z</time>
      </trkpt>
      <trkpt lat="46.06102" lon="6.75987">
        <ele>997</ele>
        <time>2026-06-26T06:27:51Z</time>
      </trkpt>
      <trkpt lat="46.06102" lon="6.75988">
        <ele>997.2</ele>
        <time>2026-06-26T06:27:52Z</time>
      </trkpt>
      <trkpt lat="46.06102" lon="6.75989">
        <ele>997.3</ele>
        <time>2026-06-26T06:27:53Z</time>
      </trkpt>
      <trkpt lat="46.06101" lon="6.7599">
        <ele>997.4</ele>
        <time>2026-06-26T06:27:54Z</time>
      </trkpt>
      <trkpt lat="46.06101" lon="6.75991">
        <ele>997.5</ele>
        <time>2026-06-26T06:27:55Z</time>
      </trkpt>
      <trkpt lat="46.061" lon="6.75992">
        <ele>997.6</ele>
        <time>2026-06-26T06:27:56Z</time>
      </trkpt>
      <trkpt lat="46.06099" lon="6.75992">
        <ele>997.7</ele>
        <time>2026-06-26T06:27:57Z</time>
      </trkpt>
      <trkpt lat="46.06099" lon="6.75993">
        <ele>997.8</ele>
        <time>2026-06-26T06:27:58Z</time>
      </trkpt>
      <trkpt lat="46.06098" lon="6.75994">
        <ele>997.9</ele>
        <time>2026-06-26T06:27:59Z</time>
      </trkpt>
      <trkpt lat="46.06098" lon="6.75995">
        <ele>997.9</ele>
        <time>2026-06-26T06:28:00Z</time>
      </trkpt>
      <trkpt lat="46.06097" lon="6.75996">
        <ele>998</ele>
        <time>2026-06-26T06:28:01Z</time>
      </trkpt>
      <trkpt lat="46.06096" lon="6.75997">
        <ele>998.3</ele>
        <time>2026-06-26T06:28:02Z</time>
      </trkpt>
      <trkpt lat="46.06096" lon="6.75997">
        <ele>998.4</ele>
        <time>2026-06-26T06:28:03Z</time>
      </trkpt>
      <trkpt lat="46.06096" lon="6.75999">
        <ele>998.6</ele>
        <time>2026-06-26T06:28:04Z</time>
      </trkpt>
      <trkpt lat="46.06095" lon="6.76">
        <ele>998.7</ele>
        <time>2026-06-26T06:28:05Z</time>
      </trkpt>
      <trkpt lat="46.06095" lon="6.76001">
        <ele>998.8</ele>
        <time>2026-06-26T06:28:06Z</time>
      </trkpt>
      <trkpt lat="46.06095" lon="6.76002">
        <ele>998.9</ele>
        <time>2026-06-26T06:28:07Z</time>
      </trkpt>
      <trkpt lat="46.06095" lon="6.76002">
        <ele>999</ele>
        <time>2026-06-26T06:28:08Z</time>
      </trkpt>
      <trkpt lat="46.06094" lon="6.76003">
        <ele>999.1</ele>
        <time>2026-06-26T06:28:09Z</time>
      </trkpt>
      <trkpt lat="46.06094" lon="6.76004">
        <ele>999.3</ele>
        <time>2026-06-26T06:28:10Z</time>
      </trkpt>
      <trkpt lat="46.06093" lon="6.76005">
        <ele>999.6</ele>
        <time>2026-06-26T06:28:11Z</time>
      </trkpt>
      <trkpt lat="46.06093" lon="6.76006">
        <ele>999.8</ele>
        <time>2026-06-26T06:28:12Z</time>
      </trkpt>
      <trkpt lat="46.06093" lon="6.76006">
        <ele>999.9</ele>
        <time>2026-06-26T06:28:13Z</time>
      </trkpt>
      <trkpt lat="46.06092" lon="6.76007">
        <ele>1000</ele>
        <time>2026-06-26T06:28:14Z</time>
      </trkpt>
      <trkpt lat="46.06092" lon="6.76008">
        <ele>1000.2</ele>
        <time>2026-06-26T06:28:15Z</time>
      </trkpt>
      <trkpt lat="46.06092" lon="6.76009">
        <ele>1000.3</ele>
        <time>2026-06-26T06:28:16Z</time>
      </trkpt>
      <trkpt lat="46.06092" lon="6.7601">
        <ele>1000.4</ele>
        <time>2026-06-26T06:28:17Z</time>
      </trkpt>
      <trkpt lat="46.06091" lon="6.76011">
        <ele>1000.5</ele>
        <time>2026-06-26T06:28:18Z</time>
      </trkpt>
      <trkpt lat="46.06091" lon="6.76012">
        <ele>1000.6</ele>
        <time>2026-06-26T06:28:19Z</time>
      </trkpt>
      <trkpt lat="46.0609" lon="6.76012">
        <ele>1000.7</ele>
        <time>2026-06-26T06:28:20Z</time>
      </trkpt>
      <trkpt lat="46.0609" lon="6.76013">
        <ele>1000.8</ele>
        <time>2026-06-26T06:28:21Z</time>
      </trkpt>
      <trkpt lat="46.0609" lon="6.76014">
        <ele>1000.9</ele>
        <time>2026-06-26T06:28:22Z</time>
      </trkpt>
      <trkpt lat="46.06089" lon="6.76015">
        <ele>1001</ele>
        <time>2026-06-26T06:28:23Z</time>
      </trkpt>
      <trkpt lat="46.06089" lon="6.76016">
        <ele>1001.1</ele>
        <time>2026-06-26T06:28:24Z</time>
      </trkpt>
      <trkpt lat="46.06089" lon="6.76017">
        <ele>1001.2</ele>
        <time>2026-06-26T06:28:25Z</time>
      </trkpt>
      <trkpt lat="46.06088" lon="6.76018">
        <ele>1001.3</ele>
        <time>2026-06-26T06:28:26Z</time>
      </trkpt>
      <trkpt lat="46.06088" lon="6.76019">
        <ele>1001.3</ele>
        <time>2026-06-26T06:28:27Z</time>
      </trkpt>
      <trkpt lat="46.06087" lon="6.7602">
        <ele>1001.4</ele>
        <time>2026-06-26T06:28:28Z</time>
      </trkpt>
      <trkpt lat="46.06087" lon="6.76021">
        <ele>1001.5</ele>
        <time>2026-06-26T06:28:29Z</time>
      </trkpt>
      <trkpt lat="46.06087" lon="6.76022">
        <ele>1001.7</ele>
        <time>2026-06-26T06:28:30Z</time>
      </trkpt>
      <trkpt lat="46.06086" lon="6.76022">
        <ele>1001.8</ele>
        <time>2026-06-26T06:28:31Z</time>
      </trkpt>
      <trkpt lat="46.06086" lon="6.76023">
        <ele>1001.9</ele>
        <time>2026-06-26T06:28:32Z</time>
      </trkpt>
      <trkpt lat="46.06087" lon="6.76023">
        <ele>1002.1</ele>
        <time>2026-06-26T06:28:33Z</time>
      </trkpt>
      <trkpt lat="46.06087" lon="6.76024">
        <ele>1002.2</ele>
        <time>2026-06-26T06:28:34Z</time>
      </trkpt>
      <trkpt lat="46.06087" lon="6.76024">
        <ele>1002.4</ele>
        <time>2026-06-26T06:28:35Z</time>
      </trkpt>
      <trkpt lat="46.06088" lon="6.76024">
        <ele>1002.5</ele>
        <time>2026-06-26T06:28:36Z</time>
      </trkpt>
      <trkpt lat="46.06088" lon="6.76024">
        <ele>1002.5</ele>
        <time>2026-06-26T06:28:37Z</time>
      </trkpt>
      <trkpt lat="46.06088" lon="6.76024">
        <ele>1002.6</ele>
        <time>2026-06-26T06:28:38Z</time>
      </trkpt>
      <trkpt lat="46.06088" lon="6.76024">
        <ele>1002.6</ele>
        <time>2026-06-26T06:28:39Z</time>
      </trkpt>
      <trkpt lat="46.06088" lon="6.76024">
        <ele>1002.6</ele>
        <time>2026-06-26T06:28:40Z</time>
      </trkpt>
      <trkpt lat="46.06088" lon="6.76024">
        <ele>1002.7</ele>
        <time>2026-06-26T06:28:41Z</time>
      </trkpt>
      <trkpt lat="46.06088" lon="6.76023">
        <ele>1002.7</ele>
        <time>2026-06-26T06:28:42Z</time>
      </trkpt>
      <trkpt lat="46.06089" lon="6.76024">
        <ele>1002.8</ele>
        <time>2026-06-26T06:28:43Z</time>
      </trkpt>
      <trkpt lat="46.06089" lon="6.76024">
        <ele>1002.9</ele>
        <time>2026-06-26T06:28:44Z</time>
      </trkpt>
      <trkpt lat="46.06089" lon="6.76024">
        <ele>1002.8</ele>
        <time>2026-06-26T06:28:45Z</time>
      </trkpt>
      <trkpt lat="46.06089" lon="6.76024">
        <ele>1002.8</ele>
        <time>2026-06-26T06:28:46Z</time>
      </trkpt>
      <trkpt lat="46.06089" lon="6.76024">
        <ele>1002.7</ele>
        <time>2026-06-26T06:28:47Z</time>
      </trkpt>
      <trkpt lat="46.06089" lon="6.76024">
        <ele>1002.7</ele>
        <time>2026-06-26T06:28:48Z</time>
      </trkpt>
      <trkpt lat="46.0609" lon="6.76024">
        <ele>1002.7</ele>
        <time>2026-06-26T06:28:49Z</time>
      </trkpt>
      <trkpt lat="46.0609" lon="6.76024">
        <ele>1002.7</ele>
        <time>2026-06-26T06:28:50Z</time>
      </trkpt>
      <trkpt lat="46.0609" lon="6.76025">
        <ele>1002.6</ele>
        <time>2026-06-26T06:28:51Z</time>
      </trkpt>
      <trkpt lat="46.0609" lon="6.76025">
        <ele>1002.6</ele>
        <time>2026-06-26T06:28:52Z</time>
      </trkpt>
      <trkpt lat="46.0609" lon="6.76025">
        <ele>1002.6</ele>
        <time>2026-06-26T06:28:53Z</time>
      </trkpt>
      <trkpt lat="46.0609" lon="6.76025">
        <ele>1002.7</ele>
        <time>2026-06-26T06:28:54Z</time>
      </trkpt>
      <trkpt lat="46.0609" lon="6.76025">
        <ele>1002.7</ele>
        <time>2026-06-26T06:28:55Z</time>
      </trkpt>
      <trkpt lat="46.0609" lon="6.76025">
        <ele>1002.7</ele>
        <time>2026-06-26T06:28:56Z</time>
      </trkpt>
      <trkpt lat="46.06089" lon="6.76026">
        <ele>1002.7</ele>
        <time>2026-06-26T06:28:57Z</time>
      </trkpt>
      <trkpt lat="46.06089" lon="6.76027">
        <ele>1002.7</ele>
        <time>2026-06-26T06:28:58Z</time>
      </trkpt>
      <trkpt lat="46.06089" lon="6.76028">
        <ele>1002.8</ele>
        <time>2026-06-26T06:28:59Z</time>
      </trkpt>
      <trkpt lat="46.06088" lon="6.76028">
        <ele>1002.8</ele>
        <time>2026-06-26T06:29:00Z</time>
      </trkpt>
      <trkpt lat="46.06088" lon="6.7603">
        <ele>1002.9</ele>
        <time>2026-06-26T06:29:01Z</time>
      </trkpt>
      <trkpt lat="46.06087" lon="6.7603">
        <ele>1003</ele>
        <time>2026-06-26T06:29:02Z</time>
      </trkpt>
      <trkpt lat="46.06087" lon="6.76031">
        <ele>1003</ele>
        <time>2026-06-26T06:29:03Z</time>
      </trkpt>
      <trkpt lat="46.06086" lon="6.76032">
        <ele>1003.1</ele>
        <time>2026-06-26T06:29:04Z</time>
      </trkpt>
      <trkpt lat="46.06085" lon="6.76033">
        <ele>1003.2</ele>
        <time>2026-06-26T06:29:05Z</time>
      </trkpt>
      <trkpt lat="46.06085" lon="6.76034">
        <ele>1003.2</ele>
        <time>2026-06-26T06:29:06Z</time>
      </trkpt>
      <trkpt lat="46.06084" lon="6.76034">
        <ele>1003.3</ele>
        <time>2026-06-26T06:29:07Z</time>
      </trkpt>
      <trkpt lat="46.06083" lon="6.76035">
        <ele>1003.4</ele>
        <time>2026-06-26T06:29:08Z</time>
      </trkpt>
      <trkpt lat="46.06083" lon="6.76037">
        <ele>1003.5</ele>
        <time>2026-06-26T06:29:09Z</time>
      </trkpt>
      <trkpt lat="46.06082" lon="6.76037">
        <ele>1003.6</ele>
        <time>2026-06-26T06:29:10Z</time>
      </trkpt>
      <trkpt lat="46.06081" lon="6.76038">
        <ele>1003.8</ele>
        <time>2026-06-26T06:29:11Z</time>
      </trkpt>
      <trkpt lat="46.06081" lon="6.76039">
        <ele>1003.9</ele>
        <time>2026-06-26T06:29:12Z</time>
      </trkpt>
      <trkpt lat="46.0608" lon="6.7604">
        <ele>1004.1</ele>
        <time>2026-06-26T06:29:13Z</time>
      </trkpt>
      <trkpt lat="46.06079" lon="6.7604">
        <ele>1004.2</ele>
        <time>2026-06-26T06:29:14Z</time>
      </trkpt>
      <trkpt lat="46.06079" lon="6.7604">
        <ele>1004.4</ele>
        <time>2026-06-26T06:29:15Z</time>
      </trkpt>
      <trkpt lat="46.06078" lon="6.76042">
        <ele>1004.6</ele>
        <time>2026-06-26T06:29:16Z</time>
      </trkpt>
      <trkpt lat="46.06078" lon="6.76043">
        <ele>1004.7</ele>
        <time>2026-06-26T06:29:17Z</time>
      </trkpt>
      <trkpt lat="46.06077" lon="6.76044">
        <ele>1004.9</ele>
        <time>2026-06-26T06:29:18Z</time>
      </trkpt>
      <trkpt lat="46.06077" lon="6.76044">
        <ele>1005</ele>
        <time>2026-06-26T06:29:19Z</time>
      </trkpt>
      <trkpt lat="46.06076" lon="6.76045">
        <ele>1005.2</ele>
        <time>2026-06-26T06:29:20Z</time>
      </trkpt>
      <trkpt lat="46.06075" lon="6.76047">
        <ele>1005.3</ele>
        <time>2026-06-26T06:29:21Z</time>
      </trkpt>
      <trkpt lat="46.06075" lon="6.76047">
        <ele>1005.4</ele>
        <time>2026-06-26T06:29:22Z</time>
      </trkpt>
      <trkpt lat="46.06074" lon="6.76049">
        <ele>1005.6</ele>
        <time>2026-06-26T06:29:23Z</time>
      </trkpt>
      <trkpt lat="46.06073" lon="6.7605">
        <ele>1005.7</ele>
        <time>2026-06-26T06:29:24Z</time>
      </trkpt>
      <trkpt lat="46.06073" lon="6.76051">
        <ele>1005.9</ele>
        <time>2026-06-26T06:29:25Z</time>
      </trkpt>
      <trkpt lat="46.06072" lon="6.76052">
        <ele>1006</ele>
        <time>2026-06-26T06:29:26Z</time>
      </trkpt>
      <trkpt lat="46.06071" lon="6.76052">
        <ele>1006.1</ele>
        <time>2026-06-26T06:29:27Z</time>
      </trkpt>
      <trkpt lat="46.06071" lon="6.76053">
        <ele>1006.2</ele>
        <time>2026-06-26T06:29:28Z</time>
      </trkpt>
      <trkpt lat="46.0607" lon="6.76054">
        <ele>1006.3</ele>
        <time>2026-06-26T06:29:29Z</time>
      </trkpt>
      <trkpt lat="46.06069" lon="6.76054">
        <ele>1006.4</ele>
        <time>2026-06-26T06:29:30Z</time>
      </trkpt>
      <trkpt lat="46.06069" lon="6.76055">
        <ele>1006.5</ele>
        <time>2026-06-26T06:29:31Z</time>
      </trkpt>
      <trkpt lat="46.06068" lon="6.76055">
        <ele>1006.6</ele>
        <time>2026-06-26T06:29:32Z</time>
      </trkpt>
      <trkpt lat="46.06068" lon="6.76056">
        <ele>1006.7</ele>
        <time>2026-06-26T06:29:33Z</time>
      </trkpt>
      <trkpt lat="46.06067" lon="6.76057">
        <ele>1006.8</ele>
        <time>2026-06-26T06:29:34Z</time>
      </trkpt>
      <trkpt lat="46.06067" lon="6.76058">
        <ele>1006.9</ele>
        <time>2026-06-26T06:29:35Z</time>
      </trkpt>
      <trkpt lat="46.06066" lon="6.76059">
        <ele>1007</ele>
        <time>2026-06-26T06:29:36Z</time>
      </trkpt>
      <trkpt lat="46.06065" lon="6.76059">
        <ele>1007.1</ele>
        <time>2026-06-26T06:29:37Z</time>
      </trkpt>
      <trkpt lat="46.06064" lon="6.7606">
        <ele>1007.3</ele>
        <time>2026-06-26T06:29:38Z</time>
      </trkpt>
      <trkpt lat="46.06063" lon="6.76061">
        <ele>1007.4</ele>
        <time>2026-06-26T06:29:39Z</time>
      </trkpt>
      <trkpt lat="46.06063" lon="6.76062">
        <ele>1007.6</ele>
        <time>2026-06-26T06:29:40Z</time>
      </trkpt>
      <trkpt lat="46.06062" lon="6.76063">
        <ele>1007.6</ele>
        <time>2026-06-26T06:29:41Z</time>
      </trkpt>
      <trkpt lat="46.06062" lon="6.76064">
        <ele>1007.7</ele>
        <time>2026-06-26T06:29:42Z</time>
      </trkpt>
      <trkpt lat="46.06061" lon="6.76065">
        <ele>1007.8</ele>
        <time>2026-06-26T06:29:43Z</time>
      </trkpt>
      <trkpt lat="46.06061" lon="6.76066">
        <ele>1007.9</ele>
        <time>2026-06-26T06:29:44Z</time>
      </trkpt>
      <trkpt lat="46.0606" lon="6.76067">
        <ele>1008</ele>
        <time>2026-06-26T06:29:45Z</time>
      </trkpt>
      <trkpt lat="46.0606" lon="6.76068">
        <ele>1008.2</ele>
        <time>2026-06-26T06:29:46Z</time>
      </trkpt>
      <trkpt lat="46.06059" lon="6.76068">
        <ele>1008.3</ele>
        <time>2026-06-26T06:29:47Z</time>
      </trkpt>
      <trkpt lat="46.06058" lon="6.76069">
        <ele>1008.4</ele>
        <time>2026-06-26T06:29:48Z</time>
      </trkpt>
      <trkpt lat="46.06058" lon="6.7607">
        <ele>1008.6</ele>
        <time>2026-06-26T06:29:49Z</time>
      </trkpt>
      <trkpt lat="46.06057" lon="6.76071">
        <ele>1008.7</ele>
        <time>2026-06-26T06:29:50Z</time>
      </trkpt>
      <trkpt lat="46.06056" lon="6.76071">
        <ele>1008.8</ele>
        <time>2026-06-26T06:29:51Z</time>
      </trkpt>
      <trkpt lat="46.06056" lon="6.76072">
        <ele>1008.9</ele>
        <time>2026-06-26T06:29:52Z</time>
      </trkpt>
      <trkpt lat="46.06055" lon="6.76073">
        <ele>1009</ele>
        <time>2026-06-26T06:29:53Z</time>
      </trkpt>
      <trkpt lat="46.06054" lon="6.76073">
        <ele>1009</ele>
        <time>2026-06-26T06:29:54Z</time>
      </trkpt>
      <trkpt lat="46.06053" lon="6.76074">
        <ele>1009.1</ele>
        <time>2026-06-26T06:29:55Z</time>
      </trkpt>
      <trkpt lat="46.06053" lon="6.76074">
        <ele>1009.2</ele>
        <time>2026-06-26T06:29:56Z</time>
      </trkpt>
      <trkpt lat="46.06052" lon="6.76075">
        <ele>1009.5</ele>
        <time>2026-06-26T06:29:57Z</time>
      </trkpt>
      <trkpt lat="46.06052" lon="6.76076">
        <ele>1009.5</ele>
        <time>2026-06-26T06:29:58Z</time>
      </trkpt>
      <trkpt lat="46.0605" lon="6.76077">
        <ele>1009.6</ele>
        <time>2026-06-26T06:29:59Z</time>
      </trkpt>
      <trkpt lat="46.06051" lon="6.76078">
        <ele>1009.7</ele>
        <time>2026-06-26T06:30:00Z</time>
      </trkpt>
      <trkpt lat="46.0605" lon="6.76079">
        <ele>1009.9</ele>
        <time>2026-06-26T06:30:01Z</time>
      </trkpt>
      <trkpt lat="46.0605" lon="6.7608">
        <ele>1010.1</ele>
        <time>2026-06-26T06:30:02Z</time>
      </trkpt>
      <trkpt lat="46.06048" lon="6.7608">
        <ele>1010.2</ele>
        <time>2026-06-26T06:30:03Z</time>
      </trkpt>
      <trkpt lat="46.06048" lon="6.76081">
        <ele>1010.4</ele>
        <time>2026-06-26T06:30:04Z</time>
      </trkpt>
      <trkpt lat="46.06047" lon="6.76081">
        <ele>1010.5</ele>
        <time>2026-06-26T06:30:05Z</time>
      </trkpt>
      <trkpt lat="46.06047" lon="6.76081">
        <ele>1010.6</ele>
        <time>2026-06-26T06:30:06Z</time>
      </trkpt>
      <trkpt lat="46.06047" lon="6.76082">
        <ele>1010.7</ele>
        <time>2026-06-26T06:30:07Z</time>
      </trkpt>
      <trkpt lat="46.06046" lon="6.76082">
        <ele>1010.9</ele>
        <time>2026-06-26T06:30:08Z</time>
      </trkpt>
      <trkpt lat="46.06047" lon="6.76082">
        <ele>1010.9</ele>
        <time>2026-06-26T06:30:09Z</time>
      </trkpt>
      <trkpt lat="46.06047" lon="6.76083">
        <ele>1011.1</ele>
        <time>2026-06-26T06:30:10Z</time>
      </trkpt>
      <trkpt lat="46.06047" lon="6.76083">
        <ele>1011.2</ele>
        <time>2026-06-26T06:30:11Z</time>
      </trkpt>
      <trkpt lat="46.06047" lon="6.76083">
        <ele>1011.3</ele>
        <time>2026-06-26T06:30:12Z</time>
      </trkpt>
      <trkpt lat="46.06047" lon="6.76084">
        <ele>1011.3</ele>
        <time>2026-06-26T06:30:13Z</time>
      </trkpt>
      <trkpt lat="46.06047" lon="6.76084">
        <ele>1011.3</ele>
        <time>2026-06-26T06:30:14Z</time>
      </trkpt>
      <trkpt lat="46.06047" lon="6.76084">
        <ele>1011.3</ele>
        <time>2026-06-26T06:30:15Z</time>
      </trkpt>
      <trkpt lat="46.06047" lon="6.76084">
        <ele>1011.4</ele>
        <time>2026-06-26T06:30:16Z</time>
      </trkpt>
      <trkpt lat="46.06047" lon="6.76084">
        <ele>1011.4</ele>
        <time>2026-06-26T06:30:17Z</time>
      </trkpt>
      <trkpt lat="46.06047" lon="6.76084">
        <ele>1011.4</ele>
        <time>2026-06-26T06:30:18Z</time>
      </trkpt>
      <trkpt lat="46.06048" lon="6.76084">
        <ele>1011.4</ele>
        <time>2026-06-26T06:30:19Z</time>
      </trkpt>
      <trkpt lat="46.06048" lon="6.76084">
        <ele>1011.5</ele>
        <time>2026-06-26T06:30:20Z</time>
      </trkpt>
      <trkpt lat="46.06048" lon="6.76084">
        <ele>1011.5</ele>
        <time>2026-06-26T06:30:21Z</time>
      </trkpt>
      <trkpt lat="46.06048" lon="6.76084">
        <ele>1011.3</ele>
        <time>2026-06-26T06:30:22Z</time>
      </trkpt>
      <trkpt lat="46.06048" lon="6.76084">
        <ele>1011.4</ele>
        <time>2026-06-26T06:30:23Z</time>
      </trkpt>
      <trkpt lat="46.06048" lon="6.76085">
        <ele>1011.4</ele>
        <time>2026-06-26T06:30:24Z</time>
      </trkpt>
      <trkpt lat="46.06048" lon="6.76087">
        <ele>1011.4</ele>
        <time>2026-06-26T06:30:25Z</time>
      </trkpt>
      <trkpt lat="46.06048" lon="6.76087">
        <ele>1011.4</ele>
        <time>2026-06-26T06:30:26Z</time>
      </trkpt>
      <trkpt lat="46.06047" lon="6.76088">
        <ele>1011.5</ele>
        <time>2026-06-26T06:30:27Z</time>
      </trkpt>
      <trkpt lat="46.06047" lon="6.76088">
        <ele>1011.6</ele>
        <time>2026-06-26T06:30:28Z</time>
      </trkpt>
      <trkpt lat="46.06046" lon="6.76089">
        <ele>1011.7</ele>
        <time>2026-06-26T06:30:29Z</time>
      </trkpt>
      <trkpt lat="46.06046" lon="6.76089">
        <ele>1011.8</ele>
        <time>2026-06-26T06:30:30Z</time>
      </trkpt>
      <trkpt lat="46.06046" lon="6.76089">
        <ele>1011.9</ele>
        <time>2026-06-26T06:30:31Z</time>
      </trkpt>
      <trkpt lat="46.06046" lon="6.76089">
        <ele>1011.9</ele>
        <time>2026-06-26T06:30:32Z</time>
      </trkpt>
      <trkpt lat="46.06046" lon="6.76089">
        <ele>1011.9</ele>
        <time>2026-06-26T06:30:33Z</time>
      </trkpt>
      <trkpt lat="46.06045" lon="6.76089">
        <ele>1012</ele>
        <time>2026-06-26T06:30:34Z</time>
      </trkpt>
      <trkpt lat="46.06045" lon="6.76089">
        <ele>1012</ele>
        <time>2026-06-26T06:30:35Z</time>
      </trkpt>
      <trkpt lat="46.06045" lon="6.76089">
        <ele>1012</ele>
        <time>2026-06-26T06:30:36Z</time>
      </trkpt>
      <trkpt lat="46.06045" lon="6.76089">
        <ele>1012</ele>
        <time>2026-06-26T06:30:37Z</time>
      </trkpt>
      <trkpt lat="46.06044" lon="6.76088">
        <ele>1011.9</ele>
        <time>2026-06-26T06:30:38Z</time>
      </trkpt>
      <trkpt lat="46.06043" lon="6.76089">
        <ele>1011.9</ele>
        <time>2026-06-26T06:30:39Z</time>
      </trkpt>
      <trkpt lat="46.06042" lon="6.7609">
        <ele>1011.9</ele>
        <time>2026-06-26T06:30:40Z</time>
      </trkpt>
      <trkpt lat="46.06041" lon="6.76089">
        <ele>1012</ele>
        <time>2026-06-26T06:30:41Z</time>
      </trkpt>
      <trkpt lat="46.06041" lon="6.7609">
        <ele>1012.1</ele>
        <time>2026-06-26T06:30:42Z</time>
      </trkpt>
      <trkpt lat="46.06041" lon="6.76091">
        <ele>1012.1</ele>
        <time>2026-06-26T06:30:43Z</time>
      </trkpt>
      <trkpt lat="46.0604" lon="6.76091">
        <ele>1012.3</ele>
        <time>2026-06-26T06:30:44Z</time>
      </trkpt>
      <trkpt lat="46.0604" lon="6.76092">
        <ele>1012.5</ele>
        <time>2026-06-26T06:30:45Z</time>
      </trkpt>
      <trkpt lat="46.06039" lon="6.76093">
        <ele>1012.7</ele>
        <time>2026-06-26T06:30:46Z</time>
      </trkpt>
      <trkpt lat="46.06038" lon="6.76094">
        <ele>1012.9</ele>
        <time>2026-06-26T06:30:47Z</time>
      </trkpt>
      <trkpt lat="46.06038" lon="6.76095">
        <ele>1013</ele>
        <time>2026-06-26T06:30:48Z</time>
      </trkpt>
      <trkpt lat="46.06037" lon="6.76096">
        <ele>1013.3</ele>
        <time>2026-06-26T06:30:49Z</time>
      </trkpt>
      <trkpt lat="46.06036" lon="6.76097">
        <ele>1013.5</ele>
        <time>2026-06-26T06:30:50Z</time>
      </trkpt>
      <trkpt lat="46.06036" lon="6.76099">
        <ele>1013.6</ele>
        <time>2026-06-26T06:30:51Z</time>
      </trkpt>
      <trkpt lat="46.06036" lon="6.76099">
        <ele>1013.7</ele>
        <time>2026-06-26T06:30:52Z</time>
      </trkpt>
      <trkpt lat="46.06036" lon="6.761">
        <ele>1013.9</ele>
        <time>2026-06-26T06:30:53Z</time>
      </trkpt>
      <trkpt lat="46.06036" lon="6.76101">
        <ele>1014.1</ele>
        <time>2026-06-26T06:30:54Z</time>
      </trkpt>
      <trkpt lat="46.06035" lon="6.76101">
        <ele>1014.2</ele>
        <time>2026-06-26T06:30:55Z</time>
      </trkpt>
      <trkpt lat="46.06034" lon="6.76101">
        <ele>1014.3</ele>
        <time>2026-06-26T06:30:56Z</time>
      </trkpt>
      <trkpt lat="46.06033" lon="6.76102">
        <ele>1014.4</ele>
        <time>2026-06-26T06:30:57Z</time>
      </trkpt>
      <trkpt lat="46.06032" lon="6.76102">
        <ele>1014.6</ele>
        <time>2026-06-26T06:30:58Z</time>
      </trkpt>
      <trkpt lat="46.06031" lon="6.76103">
        <ele>1014.7</ele>
        <time>2026-06-26T06:30:59Z</time>
      </trkpt>
      <trkpt lat="46.0603" lon="6.76104">
        <ele>1014.7</ele>
        <time>2026-06-26T06:31:00Z</time>
      </trkpt>
      <trkpt lat="46.06029" lon="6.76104">
        <ele>1014.8</ele>
        <time>2026-06-26T06:31:01Z</time>
      </trkpt>
      <trkpt lat="46.06029" lon="6.76104">
        <ele>1014.8</ele>
        <time>2026-06-26T06:31:02Z</time>
      </trkpt>
      <trkpt lat="46.06028" lon="6.76105">
        <ele>1015</ele>
        <time>2026-06-26T06:31:03Z</time>
      </trkpt>
      <trkpt lat="46.06027" lon="6.76104">
        <ele>1015.1</ele>
        <time>2026-06-26T06:31:04Z</time>
      </trkpt>
      <trkpt lat="46.06026" lon="6.76105">
        <ele>1015.2</ele>
        <time>2026-06-26T06:31:05Z</time>
      </trkpt>
      <trkpt lat="46.06025" lon="6.76105">
        <ele>1015.4</ele>
        <time>2026-06-26T06:31:06Z</time>
      </trkpt>
      <trkpt lat="46.06025" lon="6.76107">
        <ele>1015.5</ele>
        <time>2026-06-26T06:31:07Z</time>
      </trkpt>
      <trkpt lat="46.06024" lon="6.76108">
        <ele>1015.7</ele>
        <time>2026-06-26T06:31:08Z</time>
      </trkpt>
      <trkpt lat="46.06023" lon="6.76108">
        <ele>1015.8</ele>
        <time>2026-06-26T06:31:09Z</time>
      </trkpt>
      <trkpt lat="46.06023" lon="6.7611">
        <ele>1016</ele>
        <time>2026-06-26T06:31:10Z</time>
      </trkpt>
      <trkpt lat="46.06022" lon="6.76111">
        <ele>1016.1</ele>
        <time>2026-06-26T06:31:11Z</time>
      </trkpt>
      <trkpt lat="46.06021" lon="6.76111">
        <ele>1016.3</ele>
        <time>2026-06-26T06:31:12Z</time>
      </trkpt>
      <trkpt lat="46.0602" lon="6.76111">
        <ele>1016.5</ele>
        <time>2026-06-26T06:31:13Z</time>
      </trkpt>
      <trkpt lat="46.06019" lon="6.76111">
        <ele>1016.6</ele>
        <time>2026-06-26T06:31:14Z</time>
      </trkpt>
      <trkpt lat="46.06018" lon="6.76111">
        <ele>1016.8</ele>
        <time>2026-06-26T06:31:15Z</time>
      </trkpt>
      <trkpt lat="46.06018" lon="6.76112">
        <ele>1016.9</ele>
        <time>2026-06-26T06:31:16Z</time>
      </trkpt>
      <trkpt lat="46.06017" lon="6.76113">
        <ele>1017.1</ele>
        <time>2026-06-26T06:31:17Z</time>
      </trkpt>
      <trkpt lat="46.06016" lon="6.76113">
        <ele>1017.2</ele>
        <time>2026-06-26T06:31:18Z</time>
      </trkpt>
      <trkpt lat="46.06015" lon="6.76113">
        <ele>1017.3</ele>
        <time>2026-06-26T06:31:19Z</time>
      </trkpt>
      <trkpt lat="46.06014" lon="6.76114">
        <ele>1017.4</ele>
        <time>2026-06-26T06:31:20Z</time>
      </trkpt>
      <trkpt lat="46.06013" lon="6.76115">
        <ele>1017.5</ele>
        <time>2026-06-26T06:31:21Z</time>
      </trkpt>
      <trkpt lat="46.06013" lon="6.76116">
        <ele>1017.7</ele>
        <time>2026-06-26T06:31:22Z</time>
      </trkpt>
      <trkpt lat="46.06012" lon="6.76117">
        <ele>1017.8</ele>
        <time>2026-06-26T06:31:23Z</time>
      </trkpt>
      <trkpt lat="46.06011" lon="6.76117">
        <ele>1017.8</ele>
        <time>2026-06-26T06:31:24Z</time>
      </trkpt>
      <trkpt lat="46.0601" lon="6.76117">
        <ele>1018</ele>
        <time>2026-06-26T06:31:25Z</time>
      </trkpt>
      <trkpt lat="46.06009" lon="6.76118">
        <ele>1018.1</ele>
        <time>2026-06-26T06:31:26Z</time>
      </trkpt>
      <trkpt lat="46.06008" lon="6.76119">
        <ele>1018.2</ele>
        <time>2026-06-26T06:31:27Z</time>
      </trkpt>
      <trkpt lat="46.06008" lon="6.7612">
        <ele>1018.4</ele>
        <time>2026-06-26T06:31:28Z</time>
      </trkpt>
      <trkpt lat="46.06008" lon="6.76121">
        <ele>1018.4</ele>
        <time>2026-06-26T06:31:29Z</time>
      </trkpt>
      <trkpt lat="46.06007" lon="6.76121">
        <ele>1018.5</ele>
        <time>2026-06-26T06:31:30Z</time>
      </trkpt>
      <trkpt lat="46.06007" lon="6.76122">
        <ele>1018.6</ele>
        <time>2026-06-26T06:31:31Z</time>
      </trkpt>
      <trkpt lat="46.06007" lon="6.76122">
        <ele>1018.7</ele>
        <time>2026-06-26T06:31:32Z</time>
      </trkpt>
      <trkpt lat="46.06007" lon="6.76123">
        <ele>1018.8</ele>
        <time>2026-06-26T06:31:33Z</time>
      </trkpt>
      <trkpt lat="46.06007" lon="6.76123">
        <ele>1018.7</ele>
        <time>2026-06-26T06:31:34Z</time>
      </trkpt>
      <trkpt lat="46.06006" lon="6.76124">
        <ele>1018.8</ele>
        <time>2026-06-26T06:31:35Z</time>
      </trkpt>
      <trkpt lat="46.06005" lon="6.76124">
        <ele>1018.8</ele>
        <time>2026-06-26T06:31:36Z</time>
      </trkpt>
      <trkpt lat="46.06005" lon="6.76125">
        <ele>1018.9</ele>
        <time>2026-06-26T06:31:37Z</time>
      </trkpt>
      <trkpt lat="46.06004" lon="6.76126">
        <ele>1019</ele>
        <time>2026-06-26T06:31:38Z</time>
      </trkpt>
      <trkpt lat="46.06003" lon="6.76126">
        <ele>1019.1</ele>
        <time>2026-06-26T06:31:39Z</time>
      </trkpt>
      <trkpt lat="46.06003" lon="6.76127">
        <ele>1019.2</ele>
        <time>2026-06-26T06:31:40Z</time>
      </trkpt>
      <trkpt lat="46.06002" lon="6.76127">
        <ele>1019.3</ele>
        <time>2026-06-26T06:31:41Z</time>
      </trkpt>
      <trkpt lat="46.06001" lon="6.76128">
        <ele>1019.4</ele>
        <time>2026-06-26T06:31:42Z</time>
      </trkpt>
      <trkpt lat="46.06001" lon="6.76129">
        <ele>1019.5</ele>
        <time>2026-06-26T06:31:43Z</time>
      </trkpt>
      <trkpt lat="46.06001" lon="6.76131">
        <ele>1019.7</ele>
        <time>2026-06-26T06:31:44Z</time>
      </trkpt>
      <trkpt lat="46.06001" lon="6.76133">
        <ele>1019.9</ele>
        <time>2026-06-26T06:31:45Z</time>
      </trkpt>
      <trkpt lat="46.06" lon="6.76134">
        <ele>1020</ele>
        <time>2026-06-26T06:31:46Z</time>
      </trkpt>
      <trkpt lat="46.06" lon="6.76136">
        <ele>1020.1</ele>
        <time>2026-06-26T06:31:47Z</time>
      </trkpt>
      <trkpt lat="46.06" lon="6.76137">
        <ele>1020.3</ele>
        <time>2026-06-26T06:31:48Z</time>
      </trkpt>
      <trkpt lat="46.06" lon="6.76138">
        <ele>1020.4</ele>
        <time>2026-06-26T06:31:49Z</time>
      </trkpt>
      <trkpt lat="46.06001" lon="6.76139">
        <ele>1020.5</ele>
        <time>2026-06-26T06:31:50Z</time>
      </trkpt>
      <trkpt lat="46.06001" lon="6.76141">
        <ele>1020.6</ele>
        <time>2026-06-26T06:31:51Z</time>
      </trkpt>
      <trkpt lat="46.06002" lon="6.76143">
        <ele>1020.8</ele>
        <time>2026-06-26T06:31:52Z</time>
      </trkpt>
      <trkpt lat="46.06003" lon="6.76144">
        <ele>1020.9</ele>
        <time>2026-06-26T06:31:53Z</time>
      </trkpt>
      <trkpt lat="46.06003" lon="6.76144">
        <ele>1021.2</ele>
        <time>2026-06-26T06:31:54Z</time>
      </trkpt>
      <trkpt lat="46.06004" lon="6.76144">
        <ele>1021.4</ele>
        <time>2026-06-26T06:31:55Z</time>
      </trkpt>
      <trkpt lat="46.06004" lon="6.76144">
        <ele>1021.6</ele>
        <time>2026-06-26T06:31:56Z</time>
      </trkpt>
      <trkpt lat="46.06005" lon="6.76144">
        <ele>1021.7</ele>
        <time>2026-06-26T06:31:57Z</time>
      </trkpt>
      <trkpt lat="46.06005" lon="6.76144">
        <ele>1021.8</ele>
        <time>2026-06-26T06:31:58Z</time>
      </trkpt>
      <trkpt lat="46.06006" lon="6.76143">
        <ele>1022</ele>
        <time>2026-06-26T06:31:59Z</time>
      </trkpt>
      <trkpt lat="46.06007" lon="6.76143">
        <ele>1022.1</ele>
        <time>2026-06-26T06:32:00Z</time>
      </trkpt>
      <trkpt lat="46.06008" lon="6.76142">
        <ele>1022.2</ele>
        <time>2026-06-26T06:32:01Z</time>
      </trkpt>
      <trkpt lat="46.06008" lon="6.76142">
        <ele>1022.4</ele>
        <time>2026-06-26T06:32:02Z</time>
      </trkpt>
      <trkpt lat="46.06008" lon="6.76141">
        <ele>1022.5</ele>
        <time>2026-06-26T06:32:03Z</time>
      </trkpt>
      <trkpt lat="46.06009" lon="6.7614">
        <ele>1022.7</ele>
        <time>2026-06-26T06:32:04Z</time>
      </trkpt>
      <trkpt lat="46.0601" lon="6.76139">
        <ele>1022.9</ele>
        <time>2026-06-26T06:32:05Z</time>
      </trkpt>
      <trkpt lat="46.06011" lon="6.76139">
        <ele>1023.1</ele>
        <time>2026-06-26T06:32:06Z</time>
      </trkpt>
      <trkpt lat="46.06011" lon="6.76138">
        <ele>1023.2</ele>
        <time>2026-06-26T06:32:07Z</time>
      </trkpt>
      <trkpt lat="46.06012" lon="6.76138">
        <ele>1023.4</ele>
        <time>2026-06-26T06:32:08Z</time>
      </trkpt>
      <trkpt lat="46.06013" lon="6.76138">
        <ele>1023.5</ele>
        <time>2026-06-26T06:32:09Z</time>
      </trkpt>
      <trkpt lat="46.06014" lon="6.76138">
        <ele>1023.6</ele>
        <time>2026-06-26T06:32:10Z</time>
      </trkpt>
      <trkpt lat="46.06014" lon="6.76138">
        <ele>1023.7</ele>
        <time>2026-06-26T06:32:11Z</time>
      </trkpt>
      <trkpt lat="46.06014" lon="6.76137">
        <ele>1023.8</ele>
        <time>2026-06-26T06:32:12Z</time>
      </trkpt>
      <trkpt lat="46.06015" lon="6.76137">
        <ele>1024</ele>
        <time>2026-06-26T06:32:13Z</time>
      </trkpt>
      <trkpt lat="46.06016" lon="6.76136">
        <ele>1024.1</ele>
        <time>2026-06-26T06:32:14Z</time>
      </trkpt>
      <trkpt lat="46.06016" lon="6.76136">
        <ele>1024.3</ele>
        <time>2026-06-26T06:32:15Z</time>
      </trkpt>
      <trkpt lat="46.06018" lon="6.76136">
        <ele>1024.5</ele>
        <time>2026-06-26T06:32:16Z</time>
      </trkpt>
      <trkpt lat="46.06019" lon="6.76136">
        <ele>1024.7</ele>
        <time>2026-06-26T06:32:17Z</time>
      </trkpt>
      <trkpt lat="46.0602" lon="6.76135">
        <ele>1024.8</ele>
        <time>2026-06-26T06:32:18Z</time>
      </trkpt>
      <trkpt lat="46.0602" lon="6.76135">
        <ele>1024.9</ele>
        <time>2026-06-26T06:32:19Z</time>
      </trkpt>
      <trkpt lat="46.06021" lon="6.76135">
        <ele>1025</ele>
        <time>2026-06-26T06:32:20Z</time>
      </trkpt>
      <trkpt lat="46.06022" lon="6.76135">
        <ele>1025</ele>
        <time>2026-06-26T06:32:21Z</time>
      </trkpt>
      <trkpt lat="46.06023" lon="6.76134">
        <ele>1025.1</ele>
        <time>2026-06-26T06:32:22Z</time>
      </trkpt>
      <trkpt lat="46.06023" lon="6.76133">
        <ele>1025.4</ele>
        <time>2026-06-26T06:32:23Z</time>
      </trkpt>
      <trkpt lat="46.06024" lon="6.76134">
        <ele>1025.5</ele>
        <time>2026-06-26T06:32:24Z</time>
      </trkpt>
      <trkpt lat="46.06025" lon="6.76134">
        <ele>1025.6</ele>
        <time>2026-06-26T06:32:25Z</time>
      </trkpt>
      <trkpt lat="46.06026" lon="6.76134">
        <ele>1025.8</ele>
        <time>2026-06-26T06:32:26Z</time>
      </trkpt>
      <trkpt lat="46.06026" lon="6.76134">
        <ele>1025.9</ele>
        <time>2026-06-26T06:32:27Z</time>
      </trkpt>
      <trkpt lat="46.06027" lon="6.76135">
        <ele>1025.9</ele>
        <time>2026-06-26T06:32:28Z</time>
      </trkpt>
      <trkpt lat="46.06029" lon="6.76136">
        <ele>1026</ele>
        <time>2026-06-26T06:32:29Z</time>
      </trkpt>
      <trkpt lat="46.0603" lon="6.76137">
        <ele>1026</ele>
        <time>2026-06-26T06:32:30Z</time>
      </trkpt>
      <trkpt lat="46.06031" lon="6.76136">
        <ele>1026.2</ele>
        <time>2026-06-26T06:32:31Z</time>
      </trkpt>
      <trkpt lat="46.06032" lon="6.76136">
        <ele>1026.3</ele>
        <time>2026-06-26T06:32:32Z</time>
      </trkpt>
      <trkpt lat="46.06033" lon="6.76136">
        <ele>1026.5</ele>
        <time>2026-06-26T06:32:33Z</time>
      </trkpt>
      <trkpt lat="46.06034" lon="6.76136">
        <ele>1026.6</ele>
        <time>2026-06-26T06:32:34Z</time>
      </trkpt>
      <trkpt lat="46.06034" lon="6.76137">
        <ele>1026.7</ele>
        <time>2026-06-26T06:32:35Z</time>
      </trkpt>
      <trkpt lat="46.06035" lon="6.76137">
        <ele>1026.9</ele>
        <time>2026-06-26T06:32:36Z</time>
      </trkpt>
      <trkpt lat="46.06036" lon="6.76137">
        <ele>1027</ele>
        <time>2026-06-26T06:32:37Z</time>
      </trkpt>
      <trkpt lat="46.06038" lon="6.76138">
        <ele>1027.2</ele>
        <time>2026-06-26T06:32:38Z</time>
      </trkpt>
      <trkpt lat="46.0604" lon="6.76138">
        <ele>1027.4</ele>
        <time>2026-06-26T06:32:39Z</time>
      </trkpt>
      <trkpt lat="46.0604" lon="6.76139">
        <ele>1027.5</ele>
        <time>2026-06-26T06:32:40Z</time>
      </trkpt>
      <trkpt lat="46.06041" lon="6.76139">
        <ele>1027.7</ele>
        <time>2026-06-26T06:32:41Z</time>
      </trkpt>
      <trkpt lat="46.06041" lon="6.7614">
        <ele>1027.9</ele>
        <time>2026-06-26T06:32:42Z</time>
      </trkpt>
      <trkpt lat="46.06042" lon="6.76139">
        <ele>1028</ele>
        <time>2026-06-26T06:32:43Z</time>
      </trkpt>
      <trkpt lat="46.06043" lon="6.76139">
        <ele>1028.2</ele>
        <time>2026-06-26T06:32:44Z</time>
      </trkpt>
      <trkpt lat="46.06044" lon="6.76139">
        <ele>1028.4</ele>
        <time>2026-06-26T06:32:45Z</time>
      </trkpt>
      <trkpt lat="46.06044" lon="6.76138">
        <ele>1028.5</ele>
        <time>2026-06-26T06:32:46Z</time>
      </trkpt>
      <trkpt lat="46.06045" lon="6.76139">
        <ele>1028.6</ele>
        <time>2026-06-26T06:32:47Z</time>
      </trkpt>
      <trkpt lat="46.06046" lon="6.76139">
        <ele>1028.7</ele>
        <time>2026-06-26T06:32:48Z</time>
      </trkpt>
      <trkpt lat="46.06047" lon="6.76138">
        <ele>1028.7</ele>
        <time>2026-06-26T06:32:49Z</time>
      </trkpt>
      <trkpt lat="46.06047" lon="6.76138">
        <ele>1028.8</ele>
        <time>2026-06-26T06:32:50Z</time>
      </trkpt>
      <trkpt lat="46.06048" lon="6.76138">
        <ele>1029</ele>
        <time>2026-06-26T06:32:51Z</time>
      </trkpt>
      <trkpt lat="46.06049" lon="6.76139">
        <ele>1029.1</ele>
        <time>2026-06-26T06:32:52Z</time>
      </trkpt>
      <trkpt lat="46.06049" lon="6.76138">
        <ele>1029.2</ele>
        <time>2026-06-26T06:32:53Z</time>
      </trkpt>
      <trkpt lat="46.0605" lon="6.76138">
        <ele>1029.3</ele>
        <time>2026-06-26T06:32:54Z</time>
      </trkpt>
      <trkpt lat="46.06051" lon="6.76139">
        <ele>1029.4</ele>
        <time>2026-06-26T06:32:55Z</time>
      </trkpt>
      <trkpt lat="46.06052" lon="6.76139">
        <ele>1029.5</ele>
        <time>2026-06-26T06:32:56Z</time>
      </trkpt>
      <trkpt lat="46.06053" lon="6.76139">
        <ele>1029.6</ele>
        <time>2026-06-26T06:32:57Z</time>
      </trkpt>
      <trkpt lat="46.06053" lon="6.76138">
        <ele>1029.8</ele>
        <time>2026-06-26T06:32:58Z</time>
      </trkpt>
      <trkpt lat="46.06052" lon="6.76138">
        <ele>1030</ele>
        <time>2026-06-26T06:32:59Z</time>
      </trkpt>
      <trkpt lat="46.06053" lon="6.76138">
        <ele>1030.1</ele>
        <time>2026-06-26T06:33:00Z</time>
      </trkpt>
      <trkpt lat="46.06054" lon="6.76137">
        <ele>1030.2</ele>
        <time>2026-06-26T06:33:01Z</time>
      </trkpt>
      <trkpt lat="46.06055" lon="6.76137">
        <ele>1030.3</ele>
        <time>2026-06-26T06:33:02Z</time>
      </trkpt>
      <trkpt lat="46.06055" lon="6.76137">
        <ele>1030.4</ele>
        <time>2026-06-26T06:33:03Z</time>
      </trkpt>
      <trkpt lat="46.06056" lon="6.76136">
        <ele>1030.5</ele>
        <time>2026-06-26T06:33:04Z</time>
      </trkpt>
      <trkpt lat="46.06057" lon="6.76136">
        <ele>1030.6</ele>
        <time>2026-06-26T06:33:05Z</time>
      </trkpt>
      <trkpt lat="46.06058" lon="6.76136">
        <ele>1030.8</ele>
        <time>2026-06-26T06:33:06Z</time>
      </trkpt>
      <trkpt lat="46.06059" lon="6.76136">
        <ele>1030.9</ele>
        <time>2026-06-26T06:33:07Z</time>
      </trkpt>
      <trkpt lat="46.06061" lon="6.76137">
        <ele>1030.9</ele>
        <time>2026-06-26T06:33:08Z</time>
      </trkpt>
      <trkpt lat="46.06061" lon="6.76136">
        <ele>1031</ele>
        <time>2026-06-26T06:33:09Z</time>
      </trkpt>
      <trkpt lat="46.06062" lon="6.76136">
        <ele>1031.1</ele>
        <time>2026-06-26T06:33:10Z</time>
      </trkpt>
      <trkpt lat="46.06063" lon="6.76135">
        <ele>1031.1</ele>
        <time>2026-06-26T06:33:11Z</time>
      </trkpt>
      <trkpt lat="46.06064" lon="6.76136">
        <ele>1031.4</ele>
        <time>2026-06-26T06:33:12Z</time>
      </trkpt>
      <trkpt lat="46.06064" lon="6.76135">
        <ele>1031.5</ele>
        <time>2026-06-26T06:33:13Z</time>
      </trkpt>
      <trkpt lat="46.06065" lon="6.76135">
        <ele>1031.6</ele>
        <time>2026-06-26T06:33:14Z</time>
      </trkpt>
      <trkpt lat="46.06065" lon="6.76134">
        <ele>1031.7</ele>
        <time>2026-06-26T06:33:15Z</time>
      </trkpt>
      <trkpt lat="46.06066" lon="6.76134">
        <ele>1031.8</ele>
        <time>2026-06-26T06:33:16Z</time>
      </trkpt>
      <trkpt lat="46.06067" lon="6.76133">
        <ele>1031.8</ele>
        <time>2026-06-26T06:33:17Z</time>
      </trkpt>
      <trkpt lat="46.06068" lon="6.76134">
        <ele>1031.9</ele>
        <time>2026-06-26T06:33:18Z</time>
      </trkpt>
      <trkpt lat="46.06069" lon="6.76134">
        <ele>1032</ele>
        <time>2026-06-26T06:33:19Z</time>
      </trkpt>
      <trkpt lat="46.0607" lon="6.76134">
        <ele>1032.2</ele>
        <time>2026-06-26T06:33:20Z</time>
      </trkpt>
      <trkpt lat="46.06071" lon="6.76133">
        <ele>1032.3</ele>
        <time>2026-06-26T06:33:21Z</time>
      </trkpt>
      <trkpt lat="46.06072" lon="6.76133">
        <ele>1032.5</ele>
        <time>2026-06-26T06:33:22Z</time>
      </trkpt>
      <trkpt lat="46.06073" lon="6.76132">
        <ele>1032.7</ele>
        <time>2026-06-26T06:33:23Z</time>
      </trkpt>
      <trkpt lat="46.06073" lon="6.76131">
        <ele>1032.8</ele>
        <time>2026-06-26T06:33:24Z</time>
      </trkpt>
      <trkpt lat="46.06074" lon="6.7613">
        <ele>1033</ele>
        <time>2026-06-26T06:33:25Z</time>
      </trkpt>
      <trkpt lat="46.06074" lon="6.76129">
        <ele>1033.1</ele>
        <time>2026-06-26T06:33:26Z</time>
      </trkpt>
      <trkpt lat="46.06076" lon="6.7613">
        <ele>1033.4</ele>
        <time>2026-06-26T06:33:27Z</time>
      </trkpt>
      <trkpt lat="46.06076" lon="6.76129">
        <ele>1033.5</ele>
        <time>2026-06-26T06:33:28Z</time>
      </trkpt>
      <trkpt lat="46.06076" lon="6.76128">
        <ele>1033.6</ele>
        <time>2026-06-26T06:33:29Z</time>
      </trkpt>
      <trkpt lat="46.06077" lon="6.76127">
        <ele>1033.8</ele>
        <time>2026-06-26T06:33:30Z</time>
      </trkpt>
      <trkpt lat="46.06077" lon="6.76127">
        <ele>1033.9</ele>
        <time>2026-06-26T06:33:31Z</time>
      </trkpt>
      <trkpt lat="46.06077" lon="6.76126">
        <ele>1034</ele>
        <time>2026-06-26T06:33:32Z</time>
      </trkpt>
      <trkpt lat="46.06078" lon="6.76125">
        <ele>1034.1</ele>
        <time>2026-06-26T06:33:33Z</time>
      </trkpt>
      <trkpt lat="46.06079" lon="6.76125">
        <ele>1034.2</ele>
        <time>2026-06-26T06:33:34Z</time>
      </trkpt>
      <trkpt lat="46.06079" lon="6.76125">
        <ele>1034.4</ele>
        <time>2026-06-26T06:33:35Z</time>
      </trkpt>
      <trkpt lat="46.0608" lon="6.76124">
        <ele>1034.6</ele>
        <time>2026-06-26T06:33:36Z</time>
      </trkpt>
      <trkpt lat="46.0608" lon="6.76124">
        <ele>1034.7</ele>
        <time>2026-06-26T06:33:37Z</time>
      </trkpt>
      <trkpt lat="46.06081" lon="6.76123">
        <ele>1034.8</ele>
        <time>2026-06-26T06:33:38Z</time>
      </trkpt>
      <trkpt lat="46.06082" lon="6.76123">
        <ele>1034.9</ele>
        <time>2026-06-26T06:33:39Z</time>
      </trkpt>
      <trkpt lat="46.06083" lon="6.76123">
        <ele>1035</ele>
        <time>2026-06-26T06:33:40Z</time>
      </trkpt>
      <trkpt lat="46.06084" lon="6.76123">
        <ele>1035.1</ele>
        <time>2026-06-26T06:33:41Z</time>
      </trkpt>
      <trkpt lat="46.06085" lon="6.76123">
        <ele>1035.4</ele>
        <time>2026-06-26T06:33:42Z</time>
      </trkpt>
      <trkpt lat="46.06086" lon="6.76123">
        <ele>1035.5</ele>
        <time>2026-06-26T06:33:43Z</time>
      </trkpt>
      <trkpt lat="46.06088" lon="6.76123">
        <ele>1035.6</ele>
        <time>2026-06-26T06:33:44Z</time>
      </trkpt>
      <trkpt lat="46.06088" lon="6.76122">
        <ele>1035.8</ele>
        <time>2026-06-26T06:33:45Z</time>
      </trkpt>
      <trkpt lat="46.06089" lon="6.76123">
        <ele>1036</ele>
        <time>2026-06-26T06:33:46Z</time>
      </trkpt>
      <trkpt lat="46.0609" lon="6.76124">
        <ele>1036.1</ele>
        <time>2026-06-26T06:33:47Z</time>
      </trkpt>
      <trkpt lat="46.06091" lon="6.76124">
        <ele>1036.4</ele>
        <time>2026-06-26T06:33:48Z</time>
      </trkpt>
      <trkpt lat="46.06092" lon="6.76124">
        <ele>1036.7</ele>
        <time>2026-06-26T06:33:49Z</time>
      </trkpt>
      <trkpt lat="46.06093" lon="6.76124">
        <ele>1036.9</ele>
        <time>2026-06-26T06:33:50Z</time>
      </trkpt>
      <trkpt lat="46.06094" lon="6.76125">
        <ele>1037</ele>
        <time>2026-06-26T06:33:51Z</time>
      </trkpt>
      <trkpt lat="46.06095" lon="6.76125">
        <ele>1037.2</ele>
        <time>2026-06-26T06:33:52Z</time>
      </trkpt>
      <trkpt lat="46.06095" lon="6.76125">
        <ele>1037.3</ele>
        <time>2026-06-26T06:33:53Z</time>
      </trkpt>
      <trkpt lat="46.06095" lon="6.76125">
        <ele>1037.5</ele>
        <time>2026-06-26T06:33:54Z</time>
      </trkpt>
      <trkpt lat="46.06096" lon="6.76125">
        <ele>1037.7</ele>
        <time>2026-06-26T06:33:55Z</time>
      </trkpt>
      <trkpt lat="46.06096" lon="6.76125">
        <ele>1037.8</ele>
        <time>2026-06-26T06:33:56Z</time>
      </trkpt>
      <trkpt lat="46.06096" lon="6.76127">
        <ele>1037.9</ele>
        <time>2026-06-26T06:33:57Z</time>
      </trkpt>
      <trkpt lat="46.06096" lon="6.76128">
        <ele>1038.1</ele>
        <time>2026-06-26T06:33:58Z</time>
      </trkpt>
      <trkpt lat="46.06096" lon="6.76129">
        <ele>1038.2</ele>
        <time>2026-06-26T06:33:59Z</time>
      </trkpt>
      <trkpt lat="46.06096" lon="6.7613">
        <ele>1038.3</ele>
        <time>2026-06-26T06:34:00Z</time>
      </trkpt>
      <trkpt lat="46.06095" lon="6.76131">
        <ele>1038.4</ele>
        <time>2026-06-26T06:34:01Z</time>
      </trkpt>
      <trkpt lat="46.06095" lon="6.76132">
        <ele>1038.5</ele>
        <time>2026-06-26T06:34:02Z</time>
      </trkpt>
      <trkpt lat="46.06095" lon="6.76133">
        <ele>1038.7</ele>
        <time>2026-06-26T06:34:03Z</time>
      </trkpt>
      <trkpt lat="46.06095" lon="6.76133">
        <ele>1038.9</ele>
        <time>2026-06-26T06:34:04Z</time>
      </trkpt>
      <trkpt lat="46.06094" lon="6.76133">
        <ele>1039.1</ele>
        <time>2026-06-26T06:34:05Z</time>
      </trkpt>
      <trkpt lat="46.06094" lon="6.76134">
        <ele>1039.3</ele>
        <time>2026-06-26T06:34:06Z</time>
      </trkpt>
      <trkpt lat="46.06094" lon="6.76134">
        <ele>1039.5</ele>
        <time>2026-06-26T06:34:07Z</time>
      </trkpt>
      <trkpt lat="46.06093" lon="6.76134">
        <ele>1039.6</ele>
        <time>2026-06-26T06:34:08Z</time>
      </trkpt>
      <trkpt lat="46.06093" lon="6.76135">
        <ele>1039.8</ele>
        <time>2026-06-26T06:34:09Z</time>
      </trkpt>
      <trkpt lat="46.06092" lon="6.76136">
        <ele>1039.9</ele>
        <time>2026-06-26T06:34:10Z</time>
      </trkpt>
      <trkpt lat="46.06092" lon="6.76136">
        <ele>1040.1</ele>
        <time>2026-06-26T06:34:11Z</time>
      </trkpt>
      <trkpt lat="46.06091" lon="6.76137">
        <ele>1040.4</ele>
        <time>2026-06-26T06:34:12Z</time>
      </trkpt>
      <trkpt lat="46.06091" lon="6.76137">
        <ele>1040.5</ele>
        <time>2026-06-26T06:34:13Z</time>
      </trkpt>
      <trkpt lat="46.0609" lon="6.76137">
        <ele>1040.7</ele>
        <time>2026-06-26T06:34:14Z</time>
      </trkpt>
      <trkpt lat="46.06089" lon="6.76138">
        <ele>1040.8</ele>
        <time>2026-06-26T06:34:15Z</time>
      </trkpt>
      <trkpt lat="46.06089" lon="6.76139">
        <ele>1041</ele>
        <time>2026-06-26T06:34:16Z</time>
      </trkpt>
      <trkpt lat="46.06088" lon="6.76139">
        <ele>1041</ele>
        <time>2026-06-26T06:34:17Z</time>
      </trkpt>
      <trkpt lat="46.06088" lon="6.76139">
        <ele>1041.2</ele>
        <time>2026-06-26T06:34:18Z</time>
      </trkpt>
      <trkpt lat="46.06088" lon="6.7614">
        <ele>1041.5</ele>
        <time>2026-06-26T06:34:19Z</time>
      </trkpt>
      <trkpt lat="46.06087" lon="6.7614">
        <ele>1041.7</ele>
        <time>2026-06-26T06:34:20Z</time>
      </trkpt>
      <trkpt lat="46.06086" lon="6.7614">
        <ele>1041.8</ele>
        <time>2026-06-26T06:34:21Z</time>
      </trkpt>
      <trkpt lat="46.06086" lon="6.7614">
        <ele>1042</ele>
        <time>2026-06-26T06:34:22Z</time>
      </trkpt>
      <trkpt lat="46.06085" lon="6.7614">
        <ele>1042.1</ele>
        <time>2026-06-26T06:34:23Z</time>
      </trkpt>
      <trkpt lat="46.06084" lon="6.7614">
        <ele>1042.3</ele>
        <time>2026-06-26T06:34:24Z</time>
      </trkpt>
      <trkpt lat="46.06083" lon="6.76141">
        <ele>1042.4</ele>
        <time>2026-06-26T06:34:25Z</time>
      </trkpt>
      <trkpt lat="46.06082" lon="6.76141">
        <ele>1042.6</ele>
        <time>2026-06-26T06:34:26Z</time>
      </trkpt>
      <trkpt lat="46.06081" lon="6.76141">
        <ele>1042.8</ele>
        <time>2026-06-26T06:34:27Z</time>
      </trkpt>
      <trkpt lat="46.06081" lon="6.76142">
        <ele>1042.9</ele>
        <time>2026-06-26T06:34:28Z</time>
      </trkpt>
      <trkpt lat="46.06081" lon="6.76143">
        <ele>1042.9</ele>
        <time>2026-06-26T06:34:29Z</time>
      </trkpt>
      <trkpt lat="46.0608" lon="6.76144">
        <ele>1043.1</ele>
        <time>2026-06-26T06:34:30Z</time>
      </trkpt>
      <trkpt lat="46.0608" lon="6.76144">
        <ele>1043.3</ele>
        <time>2026-06-26T06:34:31Z</time>
      </trkpt>
      <trkpt lat="46.06079" lon="6.76145">
        <ele>1043.5</ele>
        <time>2026-06-26T06:34:32Z</time>
      </trkpt>
      <trkpt lat="46.06078" lon="6.76145">
        <ele>1043.6</ele>
        <time>2026-06-26T06:34:33Z</time>
      </trkpt>
      <trkpt lat="46.06078" lon="6.76145">
        <ele>1043.7</ele>
        <time>2026-06-26T06:34:34Z</time>
      </trkpt>
      <trkpt lat="46.06077" lon="6.76145">
        <ele>1043.9</ele>
        <time>2026-06-26T06:34:35Z</time>
      </trkpt>
      <trkpt lat="46.06077" lon="6.76146">
        <ele>1044</ele>
        <time>2026-06-26T06:34:36Z</time>
      </trkpt>
      <trkpt lat="46.06076" lon="6.76146">
        <ele>1044.2</ele>
        <time>2026-06-26T06:34:37Z</time>
      </trkpt>
      <trkpt lat="46.06076" lon="6.76147">
        <ele>1044.4</ele>
        <time>2026-06-26T06:34:38Z</time>
      </trkpt>
      <trkpt lat="46.06075" lon="6.76148">
        <ele>1044.6</ele>
        <time>2026-06-26T06:34:39Z</time>
      </trkpt>
      <trkpt lat="46.06075" lon="6.76149">
        <ele>1044.7</ele>
        <time>2026-06-26T06:34:40Z</time>
      </trkpt>
      <trkpt lat="46.06075" lon="6.7615">
        <ele>1044.8</ele>
        <time>2026-06-26T06:34:41Z</time>
      </trkpt>
      <trkpt lat="46.06075" lon="6.76151">
        <ele>1044.9</ele>
        <time>2026-06-26T06:34:42Z</time>
      </trkpt>
      <trkpt lat="46.06074" lon="6.76151">
        <ele>1045.1</ele>
        <time>2026-06-26T06:34:43Z</time>
      </trkpt>
      <trkpt lat="46.06073" lon="6.76151">
        <ele>1045.2</ele>
        <time>2026-06-26T06:34:44Z</time>
      </trkpt>
      <trkpt lat="46.06073" lon="6.76152">
        <ele>1045.4</ele>
        <time>2026-06-26T06:34:45Z</time>
      </trkpt>
      <trkpt lat="46.06072" lon="6.76152">
        <ele>1045.5</ele>
        <time>2026-06-26T06:34:46Z</time>
      </trkpt>
      <trkpt lat="46.06072" lon="6.76152">
        <ele>1045.7</ele>
        <time>2026-06-26T06:34:47Z</time>
      </trkpt>
      <trkpt lat="46.06072" lon="6.76153">
        <ele>1045.9</ele>
        <time>2026-06-26T06:34:48Z</time>
      </trkpt>
      <trkpt lat="46.06071" lon="6.76154">
        <ele>1046.1</ele>
        <time>2026-06-26T06:34:49Z</time>
      </trkpt>
      <trkpt lat="46.06071" lon="6.76155">
        <ele>1046.2</ele>
        <time>2026-06-26T06:34:50Z</time>
      </trkpt>
      <trkpt lat="46.06071" lon="6.76156">
        <ele>1046.3</ele>
        <time>2026-06-26T06:34:51Z</time>
      </trkpt>
      <trkpt lat="46.0607" lon="6.76156">
        <ele>1046.4</ele>
        <time>2026-06-26T06:34:52Z</time>
      </trkpt>
      <trkpt lat="46.0607" lon="6.76157">
        <ele>1046.6</ele>
        <time>2026-06-26T06:34:53Z</time>
      </trkpt>
      <trkpt lat="46.06069" lon="6.76157">
        <ele>1046.7</ele>
        <time>2026-06-26T06:34:54Z</time>
      </trkpt>
      <trkpt lat="46.06068" lon="6.76157">
        <ele>1046.9</ele>
        <time>2026-06-26T06:34:55Z</time>
      </trkpt>
      <trkpt lat="46.06068" lon="6.76158">
        <ele>1047</ele>
        <time>2026-06-26T06:34:56Z</time>
      </trkpt>
      <trkpt lat="46.06068" lon="6.76158">
        <ele>1047.1</ele>
        <time>2026-06-26T06:34:57Z</time>
      </trkpt>
      <trkpt lat="46.06066" lon="6.76158">
        <ele>1047.2</ele>
        <time>2026-06-26T06:34:58Z</time>
      </trkpt>
      <trkpt lat="46.06066" lon="6.76158">
        <ele>1047.3</ele>
        <time>2026-06-26T06:34:59Z</time>
      </trkpt>
      <trkpt lat="46.06065" lon="6.76158">
        <ele>1047.3</ele>
        <time>2026-06-26T06:35:00Z</time>
      </trkpt>
      <trkpt lat="46.06065" lon="6.76158">
        <ele>1047.5</ele>
        <time>2026-06-26T06:35:01Z</time>
      </trkpt>
      <trkpt lat="46.06064" lon="6.7616">
        <ele>1047.5</ele>
        <time>2026-06-26T06:35:02Z</time>
      </trkpt>
      <trkpt lat="46.06064" lon="6.7616">
        <ele>1047.7</ele>
        <time>2026-06-26T06:35:03Z</time>
      </trkpt>
      <trkpt lat="46.06063" lon="6.76161">
        <ele>1047.8</ele>
        <time>2026-06-26T06:35:04Z</time>
      </trkpt>
      <trkpt lat="46.06063" lon="6.76162">
        <ele>1048</ele>
        <time>2026-06-26T06:35:05Z</time>
      </trkpt>
      <trkpt lat="46.06062" lon="6.76163">
        <ele>1048.2</ele>
        <time>2026-06-26T06:35:06Z</time>
      </trkpt>
      <trkpt lat="46.06062" lon="6.76163">
        <ele>1048.3</ele>
        <time>2026-06-26T06:35:07Z</time>
      </trkpt>
      <trkpt lat="46.06062" lon="6.76164">
        <ele>1048.5</ele>
        <time>2026-06-26T06:35:08Z</time>
      </trkpt>
      <trkpt lat="46.06061" lon="6.76165">
        <ele>1048.5</ele>
        <time>2026-06-26T06:35:09Z</time>
      </trkpt>
      <trkpt lat="46.0606" lon="6.76165">
        <ele>1048.7</ele>
        <time>2026-06-26T06:35:10Z</time>
      </trkpt>
      <trkpt lat="46.06059" lon="6.76165">
        <ele>1048.8</ele>
        <time>2026-06-26T06:35:11Z</time>
      </trkpt>
      <trkpt lat="46.06058" lon="6.76165">
        <ele>1048.8</ele>
        <time>2026-06-26T06:35:12Z</time>
      </trkpt>
      <trkpt lat="46.06058" lon="6.76165">
        <ele>1049</ele>
        <time>2026-06-26T06:35:13Z</time>
      </trkpt>
      <trkpt lat="46.06057" lon="6.76166">
        <ele>1049.2</ele>
        <time>2026-06-26T06:35:14Z</time>
      </trkpt>
      <trkpt lat="46.06057" lon="6.76167">
        <ele>1049.3</ele>
        <time>2026-06-26T06:35:15Z</time>
      </trkpt>
      <trkpt lat="46.06057" lon="6.76168">
        <ele>1049.5</ele>
        <time>2026-06-26T06:35:16Z</time>
      </trkpt>
      <trkpt lat="46.06056" lon="6.76168">
        <ele>1049.7</ele>
        <time>2026-06-26T06:35:17Z</time>
      </trkpt>
      <trkpt lat="46.06056" lon="6.76169">
        <ele>1049.8</ele>
        <time>2026-06-26T06:35:18Z</time>
      </trkpt>
      <trkpt lat="46.06056" lon="6.7617">
        <ele>1050</ele>
        <time>2026-06-26T06:35:19Z</time>
      </trkpt>
      <trkpt lat="46.06055" lon="6.76171">
        <ele>1050.1</ele>
        <time>2026-06-26T06:35:20Z</time>
      </trkpt>
      <trkpt lat="46.06055" lon="6.76172">
        <ele>1050.2</ele>
        <time>2026-06-26T06:35:21Z</time>
      </trkpt>
      <trkpt lat="46.06055" lon="6.76173">
        <ele>1050.3</ele>
        <time>2026-06-26T06:35:22Z</time>
      </trkpt>
      <trkpt lat="46.06054" lon="6.76173">
        <ele>1050.3</ele>
        <time>2026-06-26T06:35:23Z</time>
      </trkpt>
      <trkpt lat="46.06052" lon="6.76172">
        <ele>1050.4</ele>
        <time>2026-06-26T06:35:24Z</time>
      </trkpt>
      <trkpt lat="46.06052" lon="6.76173">
        <ele>1050.5</ele>
        <time>2026-06-26T06:35:25Z</time>
      </trkpt>
      <trkpt lat="46.06051" lon="6.76173">
        <ele>1050.5</ele>
        <time>2026-06-26T06:35:26Z</time>
      </trkpt>
      <trkpt lat="46.06051" lon="6.76173">
        <ele>1050.7</ele>
        <time>2026-06-26T06:35:27Z</time>
      </trkpt>
      <trkpt lat="46.0605" lon="6.76174">
        <ele>1050.8</ele>
        <time>2026-06-26T06:35:28Z</time>
      </trkpt>
      <trkpt lat="46.0605" lon="6.76174">
        <ele>1050.9</ele>
        <time>2026-06-26T06:35:29Z</time>
      </trkpt>
      <trkpt lat="46.06049" lon="6.76175">
        <ele>1051.1</ele>
        <time>2026-06-26T06:35:30Z</time>
      </trkpt>
      <trkpt lat="46.06048" lon="6.76176">
        <ele>1051.2</ele>
        <time>2026-06-26T06:35:31Z</time>
      </trkpt>
      <trkpt lat="46.06047" lon="6.76176">
        <ele>1051.2</ele>
        <time>2026-06-26T06:35:32Z</time>
      </trkpt>
      <trkpt lat="46.06046" lon="6.76176">
        <ele>1051.3</ele>
        <time>2026-06-26T06:35:33Z</time>
      </trkpt>
      <trkpt lat="46.06045" lon="6.76176">
        <ele>1051.4</ele>
        <time>2026-06-26T06:35:34Z</time>
      </trkpt>
      <trkpt lat="46.06045" lon="6.76177">
        <ele>1051.6</ele>
        <time>2026-06-26T06:35:35Z</time>
      </trkpt>
      <trkpt lat="46.06044" lon="6.76177">
        <ele>1051.8</ele>
        <time>2026-06-26T06:35:36Z</time>
      </trkpt>
      <trkpt lat="46.06044" lon="6.76177">
        <ele>1051.9</ele>
        <time>2026-06-26T06:35:37Z</time>
      </trkpt>
      <trkpt lat="46.06042" lon="6.76177">
        <ele>1052.1</ele>
        <time>2026-06-26T06:35:38Z</time>
      </trkpt>
      <trkpt lat="46.06041" lon="6.76177">
        <ele>1052.1</ele>
        <time>2026-06-26T06:35:39Z</time>
      </trkpt>
      <trkpt lat="46.06041" lon="6.76177">
        <ele>1052.1</ele>
        <time>2026-06-26T06:35:40Z</time>
      </trkpt>
      <trkpt lat="46.0604" lon="6.76177">
        <ele>1052.2</ele>
        <time>2026-06-26T06:35:41Z</time>
      </trkpt>
      <trkpt lat="46.0604" lon="6.76178">
        <ele>1052.6</ele>
        <time>2026-06-26T06:35:42Z</time>
      </trkpt>
      <trkpt lat="46.06039" lon="6.76178">
        <ele>1052.8</ele>
        <time>2026-06-26T06:35:43Z</time>
      </trkpt>
      <trkpt lat="46.06039" lon="6.76178">
        <ele>1052.9</ele>
        <time>2026-06-26T06:35:44Z</time>
      </trkpt>
      <trkpt lat="46.06038" lon="6.76179">
        <ele>1053</ele>
        <time>2026-06-26T06:35:45Z</time>
      </trkpt>
      <trkpt lat="46.06037" lon="6.76179">
        <ele>1053.3</ele>
        <time>2026-06-26T06:35:46Z</time>
      </trkpt>
      <trkpt lat="46.06036" lon="6.76178">
        <ele>1053.4</ele>
        <time>2026-06-26T06:35:47Z</time>
      </trkpt>
      <trkpt lat="46.06036" lon="6.76179">
        <ele>1053.6</ele>
        <time>2026-06-26T06:35:48Z</time>
      </trkpt>
      <trkpt lat="46.06035" lon="6.76179">
        <ele>1053.7</ele>
        <time>2026-06-26T06:35:49Z</time>
      </trkpt>
      <trkpt lat="46.06034" lon="6.76179">
        <ele>1053.9</ele>
        <time>2026-06-26T06:35:50Z</time>
      </trkpt>
      <trkpt lat="46.06033" lon="6.76178">
        <ele>1054.1</ele>
        <time>2026-06-26T06:35:51Z</time>
      </trkpt>
      <trkpt lat="46.06032" lon="6.76179">
        <ele>1054.3</ele>
        <time>2026-06-26T06:35:52Z</time>
      </trkpt>
      <trkpt lat="46.06031" lon="6.76179">
        <ele>1054.5</ele>
        <time>2026-06-26T06:35:53Z</time>
      </trkpt>
      <trkpt lat="46.0603" lon="6.7618">
        <ele>1054.6</ele>
        <time>2026-06-26T06:35:54Z</time>
      </trkpt>
      <trkpt lat="46.06029" lon="6.76181">
        <ele>1054.7</ele>
        <time>2026-06-26T06:35:55Z</time>
      </trkpt>
      <trkpt lat="46.06029" lon="6.76182">
        <ele>1054.9</ele>
        <time>2026-06-26T06:35:56Z</time>
      </trkpt>
      <trkpt lat="46.06029" lon="6.76184">
        <ele>1055</ele>
        <time>2026-06-26T06:35:57Z</time>
      </trkpt>
      <trkpt lat="46.06029" lon="6.76185">
        <ele>1055.2</ele>
        <time>2026-06-26T06:35:58Z</time>
      </trkpt>
      <trkpt lat="46.06029" lon="6.76186">
        <ele>1055.3</ele>
        <time>2026-06-26T06:35:59Z</time>
      </trkpt>
      <trkpt lat="46.0603" lon="6.7619">
        <ele>1055.3</ele>
        <time>2026-06-26T06:36:00Z</time>
      </trkpt>
      <trkpt lat="46.0603" lon="6.76191">
        <ele>1055.6</ele>
        <time>2026-06-26T06:36:01Z</time>
      </trkpt>
      <trkpt lat="46.06031" lon="6.76192">
        <ele>1055.6</ele>
        <time>2026-06-26T06:36:02Z</time>
      </trkpt>
      <trkpt lat="46.06031" lon="6.76193">
        <ele>1055.7</ele>
        <time>2026-06-26T06:36:03Z</time>
      </trkpt>
      <trkpt lat="46.06031" lon="6.76193">
        <ele>1055.7</ele>
        <time>2026-06-26T06:36:04Z</time>
      </trkpt>
      <trkpt lat="46.06032" lon="6.76194">
        <ele>1055.9</ele>
        <time>2026-06-26T06:36:05Z</time>
      </trkpt>
      <trkpt lat="46.06032" lon="6.76195">
        <ele>1056.1</ele>
        <time>2026-06-26T06:36:06Z</time>
      </trkpt>
      <trkpt lat="46.06032" lon="6.76193">
        <ele>1056.2</ele>
        <time>2026-06-26T06:36:07Z</time>
      </trkpt>
      <trkpt lat="46.06033" lon="6.76193">
        <ele>1056.3</ele>
        <time>2026-06-26T06:36:08Z</time>
      </trkpt>
      <trkpt lat="46.06033" lon="6.76193">
        <ele>1056.4</ele>
        <time>2026-06-26T06:36:09Z</time>
      </trkpt>
      <trkpt lat="46.06033" lon="6.76193">
        <ele>1056.7</ele>
        <time>2026-06-26T06:36:10Z</time>
      </trkpt>
      <trkpt lat="46.06034" lon="6.76193">
        <ele>1056.8</ele>
        <time>2026-06-26T06:36:11Z</time>
      </trkpt>
      <trkpt lat="46.06034" lon="6.76193">
        <ele>1057</ele>
        <time>2026-06-26T06:36:12Z</time>
      </trkpt>
      <trkpt lat="46.06035" lon="6.76193">
        <ele>1057.1</ele>
        <time>2026-06-26T06:36:13Z</time>
      </trkpt>
      <trkpt lat="46.06036" lon="6.76194">
        <ele>1057.1</ele>
        <time>2026-06-26T06:36:14Z</time>
      </trkpt>
      <trkpt lat="46.06036" lon="6.76194">
        <ele>1057.2</ele>
        <time>2026-06-26T06:36:15Z</time>
      </trkpt>
      <trkpt lat="46.06036" lon="6.76194">
        <ele>1057.3</ele>
        <time>2026-06-26T06:36:16Z</time>
      </trkpt>
      <trkpt lat="46.06036" lon="6.76194">
        <ele>1057.3</ele>
        <time>2026-06-26T06:36:17Z</time>
      </trkpt>
      <trkpt lat="46.06037" lon="6.76194">
        <ele>1057.5</ele>
        <time>2026-06-26T06:36:18Z</time>
      </trkpt>
      <trkpt lat="46.06038" lon="6.76195">
        <ele>1057.6</ele>
        <time>2026-06-26T06:36:19Z</time>
      </trkpt>
      <trkpt lat="46.06039" lon="6.76197">
        <ele>1057.7</ele>
        <time>2026-06-26T06:36:20Z</time>
      </trkpt>
      <trkpt lat="46.0604" lon="6.76198">
        <ele>1057.8</ele>
        <time>2026-06-26T06:36:21Z</time>
      </trkpt>
      <trkpt lat="46.0604" lon="6.76198">
        <ele>1057.9</ele>
        <time>2026-06-26T06:36:22Z</time>
      </trkpt>
      <trkpt lat="46.0604" lon="6.76198">
        <ele>1058</ele>
        <time>2026-06-26T06:36:23Z</time>
      </trkpt>
      <trkpt lat="46.06042" lon="6.76198">
        <ele>1058.1</ele>
        <time>2026-06-26T06:36:24Z</time>
      </trkpt>
      <trkpt lat="46.06044" lon="6.76198">
        <ele>1058.2</ele>
        <time>2026-06-26T06:36:25Z</time>
      </trkpt>
      <trkpt lat="46.06045" lon="6.76198">
        <ele>1058.2</ele>
        <time>2026-06-26T06:36:26Z</time>
      </trkpt>
      <trkpt lat="46.06045" lon="6.76199">
        <ele>1058.3</ele>
        <time>2026-06-26T06:36:27Z</time>
      </trkpt>
      <trkpt lat="46.06045" lon="6.76198">
        <ele>1058.4</ele>
        <time>2026-06-26T06:36:28Z</time>
      </trkpt>
      <trkpt lat="46.06046" lon="6.76198">
        <ele>1058.5</ele>
        <time>2026-06-26T06:36:29Z</time>
      </trkpt>
      <trkpt lat="46.06047" lon="6.76198">
        <ele>1058.6</ele>
        <time>2026-06-26T06:36:30Z</time>
      </trkpt>
      <trkpt lat="46.06048" lon="6.76198">
        <ele>1058.7</ele>
        <time>2026-06-26T06:36:31Z</time>
      </trkpt>
      <trkpt lat="46.06049" lon="6.76198">
        <ele>1058.7</ele>
        <time>2026-06-26T06:36:32Z</time>
      </trkpt>
      <trkpt lat="46.0605" lon="6.76198">
        <ele>1058.8</ele>
        <time>2026-06-26T06:36:33Z</time>
      </trkpt>
      <trkpt lat="46.0605" lon="6.76198">
        <ele>1058.9</ele>
        <time>2026-06-26T06:36:34Z</time>
      </trkpt>
      <trkpt lat="46.06051" lon="6.76198">
        <ele>1059.2</ele>
        <time>2026-06-26T06:36:35Z</time>
      </trkpt>
      <trkpt lat="46.06052" lon="6.76198">
        <ele>1059.2</ele>
        <time>2026-06-26T06:36:36Z</time>
      </trkpt>
      <trkpt lat="46.06052" lon="6.76198">
        <ele>1059.2</ele>
        <time>2026-06-26T06:36:37Z</time>
      </trkpt>
      <trkpt lat="46.06054" lon="6.76198">
        <ele>1059.3</ele>
        <time>2026-06-26T06:36:38Z</time>
      </trkpt>
      <trkpt lat="46.06054" lon="6.76198">
        <ele>1059.4</ele>
        <time>2026-06-26T06:36:39Z</time>
      </trkpt>
      <trkpt lat="46.06055" lon="6.76197">
        <ele>1059.5</ele>
        <time>2026-06-26T06:36:40Z</time>
      </trkpt>
      <trkpt lat="46.06055" lon="6.76196">
        <ele>1059.6</ele>
        <time>2026-06-26T06:36:41Z</time>
      </trkpt>
      <trkpt lat="46.06057" lon="6.76196">
        <ele>1059.6</ele>
        <time>2026-06-26T06:36:42Z</time>
      </trkpt>
      <trkpt lat="46.06058" lon="6.76197">
        <ele>1059.7</ele>
        <time>2026-06-26T06:36:43Z</time>
      </trkpt>
      <trkpt lat="46.06059" lon="6.76197">
        <ele>1059.9</ele>
        <time>2026-06-26T06:36:44Z</time>
      </trkpt>
      <trkpt lat="46.0606" lon="6.76196">
        <ele>1060</ele>
        <time>2026-06-26T06:36:45Z</time>
      </trkpt>
      <trkpt lat="46.06062" lon="6.76198">
        <ele>1060.2</ele>
        <time>2026-06-26T06:36:46Z</time>
      </trkpt>
      <trkpt lat="46.06063" lon="6.76197">
        <ele>1060.3</ele>
        <time>2026-06-26T06:36:47Z</time>
      </trkpt>
      <trkpt lat="46.06063" lon="6.76196">
        <ele>1060.3</ele>
        <time>2026-06-26T06:36:48Z</time>
      </trkpt>
      <trkpt lat="46.06064" lon="6.76196">
        <ele>1060.5</ele>
        <time>2026-06-26T06:36:49Z</time>
      </trkpt>
      <trkpt lat="46.06065" lon="6.76197">
        <ele>1060.6</ele>
        <time>2026-06-26T06:36:50Z</time>
      </trkpt>
      <trkpt lat="46.06067" lon="6.76197">
        <ele>1060.6</ele>
        <time>2026-06-26T06:36:51Z</time>
      </trkpt>
      <trkpt lat="46.06068" lon="6.76198">
        <ele>1060.7</ele>
        <time>2026-06-26T06:36:52Z</time>
      </trkpt>
      <trkpt lat="46.06069" lon="6.76199">
        <ele>1060.8</ele>
        <time>2026-06-26T06:36:53Z</time>
      </trkpt>
      <trkpt lat="46.0607" lon="6.76199">
        <ele>1061</ele>
        <time>2026-06-26T06:36:54Z</time>
      </trkpt>
      <trkpt lat="46.06071" lon="6.762">
        <ele>1061.1</ele>
        <time>2026-06-26T06:36:55Z</time>
      </trkpt>
      <trkpt lat="46.06071" lon="6.76199">
        <ele>1061.3</ele>
        <time>2026-06-26T06:36:56Z</time>
      </trkpt>
      <trkpt lat="46.06072" lon="6.76198">
        <ele>1061.4</ele>
        <time>2026-06-26T06:36:57Z</time>
      </trkpt>
      <trkpt lat="46.06073" lon="6.76199">
        <ele>1061.5</ele>
        <time>2026-06-26T06:36:58Z</time>
      </trkpt>
      <trkpt lat="46.06074" lon="6.76198">
        <ele>1061.6</ele>
        <time>2026-06-26T06:36:59Z</time>
      </trkpt>
      <trkpt lat="46.06074" lon="6.76199">
        <ele>1061.8</ele>
        <time>2026-06-26T06:37:00Z</time>
      </trkpt>
      <trkpt lat="46.06076" lon="6.76199">
        <ele>1062</ele>
        <time>2026-06-26T06:37:01Z</time>
      </trkpt>
      <trkpt lat="46.06077" lon="6.76199">
        <ele>1062.2</ele>
        <time>2026-06-26T06:37:02Z</time>
      </trkpt>
      <trkpt lat="46.06077" lon="6.76198">
        <ele>1062.4</ele>
        <time>2026-06-26T06:37:03Z</time>
      </trkpt>
      <trkpt lat="46.06077" lon="6.76198">
        <ele>1062.6</ele>
        <time>2026-06-26T06:37:04Z</time>
      </trkpt>
      <trkpt lat="46.06078" lon="6.76197">
        <ele>1062.9</ele>
        <time>2026-06-26T06:37:05Z</time>
      </trkpt>
      <trkpt lat="46.06079" lon="6.76197">
        <ele>1063.1</ele>
        <time>2026-06-26T06:37:06Z</time>
      </trkpt>
      <trkpt lat="46.06079" lon="6.76196">
        <ele>1063.3</ele>
        <time>2026-06-26T06:37:07Z</time>
      </trkpt>
      <trkpt lat="46.06079" lon="6.76196">
        <ele>1063.4</ele>
        <time>2026-06-26T06:37:08Z</time>
      </trkpt>
      <trkpt lat="46.0608" lon="6.76196">
        <ele>1063.6</ele>
        <time>2026-06-26T06:37:09Z</time>
      </trkpt>
      <trkpt lat="46.06081" lon="6.76196">
        <ele>1063.7</ele>
        <time>2026-06-26T06:37:10Z</time>
      </trkpt>
      <trkpt lat="46.06082" lon="6.76196">
        <ele>1063.9</ele>
        <time>2026-06-26T06:37:11Z</time>
      </trkpt>
      <trkpt lat="46.06083" lon="6.76196">
        <ele>1064.1</ele>
        <time>2026-06-26T06:37:12Z</time>
      </trkpt>
      <trkpt lat="46.06084" lon="6.76196">
        <ele>1064.4</ele>
        <time>2026-06-26T06:37:13Z</time>
      </trkpt>
      <trkpt lat="46.06085" lon="6.76196">
        <ele>1064.7</ele>
        <time>2026-06-26T06:37:14Z</time>
      </trkpt>
      <trkpt lat="46.06086" lon="6.76196">
        <ele>1064.9</ele>
        <time>2026-06-26T06:37:15Z</time>
      </trkpt>
      <trkpt lat="46.06087" lon="6.76196">
        <ele>1065</ele>
        <time>2026-06-26T06:37:16Z</time>
      </trkpt>
      <trkpt lat="46.06087" lon="6.76196">
        <ele>1065.2</ele>
        <time>2026-06-26T06:37:17Z</time>
      </trkpt>
      <trkpt lat="46.06087" lon="6.76195">
        <ele>1065.3</ele>
        <time>2026-06-26T06:37:18Z</time>
      </trkpt>
      <trkpt lat="46.06087" lon="6.76195">
        <ele>1065.6</ele>
        <time>2026-06-26T06:37:19Z</time>
      </trkpt>
      <trkpt lat="46.06088" lon="6.76195">
        <ele>1065.7</ele>
        <time>2026-06-26T06:37:20Z</time>
      </trkpt>
      <trkpt lat="46.06089" lon="6.76195">
        <ele>1065.9</ele>
        <time>2026-06-26T06:37:21Z</time>
      </trkpt>
      <trkpt lat="46.06089" lon="6.76195">
        <ele>1066.1</ele>
        <time>2026-06-26T06:37:22Z</time>
      </trkpt>
      <trkpt lat="46.0609" lon="6.76195">
        <ele>1066.2</ele>
        <time>2026-06-26T06:37:23Z</time>
      </trkpt>
      <trkpt lat="46.0609" lon="6.76194">
        <ele>1066.3</ele>
        <time>2026-06-26T06:37:24Z</time>
      </trkpt>
      <trkpt lat="46.06091" lon="6.76194">
        <ele>1066.4</ele>
        <time>2026-06-26T06:37:25Z</time>
      </trkpt>
      <trkpt lat="46.06092" lon="6.76194">
        <ele>1066.5</ele>
        <time>2026-06-26T06:37:26Z</time>
      </trkpt>
      <trkpt lat="46.06093" lon="6.76194">
        <ele>1066.6</ele>
        <time>2026-06-26T06:37:27Z</time>
      </trkpt>
      <trkpt lat="46.06093" lon="6.76194">
        <ele>1066.7</ele>
        <time>2026-06-26T06:37:28Z</time>
      </trkpt>
      <trkpt lat="46.06093" lon="6.76195">
        <ele>1066.8</ele>
        <time>2026-06-26T06:37:29Z</time>
      </trkpt>
      <trkpt lat="46.06094" lon="6.76195">
        <ele>1066.9</ele>
        <time>2026-06-26T06:37:30Z</time>
      </trkpt>
      <trkpt lat="46.06095" lon="6.76196">
        <ele>1067.1</ele>
        <time>2026-06-26T06:37:31Z</time>
      </trkpt>
      <trkpt lat="46.06096" lon="6.76196">
        <ele>1067.2</ele>
        <time>2026-06-26T06:37:32Z</time>
      </trkpt>
      <trkpt lat="46.06097" lon="6.76196">
        <ele>1067.3</ele>
        <time>2026-06-26T06:37:33Z</time>
      </trkpt>
      <trkpt lat="46.06098" lon="6.76195">
        <ele>1067.4</ele>
        <time>2026-06-26T06:37:34Z</time>
      </trkpt>
      <trkpt lat="46.06099" lon="6.76195">
        <ele>1067.5</ele>
        <time>2026-06-26T06:37:35Z</time>
      </trkpt>
      <trkpt lat="46.061" lon="6.76196">
        <ele>1067.7</ele>
        <time>2026-06-26T06:37:36Z</time>
      </trkpt>
      <trkpt lat="46.061" lon="6.76195">
        <ele>1067.9</ele>
        <time>2026-06-26T06:37:37Z</time>
      </trkpt>
      <trkpt lat="46.06101" lon="6.76195">
        <ele>1068</ele>
        <time>2026-06-26T06:37:38Z</time>
      </trkpt>
      <trkpt lat="46.06101" lon="6.76195">
        <ele>1068.1</ele>
        <time>2026-06-26T06:37:39Z</time>
      </trkpt>
      <trkpt lat="46.06102" lon="6.76195">
        <ele>1068.3</ele>
        <time>2026-06-26T06:37:40Z</time>
      </trkpt>
      <trkpt lat="46.06103" lon="6.76195">
        <ele>1068.4</ele>
        <time>2026-06-26T06:37:41Z</time>
      </trkpt>
      <trkpt lat="46.06103" lon="6.76195">
        <ele>1068.5</ele>
        <time>2026-06-26T06:37:42Z</time>
      </trkpt>
      <trkpt lat="46.06104" lon="6.76194">
        <ele>1068.7</ele>
        <time>2026-06-26T06:37:43Z</time>
      </trkpt>
      <trkpt lat="46.06104" lon="6.76194">
        <ele>1068.8</ele>
        <time>2026-06-26T06:37:44Z</time>
      </trkpt>
      <trkpt lat="46.06105" lon="6.76194">
        <ele>1068.9</ele>
        <time>2026-06-26T06:37:45Z</time>
      </trkpt>
      <trkpt lat="46.06105" lon="6.76194">
        <ele>1068.9</ele>
        <time>2026-06-26T06:37:46Z</time>
      </trkpt>
      <trkpt lat="46.06105" lon="6.76194">
        <ele>1068.9</ele>
        <time>2026-06-26T06:37:47Z</time>
      </trkpt>
      <trkpt lat="46.06105" lon="6.76194">
        <ele>1069</ele>
        <time>2026-06-26T06:37:48Z</time>
      </trkpt>
      <trkpt lat="46.06106" lon="6.76194">
        <ele>1068.9</ele>
        <time>2026-06-26T06:37:49Z</time>
      </trkpt>
      <trkpt lat="46.06106" lon="6.76194">
        <ele>1068.8</ele>
        <time>2026-06-26T06:37:50Z</time>
      </trkpt>
      <trkpt lat="46.06106" lon="6.76194">
        <ele>1068.8</ele>
        <time>2026-06-26T06:37:51Z</time>
      </trkpt>
      <trkpt lat="46.06106" lon="6.76193">
        <ele>1068.9</ele>
        <time>2026-06-26T06:37:52Z</time>
      </trkpt>
      <trkpt lat="46.06106" lon="6.76193">
        <ele>1068.9</ele>
        <time>2026-06-26T06:37:53Z</time>
      </trkpt>
      <trkpt lat="46.06107" lon="6.76192">
        <ele>1068.9</ele>
        <time>2026-06-26T06:37:54Z</time>
      </trkpt>
      <trkpt lat="46.06107" lon="6.76192">
        <ele>1069</ele>
        <time>2026-06-26T06:37:55Z</time>
      </trkpt>
      <trkpt lat="46.06108" lon="6.76191">
        <ele>1069.1</ele>
        <time>2026-06-26T06:37:56Z</time>
      </trkpt>
      <trkpt lat="46.06109" lon="6.76191">
        <ele>1069.2</ele>
        <time>2026-06-26T06:37:57Z</time>
      </trkpt>
      <trkpt lat="46.06109" lon="6.7619">
        <ele>1069.2</ele>
        <time>2026-06-26T06:37:58Z</time>
      </trkpt>
      <trkpt lat="46.0611" lon="6.7619">
        <ele>1069.3</ele>
        <time>2026-06-26T06:37:59Z</time>
      </trkpt>
      <trkpt lat="46.0611" lon="6.76189">
        <ele>1069.4</ele>
        <time>2026-06-26T06:38:00Z</time>
      </trkpt>
      <trkpt lat="46.06111" lon="6.76189">
        <ele>1069.5</ele>
        <time>2026-06-26T06:38:01Z</time>
      </trkpt>
      <trkpt lat="46.06112" lon="6.76188">
        <ele>1069.6</ele>
        <time>2026-06-26T06:38:02Z</time>
      </trkpt>
      <trkpt lat="46.06113" lon="6.76187">
        <ele>1069.7</ele>
        <time>2026-06-26T06:38:03Z</time>
      </trkpt>
      <trkpt lat="46.06113" lon="6.76186">
        <ele>1069.9</ele>
        <time>2026-06-26T06:38:04Z</time>
      </trkpt>
      <trkpt lat="46.06114" lon="6.76186">
        <ele>1070</ele>
        <time>2026-06-26T06:38:05Z</time>
      </trkpt>
      <trkpt lat="46.06114" lon="6.76186">
        <ele>1070.1</ele>
        <time>2026-06-26T06:38:06Z</time>
      </trkpt>
      <trkpt lat="46.06115" lon="6.76185">
        <ele>1070.2</ele>
        <time>2026-06-26T06:38:07Z</time>
      </trkpt>
      <trkpt lat="46.06116" lon="6.76185">
        <ele>1070.2</ele>
        <time>2026-06-26T06:38:08Z</time>
      </trkpt>
      <trkpt lat="46.06116" lon="6.76184">
        <ele>1070.3</ele>
        <time>2026-06-26T06:38:09Z</time>
      </trkpt>
      <trkpt lat="46.06117" lon="6.76184">
        <ele>1070.3</ele>
        <time>2026-06-26T06:38:10Z</time>
      </trkpt>
      <trkpt lat="46.06117" lon="6.76183">
        <ele>1070.3</ele>
        <time>2026-06-26T06:38:11Z</time>
      </trkpt>
      <trkpt lat="46.06118" lon="6.76184">
        <ele>1070.4</ele>
        <time>2026-06-26T06:38:12Z</time>
      </trkpt>
      <trkpt lat="46.06119" lon="6.76183">
        <ele>1070.6</ele>
        <time>2026-06-26T06:38:13Z</time>
      </trkpt>
      <trkpt lat="46.0612" lon="6.76183">
        <ele>1070.8</ele>
        <time>2026-06-26T06:38:14Z</time>
      </trkpt>
      <trkpt lat="46.06121" lon="6.76183">
        <ele>1070.9</ele>
        <time>2026-06-26T06:38:15Z</time>
      </trkpt>
      <trkpt lat="46.06122" lon="6.76183">
        <ele>1071</ele>
        <time>2026-06-26T06:38:16Z</time>
      </trkpt>
      <trkpt lat="46.06122" lon="6.76182">
        <ele>1071</ele>
        <time>2026-06-26T06:38:17Z</time>
      </trkpt>
      <trkpt lat="46.06124" lon="6.76182">
        <ele>1071.2</ele>
        <time>2026-06-26T06:38:18Z</time>
      </trkpt>
      <trkpt lat="46.06125" lon="6.76182">
        <ele>1071.4</ele>
        <time>2026-06-26T06:38:19Z</time>
      </trkpt>
      <trkpt lat="46.06126" lon="6.76182">
        <ele>1071.5</ele>
        <time>2026-06-26T06:38:20Z</time>
      </trkpt>
      <trkpt lat="46.06127" lon="6.76182">
        <ele>1071.7</ele>
        <time>2026-06-26T06:38:21Z</time>
      </trkpt>
      <trkpt lat="46.06128" lon="6.76181">
        <ele>1071.8</ele>
        <time>2026-06-26T06:38:22Z</time>
      </trkpt>
      <trkpt lat="46.06128" lon="6.7618">
        <ele>1072</ele>
        <time>2026-06-26T06:38:23Z</time>
      </trkpt>
      <trkpt lat="46.0613" lon="6.7618">
        <ele>1072.1</ele>
        <time>2026-06-26T06:38:24Z</time>
      </trkpt>
      <trkpt lat="46.0613" lon="6.7618">
        <ele>1072.3</ele>
        <time>2026-06-26T06:38:25Z</time>
      </trkpt>
      <trkpt lat="46.06131" lon="6.7618">
        <ele>1072.4</ele>
        <time>2026-06-26T06:38:26Z</time>
      </trkpt>
      <trkpt lat="46.06131" lon="6.7618">
        <ele>1072.5</ele>
        <time>2026-06-26T06:38:27Z</time>
      </trkpt>
      <trkpt lat="46.06132" lon="6.7618">
        <ele>1072.6</ele>
        <time>2026-06-26T06:38:28Z</time>
      </trkpt>
      <trkpt lat="46.06133" lon="6.7618">
        <ele>1072.8</ele>
        <time>2026-06-26T06:38:29Z</time>
      </trkpt>
      <trkpt lat="46.06134" lon="6.76179">
        <ele>1073</ele>
        <time>2026-06-26T06:38:30Z</time>
      </trkpt>
      <trkpt lat="46.06134" lon="6.76178">
        <ele>1073.1</ele>
        <time>2026-06-26T06:38:31Z</time>
      </trkpt>
      <trkpt lat="46.06134" lon="6.76177">
        <ele>1073.3</ele>
        <time>2026-06-26T06:38:32Z</time>
      </trkpt>
      <trkpt lat="46.06135" lon="6.76177">
        <ele>1073.4</ele>
        <time>2026-06-26T06:38:33Z</time>
      </trkpt>
      <trkpt lat="46.06135" lon="6.76176">
        <ele>1073.6</ele>
        <time>2026-06-26T06:38:34Z</time>
      </trkpt>
      <trkpt lat="46.06136" lon="6.76176">
        <ele>1073.7</ele>
        <time>2026-06-26T06:38:35Z</time>
      </trkpt>
      <trkpt lat="46.06136" lon="6.76176">
        <ele>1073.9</ele>
        <time>2026-06-26T06:38:36Z</time>
      </trkpt>
      <trkpt lat="46.06137" lon="6.76175">
        <ele>1074</ele>
        <time>2026-06-26T06:38:37Z</time>
      </trkpt>
      <trkpt lat="46.06137" lon="6.76174">
        <ele>1074.1</ele>
        <time>2026-06-26T06:38:38Z</time>
      </trkpt>
      <trkpt lat="46.06139" lon="6.76172">
        <ele>1074.2</ele>
        <time>2026-06-26T06:38:39Z</time>
      </trkpt>
      <trkpt lat="46.06139" lon="6.76171">
        <ele>1074.3</ele>
        <time>2026-06-26T06:38:40Z</time>
      </trkpt>
      <trkpt lat="46.0614" lon="6.7617">
        <ele>1074.5</ele>
        <time>2026-06-26T06:38:41Z</time>
      </trkpt>
      <trkpt lat="46.06141" lon="6.7617">
        <ele>1074.6</ele>
        <time>2026-06-26T06:38:42Z</time>
      </trkpt>
      <trkpt lat="46.06141" lon="6.7617">
        <ele>1074.8</ele>
        <time>2026-06-26T06:38:43Z</time>
      </trkpt>
      <trkpt lat="46.06142" lon="6.76169">
        <ele>1074.9</ele>
        <time>2026-06-26T06:38:44Z</time>
      </trkpt>
      <trkpt lat="46.06143" lon="6.76168">
        <ele>1075</ele>
        <time>2026-06-26T06:38:45Z</time>
      </trkpt>
      <trkpt lat="46.06143" lon="6.76167">
        <ele>1075.1</ele>
        <time>2026-06-26T06:38:46Z</time>
      </trkpt>
      <trkpt lat="46.06144" lon="6.76167">
        <ele>1075.2</ele>
        <time>2026-06-26T06:38:47Z</time>
      </trkpt>
      <trkpt lat="46.06145" lon="6.76167">
        <ele>1075.5</ele>
        <time>2026-06-26T06:38:48Z</time>
      </trkpt>
      <trkpt lat="46.06145" lon="6.76167">
        <ele>1075.7</ele>
        <time>2026-06-26T06:38:49Z</time>
      </trkpt>
      <trkpt lat="46.06144" lon="6.76164">
        <ele>1075.9</ele>
        <time>2026-06-26T06:38:50Z</time>
      </trkpt>
      <trkpt lat="46.06145" lon="6.76163">
        <ele>1076</ele>
        <time>2026-06-26T06:38:51Z</time>
      </trkpt>
      <trkpt lat="46.06146" lon="6.76163">
        <ele>1076.2</ele>
        <time>2026-06-26T06:38:52Z</time>
      </trkpt>
      <trkpt lat="46.06147" lon="6.76163">
        <ele>1076.2</ele>
        <time>2026-06-26T06:38:53Z</time>
      </trkpt>
      <trkpt lat="46.06147" lon="6.76163">
        <ele>1076.2</ele>
        <time>2026-06-26T06:38:54Z</time>
      </trkpt>
      <trkpt lat="46.06147" lon="6.76162">
        <ele>1076.3</ele>
        <time>2026-06-26T06:38:55Z</time>
      </trkpt>
      <trkpt lat="46.06147" lon="6.76161">
        <ele>1076.4</ele>
        <time>2026-06-26T06:38:56Z</time>
      </trkpt>
      <trkpt lat="46.06148" lon="6.76161">
        <ele>1076.5</ele>
        <time>2026-06-26T06:38:57Z</time>
      </trkpt>
      <trkpt lat="46.06151" lon="6.76161">
        <ele>1076.6</ele>
        <time>2026-06-26T06:38:58Z</time>
      </trkpt>
      <trkpt lat="46.06152" lon="6.7616">
        <ele>1076.7</ele>
        <time>2026-06-26T06:38:59Z</time>
      </trkpt>
      <trkpt lat="46.06153" lon="6.7616">
        <ele>1076.9</ele>
        <time>2026-06-26T06:39:00Z</time>
      </trkpt>
      <trkpt lat="46.06154" lon="6.76161">
        <ele>1077.1</ele>
        <time>2026-06-26T06:39:01Z</time>
      </trkpt>
      <trkpt lat="46.06155" lon="6.76161">
        <ele>1077.2</ele>
        <time>2026-06-26T06:39:02Z</time>
      </trkpt>
      <trkpt lat="46.06155" lon="6.7616">
        <ele>1077.3</ele>
        <time>2026-06-26T06:39:03Z</time>
      </trkpt>
      <trkpt lat="46.06155" lon="6.76159">
        <ele>1077.4</ele>
        <time>2026-06-26T06:39:04Z</time>
      </trkpt>
      <trkpt lat="46.06156" lon="6.76159">
        <ele>1077.5</ele>
        <time>2026-06-26T06:39:05Z</time>
      </trkpt>
      <trkpt lat="46.06157" lon="6.76159">
        <ele>1077.6</ele>
        <time>2026-06-26T06:39:06Z</time>
      </trkpt>
      <trkpt lat="46.06158" lon="6.76159">
        <ele>1077.8</ele>
        <time>2026-06-26T06:39:07Z</time>
      </trkpt>
      <trkpt lat="46.06158" lon="6.76158">
        <ele>1077.9</ele>
        <time>2026-06-26T06:39:08Z</time>
      </trkpt>
      <trkpt lat="46.06159" lon="6.76158">
        <ele>1078</ele>
        <time>2026-06-26T06:39:09Z</time>
      </trkpt>
      <trkpt lat="46.06159" lon="6.76157">
        <ele>1078.2</ele>
        <time>2026-06-26T06:39:10Z</time>
      </trkpt>
      <trkpt lat="46.0616" lon="6.76158">
        <ele>1078.3</ele>
        <time>2026-06-26T06:39:11Z</time>
      </trkpt>
      <trkpt lat="46.06161" lon="6.76157">
        <ele>1078.4</ele>
        <time>2026-06-26T06:39:12Z</time>
      </trkpt>
      <trkpt lat="46.06162" lon="6.76156">
        <ele>1078.5</ele>
        <time>2026-06-26T06:39:13Z</time>
      </trkpt>
      <trkpt lat="46.06163" lon="6.76156">
        <ele>1078.6</ele>
        <time>2026-06-26T06:39:14Z</time>
      </trkpt>
      <trkpt lat="46.06163" lon="6.76155">
        <ele>1078.7</ele>
        <time>2026-06-26T06:39:15Z</time>
      </trkpt>
      <trkpt lat="46.06164" lon="6.76155">
        <ele>1078.9</ele>
        <time>2026-06-26T06:39:16Z</time>
      </trkpt>
      <trkpt lat="46.06165" lon="6.76156">
        <ele>1078.9</ele>
        <time>2026-06-26T06:39:17Z</time>
      </trkpt>
      <trkpt lat="46.06166" lon="6.76156">
        <ele>1079</ele>
        <time>2026-06-26T06:39:18Z</time>
      </trkpt>
      <trkpt lat="46.06165" lon="6.76154">
        <ele>1079.1</ele>
        <time>2026-06-26T06:39:19Z</time>
      </trkpt>
      <trkpt lat="46.06166" lon="6.76154">
        <ele>1079.2</ele>
        <time>2026-06-26T06:39:20Z</time>
      </trkpt>
      <trkpt lat="46.06166" lon="6.76154">
        <ele>1079.3</ele>
        <time>2026-06-26T06:39:21Z</time>
      </trkpt>
      <trkpt lat="46.06167" lon="6.76154">
        <ele>1079.3</ele>
        <time>2026-06-26T06:39:22Z</time>
      </trkpt>
      <trkpt lat="46.06168" lon="6.76153">
        <ele>1079.4</ele>
        <time>2026-06-26T06:39:23Z</time>
      </trkpt>
      <trkpt lat="46.06168" lon="6.76152">
        <ele>1079.5</ele>
        <time>2026-06-26T06:39:24Z</time>
      </trkpt>
      <trkpt lat="46.06168" lon="6.76151">
        <ele>1079.6</ele>
        <time>2026-06-26T06:39:25Z</time>
      </trkpt>
      <trkpt lat="46.06169" lon="6.76151">
        <ele>1079.6</ele>
        <time>2026-06-26T06:39:26Z</time>
      </trkpt>
      <trkpt lat="46.06169" lon="6.76151">
        <ele>1079.7</ele>
        <time>2026-06-26T06:39:27Z</time>
      </trkpt>
      <trkpt lat="46.0617" lon="6.76151">
        <ele>1079.8</ele>
        <time>2026-06-26T06:39:28Z</time>
      </trkpt>
      <trkpt lat="46.0617" lon="6.76151">
        <ele>1080</ele>
        <time>2026-06-26T06:39:29Z</time>
      </trkpt>
      <trkpt lat="46.0617" lon="6.7615">
        <ele>1080.1</ele>
        <time>2026-06-26T06:39:30Z</time>
      </trkpt>
      <trkpt lat="46.06171" lon="6.76149">
        <ele>1080.1</ele>
        <time>2026-06-26T06:39:31Z</time>
      </trkpt>
      <trkpt lat="46.06171" lon="6.76149">
        <ele>1080.2</ele>
        <time>2026-06-26T06:39:32Z</time>
      </trkpt>
      <trkpt lat="46.06172" lon="6.76149">
        <ele>1080.3</ele>
        <time>2026-06-26T06:39:33Z</time>
      </trkpt>
      <trkpt lat="46.06173" lon="6.76148">
        <ele>1080.3</ele>
        <time>2026-06-26T06:39:34Z</time>
      </trkpt>
      <trkpt lat="46.06173" lon="6.76148">
        <ele>1080.4</ele>
        <time>2026-06-26T06:39:35Z</time>
      </trkpt>
      <trkpt lat="46.06174" lon="6.76148">
        <ele>1080.7</ele>
        <time>2026-06-26T06:39:36Z</time>
      </trkpt>
      <trkpt lat="46.06174" lon="6.76148">
        <ele>1080.8</ele>
        <time>2026-06-26T06:39:37Z</time>
      </trkpt>
      <trkpt lat="46.06176" lon="6.76149">
        <ele>1080.8</ele>
        <time>2026-06-26T06:39:38Z</time>
      </trkpt>
      <trkpt lat="46.06177" lon="6.76149">
        <ele>1080.9</ele>
        <time>2026-06-26T06:39:39Z</time>
      </trkpt>
      <trkpt lat="46.06177" lon="6.76149">
        <ele>1081</ele>
        <time>2026-06-26T06:39:40Z</time>
      </trkpt>
      <trkpt lat="46.06178" lon="6.76148">
        <ele>1081</ele>
        <time>2026-06-26T06:39:41Z</time>
      </trkpt>
      <trkpt lat="46.06178" lon="6.76147">
        <ele>1081.2</ele>
        <time>2026-06-26T06:39:42Z</time>
      </trkpt>
      <trkpt lat="46.06178" lon="6.76147">
        <ele>1081.3</ele>
        <time>2026-06-26T06:39:43Z</time>
      </trkpt>
      <trkpt lat="46.06178" lon="6.76146">
        <ele>1081.4</ele>
        <time>2026-06-26T06:39:44Z</time>
      </trkpt>
      <trkpt lat="46.06179" lon="6.76145">
        <ele>1081.4</ele>
        <time>2026-06-26T06:39:45Z</time>
      </trkpt>
      <trkpt lat="46.0618" lon="6.76145">
        <ele>1081.6</ele>
        <time>2026-06-26T06:39:46Z</time>
      </trkpt>
      <trkpt lat="46.06182" lon="6.76145">
        <ele>1081.7</ele>
        <time>2026-06-26T06:39:47Z</time>
      </trkpt>
      <trkpt lat="46.06182" lon="6.76143">
        <ele>1081.7</ele>
        <time>2026-06-26T06:39:48Z</time>
      </trkpt>
      <trkpt lat="46.06184" lon="6.76142">
        <ele>1081.8</ele>
        <time>2026-06-26T06:39:49Z</time>
      </trkpt>
      <trkpt lat="46.06185" lon="6.76141">
        <ele>1081.9</ele>
        <time>2026-06-26T06:39:50Z</time>
      </trkpt>
      <trkpt lat="46.06186" lon="6.76141">
        <ele>1082</ele>
        <time>2026-06-26T06:39:51Z</time>
      </trkpt>
      <trkpt lat="46.06187" lon="6.76141">
        <ele>1082.2</ele>
        <time>2026-06-26T06:39:52Z</time>
      </trkpt>
      <trkpt lat="46.06188" lon="6.76141">
        <ele>1082.4</ele>
        <time>2026-06-26T06:39:53Z</time>
      </trkpt>
      <trkpt lat="46.0619" lon="6.7614">
        <ele>1082.6</ele>
        <time>2026-06-26T06:39:54Z</time>
      </trkpt>
      <trkpt lat="46.0619" lon="6.7614">
        <ele>1082.7</ele>
        <time>2026-06-26T06:39:55Z</time>
      </trkpt>
      <trkpt lat="46.06191" lon="6.7614">
        <ele>1082.8</ele>
        <time>2026-06-26T06:39:56Z</time>
      </trkpt>
      <trkpt lat="46.06192" lon="6.7614">
        <ele>1082.9</ele>
        <time>2026-06-26T06:39:57Z</time>
      </trkpt>
      <trkpt lat="46.06195" lon="6.76142">
        <ele>1083</ele>
        <time>2026-06-26T06:39:58Z</time>
      </trkpt>
      <trkpt lat="46.06195" lon="6.76142">
        <ele>1083.1</ele>
        <time>2026-06-26T06:39:59Z</time>
      </trkpt>
      <trkpt lat="46.06197" lon="6.76142">
        <ele>1083.3</ele>
        <time>2026-06-26T06:40:00Z</time>
      </trkpt>
      <trkpt lat="46.06198" lon="6.76141">
        <ele>1083.5</ele>
        <time>2026-06-26T06:40:01Z</time>
      </trkpt>
      <trkpt lat="46.06199" lon="6.76141">
        <ele>1083.6</ele>
        <time>2026-06-26T06:40:02Z</time>
      </trkpt>
      <trkpt lat="46.06199" lon="6.7614">
        <ele>1083.7</ele>
        <time>2026-06-26T06:40:03Z</time>
      </trkpt>
      <trkpt lat="46.06201" lon="6.7614">
        <ele>1083.7</ele>
        <time>2026-06-26T06:40:04Z</time>
      </trkpt>
      <trkpt lat="46.06202" lon="6.7614">
        <ele>1083.8</ele>
        <time>2026-06-26T06:40:05Z</time>
      </trkpt>
      <trkpt lat="46.06203" lon="6.76139">
        <ele>1083.9</ele>
        <time>2026-06-26T06:40:06Z</time>
      </trkpt>
      <trkpt lat="46.06204" lon="6.7614">
        <ele>1084.1</ele>
        <time>2026-06-26T06:40:07Z</time>
      </trkpt>
      <trkpt lat="46.06205" lon="6.76139">
        <ele>1084.2</ele>
        <time>2026-06-26T06:40:08Z</time>
      </trkpt>
      <trkpt lat="46.06206" lon="6.76139">
        <ele>1084.3</ele>
        <time>2026-06-26T06:40:09Z</time>
      </trkpt>
      <trkpt lat="46.06206" lon="6.76139">
        <ele>1084.4</ele>
        <time>2026-06-26T06:40:10Z</time>
      </trkpt>
      <trkpt lat="46.06207" lon="6.76139">
        <ele>1084.6</ele>
        <time>2026-06-26T06:40:11Z</time>
      </trkpt>
      <trkpt lat="46.06209" lon="6.76139">
        <ele>1084.6</ele>
        <time>2026-06-26T06:40:12Z</time>
      </trkpt>
      <trkpt lat="46.0621" lon="6.76139">
        <ele>1084.7</ele>
        <time>2026-06-26T06:40:13Z</time>
      </trkpt>
      <trkpt lat="46.06211" lon="6.76139">
        <ele>1084.9</ele>
        <time>2026-06-26T06:40:14Z</time>
      </trkpt>
      <trkpt lat="46.06211" lon="6.76139">
        <ele>1085</ele>
        <time>2026-06-26T06:40:15Z</time>
      </trkpt>
      <trkpt lat="46.06212" lon="6.7614">
        <ele>1085.1</ele>
        <time>2026-06-26T06:40:16Z</time>
      </trkpt>
      <trkpt lat="46.06213" lon="6.76139">
        <ele>1085.2</ele>
        <time>2026-06-26T06:40:17Z</time>
      </trkpt>
      <trkpt lat="46.06214" lon="6.76139">
        <ele>1085.3</ele>
        <time>2026-06-26T06:40:18Z</time>
      </trkpt>
      <trkpt lat="46.06214" lon="6.76139">
        <ele>1085.4</ele>
        <time>2026-06-26T06:40:19Z</time>
      </trkpt>
      <trkpt lat="46.06215" lon="6.76139">
        <ele>1085.4</ele>
        <time>2026-06-26T06:40:20Z</time>
      </trkpt>
      <trkpt lat="46.06216" lon="6.76138">
        <ele>1085.5</ele>
        <time>2026-06-26T06:40:21Z</time>
      </trkpt>
      <trkpt lat="46.06217" lon="6.76138">
        <ele>1085.6</ele>
        <time>2026-06-26T06:40:22Z</time>
      </trkpt>
      <trkpt lat="46.06218" lon="6.76138">
        <ele>1085.7</ele>
        <time>2026-06-26T06:40:23Z</time>
      </trkpt>
      <trkpt lat="46.06219" lon="6.76139">
        <ele>1085.8</ele>
        <time>2026-06-26T06:40:24Z</time>
      </trkpt>
      <trkpt lat="46.0622" lon="6.76138">
        <ele>1085.9</ele>
        <time>2026-06-26T06:40:25Z</time>
      </trkpt>
      <trkpt lat="46.06221" lon="6.76139">
        <ele>1086.1</ele>
        <time>2026-06-26T06:40:26Z</time>
      </trkpt>
      <trkpt lat="46.06222" lon="6.76139">
        <ele>1086.2</ele>
        <time>2026-06-26T06:40:27Z</time>
      </trkpt>
      <trkpt lat="46.06222" lon="6.76138">
        <ele>1086.3</ele>
        <time>2026-06-26T06:40:28Z</time>
      </trkpt>
      <trkpt lat="46.06223" lon="6.76138">
        <ele>1086.4</ele>
        <time>2026-06-26T06:40:29Z</time>
      </trkpt>
      <trkpt lat="46.06223" lon="6.76136">
        <ele>1086.5</ele>
        <time>2026-06-26T06:40:30Z</time>
      </trkpt>
      <trkpt lat="46.06223" lon="6.76136">
        <ele>1086.7</ele>
        <time>2026-06-26T06:40:31Z</time>
      </trkpt>
      <trkpt lat="46.06224" lon="6.76136">
        <ele>1086.8</ele>
        <time>2026-06-26T06:40:32Z</time>
      </trkpt>
      <trkpt lat="46.06225" lon="6.76136">
        <ele>1086.9</ele>
        <time>2026-06-26T06:40:33Z</time>
      </trkpt>
      <trkpt lat="46.06226" lon="6.76135">
        <ele>1087.1</ele>
        <time>2026-06-26T06:40:34Z</time>
      </trkpt>
      <trkpt lat="46.06227" lon="6.76135">
        <ele>1087.2</ele>
        <time>2026-06-26T06:40:35Z</time>
      </trkpt>
      <trkpt lat="46.06228" lon="6.76134">
        <ele>1087.3</ele>
        <time>2026-06-26T06:40:36Z</time>
      </trkpt>
      <trkpt lat="46.06229" lon="6.76134">
        <ele>1087.4</ele>
        <time>2026-06-26T06:40:37Z</time>
      </trkpt>
      <trkpt lat="46.06229" lon="6.76134">
        <ele>1087.4</ele>
        <time>2026-06-26T06:40:38Z</time>
      </trkpt>
      <trkpt lat="46.0623" lon="6.76133">
        <ele>1087.4</ele>
        <time>2026-06-26T06:40:39Z</time>
      </trkpt>
      <trkpt lat="46.06232" lon="6.76133">
        <ele>1087.5</ele>
        <time>2026-06-26T06:40:40Z</time>
      </trkpt>
      <trkpt lat="46.06232" lon="6.76133">
        <ele>1087.5</ele>
        <time>2026-06-26T06:40:41Z</time>
      </trkpt>
      <trkpt lat="46.06233" lon="6.76133">
        <ele>1087.6</ele>
        <time>2026-06-26T06:40:42Z</time>
      </trkpt>
      <trkpt lat="46.06234" lon="6.76133">
        <ele>1087.6</ele>
        <time>2026-06-26T06:40:43Z</time>
      </trkpt>
      <trkpt lat="46.06234" lon="6.76133">
        <ele>1087.7</ele>
        <time>2026-06-26T06:40:44Z</time>
      </trkpt>
      <trkpt lat="46.06235" lon="6.76132">
        <ele>1087.8</ele>
        <time>2026-06-26T06:40:45Z</time>
      </trkpt>
      <trkpt lat="46.06236" lon="6.76131">
        <ele>1088</ele>
        <time>2026-06-26T06:40:46Z</time>
      </trkpt>
      <trkpt lat="46.06236" lon="6.7613">
        <ele>1088.1</ele>
        <time>2026-06-26T06:40:47Z</time>
      </trkpt>
      <trkpt lat="46.06237" lon="6.7613">
        <ele>1088.1</ele>
        <time>2026-06-26T06:40:48Z</time>
      </trkpt>
      <trkpt lat="46.06238" lon="6.7613">
        <ele>1088.2</ele>
        <time>2026-06-26T06:40:49Z</time>
      </trkpt>
      <trkpt lat="46.06239" lon="6.76129">
        <ele>1088.3</ele>
        <time>2026-06-26T06:40:50Z</time>
      </trkpt>
      <trkpt lat="46.0624" lon="6.76129">
        <ele>1088.4</ele>
        <time>2026-06-26T06:40:51Z</time>
      </trkpt>
      <trkpt lat="46.06241" lon="6.76129">
        <ele>1088.5</ele>
        <time>2026-06-26T06:40:52Z</time>
      </trkpt>
      <trkpt lat="46.06241" lon="6.76128">
        <ele>1088.6</ele>
        <time>2026-06-26T06:40:53Z</time>
      </trkpt>
      <trkpt lat="46.06242" lon="6.76128">
        <ele>1088.6</ele>
        <time>2026-06-26T06:40:54Z</time>
      </trkpt>
      <trkpt lat="46.06243" lon="6.76128">
        <ele>1088.8</ele>
        <time>2026-06-26T06:40:55Z</time>
      </trkpt>
      <trkpt lat="46.06244" lon="6.76128">
        <ele>1088.9</ele>
        <time>2026-06-26T06:40:56Z</time>
      </trkpt>
      <trkpt lat="46.06245" lon="6.76127">
        <ele>1089</ele>
        <time>2026-06-26T06:40:57Z</time>
      </trkpt>
      <trkpt lat="46.06246" lon="6.76127">
        <ele>1089.1</ele>
        <time>2026-06-26T06:40:58Z</time>
      </trkpt>
      <trkpt lat="46.06246" lon="6.76127">
        <ele>1089.3</ele>
        <time>2026-06-26T06:40:59Z</time>
      </trkpt>
      <trkpt lat="46.06247" lon="6.76126">
        <ele>1089.4</ele>
        <time>2026-06-26T06:41:00Z</time>
      </trkpt>
      <trkpt lat="46.06247" lon="6.76127">
        <ele>1089.6</ele>
        <time>2026-06-26T06:41:01Z</time>
      </trkpt>
      <trkpt lat="46.06248" lon="6.76126">
        <ele>1089.7</ele>
        <time>2026-06-26T06:41:02Z</time>
      </trkpt>
      <trkpt lat="46.06249" lon="6.76126">
        <ele>1089.8</ele>
        <time>2026-06-26T06:41:03Z</time>
      </trkpt>
      <trkpt lat="46.06249" lon="6.76125">
        <ele>1089.9</ele>
        <time>2026-06-26T06:41:04Z</time>
      </trkpt>
      <trkpt lat="46.0625" lon="6.76125">
        <ele>1090</ele>
        <time>2026-06-26T06:41:05Z</time>
      </trkpt>
      <trkpt lat="46.06251" lon="6.76125">
        <ele>1090.1</ele>
        <time>2026-06-26T06:41:06Z</time>
      </trkpt>
      <trkpt lat="46.06251" lon="6.76125">
        <ele>1090.2</ele>
        <time>2026-06-26T06:41:07Z</time>
      </trkpt>
      <trkpt lat="46.06252" lon="6.76125">
        <ele>1090.3</ele>
        <time>2026-06-26T06:41:08Z</time>
      </trkpt>
      <trkpt lat="46.06253" lon="6.76125">
        <ele>1090.4</ele>
        <time>2026-06-26T06:41:09Z</time>
      </trkpt>
      <trkpt lat="46.06253" lon="6.76125">
        <ele>1090.5</ele>
        <time>2026-06-26T06:41:10Z</time>
      </trkpt>
      <trkpt lat="46.06253" lon="6.76125">
        <ele>1090.6</ele>
        <time>2026-06-26T06:41:11Z</time>
      </trkpt>
      <trkpt lat="46.06253" lon="6.76127">
        <ele>1090.6</ele>
        <time>2026-06-26T06:41:12Z</time>
      </trkpt>
      <trkpt lat="46.06253" lon="6.76127">
        <ele>1090.7</ele>
        <time>2026-06-26T06:41:13Z</time>
      </trkpt>
      <trkpt lat="46.06253" lon="6.76129">
        <ele>1090.8</ele>
        <time>2026-06-26T06:41:14Z</time>
      </trkpt>
      <trkpt lat="46.06252" lon="6.76129">
        <ele>1090.8</ele>
        <time>2026-06-26T06:41:15Z</time>
      </trkpt>
      <trkpt lat="46.06252" lon="6.7613">
        <ele>1091</ele>
        <time>2026-06-26T06:41:16Z</time>
      </trkpt>
      <trkpt lat="46.06252" lon="6.76131">
        <ele>1091.1</ele>
        <time>2026-06-26T06:41:17Z</time>
      </trkpt>
      <trkpt lat="46.06252" lon="6.76132">
        <ele>1091.3</ele>
        <time>2026-06-26T06:41:18Z</time>
      </trkpt>
      <trkpt lat="46.06251" lon="6.76133">
        <ele>1091.4</ele>
        <time>2026-06-26T06:41:19Z</time>
      </trkpt>
      <trkpt lat="46.0625" lon="6.76134">
        <ele>1091.5</ele>
        <time>2026-06-26T06:41:20Z</time>
      </trkpt>
      <trkpt lat="46.0625" lon="6.76135">
        <ele>1091.5</ele>
        <time>2026-06-26T06:41:21Z</time>
      </trkpt>
      <trkpt lat="46.0625" lon="6.76136">
        <ele>1091.6</ele>
        <time>2026-06-26T06:41:22Z</time>
      </trkpt>
      <trkpt lat="46.06249" lon="6.76135">
        <ele>1091.8</ele>
        <time>2026-06-26T06:41:23Z</time>
      </trkpt>
      <trkpt lat="46.06248" lon="6.76136">
        <ele>1091.9</ele>
        <time>2026-06-26T06:41:24Z</time>
      </trkpt>
      <trkpt lat="46.06248" lon="6.76137">
        <ele>1092</ele>
        <time>2026-06-26T06:41:25Z</time>
      </trkpt>
      <trkpt lat="46.06247" lon="6.76138">
        <ele>1092.1</ele>
        <time>2026-06-26T06:41:26Z</time>
      </trkpt>
      <trkpt lat="46.06247" lon="6.76139">
        <ele>1092.2</ele>
        <time>2026-06-26T06:41:27Z</time>
      </trkpt>
      <trkpt lat="46.06246" lon="6.7614">
        <ele>1092.3</ele>
        <time>2026-06-26T06:41:28Z</time>
      </trkpt>
      <trkpt lat="46.06246" lon="6.7614">
        <ele>1092.6</ele>
        <time>2026-06-26T06:41:29Z</time>
      </trkpt>
      <trkpt lat="46.06245" lon="6.7614">
        <ele>1092.7</ele>
        <time>2026-06-26T06:41:30Z</time>
      </trkpt>
      <trkpt lat="46.06244" lon="6.76141">
        <ele>1092.8</ele>
        <time>2026-06-26T06:41:31Z</time>
      </trkpt>
      <trkpt lat="46.06244" lon="6.76142">
        <ele>1092.9</ele>
        <time>2026-06-26T06:41:32Z</time>
      </trkpt>
      <trkpt lat="46.06243" lon="6.76142">
        <ele>1093</ele>
        <time>2026-06-26T06:41:33Z</time>
      </trkpt>
      <trkpt lat="46.06242" lon="6.76143">
        <ele>1093.1</ele>
        <time>2026-06-26T06:41:34Z</time>
      </trkpt>
      <trkpt lat="46.06241" lon="6.76143">
        <ele>1093.1</ele>
        <time>2026-06-26T06:41:35Z</time>
      </trkpt>
      <trkpt lat="46.0624" lon="6.76143">
        <ele>1093.3</ele>
        <time>2026-06-26T06:41:36Z</time>
      </trkpt>
      <trkpt lat="46.0624" lon="6.76144">
        <ele>1093.4</ele>
        <time>2026-06-26T06:41:37Z</time>
      </trkpt>
      <trkpt lat="46.06239" lon="6.76144">
        <ele>1093.5</ele>
        <time>2026-06-26T06:41:38Z</time>
      </trkpt>
      <trkpt lat="46.06238" lon="6.76145">
        <ele>1093.6</ele>
        <time>2026-06-26T06:41:39Z</time>
      </trkpt>
      <trkpt lat="46.06238" lon="6.76145">
        <ele>1093.7</ele>
        <time>2026-06-26T06:41:40Z</time>
      </trkpt>
      <trkpt lat="46.06238" lon="6.76147">
        <ele>1093.9</ele>
        <time>2026-06-26T06:41:41Z</time>
      </trkpt>
      <trkpt lat="46.06237" lon="6.76147">
        <ele>1094</ele>
        <time>2026-06-26T06:41:42Z</time>
      </trkpt>
      <trkpt lat="46.06236" lon="6.76148">
        <ele>1094.1</ele>
        <time>2026-06-26T06:41:43Z</time>
      </trkpt>
      <trkpt lat="46.06235" lon="6.76148">
        <ele>1094.2</ele>
        <time>2026-06-26T06:41:44Z</time>
      </trkpt>
      <trkpt lat="46.06235" lon="6.76149">
        <ele>1094.3</ele>
        <time>2026-06-26T06:41:45Z</time>
      </trkpt>
      <trkpt lat="46.06235" lon="6.7615">
        <ele>1094.5</ele>
        <time>2026-06-26T06:41:46Z</time>
      </trkpt>
      <trkpt lat="46.06234" lon="6.7615">
        <ele>1094.6</ele>
        <time>2026-06-26T06:41:47Z</time>
      </trkpt>
      <trkpt lat="46.06233" lon="6.76151">
        <ele>1094.6</ele>
        <time>2026-06-26T06:41:48Z</time>
      </trkpt>
      <trkpt lat="46.06233" lon="6.76152">
        <ele>1094.7</ele>
        <time>2026-06-26T06:41:49Z</time>
      </trkpt>
      <trkpt lat="46.06232" lon="6.76152">
        <ele>1094.8</ele>
        <time>2026-06-26T06:41:50Z</time>
      </trkpt>
      <trkpt lat="46.06231" lon="6.76153">
        <ele>1094.8</ele>
        <time>2026-06-26T06:41:51Z</time>
      </trkpt>
      <trkpt lat="46.0623" lon="6.76153">
        <ele>1094.9</ele>
        <time>2026-06-26T06:41:52Z</time>
      </trkpt>
      <trkpt lat="46.0623" lon="6.76154">
        <ele>1095</ele>
        <time>2026-06-26T06:41:53Z</time>
      </trkpt>
      <trkpt lat="46.06229" lon="6.76155">
        <ele>1095.1</ele>
        <time>2026-06-26T06:41:54Z</time>
      </trkpt>
      <trkpt lat="46.06228" lon="6.76155">
        <ele>1095.2</ele>
        <time>2026-06-26T06:41:55Z</time>
      </trkpt>
      <trkpt lat="46.06228" lon="6.76156">
        <ele>1095.3</ele>
        <time>2026-06-26T06:41:56Z</time>
      </trkpt>
      <trkpt lat="46.06227" lon="6.76157">
        <ele>1095.4</ele>
        <time>2026-06-26T06:41:57Z</time>
      </trkpt>
      <trkpt lat="46.06226" lon="6.76157">
        <ele>1095.5</ele>
        <time>2026-06-26T06:41:58Z</time>
      </trkpt>
      <trkpt lat="46.06226" lon="6.76158">
        <ele>1095.6</ele>
        <time>2026-06-26T06:41:59Z</time>
      </trkpt>
      <trkpt lat="46.06225" lon="6.76159">
        <ele>1095.8</ele>
        <time>2026-06-26T06:42:00Z</time>
      </trkpt>
      <trkpt lat="46.06225" lon="6.7616">
        <ele>1095.9</ele>
        <time>2026-06-26T06:42:01Z</time>
      </trkpt>
      <trkpt lat="46.06224" lon="6.76161">
        <ele>1096</ele>
        <time>2026-06-26T06:42:02Z</time>
      </trkpt>
      <trkpt lat="46.06224" lon="6.76162">
        <ele>1096.2</ele>
        <time>2026-06-26T06:42:03Z</time>
      </trkpt>
      <trkpt lat="46.06223" lon="6.76162">
        <ele>1096.2</ele>
        <time>2026-06-26T06:42:04Z</time>
      </trkpt>
      <trkpt lat="46.06223" lon="6.76163">
        <ele>1096.3</ele>
        <time>2026-06-26T06:42:05Z</time>
      </trkpt>
      <trkpt lat="46.06222" lon="6.76163">
        <ele>1096.4</ele>
        <time>2026-06-26T06:42:06Z</time>
      </trkpt>
      <trkpt lat="46.06221" lon="6.76164">
        <ele>1096.5</ele>
        <time>2026-06-26T06:42:07Z</time>
      </trkpt>
      <trkpt lat="46.06221" lon="6.76164">
        <ele>1096.6</ele>
        <time>2026-06-26T06:42:08Z</time>
      </trkpt>
      <trkpt lat="46.0622" lon="6.76165">
        <ele>1096.7</ele>
        <time>2026-06-26T06:42:09Z</time>
      </trkpt>
      <trkpt lat="46.06219" lon="6.76166">
        <ele>1096.8</ele>
        <time>2026-06-26T06:42:10Z</time>
      </trkpt>
      <trkpt lat="46.06219" lon="6.76166">
        <ele>1096.9</ele>
        <time>2026-06-26T06:42:11Z</time>
      </trkpt>
      <trkpt lat="46.06218" lon="6.76167">
        <ele>1097</ele>
        <time>2026-06-26T06:42:12Z</time>
      </trkpt>
      <trkpt lat="46.06218" lon="6.76168">
        <ele>1097.1</ele>
        <time>2026-06-26T06:42:13Z</time>
      </trkpt>
      <trkpt lat="46.06217" lon="6.76169">
        <ele>1097.3</ele>
        <time>2026-06-26T06:42:14Z</time>
      </trkpt>
      <trkpt lat="46.06217" lon="6.7617">
        <ele>1097.5</ele>
        <time>2026-06-26T06:42:15Z</time>
      </trkpt>
      <trkpt lat="46.06216" lon="6.7617">
        <ele>1097.7</ele>
        <time>2026-06-26T06:42:16Z</time>
      </trkpt>
      <trkpt lat="46.06215" lon="6.76171">
        <ele>1098</ele>
        <time>2026-06-26T06:42:17Z</time>
      </trkpt>
      <trkpt lat="46.06215" lon="6.76171">
        <ele>1098.2</ele>
        <time>2026-06-26T06:42:18Z</time>
      </trkpt>
      <trkpt lat="46.06214" lon="6.76172">
        <ele>1098.3</ele>
        <time>2026-06-26T06:42:19Z</time>
      </trkpt>
      <trkpt lat="46.06213" lon="6.76173">
        <ele>1098.5</ele>
        <time>2026-06-26T06:42:20Z</time>
      </trkpt>
      <trkpt lat="46.06213" lon="6.76174">
        <ele>1098.6</ele>
        <time>2026-06-26T06:42:21Z</time>
      </trkpt>
      <trkpt lat="46.06212" lon="6.76174">
        <ele>1098.7</ele>
        <time>2026-06-26T06:42:22Z</time>
      </trkpt>
      <trkpt lat="46.06211" lon="6.76175">
        <ele>1098.8</ele>
        <time>2026-06-26T06:42:23Z</time>
      </trkpt>
      <trkpt lat="46.06211" lon="6.76175">
        <ele>1098.9</ele>
        <time>2026-06-26T06:42:24Z</time>
      </trkpt>
      <trkpt lat="46.0621" lon="6.76176">
        <ele>1099</ele>
        <time>2026-06-26T06:42:25Z</time>
      </trkpt>
      <trkpt lat="46.06209" lon="6.76177">
        <ele>1099.1</ele>
        <time>2026-06-26T06:42:26Z</time>
      </trkpt>
      <trkpt lat="46.06209" lon="6.76178">
        <ele>1099.2</ele>
        <time>2026-06-26T06:42:27Z</time>
      </trkpt>
      <trkpt lat="46.06209" lon="6.76179">
        <ele>1099.3</ele>
        <time>2026-06-26T06:42:28Z</time>
      </trkpt>
      <trkpt lat="46.06208" lon="6.76181">
        <ele>1099.3</ele>
        <time>2026-06-26T06:42:29Z</time>
      </trkpt>
      <trkpt lat="46.06208" lon="6.76181">
        <ele>1099.4</ele>
        <time>2026-06-26T06:42:30Z</time>
      </trkpt>
      <trkpt lat="46.06208" lon="6.76183">
        <ele>1099.4</ele>
        <time>2026-06-26T06:42:31Z</time>
      </trkpt>
      <trkpt lat="46.06207" lon="6.76184">
        <ele>1099.5</ele>
        <time>2026-06-26T06:42:32Z</time>
      </trkpt>
      <trkpt lat="46.06207" lon="6.76185">
        <ele>1099.5</ele>
        <time>2026-06-26T06:42:33Z</time>
      </trkpt>
      <trkpt lat="46.06207" lon="6.76187">
        <ele>1099.6</ele>
        <time>2026-06-26T06:42:34Z</time>
      </trkpt>
      <trkpt lat="46.06207" lon="6.76188">
        <ele>1099.8</ele>
        <time>2026-06-26T06:42:35Z</time>
      </trkpt>
      <trkpt lat="46.06206" lon="6.7619">
        <ele>1099.9</ele>
        <time>2026-06-26T06:42:36Z</time>
      </trkpt>
      <trkpt lat="46.06206" lon="6.76191">
        <ele>1100.1</ele>
        <time>2026-06-26T06:42:37Z</time>
      </trkpt>
      <trkpt lat="46.06207" lon="6.76193">
        <ele>1100.2</ele>
        <time>2026-06-26T06:42:38Z</time>
      </trkpt>
      <trkpt lat="46.06206" lon="6.76195">
        <ele>1100.3</ele>
        <time>2026-06-26T06:42:39Z</time>
      </trkpt>
      <trkpt lat="46.06207" lon="6.76197">
        <ele>1100.2</ele>
        <time>2026-06-26T06:42:40Z</time>
      </trkpt>
      <trkpt lat="46.06207" lon="6.76198">
        <ele>1100.3</ele>
        <time>2026-06-26T06:42:41Z</time>
      </trkpt>
      <trkpt lat="46.06207" lon="6.76199">
        <ele>1100.3</ele>
        <time>2026-06-26T06:42:42Z</time>
      </trkpt>
      <trkpt lat="46.06208" lon="6.762">
        <ele>1100.4</ele>
        <time>2026-06-26T06:42:43Z</time>
      </trkpt>
      <trkpt lat="46.06209" lon="6.76201">
        <ele>1100.4</ele>
        <time>2026-06-26T06:42:44Z</time>
      </trkpt>
      <trkpt lat="46.0621" lon="6.76201">
        <ele>1100.5</ele>
        <time>2026-06-26T06:42:45Z</time>
      </trkpt>
      <trkpt lat="46.0621" lon="6.76201">
        <ele>1100.5</ele>
        <time>2026-06-26T06:42:46Z</time>
      </trkpt>
      <trkpt lat="46.06211" lon="6.76201">
        <ele>1100.6</ele>
        <time>2026-06-26T06:42:47Z</time>
      </trkpt>
      <trkpt lat="46.06212" lon="6.76202">
        <ele>1100.7</ele>
        <time>2026-06-26T06:42:48Z</time>
      </trkpt>
      <trkpt lat="46.06214" lon="6.76202">
        <ele>1101</ele>
        <time>2026-06-26T06:42:49Z</time>
      </trkpt>
      <trkpt lat="46.06214" lon="6.76203">
        <ele>1101.2</ele>
        <time>2026-06-26T06:42:50Z</time>
      </trkpt>
      <trkpt lat="46.06215" lon="6.76202">
        <ele>1101.3</ele>
        <time>2026-06-26T06:42:51Z</time>
      </trkpt>
      <trkpt lat="46.06216" lon="6.76202">
        <ele>1101.4</ele>
        <time>2026-06-26T06:42:52Z</time>
      </trkpt>
      <trkpt lat="46.06216" lon="6.76201">
        <ele>1101.6</ele>
        <time>2026-06-26T06:42:53Z</time>
      </trkpt>
      <trkpt lat="46.06217" lon="6.76201">
        <ele>1101.7</ele>
        <time>2026-06-26T06:42:54Z</time>
      </trkpt>
      <trkpt lat="46.06218" lon="6.76201">
        <ele>1101.8</ele>
        <time>2026-06-26T06:42:55Z</time>
      </trkpt>
      <trkpt lat="46.06219" lon="6.762">
        <ele>1101.9</ele>
        <time>2026-06-26T06:42:56Z</time>
      </trkpt>
      <trkpt lat="46.06219" lon="6.762">
        <ele>1102.1</ele>
        <time>2026-06-26T06:42:57Z</time>
      </trkpt>
      <trkpt lat="46.0622" lon="6.76199">
        <ele>1102.3</ele>
        <time>2026-06-26T06:42:58Z</time>
      </trkpt>
      <trkpt lat="46.06221" lon="6.76199">
        <ele>1102.4</ele>
        <time>2026-06-26T06:42:59Z</time>
      </trkpt>
      <trkpt lat="46.06222" lon="6.76199">
        <ele>1102.5</ele>
        <time>2026-06-26T06:43:00Z</time>
      </trkpt>
      <trkpt lat="46.06222" lon="6.76199">
        <ele>1102.6</ele>
        <time>2026-06-26T06:43:01Z</time>
      </trkpt>
      <trkpt lat="46.06223" lon="6.76199">
        <ele>1102.8</ele>
        <time>2026-06-26T06:43:02Z</time>
      </trkpt>
      <trkpt lat="46.06225" lon="6.76199">
        <ele>1102.8</ele>
        <time>2026-06-26T06:43:03Z</time>
      </trkpt>
      <trkpt lat="46.06226" lon="6.76199">
        <ele>1103</ele>
        <time>2026-06-26T06:43:04Z</time>
      </trkpt>
      <trkpt lat="46.06227" lon="6.76199">
        <ele>1103.2</ele>
        <time>2026-06-26T06:43:05Z</time>
      </trkpt>
      <trkpt lat="46.06228" lon="6.76199">
        <ele>1103.3</ele>
        <time>2026-06-26T06:43:06Z</time>
      </trkpt>
      <trkpt lat="46.0623" lon="6.762">
        <ele>1103.5</ele>
        <time>2026-06-26T06:43:07Z</time>
      </trkpt>
      <trkpt lat="46.0623" lon="6.76199">
        <ele>1103.6</ele>
        <time>2026-06-26T06:43:08Z</time>
      </trkpt>
      <trkpt lat="46.06231" lon="6.76199">
        <ele>1103.7</ele>
        <time>2026-06-26T06:43:09Z</time>
      </trkpt>
      <trkpt lat="46.06232" lon="6.76199">
        <ele>1103.9</ele>
        <time>2026-06-26T06:43:10Z</time>
      </trkpt>
      <trkpt lat="46.06233" lon="6.762">
        <ele>1104</ele>
        <time>2026-06-26T06:43:11Z</time>
      </trkpt>
      <trkpt lat="46.06234" lon="6.76201">
        <ele>1104.1</ele>
        <time>2026-06-26T06:43:12Z</time>
      </trkpt>
      <trkpt lat="46.06235" lon="6.762">
        <ele>1104.2</ele>
        <time>2026-06-26T06:43:13Z</time>
      </trkpt>
      <trkpt lat="46.06236" lon="6.762">
        <ele>1104.3</ele>
        <time>2026-06-26T06:43:14Z</time>
      </trkpt>
      <trkpt lat="46.06237" lon="6.762">
        <ele>1104.5</ele>
        <time>2026-06-26T06:43:15Z</time>
      </trkpt>
      <trkpt lat="46.06238" lon="6.762">
        <ele>1104.6</ele>
        <time>2026-06-26T06:43:16Z</time>
      </trkpt>
      <trkpt lat="46.06238" lon="6.762">
        <ele>1104.7</ele>
        <time>2026-06-26T06:43:17Z</time>
      </trkpt>
      <trkpt lat="46.06239" lon="6.762">
        <ele>1104.8</ele>
        <time>2026-06-26T06:43:18Z</time>
      </trkpt>
      <trkpt lat="46.0624" lon="6.76201">
        <ele>1105</ele>
        <time>2026-06-26T06:43:19Z</time>
      </trkpt>
      <trkpt lat="46.0624" lon="6.762">
        <ele>1105.1</ele>
        <time>2026-06-26T06:43:20Z</time>
      </trkpt>
      <trkpt lat="46.06241" lon="6.76201">
        <ele>1105.3</ele>
        <time>2026-06-26T06:43:21Z</time>
      </trkpt>
      <trkpt lat="46.06242" lon="6.76201">
        <ele>1105.3</ele>
        <time>2026-06-26T06:43:22Z</time>
      </trkpt>
      <trkpt lat="46.06243" lon="6.76201">
        <ele>1105.5</ele>
        <time>2026-06-26T06:43:23Z</time>
      </trkpt>
      <trkpt lat="46.06244" lon="6.76201">
        <ele>1105.5</ele>
        <time>2026-06-26T06:43:24Z</time>
      </trkpt>
      <trkpt lat="46.06244" lon="6.76201">
        <ele>1105.5</ele>
        <time>2026-06-26T06:43:25Z</time>
      </trkpt>
      <trkpt lat="46.06245" lon="6.76201">
        <ele>1105.7</ele>
        <time>2026-06-26T06:43:26Z</time>
      </trkpt>
      <trkpt lat="46.06246" lon="6.762">
        <ele>1105.8</ele>
        <time>2026-06-26T06:43:27Z</time>
      </trkpt>
      <trkpt lat="46.06247" lon="6.76201">
        <ele>1106</ele>
        <time>2026-06-26T06:43:28Z</time>
      </trkpt>
      <trkpt lat="46.06247" lon="6.76201">
        <ele>1106.1</ele>
        <time>2026-06-26T06:43:29Z</time>
      </trkpt>
      <trkpt lat="46.06248" lon="6.76202">
        <ele>1106.1</ele>
        <time>2026-06-26T06:43:30Z</time>
      </trkpt>
      <trkpt lat="46.06249" lon="6.76202">
        <ele>1106.2</ele>
        <time>2026-06-26T06:43:31Z</time>
      </trkpt>
      <trkpt lat="46.0625" lon="6.76203">
        <ele>1106.3</ele>
        <time>2026-06-26T06:43:32Z</time>
      </trkpt>
      <trkpt lat="46.06251" lon="6.76203">
        <ele>1106.5</ele>
        <time>2026-06-26T06:43:33Z</time>
      </trkpt>
      <trkpt lat="46.06252" lon="6.76204">
        <ele>1106.6</ele>
        <time>2026-06-26T06:43:34Z</time>
      </trkpt>
      <trkpt lat="46.06253" lon="6.76204">
        <ele>1106.7</ele>
        <time>2026-06-26T06:43:35Z</time>
      </trkpt>
      <trkpt lat="46.06254" lon="6.76204">
        <ele>1106.8</ele>
        <time>2026-06-26T06:43:36Z</time>
      </trkpt>
      <trkpt lat="46.06255" lon="6.76204">
        <ele>1107</ele>
        <time>2026-06-26T06:43:37Z</time>
      </trkpt>
      <trkpt lat="46.06255" lon="6.76203">
        <ele>1107.1</ele>
        <time>2026-06-26T06:43:38Z</time>
      </trkpt>
      <trkpt lat="46.06256" lon="6.76203">
        <ele>1107.2</ele>
        <time>2026-06-26T06:43:39Z</time>
      </trkpt>
      <trkpt lat="46.06257" lon="6.76204">
        <ele>1107.4</ele>
        <time>2026-06-26T06:43:40Z</time>
      </trkpt>
      <trkpt lat="46.06258" lon="6.76203">
        <ele>1107.5</ele>
        <time>2026-06-26T06:43:41Z</time>
      </trkpt>
      <trkpt lat="46.06259" lon="6.76203">
        <ele>1107.6</ele>
        <time>2026-06-26T06:43:42Z</time>
      </trkpt>
      <trkpt lat="46.06259" lon="6.76202">
        <ele>1107.8</ele>
        <time>2026-06-26T06:43:43Z</time>
      </trkpt>
      <trkpt lat="46.0626" lon="6.76201">
        <ele>1107.9</ele>
        <time>2026-06-26T06:43:44Z</time>
      </trkpt>
      <trkpt lat="46.06261" lon="6.762">
        <ele>1108.2</ele>
        <time>2026-06-26T06:43:45Z</time>
      </trkpt>
      <trkpt lat="46.06261" lon="6.76199">
        <ele>1108.3</ele>
        <time>2026-06-26T06:43:46Z</time>
      </trkpt>
      <trkpt lat="46.06262" lon="6.76199">
        <ele>1108.4</ele>
        <time>2026-06-26T06:43:47Z</time>
      </trkpt>
      <trkpt lat="46.06263" lon="6.76198">
        <ele>1108.4</ele>
        <time>2026-06-26T06:43:48Z</time>
      </trkpt>
      <trkpt lat="46.06264" lon="6.76199">
        <ele>1108.4</ele>
        <time>2026-06-26T06:43:49Z</time>
      </trkpt>
      <trkpt lat="46.06265" lon="6.76199">
        <ele>1108.6</ele>
        <time>2026-06-26T06:43:50Z</time>
      </trkpt>
      <trkpt lat="46.06266" lon="6.76199">
        <ele>1108.7</ele>
        <time>2026-06-26T06:43:51Z</time>
      </trkpt>
      <trkpt lat="46.06267" lon="6.76199">
        <ele>1108.9</ele>
        <time>2026-06-26T06:43:52Z</time>
      </trkpt>
      <trkpt lat="46.06268" lon="6.76199">
        <ele>1109</ele>
        <time>2026-06-26T06:43:53Z</time>
      </trkpt>
      <trkpt lat="46.06269" lon="6.76198">
        <ele>1109.2</ele>
        <time>2026-06-26T06:43:54Z</time>
      </trkpt>
      <trkpt lat="46.0627" lon="6.76198">
        <ele>1109.4</ele>
        <time>2026-06-26T06:43:55Z</time>
      </trkpt>
      <trkpt lat="46.06271" lon="6.76197">
        <ele>1109.6</ele>
        <time>2026-06-26T06:43:56Z</time>
      </trkpt>
      <trkpt lat="46.06271" lon="6.76195">
        <ele>1109.8</ele>
        <time>2026-06-26T06:43:57Z</time>
      </trkpt>
      <trkpt lat="46.06271" lon="6.76194">
        <ele>1109.9</ele>
        <time>2026-06-26T06:43:58Z</time>
      </trkpt>
      <trkpt lat="46.06272" lon="6.76193">
        <ele>1110</ele>
        <time>2026-06-26T06:43:59Z</time>
      </trkpt>
      <trkpt lat="46.06272" lon="6.76192">
        <ele>1110.1</ele>
        <time>2026-06-26T06:44:00Z</time>
      </trkpt>
      <trkpt lat="46.06273" lon="6.76192">
        <ele>1110.3</ele>
        <time>2026-06-26T06:44:01Z</time>
      </trkpt>
      <trkpt lat="46.06274" lon="6.7619">
        <ele>1110.4</ele>
        <time>2026-06-26T06:44:02Z</time>
      </trkpt>
      <trkpt lat="46.06274" lon="6.76189">
        <ele>1110.5</ele>
        <time>2026-06-26T06:44:03Z</time>
      </trkpt>
      <trkpt lat="46.06275" lon="6.76187">
        <ele>1110.8</ele>
        <time>2026-06-26T06:44:04Z</time>
      </trkpt>
      <trkpt lat="46.06275" lon="6.76187">
        <ele>1110.8</ele>
        <time>2026-06-26T06:44:05Z</time>
      </trkpt>
      <trkpt lat="46.06276" lon="6.76186">
        <ele>1111.1</ele>
        <time>2026-06-26T06:44:06Z</time>
      </trkpt>
      <trkpt lat="46.06276" lon="6.76185">
        <ele>1111.3</ele>
        <time>2026-06-26T06:44:07Z</time>
      </trkpt>
      <trkpt lat="46.06277" lon="6.76184">
        <ele>1111.6</ele>
        <time>2026-06-26T06:44:08Z</time>
      </trkpt>
      <trkpt lat="46.06277" lon="6.76184">
        <ele>1111.8</ele>
        <time>2026-06-26T06:44:09Z</time>
      </trkpt>
      <trkpt lat="46.06278" lon="6.76183">
        <ele>1111.9</ele>
        <time>2026-06-26T06:44:10Z</time>
      </trkpt>
      <trkpt lat="46.06278" lon="6.76182">
        <ele>1112</ele>
        <time>2026-06-26T06:44:11Z</time>
      </trkpt>
      <trkpt lat="46.06279" lon="6.76182">
        <ele>1112.1</ele>
        <time>2026-06-26T06:44:12Z</time>
      </trkpt>
      <trkpt lat="46.0628" lon="6.7618">
        <ele>1112.2</ele>
        <time>2026-06-26T06:44:13Z</time>
      </trkpt>
      <trkpt lat="46.0628" lon="6.76179">
        <ele>1112.3</ele>
        <time>2026-06-26T06:44:14Z</time>
      </trkpt>
      <trkpt lat="46.06281" lon="6.76178">
        <ele>1112.3</ele>
        <time>2026-06-26T06:44:15Z</time>
      </trkpt>
      <trkpt lat="46.06281" lon="6.76177">
        <ele>1112.4</ele>
        <time>2026-06-26T06:44:16Z</time>
      </trkpt>
      <trkpt lat="46.06282" lon="6.76177">
        <ele>1112.4</ele>
        <time>2026-06-26T06:44:17Z</time>
      </trkpt>
      <trkpt lat="46.06283" lon="6.76177">
        <ele>1112.6</ele>
        <time>2026-06-26T06:44:18Z</time>
      </trkpt>
      <trkpt lat="46.06284" lon="6.76177">
        <ele>1112.7</ele>
        <time>2026-06-26T06:44:19Z</time>
      </trkpt>
      <trkpt lat="46.06284" lon="6.76176">
        <ele>1112.8</ele>
        <time>2026-06-26T06:44:20Z</time>
      </trkpt>
      <trkpt lat="46.06286" lon="6.76176">
        <ele>1112.8</ele>
        <time>2026-06-26T06:44:21Z</time>
      </trkpt>
      <trkpt lat="46.06287" lon="6.76175">
        <ele>1112.8</ele>
        <time>2026-06-26T06:44:22Z</time>
      </trkpt>
      <trkpt lat="46.06287" lon="6.76174">
        <ele>1112.9</ele>
        <time>2026-06-26T06:44:23Z</time>
      </trkpt>
      <trkpt lat="46.06288" lon="6.76173">
        <ele>1113</ele>
        <time>2026-06-26T06:44:24Z</time>
      </trkpt>
      <trkpt lat="46.06289" lon="6.76172">
        <ele>1113.1</ele>
        <time>2026-06-26T06:44:25Z</time>
      </trkpt>
      <trkpt lat="46.06289" lon="6.76171">
        <ele>1113.2</ele>
        <time>2026-06-26T06:44:26Z</time>
      </trkpt>
      <trkpt lat="46.06289" lon="6.76171">
        <ele>1113.4</ele>
        <time>2026-06-26T06:44:27Z</time>
      </trkpt>
      <trkpt lat="46.0629" lon="6.7617">
        <ele>1113.5</ele>
        <time>2026-06-26T06:44:28Z</time>
      </trkpt>
      <trkpt lat="46.06291" lon="6.7617">
        <ele>1113.7</ele>
        <time>2026-06-26T06:44:29Z</time>
      </trkpt>
      <trkpt lat="46.06291" lon="6.76169">
        <ele>1113.8</ele>
        <time>2026-06-26T06:44:30Z</time>
      </trkpt>
      <trkpt lat="46.06291" lon="6.76168">
        <ele>1114</ele>
        <time>2026-06-26T06:44:31Z</time>
      </trkpt>
      <trkpt lat="46.06292" lon="6.76168">
        <ele>1114.1</ele>
        <time>2026-06-26T06:44:32Z</time>
      </trkpt>
      <trkpt lat="46.06293" lon="6.76167">
        <ele>1114.2</ele>
        <time>2026-06-26T06:44:33Z</time>
      </trkpt>
      <trkpt lat="46.06294" lon="6.76167">
        <ele>1114.3</ele>
        <time>2026-06-26T06:44:34Z</time>
      </trkpt>
      <trkpt lat="46.06294" lon="6.76166">
        <ele>1114.5</ele>
        <time>2026-06-26T06:44:35Z</time>
      </trkpt>
      <trkpt lat="46.06295" lon="6.76166">
        <ele>1114.7</ele>
        <time>2026-06-26T06:44:36Z</time>
      </trkpt>
      <trkpt lat="46.06296" lon="6.76165">
        <ele>1114.9</ele>
        <time>2026-06-26T06:44:37Z</time>
      </trkpt>
      <trkpt lat="46.06297" lon="6.76165">
        <ele>1115</ele>
        <time>2026-06-26T06:44:38Z</time>
      </trkpt>
      <trkpt lat="46.06297" lon="6.76165">
        <ele>1115.2</ele>
        <time>2026-06-26T06:44:39Z</time>
      </trkpt>
      <trkpt lat="46.06298" lon="6.76164">
        <ele>1115.3</ele>
        <time>2026-06-26T06:44:40Z</time>
      </trkpt>
      <trkpt lat="46.06299" lon="6.76164">
        <ele>1115.4</ele>
        <time>2026-06-26T06:44:41Z</time>
      </trkpt>
      <trkpt lat="46.063" lon="6.76163">
        <ele>1115.6</ele>
        <time>2026-06-26T06:44:42Z</time>
      </trkpt>
      <trkpt lat="46.063" lon="6.76162">
        <ele>1115.8</ele>
        <time>2026-06-26T06:44:43Z</time>
      </trkpt>
      <trkpt lat="46.06301" lon="6.76162">
        <ele>1115.9</ele>
        <time>2026-06-26T06:44:44Z</time>
      </trkpt>
      <trkpt lat="46.06301" lon="6.76162">
        <ele>1116.1</ele>
        <time>2026-06-26T06:44:45Z</time>
      </trkpt>
      <trkpt lat="46.06302" lon="6.76161">
        <ele>1116.2</ele>
        <time>2026-06-26T06:44:46Z</time>
      </trkpt>
      <trkpt lat="46.06303" lon="6.76161">
        <ele>1116.3</ele>
        <time>2026-06-26T06:44:47Z</time>
      </trkpt>
      <trkpt lat="46.06303" lon="6.76161">
        <ele>1116.4</ele>
        <time>2026-06-26T06:44:48Z</time>
      </trkpt>
      <trkpt lat="46.06304" lon="6.7616">
        <ele>1116.5</ele>
        <time>2026-06-26T06:44:49Z</time>
      </trkpt>
      <trkpt lat="46.06305" lon="6.7616">
        <ele>1116.6</ele>
        <time>2026-06-26T06:44:50Z</time>
      </trkpt>
      <trkpt lat="46.06305" lon="6.76159">
        <ele>1116.7</ele>
        <time>2026-06-26T06:44:51Z</time>
      </trkpt>
      <trkpt lat="46.06307" lon="6.76159">
        <ele>1116.8</ele>
        <time>2026-06-26T06:44:52Z</time>
      </trkpt>
      <trkpt lat="46.06307" lon="6.76158">
        <ele>1116.9</ele>
        <time>2026-06-26T06:44:53Z</time>
      </trkpt>
      <trkpt lat="46.06308" lon="6.76158">
        <ele>1117</ele>
        <time>2026-06-26T06:44:54Z</time>
      </trkpt>
      <trkpt lat="46.06308" lon="6.76157">
        <ele>1117.1</ele>
        <time>2026-06-26T06:44:55Z</time>
      </trkpt>
      <trkpt lat="46.06309" lon="6.76157">
        <ele>1117.2</ele>
        <time>2026-06-26T06:44:56Z</time>
      </trkpt>
      <trkpt lat="46.0631" lon="6.76158">
        <ele>1117.3</ele>
        <time>2026-06-26T06:44:57Z</time>
      </trkpt>
      <trkpt lat="46.0631" lon="6.76157">
        <ele>1117.4</ele>
        <time>2026-06-26T06:44:58Z</time>
      </trkpt>
      <trkpt lat="46.06311" lon="6.76158">
        <ele>1117.6</ele>
        <time>2026-06-26T06:44:59Z</time>
      </trkpt>
      <trkpt lat="46.06311" lon="6.76157">
        <ele>1117.7</ele>
        <time>2026-06-26T06:45:00Z</time>
      </trkpt>
      <trkpt lat="46.06311" lon="6.76157">
        <ele>1117.8</ele>
        <time>2026-06-26T06:45:01Z</time>
      </trkpt>
      <trkpt lat="46.06312" lon="6.76158">
        <ele>1117.9</ele>
        <time>2026-06-26T06:45:02Z</time>
      </trkpt>
      <trkpt lat="46.06313" lon="6.76158">
        <ele>1118</ele>
        <time>2026-06-26T06:45:03Z</time>
      </trkpt>
      <trkpt lat="46.06313" lon="6.76158">
        <ele>1118.1</ele>
        <time>2026-06-26T06:45:04Z</time>
      </trkpt>
      <trkpt lat="46.06314" lon="6.76158">
        <ele>1118.2</ele>
        <time>2026-06-26T06:45:05Z</time>
      </trkpt>
      <trkpt lat="46.06315" lon="6.76158">
        <ele>1118.2</ele>
        <time>2026-06-26T06:45:06Z</time>
      </trkpt>
      <trkpt lat="46.06315" lon="6.76158">
        <ele>1118.3</ele>
        <time>2026-06-26T06:45:07Z</time>
      </trkpt>
      <trkpt lat="46.06316" lon="6.76159">
        <ele>1118.4</ele>
        <time>2026-06-26T06:45:08Z</time>
      </trkpt>
      <trkpt lat="46.06317" lon="6.76159">
        <ele>1118.6</ele>
        <time>2026-06-26T06:45:09Z</time>
      </trkpt>
      <trkpt lat="46.06318" lon="6.7616">
        <ele>1118.7</ele>
        <time>2026-06-26T06:45:10Z</time>
      </trkpt>
      <trkpt lat="46.06318" lon="6.7616">
        <ele>1118.8</ele>
        <time>2026-06-26T06:45:11Z</time>
      </trkpt>
      <trkpt lat="46.06318" lon="6.76159">
        <ele>1118.9</ele>
        <time>2026-06-26T06:45:12Z</time>
      </trkpt>
      <trkpt lat="46.06319" lon="6.76159">
        <ele>1119</ele>
        <time>2026-06-26T06:45:13Z</time>
      </trkpt>
      <trkpt lat="46.06319" lon="6.76159">
        <ele>1119.1</ele>
        <time>2026-06-26T06:45:14Z</time>
      </trkpt>
      <trkpt lat="46.06319" lon="6.76159">
        <ele>1119.2</ele>
        <time>2026-06-26T06:45:15Z</time>
      </trkpt>
      <trkpt lat="46.0632" lon="6.76159">
        <ele>1119.3</ele>
        <time>2026-06-26T06:45:16Z</time>
      </trkpt>
      <trkpt lat="46.0632" lon="6.76158">
        <ele>1119.5</ele>
        <time>2026-06-26T06:45:17Z</time>
      </trkpt>
      <trkpt lat="46.06321" lon="6.76158">
        <ele>1119.5</ele>
        <time>2026-06-26T06:45:18Z</time>
      </trkpt>
      <trkpt lat="46.06322" lon="6.76158">
        <ele>1119.6</ele>
        <time>2026-06-26T06:45:19Z</time>
      </trkpt>
      <trkpt lat="46.06322" lon="6.76157">
        <ele>1119.7</ele>
        <time>2026-06-26T06:45:20Z</time>
      </trkpt>
      <trkpt lat="46.06322" lon="6.76156">
        <ele>1119.9</ele>
        <time>2026-06-26T06:45:21Z</time>
      </trkpt>
      <trkpt lat="46.06323" lon="6.76157">
        <ele>1120</ele>
        <time>2026-06-26T06:45:22Z</time>
      </trkpt>
      <trkpt lat="46.06323" lon="6.76156">
        <ele>1120.1</ele>
        <time>2026-06-26T06:45:23Z</time>
      </trkpt>
      <trkpt lat="46.06324" lon="6.76156">
        <ele>1120.2</ele>
        <time>2026-06-26T06:45:24Z</time>
      </trkpt>
      <trkpt lat="46.06325" lon="6.76155">
        <ele>1120.2</ele>
        <time>2026-06-26T06:45:25Z</time>
      </trkpt>
      <trkpt lat="46.06325" lon="6.76155">
        <ele>1120.3</ele>
        <time>2026-06-26T06:45:26Z</time>
      </trkpt>
      <trkpt lat="46.06326" lon="6.76155">
        <ele>1120.4</ele>
        <time>2026-06-26T06:45:27Z</time>
      </trkpt>
      <trkpt lat="46.06327" lon="6.76155">
        <ele>1120.5</ele>
        <time>2026-06-26T06:45:28Z</time>
      </trkpt>
      <trkpt lat="46.06328" lon="6.76156">
        <ele>1120.5</ele>
        <time>2026-06-26T06:45:29Z</time>
      </trkpt>
      <trkpt lat="46.06328" lon="6.76155">
        <ele>1120.6</ele>
        <time>2026-06-26T06:45:30Z</time>
      </trkpt>
      <trkpt lat="46.06328" lon="6.76155">
        <ele>1120.7</ele>
        <time>2026-06-26T06:45:31Z</time>
      </trkpt>
      <trkpt lat="46.06329" lon="6.76155">
        <ele>1120.8</ele>
        <time>2026-06-26T06:45:32Z</time>
      </trkpt>
      <trkpt lat="46.06329" lon="6.76154">
        <ele>1120.9</ele>
        <time>2026-06-26T06:45:33Z</time>
      </trkpt>
      <trkpt lat="46.0633" lon="6.76155">
        <ele>1121.1</ele>
        <time>2026-06-26T06:45:34Z</time>
      </trkpt>
      <trkpt lat="46.06331" lon="6.76155">
        <ele>1121.3</ele>
        <time>2026-06-26T06:45:35Z</time>
      </trkpt>
      <trkpt lat="46.06331" lon="6.76155">
        <ele>1121.4</ele>
        <time>2026-06-26T06:45:36Z</time>
      </trkpt>
      <trkpt lat="46.06332" lon="6.76155">
        <ele>1121.5</ele>
        <time>2026-06-26T06:45:37Z</time>
      </trkpt>
      <trkpt lat="46.06333" lon="6.76155">
        <ele>1121.6</ele>
        <time>2026-06-26T06:45:38Z</time>
      </trkpt>
      <trkpt lat="46.06333" lon="6.76155">
        <ele>1121.8</ele>
        <time>2026-06-26T06:45:39Z</time>
      </trkpt>
      <trkpt lat="46.06334" lon="6.76155">
        <ele>1122.1</ele>
        <time>2026-06-26T06:45:40Z</time>
      </trkpt>
      <trkpt lat="46.06335" lon="6.76155">
        <ele>1122.2</ele>
        <time>2026-06-26T06:45:41Z</time>
      </trkpt>
      <trkpt lat="46.06335" lon="6.76155">
        <ele>1122.3</ele>
        <time>2026-06-26T06:45:42Z</time>
      </trkpt>
      <trkpt lat="46.06337" lon="6.76155">
        <ele>1122.4</ele>
        <time>2026-06-26T06:45:43Z</time>
      </trkpt>
      <trkpt lat="46.06338" lon="6.76155">
        <ele>1122.5</ele>
        <time>2026-06-26T06:45:44Z</time>
      </trkpt>
      <trkpt lat="46.06339" lon="6.76155">
        <ele>1122.6</ele>
        <time>2026-06-26T06:45:45Z</time>
      </trkpt>
      <trkpt lat="46.0634" lon="6.76156">
        <ele>1122.8</ele>
        <time>2026-06-26T06:45:46Z</time>
      </trkpt>
      <trkpt lat="46.06341" lon="6.76156">
        <ele>1122.9</ele>
        <time>2026-06-26T06:45:47Z</time>
      </trkpt>
      <trkpt lat="46.06342" lon="6.76155">
        <ele>1123</ele>
        <time>2026-06-26T06:45:48Z</time>
      </trkpt>
      <trkpt lat="46.06343" lon="6.76155">
        <ele>1123.1</ele>
        <time>2026-06-26T06:45:49Z</time>
      </trkpt>
      <trkpt lat="46.06343" lon="6.76155">
        <ele>1123.2</ele>
        <time>2026-06-26T06:45:50Z</time>
      </trkpt>
      <trkpt lat="46.06344" lon="6.76155">
        <ele>1123.3</ele>
        <time>2026-06-26T06:45:51Z</time>
      </trkpt>
      <trkpt lat="46.06345" lon="6.76154">
        <ele>1123.5</ele>
        <time>2026-06-26T06:45:52Z</time>
      </trkpt>
      <trkpt lat="46.06345" lon="6.76154">
        <ele>1123.6</ele>
        <time>2026-06-26T06:45:53Z</time>
      </trkpt>
      <trkpt lat="46.06346" lon="6.76155">
        <ele>1123.7</ele>
        <time>2026-06-26T06:45:54Z</time>
      </trkpt>
      <trkpt lat="46.06347" lon="6.76155">
        <ele>1123.8</ele>
        <time>2026-06-26T06:45:55Z</time>
      </trkpt>
      <trkpt lat="46.06348" lon="6.76155">
        <ele>1123.9</ele>
        <time>2026-06-26T06:45:56Z</time>
      </trkpt>
      <trkpt lat="46.0635" lon="6.76156">
        <ele>1124</ele>
        <time>2026-06-26T06:45:57Z</time>
      </trkpt>
      <trkpt lat="46.06352" lon="6.76156">
        <ele>1124</ele>
        <time>2026-06-26T06:45:58Z</time>
      </trkpt>
      <trkpt lat="46.06353" lon="6.76156">
        <ele>1124.1</ele>
        <time>2026-06-26T06:45:59Z</time>
      </trkpt>
      <trkpt lat="46.06353" lon="6.76155">
        <ele>1124.1</ele>
        <time>2026-06-26T06:46:00Z</time>
      </trkpt>
      <trkpt lat="46.06354" lon="6.76155">
        <ele>1124.3</ele>
        <time>2026-06-26T06:46:01Z</time>
      </trkpt>
      <trkpt lat="46.06354" lon="6.76155">
        <ele>1124.4</ele>
        <time>2026-06-26T06:46:02Z</time>
      </trkpt>
      <trkpt lat="46.06355" lon="6.76155">
        <ele>1124.5</ele>
        <time>2026-06-26T06:46:03Z</time>
      </trkpt>
      <trkpt lat="46.06356" lon="6.76155">
        <ele>1124.7</ele>
        <time>2026-06-26T06:46:04Z</time>
      </trkpt>
      <trkpt lat="46.06357" lon="6.76154">
        <ele>1124.8</ele>
        <time>2026-06-26T06:46:05Z</time>
      </trkpt>
      <trkpt lat="46.06358" lon="6.76154">
        <ele>1124.9</ele>
        <time>2026-06-26T06:46:06Z</time>
      </trkpt>
      <trkpt lat="46.06358" lon="6.76153">
        <ele>1125.1</ele>
        <time>2026-06-26T06:46:07Z</time>
      </trkpt>
      <trkpt lat="46.06359" lon="6.76154">
        <ele>1125.2</ele>
        <time>2026-06-26T06:46:08Z</time>
      </trkpt>
      <trkpt lat="46.0636" lon="6.76153">
        <ele>1125.4</ele>
        <time>2026-06-26T06:46:09Z</time>
      </trkpt>
      <trkpt lat="46.06361" lon="6.76153">
        <ele>1125.6</ele>
        <time>2026-06-26T06:46:10Z</time>
      </trkpt>
      <trkpt lat="46.06361" lon="6.76153">
        <ele>1125.8</ele>
        <time>2026-06-26T06:46:11Z</time>
      </trkpt>
      <trkpt lat="46.06362" lon="6.76153">
        <ele>1125.9</ele>
        <time>2026-06-26T06:46:12Z</time>
      </trkpt>
      <trkpt lat="46.06363" lon="6.76153">
        <ele>1126</ele>
        <time>2026-06-26T06:46:13Z</time>
      </trkpt>
      <trkpt lat="46.06364" lon="6.76153">
        <ele>1126.1</ele>
        <time>2026-06-26T06:46:14Z</time>
      </trkpt>
      <trkpt lat="46.06365" lon="6.76153">
        <ele>1126.2</ele>
        <time>2026-06-26T06:46:15Z</time>
      </trkpt>
      <trkpt lat="46.06366" lon="6.76153">
        <ele>1126.3</ele>
        <time>2026-06-26T06:46:16Z</time>
      </trkpt>
      <trkpt lat="46.06366" lon="6.76152">
        <ele>1126.5</ele>
        <time>2026-06-26T06:46:17Z</time>
      </trkpt>
      <trkpt lat="46.06367" lon="6.76152">
        <ele>1126.6</ele>
        <time>2026-06-26T06:46:18Z</time>
      </trkpt>
      <trkpt lat="46.06368" lon="6.76152">
        <ele>1126.8</ele>
        <time>2026-06-26T06:46:19Z</time>
      </trkpt>
      <trkpt lat="46.06368" lon="6.76151">
        <ele>1126.9</ele>
        <time>2026-06-26T06:46:20Z</time>
      </trkpt>
      <trkpt lat="46.06369" lon="6.76151">
        <ele>1126.9</ele>
        <time>2026-06-26T06:46:21Z</time>
      </trkpt>
      <trkpt lat="46.06371" lon="6.76153">
        <ele>1127</ele>
        <time>2026-06-26T06:46:22Z</time>
      </trkpt>
      <trkpt lat="46.06371" lon="6.76153">
        <ele>1127.1</ele>
        <time>2026-06-26T06:46:23Z</time>
      </trkpt>
      <trkpt lat="46.06372" lon="6.76152">
        <ele>1127.3</ele>
        <time>2026-06-26T06:46:24Z</time>
      </trkpt>
      <trkpt lat="46.06373" lon="6.76151">
        <ele>1127.4</ele>
        <time>2026-06-26T06:46:25Z</time>
      </trkpt>
      <trkpt lat="46.06374" lon="6.76151">
        <ele>1127.6</ele>
        <time>2026-06-26T06:46:26Z</time>
      </trkpt>
      <trkpt lat="46.06375" lon="6.76151">
        <ele>1127.7</ele>
        <time>2026-06-26T06:46:27Z</time>
      </trkpt>
      <trkpt lat="46.06375" lon="6.76151">
        <ele>1127.9</ele>
        <time>2026-06-26T06:46:28Z</time>
      </trkpt>
      <trkpt lat="46.06375" lon="6.7615">
        <ele>1128</ele>
        <time>2026-06-26T06:46:29Z</time>
      </trkpt>
      <trkpt lat="46.06376" lon="6.7615">
        <ele>1128.2</ele>
        <time>2026-06-26T06:46:30Z</time>
      </trkpt>
      <trkpt lat="46.06376" lon="6.7615">
        <ele>1128.3</ele>
        <time>2026-06-26T06:46:31Z</time>
      </trkpt>
      <trkpt lat="46.06377" lon="6.7615">
        <ele>1128.4</ele>
        <time>2026-06-26T06:46:32Z</time>
      </trkpt>
      <trkpt lat="46.06378" lon="6.76149">
        <ele>1128.6</ele>
        <time>2026-06-26T06:46:33Z</time>
      </trkpt>
      <trkpt lat="46.06379" lon="6.76149">
        <ele>1128.6</ele>
        <time>2026-06-26T06:46:34Z</time>
      </trkpt>
      <trkpt lat="46.0638" lon="6.76148">
        <ele>1128.8</ele>
        <time>2026-06-26T06:46:35Z</time>
      </trkpt>
      <trkpt lat="46.06381" lon="6.76148">
        <ele>1128.9</ele>
        <time>2026-06-26T06:46:36Z</time>
      </trkpt>
      <trkpt lat="46.06383" lon="6.7615">
        <ele>1129</ele>
        <time>2026-06-26T06:46:37Z</time>
      </trkpt>
      <trkpt lat="46.06384" lon="6.7615">
        <ele>1129.1</ele>
        <time>2026-06-26T06:46:38Z</time>
      </trkpt>
      <trkpt lat="46.06385" lon="6.76149">
        <ele>1129.2</ele>
        <time>2026-06-26T06:46:39Z</time>
      </trkpt>
      <trkpt lat="46.06386" lon="6.76148">
        <ele>1129.4</ele>
        <time>2026-06-26T06:46:40Z</time>
      </trkpt>
      <trkpt lat="46.06387" lon="6.76148">
        <ele>1129.6</ele>
        <time>2026-06-26T06:46:41Z</time>
      </trkpt>
      <trkpt lat="46.06387" lon="6.76147">
        <ele>1129.7</ele>
        <time>2026-06-26T06:46:42Z</time>
      </trkpt>
      <trkpt lat="46.06388" lon="6.76147">
        <ele>1129.9</ele>
        <time>2026-06-26T06:46:43Z</time>
      </trkpt>
      <trkpt lat="46.06388" lon="6.76146">
        <ele>1130.1</ele>
        <time>2026-06-26T06:46:44Z</time>
      </trkpt>
      <trkpt lat="46.06389" lon="6.76145">
        <ele>1130.2</ele>
        <time>2026-06-26T06:46:45Z</time>
      </trkpt>
      <trkpt lat="46.06389" lon="6.76144">
        <ele>1130.4</ele>
        <time>2026-06-26T06:46:46Z</time>
      </trkpt>
      <trkpt lat="46.0639" lon="6.76144">
        <ele>1130.4</ele>
        <time>2026-06-26T06:46:47Z</time>
      </trkpt>
      <trkpt lat="46.06391" lon="6.76144">
        <ele>1130.5</ele>
        <time>2026-06-26T06:46:48Z</time>
      </trkpt>
      <trkpt lat="46.06392" lon="6.76144">
        <ele>1130.7</ele>
        <time>2026-06-26T06:46:49Z</time>
      </trkpt>
      <trkpt lat="46.06393" lon="6.76145">
        <ele>1130.8</ele>
        <time>2026-06-26T06:46:50Z</time>
      </trkpt>
      <trkpt lat="46.06393" lon="6.76143">
        <ele>1130.9</ele>
        <time>2026-06-26T06:46:51Z</time>
      </trkpt>
      <trkpt lat="46.06394" lon="6.76143">
        <ele>1131.1</ele>
        <time>2026-06-26T06:46:52Z</time>
      </trkpt>
      <trkpt lat="46.06395" lon="6.76143">
        <ele>1131.2</ele>
        <time>2026-06-26T06:46:53Z</time>
      </trkpt>
      <trkpt lat="46.06396" lon="6.76144">
        <ele>1131.4</ele>
        <time>2026-06-26T06:46:54Z</time>
      </trkpt>
      <trkpt lat="46.06397" lon="6.76144">
        <ele>1131.5</ele>
        <time>2026-06-26T06:46:55Z</time>
      </trkpt>
      <trkpt lat="46.06398" lon="6.76145">
        <ele>1131.6</ele>
        <time>2026-06-26T06:46:56Z</time>
      </trkpt>
      <trkpt lat="46.064" lon="6.76146">
        <ele>1131.7</ele>
        <time>2026-06-26T06:46:57Z</time>
      </trkpt>
      <trkpt lat="46.06401" lon="6.76146">
        <ele>1131.9</ele>
        <time>2026-06-26T06:46:58Z</time>
      </trkpt>
      <trkpt lat="46.06402" lon="6.76146">
        <ele>1132.2</ele>
        <time>2026-06-26T06:46:59Z</time>
      </trkpt>
      <trkpt lat="46.06403" lon="6.76146">
        <ele>1132.4</ele>
        <time>2026-06-26T06:47:00Z</time>
      </trkpt>
      <trkpt lat="46.06404" lon="6.76147">
        <ele>1132.6</ele>
        <time>2026-06-26T06:47:01Z</time>
      </trkpt>
      <trkpt lat="46.06405" lon="6.76147">
        <ele>1132.7</ele>
        <time>2026-06-26T06:47:02Z</time>
      </trkpt>
      <trkpt lat="46.06407" lon="6.76147">
        <ele>1132.9</ele>
        <time>2026-06-26T06:47:03Z</time>
      </trkpt>
      <trkpt lat="46.06408" lon="6.76147">
        <ele>1133.1</ele>
        <time>2026-06-26T06:47:04Z</time>
      </trkpt>
      <trkpt lat="46.06408" lon="6.76146">
        <ele>1133.3</ele>
        <time>2026-06-26T06:47:05Z</time>
      </trkpt>
      <trkpt lat="46.06409" lon="6.76146">
        <ele>1133.4</ele>
        <time>2026-06-26T06:47:06Z</time>
      </trkpt>
      <trkpt lat="46.0641" lon="6.76146">
        <ele>1133.5</ele>
        <time>2026-06-26T06:47:07Z</time>
      </trkpt>
      <trkpt lat="46.06411" lon="6.76147">
        <ele>1133.7</ele>
        <time>2026-06-26T06:47:08Z</time>
      </trkpt>
      <trkpt lat="46.06412" lon="6.76146">
        <ele>1133.8</ele>
        <time>2026-06-26T06:47:09Z</time>
      </trkpt>
      <trkpt lat="46.06413" lon="6.76147">
        <ele>1133.9</ele>
        <time>2026-06-26T06:47:10Z</time>
      </trkpt>
      <trkpt lat="46.06413" lon="6.76147">
        <ele>1134.1</ele>
        <time>2026-06-26T06:47:11Z</time>
      </trkpt>
      <trkpt lat="46.06414" lon="6.76147">
        <ele>1134.4</ele>
        <time>2026-06-26T06:47:12Z</time>
      </trkpt>
      <trkpt lat="46.06415" lon="6.76147">
        <ele>1134.6</ele>
        <time>2026-06-26T06:47:13Z</time>
      </trkpt>
      <trkpt lat="46.06416" lon="6.76148">
        <ele>1134.6</ele>
        <time>2026-06-26T06:47:14Z</time>
      </trkpt>
      <trkpt lat="46.06416" lon="6.76147">
        <ele>1134.8</ele>
        <time>2026-06-26T06:47:15Z</time>
      </trkpt>
      <trkpt lat="46.06417" lon="6.76147">
        <ele>1135</ele>
        <time>2026-06-26T06:47:16Z</time>
      </trkpt>
      <trkpt lat="46.06417" lon="6.76147">
        <ele>1135</ele>
        <time>2026-06-26T06:47:17Z</time>
      </trkpt>
      <trkpt lat="46.06418" lon="6.76147">
        <ele>1135.1</ele>
        <time>2026-06-26T06:47:18Z</time>
      </trkpt>
      <trkpt lat="46.06418" lon="6.76148">
        <ele>1135.3</ele>
        <time>2026-06-26T06:47:19Z</time>
      </trkpt>
      <trkpt lat="46.06419" lon="6.76149">
        <ele>1135.3</ele>
        <time>2026-06-26T06:47:20Z</time>
      </trkpt>
      <trkpt lat="46.0642" lon="6.7615">
        <ele>1135.4</ele>
        <time>2026-06-26T06:47:21Z</time>
      </trkpt>
      <trkpt lat="46.0642" lon="6.7615">
        <ele>1135.5</ele>
        <time>2026-06-26T06:47:22Z</time>
      </trkpt>
      <trkpt lat="46.06421" lon="6.76151">
        <ele>1135.6</ele>
        <time>2026-06-26T06:47:23Z</time>
      </trkpt>
      <trkpt lat="46.06422" lon="6.76152">
        <ele>1135.6</ele>
        <time>2026-06-26T06:47:24Z</time>
      </trkpt>
      <trkpt lat="46.06423" lon="6.76152">
        <ele>1135.8</ele>
        <time>2026-06-26T06:47:25Z</time>
      </trkpt>
      <trkpt lat="46.06423" lon="6.76152">
        <ele>1136</ele>
        <time>2026-06-26T06:47:26Z</time>
      </trkpt>
      <trkpt lat="46.06424" lon="6.76152">
        <ele>1136.1</ele>
        <time>2026-06-26T06:47:27Z</time>
      </trkpt>
      <trkpt lat="46.06425" lon="6.76152">
        <ele>1136.2</ele>
        <time>2026-06-26T06:47:28Z</time>
      </trkpt>
      <trkpt lat="46.06426" lon="6.76152">
        <ele>1136.4</ele>
        <time>2026-06-26T06:47:29Z</time>
      </trkpt>
      <trkpt lat="46.06427" lon="6.76153">
        <ele>1136.5</ele>
        <time>2026-06-26T06:47:30Z</time>
      </trkpt>
      <trkpt lat="46.06427" lon="6.76153">
        <ele>1136.6</ele>
        <time>2026-06-26T06:47:31Z</time>
      </trkpt>
      <trkpt lat="46.06428" lon="6.76154">
        <ele>1136.8</ele>
        <time>2026-06-26T06:47:32Z</time>
      </trkpt>
      <trkpt lat="46.06428" lon="6.76155">
        <ele>1137</ele>
        <time>2026-06-26T06:47:33Z</time>
      </trkpt>
      <trkpt lat="46.0643" lon="6.76156">
        <ele>1137.1</ele>
        <time>2026-06-26T06:47:34Z</time>
      </trkpt>
      <trkpt lat="46.0643" lon="6.76156">
        <ele>1137.2</ele>
        <time>2026-06-26T06:47:35Z</time>
      </trkpt>
      <trkpt lat="46.0643" lon="6.76155">
        <ele>1137.2</ele>
        <time>2026-06-26T06:47:36Z</time>
      </trkpt>
      <trkpt lat="46.06432" lon="6.76155">
        <ele>1137.3</ele>
        <time>2026-06-26T06:47:37Z</time>
      </trkpt>
      <trkpt lat="46.06432" lon="6.76155">
        <ele>1137.3</ele>
        <time>2026-06-26T06:47:38Z</time>
      </trkpt>
      <trkpt lat="46.06433" lon="6.76155">
        <ele>1137.3</ele>
        <time>2026-06-26T06:47:39Z</time>
      </trkpt>
      <trkpt lat="46.06434" lon="6.76157">
        <ele>1137.4</ele>
        <time>2026-06-26T06:47:40Z</time>
      </trkpt>
      <trkpt lat="46.06435" lon="6.76158">
        <ele>1137.6</ele>
        <time>2026-06-26T06:47:41Z</time>
      </trkpt>
      <trkpt lat="46.06436" lon="6.76158">
        <ele>1137.7</ele>
        <time>2026-06-26T06:47:42Z</time>
      </trkpt>
      <trkpt lat="46.06438" lon="6.76159">
        <ele>1137.8</ele>
        <time>2026-06-26T06:47:43Z</time>
      </trkpt>
      <trkpt lat="46.06439" lon="6.76159">
        <ele>1137.9</ele>
        <time>2026-06-26T06:47:44Z</time>
      </trkpt>
      <trkpt lat="46.06439" lon="6.76159">
        <ele>1138</ele>
        <time>2026-06-26T06:47:45Z</time>
      </trkpt>
      <trkpt lat="46.0644" lon="6.7616">
        <ele>1138</ele>
        <time>2026-06-26T06:47:46Z</time>
      </trkpt>
      <trkpt lat="46.06441" lon="6.7616">
        <ele>1138.1</ele>
        <time>2026-06-26T06:47:47Z</time>
      </trkpt>
      <trkpt lat="46.06442" lon="6.7616">
        <ele>1138.2</ele>
        <time>2026-06-26T06:47:48Z</time>
      </trkpt>
      <trkpt lat="46.06443" lon="6.7616">
        <ele>1138.3</ele>
        <time>2026-06-26T06:47:49Z</time>
      </trkpt>
      <trkpt lat="46.06444" lon="6.7616">
        <ele>1138.4</ele>
        <time>2026-06-26T06:47:50Z</time>
      </trkpt>
      <trkpt lat="46.06445" lon="6.76162">
        <ele>1138.5</ele>
        <time>2026-06-26T06:47:51Z</time>
      </trkpt>
      <trkpt lat="46.06446" lon="6.76161">
        <ele>1138.5</ele>
        <time>2026-06-26T06:47:52Z</time>
      </trkpt>
      <trkpt lat="46.06448" lon="6.76162">
        <ele>1138.6</ele>
        <time>2026-06-26T06:47:53Z</time>
      </trkpt>
      <trkpt lat="46.06449" lon="6.76162">
        <ele>1138.7</ele>
        <time>2026-06-26T06:47:54Z</time>
      </trkpt>
      <trkpt lat="46.0645" lon="6.76161">
        <ele>1138.8</ele>
        <time>2026-06-26T06:47:55Z</time>
      </trkpt>
      <trkpt lat="46.0645" lon="6.76161">
        <ele>1138.9</ele>
        <time>2026-06-26T06:47:56Z</time>
      </trkpt>
      <trkpt lat="46.06451" lon="6.76161">
        <ele>1139</ele>
        <time>2026-06-26T06:47:57Z</time>
      </trkpt>
      <trkpt lat="46.06452" lon="6.76161">
        <ele>1139.2</ele>
        <time>2026-06-26T06:47:58Z</time>
      </trkpt>
      <trkpt lat="46.06453" lon="6.76161">
        <ele>1139.4</ele>
        <time>2026-06-26T06:47:59Z</time>
      </trkpt>
      <trkpt lat="46.06454" lon="6.76161">
        <ele>1139.6</ele>
        <time>2026-06-26T06:48:00Z</time>
      </trkpt>
      <trkpt lat="46.06455" lon="6.76161">
        <ele>1139.7</ele>
        <time>2026-06-26T06:48:01Z</time>
      </trkpt>
      <trkpt lat="46.06456" lon="6.7616">
        <ele>1139.8</ele>
        <time>2026-06-26T06:48:02Z</time>
      </trkpt>
      <trkpt lat="46.06456" lon="6.76159">
        <ele>1139.9</ele>
        <time>2026-06-26T06:48:03Z</time>
      </trkpt>
      <trkpt lat="46.06457" lon="6.76158">
        <ele>1139.9</ele>
        <time>2026-06-26T06:48:04Z</time>
      </trkpt>
      <trkpt lat="46.06457" lon="6.76158">
        <ele>1140</ele>
        <time>2026-06-26T06:48:05Z</time>
      </trkpt>
      <trkpt lat="46.06457" lon="6.76157">
        <ele>1140</ele>
        <time>2026-06-26T06:48:06Z</time>
      </trkpt>
      <trkpt lat="46.06457" lon="6.76157">
        <ele>1140</ele>
        <time>2026-06-26T06:48:07Z</time>
      </trkpt>
      <trkpt lat="46.06458" lon="6.76157">
        <ele>1140.1</ele>
        <time>2026-06-26T06:48:08Z</time>
      </trkpt>
      <trkpt lat="46.06458" lon="6.76156">
        <ele>1140.2</ele>
        <time>2026-06-26T06:48:09Z</time>
      </trkpt>
      <trkpt lat="46.06458" lon="6.76156">
        <ele>1140.3</ele>
        <time>2026-06-26T06:48:10Z</time>
      </trkpt>
      <trkpt lat="46.06459" lon="6.76156">
        <ele>1140.3</ele>
        <time>2026-06-26T06:48:11Z</time>
      </trkpt>
      <trkpt lat="46.06459" lon="6.76155">
        <ele>1140.3</ele>
        <time>2026-06-26T06:48:12Z</time>
      </trkpt>
      <trkpt lat="46.06459" lon="6.76155">
        <ele>1140.2</ele>
        <time>2026-06-26T06:48:13Z</time>
      </trkpt>
      <trkpt lat="46.06459" lon="6.76155">
        <ele>1140.2</ele>
        <time>2026-06-26T06:48:14Z</time>
      </trkpt>
      <trkpt lat="46.06459" lon="6.76155">
        <ele>1140.2</ele>
        <time>2026-06-26T06:48:15Z</time>
      </trkpt>
      <trkpt lat="46.06459" lon="6.76154">
        <ele>1140.2</ele>
        <time>2026-06-26T06:48:16Z</time>
      </trkpt>
      <trkpt lat="46.06459" lon="6.76154">
        <ele>1140.1</ele>
        <time>2026-06-26T06:48:17Z</time>
      </trkpt>
      <trkpt lat="46.06459" lon="6.76154">
        <ele>1140.1</ele>
        <time>2026-06-26T06:48:18Z</time>
      </trkpt>
      <trkpt lat="46.0646" lon="6.76154">
        <ele>1140.1</ele>
        <time>2026-06-26T06:48:19Z</time>
      </trkpt>
      <trkpt lat="46.0646" lon="6.76154">
        <ele>1140.1</ele>
        <time>2026-06-26T06:48:20Z</time>
      </trkpt>
      <trkpt lat="46.0646" lon="6.76153">
        <ele>1140.1</ele>
        <time>2026-06-26T06:48:21Z</time>
      </trkpt>
      <trkpt lat="46.0646" lon="6.76153">
        <ele>1140.2</ele>
        <time>2026-06-26T06:48:22Z</time>
      </trkpt>
      <trkpt lat="46.0646" lon="6.76153">
        <ele>1140.1</ele>
        <time>2026-06-26T06:48:23Z</time>
      </trkpt>
      <trkpt lat="46.0646" lon="6.76153">
        <ele>1140.1</ele>
        <time>2026-06-26T06:48:24Z</time>
      </trkpt>
      <trkpt lat="46.0646" lon="6.76152">
        <ele>1140.1</ele>
        <time>2026-06-26T06:48:25Z</time>
      </trkpt>
      <trkpt lat="46.0646" lon="6.76152">
        <ele>1140.1</ele>
        <time>2026-06-26T06:48:26Z</time>
      </trkpt>
      <trkpt lat="46.0646" lon="6.76152">
        <ele>1140.1</ele>
        <time>2026-06-26T06:48:27Z</time>
      </trkpt>
      <trkpt lat="46.0646" lon="6.76152">
        <ele>1140.1</ele>
        <time>2026-06-26T06:48:28Z</time>
      </trkpt>
      <trkpt lat="46.0646" lon="6.76152">
        <ele>1140.2</ele>
        <time>2026-06-26T06:48:29Z</time>
      </trkpt>
      <trkpt lat="46.0646" lon="6.76151">
        <ele>1140.1</ele>
        <time>2026-06-26T06:48:30Z</time>
      </trkpt>
      <trkpt lat="46.0646" lon="6.7615">
        <ele>1140.2</ele>
        <time>2026-06-26T06:48:31Z</time>
      </trkpt>
      <trkpt lat="46.0646" lon="6.7615">
        <ele>1140.3</ele>
        <time>2026-06-26T06:48:32Z</time>
      </trkpt>
      <trkpt lat="46.0646" lon="6.7615">
        <ele>1140.3</ele>
        <time>2026-06-26T06:48:33Z</time>
      </trkpt>
      <trkpt lat="46.0646" lon="6.7615">
        <ele>1140.4</ele>
        <time>2026-06-26T06:48:34Z</time>
      </trkpt>
      <trkpt lat="46.0646" lon="6.76149">
        <ele>1140.5</ele>
        <time>2026-06-26T06:48:35Z</time>
      </trkpt>
      <trkpt lat="46.0646" lon="6.76149">
        <ele>1140.5</ele>
        <time>2026-06-26T06:48:36Z</time>
      </trkpt>
      <trkpt lat="46.0646" lon="6.76149">
        <ele>1140.5</ele>
        <time>2026-06-26T06:48:37Z</time>
      </trkpt>
      <trkpt lat="46.0646" lon="6.7615">
        <ele>1140.4</ele>
        <time>2026-06-26T06:48:38Z</time>
      </trkpt>
      <trkpt lat="46.0646" lon="6.7615">
        <ele>1140.4</ele>
        <time>2026-06-26T06:48:39Z</time>
      </trkpt>
      <trkpt lat="46.06459" lon="6.7615">
        <ele>1140.4</ele>
        <time>2026-06-26T06:48:40Z</time>
      </trkpt>
      <trkpt lat="46.06459" lon="6.7615">
        <ele>1140.4</ele>
        <time>2026-06-26T06:48:41Z</time>
      </trkpt>
      <trkpt lat="46.06459" lon="6.7615">
        <ele>1140.4</ele>
        <time>2026-06-26T06:48:42Z</time>
      </trkpt>
      <trkpt lat="46.06459" lon="6.76151">
        <ele>1140.4</ele>
        <time>2026-06-26T06:48:43Z</time>
      </trkpt>
      <trkpt lat="46.06459" lon="6.76151">
        <ele>1140.4</ele>
        <time>2026-06-26T06:48:44Z</time>
      </trkpt>
      <trkpt lat="46.06458" lon="6.7615">
        <ele>1140.4</ele>
        <time>2026-06-26T06:48:45Z</time>
      </trkpt>
      <trkpt lat="46.06458" lon="6.7615">
        <ele>1140.5</ele>
        <time>2026-06-26T06:48:46Z</time>
      </trkpt>
      <trkpt lat="46.06458" lon="6.7615">
        <ele>1140.5</ele>
        <time>2026-06-26T06:48:47Z</time>
      </trkpt>
      <trkpt lat="46.06458" lon="6.76149">
        <ele>1140.6</ele>
        <time>2026-06-26T06:48:48Z</time>
      </trkpt>
      <trkpt lat="46.06458" lon="6.7615">
        <ele>1140.6</ele>
        <time>2026-06-26T06:48:49Z</time>
      </trkpt>
      <trkpt lat="46.06458" lon="6.7615">
        <ele>1140.6</ele>
        <time>2026-06-26T06:48:50Z</time>
      </trkpt>
      <trkpt lat="46.06459" lon="6.7615">
        <ele>1140.6</ele>
        <time>2026-06-26T06:48:51Z</time>
      </trkpt>
      <trkpt lat="46.0646" lon="6.7615">
        <ele>1140.7</ele>
        <time>2026-06-26T06:48:52Z</time>
      </trkpt>
      <trkpt lat="46.0646" lon="6.76149">
        <ele>1140.7</ele>
        <time>2026-06-26T06:48:53Z</time>
      </trkpt>
      <trkpt lat="46.06461" lon="6.76149">
        <ele>1140.8</ele>
        <time>2026-06-26T06:48:54Z</time>
      </trkpt>
      <trkpt lat="46.06463" lon="6.7615">
        <ele>1140.8</ele>
        <time>2026-06-26T06:48:55Z</time>
      </trkpt>
      <trkpt lat="46.06463" lon="6.7615">
        <ele>1140.9</ele>
        <time>2026-06-26T06:48:56Z</time>
      </trkpt>
      <trkpt lat="46.06464" lon="6.7615">
        <ele>1141</ele>
        <time>2026-06-26T06:48:57Z</time>
      </trkpt>
      <trkpt lat="46.06465" lon="6.7615">
        <ele>1141.2</ele>
        <time>2026-06-26T06:48:58Z</time>
      </trkpt>
      <trkpt lat="46.06465" lon="6.76149">
        <ele>1141.2</ele>
        <time>2026-06-26T06:48:59Z</time>
      </trkpt>
      <trkpt lat="46.06466" lon="6.76148">
        <ele>1141.3</ele>
        <time>2026-06-26T06:49:00Z</time>
      </trkpt>
      <trkpt lat="46.06467" lon="6.76148">
        <ele>1141.3</ele>
        <time>2026-06-26T06:49:01Z</time>
      </trkpt>
      <trkpt lat="46.06468" lon="6.76148">
        <ele>1141.5</ele>
        <time>2026-06-26T06:49:02Z</time>
      </trkpt>
      <trkpt lat="46.06469" lon="6.76147">
        <ele>1141.6</ele>
        <time>2026-06-26T06:49:03Z</time>
      </trkpt>
      <trkpt lat="46.0647" lon="6.76147">
        <ele>1141.9</ele>
        <time>2026-06-26T06:49:04Z</time>
      </trkpt>
      <trkpt lat="46.06471" lon="6.76146">
        <ele>1142.1</ele>
        <time>2026-06-26T06:49:05Z</time>
      </trkpt>
      <trkpt lat="46.06471" lon="6.76145">
        <ele>1142.2</ele>
        <time>2026-06-26T06:49:06Z</time>
      </trkpt>
      <trkpt lat="46.06472" lon="6.76145">
        <ele>1142.2</ele>
        <time>2026-06-26T06:49:07Z</time>
      </trkpt>
      <trkpt lat="46.06473" lon="6.76145">
        <ele>1142.3</ele>
        <time>2026-06-26T06:49:08Z</time>
      </trkpt>
      <trkpt lat="46.06474" lon="6.76144">
        <ele>1142.4</ele>
        <time>2026-06-26T06:49:09Z</time>
      </trkpt>
      <trkpt lat="46.06475" lon="6.76144">
        <ele>1142.6</ele>
        <time>2026-06-26T06:49:10Z</time>
      </trkpt>
      <trkpt lat="46.06475" lon="6.76144">
        <ele>1142.7</ele>
        <time>2026-06-26T06:49:11Z</time>
      </trkpt>
      <trkpt lat="46.06476" lon="6.76143">
        <ele>1142.8</ele>
        <time>2026-06-26T06:49:12Z</time>
      </trkpt>
      <trkpt lat="46.06477" lon="6.76143">
        <ele>1142.9</ele>
        <time>2026-06-26T06:49:13Z</time>
      </trkpt>
      <trkpt lat="46.06478" lon="6.76142">
        <ele>1143</ele>
        <time>2026-06-26T06:49:14Z</time>
      </trkpt>
      <trkpt lat="46.06478" lon="6.76141">
        <ele>1143.2</ele>
        <time>2026-06-26T06:49:15Z</time>
      </trkpt>
      <trkpt lat="46.06479" lon="6.7614">
        <ele>1143.4</ele>
        <time>2026-06-26T06:49:16Z</time>
      </trkpt>
      <trkpt lat="46.0648" lon="6.7614">
        <ele>1143.6</ele>
        <time>2026-06-26T06:49:17Z</time>
      </trkpt>
      <trkpt lat="46.0648" lon="6.76139">
        <ele>1143.8</ele>
        <time>2026-06-26T06:49:18Z</time>
      </trkpt>
      <trkpt lat="46.06481" lon="6.76139">
        <ele>1143.9</ele>
        <time>2026-06-26T06:49:19Z</time>
      </trkpt>
      <trkpt lat="46.06482" lon="6.76138">
        <ele>1144</ele>
        <time>2026-06-26T06:49:20Z</time>
      </trkpt>
      <trkpt lat="46.06482" lon="6.76137">
        <ele>1144.2</ele>
        <time>2026-06-26T06:49:21Z</time>
      </trkpt>
      <trkpt lat="46.06483" lon="6.76137">
        <ele>1144.3</ele>
        <time>2026-06-26T06:49:22Z</time>
      </trkpt>
      <trkpt lat="46.06484" lon="6.76136">
        <ele>1144.5</ele>
        <time>2026-06-26T06:49:23Z</time>
      </trkpt>
      <trkpt lat="46.06484" lon="6.76135">
        <ele>1144.6</ele>
        <time>2026-06-26T06:49:24Z</time>
      </trkpt>
      <trkpt lat="46.06485" lon="6.76134">
        <ele>1144.6</ele>
        <time>2026-06-26T06:49:25Z</time>
      </trkpt>
      <trkpt lat="46.06486" lon="6.76134">
        <ele>1144.7</ele>
        <time>2026-06-26T06:49:26Z</time>
      </trkpt>
      <trkpt lat="46.06487" lon="6.76134">
        <ele>1144.8</ele>
        <time>2026-06-26T06:49:27Z</time>
      </trkpt>
      <trkpt lat="46.06488" lon="6.76133">
        <ele>1144.9</ele>
        <time>2026-06-26T06:49:28Z</time>
      </trkpt>
      <trkpt lat="46.06489" lon="6.76132">
        <ele>1145.1</ele>
        <time>2026-06-26T06:49:29Z</time>
      </trkpt>
      <trkpt lat="46.0649" lon="6.76132">
        <ele>1145.3</ele>
        <time>2026-06-26T06:49:30Z</time>
      </trkpt>
      <trkpt lat="46.06491" lon="6.76131">
        <ele>1145.3</ele>
        <time>2026-06-26T06:49:31Z</time>
      </trkpt>
      <trkpt lat="46.06491" lon="6.76131">
        <ele>1145.5</ele>
        <time>2026-06-26T06:49:32Z</time>
      </trkpt>
      <trkpt lat="46.06491" lon="6.76129">
        <ele>1145.6</ele>
        <time>2026-06-26T06:49:33Z</time>
      </trkpt>
      <trkpt lat="46.06492" lon="6.76129">
        <ele>1145.8</ele>
        <time>2026-06-26T06:49:34Z</time>
      </trkpt>
      <trkpt lat="46.06492" lon="6.76128">
        <ele>1146.1</ele>
        <time>2026-06-26T06:49:35Z</time>
      </trkpt>
      <trkpt lat="46.06493" lon="6.76127">
        <ele>1146.3</ele>
        <time>2026-06-26T06:49:36Z</time>
      </trkpt>
      <trkpt lat="46.06494" lon="6.76127">
        <ele>1146.5</ele>
        <time>2026-06-26T06:49:37Z</time>
      </trkpt>
      <trkpt lat="46.06495" lon="6.76126">
        <ele>1146.6</ele>
        <time>2026-06-26T06:49:38Z</time>
      </trkpt>
      <trkpt lat="46.06495" lon="6.76125">
        <ele>1146.7</ele>
        <time>2026-06-26T06:49:39Z</time>
      </trkpt>
      <trkpt lat="46.06495" lon="6.76125">
        <ele>1146.9</ele>
        <time>2026-06-26T06:49:40Z</time>
      </trkpt>
      <trkpt lat="46.06496" lon="6.76124">
        <ele>1147.1</ele>
        <time>2026-06-26T06:49:41Z</time>
      </trkpt>
      <trkpt lat="46.06497" lon="6.76124">
        <ele>1147.3</ele>
        <time>2026-06-26T06:49:42Z</time>
      </trkpt>
      <trkpt lat="46.06498" lon="6.76124">
        <ele>1147.5</ele>
        <time>2026-06-26T06:49:43Z</time>
      </trkpt>
      <trkpt lat="46.06499" lon="6.76123">
        <ele>1147.6</ele>
        <time>2026-06-26T06:49:44Z</time>
      </trkpt>
      <trkpt lat="46.06499" lon="6.76123">
        <ele>1147.7</ele>
        <time>2026-06-26T06:49:45Z</time>
      </trkpt>
      <trkpt lat="46.065" lon="6.76122">
        <ele>1147.9</ele>
        <time>2026-06-26T06:49:46Z</time>
      </trkpt>
      <trkpt lat="46.06501" lon="6.76121">
        <ele>1148.1</ele>
        <time>2026-06-26T06:49:47Z</time>
      </trkpt>
      <trkpt lat="46.06502" lon="6.76121">
        <ele>1148.2</ele>
        <time>2026-06-26T06:49:48Z</time>
      </trkpt>
      <trkpt lat="46.06502" lon="6.7612">
        <ele>1148.4</ele>
        <time>2026-06-26T06:49:49Z</time>
      </trkpt>
      <trkpt lat="46.06503" lon="6.76119">
        <ele>1148.5</ele>
        <time>2026-06-26T06:49:50Z</time>
      </trkpt>
      <trkpt lat="46.06504" lon="6.76119">
        <ele>1148.5</ele>
        <time>2026-06-26T06:49:51Z</time>
      </trkpt>
      <trkpt lat="46.06505" lon="6.76118">
        <ele>1148.6</ele>
        <time>2026-06-26T06:49:52Z</time>
      </trkpt>
      <trkpt lat="46.06506" lon="6.76118">
        <ele>1148.7</ele>
        <time>2026-06-26T06:49:53Z</time>
      </trkpt>
      <trkpt lat="46.06506" lon="6.76117">
        <ele>1148.9</ele>
        <time>2026-06-26T06:49:54Z</time>
      </trkpt>
      <trkpt lat="46.06507" lon="6.76116">
        <ele>1149.1</ele>
        <time>2026-06-26T06:49:55Z</time>
      </trkpt>
      <trkpt lat="46.06507" lon="6.76115">
        <ele>1149.2</ele>
        <time>2026-06-26T06:49:56Z</time>
      </trkpt>
      <trkpt lat="46.06508" lon="6.76114">
        <ele>1149.3</ele>
        <time>2026-06-26T06:49:57Z</time>
      </trkpt>
      <trkpt lat="46.06509" lon="6.76113">
        <ele>1149.5</ele>
        <time>2026-06-26T06:49:58Z</time>
      </trkpt>
      <trkpt lat="46.0651" lon="6.76113">
        <ele>1149.6</ele>
        <time>2026-06-26T06:49:59Z</time>
      </trkpt>
      <trkpt lat="46.0651" lon="6.76112">
        <ele>1149.9</ele>
        <time>2026-06-26T06:50:00Z</time>
      </trkpt>
      <trkpt lat="46.06512" lon="6.76114">
        <ele>1150.1</ele>
        <time>2026-06-26T06:50:01Z</time>
      </trkpt>
      <trkpt lat="46.06513" lon="6.76113">
        <ele>1150.1</ele>
        <time>2026-06-26T06:50:02Z</time>
      </trkpt>
      <trkpt lat="46.06513" lon="6.76112">
        <ele>1150.3</ele>
        <time>2026-06-26T06:50:03Z</time>
      </trkpt>
      <trkpt lat="46.06514" lon="6.76112">
        <ele>1150.5</ele>
        <time>2026-06-26T06:50:04Z</time>
      </trkpt>
      <trkpt lat="46.06515" lon="6.76112">
        <ele>1150.6</ele>
        <time>2026-06-26T06:50:05Z</time>
      </trkpt>
      <trkpt lat="46.06515" lon="6.76112">
        <ele>1150.8</ele>
        <time>2026-06-26T06:50:06Z</time>
      </trkpt>
      <trkpt lat="46.06516" lon="6.76111">
        <ele>1150.9</ele>
        <time>2026-06-26T06:50:07Z</time>
      </trkpt>
      <trkpt lat="46.06517" lon="6.76112">
        <ele>1151</ele>
        <time>2026-06-26T06:50:08Z</time>
      </trkpt>
      <trkpt lat="46.06517" lon="6.76111">
        <ele>1151.1</ele>
        <time>2026-06-26T06:50:09Z</time>
      </trkpt>
      <trkpt lat="46.06518" lon="6.76111">
        <ele>1151.1</ele>
        <time>2026-06-26T06:50:10Z</time>
      </trkpt>
      <trkpt lat="46.0652" lon="6.76111">
        <ele>1151.2</ele>
        <time>2026-06-26T06:50:11Z</time>
      </trkpt>
      <trkpt lat="46.06521" lon="6.76111">
        <ele>1151.3</ele>
        <time>2026-06-26T06:50:12Z</time>
      </trkpt>
      <trkpt lat="46.06522" lon="6.76111">
        <ele>1151.4</ele>
        <time>2026-06-26T06:50:13Z</time>
      </trkpt>
      <trkpt lat="46.06523" lon="6.76111">
        <ele>1151.5</ele>
        <time>2026-06-26T06:50:14Z</time>
      </trkpt>
      <trkpt lat="46.06524" lon="6.7611">
        <ele>1151.6</ele>
        <time>2026-06-26T06:50:15Z</time>
      </trkpt>
      <trkpt lat="46.06525" lon="6.7611">
        <ele>1151.7</ele>
        <time>2026-06-26T06:50:16Z</time>
      </trkpt>
      <trkpt lat="46.06526" lon="6.76109">
        <ele>1151.8</ele>
        <time>2026-06-26T06:50:17Z</time>
      </trkpt>
      <trkpt lat="46.06526" lon="6.76109">
        <ele>1152</ele>
        <time>2026-06-26T06:50:18Z</time>
      </trkpt>
      <trkpt lat="46.06526" lon="6.76108">
        <ele>1152.1</ele>
        <time>2026-06-26T06:50:19Z</time>
      </trkpt>
      <trkpt lat="46.06527" lon="6.76108">
        <ele>1152.1</ele>
        <time>2026-06-26T06:50:20Z</time>
      </trkpt>
      <trkpt lat="46.06528" lon="6.76107">
        <ele>1152.2</ele>
        <time>2026-06-26T06:50:21Z</time>
      </trkpt>
      <trkpt lat="46.06528" lon="6.76107">
        <ele>1152.3</ele>
        <time>2026-06-26T06:50:22Z</time>
      </trkpt>
      <trkpt lat="46.06529" lon="6.76106">
        <ele>1152.4</ele>
        <time>2026-06-26T06:50:23Z</time>
      </trkpt>
      <trkpt lat="46.06529" lon="6.76106">
        <ele>1152.6</ele>
        <time>2026-06-26T06:50:24Z</time>
      </trkpt>
      <trkpt lat="46.0653" lon="6.76106">
        <ele>1152.8</ele>
        <time>2026-06-26T06:50:25Z</time>
      </trkpt>
      <trkpt lat="46.0653" lon="6.76104">
        <ele>1153</ele>
        <time>2026-06-26T06:50:26Z</time>
      </trkpt>
      <trkpt lat="46.06531" lon="6.76104">
        <ele>1153.2</ele>
        <time>2026-06-26T06:50:27Z</time>
      </trkpt>
      <trkpt lat="46.06532" lon="6.76103">
        <ele>1153.4</ele>
        <time>2026-06-26T06:50:28Z</time>
      </trkpt>
      <trkpt lat="46.06533" lon="6.76103">
        <ele>1153.5</ele>
        <time>2026-06-26T06:50:29Z</time>
      </trkpt>
      <trkpt lat="46.06534" lon="6.76103">
        <ele>1153.7</ele>
        <time>2026-06-26T06:50:30Z</time>
      </trkpt>
      <trkpt lat="46.06535" lon="6.76102">
        <ele>1153.8</ele>
        <time>2026-06-26T06:50:31Z</time>
      </trkpt>
      <trkpt lat="46.06536" lon="6.76101">
        <ele>1154</ele>
        <time>2026-06-26T06:50:32Z</time>
      </trkpt>
      <trkpt lat="46.06537" lon="6.76101">
        <ele>1154.1</ele>
        <time>2026-06-26T06:50:33Z</time>
      </trkpt>
      <trkpt lat="46.06537" lon="6.761">
        <ele>1154.2</ele>
        <time>2026-06-26T06:50:34Z</time>
      </trkpt>
      <trkpt lat="46.06538" lon="6.76099">
        <ele>1154.4</ele>
        <time>2026-06-26T06:50:35Z</time>
      </trkpt>
      <trkpt lat="46.06538" lon="6.76098">
        <ele>1154.5</ele>
        <time>2026-06-26T06:50:36Z</time>
      </trkpt>
      <trkpt lat="46.06539" lon="6.76097">
        <ele>1154.6</ele>
        <time>2026-06-26T06:50:37Z</time>
      </trkpt>
      <trkpt lat="46.06539" lon="6.76095">
        <ele>1154.7</ele>
        <time>2026-06-26T06:50:38Z</time>
      </trkpt>
      <trkpt lat="46.0654" lon="6.76095">
        <ele>1154.8</ele>
        <time>2026-06-26T06:50:39Z</time>
      </trkpt>
      <trkpt lat="46.06541" lon="6.76094">
        <ele>1154.9</ele>
        <time>2026-06-26T06:50:40Z</time>
      </trkpt>
      <trkpt lat="46.06542" lon="6.76093">
        <ele>1155</ele>
        <time>2026-06-26T06:50:41Z</time>
      </trkpt>
      <trkpt lat="46.06543" lon="6.76093">
        <ele>1155.1</ele>
        <time>2026-06-26T06:50:42Z</time>
      </trkpt>
      <trkpt lat="46.06544" lon="6.76093">
        <ele>1155.2</ele>
        <time>2026-06-26T06:50:43Z</time>
      </trkpt>
      <trkpt lat="46.06544" lon="6.76092">
        <ele>1155.3</ele>
        <time>2026-06-26T06:50:44Z</time>
      </trkpt>
      <trkpt lat="46.06545" lon="6.76092">
        <ele>1155.4</ele>
        <time>2026-06-26T06:50:45Z</time>
      </trkpt>
      <trkpt lat="46.06546" lon="6.76091">
        <ele>1155.5</ele>
        <time>2026-06-26T06:50:46Z</time>
      </trkpt>
      <trkpt lat="46.06547" lon="6.76091">
        <ele>1155.6</ele>
        <time>2026-06-26T06:50:47Z</time>
      </trkpt>
      <trkpt lat="46.06548" lon="6.76091">
        <ele>1155.7</ele>
        <time>2026-06-26T06:50:48Z</time>
      </trkpt>
      <trkpt lat="46.06548" lon="6.76091">
        <ele>1155.9</ele>
        <time>2026-06-26T06:50:49Z</time>
      </trkpt>
      <trkpt lat="46.06549" lon="6.76091">
        <ele>1156.1</ele>
        <time>2026-06-26T06:50:50Z</time>
      </trkpt>
      <trkpt lat="46.0655" lon="6.76091">
        <ele>1156.1</ele>
        <time>2026-06-26T06:50:51Z</time>
      </trkpt>
      <trkpt lat="46.0655" lon="6.76091">
        <ele>1156.2</ele>
        <time>2026-06-26T06:50:52Z</time>
      </trkpt>
      <trkpt lat="46.06551" lon="6.7609">
        <ele>1156.3</ele>
        <time>2026-06-26T06:50:53Z</time>
      </trkpt>
      <trkpt lat="46.06552" lon="6.7609">
        <ele>1156.4</ele>
        <time>2026-06-26T06:50:54Z</time>
      </trkpt>
      <trkpt lat="46.06553" lon="6.76091">
        <ele>1156.6</ele>
        <time>2026-06-26T06:50:55Z</time>
      </trkpt>
      <trkpt lat="46.06554" lon="6.76091">
        <ele>1156.7</ele>
        <time>2026-06-26T06:50:56Z</time>
      </trkpt>
      <trkpt lat="46.06554" lon="6.76091">
        <ele>1156.9</ele>
        <time>2026-06-26T06:50:57Z</time>
      </trkpt>
      <trkpt lat="46.06555" lon="6.76092">
        <ele>1156.9</ele>
        <time>2026-06-26T06:50:58Z</time>
      </trkpt>
      <trkpt lat="46.06557" lon="6.76091">
        <ele>1157.1</ele>
        <time>2026-06-26T06:50:59Z</time>
      </trkpt>
      <trkpt lat="46.06557" lon="6.76091">
        <ele>1157.2</ele>
        <time>2026-06-26T06:51:00Z</time>
      </trkpt>
      <trkpt lat="46.06558" lon="6.76091">
        <ele>1157.3</ele>
        <time>2026-06-26T06:51:01Z</time>
      </trkpt>
      <trkpt lat="46.06559" lon="6.76091">
        <ele>1157.4</ele>
        <time>2026-06-26T06:51:02Z</time>
      </trkpt>
      <trkpt lat="46.0656" lon="6.76091">
        <ele>1157.5</ele>
        <time>2026-06-26T06:51:03Z</time>
      </trkpt>
      <trkpt lat="46.06561" lon="6.7609">
        <ele>1157.6</ele>
        <time>2026-06-26T06:51:04Z</time>
      </trkpt>
      <trkpt lat="46.06561" lon="6.7609">
        <ele>1157.8</ele>
        <time>2026-06-26T06:51:05Z</time>
      </trkpt>
      <trkpt lat="46.06563" lon="6.7609">
        <ele>1158</ele>
        <time>2026-06-26T06:51:06Z</time>
      </trkpt>
      <trkpt lat="46.06564" lon="6.76091">
        <ele>1158.2</ele>
        <time>2026-06-26T06:51:07Z</time>
      </trkpt>
      <trkpt lat="46.06565" lon="6.7609">
        <ele>1158.3</ele>
        <time>2026-06-26T06:51:08Z</time>
      </trkpt>
      <trkpt lat="46.06566" lon="6.7609">
        <ele>1158.5</ele>
        <time>2026-06-26T06:51:09Z</time>
      </trkpt>
      <trkpt lat="46.06566" lon="6.7609">
        <ele>1158.6</ele>
        <time>2026-06-26T06:51:10Z</time>
      </trkpt>
      <trkpt lat="46.06567" lon="6.7609">
        <ele>1158.8</ele>
        <time>2026-06-26T06:51:11Z</time>
      </trkpt>
      <trkpt lat="46.06568" lon="6.76089">
        <ele>1159</ele>
        <time>2026-06-26T06:51:12Z</time>
      </trkpt>
      <trkpt lat="46.06569" lon="6.76089">
        <ele>1159.1</ele>
        <time>2026-06-26T06:51:13Z</time>
      </trkpt>
      <trkpt lat="46.0657" lon="6.76089">
        <ele>1159.3</ele>
        <time>2026-06-26T06:51:14Z</time>
      </trkpt>
      <trkpt lat="46.06571" lon="6.76089">
        <ele>1159.4</ele>
        <time>2026-06-26T06:51:15Z</time>
      </trkpt>
      <trkpt lat="46.06572" lon="6.76088">
        <ele>1159.6</ele>
        <time>2026-06-26T06:51:16Z</time>
      </trkpt>
      <trkpt lat="46.06573" lon="6.76087">
        <ele>1159.7</ele>
        <time>2026-06-26T06:51:17Z</time>
      </trkpt>
      <trkpt lat="46.06574" lon="6.76087">
        <ele>1159.8</ele>
        <time>2026-06-26T06:51:18Z</time>
      </trkpt>
      <trkpt lat="46.06575" lon="6.76086">
        <ele>1159.9</ele>
        <time>2026-06-26T06:51:19Z</time>
      </trkpt>
      <trkpt lat="46.06575" lon="6.76086">
        <ele>1160</ele>
        <time>2026-06-26T06:51:20Z</time>
      </trkpt>
      <trkpt lat="46.06576" lon="6.76085">
        <ele>1160.1</ele>
        <time>2026-06-26T06:51:21Z</time>
      </trkpt>
      <trkpt lat="46.06577" lon="6.76085">
        <ele>1160.3</ele>
        <time>2026-06-26T06:51:22Z</time>
      </trkpt>
      <trkpt lat="46.06578" lon="6.76085">
        <ele>1160.4</ele>
        <time>2026-06-26T06:51:23Z</time>
      </trkpt>
      <trkpt lat="46.06579" lon="6.76085">
        <ele>1160.5</ele>
        <time>2026-06-26T06:51:24Z</time>
      </trkpt>
      <trkpt lat="46.0658" lon="6.76084">
        <ele>1160.6</ele>
        <time>2026-06-26T06:51:25Z</time>
      </trkpt>
      <trkpt lat="46.06581" lon="6.76083">
        <ele>1160.8</ele>
        <time>2026-06-26T06:51:26Z</time>
      </trkpt>
      <trkpt lat="46.06581" lon="6.76083">
        <ele>1161</ele>
        <time>2026-06-26T06:51:27Z</time>
      </trkpt>
      <trkpt lat="46.06582" lon="6.76082">
        <ele>1161.1</ele>
        <time>2026-06-26T06:51:28Z</time>
      </trkpt>
      <trkpt lat="46.06582" lon="6.76081">
        <ele>1161.2</ele>
        <time>2026-06-26T06:51:29Z</time>
      </trkpt>
      <trkpt lat="46.06583" lon="6.76081">
        <ele>1161.4</ele>
        <time>2026-06-26T06:51:30Z</time>
      </trkpt>
      <trkpt lat="46.06584" lon="6.7608">
        <ele>1161.6</ele>
        <time>2026-06-26T06:51:31Z</time>
      </trkpt>
      <trkpt lat="46.06584" lon="6.7608">
        <ele>1161.7</ele>
        <time>2026-06-26T06:51:32Z</time>
      </trkpt>
      <trkpt lat="46.06585" lon="6.76079">
        <ele>1161.8</ele>
        <time>2026-06-26T06:51:33Z</time>
      </trkpt>
      <trkpt lat="46.06586" lon="6.76078">
        <ele>1161.9</ele>
        <time>2026-06-26T06:51:34Z</time>
      </trkpt>
      <trkpt lat="46.06587" lon="6.76078">
        <ele>1162</ele>
        <time>2026-06-26T06:51:35Z</time>
      </trkpt>
      <trkpt lat="46.06588" lon="6.76078">
        <ele>1162</ele>
        <time>2026-06-26T06:51:36Z</time>
      </trkpt>
      <trkpt lat="46.06588" lon="6.76078">
        <ele>1162.1</ele>
        <time>2026-06-26T06:51:37Z</time>
      </trkpt>
      <trkpt lat="46.06589" lon="6.76078">
        <ele>1162.2</ele>
        <time>2026-06-26T06:51:38Z</time>
      </trkpt>
      <trkpt lat="46.0659" lon="6.76079">
        <ele>1162.4</ele>
        <time>2026-06-26T06:51:39Z</time>
      </trkpt>
      <trkpt lat="46.06591" lon="6.76079">
        <ele>1162.5</ele>
        <time>2026-06-26T06:51:40Z</time>
      </trkpt>
      <trkpt lat="46.06592" lon="6.76079">
        <ele>1162.6</ele>
        <time>2026-06-26T06:51:41Z</time>
      </trkpt>
      <trkpt lat="46.06593" lon="6.76079">
        <ele>1163</ele>
        <time>2026-06-26T06:51:42Z</time>
      </trkpt>
      <trkpt lat="46.06595" lon="6.7608">
        <ele>1163.2</ele>
        <time>2026-06-26T06:51:43Z</time>
      </trkpt>
      <trkpt lat="46.06596" lon="6.7608">
        <ele>1163.4</ele>
        <time>2026-06-26T06:51:44Z</time>
      </trkpt>
      <trkpt lat="46.06597" lon="6.7608">
        <ele>1163.6</ele>
        <time>2026-06-26T06:51:45Z</time>
      </trkpt>
      <trkpt lat="46.06598" lon="6.7608">
        <ele>1163.7</ele>
        <time>2026-06-26T06:51:46Z</time>
      </trkpt>
      <trkpt lat="46.06599" lon="6.7608">
        <ele>1163.9</ele>
        <time>2026-06-26T06:51:47Z</time>
      </trkpt>
      <trkpt lat="46.066" lon="6.7608">
        <ele>1163.9</ele>
        <time>2026-06-26T06:51:48Z</time>
      </trkpt>
      <trkpt lat="46.06601" lon="6.76081">
        <ele>1163.9</ele>
        <time>2026-06-26T06:51:49Z</time>
      </trkpt>
      <trkpt lat="46.06602" lon="6.76081">
        <ele>1163.9</ele>
        <time>2026-06-26T06:51:50Z</time>
      </trkpt>
      <trkpt lat="46.06603" lon="6.7608">
        <ele>1164.1</ele>
        <time>2026-06-26T06:51:51Z</time>
      </trkpt>
      <trkpt lat="46.06603" lon="6.7608">
        <ele>1164.3</ele>
        <time>2026-06-26T06:51:52Z</time>
      </trkpt>
      <trkpt lat="46.06604" lon="6.76081">
        <ele>1164.4</ele>
        <time>2026-06-26T06:51:53Z</time>
      </trkpt>
      <trkpt lat="46.06606" lon="6.76081">
        <ele>1164.6</ele>
        <time>2026-06-26T06:51:54Z</time>
      </trkpt>
      <trkpt lat="46.06607" lon="6.76081">
        <ele>1164.7</ele>
        <time>2026-06-26T06:51:55Z</time>
      </trkpt>
      <trkpt lat="46.06607" lon="6.7608">
        <ele>1164.9</ele>
        <time>2026-06-26T06:51:56Z</time>
      </trkpt>
      <trkpt lat="46.06608" lon="6.7608">
        <ele>1165.1</ele>
        <time>2026-06-26T06:51:57Z</time>
      </trkpt>
      <trkpt lat="46.06609" lon="6.7608">
        <ele>1165.3</ele>
        <time>2026-06-26T06:51:58Z</time>
      </trkpt>
      <trkpt lat="46.0661" lon="6.7608">
        <ele>1165.4</ele>
        <time>2026-06-26T06:51:59Z</time>
      </trkpt>
      <trkpt lat="46.06611" lon="6.7608">
        <ele>1165.5</ele>
        <time>2026-06-26T06:52:00Z</time>
      </trkpt>
      <trkpt lat="46.06612" lon="6.7608">
        <ele>1165.6</ele>
        <time>2026-06-26T06:52:01Z</time>
      </trkpt>
      <trkpt lat="46.06613" lon="6.7608">
        <ele>1165.7</ele>
        <time>2026-06-26T06:52:02Z</time>
      </trkpt>
      <trkpt lat="46.06614" lon="6.7608">
        <ele>1165.9</ele>
        <time>2026-06-26T06:52:03Z</time>
      </trkpt>
      <trkpt lat="46.06615" lon="6.7608">
        <ele>1166.1</ele>
        <time>2026-06-26T06:52:04Z</time>
      </trkpt>
      <trkpt lat="46.06616" lon="6.7608">
        <ele>1166.2</ele>
        <time>2026-06-26T06:52:05Z</time>
      </trkpt>
      <trkpt lat="46.06617" lon="6.7608">
        <ele>1166.3</ele>
        <time>2026-06-26T06:52:06Z</time>
      </trkpt>
      <trkpt lat="46.06617" lon="6.76079">
        <ele>1166.4</ele>
        <time>2026-06-26T06:52:07Z</time>
      </trkpt>
      <trkpt lat="46.06618" lon="6.7608">
        <ele>1166.6</ele>
        <time>2026-06-26T06:52:08Z</time>
      </trkpt>
      <trkpt lat="46.0662" lon="6.7608">
        <ele>1166.7</ele>
        <time>2026-06-26T06:52:09Z</time>
      </trkpt>
      <trkpt lat="46.06621" lon="6.7608">
        <ele>1166.8</ele>
        <time>2026-06-26T06:52:10Z</time>
      </trkpt>
      <trkpt lat="46.06622" lon="6.7608">
        <ele>1166.9</ele>
        <time>2026-06-26T06:52:11Z</time>
      </trkpt>
      <trkpt lat="46.06622" lon="6.7608">
        <ele>1167</ele>
        <time>2026-06-26T06:52:12Z</time>
      </trkpt>
      <trkpt lat="46.06623" lon="6.76081">
        <ele>1167.1</ele>
        <time>2026-06-26T06:52:13Z</time>
      </trkpt>
      <trkpt lat="46.06624" lon="6.76081">
        <ele>1167.2</ele>
        <time>2026-06-26T06:52:14Z</time>
      </trkpt>
      <trkpt lat="46.06625" lon="6.76081">
        <ele>1167.4</ele>
        <time>2026-06-26T06:52:15Z</time>
      </trkpt>
      <trkpt lat="46.06626" lon="6.76081">
        <ele>1167.5</ele>
        <time>2026-06-26T06:52:16Z</time>
      </trkpt>
      <trkpt lat="46.06626" lon="6.76082">
        <ele>1167.6</ele>
        <time>2026-06-26T06:52:17Z</time>
      </trkpt>
      <trkpt lat="46.06627" lon="6.76082">
        <ele>1167.7</ele>
        <time>2026-06-26T06:52:18Z</time>
      </trkpt>
      <trkpt lat="46.06628" lon="6.76082">
        <ele>1167.8</ele>
        <time>2026-06-26T06:52:19Z</time>
      </trkpt>
      <trkpt lat="46.06628" lon="6.76082">
        <ele>1167.9</ele>
        <time>2026-06-26T06:52:20Z</time>
      </trkpt>
      <trkpt lat="46.06629" lon="6.76082">
        <ele>1168</ele>
        <time>2026-06-26T06:52:21Z</time>
      </trkpt>
      <trkpt lat="46.06629" lon="6.76082">
        <ele>1168.2</ele>
        <time>2026-06-26T06:52:22Z</time>
      </trkpt>
      <trkpt lat="46.06629" lon="6.76083">
        <ele>1168.3</ele>
        <time>2026-06-26T06:52:23Z</time>
      </trkpt>
      <trkpt lat="46.06629" lon="6.76083">
        <ele>1168.4</ele>
        <time>2026-06-26T06:52:24Z</time>
      </trkpt>
      <trkpt lat="46.06629" lon="6.76084">
        <ele>1168.5</ele>
        <time>2026-06-26T06:52:25Z</time>
      </trkpt>
      <trkpt lat="46.06629" lon="6.76084">
        <ele>1168.6</ele>
        <time>2026-06-26T06:52:26Z</time>
      </trkpt>
      <trkpt lat="46.06629" lon="6.76085">
        <ele>1168.6</ele>
        <time>2026-06-26T06:52:27Z</time>
      </trkpt>
      <trkpt lat="46.06629" lon="6.76085">
        <ele>1168.8</ele>
        <time>2026-06-26T06:52:28Z</time>
      </trkpt>
      <trkpt lat="46.06629" lon="6.76086">
        <ele>1168.9</ele>
        <time>2026-06-26T06:52:29Z</time>
      </trkpt>
      <trkpt lat="46.0663" lon="6.76086">
        <ele>1169</ele>
        <time>2026-06-26T06:52:30Z</time>
      </trkpt>
      <trkpt lat="46.0663" lon="6.76087">
        <ele>1169</ele>
        <time>2026-06-26T06:52:31Z</time>
      </trkpt>
      <trkpt lat="46.0663" lon="6.76088">
        <ele>1169</ele>
        <time>2026-06-26T06:52:32Z</time>
      </trkpt>
      <trkpt lat="46.0663" lon="6.76089">
        <ele>1169.2</ele>
        <time>2026-06-26T06:52:33Z</time>
      </trkpt>
      <trkpt lat="46.06631" lon="6.7609">
        <ele>1169.4</ele>
        <time>2026-06-26T06:52:34Z</time>
      </trkpt>
      <trkpt lat="46.06631" lon="6.7609">
        <ele>1169.4</ele>
        <time>2026-06-26T06:52:35Z</time>
      </trkpt>
      <trkpt lat="46.06631" lon="6.76091">
        <ele>1169.5</ele>
        <time>2026-06-26T06:52:36Z</time>
      </trkpt>
      <trkpt lat="46.06631" lon="6.76092">
        <ele>1169.5</ele>
        <time>2026-06-26T06:52:37Z</time>
      </trkpt>
      <trkpt lat="46.06631" lon="6.76093">
        <ele>1169.5</ele>
        <time>2026-06-26T06:52:38Z</time>
      </trkpt>
      <trkpt lat="46.0663" lon="6.76093">
        <ele>1169.6</ele>
        <time>2026-06-26T06:52:39Z</time>
      </trkpt>
      <trkpt lat="46.0663" lon="6.76094">
        <ele>1169.8</ele>
        <time>2026-06-26T06:52:40Z</time>
      </trkpt>
      <trkpt lat="46.0663" lon="6.76095">
        <ele>1169.8</ele>
        <time>2026-06-26T06:52:41Z</time>
      </trkpt>
      <trkpt lat="46.0663" lon="6.76096">
        <ele>1169.9</ele>
        <time>2026-06-26T06:52:42Z</time>
      </trkpt>
      <trkpt lat="46.0663" lon="6.76097">
        <ele>1170</ele>
        <time>2026-06-26T06:52:43Z</time>
      </trkpt>
      <trkpt lat="46.0663" lon="6.76098">
        <ele>1170.1</ele>
        <time>2026-06-26T06:52:44Z</time>
      </trkpt>
      <trkpt lat="46.0663" lon="6.76099">
        <ele>1170.2</ele>
        <time>2026-06-26T06:52:45Z</time>
      </trkpt>
      <trkpt lat="46.06629" lon="6.761">
        <ele>1170.3</ele>
        <time>2026-06-26T06:52:46Z</time>
      </trkpt>
      <trkpt lat="46.06629" lon="6.761">
        <ele>1170.4</ele>
        <time>2026-06-26T06:52:47Z</time>
      </trkpt>
      <trkpt lat="46.06628" lon="6.761">
        <ele>1170.6</ele>
        <time>2026-06-26T06:52:48Z</time>
      </trkpt>
      <trkpt lat="46.06628" lon="6.76101">
        <ele>1170.6</ele>
        <time>2026-06-26T06:52:49Z</time>
      </trkpt>
      <trkpt lat="46.06628" lon="6.76102">
        <ele>1170.7</ele>
        <time>2026-06-26T06:52:50Z</time>
      </trkpt>
      <trkpt lat="46.06627" lon="6.76102">
        <ele>1171</ele>
        <time>2026-06-26T06:52:51Z</time>
      </trkpt>
      <trkpt lat="46.06627" lon="6.76103">
        <ele>1171.1</ele>
        <time>2026-06-26T06:52:52Z</time>
      </trkpt>
      <trkpt lat="46.06626" lon="6.76103">
        <ele>1171.3</ele>
        <time>2026-06-26T06:52:53Z</time>
      </trkpt>
      <trkpt lat="46.06626" lon="6.76104">
        <ele>1171.4</ele>
        <time>2026-06-26T06:52:54Z</time>
      </trkpt>
      <trkpt lat="46.06625" lon="6.76104">
        <ele>1171.5</ele>
        <time>2026-06-26T06:52:55Z</time>
      </trkpt>
      <trkpt lat="46.06624" lon="6.76105">
        <ele>1171.6</ele>
        <time>2026-06-26T06:52:56Z</time>
      </trkpt>
      <trkpt lat="46.06624" lon="6.76105">
        <ele>1171.8</ele>
        <time>2026-06-26T06:52:57Z</time>
      </trkpt>
      <trkpt lat="46.06623" lon="6.76106">
        <ele>1171.9</ele>
        <time>2026-06-26T06:52:58Z</time>
      </trkpt>
      <trkpt lat="46.06623" lon="6.76106">
        <ele>1172.1</ele>
        <time>2026-06-26T06:52:59Z</time>
      </trkpt>
      <trkpt lat="46.06622" lon="6.76107">
        <ele>1172.3</ele>
        <time>2026-06-26T06:53:00Z</time>
      </trkpt>
      <trkpt lat="46.06622" lon="6.76107">
        <ele>1172.4</ele>
        <time>2026-06-26T06:53:01Z</time>
      </trkpt>
      <trkpt lat="46.06621" lon="6.76108">
        <ele>1172.7</ele>
        <time>2026-06-26T06:53:02Z</time>
      </trkpt>
      <trkpt lat="46.0662" lon="6.76108">
        <ele>1172.9</ele>
        <time>2026-06-26T06:53:03Z</time>
      </trkpt>
      <trkpt lat="46.0662" lon="6.76108">
        <ele>1173.1</ele>
        <time>2026-06-26T06:53:04Z</time>
      </trkpt>
      <trkpt lat="46.06619" lon="6.76108">
        <ele>1173.2</ele>
        <time>2026-06-26T06:53:05Z</time>
      </trkpt>
      <trkpt lat="46.06618" lon="6.76109">
        <ele>1173.3</ele>
        <time>2026-06-26T06:53:06Z</time>
      </trkpt>
      <trkpt lat="46.06617" lon="6.76109">
        <ele>1173.6</ele>
        <time>2026-06-26T06:53:07Z</time>
      </trkpt>
      <trkpt lat="46.06616" lon="6.7611">
        <ele>1173.7</ele>
        <time>2026-06-26T06:53:08Z</time>
      </trkpt>
      <trkpt lat="46.06615" lon="6.7611">
        <ele>1174</ele>
        <time>2026-06-26T06:53:09Z</time>
      </trkpt>
      <trkpt lat="46.06615" lon="6.7611">
        <ele>1174.1</ele>
        <time>2026-06-26T06:53:10Z</time>
      </trkpt>
      <trkpt lat="46.06614" lon="6.7611">
        <ele>1174.3</ele>
        <time>2026-06-26T06:53:11Z</time>
      </trkpt>
      <trkpt lat="46.06613" lon="6.76111">
        <ele>1174.4</ele>
        <time>2026-06-26T06:53:12Z</time>
      </trkpt>
      <trkpt lat="46.06612" lon="6.76112">
        <ele>1174.5</ele>
        <time>2026-06-26T06:53:13Z</time>
      </trkpt>
      <trkpt lat="46.06612" lon="6.76112">
        <ele>1174.7</ele>
        <time>2026-06-26T06:53:14Z</time>
      </trkpt>
      <trkpt lat="46.06611" lon="6.76113">
        <ele>1174.8</ele>
        <time>2026-06-26T06:53:15Z</time>
      </trkpt>
      <trkpt lat="46.0661" lon="6.76113">
        <ele>1175</ele>
        <time>2026-06-26T06:53:16Z</time>
      </trkpt>
      <trkpt lat="46.06609" lon="6.76114">
        <ele>1175.1</ele>
        <time>2026-06-26T06:53:17Z</time>
      </trkpt>
      <trkpt lat="46.06609" lon="6.76115">
        <ele>1175.1</ele>
        <time>2026-06-26T06:53:18Z</time>
      </trkpt>
      <trkpt lat="46.06608" lon="6.76116">
        <ele>1175.2</ele>
        <time>2026-06-26T06:53:19Z</time>
      </trkpt>
      <trkpt lat="46.06607" lon="6.76117">
        <ele>1175.3</ele>
        <time>2026-06-26T06:53:20Z</time>
      </trkpt>
      <trkpt lat="46.06607" lon="6.76118">
        <ele>1175.3</ele>
        <time>2026-06-26T06:53:21Z</time>
      </trkpt>
      <trkpt lat="46.06606" lon="6.76118">
        <ele>1175.5</ele>
        <time>2026-06-26T06:53:22Z</time>
      </trkpt>
      <trkpt lat="46.06605" lon="6.76119">
        <ele>1175.7</ele>
        <time>2026-06-26T06:53:23Z</time>
      </trkpt>
      <trkpt lat="46.06604" lon="6.7612">
        <ele>1175.8</ele>
        <time>2026-06-26T06:53:24Z</time>
      </trkpt>
      <trkpt lat="46.06604" lon="6.76121">
        <ele>1176</ele>
        <time>2026-06-26T06:53:25Z</time>
      </trkpt>
      <trkpt lat="46.06603" lon="6.76122">
        <ele>1176.1</ele>
        <time>2026-06-26T06:53:26Z</time>
      </trkpt>
      <trkpt lat="46.06603" lon="6.76123">
        <ele>1176.2</ele>
        <time>2026-06-26T06:53:27Z</time>
      </trkpt>
      <trkpt lat="46.06602" lon="6.76124">
        <ele>1176.4</ele>
        <time>2026-06-26T06:53:28Z</time>
      </trkpt>
      <trkpt lat="46.06602" lon="6.76124">
        <ele>1176.5</ele>
        <time>2026-06-26T06:53:29Z</time>
      </trkpt>
      <trkpt lat="46.06601" lon="6.76126">
        <ele>1176.5</ele>
        <time>2026-06-26T06:53:30Z</time>
      </trkpt>
      <trkpt lat="46.06601" lon="6.76127">
        <ele>1176.5</ele>
        <time>2026-06-26T06:53:31Z</time>
      </trkpt>
      <trkpt lat="46.066" lon="6.76127">
        <ele>1176.5</ele>
        <time>2026-06-26T06:53:32Z</time>
      </trkpt>
      <trkpt lat="46.066" lon="6.76128">
        <ele>1176.6</ele>
        <time>2026-06-26T06:53:33Z</time>
      </trkpt>
      <trkpt lat="46.066" lon="6.76129">
        <ele>1176.7</ele>
        <time>2026-06-26T06:53:34Z</time>
      </trkpt>
      <trkpt lat="46.066" lon="6.76131">
        <ele>1176.9</ele>
        <time>2026-06-26T06:53:35Z</time>
      </trkpt>
      <trkpt lat="46.06599" lon="6.76132">
        <ele>1177.1</ele>
        <time>2026-06-26T06:53:36Z</time>
      </trkpt>
      <trkpt lat="46.06599" lon="6.76133">
        <ele>1177.3</ele>
        <time>2026-06-26T06:53:37Z</time>
      </trkpt>
      <trkpt lat="46.06598" lon="6.76134">
        <ele>1177.4</ele>
        <time>2026-06-26T06:53:38Z</time>
      </trkpt>
      <trkpt lat="46.06598" lon="6.76135">
        <ele>1177.4</ele>
        <time>2026-06-26T06:53:39Z</time>
      </trkpt>
      <trkpt lat="46.06598" lon="6.76136">
        <ele>1177.6</ele>
        <time>2026-06-26T06:53:40Z</time>
      </trkpt>
      <trkpt lat="46.06598" lon="6.76136">
        <ele>1177.6</ele>
        <time>2026-06-26T06:53:41Z</time>
      </trkpt>
      <trkpt lat="46.06597" lon="6.76137">
        <ele>1177.6</ele>
        <time>2026-06-26T06:53:42Z</time>
      </trkpt>
      <trkpt lat="46.06597" lon="6.76138">
        <ele>1177.7</ele>
        <time>2026-06-26T06:53:43Z</time>
      </trkpt>
      <trkpt lat="46.06597" lon="6.76138">
        <ele>1177.9</ele>
        <time>2026-06-26T06:53:44Z</time>
      </trkpt>
      <trkpt lat="46.06597" lon="6.76139">
        <ele>1178.1</ele>
        <time>2026-06-26T06:53:45Z</time>
      </trkpt>
      <trkpt lat="46.06597" lon="6.76138">
        <ele>1178.1</ele>
        <time>2026-06-26T06:53:46Z</time>
      </trkpt>
      <trkpt lat="46.06597" lon="6.76138">
        <ele>1178.2</ele>
        <time>2026-06-26T06:53:47Z</time>
      </trkpt>
      <trkpt lat="46.06597" lon="6.76139">
        <ele>1178.2</ele>
        <time>2026-06-26T06:53:48Z</time>
      </trkpt>
      <trkpt lat="46.06597" lon="6.76139">
        <ele>1178.3</ele>
        <time>2026-06-26T06:53:49Z</time>
      </trkpt>
      <trkpt lat="46.06597" lon="6.76139">
        <ele>1178.4</ele>
        <time>2026-06-26T06:53:50Z</time>
      </trkpt>
      <trkpt lat="46.06597" lon="6.76139">
        <ele>1178.5</ele>
        <time>2026-06-26T06:53:51Z</time>
      </trkpt>
      <trkpt lat="46.06597" lon="6.76139">
        <ele>1178.6</ele>
        <time>2026-06-26T06:53:52Z</time>
      </trkpt>
      <trkpt lat="46.06597" lon="6.76139">
        <ele>1178.6</ele>
        <time>2026-06-26T06:53:53Z</time>
      </trkpt>
      <trkpt lat="46.06597" lon="6.7614">
        <ele>1178.7</ele>
        <time>2026-06-26T06:53:54Z</time>
      </trkpt>
      <trkpt lat="46.06597" lon="6.7614">
        <ele>1178.7</ele>
        <time>2026-06-26T06:53:55Z</time>
      </trkpt>
      <trkpt lat="46.06597" lon="6.76139">
        <ele>1178.8</ele>
        <time>2026-06-26T06:53:56Z</time>
      </trkpt>
      <trkpt lat="46.06597" lon="6.76139">
        <ele>1178.9</ele>
        <time>2026-06-26T06:53:57Z</time>
      </trkpt>
      <trkpt lat="46.06597" lon="6.76139">
        <ele>1178.9</ele>
        <time>2026-06-26T06:53:58Z</time>
      </trkpt>
      <trkpt lat="46.06597" lon="6.76139">
        <ele>1179</ele>
        <time>2026-06-26T06:53:59Z</time>
      </trkpt>
      <trkpt lat="46.06597" lon="6.76139">
        <ele>1179</ele>
        <time>2026-06-26T06:54:00Z</time>
      </trkpt>
      <trkpt lat="46.06597" lon="6.76139">
        <ele>1179</ele>
        <time>2026-06-26T06:54:01Z</time>
      </trkpt>
      <trkpt lat="46.06597" lon="6.76139">
        <ele>1179</ele>
        <time>2026-06-26T06:54:02Z</time>
      </trkpt>
      <trkpt lat="46.06597" lon="6.76139">
        <ele>1179</ele>
        <time>2026-06-26T06:54:03Z</time>
      </trkpt>
      <trkpt lat="46.06597" lon="6.76139">
        <ele>1179</ele>
        <time>2026-06-26T06:54:04Z</time>
      </trkpt>
      <trkpt lat="46.06598" lon="6.7614">
        <ele>1179</ele>
        <time>2026-06-26T06:54:05Z</time>
      </trkpt>
      <trkpt lat="46.06598" lon="6.7614">
        <ele>1178.9</ele>
        <time>2026-06-26T06:54:06Z</time>
      </trkpt>
      <trkpt lat="46.06598" lon="6.7614">
        <ele>1178.9</ele>
        <time>2026-06-26T06:54:07Z</time>
      </trkpt>
      <trkpt lat="46.06597" lon="6.7614">
        <ele>1178.9</ele>
        <time>2026-06-26T06:54:08Z</time>
      </trkpt>
      <trkpt lat="46.06597" lon="6.7614">
        <ele>1178.9</ele>
        <time>2026-06-26T06:54:09Z</time>
      </trkpt>
      <trkpt lat="46.06597" lon="6.7614">
        <ele>1178.9</ele>
        <time>2026-06-26T06:54:10Z</time>
      </trkpt>
      <trkpt lat="46.06597" lon="6.7614">
        <ele>1179</ele>
        <time>2026-06-26T06:54:11Z</time>
      </trkpt>
      <trkpt lat="46.06598" lon="6.76141">
        <ele>1179</ele>
        <time>2026-06-26T06:54:12Z</time>
      </trkpt>
      <trkpt lat="46.06598" lon="6.76141">
        <ele>1178.9</ele>
        <time>2026-06-26T06:54:13Z</time>
      </trkpt>
      <trkpt lat="46.06598" lon="6.76141">
        <ele>1178.9</ele>
        <time>2026-06-26T06:54:14Z</time>
      </trkpt>
      <trkpt lat="46.06598" lon="6.76141">
        <ele>1178.9</ele>
        <time>2026-06-26T06:54:15Z</time>
      </trkpt>
      <trkpt lat="46.06598" lon="6.76141">
        <ele>1178.9</ele>
        <time>2026-06-26T06:54:16Z</time>
      </trkpt>
      <trkpt lat="46.06598" lon="6.76141">
        <ele>1178.9</ele>
        <time>2026-06-26T06:54:17Z</time>
      </trkpt>
      <trkpt lat="46.06598" lon="6.76141">
        <ele>1178.9</ele>
        <time>2026-06-26T06:54:18Z</time>
      </trkpt>
      <trkpt lat="46.06598" lon="6.76141">
        <ele>1178.9</ele>
        <time>2026-06-26T06:54:19Z</time>
      </trkpt>
      <trkpt lat="46.06597" lon="6.76141">
        <ele>1178.8</ele>
        <time>2026-06-26T06:54:20Z</time>
      </trkpt>
      <trkpt lat="46.06597" lon="6.76142">
        <ele>1178.7</ele>
        <time>2026-06-26T06:54:21Z</time>
      </trkpt>
      <trkpt lat="46.06597" lon="6.76143">
        <ele>1178.7</ele>
        <time>2026-06-26T06:54:22Z</time>
      </trkpt>
      <trkpt lat="46.06597" lon="6.76144">
        <ele>1178.8</ele>
        <time>2026-06-26T06:54:23Z</time>
      </trkpt>
      <trkpt lat="46.06597" lon="6.76144">
        <ele>1178.8</ele>
        <time>2026-06-26T06:54:24Z</time>
      </trkpt>
      <trkpt lat="46.06598" lon="6.76145">
        <ele>1178.8</ele>
        <time>2026-06-26T06:54:25Z</time>
      </trkpt>
      <trkpt lat="46.06598" lon="6.76146">
        <ele>1178.8</ele>
        <time>2026-06-26T06:54:26Z</time>
      </trkpt>
      <trkpt lat="46.06598" lon="6.76147">
        <ele>1178.8</ele>
        <time>2026-06-26T06:54:27Z</time>
      </trkpt>
      <trkpt lat="46.06598" lon="6.76147">
        <ele>1178.9</ele>
        <time>2026-06-26T06:54:28Z</time>
      </trkpt>
      <trkpt lat="46.06598" lon="6.76147">
        <ele>1178.9</ele>
        <time>2026-06-26T06:54:29Z</time>
      </trkpt>
      <trkpt lat="46.06598" lon="6.76147">
        <ele>1178.8</ele>
        <time>2026-06-26T06:54:30Z</time>
      </trkpt>
      <trkpt lat="46.06598" lon="6.76147">
        <ele>1178.8</ele>
        <time>2026-06-26T06:54:31Z</time>
      </trkpt>
      <trkpt lat="46.06598" lon="6.76148">
        <ele>1178.7</ele>
        <time>2026-06-26T06:54:32Z</time>
      </trkpt>
      <trkpt lat="46.06598" lon="6.76149">
        <ele>1178.7</ele>
        <time>2026-06-26T06:54:33Z</time>
      </trkpt>
      <trkpt lat="46.06598" lon="6.76149">
        <ele>1178.7</ele>
        <time>2026-06-26T06:54:34Z</time>
      </trkpt>
      <trkpt lat="46.06598" lon="6.76149">
        <ele>1178.7</ele>
        <time>2026-06-26T06:54:35Z</time>
      </trkpt>
      <trkpt lat="46.06598" lon="6.7615">
        <ele>1178.7</ele>
        <time>2026-06-26T06:54:36Z</time>
      </trkpt>
      <trkpt lat="46.06598" lon="6.7615">
        <ele>1178.8</ele>
        <time>2026-06-26T06:54:37Z</time>
      </trkpt>
      <trkpt lat="46.06598" lon="6.7615">
        <ele>1178.8</ele>
        <time>2026-06-26T06:54:38Z</time>
      </trkpt>
      <trkpt lat="46.06598" lon="6.7615">
        <ele>1178.7</ele>
        <time>2026-06-26T06:54:39Z</time>
      </trkpt>
      <trkpt lat="46.06598" lon="6.7615">
        <ele>1178.8</ele>
        <time>2026-06-26T06:54:40Z</time>
      </trkpt>
      <trkpt lat="46.06599" lon="6.76151">
        <ele>1178.8</ele>
        <time>2026-06-26T06:54:41Z</time>
      </trkpt>
      <trkpt lat="46.06598" lon="6.76151">
        <ele>1178.7</ele>
        <time>2026-06-26T06:54:42Z</time>
      </trkpt>
      <trkpt lat="46.06598" lon="6.76151">
        <ele>1178.7</ele>
        <time>2026-06-26T06:54:43Z</time>
      </trkpt>
      <trkpt lat="46.06598" lon="6.76151">
        <ele>1178.7</ele>
        <time>2026-06-26T06:54:44Z</time>
      </trkpt>
      <trkpt lat="46.06598" lon="6.76151">
        <ele>1178.7</ele>
        <time>2026-06-26T06:54:45Z</time>
      </trkpt>
      <trkpt lat="46.06598" lon="6.76151">
        <ele>1178.8</ele>
        <time>2026-06-26T06:54:46Z</time>
      </trkpt>
      <trkpt lat="46.06598" lon="6.76151">
        <ele>1178.8</ele>
        <time>2026-06-26T06:54:47Z</time>
      </trkpt>
      <trkpt lat="46.06598" lon="6.76151">
        <ele>1178.7</ele>
        <time>2026-06-26T06:54:48Z</time>
      </trkpt>
      <trkpt lat="46.06598" lon="6.76151">
        <ele>1178.7</ele>
        <time>2026-06-26T06:54:49Z</time>
      </trkpt>
      <trkpt lat="46.06598" lon="6.76151">
        <ele>1178.7</ele>
        <time>2026-06-26T06:54:50Z</time>
      </trkpt>
      <trkpt lat="46.06598" lon="6.76151">
        <ele>1178.7</ele>
        <time>2026-06-26T06:54:51Z</time>
      </trkpt>
      <trkpt lat="46.06598" lon="6.76151">
        <ele>1178.9</ele>
        <time>2026-06-26T06:54:52Z</time>
      </trkpt>
      <trkpt lat="46.06598" lon="6.76151">
        <ele>1178.9</ele>
        <time>2026-06-26T06:54:53Z</time>
      </trkpt>
      <trkpt lat="46.06598" lon="6.76151">
        <ele>1178.9</ele>
        <time>2026-06-26T06:54:54Z</time>
      </trkpt>
      <trkpt lat="46.06598" lon="6.76151">
        <ele>1178.9</ele>
        <time>2026-06-26T06:54:55Z</time>
      </trkpt>
      <trkpt lat="46.06598" lon="6.76151">
        <ele>1178.9</ele>
        <time>2026-06-26T06:54:56Z</time>
      </trkpt>
      <trkpt lat="46.06598" lon="6.76151">
        <ele>1178.8</ele>
        <time>2026-06-26T06:54:57Z</time>
      </trkpt>
      <trkpt lat="46.06598" lon="6.76151">
        <ele>1178.7</ele>
        <time>2026-06-26T06:54:58Z</time>
      </trkpt>
      <trkpt lat="46.06598" lon="6.76151">
        <ele>1178.7</ele>
        <time>2026-06-26T06:54:59Z</time>
      </trkpt>
      <trkpt lat="46.06598" lon="6.76151">
        <ele>1178.7</ele>
        <time>2026-06-26T06:55:00Z</time>
      </trkpt>
      <trkpt lat="46.06598" lon="6.76152">
        <ele>1178.7</ele>
        <time>2026-06-26T06:55:01Z</time>
      </trkpt>
      <trkpt lat="46.06598" lon="6.76152">
        <ele>1178.7</ele>
        <time>2026-06-26T06:55:02Z</time>
      </trkpt>
      <trkpt lat="46.06598" lon="6.76152">
        <ele>1178.8</ele>
        <time>2026-06-26T06:55:03Z</time>
      </trkpt>
      <trkpt lat="46.06598" lon="6.76152">
        <ele>1178.8</ele>
        <time>2026-06-26T06:55:04Z</time>
      </trkpt>
      <trkpt lat="46.06598" lon="6.76152">
        <ele>1178.9</ele>
        <time>2026-06-26T06:55:05Z</time>
      </trkpt>
      <trkpt lat="46.06598" lon="6.76152">
        <ele>1178.9</ele>
        <time>2026-06-26T06:55:06Z</time>
      </trkpt>
      <trkpt lat="46.06598" lon="6.76152">
        <ele>1178.8</ele>
        <time>2026-06-26T06:55:07Z</time>
      </trkpt>
      <trkpt lat="46.06598" lon="6.76152">
        <ele>1178.8</ele>
        <time>2026-06-26T06:55:08Z</time>
      </trkpt>
      <trkpt lat="46.06598" lon="6.76153">
        <ele>1178.8</ele>
        <time>2026-06-26T06:55:09Z</time>
      </trkpt>
      <trkpt lat="46.06598" lon="6.76153">
        <ele>1178.9</ele>
        <time>2026-06-26T06:55:10Z</time>
      </trkpt>
      <trkpt lat="46.06598" lon="6.76153">
        <ele>1178.9</ele>
        <time>2026-06-26T06:55:11Z</time>
      </trkpt>
      <trkpt lat="46.06598" lon="6.76153">
        <ele>1178.9</ele>
        <time>2026-06-26T06:55:12Z</time>
      </trkpt>
      <trkpt lat="46.06598" lon="6.76153">
        <ele>1178.9</ele>
        <time>2026-06-26T06:55:13Z</time>
      </trkpt>
      <trkpt lat="46.06598" lon="6.76154">
        <ele>1178.8</ele>
        <time>2026-06-26T06:55:14Z</time>
      </trkpt>
      <trkpt lat="46.06598" lon="6.76154">
        <ele>1178.8</ele>
        <time>2026-06-26T06:55:15Z</time>
      </trkpt>
      <trkpt lat="46.06598" lon="6.76154">
        <ele>1178.8</ele>
        <time>2026-06-26T06:55:16Z</time>
      </trkpt>
      <trkpt lat="46.06598" lon="6.76154">
        <ele>1178.8</ele>
        <time>2026-06-26T06:55:17Z</time>
      </trkpt>
      <trkpt lat="46.06598" lon="6.76154">
        <ele>1178.8</ele>
        <time>2026-06-26T06:55:18Z</time>
      </trkpt>
      <trkpt lat="46.06598" lon="6.76154">
        <ele>1178.8</ele>
        <time>2026-06-26T06:55:19Z</time>
      </trkpt>
      <trkpt lat="46.06598" lon="6.76154">
        <ele>1178.8</ele>
        <time>2026-06-26T06:55:20Z</time>
      </trkpt>
      <trkpt lat="46.06598" lon="6.76155">
        <ele>1178.8</ele>
        <time>2026-06-26T06:55:21Z</time>
      </trkpt>
      <trkpt lat="46.06598" lon="6.76154">
        <ele>1178.8</ele>
        <time>2026-06-26T06:55:22Z</time>
      </trkpt>
      <trkpt lat="46.06598" lon="6.76154">
        <ele>1178.8</ele>
        <time>2026-06-26T06:55:23Z</time>
      </trkpt>
      <trkpt lat="46.06598" lon="6.76154">
        <ele>1178.8</ele>
        <time>2026-06-26T06:55:24Z</time>
      </trkpt>
      <trkpt lat="46.06598" lon="6.76154">
        <ele>1178.8</ele>
        <time>2026-06-26T06:55:25Z</time>
      </trkpt>
      <trkpt lat="46.06598" lon="6.76154">
        <ele>1178.9</ele>
        <time>2026-06-26T06:55:26Z</time>
      </trkpt>
      <trkpt lat="46.06598" lon="6.76154">
        <ele>1178.9</ele>
        <time>2026-06-26T06:55:27Z</time>
      </trkpt>
      <trkpt lat="46.06597" lon="6.76154">
        <ele>1178.9</ele>
        <time>2026-06-26T06:55:28Z</time>
      </trkpt>
      <trkpt lat="46.06597" lon="6.76154">
        <ele>1178.9</ele>
        <time>2026-06-26T06:55:29Z</time>
      </trkpt>
      <trkpt lat="46.06597" lon="6.76154">
        <ele>1179</ele>
        <time>2026-06-26T06:55:30Z</time>
      </trkpt>
      <trkpt lat="46.06597" lon="6.76154">
        <ele>1179</ele>
        <time>2026-06-26T06:55:31Z</time>
      </trkpt>
      <trkpt lat="46.06597" lon="6.76154">
        <ele>1179</ele>
        <time>2026-06-26T06:55:32Z</time>
      </trkpt>
      <trkpt lat="46.06597" lon="6.76154">
        <ele>1179</ele>
        <time>2026-06-26T06:55:33Z</time>
      </trkpt>
      <trkpt lat="46.06597" lon="6.76154">
        <ele>1179</ele>
        <time>2026-06-26T06:55:34Z</time>
      </trkpt>
      <trkpt lat="46.06597" lon="6.76154">
        <ele>1179</ele>
        <time>2026-06-26T06:55:35Z</time>
      </trkpt>
      <trkpt lat="46.06597" lon="6.76155">
        <ele>1179</ele>
        <time>2026-06-26T06:55:36Z</time>
      </trkpt>
      <trkpt lat="46.06597" lon="6.76155">
        <ele>1179</ele>
        <time>2026-06-26T06:55:37Z</time>
      </trkpt>
      <trkpt lat="46.06597" lon="6.76155">
        <ele>1178.9</ele>
        <time>2026-06-26T06:55:38Z</time>
      </trkpt>
      <trkpt lat="46.06597" lon="6.76155">
        <ele>1178.9</ele>
        <time>2026-06-26T06:55:39Z</time>
      </trkpt>
      <trkpt lat="46.06597" lon="6.76156">
        <ele>1178.9</ele>
        <time>2026-06-26T06:55:40Z</time>
      </trkpt>
      <trkpt lat="46.06597" lon="6.76156">
        <ele>1178.9</ele>
        <time>2026-06-26T06:55:41Z</time>
      </trkpt>
      <trkpt lat="46.06597" lon="6.76156">
        <ele>1178.9</ele>
        <time>2026-06-26T06:55:42Z</time>
      </trkpt>
      <trkpt lat="46.06597" lon="6.76156">
        <ele>1178.8</ele>
        <time>2026-06-26T06:55:43Z</time>
      </trkpt>
      <trkpt lat="46.06597" lon="6.76156">
        <ele>1178.8</ele>
        <time>2026-06-26T06:55:44Z</time>
      </trkpt>
      <trkpt lat="46.06597" lon="6.76156">
        <ele>1178.8</ele>
        <time>2026-06-26T06:55:45Z</time>
      </trkpt>
      <trkpt lat="46.06597" lon="6.76156">
        <ele>1178.7</ele>
        <time>2026-06-26T06:55:46Z</time>
      </trkpt>
      <trkpt lat="46.06598" lon="6.76156">
        <ele>1178.7</ele>
        <time>2026-06-26T06:55:47Z</time>
      </trkpt>
      <trkpt lat="46.06598" lon="6.76155">
        <ele>1178.6</ele>
        <time>2026-06-26T06:55:48Z</time>
      </trkpt>
      <trkpt lat="46.06598" lon="6.76155">
        <ele>1178.5</ele>
        <time>2026-06-26T06:55:49Z</time>
      </trkpt>
      <trkpt lat="46.06598" lon="6.76155">
        <ele>1178.5</ele>
        <time>2026-06-26T06:55:50Z</time>
      </trkpt>
      <trkpt lat="46.06598" lon="6.76155">
        <ele>1178.5</ele>
        <time>2026-06-26T06:55:51Z</time>
      </trkpt>
      <trkpt lat="46.06598" lon="6.76155">
        <ele>1178.5</ele>
        <time>2026-06-26T06:55:52Z</time>
      </trkpt>
      <trkpt lat="46.06598" lon="6.76154">
        <ele>1178.5</ele>
        <time>2026-06-26T06:55:53Z</time>
      </trkpt>
      <trkpt lat="46.06598" lon="6.76154">
        <ele>1178.5</ele>
        <time>2026-06-26T06:55:54Z</time>
      </trkpt>
      <trkpt lat="46.06598" lon="6.76154">
        <ele>1178.5</ele>
        <time>2026-06-26T06:55:55Z</time>
      </trkpt>
      <trkpt lat="46.06598" lon="6.76154">
        <ele>1178.5</ele>
        <time>2026-06-26T06:55:56Z</time>
      </trkpt>
      <trkpt lat="46.06598" lon="6.76154">
        <ele>1178.5</ele>
        <time>2026-06-26T06:55:57Z</time>
      </trkpt>
      <trkpt lat="46.06598" lon="6.76153">
        <ele>1178.5</ele>
        <time>2026-06-26T06:55:58Z</time>
      </trkpt>
      <trkpt lat="46.06598" lon="6.76153">
        <ele>1178.5</ele>
        <time>2026-06-26T06:55:59Z</time>
      </trkpt>
      <trkpt lat="46.06598" lon="6.76153">
        <ele>1178.5</ele>
        <time>2026-06-26T06:56:00Z</time>
      </trkpt>
      <trkpt lat="46.06598" lon="6.76153">
        <ele>1178.6</ele>
        <time>2026-06-26T06:56:01Z</time>
      </trkpt>
      <trkpt lat="46.06598" lon="6.76153">
        <ele>1178.5</ele>
        <time>2026-06-26T06:56:02Z</time>
      </trkpt>
      <trkpt lat="46.06598" lon="6.76153">
        <ele>1178.6</ele>
        <time>2026-06-26T06:56:03Z</time>
      </trkpt>
      <trkpt lat="46.06598" lon="6.76153">
        <ele>1178.6</ele>
        <time>2026-06-26T06:56:04Z</time>
      </trkpt>
      <trkpt lat="46.06598" lon="6.76153">
        <ele>1178.6</ele>
        <time>2026-06-26T06:56:05Z</time>
      </trkpt>
      <trkpt lat="46.06598" lon="6.76153">
        <ele>1178.6</ele>
        <time>2026-06-26T06:56:06Z</time>
      </trkpt>
      <trkpt lat="46.06598" lon="6.76153">
        <ele>1178.7</ele>
        <time>2026-06-26T06:56:07Z</time>
      </trkpt>
      <trkpt lat="46.06598" lon="6.76153">
        <ele>1178.8</ele>
        <time>2026-06-26T06:56:08Z</time>
      </trkpt>
      <trkpt lat="46.06598" lon="6.76153">
        <ele>1178.9</ele>
        <time>2026-06-26T06:56:09Z</time>
      </trkpt>
      <trkpt lat="46.06598" lon="6.76153">
        <ele>1178.9</ele>
        <time>2026-06-26T06:56:10Z</time>
      </trkpt>
      <trkpt lat="46.06598" lon="6.76153">
        <ele>1178.9</ele>
        <time>2026-06-26T06:56:11Z</time>
      </trkpt>
      <trkpt lat="46.06598" lon="6.76153">
        <ele>1178.9</ele>
        <time>2026-06-26T06:56:12Z</time>
      </trkpt>
      <trkpt lat="46.06597" lon="6.76153">
        <ele>1178.8</ele>
        <time>2026-06-26T06:56:13Z</time>
      </trkpt>
      <trkpt lat="46.06597" lon="6.76153">
        <ele>1178.8</ele>
        <time>2026-06-26T06:56:14Z</time>
      </trkpt>
      <trkpt lat="46.06597" lon="6.76153">
        <ele>1178.8</ele>
        <time>2026-06-26T06:56:15Z</time>
      </trkpt>
      <trkpt lat="46.06597" lon="6.76153">
        <ele>1178.8</ele>
        <time>2026-06-26T06:56:16Z</time>
      </trkpt>
      <trkpt lat="46.06597" lon="6.76153">
        <ele>1178.9</ele>
        <time>2026-06-26T06:56:17Z</time>
      </trkpt>
      <trkpt lat="46.06597" lon="6.76153">
        <ele>1178.9</ele>
        <time>2026-06-26T06:56:18Z</time>
      </trkpt>
      <trkpt lat="46.06597" lon="6.76153">
        <ele>1178.9</ele>
        <time>2026-06-26T06:56:19Z</time>
      </trkpt>
      <trkpt lat="46.06597" lon="6.76153">
        <ele>1179</ele>
        <time>2026-06-26T06:56:20Z</time>
      </trkpt>
      <trkpt lat="46.06597" lon="6.76153">
        <ele>1179</ele>
        <time>2026-06-26T06:56:21Z</time>
      </trkpt>
      <trkpt lat="46.06596" lon="6.76153">
        <ele>1179</ele>
        <time>2026-06-26T06:56:22Z</time>
      </trkpt>
      <trkpt lat="46.06596" lon="6.76154">
        <ele>1179.1</ele>
        <time>2026-06-26T06:56:23Z</time>
      </trkpt>
      <trkpt lat="46.06596" lon="6.76154">
        <ele>1179.1</ele>
        <time>2026-06-26T06:56:24Z</time>
      </trkpt>
      <trkpt lat="46.06596" lon="6.76154">
        <ele>1179.1</ele>
        <time>2026-06-26T06:56:25Z</time>
      </trkpt>
      <trkpt lat="46.06596" lon="6.76154">
        <ele>1179.1</ele>
        <time>2026-06-26T06:56:26Z</time>
      </trkpt>
      <trkpt lat="46.06596" lon="6.76154">
        <ele>1179.1</ele>
        <time>2026-06-26T06:56:27Z</time>
      </trkpt>
      <trkpt lat="46.06596" lon="6.76153">
        <ele>1179.1</ele>
        <time>2026-06-26T06:56:28Z</time>
      </trkpt>
      <trkpt lat="46.06596" lon="6.76153">
        <ele>1179.2</ele>
        <time>2026-06-26T06:56:29Z</time>
      </trkpt>
      <trkpt lat="46.06596" lon="6.76153">
        <ele>1179.1</ele>
        <time>2026-06-26T06:56:30Z</time>
      </trkpt>
      <trkpt lat="46.06596" lon="6.76153">
        <ele>1179.1</ele>
        <time>2026-06-26T06:56:31Z</time>
      </trkpt>
      <trkpt lat="46.06596" lon="6.76153">
        <ele>1179</ele>
        <time>2026-06-26T06:56:32Z</time>
      </trkpt>
      <trkpt lat="46.06595" lon="6.76153">
        <ele>1179</ele>
        <time>2026-06-26T06:56:33Z</time>
      </trkpt>
      <trkpt lat="46.06595" lon="6.76153">
        <ele>1178.9</ele>
        <time>2026-06-26T06:56:34Z</time>
      </trkpt>
      <trkpt lat="46.06595" lon="6.76153">
        <ele>1178.9</ele>
        <time>2026-06-26T06:56:35Z</time>
      </trkpt>
      <trkpt lat="46.06595" lon="6.76153">
        <ele>1178.9</ele>
        <time>2026-06-26T06:56:36Z</time>
      </trkpt>
      <trkpt lat="46.06595" lon="6.76152">
        <ele>1178.9</ele>
        <time>2026-06-26T06:56:37Z</time>
      </trkpt>
      <trkpt lat="46.06595" lon="6.76152">
        <ele>1178.9</ele>
        <time>2026-06-26T06:56:38Z</time>
      </trkpt>
      <trkpt lat="46.06595" lon="6.76152">
        <ele>1178.9</ele>
        <time>2026-06-26T06:56:39Z</time>
      </trkpt>
      <trkpt lat="46.06595" lon="6.76152">
        <ele>1178.9</ele>
        <time>2026-06-26T06:56:40Z</time>
      </trkpt>
      <trkpt lat="46.06596" lon="6.76152">
        <ele>1178.9</ele>
        <time>2026-06-26T06:56:41Z</time>
      </trkpt>
      <trkpt lat="46.06596" lon="6.76153">
        <ele>1178.9</ele>
        <time>2026-06-26T06:56:42Z</time>
      </trkpt>
      <trkpt lat="46.06596" lon="6.76153">
        <ele>1178.9</ele>
        <time>2026-06-26T06:56:43Z</time>
      </trkpt>
      <trkpt lat="46.06596" lon="6.76153">
        <ele>1178.9</ele>
        <time>2026-06-26T06:56:44Z</time>
      </trkpt>
      <trkpt lat="46.06596" lon="6.76153">
        <ele>1178.9</ele>
        <time>2026-06-26T06:56:45Z</time>
      </trkpt>
      <trkpt lat="46.06596" lon="6.76153">
        <ele>1178.9</ele>
        <time>2026-06-26T06:56:46Z</time>
      </trkpt>
      <trkpt lat="46.06596" lon="6.76153">
        <ele>1178.8</ele>
        <time>2026-06-26T06:56:47Z</time>
      </trkpt>
      <trkpt lat="46.06596" lon="6.76153">
        <ele>1178.8</ele>
        <time>2026-06-26T06:56:48Z</time>
      </trkpt>
      <trkpt lat="46.06597" lon="6.76153">
        <ele>1178.8</ele>
        <time>2026-06-26T06:56:49Z</time>
      </trkpt>
      <trkpt lat="46.06596" lon="6.76153">
        <ele>1178.8</ele>
        <time>2026-06-26T06:56:50Z</time>
      </trkpt>
      <trkpt lat="46.06597" lon="6.76153">
        <ele>1178.9</ele>
        <time>2026-06-26T06:56:51Z</time>
      </trkpt>
      <trkpt lat="46.06597" lon="6.76154">
        <ele>1178.9</ele>
        <time>2026-06-26T06:56:52Z</time>
      </trkpt>
      <trkpt lat="46.06596" lon="6.76154">
        <ele>1178.8</ele>
        <time>2026-06-26T06:56:53Z</time>
      </trkpt>
      <trkpt lat="46.06596" lon="6.76154">
        <ele>1179</ele>
        <time>2026-06-26T06:56:54Z</time>
      </trkpt>
      <trkpt lat="46.06597" lon="6.76154">
        <ele>1179</ele>
        <time>2026-06-26T06:56:55Z</time>
      </trkpt>
      <trkpt lat="46.06596" lon="6.76154">
        <ele>1179.1</ele>
        <time>2026-06-26T06:56:56Z</time>
      </trkpt>
      <trkpt lat="46.06596" lon="6.76153">
        <ele>1179.1</ele>
        <time>2026-06-26T06:56:57Z</time>
      </trkpt>
      <trkpt lat="46.06596" lon="6.76153">
        <ele>1179.1</ele>
        <time>2026-06-26T06:56:58Z</time>
      </trkpt>
      <trkpt lat="46.06596" lon="6.76153">
        <ele>1179</ele>
        <time>2026-06-26T06:56:59Z</time>
      </trkpt>
      <trkpt lat="46.06595" lon="6.76152">
        <ele>1179</ele>
        <time>2026-06-26T06:57:00Z</time>
      </trkpt>
      <trkpt lat="46.06595" lon="6.76152">
        <ele>1179</ele>
        <time>2026-06-26T06:57:01Z</time>
      </trkpt>
      <trkpt lat="46.06595" lon="6.76152">
        <ele>1179.1</ele>
        <time>2026-06-26T06:57:02Z</time>
      </trkpt>
      <trkpt lat="46.06595" lon="6.76152">
        <ele>1179</ele>
        <time>2026-06-26T06:57:03Z</time>
      </trkpt>
      <trkpt lat="46.06595" lon="6.76151">
        <ele>1179</ele>
        <time>2026-06-26T06:57:04Z</time>
      </trkpt>
      <trkpt lat="46.06596" lon="6.76151">
        <ele>1179</ele>
        <time>2026-06-26T06:57:05Z</time>
      </trkpt>
      <trkpt lat="46.06596" lon="6.76151">
        <ele>1179</ele>
        <time>2026-06-26T06:57:06Z</time>
      </trkpt>
      <trkpt lat="46.06596" lon="6.76151">
        <ele>1179</ele>
        <time>2026-06-26T06:57:07Z</time>
      </trkpt>
      <trkpt lat="46.06596" lon="6.76151">
        <ele>1179</ele>
        <time>2026-06-26T06:57:08Z</time>
      </trkpt>
      <trkpt lat="46.06596" lon="6.76151">
        <ele>1179.1</ele>
        <time>2026-06-26T06:57:09Z</time>
      </trkpt>
      <trkpt lat="46.06596" lon="6.76151">
        <ele>1179.1</ele>
        <time>2026-06-26T06:57:10Z</time>
      </trkpt>
      <trkpt lat="46.06596" lon="6.76151">
        <ele>1179.1</ele>
        <time>2026-06-26T06:57:11Z</time>
      </trkpt>
      <trkpt lat="46.06597" lon="6.76151">
        <ele>1179.1</ele>
        <time>2026-06-26T06:57:12Z</time>
      </trkpt>
      <trkpt lat="46.06597" lon="6.76152">
        <ele>1179.1</ele>
        <time>2026-06-26T06:57:13Z</time>
      </trkpt>
      <trkpt lat="46.06597" lon="6.76152">
        <ele>1179.1</ele>
        <time>2026-06-26T06:57:14Z</time>
      </trkpt>
      <trkpt lat="46.06597" lon="6.76152">
        <ele>1179</ele>
        <time>2026-06-26T06:57:15Z</time>
      </trkpt>
      <trkpt lat="46.06597" lon="6.76152">
        <ele>1179</ele>
        <time>2026-06-26T06:57:16Z</time>
      </trkpt>
      <trkpt lat="46.06597" lon="6.76152">
        <ele>1179</ele>
        <time>2026-06-26T06:57:17Z</time>
      </trkpt>
      <trkpt lat="46.06598" lon="6.76152">
        <ele>1179</ele>
        <time>2026-06-26T06:57:18Z</time>
      </trkpt>
      <trkpt lat="46.06598" lon="6.76153">
        <ele>1179</ele>
        <time>2026-06-26T06:57:19Z</time>
      </trkpt>
      <trkpt lat="46.06597" lon="6.76153">
        <ele>1179</ele>
        <time>2026-06-26T06:57:20Z</time>
      </trkpt>
      <trkpt lat="46.06597" lon="6.76153">
        <ele>1179.1</ele>
        <time>2026-06-26T06:57:21Z</time>
      </trkpt>
      <trkpt lat="46.06597" lon="6.76153">
        <ele>1179.1</ele>
        <time>2026-06-26T06:57:22Z</time>
      </trkpt>
      <trkpt lat="46.06597" lon="6.76153">
        <ele>1179.1</ele>
        <time>2026-06-26T06:57:23Z</time>
      </trkpt>
      <trkpt lat="46.06597" lon="6.76153">
        <ele>1179.1</ele>
        <time>2026-06-26T06:57:24Z</time>
      </trkpt>
      <trkpt lat="46.06597" lon="6.76153">
        <ele>1179.1</ele>
        <time>2026-06-26T06:57:25Z</time>
      </trkpt>
      <trkpt lat="46.06597" lon="6.76153">
        <ele>1179.1</ele>
        <time>2026-06-26T06:57:26Z</time>
      </trkpt>
      <trkpt lat="46.06597" lon="6.76153">
        <ele>1179.1</ele>
        <time>2026-06-26T06:57:27Z</time>
      </trkpt>
      <trkpt lat="46.06597" lon="6.76153">
        <ele>1179.1</ele>
        <time>2026-06-26T06:57:28Z</time>
      </trkpt>
      <trkpt lat="46.06597" lon="6.76154">
        <ele>1179</ele>
        <time>2026-06-26T06:57:29Z</time>
      </trkpt>
      <trkpt lat="46.06597" lon="6.76154">
        <ele>1178.8</ele>
        <time>2026-06-26T06:57:30Z</time>
      </trkpt>
      <trkpt lat="46.06597" lon="6.76154">
        <ele>1178.8</ele>
        <time>2026-06-26T06:57:31Z</time>
      </trkpt>
      <trkpt lat="46.06597" lon="6.76154">
        <ele>1178.8</ele>
        <time>2026-06-26T06:57:32Z</time>
      </trkpt>
      <trkpt lat="46.06597" lon="6.76154">
        <ele>1178.7</ele>
        <time>2026-06-26T06:57:33Z</time>
      </trkpt>
      <trkpt lat="46.06597" lon="6.76154">
        <ele>1178.8</ele>
        <time>2026-06-26T06:57:34Z</time>
      </trkpt>
      <trkpt lat="46.06597" lon="6.76154">
        <ele>1178.7</ele>
        <time>2026-06-26T06:57:35Z</time>
      </trkpt>
      <trkpt lat="46.06597" lon="6.76153">
        <ele>1178.7</ele>
        <time>2026-06-26T06:57:36Z</time>
      </trkpt>
      <trkpt lat="46.06597" lon="6.76153">
        <ele>1178.7</ele>
        <time>2026-06-26T06:57:37Z</time>
      </trkpt>
      <trkpt lat="46.06597" lon="6.76153">
        <ele>1178.8</ele>
        <time>2026-06-26T06:57:38Z</time>
      </trkpt>
      <trkpt lat="46.06597" lon="6.76153">
        <ele>1178.7</ele>
        <time>2026-06-26T06:57:39Z</time>
      </trkpt>
      <trkpt lat="46.06597" lon="6.76153">
        <ele>1178.7</ele>
        <time>2026-06-26T06:57:40Z</time>
      </trkpt>
      <trkpt lat="46.06597" lon="6.76153">
        <ele>1178.7</ele>
        <time>2026-06-26T06:57:41Z</time>
      </trkpt>
      <trkpt lat="46.06597" lon="6.76153">
        <ele>1178.6</ele>
        <time>2026-06-26T06:57:42Z</time>
      </trkpt>
      <trkpt lat="46.06596" lon="6.76153">
        <ele>1178.6</ele>
        <time>2026-06-26T06:57:43Z</time>
      </trkpt>
      <trkpt lat="46.06596" lon="6.76153">
        <ele>1178.6</ele>
        <time>2026-06-26T06:57:44Z</time>
      </trkpt>
      <trkpt lat="46.06596" lon="6.76152">
        <ele>1178.7</ele>
        <time>2026-06-26T06:57:45Z</time>
      </trkpt>
      <trkpt lat="46.06596" lon="6.76152">
        <ele>1178.6</ele>
        <time>2026-06-26T06:57:46Z</time>
      </trkpt>
      <trkpt lat="46.06596" lon="6.76152">
        <ele>1178.5</ele>
        <time>2026-06-26T06:57:47Z</time>
      </trkpt>
      <trkpt lat="46.06596" lon="6.76153">
        <ele>1178.5</ele>
        <time>2026-06-26T06:57:48Z</time>
      </trkpt>
      <trkpt lat="46.06596" lon="6.76152">
        <ele>1178.4</ele>
        <time>2026-06-26T06:57:49Z</time>
      </trkpt>
      <trkpt lat="46.06596" lon="6.76153">
        <ele>1178.4</ele>
        <time>2026-06-26T06:57:50Z</time>
      </trkpt>
      <trkpt lat="46.06596" lon="6.76153">
        <ele>1178.4</ele>
        <time>2026-06-26T06:57:51Z</time>
      </trkpt>
      <trkpt lat="46.06596" lon="6.76153">
        <ele>1178.5</ele>
        <time>2026-06-26T06:57:52Z</time>
      </trkpt>
      <trkpt lat="46.06596" lon="6.76153">
        <ele>1178.5</ele>
        <time>2026-06-26T06:57:53Z</time>
      </trkpt>
      <trkpt lat="46.06596" lon="6.76153">
        <ele>1178.5</ele>
        <time>2026-06-26T06:57:54Z</time>
      </trkpt>
      <trkpt lat="46.06596" lon="6.76153">
        <ele>1178.6</ele>
        <time>2026-06-26T06:57:55Z</time>
      </trkpt>
      <trkpt lat="46.06596" lon="6.76153">
        <ele>1178.6</ele>
        <time>2026-06-26T06:57:56Z</time>
      </trkpt>
      <trkpt lat="46.06596" lon="6.76153">
        <ele>1178.6</ele>
        <time>2026-06-26T06:57:57Z</time>
      </trkpt>
      <trkpt lat="46.06596" lon="6.76153">
        <ele>1178.5</ele>
        <time>2026-06-26T06:57:58Z</time>
      </trkpt>
      <trkpt lat="46.06596" lon="6.76153">
        <ele>1178.5</ele>
        <time>2026-06-26T06:57:59Z</time>
      </trkpt>
      <trkpt lat="46.06596" lon="6.76153">
        <ele>1178.5</ele>
        <time>2026-06-26T06:58:00Z</time>
      </trkpt>
      <trkpt lat="46.06596" lon="6.76153">
        <ele>1178.5</ele>
        <time>2026-06-26T06:58:01Z</time>
      </trkpt>
      <trkpt lat="46.06596" lon="6.76153">
        <ele>1178.5</ele>
        <time>2026-06-26T06:58:02Z</time>
      </trkpt>
      <trkpt lat="46.06596" lon="6.76153">
        <ele>1178.5</ele>
        <time>2026-06-26T06:58:03Z</time>
      </trkpt>
      <trkpt lat="46.06595" lon="6.76152">
        <ele>1178.5</ele>
        <time>2026-06-26T06:58:04Z</time>
      </trkpt>
      <trkpt lat="46.06595" lon="6.76152">
        <ele>1178.5</ele>
        <time>2026-06-26T06:58:05Z</time>
      </trkpt>
      <trkpt lat="46.06595" lon="6.76152">
        <ele>1178.5</ele>
        <time>2026-06-26T06:58:06Z</time>
      </trkpt>
      <trkpt lat="46.06595" lon="6.76152">
        <ele>1178.4</ele>
        <time>2026-06-26T06:58:07Z</time>
      </trkpt>
      <trkpt lat="46.06595" lon="6.76152">
        <ele>1178.4</ele>
        <time>2026-06-26T06:58:08Z</time>
      </trkpt>
      <trkpt lat="46.06595" lon="6.76152">
        <ele>1178.5</ele>
        <time>2026-06-26T06:58:09Z</time>
      </trkpt>
      <trkpt lat="46.06595" lon="6.76152">
        <ele>1178.5</ele>
        <time>2026-06-26T06:58:10Z</time>
      </trkpt>
      <trkpt lat="46.06595" lon="6.76152">
        <ele>1178.6</ele>
        <time>2026-06-26T06:58:11Z</time>
      </trkpt>
      <trkpt lat="46.06595" lon="6.76153">
        <ele>1178.6</ele>
        <time>2026-06-26T06:58:12Z</time>
      </trkpt>
      <trkpt lat="46.06595" lon="6.76152">
        <ele>1178.5</ele>
        <time>2026-06-26T06:58:13Z</time>
      </trkpt>
      <trkpt lat="46.06595" lon="6.76153">
        <ele>1178.6</ele>
        <time>2026-06-26T06:58:14Z</time>
      </trkpt>
      <trkpt lat="46.06596" lon="6.76152">
        <ele>1178.6</ele>
        <time>2026-06-26T06:58:15Z</time>
      </trkpt>
      <trkpt lat="46.06596" lon="6.76152">
        <ele>1178.6</ele>
        <time>2026-06-26T06:58:16Z</time>
      </trkpt>
      <trkpt lat="46.06596" lon="6.76152">
        <ele>1178.8</ele>
        <time>2026-06-26T06:58:17Z</time>
      </trkpt>
      <trkpt lat="46.06596" lon="6.76152">
        <ele>1178.8</ele>
        <time>2026-06-26T06:58:18Z</time>
      </trkpt>
      <trkpt lat="46.06596" lon="6.76152">
        <ele>1178.8</ele>
        <time>2026-06-26T06:58:19Z</time>
      </trkpt>
      <trkpt lat="46.06596" lon="6.76153">
        <ele>1178.8</ele>
        <time>2026-06-26T06:58:20Z</time>
      </trkpt>
      <trkpt lat="46.06596" lon="6.76153">
        <ele>1178.8</ele>
        <time>2026-06-26T06:58:21Z</time>
      </trkpt>
      <trkpt lat="46.06596" lon="6.76153">
        <ele>1178.9</ele>
        <time>2026-06-26T06:58:22Z</time>
      </trkpt>
      <trkpt lat="46.06596" lon="6.76153">
        <ele>1178.9</ele>
        <time>2026-06-26T06:58:23Z</time>
      </trkpt>
      <trkpt lat="46.06596" lon="6.76153">
        <ele>1178.9</ele>
        <time>2026-06-26T06:58:24Z</time>
      </trkpt>
      <trkpt lat="46.06596" lon="6.76154">
        <ele>1178.9</ele>
        <time>2026-06-26T06:58:25Z</time>
      </trkpt>
      <trkpt lat="46.06597" lon="6.76154">
        <ele>1178.9</ele>
        <time>2026-06-26T06:58:26Z</time>
      </trkpt>
      <trkpt lat="46.06597" lon="6.76154">
        <ele>1178.8</ele>
        <time>2026-06-26T06:58:27Z</time>
      </trkpt>
      <trkpt lat="46.06598" lon="6.76155">
        <ele>1178.8</ele>
        <time>2026-06-26T06:58:28Z</time>
      </trkpt>
      <trkpt lat="46.06598" lon="6.76155">
        <ele>1178.7</ele>
        <time>2026-06-26T06:58:29Z</time>
      </trkpt>
      <trkpt lat="46.06599" lon="6.76156">
        <ele>1178.7</ele>
        <time>2026-06-26T06:58:30Z</time>
      </trkpt>
      <trkpt lat="46.06599" lon="6.76156">
        <ele>1178.8</ele>
        <time>2026-06-26T06:58:31Z</time>
      </trkpt>
      <trkpt lat="46.06599" lon="6.76156">
        <ele>1179</ele>
        <time>2026-06-26T06:58:32Z</time>
      </trkpt>
      <trkpt lat="46.066" lon="6.76156">
        <ele>1179</ele>
        <time>2026-06-26T06:58:33Z</time>
      </trkpt>
      <trkpt lat="46.066" lon="6.76156">
        <ele>1179</ele>
        <time>2026-06-26T06:58:34Z</time>
      </trkpt>
      <trkpt lat="46.066" lon="6.76156">
        <ele>1179</ele>
        <time>2026-06-26T06:58:35Z</time>
      </trkpt>
      <trkpt lat="46.066" lon="6.76156">
        <ele>1179</ele>
        <time>2026-06-26T06:58:36Z</time>
      </trkpt>
      <trkpt lat="46.066" lon="6.76156">
        <ele>1179</ele>
        <time>2026-06-26T06:58:37Z</time>
      </trkpt>
      <trkpt lat="46.066" lon="6.76156">
        <ele>1179</ele>
        <time>2026-06-26T06:58:38Z</time>
      </trkpt>
      <trkpt lat="46.06599" lon="6.76155">
        <ele>1178.9</ele>
        <time>2026-06-26T06:58:39Z</time>
      </trkpt>
      <trkpt lat="46.06599" lon="6.76155">
        <ele>1178.9</ele>
        <time>2026-06-26T06:58:40Z</time>
      </trkpt>
      <trkpt lat="46.066" lon="6.76156">
        <ele>1178.9</ele>
        <time>2026-06-26T06:58:41Z</time>
      </trkpt>
      <trkpt lat="46.066" lon="6.76156">
        <ele>1178.9</ele>
        <time>2026-06-26T06:58:42Z</time>
      </trkpt>
      <trkpt lat="46.066" lon="6.76156">
        <ele>1178.9</ele>
        <time>2026-06-26T06:58:43Z</time>
      </trkpt>
      <trkpt lat="46.066" lon="6.76156">
        <ele>1179</ele>
        <time>2026-06-26T06:58:44Z</time>
      </trkpt>
      <trkpt lat="46.066" lon="6.76156">
        <ele>1179</ele>
        <time>2026-06-26T06:58:45Z</time>
      </trkpt>
      <trkpt lat="46.066" lon="6.76157">
        <ele>1179</ele>
        <time>2026-06-26T06:58:46Z</time>
      </trkpt>
      <trkpt lat="46.06601" lon="6.76156">
        <ele>1179</ele>
        <time>2026-06-26T06:58:47Z</time>
      </trkpt>
      <trkpt lat="46.06601" lon="6.76157">
        <ele>1179</ele>
        <time>2026-06-26T06:58:48Z</time>
      </trkpt>
      <trkpt lat="46.066" lon="6.76156">
        <ele>1179</ele>
        <time>2026-06-26T06:58:49Z</time>
      </trkpt>
      <trkpt lat="46.066" lon="6.76156">
        <ele>1178.9</ele>
        <time>2026-06-26T06:58:50Z</time>
      </trkpt>
      <trkpt lat="46.066" lon="6.76156">
        <ele>1178.9</ele>
        <time>2026-06-26T06:58:51Z</time>
      </trkpt>
      <trkpt lat="46.066" lon="6.76156">
        <ele>1178.9</ele>
        <time>2026-06-26T06:58:52Z</time>
      </trkpt>
      <trkpt lat="46.066" lon="6.76157">
        <ele>1178.9</ele>
        <time>2026-06-26T06:58:53Z</time>
      </trkpt>
      <trkpt lat="46.06599" lon="6.76156">
        <ele>1178.9</ele>
        <time>2026-06-26T06:58:54Z</time>
      </trkpt>
      <trkpt lat="46.06599" lon="6.76155">
        <ele>1178.9</ele>
        <time>2026-06-26T06:58:55Z</time>
      </trkpt>
      <trkpt lat="46.06598" lon="6.76155">
        <ele>1179</ele>
        <time>2026-06-26T06:58:56Z</time>
      </trkpt>
      <trkpt lat="46.06598" lon="6.76156">
        <ele>1179.1</ele>
        <time>2026-06-26T06:58:57Z</time>
      </trkpt>
      <trkpt lat="46.06598" lon="6.76157">
        <ele>1179.1</ele>
        <time>2026-06-26T06:58:58Z</time>
      </trkpt>
      <trkpt lat="46.06598" lon="6.76158">
        <ele>1179.2</ele>
        <time>2026-06-26T06:58:59Z</time>
      </trkpt>
      <trkpt lat="46.06598" lon="6.76158">
        <ele>1179.2</ele>
        <time>2026-06-26T06:59:00Z</time>
      </trkpt>
      <trkpt lat="46.06598" lon="6.76159">
        <ele>1179.2</ele>
        <time>2026-06-26T06:59:01Z</time>
      </trkpt>
      <trkpt lat="46.06598" lon="6.76159">
        <ele>1179.2</ele>
        <time>2026-06-26T06:59:02Z</time>
      </trkpt>
      <trkpt lat="46.06598" lon="6.76159">
        <ele>1179.2</ele>
        <time>2026-06-26T06:59:03Z</time>
      </trkpt>
      <trkpt lat="46.06598" lon="6.76158">
        <ele>1179.3</ele>
        <time>2026-06-26T06:59:04Z</time>
      </trkpt>
      <trkpt lat="46.06598" lon="6.76158">
        <ele>1179.3</ele>
        <time>2026-06-26T06:59:05Z</time>
      </trkpt>
      <trkpt lat="46.06599" lon="6.76158">
        <ele>1179.3</ele>
        <time>2026-06-26T06:59:06Z</time>
      </trkpt>
      <trkpt lat="46.06599" lon="6.76157">
        <ele>1179.3</ele>
        <time>2026-06-26T06:59:07Z</time>
      </trkpt>
      <trkpt lat="46.06599" lon="6.76157">
        <ele>1179.3</ele>
        <time>2026-06-26T06:59:08Z</time>
      </trkpt>
      <trkpt lat="46.06599" lon="6.76157">
        <ele>1179.3</ele>
        <time>2026-06-26T06:59:09Z</time>
      </trkpt>
      <trkpt lat="46.06599" lon="6.76156">
        <ele>1179.3</ele>
        <time>2026-06-26T06:59:10Z</time>
      </trkpt>
      <trkpt lat="46.06599" lon="6.76156">
        <ele>1179.3</ele>
        <time>2026-06-26T06:59:11Z</time>
      </trkpt>
      <trkpt lat="46.06599" lon="6.76155">
        <ele>1179.3</ele>
        <time>2026-06-26T06:59:12Z</time>
      </trkpt>
      <trkpt lat="46.06599" lon="6.76155">
        <ele>1179.3</ele>
        <time>2026-06-26T06:59:13Z</time>
      </trkpt>
      <trkpt lat="46.06599" lon="6.76154">
        <ele>1179.3</ele>
        <time>2026-06-26T06:59:14Z</time>
      </trkpt>
      <trkpt lat="46.06599" lon="6.76154">
        <ele>1179.2</ele>
        <time>2026-06-26T06:59:15Z</time>
      </trkpt>
      <trkpt lat="46.06599" lon="6.76153">
        <ele>1179.2</ele>
        <time>2026-06-26T06:59:16Z</time>
      </trkpt>
      <trkpt lat="46.06599" lon="6.76153">
        <ele>1179.2</ele>
        <time>2026-06-26T06:59:17Z</time>
      </trkpt>
      <trkpt lat="46.06599" lon="6.76152">
        <ele>1179.1</ele>
        <time>2026-06-26T06:59:18Z</time>
      </trkpt>
      <trkpt lat="46.06598" lon="6.76152">
        <ele>1179.1</ele>
        <time>2026-06-26T06:59:19Z</time>
      </trkpt>
      <trkpt lat="46.06598" lon="6.76151">
        <ele>1179.1</ele>
        <time>2026-06-26T06:59:20Z</time>
      </trkpt>
      <trkpt lat="46.06598" lon="6.76151">
        <ele>1179.1</ele>
        <time>2026-06-26T06:59:21Z</time>
      </trkpt>
      <trkpt lat="46.06598" lon="6.76151">
        <ele>1179.1</ele>
        <time>2026-06-26T06:59:22Z</time>
      </trkpt>
      <trkpt lat="46.06598" lon="6.7615">
        <ele>1179.1</ele>
        <time>2026-06-26T06:59:23Z</time>
      </trkpt>
      <trkpt lat="46.06598" lon="6.7615">
        <ele>1179.2</ele>
        <time>2026-06-26T06:59:24Z</time>
      </trkpt>
      <trkpt lat="46.06598" lon="6.76151">
        <ele>1179.1</ele>
        <time>2026-06-26T06:59:25Z</time>
      </trkpt>
      <trkpt lat="46.06598" lon="6.76151">
        <ele>1179.2</ele>
        <time>2026-06-26T06:59:26Z</time>
      </trkpt>
      <trkpt lat="46.06597" lon="6.76152">
        <ele>1179.1</ele>
        <time>2026-06-26T06:59:27Z</time>
      </trkpt>
      <trkpt lat="46.06597" lon="6.76153">
        <ele>1179.1</ele>
        <time>2026-06-26T06:59:28Z</time>
      </trkpt>
      <trkpt lat="46.06598" lon="6.76153">
        <ele>1179.2</ele>
        <time>2026-06-26T06:59:29Z</time>
      </trkpt>
      <trkpt lat="46.06597" lon="6.76153">
        <ele>1179.2</ele>
        <time>2026-06-26T06:59:30Z</time>
      </trkpt>
      <trkpt lat="46.06597" lon="6.76154">
        <ele>1179.2</ele>
        <time>2026-06-26T06:59:31Z</time>
      </trkpt>
      <trkpt lat="46.06597" lon="6.76154">
        <ele>1179.3</ele>
        <time>2026-06-26T06:59:32Z</time>
      </trkpt>
      <trkpt lat="46.06597" lon="6.76155">
        <ele>1179.3</ele>
        <time>2026-06-26T06:59:33Z</time>
      </trkpt>
      <trkpt lat="46.06597" lon="6.76156">
        <ele>1179.3</ele>
        <time>2026-06-26T06:59:34Z</time>
      </trkpt>
      <trkpt lat="46.06597" lon="6.76155">
        <ele>1179.3</ele>
        <time>2026-06-26T06:59:35Z</time>
      </trkpt>
      <trkpt lat="46.06597" lon="6.76155">
        <ele>1179.2</ele>
        <time>2026-06-26T06:59:36Z</time>
      </trkpt>
      <trkpt lat="46.06597" lon="6.76155">
        <ele>1179.2</ele>
        <time>2026-06-26T06:59:37Z</time>
      </trkpt>
      <trkpt lat="46.06597" lon="6.76155">
        <ele>1179.2</ele>
        <time>2026-06-26T06:59:38Z</time>
      </trkpt>
      <trkpt lat="46.06597" lon="6.76155">
        <ele>1179.2</ele>
        <time>2026-06-26T06:59:39Z</time>
      </trkpt>
      <trkpt lat="46.06597" lon="6.76155">
        <ele>1179.2</ele>
        <time>2026-06-26T06:59:40Z</time>
      </trkpt>
      <trkpt lat="46.06597" lon="6.76155">
        <ele>1179.2</ele>
        <time>2026-06-26T06:59:41Z</time>
      </trkpt>
      <trkpt lat="46.06597" lon="6.76156">
        <ele>1179.2</ele>
        <time>2026-06-26T06:59:42Z</time>
      </trkpt>
      <trkpt lat="46.06597" lon="6.76156">
        <ele>1179.3</ele>
        <time>2026-06-26T06:59:43Z</time>
      </trkpt>
      <trkpt lat="46.06597" lon="6.76156">
        <ele>1179.3</ele>
        <time>2026-06-26T06:59:44Z</time>
      </trkpt>
      <trkpt lat="46.06597" lon="6.76156">
        <ele>1179.3</ele>
        <time>2026-06-26T06:59:45Z</time>
      </trkpt>
      <trkpt lat="46.06597" lon="6.76156">
        <ele>1179.3</ele>
        <time>2026-06-26T06:59:46Z</time>
      </trkpt>
      <trkpt lat="46.06598" lon="6.76156">
        <ele>1179.4</ele>
        <time>2026-06-26T06:59:47Z</time>
      </trkpt>
      <trkpt lat="46.06598" lon="6.76157">
        <ele>1179.4</ele>
        <time>2026-06-26T06:59:48Z</time>
      </trkpt>
      <trkpt lat="46.06598" lon="6.76157">
        <ele>1179.4</ele>
        <time>2026-06-26T06:59:49Z</time>
      </trkpt>
      <trkpt lat="46.06598" lon="6.76157">
        <ele>1179.4</ele>
        <time>2026-06-26T06:59:50Z</time>
      </trkpt>
      <trkpt lat="46.06598" lon="6.76157">
        <ele>1179.4</ele>
        <time>2026-06-26T06:59:51Z</time>
      </trkpt>
      <trkpt lat="46.06598" lon="6.76157">
        <ele>1179.4</ele>
        <time>2026-06-26T06:59:52Z</time>
      </trkpt>
      <trkpt lat="46.06598" lon="6.76158">
        <ele>1179.3</ele>
        <time>2026-06-26T06:59:53Z</time>
      </trkpt>
      <trkpt lat="46.06599" lon="6.76158">
        <ele>1179.4</ele>
        <time>2026-06-26T06:59:54Z</time>
      </trkpt>
      <trkpt lat="46.06599" lon="6.76158">
        <ele>1179.4</ele>
        <time>2026-06-26T06:59:55Z</time>
      </trkpt>
      <trkpt lat="46.06599" lon="6.76158">
        <ele>1179.3</ele>
        <time>2026-06-26T06:59:56Z</time>
      </trkpt>
      <trkpt lat="46.06599" lon="6.76158">
        <ele>1179.3</ele>
        <time>2026-06-26T06:59:57Z</time>
      </trkpt>
      <trkpt lat="46.06599" lon="6.76158">
        <ele>1179.3</ele>
        <time>2026-06-26T06:59:58Z</time>
      </trkpt>
      <trkpt lat="46.06599" lon="6.76158">
        <ele>1179.4</ele>
        <time>2026-06-26T06:59:59Z</time>
      </trkpt>
      <trkpt lat="46.06599" lon="6.76158">
        <ele>1179.4</ele>
        <time>2026-06-26T07:00:00Z</time>
      </trkpt>
      <trkpt lat="46.06599" lon="6.76159">
        <ele>1179.5</ele>
        <time>2026-06-26T07:00:01Z</time>
      </trkpt>
      <trkpt lat="46.06599" lon="6.76158">
        <ele>1179.5</ele>
        <time>2026-06-26T07:00:02Z</time>
      </trkpt>
      <trkpt lat="46.06599" lon="6.76158">
        <ele>1179.5</ele>
        <time>2026-06-26T07:00:03Z</time>
      </trkpt>
      <trkpt lat="46.06599" lon="6.76157">
        <ele>1179.6</ele>
        <time>2026-06-26T07:00:04Z</time>
      </trkpt>
      <trkpt lat="46.06599" lon="6.76157">
        <ele>1179.6</ele>
        <time>2026-06-26T07:00:05Z</time>
      </trkpt>
      <trkpt lat="46.066" lon="6.76157">
        <ele>1179.5</ele>
        <time>2026-06-26T07:00:06Z</time>
      </trkpt>
      <trkpt lat="46.06599" lon="6.76157">
        <ele>1179.5</ele>
        <time>2026-06-26T07:00:07Z</time>
      </trkpt>
      <trkpt lat="46.06599" lon="6.76156">
        <ele>1179.5</ele>
        <time>2026-06-26T07:00:08Z</time>
      </trkpt>
      <trkpt lat="46.06599" lon="6.76156">
        <ele>1179.3</ele>
        <time>2026-06-26T07:00:09Z</time>
      </trkpt>
      <trkpt lat="46.06599" lon="6.76156">
        <ele>1179.2</ele>
        <time>2026-06-26T07:00:10Z</time>
      </trkpt>
      <trkpt lat="46.06599" lon="6.76155">
        <ele>1179.2</ele>
        <time>2026-06-26T07:00:11Z</time>
      </trkpt>
      <trkpt lat="46.06599" lon="6.76155">
        <ele>1179.2</ele>
        <time>2026-06-26T07:00:12Z</time>
      </trkpt>
      <trkpt lat="46.06599" lon="6.76155">
        <ele>1179.3</ele>
        <time>2026-06-26T07:00:13Z</time>
      </trkpt>
      <trkpt lat="46.06599" lon="6.76155">
        <ele>1179.3</ele>
        <time>2026-06-26T07:00:14Z</time>
      </trkpt>
      <trkpt lat="46.066" lon="6.76155">
        <ele>1179.2</ele>
        <time>2026-06-26T07:00:15Z</time>
      </trkpt>
      <trkpt lat="46.06599" lon="6.76155">
        <ele>1179.2</ele>
        <time>2026-06-26T07:00:16Z</time>
      </trkpt>
      <trkpt lat="46.066" lon="6.76155">
        <ele>1179.2</ele>
        <time>2026-06-26T07:00:17Z</time>
      </trkpt>
      <trkpt lat="46.066" lon="6.76155">
        <ele>1179.2</ele>
        <time>2026-06-26T07:00:18Z</time>
      </trkpt>
      <trkpt lat="46.066" lon="6.76155">
        <ele>1179.2</ele>
        <time>2026-06-26T07:00:19Z</time>
      </trkpt>
      <trkpt lat="46.066" lon="6.76156">
        <ele>1179.2</ele>
        <time>2026-06-26T07:00:20Z</time>
      </trkpt>
      <trkpt lat="46.066" lon="6.76156">
        <ele>1179.1</ele>
        <time>2026-06-26T07:00:21Z</time>
      </trkpt>
      <trkpt lat="46.066" lon="6.76156">
        <ele>1179.1</ele>
        <time>2026-06-26T07:00:22Z</time>
      </trkpt>
      <trkpt lat="46.066" lon="6.76155">
        <ele>1179.1</ele>
        <time>2026-06-26T07:00:23Z</time>
      </trkpt>
      <trkpt lat="46.066" lon="6.76154">
        <ele>1179.2</ele>
        <time>2026-06-26T07:00:24Z</time>
      </trkpt>
      <trkpt lat="46.066" lon="6.76153">
        <ele>1179.1</ele>
        <time>2026-06-26T07:00:25Z</time>
      </trkpt>
      <trkpt lat="46.06601" lon="6.76153">
        <ele>1179</ele>
        <time>2026-06-26T07:00:26Z</time>
      </trkpt>
      <trkpt lat="46.06601" lon="6.76151">
        <ele>1178.9</ele>
        <time>2026-06-26T07:00:27Z</time>
      </trkpt>
      <trkpt lat="46.06601" lon="6.7615">
        <ele>1178.8</ele>
        <time>2026-06-26T07:00:28Z</time>
      </trkpt>
      <trkpt lat="46.06602" lon="6.76149">
        <ele>1178.8</ele>
        <time>2026-06-26T07:00:29Z</time>
      </trkpt>
      <trkpt lat="46.06602" lon="6.76149">
        <ele>1178.6</ele>
        <time>2026-06-26T07:00:30Z</time>
      </trkpt>
      <trkpt lat="46.06602" lon="6.76149">
        <ele>1178.5</ele>
        <time>2026-06-26T07:00:31Z</time>
      </trkpt>
      <trkpt lat="46.06602" lon="6.76149">
        <ele>1178.5</ele>
        <time>2026-06-26T07:00:32Z</time>
      </trkpt>
      <trkpt lat="46.06602" lon="6.76149">
        <ele>1178.5</ele>
        <time>2026-06-26T07:00:33Z</time>
      </trkpt>
      <trkpt lat="46.06602" lon="6.76149">
        <ele>1178.5</ele>
        <time>2026-06-26T07:00:34Z</time>
      </trkpt>
      <trkpt lat="46.06602" lon="6.76149">
        <ele>1178.4</ele>
        <time>2026-06-26T07:00:35Z</time>
      </trkpt>
      <trkpt lat="46.06602" lon="6.76149">
        <ele>1178.4</ele>
        <time>2026-06-26T07:00:36Z</time>
      </trkpt>
      <trkpt lat="46.06602" lon="6.76149">
        <ele>1178.4</ele>
        <time>2026-06-26T07:00:37Z</time>
      </trkpt>
      <trkpt lat="46.06602" lon="6.76149">
        <ele>1178.3</ele>
        <time>2026-06-26T07:00:38Z</time>
      </trkpt>
      <trkpt lat="46.06602" lon="6.7615">
        <ele>1178.3</ele>
        <time>2026-06-26T07:00:39Z</time>
      </trkpt>
      <trkpt lat="46.06603" lon="6.76149">
        <ele>1178.3</ele>
        <time>2026-06-26T07:00:40Z</time>
      </trkpt>
      <trkpt lat="46.06603" lon="6.76149">
        <ele>1178.2</ele>
        <time>2026-06-26T07:00:41Z</time>
      </trkpt>
      <trkpt lat="46.06603" lon="6.76148">
        <ele>1178.2</ele>
        <time>2026-06-26T07:00:42Z</time>
      </trkpt>
      <trkpt lat="46.06603" lon="6.76148">
        <ele>1178.2</ele>
        <time>2026-06-26T07:00:43Z</time>
      </trkpt>
      <trkpt lat="46.06603" lon="6.76148">
        <ele>1178.2</ele>
        <time>2026-06-26T07:00:44Z</time>
      </trkpt>
      <trkpt lat="46.06602" lon="6.76148">
        <ele>1178.2</ele>
        <time>2026-06-26T07:00:45Z</time>
      </trkpt>
      <trkpt lat="46.06602" lon="6.76148">
        <ele>1178.2</ele>
        <time>2026-06-26T07:00:46Z</time>
      </trkpt>
      <trkpt lat="46.06602" lon="6.76148">
        <ele>1178.2</ele>
        <time>2026-06-26T07:00:47Z</time>
      </trkpt>
      <trkpt lat="46.06602" lon="6.76148">
        <ele>1178.2</ele>
        <time>2026-06-26T07:00:48Z</time>
      </trkpt>
      <trkpt lat="46.06602" lon="6.76148">
        <ele>1178.1</ele>
        <time>2026-06-26T07:00:49Z</time>
      </trkpt>
      <trkpt lat="46.06602" lon="6.76148">
        <ele>1178.2</ele>
        <time>2026-06-26T07:00:50Z</time>
      </trkpt>
      <trkpt lat="46.06602" lon="6.76148">
        <ele>1178.2</ele>
        <time>2026-06-26T07:00:51Z</time>
      </trkpt>
      <trkpt lat="46.06602" lon="6.76148">
        <ele>1178.2</ele>
        <time>2026-06-26T07:00:52Z</time>
      </trkpt>
      <trkpt lat="46.06602" lon="6.76148">
        <ele>1178.2</ele>
        <time>2026-06-26T07:00:53Z</time>
      </trkpt>
      <trkpt lat="46.06602" lon="6.76148">
        <ele>1178.2</ele>
        <time>2026-06-26T07:00:54Z</time>
      </trkpt>
      <trkpt lat="46.06603" lon="6.76149">
        <ele>1178.2</ele>
        <time>2026-06-26T07:00:55Z</time>
      </trkpt>
      <trkpt lat="46.06603" lon="6.76149">
        <ele>1178.2</ele>
        <time>2026-06-26T07:00:56Z</time>
      </trkpt>
      <trkpt lat="46.06603" lon="6.76149">
        <ele>1178.2</ele>
        <time>2026-06-26T07:00:57Z</time>
      </trkpt>
      <trkpt lat="46.06603" lon="6.7615">
        <ele>1178.2</ele>
        <time>2026-06-26T07:00:58Z</time>
      </trkpt>
      <trkpt lat="46.06603" lon="6.7615">
        <ele>1178.2</ele>
        <time>2026-06-26T07:00:59Z</time>
      </trkpt>
      <trkpt lat="46.06603" lon="6.7615">
        <ele>1178.2</ele>
        <time>2026-06-26T07:01:00Z</time>
      </trkpt>
      <trkpt lat="46.06603" lon="6.7615">
        <ele>1178.1</ele>
        <time>2026-06-26T07:01:01Z</time>
      </trkpt>
      <trkpt lat="46.06603" lon="6.7615">
        <ele>1178.1</ele>
        <time>2026-06-26T07:01:02Z</time>
      </trkpt>
      <trkpt lat="46.06603" lon="6.76149">
        <ele>1178.1</ele>
        <time>2026-06-26T07:01:03Z</time>
      </trkpt>
      <trkpt lat="46.06603" lon="6.76149">
        <ele>1178</ele>
        <time>2026-06-26T07:01:04Z</time>
      </trkpt>
      <trkpt lat="46.06603" lon="6.76149">
        <ele>1178</ele>
        <time>2026-06-26T07:01:05Z</time>
      </trkpt>
      <trkpt lat="46.06603" lon="6.76149">
        <ele>1178</ele>
        <time>2026-06-26T07:01:06Z</time>
      </trkpt>
      <trkpt lat="46.06603" lon="6.76148">
        <ele>1178</ele>
        <time>2026-06-26T07:01:07Z</time>
      </trkpt>
      <trkpt lat="46.06603" lon="6.76148">
        <ele>1177.9</ele>
        <time>2026-06-26T07:01:08Z</time>
      </trkpt>
      <trkpt lat="46.06604" lon="6.76148">
        <ele>1177.9</ele>
        <time>2026-06-26T07:01:09Z</time>
      </trkpt>
      <trkpt lat="46.06604" lon="6.76147">
        <ele>1177.8</ele>
        <time>2026-06-26T07:01:10Z</time>
      </trkpt>
      <trkpt lat="46.06604" lon="6.76147">
        <ele>1177.8</ele>
        <time>2026-06-26T07:01:11Z</time>
      </trkpt>
      <trkpt lat="46.06604" lon="6.76147">
        <ele>1177.7</ele>
        <time>2026-06-26T07:01:12Z</time>
      </trkpt>
      <trkpt lat="46.06604" lon="6.76147">
        <ele>1177.7</ele>
        <time>2026-06-26T07:01:13Z</time>
      </trkpt>
      <trkpt lat="46.06603" lon="6.76147">
        <ele>1177.7</ele>
        <time>2026-06-26T07:01:14Z</time>
      </trkpt>
      <trkpt lat="46.06604" lon="6.76147">
        <ele>1177.7</ele>
        <time>2026-06-26T07:01:15Z</time>
      </trkpt>
      <trkpt lat="46.06604" lon="6.76146">
        <ele>1177.7</ele>
        <time>2026-06-26T07:01:16Z</time>
      </trkpt>
      <trkpt lat="46.06604" lon="6.76146">
        <ele>1177.7</ele>
        <time>2026-06-26T07:01:17Z</time>
      </trkpt>
      <trkpt lat="46.06604" lon="6.76146">
        <ele>1177.7</ele>
        <time>2026-06-26T07:01:18Z</time>
      </trkpt>
      <trkpt lat="46.06604" lon="6.76146">
        <ele>1177.8</ele>
        <time>2026-06-26T07:01:19Z</time>
      </trkpt>
      <trkpt lat="46.06603" lon="6.76146">
        <ele>1177.8</ele>
        <time>2026-06-26T07:01:20Z</time>
      </trkpt>
      <trkpt lat="46.06603" lon="6.76146">
        <ele>1177.8</ele>
        <time>2026-06-26T07:01:21Z</time>
      </trkpt>
      <trkpt lat="46.06603" lon="6.76145">
        <ele>1177.9</ele>
        <time>2026-06-26T07:01:22Z</time>
      </trkpt>
      <trkpt lat="46.06603" lon="6.76145">
        <ele>1177.9</ele>
        <time>2026-06-26T07:01:23Z</time>
      </trkpt>
      <trkpt lat="46.06603" lon="6.76145">
        <ele>1177.9</ele>
        <time>2026-06-26T07:01:24Z</time>
      </trkpt>
      <trkpt lat="46.06603" lon="6.76145">
        <ele>1177.8</ele>
        <time>2026-06-26T07:01:25Z</time>
      </trkpt>
      <trkpt lat="46.06603" lon="6.76145">
        <ele>1177.8</ele>
        <time>2026-06-26T07:01:26Z</time>
      </trkpt>
      <trkpt lat="46.06603" lon="6.76145">
        <ele>1177.8</ele>
        <time>2026-06-26T07:01:27Z</time>
      </trkpt>
      <trkpt lat="46.06603" lon="6.76145">
        <ele>1177.8</ele>
        <time>2026-06-26T07:01:28Z</time>
      </trkpt>
      <trkpt lat="46.06603" lon="6.76145">
        <ele>1177.8</ele>
        <time>2026-06-26T07:01:29Z</time>
      </trkpt>
      <trkpt lat="46.06603" lon="6.76145">
        <ele>1177.8</ele>
        <time>2026-06-26T07:01:30Z</time>
      </trkpt>
      <trkpt lat="46.06603" lon="6.76145">
        <ele>1177.9</ele>
        <time>2026-06-26T07:01:31Z</time>
      </trkpt>
      <trkpt lat="46.06603" lon="6.76144">
        <ele>1177.8</ele>
        <time>2026-06-26T07:01:32Z</time>
      </trkpt>
      <trkpt lat="46.06602" lon="6.76144">
        <ele>1177.8</ele>
        <time>2026-06-26T07:01:33Z</time>
      </trkpt>
      <trkpt lat="46.06602" lon="6.76143">
        <ele>1177.9</ele>
        <time>2026-06-26T07:01:34Z</time>
      </trkpt>
      <trkpt lat="46.06602" lon="6.76143">
        <ele>1178</ele>
        <time>2026-06-26T07:01:35Z</time>
      </trkpt>
      <trkpt lat="46.06602" lon="6.76144">
        <ele>1178.1</ele>
        <time>2026-06-26T07:01:36Z</time>
      </trkpt>
      <trkpt lat="46.06601" lon="6.76144">
        <ele>1178.2</ele>
        <time>2026-06-26T07:01:37Z</time>
      </trkpt>
      <trkpt lat="46.066" lon="6.76144">
        <ele>1178.3</ele>
        <time>2026-06-26T07:01:38Z</time>
      </trkpt>
      <trkpt lat="46.06599" lon="6.76145">
        <ele>1178.4</ele>
        <time>2026-06-26T07:01:39Z</time>
      </trkpt>
      <trkpt lat="46.06599" lon="6.76146">
        <ele>1178.5</ele>
        <time>2026-06-26T07:01:40Z</time>
      </trkpt>
      <trkpt lat="46.06599" lon="6.76147">
        <ele>1178.3</ele>
        <time>2026-06-26T07:01:41Z</time>
      </trkpt>
      <trkpt lat="46.06599" lon="6.76148">
        <ele>1178.4</ele>
        <time>2026-06-26T07:01:42Z</time>
      </trkpt>
      <trkpt lat="46.06598" lon="6.76149">
        <ele>1178.5</ele>
        <time>2026-06-26T07:01:43Z</time>
      </trkpt>
      <trkpt lat="46.06598" lon="6.76151">
        <ele>1178.6</ele>
        <time>2026-06-26T07:01:44Z</time>
      </trkpt>
      <trkpt lat="46.06598" lon="6.76151">
        <ele>1178.8</ele>
        <time>2026-06-26T07:01:45Z</time>
      </trkpt>
      <trkpt lat="46.06597" lon="6.76152">
        <ele>1178.9</ele>
        <time>2026-06-26T07:01:46Z</time>
      </trkpt>
      <trkpt lat="46.06597" lon="6.76153">
        <ele>1179</ele>
        <time>2026-06-26T07:01:47Z</time>
      </trkpt>
      <trkpt lat="46.06597" lon="6.76154">
        <ele>1179.1</ele>
        <time>2026-06-26T07:01:48Z</time>
      </trkpt>
      <trkpt lat="46.06597" lon="6.76155">
        <ele>1179.2</ele>
        <time>2026-06-26T07:01:49Z</time>
      </trkpt>
      <trkpt lat="46.06596" lon="6.76156">
        <ele>1179.2</ele>
        <time>2026-06-26T07:01:50Z</time>
      </trkpt>
      <trkpt lat="46.06596" lon="6.76156">
        <ele>1179.3</ele>
        <time>2026-06-26T07:01:51Z</time>
      </trkpt>
      <trkpt lat="46.06597" lon="6.76157">
        <ele>1179.4</ele>
        <time>2026-06-26T07:01:52Z</time>
      </trkpt>
      <trkpt lat="46.06597" lon="6.76158">
        <ele>1179.5</ele>
        <time>2026-06-26T07:01:53Z</time>
      </trkpt>
      <trkpt lat="46.06596" lon="6.76158">
        <ele>1179.5</ele>
        <time>2026-06-26T07:01:54Z</time>
      </trkpt>
      <trkpt lat="46.06595" lon="6.76159">
        <ele>1179.6</ele>
        <time>2026-06-26T07:01:55Z</time>
      </trkpt>
      <trkpt lat="46.06595" lon="6.7616">
        <ele>1179.6</ele>
        <time>2026-06-26T07:01:56Z</time>
      </trkpt>
      <trkpt lat="46.06594" lon="6.76161">
        <ele>1179.5</ele>
        <time>2026-06-26T07:01:57Z</time>
      </trkpt>
      <trkpt lat="46.06594" lon="6.76162">
        <ele>1179.6</ele>
        <time>2026-06-26T07:01:58Z</time>
      </trkpt>
      <trkpt lat="46.06593" lon="6.76163">
        <ele>1179.7</ele>
        <time>2026-06-26T07:01:59Z</time>
      </trkpt>
      <trkpt lat="46.06593" lon="6.76164">
        <ele>1179.8</ele>
        <time>2026-06-26T07:02:00Z</time>
      </trkpt>
      <trkpt lat="46.06593" lon="6.76165">
        <ele>1180</ele>
        <time>2026-06-26T07:02:01Z</time>
      </trkpt>
      <trkpt lat="46.06592" lon="6.76166">
        <ele>1180.1</ele>
        <time>2026-06-26T07:02:02Z</time>
      </trkpt>
      <trkpt lat="46.06592" lon="6.76168">
        <ele>1180.2</ele>
        <time>2026-06-26T07:02:03Z</time>
      </trkpt>
      <trkpt lat="46.06592" lon="6.76169">
        <ele>1180.4</ele>
        <time>2026-06-26T07:02:04Z</time>
      </trkpt>
      <trkpt lat="46.06591" lon="6.7617">
        <ele>1180.5</ele>
        <time>2026-06-26T07:02:05Z</time>
      </trkpt>
      <trkpt lat="46.06591" lon="6.7617">
        <ele>1180.8</ele>
        <time>2026-06-26T07:02:06Z</time>
      </trkpt>
      <trkpt lat="46.06591" lon="6.76171">
        <ele>1180.9</ele>
        <time>2026-06-26T07:02:07Z</time>
      </trkpt>
      <trkpt lat="46.06591" lon="6.76172">
        <ele>1181.1</ele>
        <time>2026-06-26T07:02:08Z</time>
      </trkpt>
      <trkpt lat="46.0659" lon="6.76174">
        <ele>1181.2</ele>
        <time>2026-06-26T07:02:09Z</time>
      </trkpt>
      <trkpt lat="46.0659" lon="6.76175">
        <ele>1181.2</ele>
        <time>2026-06-26T07:02:10Z</time>
      </trkpt>
      <trkpt lat="46.0659" lon="6.76176">
        <ele>1181.3</ele>
        <time>2026-06-26T07:02:11Z</time>
      </trkpt>
      <trkpt lat="46.0659" lon="6.76177">
        <ele>1181.4</ele>
        <time>2026-06-26T07:02:12Z</time>
      </trkpt>
      <trkpt lat="46.0659" lon="6.76178">
        <ele>1181.6</ele>
        <time>2026-06-26T07:02:13Z</time>
      </trkpt>
      <trkpt lat="46.0659" lon="6.76179">
        <ele>1181.7</ele>
        <time>2026-06-26T07:02:14Z</time>
      </trkpt>
      <trkpt lat="46.0659" lon="6.76181">
        <ele>1181.7</ele>
        <time>2026-06-26T07:02:15Z</time>
      </trkpt>
      <trkpt lat="46.0659" lon="6.76182">
        <ele>1181.7</ele>
        <time>2026-06-26T07:02:16Z</time>
      </trkpt>
      <trkpt lat="46.0659" lon="6.76183">
        <ele>1181.9</ele>
        <time>2026-06-26T07:02:17Z</time>
      </trkpt>
      <trkpt lat="46.0659" lon="6.76184">
        <ele>1182</ele>
        <time>2026-06-26T07:02:18Z</time>
      </trkpt>
      <trkpt lat="46.0659" lon="6.76185">
        <ele>1182.1</ele>
        <time>2026-06-26T07:02:19Z</time>
      </trkpt>
      <trkpt lat="46.0659" lon="6.76187">
        <ele>1182.2</ele>
        <time>2026-06-26T07:02:20Z</time>
      </trkpt>
      <trkpt lat="46.0659" lon="6.76188">
        <ele>1182.3</ele>
        <time>2026-06-26T07:02:21Z</time>
      </trkpt>
      <trkpt lat="46.0659" lon="6.76189">
        <ele>1182.4</ele>
        <time>2026-06-26T07:02:22Z</time>
      </trkpt>
      <trkpt lat="46.0659" lon="6.7619">
        <ele>1182.5</ele>
        <time>2026-06-26T07:02:23Z</time>
      </trkpt>
      <trkpt lat="46.0659" lon="6.76191">
        <ele>1182.6</ele>
        <time>2026-06-26T07:02:24Z</time>
      </trkpt>
      <trkpt lat="46.0659" lon="6.76193">
        <ele>1182.6</ele>
        <time>2026-06-26T07:02:25Z</time>
      </trkpt>
      <trkpt lat="46.0659" lon="6.76194">
        <ele>1182.8</ele>
        <time>2026-06-26T07:02:26Z</time>
      </trkpt>
      <trkpt lat="46.0659" lon="6.76195">
        <ele>1182.8</ele>
        <time>2026-06-26T07:02:27Z</time>
      </trkpt>
      <trkpt lat="46.0659" lon="6.76197">
        <ele>1182.8</ele>
        <time>2026-06-26T07:02:28Z</time>
      </trkpt>
      <trkpt lat="46.0659" lon="6.76198">
        <ele>1182.9</ele>
        <time>2026-06-26T07:02:29Z</time>
      </trkpt>
      <trkpt lat="46.0659" lon="6.76199">
        <ele>1183.1</ele>
        <time>2026-06-26T07:02:30Z</time>
      </trkpt>
      <trkpt lat="46.06591" lon="6.76201">
        <ele>1183.4</ele>
        <time>2026-06-26T07:02:31Z</time>
      </trkpt>
      <trkpt lat="46.0659" lon="6.76202">
        <ele>1183.5</ele>
        <time>2026-06-26T07:02:32Z</time>
      </trkpt>
      <trkpt lat="46.0659" lon="6.76203">
        <ele>1183.6</ele>
        <time>2026-06-26T07:02:33Z</time>
      </trkpt>
      <trkpt lat="46.0659" lon="6.76205">
        <ele>1183.8</ele>
        <time>2026-06-26T07:02:34Z</time>
      </trkpt>
      <trkpt lat="46.0659" lon="6.76206">
        <ele>1183.9</ele>
        <time>2026-06-26T07:02:35Z</time>
      </trkpt>
      <trkpt lat="46.0659" lon="6.76207">
        <ele>1184</ele>
        <time>2026-06-26T07:02:36Z</time>
      </trkpt>
      <trkpt lat="46.0659" lon="6.76208">
        <ele>1184.2</ele>
        <time>2026-06-26T07:02:37Z</time>
      </trkpt>
      <trkpt lat="46.0659" lon="6.76209">
        <ele>1184.4</ele>
        <time>2026-06-26T07:02:38Z</time>
      </trkpt>
      <trkpt lat="46.0659" lon="6.76211">
        <ele>1184.5</ele>
        <time>2026-06-26T07:02:39Z</time>
      </trkpt>
      <trkpt lat="46.0659" lon="6.76212">
        <ele>1184.6</ele>
        <time>2026-06-26T07:02:40Z</time>
      </trkpt>
      <trkpt lat="46.06589" lon="6.76213">
        <ele>1184.8</ele>
        <time>2026-06-26T07:02:41Z</time>
      </trkpt>
      <trkpt lat="46.0659" lon="6.76214">
        <ele>1184.9</ele>
        <time>2026-06-26T07:02:42Z</time>
      </trkpt>
      <trkpt lat="46.0659" lon="6.76215">
        <ele>1184.9</ele>
        <time>2026-06-26T07:02:43Z</time>
      </trkpt>
      <trkpt lat="46.0659" lon="6.76217">
        <ele>1185</ele>
        <time>2026-06-26T07:02:44Z</time>
      </trkpt>
      <trkpt lat="46.0659" lon="6.76217">
        <ele>1185</ele>
        <time>2026-06-26T07:02:45Z</time>
      </trkpt>
      <trkpt lat="46.0659" lon="6.76219">
        <ele>1185.1</ele>
        <time>2026-06-26T07:02:46Z</time>
      </trkpt>
      <trkpt lat="46.06589" lon="6.7622">
        <ele>1185.2</ele>
        <time>2026-06-26T07:02:47Z</time>
      </trkpt>
      <trkpt lat="46.06589" lon="6.76221">
        <ele>1185.4</ele>
        <time>2026-06-26T07:02:48Z</time>
      </trkpt>
      <trkpt lat="46.06589" lon="6.76222">
        <ele>1185.6</ele>
        <time>2026-06-26T07:02:49Z</time>
      </trkpt>
      <trkpt lat="46.06588" lon="6.76223">
        <ele>1185.8</ele>
        <time>2026-06-26T07:02:50Z</time>
      </trkpt>
      <trkpt lat="46.06588" lon="6.76224">
        <ele>1185.9</ele>
        <time>2026-06-26T07:02:51Z</time>
      </trkpt>
      <trkpt lat="46.06588" lon="6.76225">
        <ele>1186</ele>
        <time>2026-06-26T07:02:52Z</time>
      </trkpt>
      <trkpt lat="46.06588" lon="6.76226">
        <ele>1186.2</ele>
        <time>2026-06-26T07:02:53Z</time>
      </trkpt>
      <trkpt lat="46.06587" lon="6.76227">
        <ele>1186.4</ele>
        <time>2026-06-26T07:02:54Z</time>
      </trkpt>
      <trkpt lat="46.06587" lon="6.76227">
        <ele>1186.5</ele>
        <time>2026-06-26T07:02:55Z</time>
      </trkpt>
      <trkpt lat="46.06587" lon="6.76228">
        <ele>1186.5</ele>
        <time>2026-06-26T07:02:56Z</time>
      </trkpt>
      <trkpt lat="46.06587" lon="6.76229">
        <ele>1186.6</ele>
        <time>2026-06-26T07:02:57Z</time>
      </trkpt>
      <trkpt lat="46.06586" lon="6.7623">
        <ele>1186.8</ele>
        <time>2026-06-26T07:02:58Z</time>
      </trkpt>
      <trkpt lat="46.06586" lon="6.7623">
        <ele>1187</ele>
        <time>2026-06-26T07:02:59Z</time>
      </trkpt>
      <trkpt lat="46.06586" lon="6.76231">
        <ele>1187.2</ele>
        <time>2026-06-26T07:03:00Z</time>
      </trkpt>
      <trkpt lat="46.06585" lon="6.76231">
        <ele>1187.3</ele>
        <time>2026-06-26T07:03:01Z</time>
      </trkpt>
      <trkpt lat="46.06585" lon="6.76232">
        <ele>1187.3</ele>
        <time>2026-06-26T07:03:02Z</time>
      </trkpt>
      <trkpt lat="46.06584" lon="6.76233">
        <ele>1187.3</ele>
        <time>2026-06-26T07:03:03Z</time>
      </trkpt>
      <trkpt lat="46.06584" lon="6.76234">
        <ele>1187.5</ele>
        <time>2026-06-26T07:03:04Z</time>
      </trkpt>
      <trkpt lat="46.06584" lon="6.76235">
        <ele>1187.7</ele>
        <time>2026-06-26T07:03:05Z</time>
      </trkpt>
      <trkpt lat="46.06583" lon="6.76235">
        <ele>1187.8</ele>
        <time>2026-06-26T07:03:06Z</time>
      </trkpt>
      <trkpt lat="46.06583" lon="6.76236">
        <ele>1188</ele>
        <time>2026-06-26T07:03:07Z</time>
      </trkpt>
      <trkpt lat="46.06582" lon="6.76237">
        <ele>1188.2</ele>
        <time>2026-06-26T07:03:08Z</time>
      </trkpt>
      <trkpt lat="46.06582" lon="6.76238">
        <ele>1188.4</ele>
        <time>2026-06-26T07:03:09Z</time>
      </trkpt>
      <trkpt lat="46.06581" lon="6.76239">
        <ele>1188.6</ele>
        <time>2026-06-26T07:03:10Z</time>
      </trkpt>
      <trkpt lat="46.0658" lon="6.76241">
        <ele>1188.8</ele>
        <time>2026-06-26T07:03:11Z</time>
      </trkpt>
      <trkpt lat="46.0658" lon="6.76242">
        <ele>1189</ele>
        <time>2026-06-26T07:03:12Z</time>
      </trkpt>
      <trkpt lat="46.0658" lon="6.76243">
        <ele>1189.1</ele>
        <time>2026-06-26T07:03:13Z</time>
      </trkpt>
      <trkpt lat="46.0658" lon="6.76244">
        <ele>1189.2</ele>
        <time>2026-06-26T07:03:14Z</time>
      </trkpt>
      <trkpt lat="46.0658" lon="6.76245">
        <ele>1189.2</ele>
        <time>2026-06-26T07:03:15Z</time>
      </trkpt>
      <trkpt lat="46.06579" lon="6.76246">
        <ele>1189.3</ele>
        <time>2026-06-26T07:03:16Z</time>
      </trkpt>
      <trkpt lat="46.06579" lon="6.76247">
        <ele>1189.3</ele>
        <time>2026-06-26T07:03:17Z</time>
      </trkpt>
      <trkpt lat="46.06578" lon="6.76248">
        <ele>1189.6</ele>
        <time>2026-06-26T07:03:18Z</time>
      </trkpt>
      <trkpt lat="46.06578" lon="6.76249">
        <ele>1189.7</ele>
        <time>2026-06-26T07:03:19Z</time>
      </trkpt>
      <trkpt lat="46.06578" lon="6.7625">
        <ele>1189.7</ele>
        <time>2026-06-26T07:03:20Z</time>
      </trkpt>
      <trkpt lat="46.06577" lon="6.76251">
        <ele>1189.8</ele>
        <time>2026-06-26T07:03:21Z</time>
      </trkpt>
      <trkpt lat="46.06577" lon="6.76252">
        <ele>1189.9</ele>
        <time>2026-06-26T07:03:22Z</time>
      </trkpt>
      <trkpt lat="46.06577" lon="6.76254">
        <ele>1189.9</ele>
        <time>2026-06-26T07:03:23Z</time>
      </trkpt>
      <trkpt lat="46.06577" lon="6.76255">
        <ele>1190.1</ele>
        <time>2026-06-26T07:03:24Z</time>
      </trkpt>
      <trkpt lat="46.06576" lon="6.76256">
        <ele>1190.2</ele>
        <time>2026-06-26T07:03:25Z</time>
      </trkpt>
      <trkpt lat="46.06575" lon="6.76257">
        <ele>1190.3</ele>
        <time>2026-06-26T07:03:26Z</time>
      </trkpt>
      <trkpt lat="46.06575" lon="6.76259">
        <ele>1190.4</ele>
        <time>2026-06-26T07:03:27Z</time>
      </trkpt>
      <trkpt lat="46.06575" lon="6.7626">
        <ele>1190.5</ele>
        <time>2026-06-26T07:03:28Z</time>
      </trkpt>
      <trkpt lat="46.06575" lon="6.76261">
        <ele>1190.6</ele>
        <time>2026-06-26T07:03:29Z</time>
      </trkpt>
      <trkpt lat="46.06575" lon="6.76262">
        <ele>1190.7</ele>
        <time>2026-06-26T07:03:30Z</time>
      </trkpt>
      <trkpt lat="46.06575" lon="6.76263">
        <ele>1190.8</ele>
        <time>2026-06-26T07:03:31Z</time>
      </trkpt>
      <trkpt lat="46.06574" lon="6.76265">
        <ele>1190.8</ele>
        <time>2026-06-26T07:03:32Z</time>
      </trkpt>
      <trkpt lat="46.06574" lon="6.76267">
        <ele>1191</ele>
        <time>2026-06-26T07:03:33Z</time>
      </trkpt>
      <trkpt lat="46.06574" lon="6.76268">
        <ele>1191.2</ele>
        <time>2026-06-26T07:03:34Z</time>
      </trkpt>
      <trkpt lat="46.06574" lon="6.76269">
        <ele>1191.3</ele>
        <time>2026-06-26T07:03:35Z</time>
      </trkpt>
      <trkpt lat="46.06574" lon="6.76271">
        <ele>1191.4</ele>
        <time>2026-06-26T07:03:36Z</time>
      </trkpt>
      <trkpt lat="46.06574" lon="6.76271">
        <ele>1191.6</ele>
        <time>2026-06-26T07:03:37Z</time>
      </trkpt>
      <trkpt lat="46.06574" lon="6.76272">
        <ele>1191.8</ele>
        <time>2026-06-26T07:03:38Z</time>
      </trkpt>
      <trkpt lat="46.06574" lon="6.76273">
        <ele>1192</ele>
        <time>2026-06-26T07:03:39Z</time>
      </trkpt>
      <trkpt lat="46.06573" lon="6.76274">
        <ele>1192.1</ele>
        <time>2026-06-26T07:03:40Z</time>
      </trkpt>
      <trkpt lat="46.06573" lon="6.76275">
        <ele>1192.3</ele>
        <time>2026-06-26T07:03:41Z</time>
      </trkpt>
      <trkpt lat="46.06573" lon="6.76277">
        <ele>1192.5</ele>
        <time>2026-06-26T07:03:42Z</time>
      </trkpt>
      <trkpt lat="46.06573" lon="6.76278">
        <ele>1192.7</ele>
        <time>2026-06-26T07:03:43Z</time>
      </trkpt>
      <trkpt lat="46.06573" lon="6.76279">
        <ele>1192.9</ele>
        <time>2026-06-26T07:03:44Z</time>
      </trkpt>
      <trkpt lat="46.06573" lon="6.7628">
        <ele>1193</ele>
        <time>2026-06-26T07:03:45Z</time>
      </trkpt>
      <trkpt lat="46.06573" lon="6.76281">
        <ele>1193.2</ele>
        <time>2026-06-26T07:03:46Z</time>
      </trkpt>
      <trkpt lat="46.06573" lon="6.76282">
        <ele>1193.3</ele>
        <time>2026-06-26T07:03:47Z</time>
      </trkpt>
      <trkpt lat="46.06573" lon="6.76283">
        <ele>1193.4</ele>
        <time>2026-06-26T07:03:48Z</time>
      </trkpt>
      <trkpt lat="46.06572" lon="6.76283">
        <ele>1193.5</ele>
        <time>2026-06-26T07:03:49Z</time>
      </trkpt>
      <trkpt lat="46.06572" lon="6.76284">
        <ele>1193.7</ele>
        <time>2026-06-26T07:03:50Z</time>
      </trkpt>
      <trkpt lat="46.06572" lon="6.76285">
        <ele>1193.9</ele>
        <time>2026-06-26T07:03:51Z</time>
      </trkpt>
      <trkpt lat="46.06571" lon="6.76286">
        <ele>1194</ele>
        <time>2026-06-26T07:03:52Z</time>
      </trkpt>
      <trkpt lat="46.06571" lon="6.76288">
        <ele>1194.1</ele>
        <time>2026-06-26T07:03:53Z</time>
      </trkpt>
      <trkpt lat="46.06571" lon="6.76289">
        <ele>1194.2</ele>
        <time>2026-06-26T07:03:54Z</time>
      </trkpt>
      <trkpt lat="46.06571" lon="6.7629">
        <ele>1194.6</ele>
        <time>2026-06-26T07:03:55Z</time>
      </trkpt>
      <trkpt lat="46.06571" lon="6.76291">
        <ele>1194.7</ele>
        <time>2026-06-26T07:03:56Z</time>
      </trkpt>
      <trkpt lat="46.0657" lon="6.76292">
        <ele>1194.8</ele>
        <time>2026-06-26T07:03:57Z</time>
      </trkpt>
      <trkpt lat="46.06569" lon="6.76293">
        <ele>1194.9</ele>
        <time>2026-06-26T07:03:58Z</time>
      </trkpt>
      <trkpt lat="46.06569" lon="6.76294">
        <ele>1195</ele>
        <time>2026-06-26T07:03:59Z</time>
      </trkpt>
      <trkpt lat="46.06569" lon="6.76295">
        <ele>1195</ele>
        <time>2026-06-26T07:04:00Z</time>
      </trkpt>
      <trkpt lat="46.06568" lon="6.76296">
        <ele>1195.2</ele>
        <time>2026-06-26T07:04:01Z</time>
      </trkpt>
      <trkpt lat="46.06568" lon="6.76297">
        <ele>1195.3</ele>
        <time>2026-06-26T07:04:02Z</time>
      </trkpt>
      <trkpt lat="46.06568" lon="6.76297">
        <ele>1195.5</ele>
        <time>2026-06-26T07:04:03Z</time>
      </trkpt>
      <trkpt lat="46.06567" lon="6.76298">
        <ele>1195.7</ele>
        <time>2026-06-26T07:04:04Z</time>
      </trkpt>
      <trkpt lat="46.06567" lon="6.76299">
        <ele>1195.8</ele>
        <time>2026-06-26T07:04:05Z</time>
      </trkpt>
      <trkpt lat="46.06566" lon="6.763">
        <ele>1196</ele>
        <time>2026-06-26T07:04:06Z</time>
      </trkpt>
      <trkpt lat="46.06566" lon="6.763">
        <ele>1196.1</ele>
        <time>2026-06-26T07:04:07Z</time>
      </trkpt>
      <trkpt lat="46.06565" lon="6.763">
        <ele>1196.1</ele>
        <time>2026-06-26T07:04:08Z</time>
      </trkpt>
      <trkpt lat="46.06565" lon="6.76301">
        <ele>1196.2</ele>
        <time>2026-06-26T07:04:09Z</time>
      </trkpt>
      <trkpt lat="46.06564" lon="6.76301">
        <ele>1196.4</ele>
        <time>2026-06-26T07:04:10Z</time>
      </trkpt>
      <trkpt lat="46.06564" lon="6.76302">
        <ele>1196.6</ele>
        <time>2026-06-26T07:04:11Z</time>
      </trkpt>
      <trkpt lat="46.06564" lon="6.76302">
        <ele>1196.6</ele>
        <time>2026-06-26T07:04:12Z</time>
      </trkpt>
      <trkpt lat="46.06563" lon="6.76302">
        <ele>1196.7</ele>
        <time>2026-06-26T07:04:13Z</time>
      </trkpt>
      <trkpt lat="46.06562" lon="6.76303">
        <ele>1196.7</ele>
        <time>2026-06-26T07:04:14Z</time>
      </trkpt>
      <trkpt lat="46.06562" lon="6.76303">
        <ele>1196.8</ele>
        <time>2026-06-26T07:04:15Z</time>
      </trkpt>
      <trkpt lat="46.06561" lon="6.76303">
        <ele>1196.9</ele>
        <time>2026-06-26T07:04:16Z</time>
      </trkpt>
      <trkpt lat="46.06561" lon="6.76304">
        <ele>1197</ele>
        <time>2026-06-26T07:04:17Z</time>
      </trkpt>
      <trkpt lat="46.0656" lon="6.76304">
        <ele>1197</ele>
        <time>2026-06-26T07:04:18Z</time>
      </trkpt>
      <trkpt lat="46.06559" lon="6.76303">
        <ele>1197.3</ele>
        <time>2026-06-26T07:04:19Z</time>
      </trkpt>
      <trkpt lat="46.06558" lon="6.76303">
        <ele>1197.4</ele>
        <time>2026-06-26T07:04:20Z</time>
      </trkpt>
      <trkpt lat="46.06557" lon="6.76303">
        <ele>1197.6</ele>
        <time>2026-06-26T07:04:21Z</time>
      </trkpt>
      <trkpt lat="46.06556" lon="6.76303">
        <ele>1197.8</ele>
        <time>2026-06-26T07:04:22Z</time>
      </trkpt>
      <trkpt lat="46.06555" lon="6.76304">
        <ele>1197.8</ele>
        <time>2026-06-26T07:04:23Z</time>
      </trkpt>
      <trkpt lat="46.06555" lon="6.76305">
        <ele>1197.9</ele>
        <time>2026-06-26T07:04:24Z</time>
      </trkpt>
      <trkpt lat="46.06554" lon="6.76304">
        <ele>1198</ele>
        <time>2026-06-26T07:04:25Z</time>
      </trkpt>
      <trkpt lat="46.06554" lon="6.76304">
        <ele>1198.2</ele>
        <time>2026-06-26T07:04:26Z</time>
      </trkpt>
      <trkpt lat="46.06553" lon="6.76303">
        <ele>1198.4</ele>
        <time>2026-06-26T07:04:27Z</time>
      </trkpt>
      <trkpt lat="46.06552" lon="6.76303">
        <ele>1198.4</ele>
        <time>2026-06-26T07:04:28Z</time>
      </trkpt>
      <trkpt lat="46.06552" lon="6.76303">
        <ele>1198.5</ele>
        <time>2026-06-26T07:04:29Z</time>
      </trkpt>
      <trkpt lat="46.06551" lon="6.76304">
        <ele>1198.5</ele>
        <time>2026-06-26T07:04:30Z</time>
      </trkpt>
      <trkpt lat="46.06551" lon="6.76304">
        <ele>1198.7</ele>
        <time>2026-06-26T07:04:31Z</time>
      </trkpt>
      <trkpt lat="46.0655" lon="6.76304">
        <ele>1198.9</ele>
        <time>2026-06-26T07:04:32Z</time>
      </trkpt>
      <trkpt lat="46.0655" lon="6.76304">
        <ele>1199.1</ele>
        <time>2026-06-26T07:04:33Z</time>
      </trkpt>
      <trkpt lat="46.06549" lon="6.76305">
        <ele>1199.2</ele>
        <time>2026-06-26T07:04:34Z</time>
      </trkpt>
      <trkpt lat="46.0655" lon="6.76306">
        <ele>1199.4</ele>
        <time>2026-06-26T07:04:35Z</time>
      </trkpt>
      <trkpt lat="46.0655" lon="6.76307">
        <ele>1199.6</ele>
        <time>2026-06-26T07:04:36Z</time>
      </trkpt>
      <trkpt lat="46.0655" lon="6.7631">
        <ele>1199.7</ele>
        <time>2026-06-26T07:04:37Z</time>
      </trkpt>
      <trkpt lat="46.06548" lon="6.7631">
        <ele>1199.7</ele>
        <time>2026-06-26T07:04:38Z</time>
      </trkpt>
      <trkpt lat="46.06548" lon="6.7631">
        <ele>1199.9</ele>
        <time>2026-06-26T07:04:39Z</time>
      </trkpt>
      <trkpt lat="46.06548" lon="6.76311">
        <ele>1200</ele>
        <time>2026-06-26T07:04:40Z</time>
      </trkpt>
      <trkpt lat="46.06549" lon="6.76312">
        <ele>1200.1</ele>
        <time>2026-06-26T07:04:41Z</time>
      </trkpt>
      <trkpt lat="46.06549" lon="6.76314">
        <ele>1200.2</ele>
        <time>2026-06-26T07:04:42Z</time>
      </trkpt>
      <trkpt lat="46.06549" lon="6.76315">
        <ele>1200.3</ele>
        <time>2026-06-26T07:04:43Z</time>
      </trkpt>
      <trkpt lat="46.06549" lon="6.76316">
        <ele>1200.4</ele>
        <time>2026-06-26T07:04:44Z</time>
      </trkpt>
      <trkpt lat="46.0655" lon="6.76317">
        <ele>1200.5</ele>
        <time>2026-06-26T07:04:45Z</time>
      </trkpt>
      <trkpt lat="46.0655" lon="6.76317">
        <ele>1200.6</ele>
        <time>2026-06-26T07:04:46Z</time>
      </trkpt>
      <trkpt lat="46.06551" lon="6.76317">
        <ele>1200.8</ele>
        <time>2026-06-26T07:04:47Z</time>
      </trkpt>
      <trkpt lat="46.06551" lon="6.76318">
        <ele>1201</ele>
        <time>2026-06-26T07:04:48Z</time>
      </trkpt>
      <trkpt lat="46.06552" lon="6.76317">
        <ele>1201.2</ele>
        <time>2026-06-26T07:04:49Z</time>
      </trkpt>
      <trkpt lat="46.06552" lon="6.76317">
        <ele>1201.4</ele>
        <time>2026-06-26T07:04:50Z</time>
      </trkpt>
      <trkpt lat="46.06553" lon="6.76317">
        <ele>1201.6</ele>
        <time>2026-06-26T07:04:51Z</time>
      </trkpt>
      <trkpt lat="46.06554" lon="6.76318">
        <ele>1201.8</ele>
        <time>2026-06-26T07:04:52Z</time>
      </trkpt>
      <trkpt lat="46.06555" lon="6.7632">
        <ele>1201.9</ele>
        <time>2026-06-26T07:04:53Z</time>
      </trkpt>
      <trkpt lat="46.06555" lon="6.76321">
        <ele>1202</ele>
        <time>2026-06-26T07:04:54Z</time>
      </trkpt>
      <trkpt lat="46.06556" lon="6.76322">
        <ele>1202.2</ele>
        <time>2026-06-26T07:04:55Z</time>
      </trkpt>
      <trkpt lat="46.06557" lon="6.76323">
        <ele>1202.3</ele>
        <time>2026-06-26T07:04:56Z</time>
      </trkpt>
      <trkpt lat="46.06558" lon="6.76323">
        <ele>1202.4</ele>
        <time>2026-06-26T07:04:57Z</time>
      </trkpt>
      <trkpt lat="46.06558" lon="6.76324">
        <ele>1202.5</ele>
        <time>2026-06-26T07:04:58Z</time>
      </trkpt>
      <trkpt lat="46.06559" lon="6.76325">
        <ele>1202.6</ele>
        <time>2026-06-26T07:04:59Z</time>
      </trkpt>
      <trkpt lat="46.0656" lon="6.76326">
        <ele>1202.7</ele>
        <time>2026-06-26T07:05:00Z</time>
      </trkpt>
      <trkpt lat="46.0656" lon="6.76325">
        <ele>1202.8</ele>
        <time>2026-06-26T07:05:01Z</time>
      </trkpt>
      <trkpt lat="46.06561" lon="6.76325">
        <ele>1202.8</ele>
        <time>2026-06-26T07:05:02Z</time>
      </trkpt>
      <trkpt lat="46.06561" lon="6.76325">
        <ele>1202.9</ele>
        <time>2026-06-26T07:05:03Z</time>
      </trkpt>
      <trkpt lat="46.06562" lon="6.76326">
        <ele>1202.9</ele>
        <time>2026-06-26T07:05:04Z</time>
      </trkpt>
      <trkpt lat="46.06563" lon="6.76326">
        <ele>1203</ele>
        <time>2026-06-26T07:05:05Z</time>
      </trkpt>
      <trkpt lat="46.06564" lon="6.76326">
        <ele>1203</ele>
        <time>2026-06-26T07:05:06Z</time>
      </trkpt>
      <trkpt lat="46.06565" lon="6.76326">
        <ele>1203.1</ele>
        <time>2026-06-26T07:05:07Z</time>
      </trkpt>
      <trkpt lat="46.06566" lon="6.76327">
        <ele>1203.2</ele>
        <time>2026-06-26T07:05:08Z</time>
      </trkpt>
      <trkpt lat="46.06567" lon="6.76327">
        <ele>1203.3</ele>
        <time>2026-06-26T07:05:09Z</time>
      </trkpt>
      <trkpt lat="46.06568" lon="6.76327">
        <ele>1203.4</ele>
        <time>2026-06-26T07:05:10Z</time>
      </trkpt>
      <trkpt lat="46.06569" lon="6.76328">
        <ele>1203.5</ele>
        <time>2026-06-26T07:05:11Z</time>
      </trkpt>
      <trkpt lat="46.0657" lon="6.76328">
        <ele>1203.6</ele>
        <time>2026-06-26T07:05:12Z</time>
      </trkpt>
      <trkpt lat="46.06571" lon="6.76329">
        <ele>1203.7</ele>
        <time>2026-06-26T07:05:13Z</time>
      </trkpt>
      <trkpt lat="46.06571" lon="6.76328">
        <ele>1203.8</ele>
        <time>2026-06-26T07:05:14Z</time>
      </trkpt>
      <trkpt lat="46.06572" lon="6.76329">
        <ele>1203.9</ele>
        <time>2026-06-26T07:05:15Z</time>
      </trkpt>
      <trkpt lat="46.06572" lon="6.76329">
        <ele>1204</ele>
        <time>2026-06-26T07:05:16Z</time>
      </trkpt>
      <trkpt lat="46.06573" lon="6.76329">
        <ele>1204.2</ele>
        <time>2026-06-26T07:05:17Z</time>
      </trkpt>
      <trkpt lat="46.06574" lon="6.76328">
        <ele>1204.4</ele>
        <time>2026-06-26T07:05:18Z</time>
      </trkpt>
      <trkpt lat="46.06575" lon="6.76331">
        <ele>1204.4</ele>
        <time>2026-06-26T07:05:19Z</time>
      </trkpt>
      <trkpt lat="46.06577" lon="6.76332">
        <ele>1204.5</ele>
        <time>2026-06-26T07:05:20Z</time>
      </trkpt>
      <trkpt lat="46.06578" lon="6.76332">
        <ele>1204.5</ele>
        <time>2026-06-26T07:05:21Z</time>
      </trkpt>
      <trkpt lat="46.06579" lon="6.76332">
        <ele>1204.6</ele>
        <time>2026-06-26T07:05:22Z</time>
      </trkpt>
      <trkpt lat="46.06581" lon="6.76332">
        <ele>1204.7</ele>
        <time>2026-06-26T07:05:23Z</time>
      </trkpt>
      <trkpt lat="46.06582" lon="6.76331">
        <ele>1204.8</ele>
        <time>2026-06-26T07:05:24Z</time>
      </trkpt>
      <trkpt lat="46.06583" lon="6.76331">
        <ele>1204.9</ele>
        <time>2026-06-26T07:05:25Z</time>
      </trkpt>
      <trkpt lat="46.06584" lon="6.76331">
        <ele>1205</ele>
        <time>2026-06-26T07:05:26Z</time>
      </trkpt>
      <trkpt lat="46.06585" lon="6.76331">
        <ele>1205.1</ele>
        <time>2026-06-26T07:05:27Z</time>
      </trkpt>
      <trkpt lat="46.06586" lon="6.76331">
        <ele>1205.3</ele>
        <time>2026-06-26T07:05:28Z</time>
      </trkpt>
      <trkpt lat="46.06586" lon="6.76331">
        <ele>1205.4</ele>
        <time>2026-06-26T07:05:29Z</time>
      </trkpt>
      <trkpt lat="46.06587" lon="6.7633">
        <ele>1205.6</ele>
        <time>2026-06-26T07:05:30Z</time>
      </trkpt>
      <trkpt lat="46.06588" lon="6.7633">
        <ele>1205.7</ele>
        <time>2026-06-26T07:05:31Z</time>
      </trkpt>
      <trkpt lat="46.06589" lon="6.76329">
        <ele>1205.8</ele>
        <time>2026-06-26T07:05:32Z</time>
      </trkpt>
      <trkpt lat="46.0659" lon="6.76329">
        <ele>1205.9</ele>
        <time>2026-06-26T07:05:33Z</time>
      </trkpt>
      <trkpt lat="46.06591" lon="6.76329">
        <ele>1206</ele>
        <time>2026-06-26T07:05:34Z</time>
      </trkpt>
      <trkpt lat="46.06592" lon="6.76329">
        <ele>1206.1</ele>
        <time>2026-06-26T07:05:35Z</time>
      </trkpt>
      <trkpt lat="46.06592" lon="6.76328">
        <ele>1206.3</ele>
        <time>2026-06-26T07:05:36Z</time>
      </trkpt>
      <trkpt lat="46.06593" lon="6.76328">
        <ele>1206.4</ele>
        <time>2026-06-26T07:05:37Z</time>
      </trkpt>
      <trkpt lat="46.06594" lon="6.76328">
        <ele>1206.6</ele>
        <time>2026-06-26T07:05:38Z</time>
      </trkpt>
      <trkpt lat="46.06595" lon="6.76327">
        <ele>1206.7</ele>
        <time>2026-06-26T07:05:39Z</time>
      </trkpt>
      <trkpt lat="46.06595" lon="6.76327">
        <ele>1206.9</ele>
        <time>2026-06-26T07:05:40Z</time>
      </trkpt>
      <trkpt lat="46.06596" lon="6.76327">
        <ele>1207</ele>
        <time>2026-06-26T07:05:41Z</time>
      </trkpt>
      <trkpt lat="46.06596" lon="6.76326">
        <ele>1207.2</ele>
        <time>2026-06-26T07:05:42Z</time>
      </trkpt>
      <trkpt lat="46.06597" lon="6.76326">
        <ele>1207.3</ele>
        <time>2026-06-26T07:05:43Z</time>
      </trkpt>
      <trkpt lat="46.06598" lon="6.76326">
        <ele>1207.4</ele>
        <time>2026-06-26T07:05:44Z</time>
      </trkpt>
      <trkpt lat="46.06598" lon="6.76327">
        <ele>1207.4</ele>
        <time>2026-06-26T07:05:45Z</time>
      </trkpt>
      <trkpt lat="46.06599" lon="6.76326">
        <ele>1207.5</ele>
        <time>2026-06-26T07:05:46Z</time>
      </trkpt>
      <trkpt lat="46.066" lon="6.76326">
        <ele>1207.7</ele>
        <time>2026-06-26T07:05:47Z</time>
      </trkpt>
      <trkpt lat="46.06601" lon="6.76325">
        <ele>1207.8</ele>
        <time>2026-06-26T07:05:48Z</time>
      </trkpt>
      <trkpt lat="46.06602" lon="6.76325">
        <ele>1208</ele>
        <time>2026-06-26T07:05:49Z</time>
      </trkpt>
      <trkpt lat="46.06602" lon="6.76325">
        <ele>1208.2</ele>
        <time>2026-06-26T07:05:50Z</time>
      </trkpt>
      <trkpt lat="46.06603" lon="6.76325">
        <ele>1208.3</ele>
        <time>2026-06-26T07:05:51Z</time>
      </trkpt>
      <trkpt lat="46.06604" lon="6.76325">
        <ele>1208.5</ele>
        <time>2026-06-26T07:05:52Z</time>
      </trkpt>
      <trkpt lat="46.06606" lon="6.76325">
        <ele>1208.6</ele>
        <time>2026-06-26T07:05:53Z</time>
      </trkpt>
      <trkpt lat="46.06606" lon="6.76324">
        <ele>1208.8</ele>
        <time>2026-06-26T07:05:54Z</time>
      </trkpt>
      <trkpt lat="46.06606" lon="6.76323">
        <ele>1208.9</ele>
        <time>2026-06-26T07:05:55Z</time>
      </trkpt>
      <trkpt lat="46.06607" lon="6.76323">
        <ele>1208.9</ele>
        <time>2026-06-26T07:05:56Z</time>
      </trkpt>
      <trkpt lat="46.06607" lon="6.76323">
        <ele>1209</ele>
        <time>2026-06-26T07:05:57Z</time>
      </trkpt>
      <trkpt lat="46.06608" lon="6.76322">
        <ele>1209.1</ele>
        <time>2026-06-26T07:05:58Z</time>
      </trkpt>
      <trkpt lat="46.06608" lon="6.76322">
        <ele>1209.3</ele>
        <time>2026-06-26T07:05:59Z</time>
      </trkpt>
      <trkpt lat="46.06609" lon="6.76321">
        <ele>1209.4</ele>
        <time>2026-06-26T07:06:00Z</time>
      </trkpt>
      <trkpt lat="46.06611" lon="6.76321">
        <ele>1209.5</ele>
        <time>2026-06-26T07:06:01Z</time>
      </trkpt>
      <trkpt lat="46.06611" lon="6.7632">
        <ele>1209.6</ele>
        <time>2026-06-26T07:06:02Z</time>
      </trkpt>
      <trkpt lat="46.06612" lon="6.76319">
        <ele>1209.7</ele>
        <time>2026-06-26T07:06:03Z</time>
      </trkpt>
      <trkpt lat="46.06613" lon="6.76318">
        <ele>1209.7</ele>
        <time>2026-06-26T07:06:04Z</time>
      </trkpt>
      <trkpt lat="46.06614" lon="6.76318">
        <ele>1209.8</ele>
        <time>2026-06-26T07:06:05Z</time>
      </trkpt>
      <trkpt lat="46.06614" lon="6.76318">
        <ele>1209.8</ele>
        <time>2026-06-26T07:06:06Z</time>
      </trkpt>
      <trkpt lat="46.06614" lon="6.76318">
        <ele>1210</ele>
        <time>2026-06-26T07:06:07Z</time>
      </trkpt>
      <trkpt lat="46.06615" lon="6.76317">
        <ele>1210.1</ele>
        <time>2026-06-26T07:06:08Z</time>
      </trkpt>
      <trkpt lat="46.06616" lon="6.76317">
        <ele>1210.1</ele>
        <time>2026-06-26T07:06:09Z</time>
      </trkpt>
      <trkpt lat="46.06617" lon="6.76317">
        <ele>1210.2</ele>
        <time>2026-06-26T07:06:10Z</time>
      </trkpt>
      <trkpt lat="46.06617" lon="6.76317">
        <ele>1210.3</ele>
        <time>2026-06-26T07:06:11Z</time>
      </trkpt>
      <trkpt lat="46.06618" lon="6.76316">
        <ele>1210.4</ele>
        <time>2026-06-26T07:06:12Z</time>
      </trkpt>
      <trkpt lat="46.06619" lon="6.76315">
        <ele>1210.4</ele>
        <time>2026-06-26T07:06:13Z</time>
      </trkpt>
      <trkpt lat="46.0662" lon="6.76315">
        <ele>1210.5</ele>
        <time>2026-06-26T07:06:14Z</time>
      </trkpt>
      <trkpt lat="46.06621" lon="6.76314">
        <ele>1210.6</ele>
        <time>2026-06-26T07:06:15Z</time>
      </trkpt>
      <trkpt lat="46.06622" lon="6.76314">
        <ele>1210.6</ele>
        <time>2026-06-26T07:06:16Z</time>
      </trkpt>
      <trkpt lat="46.06623" lon="6.76313">
        <ele>1210.7</ele>
        <time>2026-06-26T07:06:17Z</time>
      </trkpt>
      <trkpt lat="46.06623" lon="6.76312">
        <ele>1210.9</ele>
        <time>2026-06-26T07:06:18Z</time>
      </trkpt>
      <trkpt lat="46.06624" lon="6.76311">
        <ele>1211</ele>
        <time>2026-06-26T07:06:19Z</time>
      </trkpt>
      <trkpt lat="46.06626" lon="6.76311">
        <ele>1211.1</ele>
        <time>2026-06-26T07:06:20Z</time>
      </trkpt>
      <trkpt lat="46.06626" lon="6.7631">
        <ele>1211.2</ele>
        <time>2026-06-26T07:06:21Z</time>
      </trkpt>
      <trkpt lat="46.06626" lon="6.76309">
        <ele>1211.3</ele>
        <time>2026-06-26T07:06:22Z</time>
      </trkpt>
      <trkpt lat="46.06626" lon="6.76309">
        <ele>1211.4</ele>
        <time>2026-06-26T07:06:23Z</time>
      </trkpt>
      <trkpt lat="46.06627" lon="6.76308">
        <ele>1211.5</ele>
        <time>2026-06-26T07:06:24Z</time>
      </trkpt>
      <trkpt lat="46.06627" lon="6.76306">
        <ele>1211.9</ele>
        <time>2026-06-26T07:06:25Z</time>
      </trkpt>
      <trkpt lat="46.06627" lon="6.76305">
        <ele>1212</ele>
        <time>2026-06-26T07:06:26Z</time>
      </trkpt>
      <trkpt lat="46.06628" lon="6.76304">
        <ele>1212.1</ele>
        <time>2026-06-26T07:06:27Z</time>
      </trkpt>
      <trkpt lat="46.06628" lon="6.76304">
        <ele>1212.2</ele>
        <time>2026-06-26T07:06:28Z</time>
      </trkpt>
      <trkpt lat="46.06629" lon="6.76303">
        <ele>1212.3</ele>
        <time>2026-06-26T07:06:29Z</time>
      </trkpt>
      <trkpt lat="46.0663" lon="6.76302">
        <ele>1212.4</ele>
        <time>2026-06-26T07:06:30Z</time>
      </trkpt>
      <trkpt lat="46.06631" lon="6.76302">
        <ele>1212.5</ele>
        <time>2026-06-26T07:06:31Z</time>
      </trkpt>
      <trkpt lat="46.06632" lon="6.76302">
        <ele>1212.6</ele>
        <time>2026-06-26T07:06:32Z</time>
      </trkpt>
      <trkpt lat="46.06633" lon="6.76301">
        <ele>1212.8</ele>
        <time>2026-06-26T07:06:33Z</time>
      </trkpt>
      <trkpt lat="46.06635" lon="6.76303">
        <ele>1213</ele>
        <time>2026-06-26T07:06:34Z</time>
      </trkpt>
      <trkpt lat="46.06636" lon="6.76303">
        <ele>1213.1</ele>
        <time>2026-06-26T07:06:35Z</time>
      </trkpt>
      <trkpt lat="46.06637" lon="6.76303">
        <ele>1213.2</ele>
        <time>2026-06-26T07:06:36Z</time>
      </trkpt>
      <trkpt lat="46.06638" lon="6.76303">
        <ele>1213.2</ele>
        <time>2026-06-26T07:06:37Z</time>
      </trkpt>
      <trkpt lat="46.06638" lon="6.76304">
        <ele>1213.4</ele>
        <time>2026-06-26T07:06:38Z</time>
      </trkpt>
      <trkpt lat="46.06639" lon="6.76304">
        <ele>1213.6</ele>
        <time>2026-06-26T07:06:39Z</time>
      </trkpt>
      <trkpt lat="46.06639" lon="6.76303">
        <ele>1213.6</ele>
        <time>2026-06-26T07:06:40Z</time>
      </trkpt>
      <trkpt lat="46.0664" lon="6.76304">
        <ele>1213.7</ele>
        <time>2026-06-26T07:06:41Z</time>
      </trkpt>
      <trkpt lat="46.06641" lon="6.76304">
        <ele>1213.8</ele>
        <time>2026-06-26T07:06:42Z</time>
      </trkpt>
      <trkpt lat="46.06642" lon="6.76304">
        <ele>1213.8</ele>
        <time>2026-06-26T07:06:43Z</time>
      </trkpt>
      <trkpt lat="46.06643" lon="6.76304">
        <ele>1213.9</ele>
        <time>2026-06-26T07:06:44Z</time>
      </trkpt>
      <trkpt lat="46.06644" lon="6.76304">
        <ele>1214</ele>
        <time>2026-06-26T07:06:45Z</time>
      </trkpt>
      <trkpt lat="46.06644" lon="6.76303">
        <ele>1214</ele>
        <time>2026-06-26T07:06:46Z</time>
      </trkpt>
      <trkpt lat="46.06646" lon="6.76303">
        <ele>1214.1</ele>
        <time>2026-06-26T07:06:47Z</time>
      </trkpt>
      <trkpt lat="46.06647" lon="6.76303">
        <ele>1214.2</ele>
        <time>2026-06-26T07:06:48Z</time>
      </trkpt>
      <trkpt lat="46.06648" lon="6.76302">
        <ele>1214.3</ele>
        <time>2026-06-26T07:06:49Z</time>
      </trkpt>
      <trkpt lat="46.06649" lon="6.76302">
        <ele>1214.4</ele>
        <time>2026-06-26T07:06:50Z</time>
      </trkpt>
      <trkpt lat="46.0665" lon="6.763">
        <ele>1214.6</ele>
        <time>2026-06-26T07:06:51Z</time>
      </trkpt>
      <trkpt lat="46.06651" lon="6.763">
        <ele>1214.7</ele>
        <time>2026-06-26T07:06:52Z</time>
      </trkpt>
      <trkpt lat="46.06652" lon="6.763">
        <ele>1214.9</ele>
        <time>2026-06-26T07:06:53Z</time>
      </trkpt>
      <trkpt lat="46.06652" lon="6.76299">
        <ele>1215.1</ele>
        <time>2026-06-26T07:06:54Z</time>
      </trkpt>
      <trkpt lat="46.06653" lon="6.76299">
        <ele>1215.3</ele>
        <time>2026-06-26T07:06:55Z</time>
      </trkpt>
      <trkpt lat="46.06653" lon="6.76299">
        <ele>1215.5</ele>
        <time>2026-06-26T07:06:56Z</time>
      </trkpt>
      <trkpt lat="46.06654" lon="6.76298">
        <ele>1215.6</ele>
        <time>2026-06-26T07:06:57Z</time>
      </trkpt>
      <trkpt lat="46.06655" lon="6.76296">
        <ele>1215.8</ele>
        <time>2026-06-26T07:06:58Z</time>
      </trkpt>
      <trkpt lat="46.06655" lon="6.76296">
        <ele>1216</ele>
        <time>2026-06-26T07:06:59Z</time>
      </trkpt>
      <trkpt lat="46.06657" lon="6.76295">
        <ele>1216.2</ele>
        <time>2026-06-26T07:07:00Z</time>
      </trkpt>
      <trkpt lat="46.06657" lon="6.76295">
        <ele>1216.3</ele>
        <time>2026-06-26T07:07:01Z</time>
      </trkpt>
      <trkpt lat="46.06658" lon="6.76294">
        <ele>1216.5</ele>
        <time>2026-06-26T07:07:02Z</time>
      </trkpt>
      <trkpt lat="46.06659" lon="6.76294">
        <ele>1216.7</ele>
        <time>2026-06-26T07:07:03Z</time>
      </trkpt>
      <trkpt lat="46.0666" lon="6.76293">
        <ele>1216.8</ele>
        <time>2026-06-26T07:07:04Z</time>
      </trkpt>
      <trkpt lat="46.06661" lon="6.76292">
        <ele>1216.9</ele>
        <time>2026-06-26T07:07:05Z</time>
      </trkpt>
      <trkpt lat="46.06662" lon="6.7629">
        <ele>1217</ele>
        <time>2026-06-26T07:07:06Z</time>
      </trkpt>
      <trkpt lat="46.06662" lon="6.7629">
        <ele>1217.1</ele>
        <time>2026-06-26T07:07:07Z</time>
      </trkpt>
      <trkpt lat="46.06663" lon="6.76288">
        <ele>1217.2</ele>
        <time>2026-06-26T07:07:08Z</time>
      </trkpt>
      <trkpt lat="46.06664" lon="6.76287">
        <ele>1217.3</ele>
        <time>2026-06-26T07:07:09Z</time>
      </trkpt>
      <trkpt lat="46.06665" lon="6.76287">
        <ele>1217.4</ele>
        <time>2026-06-26T07:07:10Z</time>
      </trkpt>
      <trkpt lat="46.06666" lon="6.76286">
        <ele>1217.5</ele>
        <time>2026-06-26T07:07:11Z</time>
      </trkpt>
      <trkpt lat="46.06667" lon="6.76285">
        <ele>1217.5</ele>
        <time>2026-06-26T07:07:12Z</time>
      </trkpt>
      <trkpt lat="46.06667" lon="6.76284">
        <ele>1217.6</ele>
        <time>2026-06-26T07:07:13Z</time>
      </trkpt>
      <trkpt lat="46.06668" lon="6.76283">
        <ele>1217.6</ele>
        <time>2026-06-26T07:07:14Z</time>
      </trkpt>
      <trkpt lat="46.06669" lon="6.76283">
        <ele>1217.7</ele>
        <time>2026-06-26T07:07:15Z</time>
      </trkpt>
      <trkpt lat="46.0667" lon="6.76282">
        <ele>1217.9</ele>
        <time>2026-06-26T07:07:16Z</time>
      </trkpt>
      <trkpt lat="46.06671" lon="6.76281">
        <ele>1218.1</ele>
        <time>2026-06-26T07:07:17Z</time>
      </trkpt>
      <trkpt lat="46.06672" lon="6.7628">
        <ele>1218.2</ele>
        <time>2026-06-26T07:07:18Z</time>
      </trkpt>
      <trkpt lat="46.06673" lon="6.7628">
        <ele>1218.2</ele>
        <time>2026-06-26T07:07:19Z</time>
      </trkpt>
      <trkpt lat="46.06674" lon="6.76279">
        <ele>1218.3</ele>
        <time>2026-06-26T07:07:20Z</time>
      </trkpt>
      <trkpt lat="46.06675" lon="6.76278">
        <ele>1218.3</ele>
        <time>2026-06-26T07:07:21Z</time>
      </trkpt>
      <trkpt lat="46.06676" lon="6.76277">
        <ele>1218.4</ele>
        <time>2026-06-26T07:07:22Z</time>
      </trkpt>
      <trkpt lat="46.06676" lon="6.76276">
        <ele>1218.6</ele>
        <time>2026-06-26T07:07:23Z</time>
      </trkpt>
      <trkpt lat="46.06677" lon="6.76276">
        <ele>1218.7</ele>
        <time>2026-06-26T07:07:24Z</time>
      </trkpt>
      <trkpt lat="46.06678" lon="6.76275">
        <ele>1218.8</ele>
        <time>2026-06-26T07:07:25Z</time>
      </trkpt>
      <trkpt lat="46.06678" lon="6.76274">
        <ele>1218.9</ele>
        <time>2026-06-26T07:07:26Z</time>
      </trkpt>
      <trkpt lat="46.06679" lon="6.76273">
        <ele>1219.1</ele>
        <time>2026-06-26T07:07:27Z</time>
      </trkpt>
      <trkpt lat="46.06679" lon="6.76272">
        <ele>1219.2</ele>
        <time>2026-06-26T07:07:28Z</time>
      </trkpt>
      <trkpt lat="46.0668" lon="6.76271">
        <ele>1219.3</ele>
        <time>2026-06-26T07:07:29Z</time>
      </trkpt>
      <trkpt lat="46.06681" lon="6.7627">
        <ele>1219.5</ele>
        <time>2026-06-26T07:07:30Z</time>
      </trkpt>
      <trkpt lat="46.06681" lon="6.76269">
        <ele>1219.6</ele>
        <time>2026-06-26T07:07:31Z</time>
      </trkpt>
      <trkpt lat="46.06681" lon="6.76269">
        <ele>1219.8</ele>
        <time>2026-06-26T07:07:32Z</time>
      </trkpt>
      <trkpt lat="46.06681" lon="6.76267">
        <ele>1220</ele>
        <time>2026-06-26T07:07:33Z</time>
      </trkpt>
      <trkpt lat="46.06682" lon="6.76267">
        <ele>1220.2</ele>
        <time>2026-06-26T07:07:34Z</time>
      </trkpt>
      <trkpt lat="46.06683" lon="6.76266">
        <ele>1220.4</ele>
        <time>2026-06-26T07:07:35Z</time>
      </trkpt>
      <trkpt lat="46.06683" lon="6.76265">
        <ele>1220.6</ele>
        <time>2026-06-26T07:07:36Z</time>
      </trkpt>
      <trkpt lat="46.06684" lon="6.76264">
        <ele>1220.7</ele>
        <time>2026-06-26T07:07:37Z</time>
      </trkpt>
      <trkpt lat="46.06685" lon="6.76263">
        <ele>1220.9</ele>
        <time>2026-06-26T07:07:38Z</time>
      </trkpt>
      <trkpt lat="46.06685" lon="6.76262">
        <ele>1221</ele>
        <time>2026-06-26T07:07:39Z</time>
      </trkpt>
      <trkpt lat="46.06686" lon="6.76262">
        <ele>1221.1</ele>
        <time>2026-06-26T07:07:40Z</time>
      </trkpt>
      <trkpt lat="46.06686" lon="6.76261">
        <ele>1221.2</ele>
        <time>2026-06-26T07:07:41Z</time>
      </trkpt>
      <trkpt lat="46.06687" lon="6.76261">
        <ele>1221.3</ele>
        <time>2026-06-26T07:07:42Z</time>
      </trkpt>
      <trkpt lat="46.06688" lon="6.76259">
        <ele>1221.3</ele>
        <time>2026-06-26T07:07:43Z</time>
      </trkpt>
      <trkpt lat="46.06688" lon="6.76258">
        <ele>1221.4</ele>
        <time>2026-06-26T07:07:44Z</time>
      </trkpt>
      <trkpt lat="46.06689" lon="6.76257">
        <ele>1221.6</ele>
        <time>2026-06-26T07:07:45Z</time>
      </trkpt>
      <trkpt lat="46.06689" lon="6.76257">
        <ele>1221.7</ele>
        <time>2026-06-26T07:07:46Z</time>
      </trkpt>
      <trkpt lat="46.0669" lon="6.76256">
        <ele>1221.8</ele>
        <time>2026-06-26T07:07:47Z</time>
      </trkpt>
      <trkpt lat="46.0669" lon="6.76255">
        <ele>1222</ele>
        <time>2026-06-26T07:07:48Z</time>
      </trkpt>
      <trkpt lat="46.06692" lon="6.76255">
        <ele>1222</ele>
        <time>2026-06-26T07:07:49Z</time>
      </trkpt>
      <trkpt lat="46.06693" lon="6.76254">
        <ele>1222.2</ele>
        <time>2026-06-26T07:07:50Z</time>
      </trkpt>
      <trkpt lat="46.06694" lon="6.76253">
        <ele>1222.2</ele>
        <time>2026-06-26T07:07:51Z</time>
      </trkpt>
      <trkpt lat="46.06695" lon="6.76253">
        <ele>1222.3</ele>
        <time>2026-06-26T07:07:52Z</time>
      </trkpt>
      <trkpt lat="46.06695" lon="6.76252">
        <ele>1222.4</ele>
        <time>2026-06-26T07:07:53Z</time>
      </trkpt>
      <trkpt lat="46.06696" lon="6.76251">
        <ele>1222.5</ele>
        <time>2026-06-26T07:07:54Z</time>
      </trkpt>
      <trkpt lat="46.06696" lon="6.7625">
        <ele>1222.6</ele>
        <time>2026-06-26T07:07:55Z</time>
      </trkpt>
      <trkpt lat="46.06697" lon="6.7625">
        <ele>1222.8</ele>
        <time>2026-06-26T07:07:56Z</time>
      </trkpt>
      <trkpt lat="46.06698" lon="6.7625">
        <ele>1222.9</ele>
        <time>2026-06-26T07:07:57Z</time>
      </trkpt>
      <trkpt lat="46.06699" lon="6.7625">
        <ele>1223.2</ele>
        <time>2026-06-26T07:07:58Z</time>
      </trkpt>
      <trkpt lat="46.067" lon="6.76249">
        <ele>1223.3</ele>
        <time>2026-06-26T07:07:59Z</time>
      </trkpt>
      <trkpt lat="46.067" lon="6.76248">
        <ele>1223.5</ele>
        <time>2026-06-26T07:08:00Z</time>
      </trkpt>
      <trkpt lat="46.06701" lon="6.76248">
        <ele>1223.7</ele>
        <time>2026-06-26T07:08:01Z</time>
      </trkpt>
      <trkpt lat="46.06702" lon="6.76248">
        <ele>1223.9</ele>
        <time>2026-06-26T07:08:02Z</time>
      </trkpt>
      <trkpt lat="46.06702" lon="6.76247">
        <ele>1224.1</ele>
        <time>2026-06-26T07:08:03Z</time>
      </trkpt>
      <trkpt lat="46.06703" lon="6.76247">
        <ele>1224.3</ele>
        <time>2026-06-26T07:08:04Z</time>
      </trkpt>
      <trkpt lat="46.06704" lon="6.76246">
        <ele>1224.4</ele>
        <time>2026-06-26T07:08:05Z</time>
      </trkpt>
      <trkpt lat="46.06705" lon="6.76246">
        <ele>1224.5</ele>
        <time>2026-06-26T07:08:06Z</time>
      </trkpt>
      <trkpt lat="46.06705" lon="6.76246">
        <ele>1224.7</ele>
        <time>2026-06-26T07:08:07Z</time>
      </trkpt>
      <trkpt lat="46.06706" lon="6.76245">
        <ele>1224.8</ele>
        <time>2026-06-26T07:08:08Z</time>
      </trkpt>
      <trkpt lat="46.06706" lon="6.76245">
        <ele>1225</ele>
        <time>2026-06-26T07:08:09Z</time>
      </trkpt>
      <trkpt lat="46.06707" lon="6.76244">
        <ele>1225.2</ele>
        <time>2026-06-26T07:08:10Z</time>
      </trkpt>
      <trkpt lat="46.06708" lon="6.76242">
        <ele>1225.3</ele>
        <time>2026-06-26T07:08:11Z</time>
      </trkpt>
      <trkpt lat="46.06708" lon="6.76242">
        <ele>1225.4</ele>
        <time>2026-06-26T07:08:12Z</time>
      </trkpt>
      <trkpt lat="46.06709" lon="6.76241">
        <ele>1225.6</ele>
        <time>2026-06-26T07:08:13Z</time>
      </trkpt>
      <trkpt lat="46.0671" lon="6.76241">
        <ele>1225.8</ele>
        <time>2026-06-26T07:08:14Z</time>
      </trkpt>
      <trkpt lat="46.06711" lon="6.7624">
        <ele>1225.8</ele>
        <time>2026-06-26T07:08:15Z</time>
      </trkpt>
      <trkpt lat="46.06711" lon="6.76239">
        <ele>1225.9</ele>
        <time>2026-06-26T07:08:16Z</time>
      </trkpt>
      <trkpt lat="46.0671" lon="6.76239">
        <ele>1225.9</ele>
        <time>2026-06-26T07:08:17Z</time>
      </trkpt>
      <trkpt lat="46.06711" lon="6.76238">
        <ele>1226</ele>
        <time>2026-06-26T07:08:18Z</time>
      </trkpt>
      <trkpt lat="46.06712" lon="6.76237">
        <ele>1226.1</ele>
        <time>2026-06-26T07:08:19Z</time>
      </trkpt>
      <trkpt lat="46.06713" lon="6.76235">
        <ele>1226.3</ele>
        <time>2026-06-26T07:08:20Z</time>
      </trkpt>
      <trkpt lat="46.06714" lon="6.76234">
        <ele>1226.4</ele>
        <time>2026-06-26T07:08:21Z</time>
      </trkpt>
      <trkpt lat="46.06715" lon="6.76233">
        <ele>1226.5</ele>
        <time>2026-06-26T07:08:22Z</time>
      </trkpt>
      <trkpt lat="46.06716" lon="6.76232">
        <ele>1226.6</ele>
        <time>2026-06-26T07:08:23Z</time>
      </trkpt>
      <trkpt lat="46.06716" lon="6.76231">
        <ele>1226.8</ele>
        <time>2026-06-26T07:08:24Z</time>
      </trkpt>
      <trkpt lat="46.06717" lon="6.76231">
        <ele>1226.9</ele>
        <time>2026-06-26T07:08:25Z</time>
      </trkpt>
      <trkpt lat="46.06717" lon="6.7623">
        <ele>1227</ele>
        <time>2026-06-26T07:08:26Z</time>
      </trkpt>
      <trkpt lat="46.06718" lon="6.76229">
        <ele>1227.1</ele>
        <time>2026-06-26T07:08:27Z</time>
      </trkpt>
      <trkpt lat="46.06719" lon="6.76228">
        <ele>1227.2</ele>
        <time>2026-06-26T07:08:28Z</time>
      </trkpt>
      <trkpt lat="46.06719" lon="6.76227">
        <ele>1227.3</ele>
        <time>2026-06-26T07:08:29Z</time>
      </trkpt>
      <trkpt lat="46.0672" lon="6.76226">
        <ele>1227.3</ele>
        <time>2026-06-26T07:08:30Z</time>
      </trkpt>
      <trkpt lat="46.06721" lon="6.76225">
        <ele>1227.4</ele>
        <time>2026-06-26T07:08:31Z</time>
      </trkpt>
      <trkpt lat="46.06722" lon="6.76225">
        <ele>1227.5</ele>
        <time>2026-06-26T07:08:32Z</time>
      </trkpt>
      <trkpt lat="46.06722" lon="6.76224">
        <ele>1227.7</ele>
        <time>2026-06-26T07:08:33Z</time>
      </trkpt>
      <trkpt lat="46.06723" lon="6.76223">
        <ele>1227.9</ele>
        <time>2026-06-26T07:08:34Z</time>
      </trkpt>
      <trkpt lat="46.06723" lon="6.76222">
        <ele>1228.1</ele>
        <time>2026-06-26T07:08:35Z</time>
      </trkpt>
      <trkpt lat="46.06724" lon="6.7622">
        <ele>1228.3</ele>
        <time>2026-06-26T07:08:36Z</time>
      </trkpt>
      <trkpt lat="46.06725" lon="6.76219">
        <ele>1228.4</ele>
        <time>2026-06-26T07:08:37Z</time>
      </trkpt>
      <trkpt lat="46.06725" lon="6.76219">
        <ele>1228.6</ele>
        <time>2026-06-26T07:08:38Z</time>
      </trkpt>
      <trkpt lat="46.06726" lon="6.76217">
        <ele>1228.7</ele>
        <time>2026-06-26T07:08:39Z</time>
      </trkpt>
      <trkpt lat="46.06727" lon="6.76217">
        <ele>1228.8</ele>
        <time>2026-06-26T07:08:40Z</time>
      </trkpt>
      <trkpt lat="46.06727" lon="6.76216">
        <ele>1228.9</ele>
        <time>2026-06-26T07:08:41Z</time>
      </trkpt>
      <trkpt lat="46.06727" lon="6.76215">
        <ele>1228.9</ele>
        <time>2026-06-26T07:08:42Z</time>
      </trkpt>
      <trkpt lat="46.06728" lon="6.76214">
        <ele>1229</ele>
        <time>2026-06-26T07:08:43Z</time>
      </trkpt>
      <trkpt lat="46.06729" lon="6.76212">
        <ele>1229.1</ele>
        <time>2026-06-26T07:08:44Z</time>
      </trkpt>
      <trkpt lat="46.06729" lon="6.76211">
        <ele>1229.2</ele>
        <time>2026-06-26T07:08:45Z</time>
      </trkpt>
      <trkpt lat="46.06729" lon="6.76211">
        <ele>1229.3</ele>
        <time>2026-06-26T07:08:46Z</time>
      </trkpt>
      <trkpt lat="46.06729" lon="6.7621">
        <ele>1229.4</ele>
        <time>2026-06-26T07:08:47Z</time>
      </trkpt>
      <trkpt lat="46.06729" lon="6.76209">
        <ele>1229.5</ele>
        <time>2026-06-26T07:08:48Z</time>
      </trkpt>
      <trkpt lat="46.06731" lon="6.76207">
        <ele>1229.7</ele>
        <time>2026-06-26T07:08:49Z</time>
      </trkpt>
      <trkpt lat="46.06731" lon="6.76206">
        <ele>1229.8</ele>
        <time>2026-06-26T07:08:50Z</time>
      </trkpt>
      <trkpt lat="46.06731" lon="6.76205">
        <ele>1230</ele>
        <time>2026-06-26T07:08:51Z</time>
      </trkpt>
      <trkpt lat="46.06731" lon="6.76204">
        <ele>1230.1</ele>
        <time>2026-06-26T07:08:52Z</time>
      </trkpt>
      <trkpt lat="46.06731" lon="6.76203">
        <ele>1230.3</ele>
        <time>2026-06-26T07:08:53Z</time>
      </trkpt>
      <trkpt lat="46.06731" lon="6.76202">
        <ele>1230.4</ele>
        <time>2026-06-26T07:08:54Z</time>
      </trkpt>
      <trkpt lat="46.06731" lon="6.76202">
        <ele>1230.5</ele>
        <time>2026-06-26T07:08:55Z</time>
      </trkpt>
      <trkpt lat="46.06731" lon="6.76202">
        <ele>1230.6</ele>
        <time>2026-06-26T07:08:56Z</time>
      </trkpt>
      <trkpt lat="46.06731" lon="6.76202">
        <ele>1230.7</ele>
        <time>2026-06-26T07:08:57Z</time>
      </trkpt>
      <trkpt lat="46.06731" lon="6.76203">
        <ele>1230.7</ele>
        <time>2026-06-26T07:08:58Z</time>
      </trkpt>
      <trkpt lat="46.06731" lon="6.76204">
        <ele>1230.7</ele>
        <time>2026-06-26T07:08:59Z</time>
      </trkpt>
      <trkpt lat="46.06732" lon="6.76206">
        <ele>1230.7</ele>
        <time>2026-06-26T07:09:00Z</time>
      </trkpt>
      <trkpt lat="46.06732" lon="6.76206">
        <ele>1230.8</ele>
        <time>2026-06-26T07:09:01Z</time>
      </trkpt>
      <trkpt lat="46.06732" lon="6.76206">
        <ele>1230.9</ele>
        <time>2026-06-26T07:09:02Z</time>
      </trkpt>
      <trkpt lat="46.06732" lon="6.76207">
        <ele>1230.9</ele>
        <time>2026-06-26T07:09:03Z</time>
      </trkpt>
      <trkpt lat="46.06732" lon="6.76206">
        <ele>1231</ele>
        <time>2026-06-26T07:09:04Z</time>
      </trkpt>
      <trkpt lat="46.06732" lon="6.76206">
        <ele>1231</ele>
        <time>2026-06-26T07:09:05Z</time>
      </trkpt>
      <trkpt lat="46.06732" lon="6.76206">
        <ele>1231</ele>
        <time>2026-06-26T07:09:06Z</time>
      </trkpt>
      <trkpt lat="46.06732" lon="6.76206">
        <ele>1231</ele>
        <time>2026-06-26T07:09:07Z</time>
      </trkpt>
      <trkpt lat="46.06732" lon="6.76206">
        <ele>1231.1</ele>
        <time>2026-06-26T07:09:08Z</time>
      </trkpt>
      <trkpt lat="46.06732" lon="6.76206">
        <ele>1231.1</ele>
        <time>2026-06-26T07:09:09Z</time>
      </trkpt>
      <trkpt lat="46.06732" lon="6.76206">
        <ele>1231.2</ele>
        <time>2026-06-26T07:09:10Z</time>
      </trkpt>
      <trkpt lat="46.06732" lon="6.76206">
        <ele>1231.2</ele>
        <time>2026-06-26T07:09:11Z</time>
      </trkpt>
      <trkpt lat="46.06732" lon="6.76206">
        <ele>1231.1</ele>
        <time>2026-06-26T07:09:12Z</time>
      </trkpt>
      <trkpt lat="46.06732" lon="6.76206">
        <ele>1231</ele>
        <time>2026-06-26T07:09:13Z</time>
      </trkpt>
      <trkpt lat="46.06731" lon="6.76206">
        <ele>1231</ele>
        <time>2026-06-26T07:09:14Z</time>
      </trkpt>
      <trkpt lat="46.06731" lon="6.76207">
        <ele>1231</ele>
        <time>2026-06-26T07:09:15Z</time>
      </trkpt>
      <trkpt lat="46.06731" lon="6.76208">
        <ele>1231.1</ele>
        <time>2026-06-26T07:09:16Z</time>
      </trkpt>
      <trkpt lat="46.06732" lon="6.76209">
        <ele>1231.1</ele>
        <time>2026-06-26T07:09:17Z</time>
      </trkpt>
      <trkpt lat="46.06732" lon="6.76209">
        <ele>1231.1</ele>
        <time>2026-06-26T07:09:18Z</time>
      </trkpt>
      <trkpt lat="46.06733" lon="6.7621">
        <ele>1231.2</ele>
        <time>2026-06-26T07:09:19Z</time>
      </trkpt>
      <trkpt lat="46.06732" lon="6.7621">
        <ele>1231.1</ele>
        <time>2026-06-26T07:09:20Z</time>
      </trkpt>
      <trkpt lat="46.06732" lon="6.76209">
        <ele>1231</ele>
        <time>2026-06-26T07:09:21Z</time>
      </trkpt>
      <trkpt lat="46.06731" lon="6.76209">
        <ele>1230.9</ele>
        <time>2026-06-26T07:09:22Z</time>
      </trkpt>
      <trkpt lat="46.06731" lon="6.76209">
        <ele>1230.9</ele>
        <time>2026-06-26T07:09:23Z</time>
      </trkpt>
      <trkpt lat="46.06731" lon="6.76209">
        <ele>1230.8</ele>
        <time>2026-06-26T07:09:24Z</time>
      </trkpt>
      <trkpt lat="46.06731" lon="6.7621">
        <ele>1230.8</ele>
        <time>2026-06-26T07:09:25Z</time>
      </trkpt>
      <trkpt lat="46.06731" lon="6.7621">
        <ele>1230.8</ele>
        <time>2026-06-26T07:09:26Z</time>
      </trkpt>
      <trkpt lat="46.06732" lon="6.76211">
        <ele>1230.8</ele>
        <time>2026-06-26T07:09:27Z</time>
      </trkpt>
      <trkpt lat="46.06731" lon="6.7621">
        <ele>1230.8</ele>
        <time>2026-06-26T07:09:28Z</time>
      </trkpt>
      <trkpt lat="46.06731" lon="6.7621">
        <ele>1230.8</ele>
        <time>2026-06-26T07:09:29Z</time>
      </trkpt>
      <trkpt lat="46.06731" lon="6.7621">
        <ele>1230.8</ele>
        <time>2026-06-26T07:09:30Z</time>
      </trkpt>
      <trkpt lat="46.06732" lon="6.76209">
        <ele>1230.7</ele>
        <time>2026-06-26T07:09:31Z</time>
      </trkpt>
      <trkpt lat="46.06731" lon="6.76208">
        <ele>1230.9</ele>
        <time>2026-06-26T07:09:32Z</time>
      </trkpt>
      <trkpt lat="46.06731" lon="6.76208">
        <ele>1230.8</ele>
        <time>2026-06-26T07:09:33Z</time>
      </trkpt>
      <trkpt lat="46.06731" lon="6.76207">
        <ele>1230.8</ele>
        <time>2026-06-26T07:09:34Z</time>
      </trkpt>
      <trkpt lat="46.06731" lon="6.76207">
        <ele>1230.9</ele>
        <time>2026-06-26T07:09:35Z</time>
      </trkpt>
      <trkpt lat="46.06731" lon="6.76207">
        <ele>1231</ele>
        <time>2026-06-26T07:09:36Z</time>
      </trkpt>
      <trkpt lat="46.0673" lon="6.76206">
        <ele>1231</ele>
        <time>2026-06-26T07:09:37Z</time>
      </trkpt>
      <trkpt lat="46.0673" lon="6.76206">
        <ele>1231</ele>
        <time>2026-06-26T07:09:38Z</time>
      </trkpt>
      <trkpt lat="46.06729" lon="6.76205">
        <ele>1231</ele>
        <time>2026-06-26T07:09:39Z</time>
      </trkpt>
      <trkpt lat="46.06728" lon="6.76205">
        <ele>1231</ele>
        <time>2026-06-26T07:09:40Z</time>
      </trkpt>
      <trkpt lat="46.06728" lon="6.76205">
        <ele>1231</ele>
        <time>2026-06-26T07:09:41Z</time>
      </trkpt>
      <trkpt lat="46.06727" lon="6.76205">
        <ele>1231</ele>
        <time>2026-06-26T07:09:42Z</time>
      </trkpt>
      <trkpt lat="46.06727" lon="6.76205">
        <ele>1231</ele>
        <time>2026-06-26T07:09:43Z</time>
      </trkpt>
      <trkpt lat="46.06726" lon="6.76205">
        <ele>1231</ele>
        <time>2026-06-26T07:09:44Z</time>
      </trkpt>
      <trkpt lat="46.06726" lon="6.76205">
        <ele>1231</ele>
        <time>2026-06-26T07:09:45Z</time>
      </trkpt>
      <trkpt lat="46.06726" lon="6.76204">
        <ele>1231.1</ele>
        <time>2026-06-26T07:09:46Z</time>
      </trkpt>
      <trkpt lat="46.06726" lon="6.76203">
        <ele>1231.1</ele>
        <time>2026-06-26T07:09:47Z</time>
      </trkpt>
      <trkpt lat="46.06726" lon="6.76203">
        <ele>1231.1</ele>
        <time>2026-06-26T07:09:48Z</time>
      </trkpt>
      <trkpt lat="46.06725" lon="6.76202">
        <ele>1231.1</ele>
        <time>2026-06-26T07:09:49Z</time>
      </trkpt>
      <trkpt lat="46.06725" lon="6.76202">
        <ele>1231.1</ele>
        <time>2026-06-26T07:09:50Z</time>
      </trkpt>
      <trkpt lat="46.06725" lon="6.76202">
        <ele>1231.1</ele>
        <time>2026-06-26T07:09:51Z</time>
      </trkpt>
      <trkpt lat="46.06725" lon="6.76202">
        <ele>1231.1</ele>
        <time>2026-06-26T07:09:52Z</time>
      </trkpt>
      <trkpt lat="46.06725" lon="6.76202">
        <ele>1231.1</ele>
        <time>2026-06-26T07:09:53Z</time>
      </trkpt>
      <trkpt lat="46.06725" lon="6.76202">
        <ele>1231.1</ele>
        <time>2026-06-26T07:09:54Z</time>
      </trkpt>
      <trkpt lat="46.06725" lon="6.76202">
        <ele>1231.2</ele>
        <time>2026-06-26T07:09:55Z</time>
      </trkpt>
      <trkpt lat="46.06725" lon="6.76203">
        <ele>1231.2</ele>
        <time>2026-06-26T07:09:56Z</time>
      </trkpt>
      <trkpt lat="46.06725" lon="6.76203">
        <ele>1231.3</ele>
        <time>2026-06-26T07:09:57Z</time>
      </trkpt>
      <trkpt lat="46.06726" lon="6.76203">
        <ele>1231.3</ele>
        <time>2026-06-26T07:09:58Z</time>
      </trkpt>
      <trkpt lat="46.06725" lon="6.76203">
        <ele>1231.4</ele>
        <time>2026-06-26T07:09:59Z</time>
      </trkpt>
      <trkpt lat="46.06725" lon="6.76203">
        <ele>1231.4</ele>
        <time>2026-06-26T07:10:00Z</time>
      </trkpt>
      <trkpt lat="46.06724" lon="6.76203">
        <ele>1231.4</ele>
        <time>2026-06-26T07:10:01Z</time>
      </trkpt>
      <trkpt lat="46.06724" lon="6.76203">
        <ele>1231.4</ele>
        <time>2026-06-26T07:10:02Z</time>
      </trkpt>
      <trkpt lat="46.06724" lon="6.76201">
        <ele>1231.4</ele>
        <time>2026-06-26T07:10:03Z</time>
      </trkpt>
      <trkpt lat="46.06723" lon="6.762">
        <ele>1231.4</ele>
        <time>2026-06-26T07:10:04Z</time>
      </trkpt>
      <trkpt lat="46.06723" lon="6.762">
        <ele>1231.4</ele>
        <time>2026-06-26T07:10:05Z</time>
      </trkpt>
      <trkpt lat="46.06723" lon="6.762">
        <ele>1231.4</ele>
        <time>2026-06-26T07:10:06Z</time>
      </trkpt>
      <trkpt lat="46.06722" lon="6.762">
        <ele>1231.4</ele>
        <time>2026-06-26T07:10:07Z</time>
      </trkpt>
      <trkpt lat="46.06722" lon="6.76199">
        <ele>1231.4</ele>
        <time>2026-06-26T07:10:08Z</time>
      </trkpt>
      <trkpt lat="46.06723" lon="6.762">
        <ele>1231.4</ele>
        <time>2026-06-26T07:10:09Z</time>
      </trkpt>
      <trkpt lat="46.06723" lon="6.762">
        <ele>1231.4</ele>
        <time>2026-06-26T07:10:10Z</time>
      </trkpt>
      <trkpt lat="46.06723" lon="6.76201">
        <ele>1231.4</ele>
        <time>2026-06-26T07:10:11Z</time>
      </trkpt>
      <trkpt lat="46.06722" lon="6.76201">
        <ele>1231.3</ele>
        <time>2026-06-26T07:10:12Z</time>
      </trkpt>
      <trkpt lat="46.06722" lon="6.76201">
        <ele>1231.3</ele>
        <time>2026-06-26T07:10:13Z</time>
      </trkpt>
      <trkpt lat="46.06722" lon="6.76201">
        <ele>1231.3</ele>
        <time>2026-06-26T07:10:14Z</time>
      </trkpt>
      <trkpt lat="46.06722" lon="6.76201">
        <ele>1231.2</ele>
        <time>2026-06-26T07:10:15Z</time>
      </trkpt>
      <trkpt lat="46.06722" lon="6.76201">
        <ele>1231.2</ele>
        <time>2026-06-26T07:10:16Z</time>
      </trkpt>
      <trkpt lat="46.06722" lon="6.76201">
        <ele>1231.2</ele>
        <time>2026-06-26T07:10:17Z</time>
      </trkpt>
      <trkpt lat="46.06722" lon="6.76202">
        <ele>1231.2</ele>
        <time>2026-06-26T07:10:18Z</time>
      </trkpt>
      <trkpt lat="46.06722" lon="6.76202">
        <ele>1231.2</ele>
        <time>2026-06-26T07:10:19Z</time>
      </trkpt>
      <trkpt lat="46.06722" lon="6.76202">
        <ele>1231.1</ele>
        <time>2026-06-26T07:10:20Z</time>
      </trkpt>
      <trkpt lat="46.06722" lon="6.76203">
        <ele>1231.1</ele>
        <time>2026-06-26T07:10:21Z</time>
      </trkpt>
      <trkpt lat="46.06722" lon="6.76203">
        <ele>1231</ele>
        <time>2026-06-26T07:10:22Z</time>
      </trkpt>
      <trkpt lat="46.06722" lon="6.76203">
        <ele>1231</ele>
        <time>2026-06-26T07:10:23Z</time>
      </trkpt>
      <trkpt lat="46.06722" lon="6.76203">
        <ele>1231</ele>
        <time>2026-06-26T07:10:24Z</time>
      </trkpt>
      <trkpt lat="46.06722" lon="6.76203">
        <ele>1231</ele>
        <time>2026-06-26T07:10:25Z</time>
      </trkpt>
      <trkpt lat="46.06722" lon="6.76203">
        <ele>1231</ele>
        <time>2026-06-26T07:10:26Z</time>
      </trkpt>
      <trkpt lat="46.06721" lon="6.76204">
        <ele>1231</ele>
        <time>2026-06-26T07:10:27Z</time>
      </trkpt>
      <trkpt lat="46.06721" lon="6.76204">
        <ele>1231</ele>
        <time>2026-06-26T07:10:28Z</time>
      </trkpt>
      <trkpt lat="46.06721" lon="6.76204">
        <ele>1231</ele>
        <time>2026-06-26T07:10:29Z</time>
      </trkpt>
      <trkpt lat="46.06721" lon="6.76205">
        <ele>1231.1</ele>
        <time>2026-06-26T07:10:30Z</time>
      </trkpt>
      <trkpt lat="46.06721" lon="6.76205">
        <ele>1231.1</ele>
        <time>2026-06-26T07:10:31Z</time>
      </trkpt>
      <trkpt lat="46.06721" lon="6.76205">
        <ele>1231.2</ele>
        <time>2026-06-26T07:10:32Z</time>
      </trkpt>
      <trkpt lat="46.06721" lon="6.76206">
        <ele>1231.3</ele>
        <time>2026-06-26T07:10:33Z</time>
      </trkpt>
      <trkpt lat="46.06721" lon="6.76206">
        <ele>1231.3</ele>
        <time>2026-06-26T07:10:34Z</time>
      </trkpt>
      <trkpt lat="46.06721" lon="6.76206">
        <ele>1231.4</ele>
        <time>2026-06-26T07:10:35Z</time>
      </trkpt>
      <trkpt lat="46.06721" lon="6.76207">
        <ele>1231.4</ele>
        <time>2026-06-26T07:10:36Z</time>
      </trkpt>
      <trkpt lat="46.06721" lon="6.76208">
        <ele>1231.5</ele>
        <time>2026-06-26T07:10:37Z</time>
      </trkpt>
      <trkpt lat="46.0672" lon="6.76208">
        <ele>1231.5</ele>
        <time>2026-06-26T07:10:38Z</time>
      </trkpt>
      <trkpt lat="46.0672" lon="6.76208">
        <ele>1231.5</ele>
        <time>2026-06-26T07:10:39Z</time>
      </trkpt>
      <trkpt lat="46.06721" lon="6.76207">
        <ele>1231.5</ele>
        <time>2026-06-26T07:10:40Z</time>
      </trkpt>
      <trkpt lat="46.06721" lon="6.76207">
        <ele>1231.5</ele>
        <time>2026-06-26T07:10:41Z</time>
      </trkpt>
      <trkpt lat="46.0672" lon="6.76207">
        <ele>1231.5</ele>
        <time>2026-06-26T07:10:42Z</time>
      </trkpt>
      <trkpt lat="46.0672" lon="6.76206">
        <ele>1231.5</ele>
        <time>2026-06-26T07:10:43Z</time>
      </trkpt>
      <trkpt lat="46.0672" lon="6.76206">
        <ele>1231.4</ele>
        <time>2026-06-26T07:10:44Z</time>
      </trkpt>
      <trkpt lat="46.0672" lon="6.76206">
        <ele>1231.4</ele>
        <time>2026-06-26T07:10:45Z</time>
      </trkpt>
      <trkpt lat="46.0672" lon="6.76206">
        <ele>1231.4</ele>
        <time>2026-06-26T07:10:46Z</time>
      </trkpt>
      <trkpt lat="46.0672" lon="6.76205">
        <ele>1231.4</ele>
        <time>2026-06-26T07:10:47Z</time>
      </trkpt>
      <trkpt lat="46.0672" lon="6.76205">
        <ele>1231.4</ele>
        <time>2026-06-26T07:10:48Z</time>
      </trkpt>
      <trkpt lat="46.06721" lon="6.76204">
        <ele>1231.5</ele>
        <time>2026-06-26T07:10:49Z</time>
      </trkpt>
      <trkpt lat="46.06721" lon="6.76203">
        <ele>1231.5</ele>
        <time>2026-06-26T07:10:50Z</time>
      </trkpt>
      <trkpt lat="46.06721" lon="6.76204">
        <ele>1231.5</ele>
        <time>2026-06-26T07:10:51Z</time>
      </trkpt>
      <trkpt lat="46.06722" lon="6.76205">
        <ele>1231.4</ele>
        <time>2026-06-26T07:10:52Z</time>
      </trkpt>
      <trkpt lat="46.06722" lon="6.76205">
        <ele>1231.5</ele>
        <time>2026-06-26T07:10:53Z</time>
      </trkpt>
      <trkpt lat="46.06722" lon="6.76205">
        <ele>1231.5</ele>
        <time>2026-06-26T07:10:54Z</time>
      </trkpt>
      <trkpt lat="46.06722" lon="6.76205">
        <ele>1231.5</ele>
        <time>2026-06-26T07:10:55Z</time>
      </trkpt>
      <trkpt lat="46.06723" lon="6.76203">
        <ele>1231.5</ele>
        <time>2026-06-26T07:10:56Z</time>
      </trkpt>
      <trkpt lat="46.06723" lon="6.76203">
        <ele>1231.5</ele>
        <time>2026-06-26T07:10:57Z</time>
      </trkpt>
      <trkpt lat="46.06723" lon="6.76203">
        <ele>1231.5</ele>
        <time>2026-06-26T07:10:58Z</time>
      </trkpt>
      <trkpt lat="46.06723" lon="6.76203">
        <ele>1231.5</ele>
        <time>2026-06-26T07:10:59Z</time>
      </trkpt>
      <trkpt lat="46.06724" lon="6.76204">
        <ele>1231.5</ele>
        <time>2026-06-26T07:11:00Z</time>
      </trkpt>
      <trkpt lat="46.06724" lon="6.76203">
        <ele>1231.5</ele>
        <time>2026-06-26T07:11:01Z</time>
      </trkpt>
      <trkpt lat="46.06725" lon="6.76203">
        <ele>1231.5</ele>
        <time>2026-06-26T07:11:02Z</time>
      </trkpt>
      <trkpt lat="46.06724" lon="6.76202">
        <ele>1231.5</ele>
        <time>2026-06-26T07:11:03Z</time>
      </trkpt>
      <trkpt lat="46.06725" lon="6.76202">
        <ele>1231.4</ele>
        <time>2026-06-26T07:11:04Z</time>
      </trkpt>
      <trkpt lat="46.06725" lon="6.76202">
        <ele>1231.5</ele>
        <time>2026-06-26T07:11:05Z</time>
      </trkpt>
      <trkpt lat="46.06725" lon="6.76201">
        <ele>1231.5</ele>
        <time>2026-06-26T07:11:06Z</time>
      </trkpt>
      <trkpt lat="46.06725" lon="6.76201">
        <ele>1231.5</ele>
        <time>2026-06-26T07:11:07Z</time>
      </trkpt>
      <trkpt lat="46.06725" lon="6.76201">
        <ele>1231.5</ele>
        <time>2026-06-26T07:11:08Z</time>
      </trkpt>
      <trkpt lat="46.06725" lon="6.76201">
        <ele>1231.5</ele>
        <time>2026-06-26T07:11:09Z</time>
      </trkpt>
      <trkpt lat="46.06726" lon="6.762">
        <ele>1231.5</ele>
        <time>2026-06-26T07:11:10Z</time>
      </trkpt>
      <trkpt lat="46.06726" lon="6.76199">
        <ele>1231.6</ele>
        <time>2026-06-26T07:11:11Z</time>
      </trkpt>
      <trkpt lat="46.06726" lon="6.762">
        <ele>1231.6</ele>
        <time>2026-06-26T07:11:12Z</time>
      </trkpt>
      <trkpt lat="46.06726" lon="6.762">
        <ele>1231.5</ele>
        <time>2026-06-26T07:11:13Z</time>
      </trkpt>
      <trkpt lat="46.06726" lon="6.762">
        <ele>1231.5</ele>
        <time>2026-06-26T07:11:14Z</time>
      </trkpt>
      <trkpt lat="46.06727" lon="6.76199">
        <ele>1231.5</ele>
        <time>2026-06-26T07:11:15Z</time>
      </trkpt>
      <trkpt lat="46.06727" lon="6.762">
        <ele>1231.6</ele>
        <time>2026-06-26T07:11:16Z</time>
      </trkpt>
      <trkpt lat="46.06727" lon="6.76199">
        <ele>1231.6</ele>
        <time>2026-06-26T07:11:17Z</time>
      </trkpt>
      <trkpt lat="46.06727" lon="6.76199">
        <ele>1231.6</ele>
        <time>2026-06-26T07:11:18Z</time>
      </trkpt>
      <trkpt lat="46.06727" lon="6.76199">
        <ele>1231.6</ele>
        <time>2026-06-26T07:11:19Z</time>
      </trkpt>
      <trkpt lat="46.06727" lon="6.76199">
        <ele>1231.6</ele>
        <time>2026-06-26T07:11:20Z</time>
      </trkpt>
      <trkpt lat="46.06727" lon="6.76199">
        <ele>1231.7</ele>
        <time>2026-06-26T07:11:21Z</time>
      </trkpt>
      <trkpt lat="46.06727" lon="6.76199">
        <ele>1231.7</ele>
        <time>2026-06-26T07:11:22Z</time>
      </trkpt>
      <trkpt lat="46.06727" lon="6.76199">
        <ele>1231.7</ele>
        <time>2026-06-26T07:11:23Z</time>
      </trkpt>
      <trkpt lat="46.06727" lon="6.76199">
        <ele>1231.7</ele>
        <time>2026-06-26T07:11:24Z</time>
      </trkpt>
      <trkpt lat="46.06727" lon="6.76199">
        <ele>1231.7</ele>
        <time>2026-06-26T07:11:25Z</time>
      </trkpt>
      <trkpt lat="46.06727" lon="6.76199">
        <ele>1231.7</ele>
        <time>2026-06-26T07:11:26Z</time>
      </trkpt>
      <trkpt lat="46.06727" lon="6.76199">
        <ele>1231.8</ele>
        <time>2026-06-26T07:11:27Z</time>
      </trkpt>
      <trkpt lat="46.06727" lon="6.76199">
        <ele>1231.7</ele>
        <time>2026-06-26T07:11:28Z</time>
      </trkpt>
      <trkpt lat="46.06728" lon="6.762">
        <ele>1231.7</ele>
        <time>2026-06-26T07:11:29Z</time>
      </trkpt>
      <trkpt lat="46.06728" lon="6.762">
        <ele>1231.7</ele>
        <time>2026-06-26T07:11:30Z</time>
      </trkpt>
      <trkpt lat="46.06728" lon="6.762">
        <ele>1231.7</ele>
        <time>2026-06-26T07:11:31Z</time>
      </trkpt>
      <trkpt lat="46.06728" lon="6.762">
        <ele>1231.7</ele>
        <time>2026-06-26T07:11:32Z</time>
      </trkpt>
      <trkpt lat="46.06728" lon="6.762">
        <ele>1231.7</ele>
        <time>2026-06-26T07:11:33Z</time>
      </trkpt>
      <trkpt lat="46.06728" lon="6.762">
        <ele>1231.7</ele>
        <time>2026-06-26T07:11:34Z</time>
      </trkpt>
      <trkpt lat="46.06728" lon="6.76199">
        <ele>1231.7</ele>
        <time>2026-06-26T07:11:35Z</time>
      </trkpt>
      <trkpt lat="46.06728" lon="6.76199">
        <ele>1231.8</ele>
        <time>2026-06-26T07:11:36Z</time>
      </trkpt>
      <trkpt lat="46.06727" lon="6.76198">
        <ele>1231.8</ele>
        <time>2026-06-26T07:11:37Z</time>
      </trkpt>
      <trkpt lat="46.06727" lon="6.76198">
        <ele>1231.8</ele>
        <time>2026-06-26T07:11:38Z</time>
      </trkpt>
      <trkpt lat="46.06727" lon="6.76198">
        <ele>1231.8</ele>
        <time>2026-06-26T07:11:39Z</time>
      </trkpt>
      <trkpt lat="46.06727" lon="6.76197">
        <ele>1231.8</ele>
        <time>2026-06-26T07:11:40Z</time>
      </trkpt>
      <trkpt lat="46.06727" lon="6.76197">
        <ele>1231.7</ele>
        <time>2026-06-26T07:11:41Z</time>
      </trkpt>
      <trkpt lat="46.06727" lon="6.76197">
        <ele>1231.7</ele>
        <time>2026-06-26T07:11:42Z</time>
      </trkpt>
      <trkpt lat="46.06726" lon="6.76197">
        <ele>1231.7</ele>
        <time>2026-06-26T07:11:43Z</time>
      </trkpt>
      <trkpt lat="46.06726" lon="6.76196">
        <ele>1231.7</ele>
        <time>2026-06-26T07:11:44Z</time>
      </trkpt>
      <trkpt lat="46.06726" lon="6.76196">
        <ele>1231.6</ele>
        <time>2026-06-26T07:11:45Z</time>
      </trkpt>
      <trkpt lat="46.06726" lon="6.76196">
        <ele>1231.6</ele>
        <time>2026-06-26T07:11:46Z</time>
      </trkpt>
      <trkpt lat="46.06726" lon="6.76196">
        <ele>1231.6</ele>
        <time>2026-06-26T07:11:47Z</time>
      </trkpt>
      <trkpt lat="46.06726" lon="6.76196">
        <ele>1231.6</ele>
        <time>2026-06-26T07:11:48Z</time>
      </trkpt>
      <trkpt lat="46.06725" lon="6.76196">
        <ele>1231.6</ele>
        <time>2026-06-26T07:11:49Z</time>
      </trkpt>
      <trkpt lat="46.06725" lon="6.76196">
        <ele>1231.6</ele>
        <time>2026-06-26T07:11:50Z</time>
      </trkpt>
      <trkpt lat="46.06725" lon="6.76196">
        <ele>1231.6</ele>
        <time>2026-06-26T07:11:51Z</time>
      </trkpt>
      <trkpt lat="46.06725" lon="6.76197">
        <ele>1231.7</ele>
        <time>2026-06-26T07:11:52Z</time>
      </trkpt>
      <trkpt lat="46.06725" lon="6.76198">
        <ele>1231.7</ele>
        <time>2026-06-26T07:11:53Z</time>
      </trkpt>
      <trkpt lat="46.06725" lon="6.76198">
        <ele>1231.7</ele>
        <time>2026-06-26T07:11:54Z</time>
      </trkpt>
      <trkpt lat="46.06724" lon="6.76199">
        <ele>1231.7</ele>
        <time>2026-06-26T07:11:55Z</time>
      </trkpt>
      <trkpt lat="46.06724" lon="6.76199">
        <ele>1231.8</ele>
        <time>2026-06-26T07:11:56Z</time>
      </trkpt>
      <trkpt lat="46.06724" lon="6.762">
        <ele>1231.8</ele>
        <time>2026-06-26T07:11:57Z</time>
      </trkpt>
      <trkpt lat="46.06725" lon="6.762">
        <ele>1232</ele>
        <time>2026-06-26T07:11:58Z</time>
      </trkpt>
      <trkpt lat="46.06724" lon="6.762">
        <ele>1232.1</ele>
        <time>2026-06-26T07:11:59Z</time>
      </trkpt>
      <trkpt lat="46.06724" lon="6.762">
        <ele>1232.2</ele>
        <time>2026-06-26T07:12:00Z</time>
      </trkpt>
      <trkpt lat="46.06724" lon="6.762">
        <ele>1232.3</ele>
        <time>2026-06-26T07:12:01Z</time>
      </trkpt>
      <trkpt lat="46.06724" lon="6.762">
        <ele>1232.3</ele>
        <time>2026-06-26T07:12:02Z</time>
      </trkpt>
      <trkpt lat="46.06724" lon="6.762">
        <ele>1232.3</ele>
        <time>2026-06-26T07:12:03Z</time>
      </trkpt>
      <trkpt lat="46.06724" lon="6.762">
        <ele>1232.3</ele>
        <time>2026-06-26T07:12:04Z</time>
      </trkpt>
      <trkpt lat="46.06724" lon="6.762">
        <ele>1232.3</ele>
        <time>2026-06-26T07:12:05Z</time>
      </trkpt>
      <trkpt lat="46.06723" lon="6.762">
        <ele>1232.3</ele>
        <time>2026-06-26T07:12:06Z</time>
      </trkpt>
      <trkpt lat="46.06723" lon="6.76201">
        <ele>1232.2</ele>
        <time>2026-06-26T07:12:07Z</time>
      </trkpt>
      <trkpt lat="46.06723" lon="6.76202">
        <ele>1232.3</ele>
        <time>2026-06-26T07:12:08Z</time>
      </trkpt>
      <trkpt lat="46.06723" lon="6.76202">
        <ele>1232.3</ele>
        <time>2026-06-26T07:12:09Z</time>
      </trkpt>
      <trkpt lat="46.06723" lon="6.76202">
        <ele>1232.4</ele>
        <time>2026-06-26T07:12:10Z</time>
      </trkpt>
      <trkpt lat="46.06722" lon="6.76203">
        <ele>1232.4</ele>
        <time>2026-06-26T07:12:11Z</time>
      </trkpt>
      <trkpt lat="46.06722" lon="6.76203">
        <ele>1232.4</ele>
        <time>2026-06-26T07:12:12Z</time>
      </trkpt>
      <trkpt lat="46.06722" lon="6.76203">
        <ele>1232.4</ele>
        <time>2026-06-26T07:12:13Z</time>
      </trkpt>
      <trkpt lat="46.06722" lon="6.76203">
        <ele>1232.5</ele>
        <time>2026-06-26T07:12:14Z</time>
      </trkpt>
      <trkpt lat="46.06722" lon="6.76203">
        <ele>1232.5</ele>
        <time>2026-06-26T07:12:15Z</time>
      </trkpt>
      <trkpt lat="46.06722" lon="6.76203">
        <ele>1232.5</ele>
        <time>2026-06-26T07:12:16Z</time>
      </trkpt>
      <trkpt lat="46.06723" lon="6.76204">
        <ele>1232.5</ele>
        <time>2026-06-26T07:12:17Z</time>
      </trkpt>
      <trkpt lat="46.06723" lon="6.76203">
        <ele>1232.5</ele>
        <time>2026-06-26T07:12:18Z</time>
      </trkpt>
      <trkpt lat="46.06723" lon="6.76204">
        <ele>1232.4</ele>
        <time>2026-06-26T07:12:19Z</time>
      </trkpt>
      <trkpt lat="46.06723" lon="6.76204">
        <ele>1232.4</ele>
        <time>2026-06-26T07:12:20Z</time>
      </trkpt>
      <trkpt lat="46.06723" lon="6.76204">
        <ele>1232.5</ele>
        <time>2026-06-26T07:12:21Z</time>
      </trkpt>
      <trkpt lat="46.06723" lon="6.76204">
        <ele>1232.6</ele>
        <time>2026-06-26T07:12:22Z</time>
      </trkpt>
      <trkpt lat="46.06723" lon="6.76204">
        <ele>1232.6</ele>
        <time>2026-06-26T07:12:23Z</time>
      </trkpt>
      <trkpt lat="46.06722" lon="6.76204">
        <ele>1232.7</ele>
        <time>2026-06-26T07:12:24Z</time>
      </trkpt>
      <trkpt lat="46.06722" lon="6.76204">
        <ele>1232.8</ele>
        <time>2026-06-26T07:12:25Z</time>
      </trkpt>
      <trkpt lat="46.06722" lon="6.76204">
        <ele>1232.8</ele>
        <time>2026-06-26T07:12:26Z</time>
      </trkpt>
      <trkpt lat="46.06722" lon="6.76203">
        <ele>1232.8</ele>
        <time>2026-06-26T07:12:27Z</time>
      </trkpt>
      <trkpt lat="46.06722" lon="6.76203">
        <ele>1232.8</ele>
        <time>2026-06-26T07:12:28Z</time>
      </trkpt>
      <trkpt lat="46.06722" lon="6.76203">
        <ele>1232.8</ele>
        <time>2026-06-26T07:12:29Z</time>
      </trkpt>
      <trkpt lat="46.06722" lon="6.76203">
        <ele>1232.9</ele>
        <time>2026-06-26T07:12:30Z</time>
      </trkpt>
      <trkpt lat="46.06722" lon="6.76203">
        <ele>1232.9</ele>
        <time>2026-06-26T07:12:31Z</time>
      </trkpt>
      <trkpt lat="46.06722" lon="6.76204">
        <ele>1232.9</ele>
        <time>2026-06-26T07:12:32Z</time>
      </trkpt>
      <trkpt lat="46.06723" lon="6.76204">
        <ele>1232.9</ele>
        <time>2026-06-26T07:12:33Z</time>
      </trkpt>
      <trkpt lat="46.06723" lon="6.76204">
        <ele>1232.9</ele>
        <time>2026-06-26T07:12:34Z</time>
      </trkpt>
      <trkpt lat="46.06723" lon="6.76204">
        <ele>1232.9</ele>
        <time>2026-06-26T07:12:35Z</time>
      </trkpt>
      <trkpt lat="46.06723" lon="6.76203">
        <ele>1232.9</ele>
        <time>2026-06-26T07:12:36Z</time>
      </trkpt>
      <trkpt lat="46.06723" lon="6.76203">
        <ele>1232.9</ele>
        <time>2026-06-26T07:12:37Z</time>
      </trkpt>
      <trkpt lat="46.06723" lon="6.76203">
        <ele>1232.9</ele>
        <time>2026-06-26T07:12:38Z</time>
      </trkpt>
      <trkpt lat="46.06723" lon="6.76203">
        <ele>1232.9</ele>
        <time>2026-06-26T07:12:39Z</time>
      </trkpt>
      <trkpt lat="46.06723" lon="6.76203">
        <ele>1233</ele>
        <time>2026-06-26T07:12:40Z</time>
      </trkpt>
      <trkpt lat="46.06723" lon="6.76203">
        <ele>1233</ele>
        <time>2026-06-26T07:12:41Z</time>
      </trkpt>
      <trkpt lat="46.06723" lon="6.76203">
        <ele>1232.9</ele>
        <time>2026-06-26T07:12:42Z</time>
      </trkpt>
      <trkpt lat="46.06722" lon="6.76202">
        <ele>1233</ele>
        <time>2026-06-26T07:12:43Z</time>
      </trkpt>
      <trkpt lat="46.06722" lon="6.76202">
        <ele>1233</ele>
        <time>2026-06-26T07:12:44Z</time>
      </trkpt>
      <trkpt lat="46.06722" lon="6.76203">
        <ele>1233</ele>
        <time>2026-06-26T07:12:45Z</time>
      </trkpt>
      <trkpt lat="46.06722" lon="6.76203">
        <ele>1232.9</ele>
        <time>2026-06-26T07:12:46Z</time>
      </trkpt>
      <trkpt lat="46.06722" lon="6.76203">
        <ele>1232.9</ele>
        <time>2026-06-26T07:12:47Z</time>
      </trkpt>
      <trkpt lat="46.06722" lon="6.76204">
        <ele>1232.9</ele>
        <time>2026-06-26T07:12:48Z</time>
      </trkpt>
      <trkpt lat="46.06723" lon="6.76205">
        <ele>1232.9</ele>
        <time>2026-06-26T07:12:49Z</time>
      </trkpt>
      <trkpt lat="46.06723" lon="6.76205">
        <ele>1232.9</ele>
        <time>2026-06-26T07:12:50Z</time>
      </trkpt>
      <trkpt lat="46.06723" lon="6.76206">
        <ele>1232.9</ele>
        <time>2026-06-26T07:12:51Z</time>
      </trkpt>
      <trkpt lat="46.06723" lon="6.76206">
        <ele>1232.8</ele>
        <time>2026-06-26T07:12:52Z</time>
      </trkpt>
      <trkpt lat="46.06723" lon="6.76207">
        <ele>1232.8</ele>
        <time>2026-06-26T07:12:53Z</time>
      </trkpt>
      <trkpt lat="46.06723" lon="6.76207">
        <ele>1232.8</ele>
        <time>2026-06-26T07:12:54Z</time>
      </trkpt>
      <trkpt lat="46.06723" lon="6.76208">
        <ele>1232.8</ele>
        <time>2026-06-26T07:12:55Z</time>
      </trkpt>
      <trkpt lat="46.06722" lon="6.76208">
        <ele>1232.8</ele>
        <time>2026-06-26T07:12:56Z</time>
      </trkpt>
      <trkpt lat="46.06722" lon="6.76209">
        <ele>1232.9</ele>
        <time>2026-06-26T07:12:57Z</time>
      </trkpt>
      <trkpt lat="46.06722" lon="6.76209">
        <ele>1232.9</ele>
        <time>2026-06-26T07:12:58Z</time>
      </trkpt>
      <trkpt lat="46.06722" lon="6.7621">
        <ele>1233</ele>
        <time>2026-06-26T07:12:59Z</time>
      </trkpt>
      <trkpt lat="46.06722" lon="6.7621">
        <ele>1233</ele>
        <time>2026-06-26T07:13:00Z</time>
      </trkpt>
      <trkpt lat="46.06721" lon="6.7621">
        <ele>1233</ele>
        <time>2026-06-26T07:13:01Z</time>
      </trkpt>
      <trkpt lat="46.0672" lon="6.7621">
        <ele>1233</ele>
        <time>2026-06-26T07:13:02Z</time>
      </trkpt>
      <trkpt lat="46.06721" lon="6.7621">
        <ele>1233</ele>
        <time>2026-06-26T07:13:03Z</time>
      </trkpt>
      <trkpt lat="46.06721" lon="6.7621">
        <ele>1233</ele>
        <time>2026-06-26T07:13:04Z</time>
      </trkpt>
      <trkpt lat="46.06721" lon="6.76209">
        <ele>1233</ele>
        <time>2026-06-26T07:13:05Z</time>
      </trkpt>
      <trkpt lat="46.06721" lon="6.76209">
        <ele>1233</ele>
        <time>2026-06-26T07:13:06Z</time>
      </trkpt>
      <trkpt lat="46.0672" lon="6.76209">
        <ele>1233.1</ele>
        <time>2026-06-26T07:13:07Z</time>
      </trkpt>
      <trkpt lat="46.0672" lon="6.7621">
        <ele>1233</ele>
        <time>2026-06-26T07:13:08Z</time>
      </trkpt>
      <trkpt lat="46.0672" lon="6.76209">
        <ele>1233</ele>
        <time>2026-06-26T07:13:09Z</time>
      </trkpt>
      <trkpt lat="46.06721" lon="6.76209">
        <ele>1233</ele>
        <time>2026-06-26T07:13:10Z</time>
      </trkpt>
      <trkpt lat="46.06721" lon="6.76209">
        <ele>1233</ele>
        <time>2026-06-26T07:13:11Z</time>
      </trkpt>
      <trkpt lat="46.06721" lon="6.76209">
        <ele>1233</ele>
        <time>2026-06-26T07:13:12Z</time>
      </trkpt>
      <trkpt lat="46.06721" lon="6.76209">
        <ele>1233</ele>
        <time>2026-06-26T07:13:13Z</time>
      </trkpt>
      <trkpt lat="46.06721" lon="6.76209">
        <ele>1233</ele>
        <time>2026-06-26T07:13:14Z</time>
      </trkpt>
      <trkpt lat="46.06721" lon="6.76209">
        <ele>1233</ele>
        <time>2026-06-26T07:13:15Z</time>
      </trkpt>
      <trkpt lat="46.06721" lon="6.76209">
        <ele>1233</ele>
        <time>2026-06-26T07:13:16Z</time>
      </trkpt>
      <trkpt lat="46.06721" lon="6.76209">
        <ele>1233.1</ele>
        <time>2026-06-26T07:13:17Z</time>
      </trkpt>
      <trkpt lat="46.06721" lon="6.7621">
        <ele>1233.1</ele>
        <time>2026-06-26T07:13:18Z</time>
      </trkpt>
      <trkpt lat="46.06721" lon="6.7621">
        <ele>1233.1</ele>
        <time>2026-06-26T07:13:19Z</time>
      </trkpt>
      <trkpt lat="46.0672" lon="6.76211">
        <ele>1233.2</ele>
        <time>2026-06-26T07:13:20Z</time>
      </trkpt>
      <trkpt lat="46.0672" lon="6.7621">
        <ele>1233.2</ele>
        <time>2026-06-26T07:13:21Z</time>
      </trkpt>
      <trkpt lat="46.0672" lon="6.76211">
        <ele>1233.2</ele>
        <time>2026-06-26T07:13:22Z</time>
      </trkpt>
      <trkpt lat="46.06719" lon="6.76212">
        <ele>1233.3</ele>
        <time>2026-06-26T07:13:23Z</time>
      </trkpt>
      <trkpt lat="46.06719" lon="6.76213">
        <ele>1233.3</ele>
        <time>2026-06-26T07:13:24Z</time>
      </trkpt>
      <trkpt lat="46.06719" lon="6.76214">
        <ele>1233.2</ele>
        <time>2026-06-26T07:13:25Z</time>
      </trkpt>
      <trkpt lat="46.06719" lon="6.76215">
        <ele>1233.2</ele>
        <time>2026-06-26T07:13:26Z</time>
      </trkpt>
      <trkpt lat="46.06719" lon="6.76216">
        <ele>1233.2</ele>
        <time>2026-06-26T07:13:27Z</time>
      </trkpt>
      <trkpt lat="46.06719" lon="6.76217">
        <ele>1233.2</ele>
        <time>2026-06-26T07:13:28Z</time>
      </trkpt>
      <trkpt lat="46.06718" lon="6.76217">
        <ele>1233.4</ele>
        <time>2026-06-26T07:13:29Z</time>
      </trkpt>
      <trkpt lat="46.06718" lon="6.76217">
        <ele>1233.5</ele>
        <time>2026-06-26T07:13:30Z</time>
      </trkpt>
      <trkpt lat="46.06717" lon="6.76218">
        <ele>1233.5</ele>
        <time>2026-06-26T07:13:31Z</time>
      </trkpt>
      <trkpt lat="46.06717" lon="6.76219">
        <ele>1233.5</ele>
        <time>2026-06-26T07:13:32Z</time>
      </trkpt>
      <trkpt lat="46.06716" lon="6.76219">
        <ele>1233.4</ele>
        <time>2026-06-26T07:13:33Z</time>
      </trkpt>
      <trkpt lat="46.06716" lon="6.7622">
        <ele>1233.4</ele>
        <time>2026-06-26T07:13:34Z</time>
      </trkpt>
      <trkpt lat="46.06717" lon="6.7622">
        <ele>1233.4</ele>
        <time>2026-06-26T07:13:35Z</time>
      </trkpt>
      <trkpt lat="46.06717" lon="6.7622">
        <ele>1233.4</ele>
        <time>2026-06-26T07:13:36Z</time>
      </trkpt>
      <trkpt lat="46.06717" lon="6.7622">
        <ele>1233.4</ele>
        <time>2026-06-26T07:13:37Z</time>
      </trkpt>
      <trkpt lat="46.06716" lon="6.76221">
        <ele>1233.4</ele>
        <time>2026-06-26T07:13:38Z</time>
      </trkpt>
      <trkpt lat="46.06716" lon="6.76222">
        <ele>1233.4</ele>
        <time>2026-06-26T07:13:39Z</time>
      </trkpt>
      <trkpt lat="46.06717" lon="6.76223">
        <ele>1233.5</ele>
        <time>2026-06-26T07:13:40Z</time>
      </trkpt>
      <trkpt lat="46.06716" lon="6.76225">
        <ele>1233.7</ele>
        <time>2026-06-26T07:13:41Z</time>
      </trkpt>
      <trkpt lat="46.06716" lon="6.76226">
        <ele>1233.8</ele>
        <time>2026-06-26T07:13:42Z</time>
      </trkpt>
      <trkpt lat="46.06715" lon="6.76228">
        <ele>1234</ele>
        <time>2026-06-26T07:13:43Z</time>
      </trkpt>
      <trkpt lat="46.06715" lon="6.76228">
        <ele>1234.1</ele>
        <time>2026-06-26T07:13:44Z</time>
      </trkpt>
      <trkpt lat="46.06715" lon="6.7623">
        <ele>1234.2</ele>
        <time>2026-06-26T07:13:45Z</time>
      </trkpt>
      <trkpt lat="46.06715" lon="6.7623">
        <ele>1234.3</ele>
        <time>2026-06-26T07:13:46Z</time>
      </trkpt>
      <trkpt lat="46.06714" lon="6.76231">
        <ele>1234.5</ele>
        <time>2026-06-26T07:13:47Z</time>
      </trkpt>
      <trkpt lat="46.06714" lon="6.76233">
        <ele>1234.7</ele>
        <time>2026-06-26T07:13:48Z</time>
      </trkpt>
      <trkpt lat="46.06714" lon="6.76234">
        <ele>1234.9</ele>
        <time>2026-06-26T07:13:49Z</time>
      </trkpt>
      <trkpt lat="46.06713" lon="6.76235">
        <ele>1235</ele>
        <time>2026-06-26T07:13:50Z</time>
      </trkpt>
      <trkpt lat="46.06713" lon="6.76236">
        <ele>1235.2</ele>
        <time>2026-06-26T07:13:51Z</time>
      </trkpt>
      <trkpt lat="46.06712" lon="6.76237">
        <ele>1235.3</ele>
        <time>2026-06-26T07:13:52Z</time>
      </trkpt>
      <trkpt lat="46.06712" lon="6.76238">
        <ele>1235.5</ele>
        <time>2026-06-26T07:13:53Z</time>
      </trkpt>
      <trkpt lat="46.06712" lon="6.76239">
        <ele>1235.6</ele>
        <time>2026-06-26T07:13:54Z</time>
      </trkpt>
      <trkpt lat="46.06711" lon="6.76241">
        <ele>1235.7</ele>
        <time>2026-06-26T07:13:55Z</time>
      </trkpt>
      <trkpt lat="46.06711" lon="6.76242">
        <ele>1235.9</ele>
        <time>2026-06-26T07:13:56Z</time>
      </trkpt>
      <trkpt lat="46.0671" lon="6.76243">
        <ele>1236</ele>
        <time>2026-06-26T07:13:57Z</time>
      </trkpt>
      <trkpt lat="46.0671" lon="6.76244">
        <ele>1236</ele>
        <time>2026-06-26T07:13:58Z</time>
      </trkpt>
      <trkpt lat="46.06709" lon="6.76246">
        <ele>1236.2</ele>
        <time>2026-06-26T07:13:59Z</time>
      </trkpt>
      <trkpt lat="46.06709" lon="6.76247">
        <ele>1236.4</ele>
        <time>2026-06-26T07:14:00Z</time>
      </trkpt>
      <trkpt lat="46.06709" lon="6.76249">
        <ele>1236.4</ele>
        <time>2026-06-26T07:14:01Z</time>
      </trkpt>
      <trkpt lat="46.06708" lon="6.7625">
        <ele>1236.6</ele>
        <time>2026-06-26T07:14:02Z</time>
      </trkpt>
      <trkpt lat="46.06708" lon="6.76251">
        <ele>1236.7</ele>
        <time>2026-06-26T07:14:03Z</time>
      </trkpt>
      <trkpt lat="46.06708" lon="6.76252">
        <ele>1236.9</ele>
        <time>2026-06-26T07:14:04Z</time>
      </trkpt>
      <trkpt lat="46.06707" lon="6.76254">
        <ele>1237</ele>
        <time>2026-06-26T07:14:05Z</time>
      </trkpt>
      <trkpt lat="46.06707" lon="6.76255">
        <ele>1237.1</ele>
        <time>2026-06-26T07:14:06Z</time>
      </trkpt>
      <trkpt lat="46.06707" lon="6.76256">
        <ele>1237.2</ele>
        <time>2026-06-26T07:14:07Z</time>
      </trkpt>
      <trkpt lat="46.06707" lon="6.76258">
        <ele>1237.3</ele>
        <time>2026-06-26T07:14:08Z</time>
      </trkpt>
      <trkpt lat="46.06707" lon="6.7626">
        <ele>1237.4</ele>
        <time>2026-06-26T07:14:09Z</time>
      </trkpt>
      <trkpt lat="46.06708" lon="6.76261">
        <ele>1237.6</ele>
        <time>2026-06-26T07:14:10Z</time>
      </trkpt>
      <trkpt lat="46.06707" lon="6.76262">
        <ele>1237.7</ele>
        <time>2026-06-26T07:14:11Z</time>
      </trkpt>
      <trkpt lat="46.06708" lon="6.76264">
        <ele>1237.9</ele>
        <time>2026-06-26T07:14:12Z</time>
      </trkpt>
      <trkpt lat="46.06708" lon="6.76265">
        <ele>1238</ele>
        <time>2026-06-26T07:14:13Z</time>
      </trkpt>
      <trkpt lat="46.06707" lon="6.76267">
        <ele>1238.1</ele>
        <time>2026-06-26T07:14:14Z</time>
      </trkpt>
      <trkpt lat="46.06707" lon="6.76268">
        <ele>1238.2</ele>
        <time>2026-06-26T07:14:15Z</time>
      </trkpt>
      <trkpt lat="46.06707" lon="6.7627">
        <ele>1238.4</ele>
        <time>2026-06-26T07:14:16Z</time>
      </trkpt>
      <trkpt lat="46.06707" lon="6.76271">
        <ele>1238.5</ele>
        <time>2026-06-26T07:14:17Z</time>
      </trkpt>
      <trkpt lat="46.06707" lon="6.76273">
        <ele>1238.6</ele>
        <time>2026-06-26T07:14:18Z</time>
      </trkpt>
      <trkpt lat="46.06706" lon="6.76274">
        <ele>1238.7</ele>
        <time>2026-06-26T07:14:19Z</time>
      </trkpt>
      <trkpt lat="46.06706" lon="6.76275">
        <ele>1238.8</ele>
        <time>2026-06-26T07:14:20Z</time>
      </trkpt>
      <trkpt lat="46.06706" lon="6.76277">
        <ele>1239.1</ele>
        <time>2026-06-26T07:14:21Z</time>
      </trkpt>
      <trkpt lat="46.06705" lon="6.76278">
        <ele>1239.2</ele>
        <time>2026-06-26T07:14:22Z</time>
      </trkpt>
      <trkpt lat="46.06705" lon="6.7628">
        <ele>1239.4</ele>
        <time>2026-06-26T07:14:23Z</time>
      </trkpt>
      <trkpt lat="46.06705" lon="6.76281">
        <ele>1239.5</ele>
        <time>2026-06-26T07:14:24Z</time>
      </trkpt>
      <trkpt lat="46.06706" lon="6.76283">
        <ele>1239.6</ele>
        <time>2026-06-26T07:14:25Z</time>
      </trkpt>
      <trkpt lat="46.06705" lon="6.76285">
        <ele>1239.7</ele>
        <time>2026-06-26T07:14:26Z</time>
      </trkpt>
      <trkpt lat="46.06705" lon="6.76286">
        <ele>1239.9</ele>
        <time>2026-06-26T07:14:27Z</time>
      </trkpt>
      <trkpt lat="46.06705" lon="6.76287">
        <ele>1240</ele>
        <time>2026-06-26T07:14:28Z</time>
      </trkpt>
      <trkpt lat="46.06705" lon="6.76288">
        <ele>1240.1</ele>
        <time>2026-06-26T07:14:29Z</time>
      </trkpt>
      <trkpt lat="46.06705" lon="6.76289">
        <ele>1240.4</ele>
        <time>2026-06-26T07:14:30Z</time>
      </trkpt>
      <trkpt lat="46.06704" lon="6.7629">
        <ele>1240.5</ele>
        <time>2026-06-26T07:14:31Z</time>
      </trkpt>
      <trkpt lat="46.06704" lon="6.76291">
        <ele>1240.8</ele>
        <time>2026-06-26T07:14:32Z</time>
      </trkpt>
      <trkpt lat="46.06704" lon="6.76293">
        <ele>1241</ele>
        <time>2026-06-26T07:14:33Z</time>
      </trkpt>
      <trkpt lat="46.06703" lon="6.76294">
        <ele>1241.2</ele>
        <time>2026-06-26T07:14:34Z</time>
      </trkpt>
      <trkpt lat="46.06703" lon="6.76296">
        <ele>1241.4</ele>
        <time>2026-06-26T07:14:35Z</time>
      </trkpt>
      <trkpt lat="46.06703" lon="6.76297">
        <ele>1241.5</ele>
        <time>2026-06-26T07:14:36Z</time>
      </trkpt>
      <trkpt lat="46.06702" lon="6.76299">
        <ele>1241.5</ele>
        <time>2026-06-26T07:14:37Z</time>
      </trkpt>
      <trkpt lat="46.06702" lon="6.763">
        <ele>1241.6</ele>
        <time>2026-06-26T07:14:38Z</time>
      </trkpt>
      <trkpt lat="46.06702" lon="6.76301">
        <ele>1241.7</ele>
        <time>2026-06-26T07:14:39Z</time>
      </trkpt>
      <trkpt lat="46.06702" lon="6.76303">
        <ele>1241.9</ele>
        <time>2026-06-26T07:14:40Z</time>
      </trkpt>
      <trkpt lat="46.06702" lon="6.76305">
        <ele>1242</ele>
        <time>2026-06-26T07:14:41Z</time>
      </trkpt>
      <trkpt lat="46.06702" lon="6.76306">
        <ele>1242.2</ele>
        <time>2026-06-26T07:14:42Z</time>
      </trkpt>
      <trkpt lat="46.06703" lon="6.76308">
        <ele>1242.3</ele>
        <time>2026-06-26T07:14:43Z</time>
      </trkpt>
      <trkpt lat="46.06703" lon="6.76309">
        <ele>1242.3</ele>
        <time>2026-06-26T07:14:44Z</time>
      </trkpt>
      <trkpt lat="46.06702" lon="6.7631">
        <ele>1242.5</ele>
        <time>2026-06-26T07:14:45Z</time>
      </trkpt>
      <trkpt lat="46.06702" lon="6.76311">
        <ele>1242.7</ele>
        <time>2026-06-26T07:14:46Z</time>
      </trkpt>
      <trkpt lat="46.06701" lon="6.76312">
        <ele>1242.9</ele>
        <time>2026-06-26T07:14:47Z</time>
      </trkpt>
      <trkpt lat="46.06701" lon="6.76313">
        <ele>1243.2</ele>
        <time>2026-06-26T07:14:48Z</time>
      </trkpt>
      <trkpt lat="46.06701" lon="6.76314">
        <ele>1243.4</ele>
        <time>2026-06-26T07:14:49Z</time>
      </trkpt>
      <trkpt lat="46.067" lon="6.76315">
        <ele>1243.6</ele>
        <time>2026-06-26T07:14:50Z</time>
      </trkpt>
      <trkpt lat="46.067" lon="6.76316">
        <ele>1243.7</ele>
        <time>2026-06-26T07:14:51Z</time>
      </trkpt>
      <trkpt lat="46.067" lon="6.76317">
        <ele>1243.8</ele>
        <time>2026-06-26T07:14:52Z</time>
      </trkpt>
      <trkpt lat="46.06699" lon="6.76318">
        <ele>1243.9</ele>
        <time>2026-06-26T07:14:53Z</time>
      </trkpt>
      <trkpt lat="46.06699" lon="6.76319">
        <ele>1244.1</ele>
        <time>2026-06-26T07:14:54Z</time>
      </trkpt>
      <trkpt lat="46.06699" lon="6.7632">
        <ele>1244.2</ele>
        <time>2026-06-26T07:14:55Z</time>
      </trkpt>
      <trkpt lat="46.06698" lon="6.76321">
        <ele>1244.3</ele>
        <time>2026-06-26T07:14:56Z</time>
      </trkpt>
      <trkpt lat="46.06698" lon="6.76322">
        <ele>1244.4</ele>
        <time>2026-06-26T07:14:57Z</time>
      </trkpt>
      <trkpt lat="46.06697" lon="6.76323">
        <ele>1244.5</ele>
        <time>2026-06-26T07:14:58Z</time>
      </trkpt>
      <trkpt lat="46.06697" lon="6.76324">
        <ele>1244.6</ele>
        <time>2026-06-26T07:14:59Z</time>
      </trkpt>
      <trkpt lat="46.06696" lon="6.76325">
        <ele>1244.8</ele>
        <time>2026-06-26T07:15:00Z</time>
      </trkpt>
      <trkpt lat="46.06696" lon="6.76326">
        <ele>1245</ele>
        <time>2026-06-26T07:15:01Z</time>
      </trkpt>
      <trkpt lat="46.06695" lon="6.76327">
        <ele>1245.1</ele>
        <time>2026-06-26T07:15:02Z</time>
      </trkpt>
      <trkpt lat="46.06695" lon="6.76328">
        <ele>1245.2</ele>
        <time>2026-06-26T07:15:03Z</time>
      </trkpt>
      <trkpt lat="46.06695" lon="6.76329">
        <ele>1245.3</ele>
        <time>2026-06-26T07:15:04Z</time>
      </trkpt>
      <trkpt lat="46.06695" lon="6.76331">
        <ele>1245.4</ele>
        <time>2026-06-26T07:15:05Z</time>
      </trkpt>
      <trkpt lat="46.06694" lon="6.76332">
        <ele>1245.7</ele>
        <time>2026-06-26T07:15:06Z</time>
      </trkpt>
      <trkpt lat="46.06694" lon="6.76333">
        <ele>1245.8</ele>
        <time>2026-06-26T07:15:07Z</time>
      </trkpt>
      <trkpt lat="46.06694" lon="6.76334">
        <ele>1245.9</ele>
        <time>2026-06-26T07:15:08Z</time>
      </trkpt>
      <trkpt lat="46.06693" lon="6.76335">
        <ele>1246</ele>
        <time>2026-06-26T07:15:09Z</time>
      </trkpt>
      <trkpt lat="46.06693" lon="6.76336">
        <ele>1246.1</ele>
        <time>2026-06-26T07:15:10Z</time>
      </trkpt>
      <trkpt lat="46.06693" lon="6.76337">
        <ele>1246.2</ele>
        <time>2026-06-26T07:15:11Z</time>
      </trkpt>
      <trkpt lat="46.06693" lon="6.76338">
        <ele>1246.4</ele>
        <time>2026-06-26T07:15:12Z</time>
      </trkpt>
      <trkpt lat="46.06693" lon="6.76339">
        <ele>1246.5</ele>
        <time>2026-06-26T07:15:13Z</time>
      </trkpt>
      <trkpt lat="46.06692" lon="6.7634">
        <ele>1246.6</ele>
        <time>2026-06-26T07:15:14Z</time>
      </trkpt>
      <trkpt lat="46.06692" lon="6.76342">
        <ele>1246.6</ele>
        <time>2026-06-26T07:15:15Z</time>
      </trkpt>
      <trkpt lat="46.06692" lon="6.76343">
        <ele>1246.7</ele>
        <time>2026-06-26T07:15:16Z</time>
      </trkpt>
      <trkpt lat="46.06692" lon="6.76344">
        <ele>1246.8</ele>
        <time>2026-06-26T07:15:17Z</time>
      </trkpt>
      <trkpt lat="46.06692" lon="6.76345">
        <ele>1246.9</ele>
        <time>2026-06-26T07:15:18Z</time>
      </trkpt>
      <trkpt lat="46.06691" lon="6.76346">
        <ele>1247</ele>
        <time>2026-06-26T07:15:19Z</time>
      </trkpt>
      <trkpt lat="46.06691" lon="6.76347">
        <ele>1247.1</ele>
        <time>2026-06-26T07:15:20Z</time>
      </trkpt>
      <trkpt lat="46.06691" lon="6.76348">
        <ele>1247.2</ele>
        <time>2026-06-26T07:15:21Z</time>
      </trkpt>
      <trkpt lat="46.06691" lon="6.76349">
        <ele>1247.3</ele>
        <time>2026-06-26T07:15:22Z</time>
      </trkpt>
      <trkpt lat="46.06691" lon="6.7635">
        <ele>1247.3</ele>
        <time>2026-06-26T07:15:23Z</time>
      </trkpt>
      <trkpt lat="46.06691" lon="6.76351">
        <ele>1247.6</ele>
        <time>2026-06-26T07:15:24Z</time>
      </trkpt>
      <trkpt lat="46.06691" lon="6.76353">
        <ele>1247.8</ele>
        <time>2026-06-26T07:15:25Z</time>
      </trkpt>
      <trkpt lat="46.06691" lon="6.76355">
        <ele>1247.9</ele>
        <time>2026-06-26T07:15:26Z</time>
      </trkpt>
      <trkpt lat="46.06691" lon="6.76356">
        <ele>1248</ele>
        <time>2026-06-26T07:15:27Z</time>
      </trkpt>
      <trkpt lat="46.0669" lon="6.76357">
        <ele>1248</ele>
        <time>2026-06-26T07:15:28Z</time>
      </trkpt>
      <trkpt lat="46.06689" lon="6.76358">
        <ele>1248.1</ele>
        <time>2026-06-26T07:15:29Z</time>
      </trkpt>
      <trkpt lat="46.06689" lon="6.76359">
        <ele>1248.1</ele>
        <time>2026-06-26T07:15:30Z</time>
      </trkpt>
      <trkpt lat="46.06689" lon="6.7636">
        <ele>1248.2</ele>
        <time>2026-06-26T07:15:31Z</time>
      </trkpt>
      <trkpt lat="46.06689" lon="6.76362">
        <ele>1248.4</ele>
        <time>2026-06-26T07:15:32Z</time>
      </trkpt>
      <trkpt lat="46.06688" lon="6.76363">
        <ele>1248.5</ele>
        <time>2026-06-26T07:15:33Z</time>
      </trkpt>
      <trkpt lat="46.06688" lon="6.76364">
        <ele>1248.7</ele>
        <time>2026-06-26T07:15:34Z</time>
      </trkpt>
      <trkpt lat="46.06688" lon="6.76366">
        <ele>1248.8</ele>
        <time>2026-06-26T07:15:35Z</time>
      </trkpt>
      <trkpt lat="46.06688" lon="6.76367">
        <ele>1248.9</ele>
        <time>2026-06-26T07:15:36Z</time>
      </trkpt>
      <trkpt lat="46.06687" lon="6.76368">
        <ele>1249</ele>
        <time>2026-06-26T07:15:37Z</time>
      </trkpt>
      <trkpt lat="46.06687" lon="6.76369">
        <ele>1249.2</ele>
        <time>2026-06-26T07:15:38Z</time>
      </trkpt>
      <trkpt lat="46.06686" lon="6.7637">
        <ele>1249.4</ele>
        <time>2026-06-26T07:15:39Z</time>
      </trkpt>
      <trkpt lat="46.06686" lon="6.76372">
        <ele>1249.6</ele>
        <time>2026-06-26T07:15:40Z</time>
      </trkpt>
      <trkpt lat="46.06686" lon="6.76373">
        <ele>1249.6</ele>
        <time>2026-06-26T07:15:41Z</time>
      </trkpt>
      <trkpt lat="46.06685" lon="6.76374">
        <ele>1249.8</ele>
        <time>2026-06-26T07:15:42Z</time>
      </trkpt>
      <trkpt lat="46.06685" lon="6.76375">
        <ele>1250.1</ele>
        <time>2026-06-26T07:15:43Z</time>
      </trkpt>
      <trkpt lat="46.06685" lon="6.76376">
        <ele>1250.3</ele>
        <time>2026-06-26T07:15:44Z</time>
      </trkpt>
      <trkpt lat="46.06684" lon="6.76378">
        <ele>1250.4</ele>
        <time>2026-06-26T07:15:45Z</time>
      </trkpt>
      <trkpt lat="46.06684" lon="6.76378">
        <ele>1250.6</ele>
        <time>2026-06-26T07:15:46Z</time>
      </trkpt>
      <trkpt lat="46.06684" lon="6.7638">
        <ele>1250.8</ele>
        <time>2026-06-26T07:15:47Z</time>
      </trkpt>
      <trkpt lat="46.06683" lon="6.76381">
        <ele>1250.9</ele>
        <time>2026-06-26T07:15:48Z</time>
      </trkpt>
      <trkpt lat="46.06683" lon="6.76382">
        <ele>1251</ele>
        <time>2026-06-26T07:15:49Z</time>
      </trkpt>
      <trkpt lat="46.06682" lon="6.76383">
        <ele>1251.1</ele>
        <time>2026-06-26T07:15:50Z</time>
      </trkpt>
      <trkpt lat="46.06682" lon="6.76385">
        <ele>1251.2</ele>
        <time>2026-06-26T07:15:51Z</time>
      </trkpt>
      <trkpt lat="46.06681" lon="6.76386">
        <ele>1251.3</ele>
        <time>2026-06-26T07:15:52Z</time>
      </trkpt>
      <trkpt lat="46.06681" lon="6.76387">
        <ele>1251.4</ele>
        <time>2026-06-26T07:15:53Z</time>
      </trkpt>
      <trkpt lat="46.0668" lon="6.76389">
        <ele>1251.5</ele>
        <time>2026-06-26T07:15:54Z</time>
      </trkpt>
      <trkpt lat="46.0668" lon="6.7639">
        <ele>1251.6</ele>
        <time>2026-06-26T07:15:55Z</time>
      </trkpt>
      <trkpt lat="46.0668" lon="6.76391">
        <ele>1251.7</ele>
        <time>2026-06-26T07:15:56Z</time>
      </trkpt>
      <trkpt lat="46.06679" lon="6.76392">
        <ele>1251.8</ele>
        <time>2026-06-26T07:15:57Z</time>
      </trkpt>
      <trkpt lat="46.06679" lon="6.76393">
        <ele>1251.8</ele>
        <time>2026-06-26T07:15:58Z</time>
      </trkpt>
      <trkpt lat="46.06678" lon="6.76394">
        <ele>1252</ele>
        <time>2026-06-26T07:15:59Z</time>
      </trkpt>
      <trkpt lat="46.06678" lon="6.76395">
        <ele>1252.1</ele>
        <time>2026-06-26T07:16:00Z</time>
      </trkpt>
      <trkpt lat="46.06678" lon="6.76396">
        <ele>1252.3</ele>
        <time>2026-06-26T07:16:01Z</time>
      </trkpt>
      <trkpt lat="46.06677" lon="6.76398">
        <ele>1252.5</ele>
        <time>2026-06-26T07:16:02Z</time>
      </trkpt>
      <trkpt lat="46.06677" lon="6.76399">
        <ele>1252.6</ele>
        <time>2026-06-26T07:16:03Z</time>
      </trkpt>
      <trkpt lat="46.06677" lon="6.764">
        <ele>1252.7</ele>
        <time>2026-06-26T07:16:04Z</time>
      </trkpt>
      <trkpt lat="46.06676" lon="6.76401">
        <ele>1252.8</ele>
        <time>2026-06-26T07:16:05Z</time>
      </trkpt>
      <trkpt lat="46.06676" lon="6.76402">
        <ele>1252.9</ele>
        <time>2026-06-26T07:16:06Z</time>
      </trkpt>
      <trkpt lat="46.06676" lon="6.76403">
        <ele>1253.2</ele>
        <time>2026-06-26T07:16:07Z</time>
      </trkpt>
      <trkpt lat="46.06675" lon="6.76404">
        <ele>1253.3</ele>
        <time>2026-06-26T07:16:08Z</time>
      </trkpt>
      <trkpt lat="46.06674" lon="6.76405">
        <ele>1253.5</ele>
        <time>2026-06-26T07:16:09Z</time>
      </trkpt>
      <trkpt lat="46.06674" lon="6.76406">
        <ele>1253.7</ele>
        <time>2026-06-26T07:16:10Z</time>
      </trkpt>
      <trkpt lat="46.06673" lon="6.76407">
        <ele>1253.8</ele>
        <time>2026-06-26T07:16:11Z</time>
      </trkpt>
      <trkpt lat="46.06673" lon="6.76408">
        <ele>1254</ele>
        <time>2026-06-26T07:16:12Z</time>
      </trkpt>
      <trkpt lat="46.06672" lon="6.76408">
        <ele>1254.1</ele>
        <time>2026-06-26T07:16:13Z</time>
      </trkpt>
      <trkpt lat="46.06672" lon="6.76409">
        <ele>1254.3</ele>
        <time>2026-06-26T07:16:14Z</time>
      </trkpt>
      <trkpt lat="46.06671" lon="6.7641">
        <ele>1254.4</ele>
        <time>2026-06-26T07:16:15Z</time>
      </trkpt>
      <trkpt lat="46.06671" lon="6.76411">
        <ele>1254.4</ele>
        <time>2026-06-26T07:16:16Z</time>
      </trkpt>
      <trkpt lat="46.0667" lon="6.76412">
        <ele>1254.6</ele>
        <time>2026-06-26T07:16:17Z</time>
      </trkpt>
      <trkpt lat="46.06669" lon="6.76413">
        <ele>1254.7</ele>
        <time>2026-06-26T07:16:18Z</time>
      </trkpt>
      <trkpt lat="46.06669" lon="6.76414">
        <ele>1254.8</ele>
        <time>2026-06-26T07:16:19Z</time>
      </trkpt>
      <trkpt lat="46.06668" lon="6.76415">
        <ele>1254.9</ele>
        <time>2026-06-26T07:16:20Z</time>
      </trkpt>
      <trkpt lat="46.06667" lon="6.76415">
        <ele>1255</ele>
        <time>2026-06-26T07:16:21Z</time>
      </trkpt>
      <trkpt lat="46.06667" lon="6.76416">
        <ele>1255</ele>
        <time>2026-06-26T07:16:22Z</time>
      </trkpt>
      <trkpt lat="46.06666" lon="6.76417">
        <ele>1255.1</ele>
        <time>2026-06-26T07:16:23Z</time>
      </trkpt>
      <trkpt lat="46.06666" lon="6.76419">
        <ele>1255.1</ele>
        <time>2026-06-26T07:16:24Z</time>
      </trkpt>
      <trkpt lat="46.06665" lon="6.76419">
        <ele>1255.3</ele>
        <time>2026-06-26T07:16:25Z</time>
      </trkpt>
      <trkpt lat="46.06665" lon="6.7642">
        <ele>1255.4</ele>
        <time>2026-06-26T07:16:26Z</time>
      </trkpt>
      <trkpt lat="46.06664" lon="6.76421">
        <ele>1255.6</ele>
        <time>2026-06-26T07:16:27Z</time>
      </trkpt>
      <trkpt lat="46.06663" lon="6.76422">
        <ele>1255.8</ele>
        <time>2026-06-26T07:16:28Z</time>
      </trkpt>
      <trkpt lat="46.06662" lon="6.76423">
        <ele>1256</ele>
        <time>2026-06-26T07:16:29Z</time>
      </trkpt>
      <trkpt lat="46.06662" lon="6.76423">
        <ele>1256.2</ele>
        <time>2026-06-26T07:16:30Z</time>
      </trkpt>
      <trkpt lat="46.06661" lon="6.76424">
        <ele>1256.3</ele>
        <time>2026-06-26T07:16:31Z</time>
      </trkpt>
      <trkpt lat="46.06661" lon="6.76425">
        <ele>1256.5</ele>
        <time>2026-06-26T07:16:32Z</time>
      </trkpt>
      <trkpt lat="46.0666" lon="6.76427">
        <ele>1256.7</ele>
        <time>2026-06-26T07:16:33Z</time>
      </trkpt>
      <trkpt lat="46.0666" lon="6.76428">
        <ele>1256.8</ele>
        <time>2026-06-26T07:16:34Z</time>
      </trkpt>
      <trkpt lat="46.06659" lon="6.76429">
        <ele>1256.9</ele>
        <time>2026-06-26T07:16:35Z</time>
      </trkpt>
      <trkpt lat="46.06659" lon="6.7643">
        <ele>1257</ele>
        <time>2026-06-26T07:16:36Z</time>
      </trkpt>
      <trkpt lat="46.06658" lon="6.76431">
        <ele>1257.1</ele>
        <time>2026-06-26T07:16:37Z</time>
      </trkpt>
      <trkpt lat="46.06658" lon="6.76432">
        <ele>1257.2</ele>
        <time>2026-06-26T07:16:38Z</time>
      </trkpt>
      <trkpt lat="46.06658" lon="6.76433">
        <ele>1257.2</ele>
        <time>2026-06-26T07:16:39Z</time>
      </trkpt>
      <trkpt lat="46.06657" lon="6.76434">
        <ele>1257.3</ele>
        <time>2026-06-26T07:16:40Z</time>
      </trkpt>
      <trkpt lat="46.06657" lon="6.76435">
        <ele>1257.5</ele>
        <time>2026-06-26T07:16:41Z</time>
      </trkpt>
      <trkpt lat="46.06656" lon="6.76437">
        <ele>1257.7</ele>
        <time>2026-06-26T07:16:42Z</time>
      </trkpt>
      <trkpt lat="46.06656" lon="6.76438">
        <ele>1257.8</ele>
        <time>2026-06-26T07:16:43Z</time>
      </trkpt>
      <trkpt lat="46.06656" lon="6.7644">
        <ele>1257.9</ele>
        <time>2026-06-26T07:16:44Z</time>
      </trkpt>
      <trkpt lat="46.06656" lon="6.7644">
        <ele>1258.1</ele>
        <time>2026-06-26T07:16:45Z</time>
      </trkpt>
      <trkpt lat="46.06655" lon="6.76442">
        <ele>1258.3</ele>
        <time>2026-06-26T07:16:46Z</time>
      </trkpt>
      <trkpt lat="46.06655" lon="6.76442">
        <ele>1258.4</ele>
        <time>2026-06-26T07:16:47Z</time>
      </trkpt>
      <trkpt lat="46.06654" lon="6.76443">
        <ele>1258.6</ele>
        <time>2026-06-26T07:16:48Z</time>
      </trkpt>
      <trkpt lat="46.06654" lon="6.76444">
        <ele>1258.7</ele>
        <time>2026-06-26T07:16:49Z</time>
      </trkpt>
      <trkpt lat="46.06653" lon="6.76445">
        <ele>1258.7</ele>
        <time>2026-06-26T07:16:50Z</time>
      </trkpt>
      <trkpt lat="46.06653" lon="6.76446">
        <ele>1258.9</ele>
        <time>2026-06-26T07:16:51Z</time>
      </trkpt>
      <trkpt lat="46.06652" lon="6.76447">
        <ele>1259</ele>
        <time>2026-06-26T07:16:52Z</time>
      </trkpt>
      <trkpt lat="46.06652" lon="6.76448">
        <ele>1259.2</ele>
        <time>2026-06-26T07:16:53Z</time>
      </trkpt>
      <trkpt lat="46.06652" lon="6.76449">
        <ele>1259.4</ele>
        <time>2026-06-26T07:16:54Z</time>
      </trkpt>
      <trkpt lat="46.06652" lon="6.7645">
        <ele>1259.5</ele>
        <time>2026-06-26T07:16:55Z</time>
      </trkpt>
      <trkpt lat="46.06651" lon="6.76452">
        <ele>1259.6</ele>
        <time>2026-06-26T07:16:56Z</time>
      </trkpt>
      <trkpt lat="46.06651" lon="6.76453">
        <ele>1259.8</ele>
        <time>2026-06-26T07:16:57Z</time>
      </trkpt>
      <trkpt lat="46.0665" lon="6.76454">
        <ele>1259.9</ele>
        <time>2026-06-26T07:16:58Z</time>
      </trkpt>
      <trkpt lat="46.0665" lon="6.76455">
        <ele>1260</ele>
        <time>2026-06-26T07:16:59Z</time>
      </trkpt>
      <trkpt lat="46.0665" lon="6.76456">
        <ele>1260</ele>
        <time>2026-06-26T07:17:00Z</time>
      </trkpt>
      <trkpt lat="46.06649" lon="6.76458">
        <ele>1260.2</ele>
        <time>2026-06-26T07:17:01Z</time>
      </trkpt>
      <trkpt lat="46.06648" lon="6.76458">
        <ele>1260.3</ele>
        <time>2026-06-26T07:17:02Z</time>
      </trkpt>
      <trkpt lat="46.06648" lon="6.7646">
        <ele>1260.4</ele>
        <time>2026-06-26T07:17:03Z</time>
      </trkpt>
      <trkpt lat="46.06647" lon="6.76461">
        <ele>1260.5</ele>
        <time>2026-06-26T07:17:04Z</time>
      </trkpt>
      <trkpt lat="46.06647" lon="6.76462">
        <ele>1260.5</ele>
        <time>2026-06-26T07:17:05Z</time>
      </trkpt>
      <trkpt lat="46.06647" lon="6.76463">
        <ele>1260.5</ele>
        <time>2026-06-26T07:17:06Z</time>
      </trkpt>
      <trkpt lat="46.06646" lon="6.76464">
        <ele>1260.7</ele>
        <time>2026-06-26T07:17:07Z</time>
      </trkpt>
      <trkpt lat="46.06646" lon="6.76465">
        <ele>1260.8</ele>
        <time>2026-06-26T07:17:08Z</time>
      </trkpt>
      <trkpt lat="46.06645" lon="6.76466">
        <ele>1260.9</ele>
        <time>2026-06-26T07:17:09Z</time>
      </trkpt>
      <trkpt lat="46.06645" lon="6.76468">
        <ele>1261</ele>
        <time>2026-06-26T07:17:10Z</time>
      </trkpt>
      <trkpt lat="46.06644" lon="6.76469">
        <ele>1261.1</ele>
        <time>2026-06-26T07:17:11Z</time>
      </trkpt>
      <trkpt lat="46.06644" lon="6.7647">
        <ele>1261.2</ele>
        <time>2026-06-26T07:17:12Z</time>
      </trkpt>
      <trkpt lat="46.06644" lon="6.76471">
        <ele>1261.3</ele>
        <time>2026-06-26T07:17:13Z</time>
      </trkpt>
      <trkpt lat="46.06643" lon="6.76472">
        <ele>1261.4</ele>
        <time>2026-06-26T07:17:14Z</time>
      </trkpt>
      <trkpt lat="46.06643" lon="6.76474">
        <ele>1261.5</ele>
        <time>2026-06-26T07:17:15Z</time>
      </trkpt>
      <trkpt lat="46.06642" lon="6.76475">
        <ele>1261.6</ele>
        <time>2026-06-26T07:17:16Z</time>
      </trkpt>
      <trkpt lat="46.06642" lon="6.76476">
        <ele>1261.7</ele>
        <time>2026-06-26T07:17:17Z</time>
      </trkpt>
      <trkpt lat="46.06642" lon="6.76478">
        <ele>1261.9</ele>
        <time>2026-06-26T07:17:18Z</time>
      </trkpt>
      <trkpt lat="46.06641" lon="6.76479">
        <ele>1262.1</ele>
        <time>2026-06-26T07:17:19Z</time>
      </trkpt>
      <trkpt lat="46.06641" lon="6.7648">
        <ele>1262.3</ele>
        <time>2026-06-26T07:17:20Z</time>
      </trkpt>
      <trkpt lat="46.0664" lon="6.76481">
        <ele>1262.4</ele>
        <time>2026-06-26T07:17:21Z</time>
      </trkpt>
      <trkpt lat="46.0664" lon="6.76482">
        <ele>1262.4</ele>
        <time>2026-06-26T07:17:22Z</time>
      </trkpt>
      <trkpt lat="46.06639" lon="6.76483">
        <ele>1262.5</ele>
        <time>2026-06-26T07:17:23Z</time>
      </trkpt>
      <trkpt lat="46.06639" lon="6.76484">
        <ele>1262.6</ele>
        <time>2026-06-26T07:17:24Z</time>
      </trkpt>
      <trkpt lat="46.06638" lon="6.76485">
        <ele>1262.8</ele>
        <time>2026-06-26T07:17:25Z</time>
      </trkpt>
      <trkpt lat="46.06638" lon="6.76487">
        <ele>1263</ele>
        <time>2026-06-26T07:17:26Z</time>
      </trkpt>
      <trkpt lat="46.06638" lon="6.76488">
        <ele>1263.1</ele>
        <time>2026-06-26T07:17:27Z</time>
      </trkpt>
      <trkpt lat="46.06638" lon="6.7649">
        <ele>1263.3</ele>
        <time>2026-06-26T07:17:28Z</time>
      </trkpt>
      <trkpt lat="46.06638" lon="6.76491">
        <ele>1263.4</ele>
        <time>2026-06-26T07:17:29Z</time>
      </trkpt>
      <trkpt lat="46.06638" lon="6.76492">
        <ele>1263.5</ele>
        <time>2026-06-26T07:17:30Z</time>
      </trkpt>
      <trkpt lat="46.06637" lon="6.76493">
        <ele>1263.7</ele>
        <time>2026-06-26T07:17:31Z</time>
      </trkpt>
      <trkpt lat="46.06637" lon="6.76494">
        <ele>1263.9</ele>
        <time>2026-06-26T07:17:32Z</time>
      </trkpt>
      <trkpt lat="46.06636" lon="6.76495">
        <ele>1264</ele>
        <time>2026-06-26T07:17:33Z</time>
      </trkpt>
      <trkpt lat="46.06636" lon="6.76496">
        <ele>1264.1</ele>
        <time>2026-06-26T07:17:34Z</time>
      </trkpt>
      <trkpt lat="46.06635" lon="6.76497">
        <ele>1264.3</ele>
        <time>2026-06-26T07:17:35Z</time>
      </trkpt>
      <trkpt lat="46.06635" lon="6.76498">
        <ele>1264.5</ele>
        <time>2026-06-26T07:17:36Z</time>
      </trkpt>
      <trkpt lat="46.06634" lon="6.76499">
        <ele>1264.7</ele>
        <time>2026-06-26T07:17:37Z</time>
      </trkpt>
      <trkpt lat="46.06634" lon="6.765">
        <ele>1264.8</ele>
        <time>2026-06-26T07:17:38Z</time>
      </trkpt>
      <trkpt lat="46.06633" lon="6.76501">
        <ele>1265</ele>
        <time>2026-06-26T07:17:39Z</time>
      </trkpt>
      <trkpt lat="46.06632" lon="6.76501">
        <ele>1265.1</ele>
        <time>2026-06-26T07:17:40Z</time>
      </trkpt>
      <trkpt lat="46.06632" lon="6.76502">
        <ele>1265.2</ele>
        <time>2026-06-26T07:17:41Z</time>
      </trkpt>
      <trkpt lat="46.06631" lon="6.76503">
        <ele>1265.4</ele>
        <time>2026-06-26T07:17:42Z</time>
      </trkpt>
      <trkpt lat="46.06631" lon="6.76504">
        <ele>1265.5</ele>
        <time>2026-06-26T07:17:43Z</time>
      </trkpt>
      <trkpt lat="46.0663" lon="6.76505">
        <ele>1265.6</ele>
        <time>2026-06-26T07:17:44Z</time>
      </trkpt>
      <trkpt lat="46.0663" lon="6.76506">
        <ele>1265.7</ele>
        <time>2026-06-26T07:17:45Z</time>
      </trkpt>
      <trkpt lat="46.06629" lon="6.76507">
        <ele>1265.8</ele>
        <time>2026-06-26T07:17:46Z</time>
      </trkpt>
      <trkpt lat="46.06629" lon="6.76508">
        <ele>1265.9</ele>
        <time>2026-06-26T07:17:47Z</time>
      </trkpt>
      <trkpt lat="46.06629" lon="6.76508">
        <ele>1266</ele>
        <time>2026-06-26T07:17:48Z</time>
      </trkpt>
      <trkpt lat="46.06628" lon="6.76509">
        <ele>1266.3</ele>
        <time>2026-06-26T07:17:49Z</time>
      </trkpt>
      <trkpt lat="46.06628" lon="6.76509">
        <ele>1266.5</ele>
        <time>2026-06-26T07:17:50Z</time>
      </trkpt>
      <trkpt lat="46.06627" lon="6.7651">
        <ele>1266.6</ele>
        <time>2026-06-26T07:17:51Z</time>
      </trkpt>
      <trkpt lat="46.06627" lon="6.76511">
        <ele>1266.7</ele>
        <time>2026-06-26T07:17:52Z</time>
      </trkpt>
      <trkpt lat="46.06626" lon="6.76511">
        <ele>1266.8</ele>
        <time>2026-06-26T07:17:53Z</time>
      </trkpt>
      <trkpt lat="46.06626" lon="6.76513">
        <ele>1266.9</ele>
        <time>2026-06-26T07:17:54Z</time>
      </trkpt>
      <trkpt lat="46.06625" lon="6.76513">
        <ele>1267</ele>
        <time>2026-06-26T07:17:55Z</time>
      </trkpt>
      <trkpt lat="46.06625" lon="6.76514">
        <ele>1267.2</ele>
        <time>2026-06-26T07:17:56Z</time>
      </trkpt>
      <trkpt lat="46.06624" lon="6.76515">
        <ele>1267.3</ele>
        <time>2026-06-26T07:17:57Z</time>
      </trkpt>
      <trkpt lat="46.06623" lon="6.76516">
        <ele>1267.4</ele>
        <time>2026-06-26T07:17:58Z</time>
      </trkpt>
      <trkpt lat="46.06623" lon="6.76516">
        <ele>1267.6</ele>
        <time>2026-06-26T07:17:59Z</time>
      </trkpt>
      <trkpt lat="46.06623" lon="6.76518">
        <ele>1267.7</ele>
        <time>2026-06-26T07:18:00Z</time>
      </trkpt>
      <trkpt lat="46.06622" lon="6.76518">
        <ele>1267.7</ele>
        <time>2026-06-26T07:18:01Z</time>
      </trkpt>
      <trkpt lat="46.06622" lon="6.76519">
        <ele>1267.9</ele>
        <time>2026-06-26T07:18:02Z</time>
      </trkpt>
      <trkpt lat="46.06621" lon="6.7652">
        <ele>1267.9</ele>
        <time>2026-06-26T07:18:03Z</time>
      </trkpt>
      <trkpt lat="46.0662" lon="6.7652">
        <ele>1268</ele>
        <time>2026-06-26T07:18:04Z</time>
      </trkpt>
      <trkpt lat="46.0662" lon="6.76521">
        <ele>1268.1</ele>
        <time>2026-06-26T07:18:05Z</time>
      </trkpt>
      <trkpt lat="46.06619" lon="6.76522">
        <ele>1268.2</ele>
        <time>2026-06-26T07:18:06Z</time>
      </trkpt>
      <trkpt lat="46.06618" lon="6.76523">
        <ele>1268.4</ele>
        <time>2026-06-26T07:18:07Z</time>
      </trkpt>
      <trkpt lat="46.06618" lon="6.76525">
        <ele>1268.6</ele>
        <time>2026-06-26T07:18:08Z</time>
      </trkpt>
      <trkpt lat="46.06617" lon="6.76526">
        <ele>1268.7</ele>
        <time>2026-06-26T07:18:09Z</time>
      </trkpt>
      <trkpt lat="46.06617" lon="6.76527">
        <ele>1268.8</ele>
        <time>2026-06-26T07:18:10Z</time>
      </trkpt>
      <trkpt lat="46.06616" lon="6.76527">
        <ele>1268.8</ele>
        <time>2026-06-26T07:18:11Z</time>
      </trkpt>
      <trkpt lat="46.06616" lon="6.76528">
        <ele>1269</ele>
        <time>2026-06-26T07:18:12Z</time>
      </trkpt>
      <trkpt lat="46.06615" lon="6.7653">
        <ele>1269.2</ele>
        <time>2026-06-26T07:18:13Z</time>
      </trkpt>
      <trkpt lat="46.06615" lon="6.76531">
        <ele>1269.3</ele>
        <time>2026-06-26T07:18:14Z</time>
      </trkpt>
      <trkpt lat="46.06614" lon="6.76532">
        <ele>1269.3</ele>
        <time>2026-06-26T07:18:15Z</time>
      </trkpt>
      <trkpt lat="46.06614" lon="6.76532">
        <ele>1269.5</ele>
        <time>2026-06-26T07:18:16Z</time>
      </trkpt>
      <trkpt lat="46.06613" lon="6.76533">
        <ele>1269.6</ele>
        <time>2026-06-26T07:18:17Z</time>
      </trkpt>
      <trkpt lat="46.06613" lon="6.76534">
        <ele>1269.7</ele>
        <time>2026-06-26T07:18:18Z</time>
      </trkpt>
      <trkpt lat="46.06612" lon="6.76535">
        <ele>1269.8</ele>
        <time>2026-06-26T07:18:19Z</time>
      </trkpt>
      <trkpt lat="46.06612" lon="6.76536">
        <ele>1269.9</ele>
        <time>2026-06-26T07:18:20Z</time>
      </trkpt>
      <trkpt lat="46.06611" lon="6.76537">
        <ele>1270.1</ele>
        <time>2026-06-26T07:18:21Z</time>
      </trkpt>
      <trkpt lat="46.0661" lon="6.76538">
        <ele>1270.2</ele>
        <time>2026-06-26T07:18:22Z</time>
      </trkpt>
      <trkpt lat="46.0661" lon="6.76539">
        <ele>1270.3</ele>
        <time>2026-06-26T07:18:23Z</time>
      </trkpt>
      <trkpt lat="46.06609" lon="6.7654">
        <ele>1270.4</ele>
        <time>2026-06-26T07:18:24Z</time>
      </trkpt>
      <trkpt lat="46.06609" lon="6.76541">
        <ele>1270.5</ele>
        <time>2026-06-26T07:18:25Z</time>
      </trkpt>
      <trkpt lat="46.06609" lon="6.76542">
        <ele>1270.6</ele>
        <time>2026-06-26T07:18:26Z</time>
      </trkpt>
      <trkpt lat="46.06608" lon="6.76543">
        <ele>1270.7</ele>
        <time>2026-06-26T07:18:27Z</time>
      </trkpt>
      <trkpt lat="46.06608" lon="6.76544">
        <ele>1270.8</ele>
        <time>2026-06-26T07:18:28Z</time>
      </trkpt>
      <trkpt lat="46.06607" lon="6.76545">
        <ele>1270.9</ele>
        <time>2026-06-26T07:18:29Z</time>
      </trkpt>
      <trkpt lat="46.06607" lon="6.76546">
        <ele>1271</ele>
        <time>2026-06-26T07:18:30Z</time>
      </trkpt>
      <trkpt lat="46.06606" lon="6.76547">
        <ele>1271.1</ele>
        <time>2026-06-26T07:18:31Z</time>
      </trkpt>
      <trkpt lat="46.06606" lon="6.76549">
        <ele>1271.2</ele>
        <time>2026-06-26T07:18:32Z</time>
      </trkpt>
      <trkpt lat="46.06605" lon="6.76549">
        <ele>1271.4</ele>
        <time>2026-06-26T07:18:33Z</time>
      </trkpt>
      <trkpt lat="46.06605" lon="6.76551">
        <ele>1271.5</ele>
        <time>2026-06-26T07:18:34Z</time>
      </trkpt>
      <trkpt lat="46.06605" lon="6.76551">
        <ele>1271.7</ele>
        <time>2026-06-26T07:18:35Z</time>
      </trkpt>
      <trkpt lat="46.06604" lon="6.76552">
        <ele>1271.9</ele>
        <time>2026-06-26T07:18:36Z</time>
      </trkpt>
      <trkpt lat="46.06603" lon="6.76553">
        <ele>1272.1</ele>
        <time>2026-06-26T07:18:37Z</time>
      </trkpt>
      <trkpt lat="46.06603" lon="6.76554">
        <ele>1272.2</ele>
        <time>2026-06-26T07:18:38Z</time>
      </trkpt>
      <trkpt lat="46.06602" lon="6.76555">
        <ele>1272.3</ele>
        <time>2026-06-26T07:18:39Z</time>
      </trkpt>
      <trkpt lat="46.06602" lon="6.76557">
        <ele>1272.4</ele>
        <time>2026-06-26T07:18:40Z</time>
      </trkpt>
      <trkpt lat="46.06601" lon="6.76558">
        <ele>1272.5</ele>
        <time>2026-06-26T07:18:41Z</time>
      </trkpt>
      <trkpt lat="46.06601" lon="6.76559">
        <ele>1272.6</ele>
        <time>2026-06-26T07:18:42Z</time>
      </trkpt>
      <trkpt lat="46.066" lon="6.7656">
        <ele>1272.7</ele>
        <time>2026-06-26T07:18:43Z</time>
      </trkpt>
      <trkpt lat="46.066" lon="6.76561">
        <ele>1272.8</ele>
        <time>2026-06-26T07:18:44Z</time>
      </trkpt>
      <trkpt lat="46.066" lon="6.76562">
        <ele>1273</ele>
        <time>2026-06-26T07:18:45Z</time>
      </trkpt>
      <trkpt lat="46.06599" lon="6.76564">
        <ele>1273.1</ele>
        <time>2026-06-26T07:18:46Z</time>
      </trkpt>
      <trkpt lat="46.06599" lon="6.76564">
        <ele>1273.2</ele>
        <time>2026-06-26T07:18:47Z</time>
      </trkpt>
      <trkpt lat="46.06598" lon="6.76565">
        <ele>1273.3</ele>
        <time>2026-06-26T07:18:48Z</time>
      </trkpt>
      <trkpt lat="46.06598" lon="6.76566">
        <ele>1273.4</ele>
        <time>2026-06-26T07:18:49Z</time>
      </trkpt>
      <trkpt lat="46.06597" lon="6.76567">
        <ele>1273.5</ele>
        <time>2026-06-26T07:18:50Z</time>
      </trkpt>
      <trkpt lat="46.06596" lon="6.76568">
        <ele>1273.6</ele>
        <time>2026-06-26T07:18:51Z</time>
      </trkpt>
      <trkpt lat="46.06595" lon="6.76569">
        <ele>1273.7</ele>
        <time>2026-06-26T07:18:52Z</time>
      </trkpt>
      <trkpt lat="46.06595" lon="6.76569">
        <ele>1273.7</ele>
        <time>2026-06-26T07:18:53Z</time>
      </trkpt>
      <trkpt lat="46.06594" lon="6.7657">
        <ele>1273.8</ele>
        <time>2026-06-26T07:18:54Z</time>
      </trkpt>
      <trkpt lat="46.06594" lon="6.76571">
        <ele>1273.9</ele>
        <time>2026-06-26T07:18:55Z</time>
      </trkpt>
      <trkpt lat="46.06594" lon="6.76571">
        <ele>1273.9</ele>
        <time>2026-06-26T07:18:56Z</time>
      </trkpt>
      <trkpt lat="46.06593" lon="6.76572">
        <ele>1274</ele>
        <time>2026-06-26T07:18:57Z</time>
      </trkpt>
      <trkpt lat="46.06592" lon="6.76573">
        <ele>1274.1</ele>
        <time>2026-06-26T07:18:58Z</time>
      </trkpt>
      <trkpt lat="46.06591" lon="6.76573">
        <ele>1274.2</ele>
        <time>2026-06-26T07:18:59Z</time>
      </trkpt>
      <trkpt lat="46.06591" lon="6.76574">
        <ele>1274.5</ele>
        <time>2026-06-26T07:19:00Z</time>
      </trkpt>
      <trkpt lat="46.0659" lon="6.76574">
        <ele>1274.7</ele>
        <time>2026-06-26T07:19:01Z</time>
      </trkpt>
      <trkpt lat="46.0659" lon="6.76574">
        <ele>1274.9</ele>
        <time>2026-06-26T07:19:02Z</time>
      </trkpt>
      <trkpt lat="46.06589" lon="6.76575">
        <ele>1275</ele>
        <time>2026-06-26T07:19:03Z</time>
      </trkpt>
      <trkpt lat="46.06588" lon="6.76575">
        <ele>1275.1</ele>
        <time>2026-06-26T07:19:04Z</time>
      </trkpt>
      <trkpt lat="46.06587" lon="6.76575">
        <ele>1275.2</ele>
        <time>2026-06-26T07:19:05Z</time>
      </trkpt>
      <trkpt lat="46.06587" lon="6.76575">
        <ele>1275.3</ele>
        <time>2026-06-26T07:19:06Z</time>
      </trkpt>
      <trkpt lat="46.06586" lon="6.76575">
        <ele>1275.4</ele>
        <time>2026-06-26T07:19:07Z</time>
      </trkpt>
      <trkpt lat="46.06585" lon="6.76575">
        <ele>1275.6</ele>
        <time>2026-06-26T07:19:08Z</time>
      </trkpt>
      <trkpt lat="46.06585" lon="6.76575">
        <ele>1275.7</ele>
        <time>2026-06-26T07:19:09Z</time>
      </trkpt>
      <trkpt lat="46.06584" lon="6.76575">
        <ele>1275.8</ele>
        <time>2026-06-26T07:19:10Z</time>
      </trkpt>
      <trkpt lat="46.06583" lon="6.76575">
        <ele>1275.9</ele>
        <time>2026-06-26T07:19:11Z</time>
      </trkpt>
      <trkpt lat="46.06582" lon="6.76575">
        <ele>1276.1</ele>
        <time>2026-06-26T07:19:12Z</time>
      </trkpt>
      <trkpt lat="46.06582" lon="6.76575">
        <ele>1276.2</ele>
        <time>2026-06-26T07:19:13Z</time>
      </trkpt>
      <trkpt lat="46.06581" lon="6.76575">
        <ele>1276.4</ele>
        <time>2026-06-26T07:19:14Z</time>
      </trkpt>
      <trkpt lat="46.0658" lon="6.76575">
        <ele>1276.5</ele>
        <time>2026-06-26T07:19:15Z</time>
      </trkpt>
      <trkpt lat="46.0658" lon="6.76576">
        <ele>1276.6</ele>
        <time>2026-06-26T07:19:16Z</time>
      </trkpt>
      <trkpt lat="46.06579" lon="6.76575">
        <ele>1276.8</ele>
        <time>2026-06-26T07:19:17Z</time>
      </trkpt>
      <trkpt lat="46.06578" lon="6.76576">
        <ele>1277</ele>
        <time>2026-06-26T07:19:18Z</time>
      </trkpt>
      <trkpt lat="46.06578" lon="6.76577">
        <ele>1277.1</ele>
        <time>2026-06-26T07:19:19Z</time>
      </trkpt>
      <trkpt lat="46.06577" lon="6.76578">
        <ele>1277.2</ele>
        <time>2026-06-26T07:19:20Z</time>
      </trkpt>
      <trkpt lat="46.06577" lon="6.76579">
        <ele>1277.3</ele>
        <time>2026-06-26T07:19:21Z</time>
      </trkpt>
      <trkpt lat="46.06577" lon="6.7658">
        <ele>1277.3</ele>
        <time>2026-06-26T07:19:22Z</time>
      </trkpt>
      <trkpt lat="46.06577" lon="6.76581">
        <ele>1277.4</ele>
        <time>2026-06-26T07:19:23Z</time>
      </trkpt>
      <trkpt lat="46.06577" lon="6.76582">
        <ele>1277.6</ele>
        <time>2026-06-26T07:19:24Z</time>
      </trkpt>
      <trkpt lat="46.06577" lon="6.76583">
        <ele>1277.7</ele>
        <time>2026-06-26T07:19:25Z</time>
      </trkpt>
      <trkpt lat="46.06577" lon="6.76583">
        <ele>1277.8</ele>
        <time>2026-06-26T07:19:26Z</time>
      </trkpt>
      <trkpt lat="46.06577" lon="6.76584">
        <ele>1277.9</ele>
        <time>2026-06-26T07:19:27Z</time>
      </trkpt>
      <trkpt lat="46.06578" lon="6.76585">
        <ele>1278</ele>
        <time>2026-06-26T07:19:28Z</time>
      </trkpt>
      <trkpt lat="46.06579" lon="6.76585">
        <ele>1278.1</ele>
        <time>2026-06-26T07:19:29Z</time>
      </trkpt>
      <trkpt lat="46.0658" lon="6.76585">
        <ele>1278.3</ele>
        <time>2026-06-26T07:19:30Z</time>
      </trkpt>
      <trkpt lat="46.0658" lon="6.76585">
        <ele>1278.4</ele>
        <time>2026-06-26T07:19:31Z</time>
      </trkpt>
      <trkpt lat="46.06581" lon="6.76585">
        <ele>1278.4</ele>
        <time>2026-06-26T07:19:32Z</time>
      </trkpt>
      <trkpt lat="46.06581" lon="6.76584">
        <ele>1278.5</ele>
        <time>2026-06-26T07:19:33Z</time>
      </trkpt>
      <trkpt lat="46.06582" lon="6.76584">
        <ele>1278.6</ele>
        <time>2026-06-26T07:19:34Z</time>
      </trkpt>
      <trkpt lat="46.06582" lon="6.76584">
        <ele>1278.7</ele>
        <time>2026-06-26T07:19:35Z</time>
      </trkpt>
      <trkpt lat="46.06583" lon="6.76585">
        <ele>1278.9</ele>
        <time>2026-06-26T07:19:36Z</time>
      </trkpt>
      <trkpt lat="46.06584" lon="6.76586">
        <ele>1279.1</ele>
        <time>2026-06-26T07:19:37Z</time>
      </trkpt>
      <trkpt lat="46.06584" lon="6.76586">
        <ele>1279.3</ele>
        <time>2026-06-26T07:19:38Z</time>
      </trkpt>
      <trkpt lat="46.06585" lon="6.76585">
        <ele>1279.4</ele>
        <time>2026-06-26T07:19:39Z</time>
      </trkpt>
      <trkpt lat="46.06586" lon="6.76586">
        <ele>1279.6</ele>
        <time>2026-06-26T07:19:40Z</time>
      </trkpt>
      <trkpt lat="46.06587" lon="6.76586">
        <ele>1279.8</ele>
        <time>2026-06-26T07:19:41Z</time>
      </trkpt>
      <trkpt lat="46.06588" lon="6.76586">
        <ele>1279.9</ele>
        <time>2026-06-26T07:19:42Z</time>
      </trkpt>
      <trkpt lat="46.06588" lon="6.76586">
        <ele>1280</ele>
        <time>2026-06-26T07:19:43Z</time>
      </trkpt>
      <trkpt lat="46.06589" lon="6.76587">
        <ele>1280.1</ele>
        <time>2026-06-26T07:19:44Z</time>
      </trkpt>
      <trkpt lat="46.0659" lon="6.76587">
        <ele>1280.1</ele>
        <time>2026-06-26T07:19:45Z</time>
      </trkpt>
      <trkpt lat="46.06591" lon="6.76587">
        <ele>1280.1</ele>
        <time>2026-06-26T07:19:46Z</time>
      </trkpt>
      <trkpt lat="46.06591" lon="6.76587">
        <ele>1280.2</ele>
        <time>2026-06-26T07:19:47Z</time>
      </trkpt>
      <trkpt lat="46.06592" lon="6.76587">
        <ele>1280.3</ele>
        <time>2026-06-26T07:19:48Z</time>
      </trkpt>
      <trkpt lat="46.06593" lon="6.76588">
        <ele>1280.4</ele>
        <time>2026-06-26T07:19:49Z</time>
      </trkpt>
      <trkpt lat="46.06593" lon="6.76588">
        <ele>1280.5</ele>
        <time>2026-06-26T07:19:50Z</time>
      </trkpt>
      <trkpt lat="46.06594" lon="6.76589">
        <ele>1280.6</ele>
        <time>2026-06-26T07:19:51Z</time>
      </trkpt>
      <trkpt lat="46.06595" lon="6.76588">
        <ele>1280.7</ele>
        <time>2026-06-26T07:19:52Z</time>
      </trkpt>
      <trkpt lat="46.06596" lon="6.76588">
        <ele>1280.9</ele>
        <time>2026-06-26T07:19:53Z</time>
      </trkpt>
      <trkpt lat="46.06598" lon="6.76589">
        <ele>1281</ele>
        <time>2026-06-26T07:19:54Z</time>
      </trkpt>
      <trkpt lat="46.06599" lon="6.7659">
        <ele>1281.1</ele>
        <time>2026-06-26T07:19:55Z</time>
      </trkpt>
      <trkpt lat="46.06599" lon="6.76591">
        <ele>1281.3</ele>
        <time>2026-06-26T07:19:56Z</time>
      </trkpt>
      <trkpt lat="46.066" lon="6.76592">
        <ele>1281.5</ele>
        <time>2026-06-26T07:19:57Z</time>
      </trkpt>
      <trkpt lat="46.066" lon="6.76592">
        <ele>1281.7</ele>
        <time>2026-06-26T07:19:58Z</time>
      </trkpt>
      <trkpt lat="46.06601" lon="6.76592">
        <ele>1281.8</ele>
        <time>2026-06-26T07:19:59Z</time>
      </trkpt>
      <trkpt lat="46.06602" lon="6.76593">
        <ele>1281.9</ele>
        <time>2026-06-26T07:20:00Z</time>
      </trkpt>
      <trkpt lat="46.06603" lon="6.76592">
        <ele>1282</ele>
        <time>2026-06-26T07:20:01Z</time>
      </trkpt>
      <trkpt lat="46.06604" lon="6.76593">
        <ele>1282</ele>
        <time>2026-06-26T07:20:02Z</time>
      </trkpt>
      <trkpt lat="46.06605" lon="6.76593">
        <ele>1282.2</ele>
        <time>2026-06-26T07:20:03Z</time>
      </trkpt>
      <trkpt lat="46.06607" lon="6.76595">
        <ele>1282.4</ele>
        <time>2026-06-26T07:20:04Z</time>
      </trkpt>
      <trkpt lat="46.06609" lon="6.76594">
        <ele>1282.5</ele>
        <time>2026-06-26T07:20:05Z</time>
      </trkpt>
      <trkpt lat="46.06609" lon="6.76594">
        <ele>1282.6</ele>
        <time>2026-06-26T07:20:06Z</time>
      </trkpt>
      <trkpt lat="46.0661" lon="6.76594">
        <ele>1282.8</ele>
        <time>2026-06-26T07:20:07Z</time>
      </trkpt>
      <trkpt lat="46.06611" lon="6.76595">
        <ele>1283</ele>
        <time>2026-06-26T07:20:08Z</time>
      </trkpt>
      <trkpt lat="46.06612" lon="6.76594">
        <ele>1283.2</ele>
        <time>2026-06-26T07:20:09Z</time>
      </trkpt>
      <trkpt lat="46.06613" lon="6.76594">
        <ele>1283.4</ele>
        <time>2026-06-26T07:20:10Z</time>
      </trkpt>
      <trkpt lat="46.06614" lon="6.76593">
        <ele>1283.4</ele>
        <time>2026-06-26T07:20:11Z</time>
      </trkpt>
      <trkpt lat="46.06615" lon="6.76593">
        <ele>1283.4</ele>
        <time>2026-06-26T07:20:12Z</time>
      </trkpt>
      <trkpt lat="46.06616" lon="6.76593">
        <ele>1283.5</ele>
        <time>2026-06-26T07:20:13Z</time>
      </trkpt>
      <trkpt lat="46.06617" lon="6.76593">
        <ele>1283.6</ele>
        <time>2026-06-26T07:20:14Z</time>
      </trkpt>
      <trkpt lat="46.06618" lon="6.76593">
        <ele>1283.6</ele>
        <time>2026-06-26T07:20:15Z</time>
      </trkpt>
      <trkpt lat="46.06618" lon="6.76592">
        <ele>1283.7</ele>
        <time>2026-06-26T07:20:16Z</time>
      </trkpt>
      <trkpt lat="46.06619" lon="6.76592">
        <ele>1283.9</ele>
        <time>2026-06-26T07:20:17Z</time>
      </trkpt>
      <trkpt lat="46.0662" lon="6.76592">
        <ele>1284.1</ele>
        <time>2026-06-26T07:20:18Z</time>
      </trkpt>
      <trkpt lat="46.06621" lon="6.76591">
        <ele>1284.4</ele>
        <time>2026-06-26T07:20:19Z</time>
      </trkpt>
      <trkpt lat="46.06622" lon="6.76591">
        <ele>1284.6</ele>
        <time>2026-06-26T07:20:20Z</time>
      </trkpt>
      <trkpt lat="46.06622" lon="6.7659">
        <ele>1284.7</ele>
        <time>2026-06-26T07:20:21Z</time>
      </trkpt>
      <trkpt lat="46.06623" lon="6.7659">
        <ele>1284.9</ele>
        <time>2026-06-26T07:20:22Z</time>
      </trkpt>
      <trkpt lat="46.06624" lon="6.7659">
        <ele>1285.1</ele>
        <time>2026-06-26T07:20:23Z</time>
      </trkpt>
      <trkpt lat="46.06624" lon="6.76589">
        <ele>1285.2</ele>
        <time>2026-06-26T07:20:24Z</time>
      </trkpt>
      <trkpt lat="46.06625" lon="6.76588">
        <ele>1285.2</ele>
        <time>2026-06-26T07:20:25Z</time>
      </trkpt>
      <trkpt lat="46.06625" lon="6.76587">
        <ele>1285.3</ele>
        <time>2026-06-26T07:20:26Z</time>
      </trkpt>
      <trkpt lat="46.06626" lon="6.76587">
        <ele>1285.3</ele>
        <time>2026-06-26T07:20:27Z</time>
      </trkpt>
      <trkpt lat="46.06626" lon="6.76587">
        <ele>1285.5</ele>
        <time>2026-06-26T07:20:28Z</time>
      </trkpt>
      <trkpt lat="46.06627" lon="6.76586">
        <ele>1285.6</ele>
        <time>2026-06-26T07:20:29Z</time>
      </trkpt>
      <trkpt lat="46.06628" lon="6.76586">
        <ele>1285.7</ele>
        <time>2026-06-26T07:20:30Z</time>
      </trkpt>
      <trkpt lat="46.06629" lon="6.76586">
        <ele>1285.9</ele>
        <time>2026-06-26T07:20:31Z</time>
      </trkpt>
      <trkpt lat="46.06629" lon="6.76585">
        <ele>1286</ele>
        <time>2026-06-26T07:20:32Z</time>
      </trkpt>
      <trkpt lat="46.0663" lon="6.76584">
        <ele>1286.1</ele>
        <time>2026-06-26T07:20:33Z</time>
      </trkpt>
      <trkpt lat="46.06631" lon="6.76583">
        <ele>1286.3</ele>
        <time>2026-06-26T07:20:34Z</time>
      </trkpt>
      <trkpt lat="46.06632" lon="6.76583">
        <ele>1286.6</ele>
        <time>2026-06-26T07:20:35Z</time>
      </trkpt>
      <trkpt lat="46.06632" lon="6.76583">
        <ele>1286.7</ele>
        <time>2026-06-26T07:20:36Z</time>
      </trkpt>
      <trkpt lat="46.06633" lon="6.76583">
        <ele>1286.9</ele>
        <time>2026-06-26T07:20:37Z</time>
      </trkpt>
      <trkpt lat="46.06634" lon="6.76583">
        <ele>1286.9</ele>
        <time>2026-06-26T07:20:38Z</time>
      </trkpt>
      <trkpt lat="46.06635" lon="6.76582">
        <ele>1287.1</ele>
        <time>2026-06-26T07:20:39Z</time>
      </trkpt>
      <trkpt lat="46.06636" lon="6.76583">
        <ele>1287.3</ele>
        <time>2026-06-26T07:20:40Z</time>
      </trkpt>
      <trkpt lat="46.06637" lon="6.76583">
        <ele>1287.5</ele>
        <time>2026-06-26T07:20:41Z</time>
      </trkpt>
      <trkpt lat="46.06637" lon="6.76582">
        <ele>1287.6</ele>
        <time>2026-06-26T07:20:42Z</time>
      </trkpt>
      <trkpt lat="46.06638" lon="6.76581">
        <ele>1287.7</ele>
        <time>2026-06-26T07:20:43Z</time>
      </trkpt>
      <trkpt lat="46.06639" lon="6.76581">
        <ele>1287.8</ele>
        <time>2026-06-26T07:20:44Z</time>
      </trkpt>
      <trkpt lat="46.06639" lon="6.76581">
        <ele>1287.9</ele>
        <time>2026-06-26T07:20:45Z</time>
      </trkpt>
      <trkpt lat="46.0664" lon="6.76581">
        <ele>1287.9</ele>
        <time>2026-06-26T07:20:46Z</time>
      </trkpt>
      <trkpt lat="46.06641" lon="6.7658">
        <ele>1288</ele>
        <time>2026-06-26T07:20:47Z</time>
      </trkpt>
      <trkpt lat="46.06642" lon="6.76579">
        <ele>1288</ele>
        <time>2026-06-26T07:20:48Z</time>
      </trkpt>
      <trkpt lat="46.06643" lon="6.76579">
        <ele>1288.1</ele>
        <time>2026-06-26T07:20:49Z</time>
      </trkpt>
      <trkpt lat="46.06643" lon="6.76579">
        <ele>1288.1</ele>
        <time>2026-06-26T07:20:50Z</time>
      </trkpt>
      <trkpt lat="46.06644" lon="6.76579">
        <ele>1288.3</ele>
        <time>2026-06-26T07:20:51Z</time>
      </trkpt>
      <trkpt lat="46.06645" lon="6.76579">
        <ele>1288.4</ele>
        <time>2026-06-26T07:20:52Z</time>
      </trkpt>
      <trkpt lat="46.06646" lon="6.76579">
        <ele>1288.5</ele>
        <time>2026-06-26T07:20:53Z</time>
      </trkpt>
      <trkpt lat="46.06647" lon="6.76579">
        <ele>1288.6</ele>
        <time>2026-06-26T07:20:54Z</time>
      </trkpt>
      <trkpt lat="46.06648" lon="6.76579">
        <ele>1288.8</ele>
        <time>2026-06-26T07:20:55Z</time>
      </trkpt>
      <trkpt lat="46.06649" lon="6.76579">
        <ele>1289</ele>
        <time>2026-06-26T07:20:56Z</time>
      </trkpt>
      <trkpt lat="46.06649" lon="6.76578">
        <ele>1289.2</ele>
        <time>2026-06-26T07:20:57Z</time>
      </trkpt>
      <trkpt lat="46.0665" lon="6.76577">
        <ele>1289.3</ele>
        <time>2026-06-26T07:20:58Z</time>
      </trkpt>
      <trkpt lat="46.0665" lon="6.76577">
        <ele>1289.5</ele>
        <time>2026-06-26T07:20:59Z</time>
      </trkpt>
      <trkpt lat="46.06651" lon="6.76577">
        <ele>1289.7</ele>
        <time>2026-06-26T07:21:00Z</time>
      </trkpt>
      <trkpt lat="46.06652" lon="6.76576">
        <ele>1289.9</ele>
        <time>2026-06-26T07:21:01Z</time>
      </trkpt>
      <trkpt lat="46.06653" lon="6.76575">
        <ele>1290.2</ele>
        <time>2026-06-26T07:21:02Z</time>
      </trkpt>
      <trkpt lat="46.06653" lon="6.76575">
        <ele>1290.3</ele>
        <time>2026-06-26T07:21:03Z</time>
      </trkpt>
      <trkpt lat="46.06654" lon="6.76574">
        <ele>1290.4</ele>
        <time>2026-06-26T07:21:04Z</time>
      </trkpt>
      <trkpt lat="46.06654" lon="6.76574">
        <ele>1290.5</ele>
        <time>2026-06-26T07:21:05Z</time>
      </trkpt>
      <trkpt lat="46.06655" lon="6.76574">
        <ele>1290.7</ele>
        <time>2026-06-26T07:21:06Z</time>
      </trkpt>
      <trkpt lat="46.06656" lon="6.76573">
        <ele>1291</ele>
        <time>2026-06-26T07:21:07Z</time>
      </trkpt>
      <trkpt lat="46.06657" lon="6.76573">
        <ele>1291.2</ele>
        <time>2026-06-26T07:21:08Z</time>
      </trkpt>
      <trkpt lat="46.06658" lon="6.76573">
        <ele>1291.4</ele>
        <time>2026-06-26T07:21:09Z</time>
      </trkpt>
      <trkpt lat="46.06659" lon="6.76573">
        <ele>1291.5</ele>
        <time>2026-06-26T07:21:10Z</time>
      </trkpt>
      <trkpt lat="46.06659" lon="6.76573">
        <ele>1291.6</ele>
        <time>2026-06-26T07:21:11Z</time>
      </trkpt>
      <trkpt lat="46.0666" lon="6.76574">
        <ele>1291.7</ele>
        <time>2026-06-26T07:21:12Z</time>
      </trkpt>
      <trkpt lat="46.06661" lon="6.76574">
        <ele>1291.8</ele>
        <time>2026-06-26T07:21:13Z</time>
      </trkpt>
      <trkpt lat="46.06662" lon="6.76573">
        <ele>1291.9</ele>
        <time>2026-06-26T07:21:14Z</time>
      </trkpt>
      <trkpt lat="46.06663" lon="6.76573">
        <ele>1291.9</ele>
        <time>2026-06-26T07:21:15Z</time>
      </trkpt>
      <trkpt lat="46.06663" lon="6.76573">
        <ele>1292</ele>
        <time>2026-06-26T07:21:16Z</time>
      </trkpt>
      <trkpt lat="46.06664" lon="6.76572">
        <ele>1292.1</ele>
        <time>2026-06-26T07:21:17Z</time>
      </trkpt>
      <trkpt lat="46.06664" lon="6.76572">
        <ele>1292.1</ele>
        <time>2026-06-26T07:21:18Z</time>
      </trkpt>
      <trkpt lat="46.06664" lon="6.76572">
        <ele>1292.2</ele>
        <time>2026-06-26T07:21:19Z</time>
      </trkpt>
      <trkpt lat="46.06664" lon="6.76572">
        <ele>1292.2</ele>
        <time>2026-06-26T07:21:20Z</time>
      </trkpt>
      <trkpt lat="46.06664" lon="6.76572">
        <ele>1292.4</ele>
        <time>2026-06-26T07:21:21Z</time>
      </trkpt>
      <trkpt lat="46.06664" lon="6.76571">
        <ele>1292.5</ele>
        <time>2026-06-26T07:21:22Z</time>
      </trkpt>
      <trkpt lat="46.06664" lon="6.76571">
        <ele>1292.6</ele>
        <time>2026-06-26T07:21:23Z</time>
      </trkpt>
      <trkpt lat="46.06665" lon="6.7657">
        <ele>1292.6</ele>
        <time>2026-06-26T07:21:24Z</time>
      </trkpt>
      <trkpt lat="46.06665" lon="6.7657">
        <ele>1292.7</ele>
        <time>2026-06-26T07:21:25Z</time>
      </trkpt>
      <trkpt lat="46.06665" lon="6.7657">
        <ele>1292.7</ele>
        <time>2026-06-26T07:21:26Z</time>
      </trkpt>
      <trkpt lat="46.06665" lon="6.7657">
        <ele>1292.7</ele>
        <time>2026-06-26T07:21:27Z</time>
      </trkpt>
      <trkpt lat="46.06666" lon="6.7657">
        <ele>1292.8</ele>
        <time>2026-06-26T07:21:28Z</time>
      </trkpt>
      <trkpt lat="46.06667" lon="6.7657">
        <ele>1293</ele>
        <time>2026-06-26T07:21:29Z</time>
      </trkpt>
      <trkpt lat="46.06667" lon="6.76569">
        <ele>1293</ele>
        <time>2026-06-26T07:21:30Z</time>
      </trkpt>
      <trkpt lat="46.06668" lon="6.76569">
        <ele>1293.2</ele>
        <time>2026-06-26T07:21:31Z</time>
      </trkpt>
      <trkpt lat="46.06668" lon="6.76569">
        <ele>1293.4</ele>
        <time>2026-06-26T07:21:32Z</time>
      </trkpt>
      <trkpt lat="46.06669" lon="6.76568">
        <ele>1293.5</ele>
        <time>2026-06-26T07:21:33Z</time>
      </trkpt>
      <trkpt lat="46.06668" lon="6.76567">
        <ele>1293.5</ele>
        <time>2026-06-26T07:21:34Z</time>
      </trkpt>
      <trkpt lat="46.06668" lon="6.76566">
        <ele>1293.6</ele>
        <time>2026-06-26T07:21:35Z</time>
      </trkpt>
      <trkpt lat="46.06668" lon="6.76566">
        <ele>1293.6</ele>
        <time>2026-06-26T07:21:36Z</time>
      </trkpt>
      <trkpt lat="46.06669" lon="6.76566">
        <ele>1293.6</ele>
        <time>2026-06-26T07:21:37Z</time>
      </trkpt>
      <trkpt lat="46.06669" lon="6.76565">
        <ele>1293.6</ele>
        <time>2026-06-26T07:21:38Z</time>
      </trkpt>
      <trkpt lat="46.0667" lon="6.76565">
        <ele>1293.6</ele>
        <time>2026-06-26T07:21:39Z</time>
      </trkpt>
      <trkpt lat="46.0667" lon="6.76566">
        <ele>1293.7</ele>
        <time>2026-06-26T07:21:40Z</time>
      </trkpt>
      <trkpt lat="46.06671" lon="6.76566">
        <ele>1293.9</ele>
        <time>2026-06-26T07:21:41Z</time>
      </trkpt>
      <trkpt lat="46.06672" lon="6.76566">
        <ele>1294</ele>
        <time>2026-06-26T07:21:42Z</time>
      </trkpt>
      <trkpt lat="46.06673" lon="6.76565">
        <ele>1294.1</ele>
        <time>2026-06-26T07:21:43Z</time>
      </trkpt>
      <trkpt lat="46.06674" lon="6.76565">
        <ele>1294.2</ele>
        <time>2026-06-26T07:21:44Z</time>
      </trkpt>
      <trkpt lat="46.06675" lon="6.76565">
        <ele>1294.4</ele>
        <time>2026-06-26T07:21:45Z</time>
      </trkpt>
      <trkpt lat="46.06676" lon="6.76565">
        <ele>1294.5</ele>
        <time>2026-06-26T07:21:46Z</time>
      </trkpt>
      <trkpt lat="46.06677" lon="6.76564">
        <ele>1294.6</ele>
        <time>2026-06-26T07:21:47Z</time>
      </trkpt>
      <trkpt lat="46.06678" lon="6.76564">
        <ele>1294.7</ele>
        <time>2026-06-26T07:21:48Z</time>
      </trkpt>
      <trkpt lat="46.06678" lon="6.76564">
        <ele>1294.8</ele>
        <time>2026-06-26T07:21:49Z</time>
      </trkpt>
      <trkpt lat="46.06679" lon="6.76563">
        <ele>1294.9</ele>
        <time>2026-06-26T07:21:50Z</time>
      </trkpt>
      <trkpt lat="46.0668" lon="6.76562">
        <ele>1295</ele>
        <time>2026-06-26T07:21:51Z</time>
      </trkpt>
      <trkpt lat="46.06681" lon="6.76562">
        <ele>1295.2</ele>
        <time>2026-06-26T07:21:52Z</time>
      </trkpt>
      <trkpt lat="46.06681" lon="6.76561">
        <ele>1295.3</ele>
        <time>2026-06-26T07:21:53Z</time>
      </trkpt>
      <trkpt lat="46.06682" lon="6.7656">
        <ele>1295.5</ele>
        <time>2026-06-26T07:21:54Z</time>
      </trkpt>
      <trkpt lat="46.06682" lon="6.76559">
        <ele>1295.7</ele>
        <time>2026-06-26T07:21:55Z</time>
      </trkpt>
      <trkpt lat="46.06683" lon="6.76558">
        <ele>1295.9</ele>
        <time>2026-06-26T07:21:56Z</time>
      </trkpt>
      <trkpt lat="46.06684" lon="6.76558">
        <ele>1296</ele>
        <time>2026-06-26T07:21:57Z</time>
      </trkpt>
      <trkpt lat="46.06684" lon="6.76556">
        <ele>1296.2</ele>
        <time>2026-06-26T07:21:58Z</time>
      </trkpt>
      <trkpt lat="46.06684" lon="6.76554">
        <ele>1296.4</ele>
        <time>2026-06-26T07:21:59Z</time>
      </trkpt>
      <trkpt lat="46.06684" lon="6.76553">
        <ele>1296.4</ele>
        <time>2026-06-26T07:22:00Z</time>
      </trkpt>
      <trkpt lat="46.06684" lon="6.76552">
        <ele>1296.5</ele>
        <time>2026-06-26T07:22:01Z</time>
      </trkpt>
      <trkpt lat="46.06684" lon="6.76551">
        <ele>1296.7</ele>
        <time>2026-06-26T07:22:02Z</time>
      </trkpt>
      <trkpt lat="46.06684" lon="6.7655">
        <ele>1296.7</ele>
        <time>2026-06-26T07:22:03Z</time>
      </trkpt>
      <trkpt lat="46.06684" lon="6.76549">
        <ele>1296.9</ele>
        <time>2026-06-26T07:22:04Z</time>
      </trkpt>
      <trkpt lat="46.06685" lon="6.76549">
        <ele>1297.1</ele>
        <time>2026-06-26T07:22:05Z</time>
      </trkpt>
      <trkpt lat="46.06686" lon="6.76548">
        <ele>1297.2</ele>
        <time>2026-06-26T07:22:06Z</time>
      </trkpt>
      <trkpt lat="46.06686" lon="6.76547">
        <ele>1297.3</ele>
        <time>2026-06-26T07:22:07Z</time>
      </trkpt>
      <trkpt lat="46.06686" lon="6.76546">
        <ele>1297.3</ele>
        <time>2026-06-26T07:22:08Z</time>
      </trkpt>
      <trkpt lat="46.06686" lon="6.76545">
        <ele>1297.5</ele>
        <time>2026-06-26T07:22:09Z</time>
      </trkpt>
      <trkpt lat="46.06687" lon="6.76544">
        <ele>1297.7</ele>
        <time>2026-06-26T07:22:10Z</time>
      </trkpt>
      <trkpt lat="46.06687" lon="6.76543">
        <ele>1297.8</ele>
        <time>2026-06-26T07:22:11Z</time>
      </trkpt>
      <trkpt lat="46.06687" lon="6.76542">
        <ele>1297.9</ele>
        <time>2026-06-26T07:22:12Z</time>
      </trkpt>
      <trkpt lat="46.06689" lon="6.76543">
        <ele>1298</ele>
        <time>2026-06-26T07:22:13Z</time>
      </trkpt>
      <trkpt lat="46.06689" lon="6.76542">
        <ele>1298.1</ele>
        <time>2026-06-26T07:22:14Z</time>
      </trkpt>
      <trkpt lat="46.0669" lon="6.76542">
        <ele>1298.4</ele>
        <time>2026-06-26T07:22:15Z</time>
      </trkpt>
      <trkpt lat="46.06691" lon="6.76543">
        <ele>1298.6</ele>
        <time>2026-06-26T07:22:16Z</time>
      </trkpt>
      <trkpt lat="46.06692" lon="6.76543">
        <ele>1298.7</ele>
        <time>2026-06-26T07:22:17Z</time>
      </trkpt>
      <trkpt lat="46.06692" lon="6.76542">
        <ele>1298.8</ele>
        <time>2026-06-26T07:22:18Z</time>
      </trkpt>
      <trkpt lat="46.06693" lon="6.76542">
        <ele>1298.8</ele>
        <time>2026-06-26T07:22:19Z</time>
      </trkpt>
      <trkpt lat="46.06694" lon="6.76541">
        <ele>1298.9</ele>
        <time>2026-06-26T07:22:20Z</time>
      </trkpt>
      <trkpt lat="46.06695" lon="6.7654">
        <ele>1299</ele>
        <time>2026-06-26T07:22:21Z</time>
      </trkpt>
      <trkpt lat="46.06696" lon="6.76539">
        <ele>1299.2</ele>
        <time>2026-06-26T07:22:22Z</time>
      </trkpt>
      <trkpt lat="46.06696" lon="6.76539">
        <ele>1299.3</ele>
        <time>2026-06-26T07:22:23Z</time>
      </trkpt>
      <trkpt lat="46.06698" lon="6.76539">
        <ele>1299.3</ele>
        <time>2026-06-26T07:22:24Z</time>
      </trkpt>
      <trkpt lat="46.06698" lon="6.76538">
        <ele>1299.5</ele>
        <time>2026-06-26T07:22:25Z</time>
      </trkpt>
      <trkpt lat="46.06699" lon="6.76538">
        <ele>1299.6</ele>
        <time>2026-06-26T07:22:26Z</time>
      </trkpt>
      <trkpt lat="46.067" lon="6.76539">
        <ele>1299.8</ele>
        <time>2026-06-26T07:22:27Z</time>
      </trkpt>
      <trkpt lat="46.06701" lon="6.76538">
        <ele>1299.9</ele>
        <time>2026-06-26T07:22:28Z</time>
      </trkpt>
      <trkpt lat="46.06702" lon="6.76537">
        <ele>1300</ele>
        <time>2026-06-26T07:22:29Z</time>
      </trkpt>
      <trkpt lat="46.06703" lon="6.76536">
        <ele>1300.1</ele>
        <time>2026-06-26T07:22:30Z</time>
      </trkpt>
      <trkpt lat="46.06704" lon="6.76535">
        <ele>1300.2</ele>
        <time>2026-06-26T07:22:31Z</time>
      </trkpt>
      <trkpt lat="46.06705" lon="6.76535">
        <ele>1300.3</ele>
        <time>2026-06-26T07:22:32Z</time>
      </trkpt>
      <trkpt lat="46.06706" lon="6.76534">
        <ele>1300.4</ele>
        <time>2026-06-26T07:22:33Z</time>
      </trkpt>
      <trkpt lat="46.06706" lon="6.76534">
        <ele>1300.5</ele>
        <time>2026-06-26T07:22:34Z</time>
      </trkpt>
      <trkpt lat="46.06706" lon="6.76533">
        <ele>1300.6</ele>
        <time>2026-06-26T07:22:35Z</time>
      </trkpt>
      <trkpt lat="46.06707" lon="6.76532">
        <ele>1300.7</ele>
        <time>2026-06-26T07:22:36Z</time>
      </trkpt>
      <trkpt lat="46.06707" lon="6.76532">
        <ele>1300.8</ele>
        <time>2026-06-26T07:22:37Z</time>
      </trkpt>
      <trkpt lat="46.06708" lon="6.76533">
        <ele>1300.9</ele>
        <time>2026-06-26T07:22:38Z</time>
      </trkpt>
      <trkpt lat="46.06708" lon="6.76533">
        <ele>1301</ele>
        <time>2026-06-26T07:22:39Z</time>
      </trkpt>
      <trkpt lat="46.06709" lon="6.76532">
        <ele>1301.1</ele>
        <time>2026-06-26T07:22:40Z</time>
      </trkpt>
      <trkpt lat="46.06708" lon="6.76532">
        <ele>1301.2</ele>
        <time>2026-06-26T07:22:41Z</time>
      </trkpt>
      <trkpt lat="46.06707" lon="6.76533">
        <ele>1301.2</ele>
        <time>2026-06-26T07:22:42Z</time>
      </trkpt>
      <trkpt lat="46.06707" lon="6.76533">
        <ele>1301.5</ele>
        <time>2026-06-26T07:22:43Z</time>
      </trkpt>
      <trkpt lat="46.06709" lon="6.76536">
        <ele>1301.7</ele>
        <time>2026-06-26T07:22:44Z</time>
      </trkpt>
      <trkpt lat="46.06708" lon="6.76536">
        <ele>1301.7</ele>
        <time>2026-06-26T07:22:45Z</time>
      </trkpt>
      <trkpt lat="46.06708" lon="6.76536">
        <ele>1301.8</ele>
        <time>2026-06-26T07:22:46Z</time>
      </trkpt>
      <trkpt lat="46.06709" lon="6.76537">
        <ele>1302</ele>
        <time>2026-06-26T07:22:47Z</time>
      </trkpt>
      <trkpt lat="46.0671" lon="6.76537">
        <ele>1302.2</ele>
        <time>2026-06-26T07:22:48Z</time>
      </trkpt>
      <trkpt lat="46.0671" lon="6.76538">
        <ele>1302.4</ele>
        <time>2026-06-26T07:22:49Z</time>
      </trkpt>
      <trkpt lat="46.0671" lon="6.76538">
        <ele>1302.5</ele>
        <time>2026-06-26T07:22:50Z</time>
      </trkpt>
      <trkpt lat="46.0671" lon="6.76538">
        <ele>1302.7</ele>
        <time>2026-06-26T07:22:51Z</time>
      </trkpt>
      <trkpt lat="46.06709" lon="6.76537">
        <ele>1302.8</ele>
        <time>2026-06-26T07:22:52Z</time>
      </trkpt>
      <trkpt lat="46.06709" lon="6.76537">
        <ele>1302.9</ele>
        <time>2026-06-26T07:22:53Z</time>
      </trkpt>
      <trkpt lat="46.06707" lon="6.76537">
        <ele>1303.1</ele>
        <time>2026-06-26T07:22:54Z</time>
      </trkpt>
      <trkpt lat="46.06707" lon="6.76537">
        <ele>1303.2</ele>
        <time>2026-06-26T07:22:55Z</time>
      </trkpt>
      <trkpt lat="46.06707" lon="6.76538">
        <ele>1303.3</ele>
        <time>2026-06-26T07:22:56Z</time>
      </trkpt>
      <trkpt lat="46.06706" lon="6.76538">
        <ele>1303.4</ele>
        <time>2026-06-26T07:22:57Z</time>
      </trkpt>
      <trkpt lat="46.06706" lon="6.76537">
        <ele>1303.5</ele>
        <time>2026-06-26T07:22:58Z</time>
      </trkpt>
      <trkpt lat="46.06706" lon="6.76538">
        <ele>1303.6</ele>
        <time>2026-06-26T07:22:59Z</time>
      </trkpt>
      <trkpt lat="46.06705" lon="6.76538">
        <ele>1303.8</ele>
        <time>2026-06-26T07:23:00Z</time>
      </trkpt>
      <trkpt lat="46.06704" lon="6.76539">
        <ele>1303.8</ele>
        <time>2026-06-26T07:23:01Z</time>
      </trkpt>
      <trkpt lat="46.06704" lon="6.7654">
        <ele>1303.8</ele>
        <time>2026-06-26T07:23:02Z</time>
      </trkpt>
      <trkpt lat="46.06703" lon="6.7654">
        <ele>1304</ele>
        <time>2026-06-26T07:23:03Z</time>
      </trkpt>
      <trkpt lat="46.06703" lon="6.76541">
        <ele>1304</ele>
        <time>2026-06-26T07:23:04Z</time>
      </trkpt>
      <trkpt lat="46.06702" lon="6.76542">
        <ele>1304.1</ele>
        <time>2026-06-26T07:23:05Z</time>
      </trkpt>
      <trkpt lat="46.06702" lon="6.76542">
        <ele>1304.2</ele>
        <time>2026-06-26T07:23:06Z</time>
      </trkpt>
      <trkpt lat="46.06702" lon="6.76543">
        <ele>1304.2</ele>
        <time>2026-06-26T07:23:07Z</time>
      </trkpt>
      <trkpt lat="46.06701" lon="6.76545">
        <ele>1304.3</ele>
        <time>2026-06-26T07:23:08Z</time>
      </trkpt>
      <trkpt lat="46.06701" lon="6.76545">
        <ele>1304.4</ele>
        <time>2026-06-26T07:23:09Z</time>
      </trkpt>
      <trkpt lat="46.06699" lon="6.76545">
        <ele>1304.5</ele>
        <time>2026-06-26T07:23:10Z</time>
      </trkpt>
      <trkpt lat="46.06699" lon="6.76546">
        <ele>1304.6</ele>
        <time>2026-06-26T07:23:11Z</time>
      </trkpt>
      <trkpt lat="46.067" lon="6.76547">
        <ele>1304.7</ele>
        <time>2026-06-26T07:23:12Z</time>
      </trkpt>
      <trkpt lat="46.067" lon="6.76548">
        <ele>1304.8</ele>
        <time>2026-06-26T07:23:13Z</time>
      </trkpt>
      <trkpt lat="46.067" lon="6.76549">
        <ele>1304.9</ele>
        <time>2026-06-26T07:23:14Z</time>
      </trkpt>
      <trkpt lat="46.06699" lon="6.76551">
        <ele>1305</ele>
        <time>2026-06-26T07:23:15Z</time>
      </trkpt>
      <trkpt lat="46.06698" lon="6.76552">
        <ele>1305.2</ele>
        <time>2026-06-26T07:23:16Z</time>
      </trkpt>
      <trkpt lat="46.06697" lon="6.76553">
        <ele>1305.3</ele>
        <time>2026-06-26T07:23:17Z</time>
      </trkpt>
      <trkpt lat="46.06696" lon="6.76554">
        <ele>1305.4</ele>
        <time>2026-06-26T07:23:18Z</time>
      </trkpt>
      <trkpt lat="46.06697" lon="6.76557">
        <ele>1305.4</ele>
        <time>2026-06-26T07:23:19Z</time>
      </trkpt>
      <trkpt lat="46.06694" lon="6.76556">
        <ele>1305.5</ele>
        <time>2026-06-26T07:23:20Z</time>
      </trkpt>
      <trkpt lat="46.06693" lon="6.76557">
        <ele>1305.6</ele>
        <time>2026-06-26T07:23:21Z</time>
      </trkpt>
      <trkpt lat="46.06692" lon="6.76557">
        <ele>1305.7</ele>
        <time>2026-06-26T07:23:22Z</time>
      </trkpt>
      <trkpt lat="46.06692" lon="6.76559">
        <ele>1305.8</ele>
        <time>2026-06-26T07:23:23Z</time>
      </trkpt>
      <trkpt lat="46.06692" lon="6.7656">
        <ele>1305.9</ele>
        <time>2026-06-26T07:23:24Z</time>
      </trkpt>
      <trkpt lat="46.06692" lon="6.7656">
        <ele>1306</ele>
        <time>2026-06-26T07:23:25Z</time>
      </trkpt>
      <trkpt lat="46.06691" lon="6.7656">
        <ele>1306</ele>
        <time>2026-06-26T07:23:26Z</time>
      </trkpt>
      <trkpt lat="46.0669" lon="6.7656">
        <ele>1306.2</ele>
        <time>2026-06-26T07:23:27Z</time>
      </trkpt>
      <trkpt lat="46.0669" lon="6.76561">
        <ele>1306.4</ele>
        <time>2026-06-26T07:23:28Z</time>
      </trkpt>
      <trkpt lat="46.0669" lon="6.76562">
        <ele>1306.7</ele>
        <time>2026-06-26T07:23:29Z</time>
      </trkpt>
      <trkpt lat="46.06689" lon="6.76563">
        <ele>1306.9</ele>
        <time>2026-06-26T07:23:30Z</time>
      </trkpt>
      <trkpt lat="46.06689" lon="6.76564">
        <ele>1307.1</ele>
        <time>2026-06-26T07:23:31Z</time>
      </trkpt>
      <trkpt lat="46.06689" lon="6.76565">
        <ele>1307.2</ele>
        <time>2026-06-26T07:23:32Z</time>
      </trkpt>
      <trkpt lat="46.06688" lon="6.76566">
        <ele>1307.2</ele>
        <time>2026-06-26T07:23:33Z</time>
      </trkpt>
      <trkpt lat="46.06688" lon="6.76568">
        <ele>1307.4</ele>
        <time>2026-06-26T07:23:34Z</time>
      </trkpt>
      <trkpt lat="46.06688" lon="6.76568">
        <ele>1307.5</ele>
        <time>2026-06-26T07:23:35Z</time>
      </trkpt>
      <trkpt lat="46.06688" lon="6.76569">
        <ele>1307.6</ele>
        <time>2026-06-26T07:23:36Z</time>
      </trkpt>
      <trkpt lat="46.06688" lon="6.76571">
        <ele>1307.7</ele>
        <time>2026-06-26T07:23:37Z</time>
      </trkpt>
      <trkpt lat="46.06687" lon="6.76571">
        <ele>1307.8</ele>
        <time>2026-06-26T07:23:38Z</time>
      </trkpt>
      <trkpt lat="46.06687" lon="6.76572">
        <ele>1308</ele>
        <time>2026-06-26T07:23:39Z</time>
      </trkpt>
      <trkpt lat="46.06686" lon="6.76573">
        <ele>1308.1</ele>
        <time>2026-06-26T07:23:40Z</time>
      </trkpt>
      <trkpt lat="46.06686" lon="6.76574">
        <ele>1308.4</ele>
        <time>2026-06-26T07:23:41Z</time>
      </trkpt>
      <trkpt lat="46.06686" lon="6.76575">
        <ele>1308.5</ele>
        <time>2026-06-26T07:23:42Z</time>
      </trkpt>
      <trkpt lat="46.06686" lon="6.76576">
        <ele>1308.7</ele>
        <time>2026-06-26T07:23:43Z</time>
      </trkpt>
      <trkpt lat="46.06685" lon="6.76577">
        <ele>1308.9</ele>
        <time>2026-06-26T07:23:44Z</time>
      </trkpt>
      <trkpt lat="46.06685" lon="6.76577">
        <ele>1309.1</ele>
        <time>2026-06-26T07:23:45Z</time>
      </trkpt>
      <trkpt lat="46.06684" lon="6.76578">
        <ele>1309.2</ele>
        <time>2026-06-26T07:23:46Z</time>
      </trkpt>
      <trkpt lat="46.06684" lon="6.76578">
        <ele>1309.4</ele>
        <time>2026-06-26T07:23:47Z</time>
      </trkpt>
      <trkpt lat="46.06684" lon="6.7658">
        <ele>1309.5</ele>
        <time>2026-06-26T07:23:48Z</time>
      </trkpt>
      <trkpt lat="46.06684" lon="6.76581">
        <ele>1309.6</ele>
        <time>2026-06-26T07:23:49Z</time>
      </trkpt>
      <trkpt lat="46.06683" lon="6.76581">
        <ele>1309.8</ele>
        <time>2026-06-26T07:23:50Z</time>
      </trkpt>
      <trkpt lat="46.06683" lon="6.76582">
        <ele>1309.9</ele>
        <time>2026-06-26T07:23:51Z</time>
      </trkpt>
      <trkpt lat="46.06683" lon="6.76583">
        <ele>1310</ele>
        <time>2026-06-26T07:23:52Z</time>
      </trkpt>
      <trkpt lat="46.06682" lon="6.76585">
        <ele>1310.1</ele>
        <time>2026-06-26T07:23:53Z</time>
      </trkpt>
      <trkpt lat="46.06682" lon="6.76586">
        <ele>1310.3</ele>
        <time>2026-06-26T07:23:54Z</time>
      </trkpt>
      <trkpt lat="46.06682" lon="6.76587">
        <ele>1310.4</ele>
        <time>2026-06-26T07:23:55Z</time>
      </trkpt>
      <trkpt lat="46.06682" lon="6.76589">
        <ele>1310.5</ele>
        <time>2026-06-26T07:23:56Z</time>
      </trkpt>
      <trkpt lat="46.06681" lon="6.76589">
        <ele>1310.7</ele>
        <time>2026-06-26T07:23:57Z</time>
      </trkpt>
      <trkpt lat="46.06681" lon="6.7659">
        <ele>1310.9</ele>
        <time>2026-06-26T07:23:58Z</time>
      </trkpt>
      <trkpt lat="46.06681" lon="6.76591">
        <ele>1311</ele>
        <time>2026-06-26T07:23:59Z</time>
      </trkpt>
      <trkpt lat="46.0668" lon="6.76592">
        <ele>1311.2</ele>
        <time>2026-06-26T07:24:00Z</time>
      </trkpt>
      <trkpt lat="46.0668" lon="6.76593">
        <ele>1311.2</ele>
        <time>2026-06-26T07:24:01Z</time>
      </trkpt>
      <trkpt lat="46.06678" lon="6.76593">
        <ele>1311.3</ele>
        <time>2026-06-26T07:24:02Z</time>
      </trkpt>
      <trkpt lat="46.06677" lon="6.76593">
        <ele>1311.3</ele>
        <time>2026-06-26T07:24:03Z</time>
      </trkpt>
      <trkpt lat="46.06676" lon="6.76593">
        <ele>1311.5</ele>
        <time>2026-06-26T07:24:04Z</time>
      </trkpt>
      <trkpt lat="46.06676" lon="6.76594">
        <ele>1311.6</ele>
        <time>2026-06-26T07:24:05Z</time>
      </trkpt>
      <trkpt lat="46.06675" lon="6.76593">
        <ele>1311.6</ele>
        <time>2026-06-26T07:24:06Z</time>
      </trkpt>
      <trkpt lat="46.06675" lon="6.76593">
        <ele>1311.7</ele>
        <time>2026-06-26T07:24:07Z</time>
      </trkpt>
      <trkpt lat="46.06674" lon="6.76594">
        <ele>1311.9</ele>
        <time>2026-06-26T07:24:08Z</time>
      </trkpt>
      <trkpt lat="46.06674" lon="6.76594">
        <ele>1311.9</ele>
        <time>2026-06-26T07:24:09Z</time>
      </trkpt>
      <trkpt lat="46.06673" lon="6.76594">
        <ele>1312</ele>
        <time>2026-06-26T07:24:10Z</time>
      </trkpt>
      <trkpt lat="46.06672" lon="6.76596">
        <ele>1312.2</ele>
        <time>2026-06-26T07:24:11Z</time>
      </trkpt>
      <trkpt lat="46.06672" lon="6.76596">
        <ele>1312.4</ele>
        <time>2026-06-26T07:24:12Z</time>
      </trkpt>
      <trkpt lat="46.06671" lon="6.76597">
        <ele>1312.5</ele>
        <time>2026-06-26T07:24:13Z</time>
      </trkpt>
      <trkpt lat="46.06669" lon="6.76597">
        <ele>1312.5</ele>
        <time>2026-06-26T07:24:14Z</time>
      </trkpt>
      <trkpt lat="46.06668" lon="6.76598">
        <ele>1312.6</ele>
        <time>2026-06-26T07:24:15Z</time>
      </trkpt>
      <trkpt lat="46.06668" lon="6.766">
        <ele>1312.8</ele>
        <time>2026-06-26T07:24:16Z</time>
      </trkpt>
      <trkpt lat="46.06668" lon="6.766">
        <ele>1312.9</ele>
        <time>2026-06-26T07:24:17Z</time>
      </trkpt>
      <trkpt lat="46.06667" lon="6.76601">
        <ele>1313.1</ele>
        <time>2026-06-26T07:24:18Z</time>
      </trkpt>
      <trkpt lat="46.06667" lon="6.76602">
        <ele>1313.3</ele>
        <time>2026-06-26T07:24:19Z</time>
      </trkpt>
      <trkpt lat="46.06667" lon="6.76603">
        <ele>1313.4</ele>
        <time>2026-06-26T07:24:20Z</time>
      </trkpt>
      <trkpt lat="46.06667" lon="6.76603">
        <ele>1313.5</ele>
        <time>2026-06-26T07:24:21Z</time>
      </trkpt>
      <trkpt lat="46.06667" lon="6.76605">
        <ele>1313.6</ele>
        <time>2026-06-26T07:24:22Z</time>
      </trkpt>
      <trkpt lat="46.06667" lon="6.76606">
        <ele>1313.7</ele>
        <time>2026-06-26T07:24:23Z</time>
      </trkpt>
      <trkpt lat="46.06666" lon="6.76607">
        <ele>1313.8</ele>
        <time>2026-06-26T07:24:24Z</time>
      </trkpt>
      <trkpt lat="46.06666" lon="6.76608">
        <ele>1313.9</ele>
        <time>2026-06-26T07:24:25Z</time>
      </trkpt>
      <trkpt lat="46.06666" lon="6.76609">
        <ele>1314</ele>
        <time>2026-06-26T07:24:26Z</time>
      </trkpt>
      <trkpt lat="46.06665" lon="6.76611">
        <ele>1314.1</ele>
        <time>2026-06-26T07:24:27Z</time>
      </trkpt>
      <trkpt lat="46.06665" lon="6.76611">
        <ele>1314.2</ele>
        <time>2026-06-26T07:24:28Z</time>
      </trkpt>
      <trkpt lat="46.06665" lon="6.76612">
        <ele>1314.3</ele>
        <time>2026-06-26T07:24:29Z</time>
      </trkpt>
      <trkpt lat="46.06664" lon="6.76613">
        <ele>1314.3</ele>
        <time>2026-06-26T07:24:30Z</time>
      </trkpt>
      <trkpt lat="46.06664" lon="6.76613">
        <ele>1314.4</ele>
        <time>2026-06-26T07:24:31Z</time>
      </trkpt>
      <trkpt lat="46.06664" lon="6.76614">
        <ele>1314.5</ele>
        <time>2026-06-26T07:24:32Z</time>
      </trkpt>
      <trkpt lat="46.06663" lon="6.76614">
        <ele>1314.7</ele>
        <time>2026-06-26T07:24:33Z</time>
      </trkpt>
      <trkpt lat="46.06663" lon="6.76614">
        <ele>1314.9</ele>
        <time>2026-06-26T07:24:34Z</time>
      </trkpt>
      <trkpt lat="46.06662" lon="6.76614">
        <ele>1315</ele>
        <time>2026-06-26T07:24:35Z</time>
      </trkpt>
      <trkpt lat="46.06662" lon="6.76615">
        <ele>1315.1</ele>
        <time>2026-06-26T07:24:36Z</time>
      </trkpt>
      <trkpt lat="46.06661" lon="6.76615">
        <ele>1315.3</ele>
        <time>2026-06-26T07:24:37Z</time>
      </trkpt>
      <trkpt lat="46.0666" lon="6.76615">
        <ele>1315.3</ele>
        <time>2026-06-26T07:24:38Z</time>
      </trkpt>
      <trkpt lat="46.0666" lon="6.76616">
        <ele>1315.3</ele>
        <time>2026-06-26T07:24:39Z</time>
      </trkpt>
      <trkpt lat="46.06659" lon="6.76617">
        <ele>1315.5</ele>
        <time>2026-06-26T07:24:40Z</time>
      </trkpt>
      <trkpt lat="46.06658" lon="6.76618">
        <ele>1315.6</ele>
        <time>2026-06-26T07:24:41Z</time>
      </trkpt>
      <trkpt lat="46.06658" lon="6.76619">
        <ele>1315.8</ele>
        <time>2026-06-26T07:24:42Z</time>
      </trkpt>
      <trkpt lat="46.06658" lon="6.7662">
        <ele>1316</ele>
        <time>2026-06-26T07:24:43Z</time>
      </trkpt>
      <trkpt lat="46.06658" lon="6.76621">
        <ele>1316.3</ele>
        <time>2026-06-26T07:24:44Z</time>
      </trkpt>
      <trkpt lat="46.06657" lon="6.76621">
        <ele>1316.3</ele>
        <time>2026-06-26T07:24:45Z</time>
      </trkpt>
      <trkpt lat="46.06657" lon="6.76621">
        <ele>1316.5</ele>
        <time>2026-06-26T07:24:46Z</time>
      </trkpt>
      <trkpt lat="46.06657" lon="6.76622">
        <ele>1316.6</ele>
        <time>2026-06-26T07:24:47Z</time>
      </trkpt>
      <trkpt lat="46.06656" lon="6.76622">
        <ele>1316.7</ele>
        <time>2026-06-26T07:24:48Z</time>
      </trkpt>
      <trkpt lat="46.06656" lon="6.76622">
        <ele>1316.8</ele>
        <time>2026-06-26T07:24:49Z</time>
      </trkpt>
      <trkpt lat="46.06656" lon="6.76624">
        <ele>1316.9</ele>
        <time>2026-06-26T07:24:50Z</time>
      </trkpt>
      <trkpt lat="46.06656" lon="6.76625">
        <ele>1316.9</ele>
        <time>2026-06-26T07:24:51Z</time>
      </trkpt>
      <trkpt lat="46.06656" lon="6.76626">
        <ele>1317</ele>
        <time>2026-06-26T07:24:52Z</time>
      </trkpt>
      <trkpt lat="46.06655" lon="6.76627">
        <ele>1317.4</ele>
        <time>2026-06-26T07:24:53Z</time>
      </trkpt>
      <trkpt lat="46.06654" lon="6.76627">
        <ele>1317.6</ele>
        <time>2026-06-26T07:24:54Z</time>
      </trkpt>
      <trkpt lat="46.06653" lon="6.76627">
        <ele>1317.7</ele>
        <time>2026-06-26T07:24:55Z</time>
      </trkpt>
      <trkpt lat="46.06652" lon="6.76628">
        <ele>1317.9</ele>
        <time>2026-06-26T07:24:56Z</time>
      </trkpt>
      <trkpt lat="46.06651" lon="6.76629">
        <ele>1318.1</ele>
        <time>2026-06-26T07:24:57Z</time>
      </trkpt>
      <trkpt lat="46.06651" lon="6.76631">
        <ele>1318.2</ele>
        <time>2026-06-26T07:24:58Z</time>
      </trkpt>
      <trkpt lat="46.0665" lon="6.76632">
        <ele>1318.4</ele>
        <time>2026-06-26T07:24:59Z</time>
      </trkpt>
      <trkpt lat="46.0665" lon="6.76633">
        <ele>1318.5</ele>
        <time>2026-06-26T07:25:00Z</time>
      </trkpt>
      <trkpt lat="46.0665" lon="6.76634">
        <ele>1318.7</ele>
        <time>2026-06-26T07:25:01Z</time>
      </trkpt>
      <trkpt lat="46.0665" lon="6.76634">
        <ele>1318.8</ele>
        <time>2026-06-26T07:25:02Z</time>
      </trkpt>
      <trkpt lat="46.06649" lon="6.76635">
        <ele>1318.9</ele>
        <time>2026-06-26T07:25:03Z</time>
      </trkpt>
      <trkpt lat="46.06648" lon="6.76636">
        <ele>1319</ele>
        <time>2026-06-26T07:25:04Z</time>
      </trkpt>
      <trkpt lat="46.06648" lon="6.76637">
        <ele>1319.1</ele>
        <time>2026-06-26T07:25:05Z</time>
      </trkpt>
      <trkpt lat="46.06648" lon="6.76638">
        <ele>1319.3</ele>
        <time>2026-06-26T07:25:06Z</time>
      </trkpt>
      <trkpt lat="46.06648" lon="6.76639">
        <ele>1319.4</ele>
        <time>2026-06-26T07:25:07Z</time>
      </trkpt>
      <trkpt lat="46.06647" lon="6.76641">
        <ele>1319.5</ele>
        <time>2026-06-26T07:25:08Z</time>
      </trkpt>
      <trkpt lat="46.06646" lon="6.76642">
        <ele>1319.6</ele>
        <time>2026-06-26T07:25:09Z</time>
      </trkpt>
      <trkpt lat="46.06645" lon="6.76641">
        <ele>1319.6</ele>
        <time>2026-06-26T07:25:10Z</time>
      </trkpt>
      <trkpt lat="46.06645" lon="6.76642">
        <ele>1319.8</ele>
        <time>2026-06-26T07:25:11Z</time>
      </trkpt>
      <trkpt lat="46.06645" lon="6.76643">
        <ele>1319.9</ele>
        <time>2026-06-26T07:25:12Z</time>
      </trkpt>
      <trkpt lat="46.06645" lon="6.76643">
        <ele>1320.1</ele>
        <time>2026-06-26T07:25:13Z</time>
      </trkpt>
      <trkpt lat="46.06645" lon="6.76644">
        <ele>1320.4</ele>
        <time>2026-06-26T07:25:14Z</time>
      </trkpt>
      <trkpt lat="46.06645" lon="6.76645">
        <ele>1320.6</ele>
        <time>2026-06-26T07:25:15Z</time>
      </trkpt>
      <trkpt lat="46.06645" lon="6.76646">
        <ele>1320.7</ele>
        <time>2026-06-26T07:25:16Z</time>
      </trkpt>
      <trkpt lat="46.06645" lon="6.76647">
        <ele>1320.8</ele>
        <time>2026-06-26T07:25:17Z</time>
      </trkpt>
      <trkpt lat="46.06645" lon="6.76648">
        <ele>1320.9</ele>
        <time>2026-06-26T07:25:18Z</time>
      </trkpt>
      <trkpt lat="46.06644" lon="6.76649">
        <ele>1321</ele>
        <time>2026-06-26T07:25:19Z</time>
      </trkpt>
      <trkpt lat="46.06643" lon="6.7665">
        <ele>1321.2</ele>
        <time>2026-06-26T07:25:20Z</time>
      </trkpt>
      <trkpt lat="46.06641" lon="6.76651">
        <ele>1321.3</ele>
        <time>2026-06-26T07:25:21Z</time>
      </trkpt>
      <trkpt lat="46.0664" lon="6.76652">
        <ele>1321.5</ele>
        <time>2026-06-26T07:25:22Z</time>
      </trkpt>
      <trkpt lat="46.0664" lon="6.76653">
        <ele>1321.6</ele>
        <time>2026-06-26T07:25:23Z</time>
      </trkpt>
      <trkpt lat="46.06639" lon="6.76654">
        <ele>1321.8</ele>
        <time>2026-06-26T07:25:24Z</time>
      </trkpt>
      <trkpt lat="46.06637" lon="6.76655">
        <ele>1321.9</ele>
        <time>2026-06-26T07:25:25Z</time>
      </trkpt>
      <trkpt lat="46.06637" lon="6.76657">
        <ele>1322.1</ele>
        <time>2026-06-26T07:25:26Z</time>
      </trkpt>
      <trkpt lat="46.06637" lon="6.76659">
        <ele>1322.2</ele>
        <time>2026-06-26T07:25:27Z</time>
      </trkpt>
      <trkpt lat="46.06636" lon="6.7666">
        <ele>1322.3</ele>
        <time>2026-06-26T07:25:28Z</time>
      </trkpt>
      <trkpt lat="46.06635" lon="6.76663">
        <ele>1322.3</ele>
        <time>2026-06-26T07:25:29Z</time>
      </trkpt>
      <trkpt lat="46.06634" lon="6.76663">
        <ele>1322.4</ele>
        <time>2026-06-26T07:25:30Z</time>
      </trkpt>
      <trkpt lat="46.06634" lon="6.76665">
        <ele>1322.5</ele>
        <time>2026-06-26T07:25:31Z</time>
      </trkpt>
      <trkpt lat="46.06634" lon="6.76666">
        <ele>1322.6</ele>
        <time>2026-06-26T07:25:32Z</time>
      </trkpt>
      <trkpt lat="46.06633" lon="6.76667">
        <ele>1322.8</ele>
        <time>2026-06-26T07:25:33Z</time>
      </trkpt>
      <trkpt lat="46.06633" lon="6.76667">
        <ele>1322.8</ele>
        <time>2026-06-26T07:25:34Z</time>
      </trkpt>
      <trkpt lat="46.06632" lon="6.76667">
        <ele>1322.9</ele>
        <time>2026-06-26T07:25:35Z</time>
      </trkpt>
      <trkpt lat="46.06632" lon="6.76669">
        <ele>1323</ele>
        <time>2026-06-26T07:25:36Z</time>
      </trkpt>
      <trkpt lat="46.06632" lon="6.76669">
        <ele>1323</ele>
        <time>2026-06-26T07:25:37Z</time>
      </trkpt>
      <trkpt lat="46.06631" lon="6.7667">
        <ele>1323</ele>
        <time>2026-06-26T07:25:38Z</time>
      </trkpt>
      <trkpt lat="46.06631" lon="6.76671">
        <ele>1323.1</ele>
        <time>2026-06-26T07:25:39Z</time>
      </trkpt>
      <trkpt lat="46.06631" lon="6.76672">
        <ele>1323.3</ele>
        <time>2026-06-26T07:25:40Z</time>
      </trkpt>
      <trkpt lat="46.06631" lon="6.76673">
        <ele>1323.4</ele>
        <time>2026-06-26T07:25:41Z</time>
      </trkpt>
      <trkpt lat="46.0663" lon="6.76674">
        <ele>1323.6</ele>
        <time>2026-06-26T07:25:42Z</time>
      </trkpt>
      <trkpt lat="46.06629" lon="6.76675">
        <ele>1323.7</ele>
        <time>2026-06-26T07:25:43Z</time>
      </trkpt>
      <trkpt lat="46.06629" lon="6.76675">
        <ele>1323.9</ele>
        <time>2026-06-26T07:25:44Z</time>
      </trkpt>
      <trkpt lat="46.06628" lon="6.76677">
        <ele>1324</ele>
        <time>2026-06-26T07:25:45Z</time>
      </trkpt>
      <trkpt lat="46.06627" lon="6.76678">
        <ele>1324.1</ele>
        <time>2026-06-26T07:25:46Z</time>
      </trkpt>
      <trkpt lat="46.06625" lon="6.76677">
        <ele>1324.2</ele>
        <time>2026-06-26T07:25:47Z</time>
      </trkpt>
      <trkpt lat="46.06624" lon="6.76676">
        <ele>1324.4</ele>
        <time>2026-06-26T07:25:48Z</time>
      </trkpt>
      <trkpt lat="46.06624" lon="6.76679">
        <ele>1324.6</ele>
        <time>2026-06-26T07:25:49Z</time>
      </trkpt>
      <trkpt lat="46.06624" lon="6.7668">
        <ele>1324.7</ele>
        <time>2026-06-26T07:25:50Z</time>
      </trkpt>
      <trkpt lat="46.06623" lon="6.7668">
        <ele>1324.8</ele>
        <time>2026-06-26T07:25:51Z</time>
      </trkpt>
      <trkpt lat="46.06623" lon="6.76681">
        <ele>1324.9</ele>
        <time>2026-06-26T07:25:52Z</time>
      </trkpt>
      <trkpt lat="46.06623" lon="6.76681">
        <ele>1325.1</ele>
        <time>2026-06-26T07:25:53Z</time>
      </trkpt>
      <trkpt lat="46.06623" lon="6.76682">
        <ele>1325.2</ele>
        <time>2026-06-26T07:25:54Z</time>
      </trkpt>
      <trkpt lat="46.06623" lon="6.76686">
        <ele>1325.3</ele>
        <time>2026-06-26T07:25:55Z</time>
      </trkpt>
      <trkpt lat="46.06623" lon="6.76687">
        <ele>1325.4</ele>
        <time>2026-06-26T07:25:56Z</time>
      </trkpt>
      <trkpt lat="46.06623" lon="6.76688">
        <ele>1325.5</ele>
        <time>2026-06-26T07:25:57Z</time>
      </trkpt>
      <trkpt lat="46.06622" lon="6.76689">
        <ele>1325.6</ele>
        <time>2026-06-26T07:25:58Z</time>
      </trkpt>
      <trkpt lat="46.06622" lon="6.76693">
        <ele>1325.7</ele>
        <time>2026-06-26T07:25:59Z</time>
      </trkpt>
      <trkpt lat="46.06622" lon="6.76693">
        <ele>1325.8</ele>
        <time>2026-06-26T07:26:00Z</time>
      </trkpt>
      <trkpt lat="46.06621" lon="6.76693">
        <ele>1326</ele>
        <time>2026-06-26T07:26:01Z</time>
      </trkpt>
      <trkpt lat="46.0662" lon="6.76694">
        <ele>1326.2</ele>
        <time>2026-06-26T07:26:02Z</time>
      </trkpt>
      <trkpt lat="46.06619" lon="6.76694">
        <ele>1326.3</ele>
        <time>2026-06-26T07:26:03Z</time>
      </trkpt>
      <trkpt lat="46.06618" lon="6.76695">
        <ele>1326.4</ele>
        <time>2026-06-26T07:26:04Z</time>
      </trkpt>
      <trkpt lat="46.06618" lon="6.76696">
        <ele>1326.5</ele>
        <time>2026-06-26T07:26:05Z</time>
      </trkpt>
      <trkpt lat="46.06618" lon="6.76697">
        <ele>1326.6</ele>
        <time>2026-06-26T07:26:06Z</time>
      </trkpt>
      <trkpt lat="46.06617" lon="6.76697">
        <ele>1326.7</ele>
        <time>2026-06-26T07:26:07Z</time>
      </trkpt>
      <trkpt lat="46.06615" lon="6.76696">
        <ele>1326.8</ele>
        <time>2026-06-26T07:26:08Z</time>
      </trkpt>
      <trkpt lat="46.06614" lon="6.76697">
        <ele>1326.9</ele>
        <time>2026-06-26T07:26:09Z</time>
      </trkpt>
      <trkpt lat="46.06614" lon="6.76698">
        <ele>1327</ele>
        <time>2026-06-26T07:26:10Z</time>
      </trkpt>
      <trkpt lat="46.06614" lon="6.76699">
        <ele>1327.1</ele>
        <time>2026-06-26T07:26:11Z</time>
      </trkpt>
      <trkpt lat="46.06612" lon="6.76699">
        <ele>1327.2</ele>
        <time>2026-06-26T07:26:12Z</time>
      </trkpt>
      <trkpt lat="46.06611" lon="6.76699">
        <ele>1327.4</ele>
        <time>2026-06-26T07:26:13Z</time>
      </trkpt>
      <trkpt lat="46.0661" lon="6.767">
        <ele>1327.5</ele>
        <time>2026-06-26T07:26:14Z</time>
      </trkpt>
      <trkpt lat="46.0661" lon="6.767">
        <ele>1327.7</ele>
        <time>2026-06-26T07:26:15Z</time>
      </trkpt>
      <trkpt lat="46.06608" lon="6.767">
        <ele>1327.8</ele>
        <time>2026-06-26T07:26:16Z</time>
      </trkpt>
      <trkpt lat="46.06608" lon="6.767">
        <ele>1327.9</ele>
        <time>2026-06-26T07:26:17Z</time>
      </trkpt>
      <trkpt lat="46.06607" lon="6.767">
        <ele>1328</ele>
        <time>2026-06-26T07:26:18Z</time>
      </trkpt>
      <trkpt lat="46.06606" lon="6.76701">
        <ele>1328</ele>
        <time>2026-06-26T07:26:19Z</time>
      </trkpt>
      <trkpt lat="46.06606" lon="6.76701">
        <ele>1328.2</ele>
        <time>2026-06-26T07:26:20Z</time>
      </trkpt>
      <trkpt lat="46.06605" lon="6.76701">
        <ele>1328.3</ele>
        <time>2026-06-26T07:26:21Z</time>
      </trkpt>
      <trkpt lat="46.06605" lon="6.76702">
        <ele>1328.5</ele>
        <time>2026-06-26T07:26:22Z</time>
      </trkpt>
      <trkpt lat="46.06604" lon="6.76703">
        <ele>1328.6</ele>
        <time>2026-06-26T07:26:23Z</time>
      </trkpt>
      <trkpt lat="46.06604" lon="6.76704">
        <ele>1328.8</ele>
        <time>2026-06-26T07:26:24Z</time>
      </trkpt>
      <trkpt lat="46.06604" lon="6.76704">
        <ele>1328.9</ele>
        <time>2026-06-26T07:26:25Z</time>
      </trkpt>
      <trkpt lat="46.06604" lon="6.76706">
        <ele>1329.1</ele>
        <time>2026-06-26T07:26:26Z</time>
      </trkpt>
      <trkpt lat="46.06604" lon="6.76707">
        <ele>1329.3</ele>
        <time>2026-06-26T07:26:27Z</time>
      </trkpt>
      <trkpt lat="46.06603" lon="6.76708">
        <ele>1329.4</ele>
        <time>2026-06-26T07:26:28Z</time>
      </trkpt>
      <trkpt lat="46.06603" lon="6.76708">
        <ele>1329.6</ele>
        <time>2026-06-26T07:26:29Z</time>
      </trkpt>
      <trkpt lat="46.06602" lon="6.76708">
        <ele>1329.8</ele>
        <time>2026-06-26T07:26:30Z</time>
      </trkpt>
      <trkpt lat="46.06601" lon="6.76708">
        <ele>1329.9</ele>
        <time>2026-06-26T07:26:31Z</time>
      </trkpt>
      <trkpt lat="46.066" lon="6.76709">
        <ele>1330.1</ele>
        <time>2026-06-26T07:26:32Z</time>
      </trkpt>
      <trkpt lat="46.06599" lon="6.76709">
        <ele>1330.3</ele>
        <time>2026-06-26T07:26:33Z</time>
      </trkpt>
      <trkpt lat="46.06599" lon="6.7671">
        <ele>1330.5</ele>
        <time>2026-06-26T07:26:34Z</time>
      </trkpt>
      <trkpt lat="46.06597" lon="6.7671">
        <ele>1330.7</ele>
        <time>2026-06-26T07:26:35Z</time>
      </trkpt>
      <trkpt lat="46.06596" lon="6.76712">
        <ele>1330.9</ele>
        <time>2026-06-26T07:26:36Z</time>
      </trkpt>
      <trkpt lat="46.06595" lon="6.76713">
        <ele>1331</ele>
        <time>2026-06-26T07:26:37Z</time>
      </trkpt>
      <trkpt lat="46.06595" lon="6.76714">
        <ele>1331.1</ele>
        <time>2026-06-26T07:26:38Z</time>
      </trkpt>
      <trkpt lat="46.06594" lon="6.76714">
        <ele>1331.3</ele>
        <time>2026-06-26T07:26:39Z</time>
      </trkpt>
      <trkpt lat="46.06593" lon="6.76715">
        <ele>1331.4</ele>
        <time>2026-06-26T07:26:40Z</time>
      </trkpt>
      <trkpt lat="46.06592" lon="6.76716">
        <ele>1331.5</ele>
        <time>2026-06-26T07:26:41Z</time>
      </trkpt>
      <trkpt lat="46.06591" lon="6.76716">
        <ele>1331.6</ele>
        <time>2026-06-26T07:26:42Z</time>
      </trkpt>
      <trkpt lat="46.06591" lon="6.76716">
        <ele>1331.7</ele>
        <time>2026-06-26T07:26:43Z</time>
      </trkpt>
      <trkpt lat="46.0659" lon="6.76717">
        <ele>1331.8</ele>
        <time>2026-06-26T07:26:44Z</time>
      </trkpt>
      <trkpt lat="46.06589" lon="6.76718">
        <ele>1332</ele>
        <time>2026-06-26T07:26:45Z</time>
      </trkpt>
      <trkpt lat="46.06589" lon="6.76718">
        <ele>1332.2</ele>
        <time>2026-06-26T07:26:46Z</time>
      </trkpt>
      <trkpt lat="46.06589" lon="6.76719">
        <ele>1332.4</ele>
        <time>2026-06-26T07:26:47Z</time>
      </trkpt>
      <trkpt lat="46.06588" lon="6.76719">
        <ele>1332.5</ele>
        <time>2026-06-26T07:26:48Z</time>
      </trkpt>
      <trkpt lat="46.06588" lon="6.7672">
        <ele>1332.7</ele>
        <time>2026-06-26T07:26:49Z</time>
      </trkpt>
      <trkpt lat="46.06588" lon="6.7672">
        <ele>1332.8</ele>
        <time>2026-06-26T07:26:50Z</time>
      </trkpt>
      <trkpt lat="46.06588" lon="6.76721">
        <ele>1332.9</ele>
        <time>2026-06-26T07:26:51Z</time>
      </trkpt>
      <trkpt lat="46.06587" lon="6.76723">
        <ele>1333</ele>
        <time>2026-06-26T07:26:52Z</time>
      </trkpt>
      <trkpt lat="46.06587" lon="6.76725">
        <ele>1333.3</ele>
        <time>2026-06-26T07:26:53Z</time>
      </trkpt>
      <trkpt lat="46.06587" lon="6.76727">
        <ele>1333.5</ele>
        <time>2026-06-26T07:26:54Z</time>
      </trkpt>
      <trkpt lat="46.06586" lon="6.76728">
        <ele>1333.6</ele>
        <time>2026-06-26T07:26:55Z</time>
      </trkpt>
      <trkpt lat="46.06585" lon="6.7673">
        <ele>1333.7</ele>
        <time>2026-06-26T07:26:56Z</time>
      </trkpt>
      <trkpt lat="46.06585" lon="6.76731">
        <ele>1333.8</ele>
        <time>2026-06-26T07:26:57Z</time>
      </trkpt>
      <trkpt lat="46.06584" lon="6.76732">
        <ele>1333.9</ele>
        <time>2026-06-26T07:26:58Z</time>
      </trkpt>
      <trkpt lat="46.06583" lon="6.76733">
        <ele>1334</ele>
        <time>2026-06-26T07:26:59Z</time>
      </trkpt>
      <trkpt lat="46.06583" lon="6.76734">
        <ele>1334</ele>
        <time>2026-06-26T07:27:00Z</time>
      </trkpt>
      <trkpt lat="46.06583" lon="6.76734">
        <ele>1334.1</ele>
        <time>2026-06-26T07:27:01Z</time>
      </trkpt>
      <trkpt lat="46.06582" lon="6.76736">
        <ele>1334.2</ele>
        <time>2026-06-26T07:27:02Z</time>
      </trkpt>
      <trkpt lat="46.06582" lon="6.76737">
        <ele>1334.3</ele>
        <time>2026-06-26T07:27:03Z</time>
      </trkpt>
      <trkpt lat="46.06581" lon="6.76737">
        <ele>1334.3</ele>
        <time>2026-06-26T07:27:04Z</time>
      </trkpt>
      <trkpt lat="46.0658" lon="6.76738">
        <ele>1334.4</ele>
        <time>2026-06-26T07:27:05Z</time>
      </trkpt>
      <trkpt lat="46.0658" lon="6.7674">
        <ele>1334.6</ele>
        <time>2026-06-26T07:27:06Z</time>
      </trkpt>
      <trkpt lat="46.06579" lon="6.76741">
        <ele>1334.7</ele>
        <time>2026-06-26T07:27:07Z</time>
      </trkpt>
      <trkpt lat="46.06578" lon="6.76742">
        <ele>1334.8</ele>
        <time>2026-06-26T07:27:08Z</time>
      </trkpt>
      <trkpt lat="46.06577" lon="6.76743">
        <ele>1334.9</ele>
        <time>2026-06-26T07:27:09Z</time>
      </trkpt>
      <trkpt lat="46.06576" lon="6.76743">
        <ele>1335</ele>
        <time>2026-06-26T07:27:10Z</time>
      </trkpt>
      <trkpt lat="46.06575" lon="6.76744">
        <ele>1335.1</ele>
        <time>2026-06-26T07:27:11Z</time>
      </trkpt>
      <trkpt lat="46.06575" lon="6.76744">
        <ele>1335.2</ele>
        <time>2026-06-26T07:27:12Z</time>
      </trkpt>
      <trkpt lat="46.06575" lon="6.76745">
        <ele>1335.3</ele>
        <time>2026-06-26T07:27:13Z</time>
      </trkpt>
      <trkpt lat="46.06574" lon="6.76746">
        <ele>1335.4</ele>
        <time>2026-06-26T07:27:14Z</time>
      </trkpt>
      <trkpt lat="46.06573" lon="6.76746">
        <ele>1335.5</ele>
        <time>2026-06-26T07:27:15Z</time>
      </trkpt>
      <trkpt lat="46.06572" lon="6.76746">
        <ele>1335.6</ele>
        <time>2026-06-26T07:27:16Z</time>
      </trkpt>
      <trkpt lat="46.06572" lon="6.76747">
        <ele>1335.8</ele>
        <time>2026-06-26T07:27:17Z</time>
      </trkpt>
      <trkpt lat="46.06571" lon="6.76748">
        <ele>1335.9</ele>
        <time>2026-06-26T07:27:18Z</time>
      </trkpt>
      <trkpt lat="46.06571" lon="6.76749">
        <ele>1336.1</ele>
        <time>2026-06-26T07:27:19Z</time>
      </trkpt>
      <trkpt lat="46.06571" lon="6.76751">
        <ele>1336.3</ele>
        <time>2026-06-26T07:27:20Z</time>
      </trkpt>
      <trkpt lat="46.06571" lon="6.76751">
        <ele>1336.4</ele>
        <time>2026-06-26T07:27:21Z</time>
      </trkpt>
      <trkpt lat="46.06569" lon="6.76752">
        <ele>1336.5</ele>
        <time>2026-06-26T07:27:22Z</time>
      </trkpt>
      <trkpt lat="46.06568" lon="6.76753">
        <ele>1336.6</ele>
        <time>2026-06-26T07:27:23Z</time>
      </trkpt>
      <trkpt lat="46.06566" lon="6.76753">
        <ele>1336.8</ele>
        <time>2026-06-26T07:27:24Z</time>
      </trkpt>
      <trkpt lat="46.06566" lon="6.76753">
        <ele>1336.9</ele>
        <time>2026-06-26T07:27:25Z</time>
      </trkpt>
      <trkpt lat="46.06565" lon="6.76754">
        <ele>1337</ele>
        <time>2026-06-26T07:27:26Z</time>
      </trkpt>
      <trkpt lat="46.06565" lon="6.76755">
        <ele>1337.2</ele>
        <time>2026-06-26T07:27:27Z</time>
      </trkpt>
      <trkpt lat="46.06564" lon="6.76756">
        <ele>1337.3</ele>
        <time>2026-06-26T07:27:28Z</time>
      </trkpt>
      <trkpt lat="46.06564" lon="6.76757">
        <ele>1337.4</ele>
        <time>2026-06-26T07:27:29Z</time>
      </trkpt>
      <trkpt lat="46.06563" lon="6.76757">
        <ele>1337.5</ele>
        <time>2026-06-26T07:27:30Z</time>
      </trkpt>
      <trkpt lat="46.06562" lon="6.76756">
        <ele>1337.6</ele>
        <time>2026-06-26T07:27:31Z</time>
      </trkpt>
      <trkpt lat="46.06561" lon="6.76757">
        <ele>1337.7</ele>
        <time>2026-06-26T07:27:32Z</time>
      </trkpt>
      <trkpt lat="46.0656" lon="6.76758">
        <ele>1337.8</ele>
        <time>2026-06-26T07:27:33Z</time>
      </trkpt>
      <trkpt lat="46.0656" lon="6.7676">
        <ele>1338</ele>
        <time>2026-06-26T07:27:34Z</time>
      </trkpt>
      <trkpt lat="46.0656" lon="6.76763">
        <ele>1338.2</ele>
        <time>2026-06-26T07:27:35Z</time>
      </trkpt>
      <trkpt lat="46.0656" lon="6.76765">
        <ele>1338.3</ele>
        <time>2026-06-26T07:27:36Z</time>
      </trkpt>
      <trkpt lat="46.06561" lon="6.76768">
        <ele>1338.4</ele>
        <time>2026-06-26T07:27:37Z</time>
      </trkpt>
      <trkpt lat="46.06561" lon="6.76771">
        <ele>1338.5</ele>
        <time>2026-06-26T07:27:38Z</time>
      </trkpt>
      <trkpt lat="46.06561" lon="6.76773">
        <ele>1338.6</ele>
        <time>2026-06-26T07:27:39Z</time>
      </trkpt>
      <trkpt lat="46.06561" lon="6.76774">
        <ele>1338.7</ele>
        <time>2026-06-26T07:27:40Z</time>
      </trkpt>
      <trkpt lat="46.06561" lon="6.76775">
        <ele>1338.9</ele>
        <time>2026-06-26T07:27:41Z</time>
      </trkpt>
      <trkpt lat="46.06561" lon="6.76777">
        <ele>1339.1</ele>
        <time>2026-06-26T07:27:42Z</time>
      </trkpt>
      <trkpt lat="46.06561" lon="6.76779">
        <ele>1339.2</ele>
        <time>2026-06-26T07:27:43Z</time>
      </trkpt>
      <trkpt lat="46.06561" lon="6.7678">
        <ele>1339.4</ele>
        <time>2026-06-26T07:27:44Z</time>
      </trkpt>
      <trkpt lat="46.06562" lon="6.76783">
        <ele>1339.5</ele>
        <time>2026-06-26T07:27:45Z</time>
      </trkpt>
      <trkpt lat="46.06561" lon="6.76784">
        <ele>1339.7</ele>
        <time>2026-06-26T07:27:46Z</time>
      </trkpt>
      <trkpt lat="46.06561" lon="6.76786">
        <ele>1339.8</ele>
        <time>2026-06-26T07:27:47Z</time>
      </trkpt>
      <trkpt lat="46.06561" lon="6.76788">
        <ele>1340</ele>
        <time>2026-06-26T07:27:48Z</time>
      </trkpt>
      <trkpt lat="46.06561" lon="6.76788">
        <ele>1340.1</ele>
        <time>2026-06-26T07:27:49Z</time>
      </trkpt>
      <trkpt lat="46.0656" lon="6.76789">
        <ele>1340.2</ele>
        <time>2026-06-26T07:27:50Z</time>
      </trkpt>
      <trkpt lat="46.06559" lon="6.76791">
        <ele>1340.3</ele>
        <time>2026-06-26T07:27:51Z</time>
      </trkpt>
      <trkpt lat="46.06558" lon="6.76792">
        <ele>1340.5</ele>
        <time>2026-06-26T07:27:52Z</time>
      </trkpt>
      <trkpt lat="46.06558" lon="6.76793">
        <ele>1340.6</ele>
        <time>2026-06-26T07:27:53Z</time>
      </trkpt>
      <trkpt lat="46.06558" lon="6.76794">
        <ele>1340.7</ele>
        <time>2026-06-26T07:27:54Z</time>
      </trkpt>
      <trkpt lat="46.06558" lon="6.76795">
        <ele>1340.8</ele>
        <time>2026-06-26T07:27:55Z</time>
      </trkpt>
      <trkpt lat="46.06558" lon="6.76797">
        <ele>1340.9</ele>
        <time>2026-06-26T07:27:56Z</time>
      </trkpt>
      <trkpt lat="46.06557" lon="6.76797">
        <ele>1341</ele>
        <time>2026-06-26T07:27:57Z</time>
      </trkpt>
      <trkpt lat="46.06557" lon="6.76797">
        <ele>1341.1</ele>
        <time>2026-06-26T07:27:58Z</time>
      </trkpt>
      <trkpt lat="46.06556" lon="6.76798">
        <ele>1341.2</ele>
        <time>2026-06-26T07:27:59Z</time>
      </trkpt>
      <trkpt lat="46.06555" lon="6.76799">
        <ele>1341.4</ele>
        <time>2026-06-26T07:28:00Z</time>
      </trkpt>
      <trkpt lat="46.06555" lon="6.76801">
        <ele>1341.6</ele>
        <time>2026-06-26T07:28:01Z</time>
      </trkpt>
      <trkpt lat="46.06555" lon="6.76802">
        <ele>1341.7</ele>
        <time>2026-06-26T07:28:02Z</time>
      </trkpt>
      <trkpt lat="46.06555" lon="6.76802">
        <ele>1341.8</ele>
        <time>2026-06-26T07:28:03Z</time>
      </trkpt>
      <trkpt lat="46.06555" lon="6.76803">
        <ele>1341.9</ele>
        <time>2026-06-26T07:28:04Z</time>
      </trkpt>
      <trkpt lat="46.06554" lon="6.76803">
        <ele>1342</ele>
        <time>2026-06-26T07:28:05Z</time>
      </trkpt>
      <trkpt lat="46.06554" lon="6.76804">
        <ele>1342.2</ele>
        <time>2026-06-26T07:28:06Z</time>
      </trkpt>
      <trkpt lat="46.06553" lon="6.76804">
        <ele>1342.3</ele>
        <time>2026-06-26T07:28:07Z</time>
      </trkpt>
      <trkpt lat="46.06553" lon="6.76805">
        <ele>1342.4</ele>
        <time>2026-06-26T07:28:08Z</time>
      </trkpt>
      <trkpt lat="46.06552" lon="6.76806">
        <ele>1342.5</ele>
        <time>2026-06-26T07:28:09Z</time>
      </trkpt>
      <trkpt lat="46.06552" lon="6.76807">
        <ele>1342.8</ele>
        <time>2026-06-26T07:28:10Z</time>
      </trkpt>
      <trkpt lat="46.06551" lon="6.76808">
        <ele>1343</ele>
        <time>2026-06-26T07:28:11Z</time>
      </trkpt>
      <trkpt lat="46.0655" lon="6.76809">
        <ele>1343.1</ele>
        <time>2026-06-26T07:28:12Z</time>
      </trkpt>
      <trkpt lat="46.06549" lon="6.7681">
        <ele>1343.2</ele>
        <time>2026-06-26T07:28:13Z</time>
      </trkpt>
      <trkpt lat="46.0655" lon="6.76812">
        <ele>1343.3</ele>
        <time>2026-06-26T07:28:14Z</time>
      </trkpt>
      <trkpt lat="46.0655" lon="6.76813">
        <ele>1343.3</ele>
        <time>2026-06-26T07:28:15Z</time>
      </trkpt>
      <trkpt lat="46.0655" lon="6.76815">
        <ele>1343.4</ele>
        <time>2026-06-26T07:28:16Z</time>
      </trkpt>
      <trkpt lat="46.0655" lon="6.76816">
        <ele>1343.5</ele>
        <time>2026-06-26T07:28:17Z</time>
      </trkpt>
      <trkpt lat="46.0655" lon="6.76816">
        <ele>1343.6</ele>
        <time>2026-06-26T07:28:18Z</time>
      </trkpt>
      <trkpt lat="46.0655" lon="6.76817">
        <ele>1343.7</ele>
        <time>2026-06-26T07:28:19Z</time>
      </trkpt>
      <trkpt lat="46.0655" lon="6.76817">
        <ele>1343.8</ele>
        <time>2026-06-26T07:28:20Z</time>
      </trkpt>
      <trkpt lat="46.0655" lon="6.76818">
        <ele>1343.9</ele>
        <time>2026-06-26T07:28:21Z</time>
      </trkpt>
      <trkpt lat="46.0655" lon="6.76821">
        <ele>1344</ele>
        <time>2026-06-26T07:28:22Z</time>
      </trkpt>
      <trkpt lat="46.0655" lon="6.76823">
        <ele>1344.1</ele>
        <time>2026-06-26T07:28:23Z</time>
      </trkpt>
      <trkpt lat="46.0655" lon="6.76825">
        <ele>1344.3</ele>
        <time>2026-06-26T07:28:24Z</time>
      </trkpt>
      <trkpt lat="46.0655" lon="6.76825">
        <ele>1344.4</ele>
        <time>2026-06-26T07:28:25Z</time>
      </trkpt>
      <trkpt lat="46.06549" lon="6.76826">
        <ele>1344.6</ele>
        <time>2026-06-26T07:28:26Z</time>
      </trkpt>
      <trkpt lat="46.06548" lon="6.76826">
        <ele>1344.7</ele>
        <time>2026-06-26T07:28:27Z</time>
      </trkpt>
      <trkpt lat="46.06548" lon="6.76827">
        <ele>1344.8</ele>
        <time>2026-06-26T07:28:28Z</time>
      </trkpt>
      <trkpt lat="46.06548" lon="6.76828">
        <ele>1344.9</ele>
        <time>2026-06-26T07:28:29Z</time>
      </trkpt>
      <trkpt lat="46.06547" lon="6.76828">
        <ele>1345</ele>
        <time>2026-06-26T07:28:30Z</time>
      </trkpt>
      <trkpt lat="46.06545" lon="6.76828">
        <ele>1345.2</ele>
        <time>2026-06-26T07:28:31Z</time>
      </trkpt>
      <trkpt lat="46.06545" lon="6.76829">
        <ele>1345.4</ele>
        <time>2026-06-26T07:28:32Z</time>
      </trkpt>
      <trkpt lat="46.06545" lon="6.7683">
        <ele>1345.6</ele>
        <time>2026-06-26T07:28:33Z</time>
      </trkpt>
      <trkpt lat="46.06545" lon="6.7683">
        <ele>1345.8</ele>
        <time>2026-06-26T07:28:34Z</time>
      </trkpt>
      <trkpt lat="46.06544" lon="6.7683">
        <ele>1345.9</ele>
        <time>2026-06-26T07:28:35Z</time>
      </trkpt>
      <trkpt lat="46.06544" lon="6.76832">
        <ele>1346</ele>
        <time>2026-06-26T07:28:36Z</time>
      </trkpt>
      <trkpt lat="46.06543" lon="6.76833">
        <ele>1346.2</ele>
        <time>2026-06-26T07:28:37Z</time>
      </trkpt>
      <trkpt lat="46.06543" lon="6.76834">
        <ele>1346.3</ele>
        <time>2026-06-26T07:28:38Z</time>
      </trkpt>
      <trkpt lat="46.06542" lon="6.76835">
        <ele>1346.4</ele>
        <time>2026-06-26T07:28:39Z</time>
      </trkpt>
      <trkpt lat="46.06542" lon="6.76836">
        <ele>1346.5</ele>
        <time>2026-06-26T07:28:40Z</time>
      </trkpt>
      <trkpt lat="46.06542" lon="6.76837">
        <ele>1346.7</ele>
        <time>2026-06-26T07:28:41Z</time>
      </trkpt>
      <trkpt lat="46.0654" lon="6.76837">
        <ele>1346.8</ele>
        <time>2026-06-26T07:28:42Z</time>
      </trkpt>
      <trkpt lat="46.06539" lon="6.76837">
        <ele>1346.9</ele>
        <time>2026-06-26T07:28:43Z</time>
      </trkpt>
      <trkpt lat="46.06538" lon="6.76837">
        <ele>1347</ele>
        <time>2026-06-26T07:28:44Z</time>
      </trkpt>
      <trkpt lat="46.06537" lon="6.76838">
        <ele>1347.1</ele>
        <time>2026-06-26T07:28:45Z</time>
      </trkpt>
      <trkpt lat="46.06536" lon="6.76838">
        <ele>1347.2</ele>
        <time>2026-06-26T07:28:46Z</time>
      </trkpt>
      <trkpt lat="46.06536" lon="6.76839">
        <ele>1347.3</ele>
        <time>2026-06-26T07:28:47Z</time>
      </trkpt>
      <trkpt lat="46.06535" lon="6.7684">
        <ele>1347.3</ele>
        <time>2026-06-26T07:28:48Z</time>
      </trkpt>
      <trkpt lat="46.06535" lon="6.7684">
        <ele>1347.4</ele>
        <time>2026-06-26T07:28:49Z</time>
      </trkpt>
      <trkpt lat="46.06533" lon="6.76839">
        <ele>1347.6</ele>
        <time>2026-06-26T07:28:50Z</time>
      </trkpt>
      <trkpt lat="46.06532" lon="6.7684">
        <ele>1347.7</ele>
        <time>2026-06-26T07:28:51Z</time>
      </trkpt>
      <trkpt lat="46.06533" lon="6.76842">
        <ele>1347.8</ele>
        <time>2026-06-26T07:28:52Z</time>
      </trkpt>
      <trkpt lat="46.06532" lon="6.76842">
        <ele>1347.9</ele>
        <time>2026-06-26T07:28:53Z</time>
      </trkpt>
      <trkpt lat="46.06531" lon="6.76842">
        <ele>1348</ele>
        <time>2026-06-26T07:28:54Z</time>
      </trkpt>
      <trkpt lat="46.06531" lon="6.76843">
        <ele>1348.1</ele>
        <time>2026-06-26T07:28:55Z</time>
      </trkpt>
      <trkpt lat="46.0653" lon="6.76844">
        <ele>1348.3</ele>
        <time>2026-06-26T07:28:56Z</time>
      </trkpt>
      <trkpt lat="46.0653" lon="6.76846">
        <ele>1348.4</ele>
        <time>2026-06-26T07:28:57Z</time>
      </trkpt>
      <trkpt lat="46.06529" lon="6.76847">
        <ele>1348.6</ele>
        <time>2026-06-26T07:28:58Z</time>
      </trkpt>
      <trkpt lat="46.06529" lon="6.76847">
        <ele>1348.7</ele>
        <time>2026-06-26T07:28:59Z</time>
      </trkpt>
      <trkpt lat="46.06528" lon="6.76848">
        <ele>1348.8</ele>
        <time>2026-06-26T07:29:00Z</time>
      </trkpt>
      <trkpt lat="46.06527" lon="6.7685">
        <ele>1348.9</ele>
        <time>2026-06-26T07:29:01Z</time>
      </trkpt>
      <trkpt lat="46.06527" lon="6.76851">
        <ele>1349</ele>
        <time>2026-06-26T07:29:02Z</time>
      </trkpt>
      <trkpt lat="46.06526" lon="6.76851">
        <ele>1349.3</ele>
        <time>2026-06-26T07:29:03Z</time>
      </trkpt>
      <trkpt lat="46.06526" lon="6.76852">
        <ele>1349.5</ele>
        <time>2026-06-26T07:29:04Z</time>
      </trkpt>
      <trkpt lat="46.06526" lon="6.76854">
        <ele>1349.8</ele>
        <time>2026-06-26T07:29:05Z</time>
      </trkpt>
      <trkpt lat="46.06525" lon="6.76855">
        <ele>1349.9</ele>
        <time>2026-06-26T07:29:06Z</time>
      </trkpt>
      <trkpt lat="46.06525" lon="6.76856">
        <ele>1350.1</ele>
        <time>2026-06-26T07:29:07Z</time>
      </trkpt>
      <trkpt lat="46.06525" lon="6.76857">
        <ele>1350.2</ele>
        <time>2026-06-26T07:29:08Z</time>
      </trkpt>
      <trkpt lat="46.06524" lon="6.76858">
        <ele>1350.3</ele>
        <time>2026-06-26T07:29:09Z</time>
      </trkpt>
      <trkpt lat="46.06523" lon="6.76859">
        <ele>1350.4</ele>
        <time>2026-06-26T07:29:10Z</time>
      </trkpt>
      <trkpt lat="46.06522" lon="6.7686">
        <ele>1350.4</ele>
        <time>2026-06-26T07:29:11Z</time>
      </trkpt>
      <trkpt lat="46.06521" lon="6.7686">
        <ele>1350.5</ele>
        <time>2026-06-26T07:29:12Z</time>
      </trkpt>
      <trkpt lat="46.06521" lon="6.76862">
        <ele>1350.6</ele>
        <time>2026-06-26T07:29:13Z</time>
      </trkpt>
      <trkpt lat="46.0652" lon="6.76864">
        <ele>1350.7</ele>
        <time>2026-06-26T07:29:14Z</time>
      </trkpt>
      <trkpt lat="46.06519" lon="6.76865">
        <ele>1350.7</ele>
        <time>2026-06-26T07:29:15Z</time>
      </trkpt>
      <trkpt lat="46.0652" lon="6.76867">
        <ele>1350.7</ele>
        <time>2026-06-26T07:29:16Z</time>
      </trkpt>
      <trkpt lat="46.06519" lon="6.76868">
        <ele>1350.9</ele>
        <time>2026-06-26T07:29:17Z</time>
      </trkpt>
      <trkpt lat="46.06518" lon="6.76869">
        <ele>1351</ele>
        <time>2026-06-26T07:29:18Z</time>
      </trkpt>
      <trkpt lat="46.06518" lon="6.7687">
        <ele>1351.1</ele>
        <time>2026-06-26T07:29:19Z</time>
      </trkpt>
      <trkpt lat="46.06517" lon="6.76871">
        <ele>1351.2</ele>
        <time>2026-06-26T07:29:20Z</time>
      </trkpt>
      <trkpt lat="46.06516" lon="6.76871">
        <ele>1351.3</ele>
        <time>2026-06-26T07:29:21Z</time>
      </trkpt>
      <trkpt lat="46.06515" lon="6.76872">
        <ele>1351.4</ele>
        <time>2026-06-26T07:29:22Z</time>
      </trkpt>
      <trkpt lat="46.06516" lon="6.76873">
        <ele>1351.5</ele>
        <time>2026-06-26T07:29:23Z</time>
      </trkpt>
      <trkpt lat="46.06515" lon="6.76874">
        <ele>1351.7</ele>
        <time>2026-06-26T07:29:24Z</time>
      </trkpt>
      <trkpt lat="46.06514" lon="6.76875">
        <ele>1351.9</ele>
        <time>2026-06-26T07:29:25Z</time>
      </trkpt>
      <trkpt lat="46.06514" lon="6.76876">
        <ele>1352</ele>
        <time>2026-06-26T07:29:26Z</time>
      </trkpt>
      <trkpt lat="46.06513" lon="6.76877">
        <ele>1352.1</ele>
        <time>2026-06-26T07:29:27Z</time>
      </trkpt>
      <trkpt lat="46.06513" lon="6.76879">
        <ele>1352.2</ele>
        <time>2026-06-26T07:29:28Z</time>
      </trkpt>
      <trkpt lat="46.06513" lon="6.7688">
        <ele>1352.4</ele>
        <time>2026-06-26T07:29:29Z</time>
      </trkpt>
      <trkpt lat="46.06513" lon="6.76881">
        <ele>1352.7</ele>
        <time>2026-06-26T07:29:30Z</time>
      </trkpt>
      <trkpt lat="46.06512" lon="6.76881">
        <ele>1352.8</ele>
        <time>2026-06-26T07:29:31Z</time>
      </trkpt>
      <trkpt lat="46.06512" lon="6.76882">
        <ele>1353</ele>
        <time>2026-06-26T07:29:32Z</time>
      </trkpt>
      <trkpt lat="46.06511" lon="6.76883">
        <ele>1353.1</ele>
        <time>2026-06-26T07:29:33Z</time>
      </trkpt>
      <trkpt lat="46.06511" lon="6.76884">
        <ele>1353.2</ele>
        <time>2026-06-26T07:29:34Z</time>
      </trkpt>
      <trkpt lat="46.0651" lon="6.76885">
        <ele>1353.4</ele>
        <time>2026-06-26T07:29:35Z</time>
      </trkpt>
      <trkpt lat="46.0651" lon="6.76886">
        <ele>1353.5</ele>
        <time>2026-06-26T07:29:36Z</time>
      </trkpt>
      <trkpt lat="46.0651" lon="6.76887">
        <ele>1353.6</ele>
        <time>2026-06-26T07:29:37Z</time>
      </trkpt>
      <trkpt lat="46.0651" lon="6.76889">
        <ele>1353.7</ele>
        <time>2026-06-26T07:29:38Z</time>
      </trkpt>
      <trkpt lat="46.06509" lon="6.76889">
        <ele>1353.8</ele>
        <time>2026-06-26T07:29:39Z</time>
      </trkpt>
      <trkpt lat="46.06508" lon="6.7689">
        <ele>1353.9</ele>
        <time>2026-06-26T07:29:40Z</time>
      </trkpt>
      <trkpt lat="46.06508" lon="6.76891">
        <ele>1354</ele>
        <time>2026-06-26T07:29:41Z</time>
      </trkpt>
      <trkpt lat="46.06508" lon="6.76892">
        <ele>1354.2</ele>
        <time>2026-06-26T07:29:42Z</time>
      </trkpt>
      <trkpt lat="46.06507" lon="6.76893">
        <ele>1354.3</ele>
        <time>2026-06-26T07:29:43Z</time>
      </trkpt>
      <trkpt lat="46.06507" lon="6.76894">
        <ele>1354.4</ele>
        <time>2026-06-26T07:29:44Z</time>
      </trkpt>
      <trkpt lat="46.06507" lon="6.76896">
        <ele>1354.8</ele>
        <time>2026-06-26T07:29:45Z</time>
      </trkpt>
      <trkpt lat="46.06507" lon="6.76898">
        <ele>1355.1</ele>
        <time>2026-06-26T07:29:46Z</time>
      </trkpt>
      <trkpt lat="46.06507" lon="6.76899">
        <ele>1355.3</ele>
        <time>2026-06-26T07:29:47Z</time>
      </trkpt>
      <trkpt lat="46.06507" lon="6.76901">
        <ele>1355.6</ele>
        <time>2026-06-26T07:29:48Z</time>
      </trkpt>
      <trkpt lat="46.06507" lon="6.76902">
        <ele>1355.7</ele>
        <time>2026-06-26T07:29:49Z</time>
      </trkpt>
      <trkpt lat="46.06507" lon="6.76904">
        <ele>1355.9</ele>
        <time>2026-06-26T07:29:50Z</time>
      </trkpt>
      <trkpt lat="46.06507" lon="6.76905">
        <ele>1356.3</ele>
        <time>2026-06-26T07:29:51Z</time>
      </trkpt>
      <trkpt lat="46.06507" lon="6.76906">
        <ele>1356.5</ele>
        <time>2026-06-26T07:29:52Z</time>
      </trkpt>
      <trkpt lat="46.06506" lon="6.76906">
        <ele>1356.7</ele>
        <time>2026-06-26T07:29:53Z</time>
      </trkpt>
      <trkpt lat="46.06506" lon="6.76907">
        <ele>1356.8</ele>
        <time>2026-06-26T07:29:54Z</time>
      </trkpt>
      <trkpt lat="46.06505" lon="6.76907">
        <ele>1356.9</ele>
        <time>2026-06-26T07:29:55Z</time>
      </trkpt>
      <trkpt lat="46.06505" lon="6.76908">
        <ele>1356.9</ele>
        <time>2026-06-26T07:29:56Z</time>
      </trkpt>
      <trkpt lat="46.06504" lon="6.7691">
        <ele>1357</ele>
        <time>2026-06-26T07:29:57Z</time>
      </trkpt>
      <trkpt lat="46.06504" lon="6.7691">
        <ele>1357.1</ele>
        <time>2026-06-26T07:29:58Z</time>
      </trkpt>
      <trkpt lat="46.06505" lon="6.76911">
        <ele>1357.2</ele>
        <time>2026-06-26T07:29:59Z</time>
      </trkpt>
      <trkpt lat="46.06505" lon="6.76912">
        <ele>1357.3</ele>
        <time>2026-06-26T07:30:00Z</time>
      </trkpt>
      <trkpt lat="46.06505" lon="6.76913">
        <ele>1357.4</ele>
        <time>2026-06-26T07:30:01Z</time>
      </trkpt>
      <trkpt lat="46.06504" lon="6.76914">
        <ele>1357.6</ele>
        <time>2026-06-26T07:30:02Z</time>
      </trkpt>
      <trkpt lat="46.06504" lon="6.76914">
        <ele>1357.6</ele>
        <time>2026-06-26T07:30:03Z</time>
      </trkpt>
      <trkpt lat="46.06504" lon="6.76916">
        <ele>1357.7</ele>
        <time>2026-06-26T07:30:04Z</time>
      </trkpt>
      <trkpt lat="46.06504" lon="6.76917">
        <ele>1357.8</ele>
        <time>2026-06-26T07:30:05Z</time>
      </trkpt>
      <trkpt lat="46.06504" lon="6.76918">
        <ele>1358.1</ele>
        <time>2026-06-26T07:30:06Z</time>
      </trkpt>
      <trkpt lat="46.06504" lon="6.76919">
        <ele>1358.1</ele>
        <time>2026-06-26T07:30:07Z</time>
      </trkpt>
      <trkpt lat="46.06503" lon="6.7692">
        <ele>1358.3</ele>
        <time>2026-06-26T07:30:08Z</time>
      </trkpt>
      <trkpt lat="46.06503" lon="6.76921">
        <ele>1358.5</ele>
        <time>2026-06-26T07:30:09Z</time>
      </trkpt>
      <trkpt lat="46.06504" lon="6.76923">
        <ele>1358.7</ele>
        <time>2026-06-26T07:30:10Z</time>
      </trkpt>
      <trkpt lat="46.06505" lon="6.76926">
        <ele>1358.8</ele>
        <time>2026-06-26T07:30:11Z</time>
      </trkpt>
      <trkpt lat="46.06505" lon="6.76927">
        <ele>1359</ele>
        <time>2026-06-26T07:30:12Z</time>
      </trkpt>
      <trkpt lat="46.06505" lon="6.76927">
        <ele>1359.1</ele>
        <time>2026-06-26T07:30:13Z</time>
      </trkpt>
      <trkpt lat="46.06505" lon="6.76928">
        <ele>1359.2</ele>
        <time>2026-06-26T07:30:14Z</time>
      </trkpt>
      <trkpt lat="46.06504" lon="6.76929">
        <ele>1359.4</ele>
        <time>2026-06-26T07:30:15Z</time>
      </trkpt>
      <trkpt lat="46.06504" lon="6.7693">
        <ele>1359.5</ele>
        <time>2026-06-26T07:30:16Z</time>
      </trkpt>
      <trkpt lat="46.06505" lon="6.76931">
        <ele>1359.6</ele>
        <time>2026-06-26T07:30:17Z</time>
      </trkpt>
      <trkpt lat="46.06504" lon="6.76932">
        <ele>1359.7</ele>
        <time>2026-06-26T07:30:18Z</time>
      </trkpt>
      <trkpt lat="46.06504" lon="6.76933">
        <ele>1359.9</ele>
        <time>2026-06-26T07:30:19Z</time>
      </trkpt>
      <trkpt lat="46.06504" lon="6.76934">
        <ele>1360.1</ele>
        <time>2026-06-26T07:30:20Z</time>
      </trkpt>
      <trkpt lat="46.06503" lon="6.76935">
        <ele>1360.2</ele>
        <time>2026-06-26T07:30:21Z</time>
      </trkpt>
      <trkpt lat="46.06503" lon="6.76936">
        <ele>1360.3</ele>
        <time>2026-06-26T07:30:22Z</time>
      </trkpt>
      <trkpt lat="46.06503" lon="6.76937">
        <ele>1360.5</ele>
        <time>2026-06-26T07:30:23Z</time>
      </trkpt>
      <trkpt lat="46.06503" lon="6.76938">
        <ele>1360.8</ele>
        <time>2026-06-26T07:30:24Z</time>
      </trkpt>
      <trkpt lat="46.06502" lon="6.7694">
        <ele>1361</ele>
        <time>2026-06-26T07:30:25Z</time>
      </trkpt>
      <trkpt lat="46.06502" lon="6.76941">
        <ele>1361.2</ele>
        <time>2026-06-26T07:30:26Z</time>
      </trkpt>
      <trkpt lat="46.06502" lon="6.76942">
        <ele>1361.4</ele>
        <time>2026-06-26T07:30:27Z</time>
      </trkpt>
      <trkpt lat="46.06502" lon="6.76943">
        <ele>1361.5</ele>
        <time>2026-06-26T07:30:28Z</time>
      </trkpt>
      <trkpt lat="46.06502" lon="6.76945">
        <ele>1361.7</ele>
        <time>2026-06-26T07:30:29Z</time>
      </trkpt>
      <trkpt lat="46.06502" lon="6.76946">
        <ele>1362</ele>
        <time>2026-06-26T07:30:30Z</time>
      </trkpt>
      <trkpt lat="46.06502" lon="6.76946">
        <ele>1362.2</ele>
        <time>2026-06-26T07:30:31Z</time>
      </trkpt>
      <trkpt lat="46.06502" lon="6.76946">
        <ele>1362.3</ele>
        <time>2026-06-26T07:30:32Z</time>
      </trkpt>
      <trkpt lat="46.06502" lon="6.76947">
        <ele>1362.5</ele>
        <time>2026-06-26T07:30:33Z</time>
      </trkpt>
      <trkpt lat="46.06502" lon="6.76947">
        <ele>1362.6</ele>
        <time>2026-06-26T07:30:34Z</time>
      </trkpt>
      <trkpt lat="46.06502" lon="6.76947">
        <ele>1362.7</ele>
        <time>2026-06-26T07:30:35Z</time>
      </trkpt>
      <trkpt lat="46.06502" lon="6.76948">
        <ele>1362.8</ele>
        <time>2026-06-26T07:30:36Z</time>
      </trkpt>
      <trkpt lat="46.06502" lon="6.76948">
        <ele>1363</ele>
        <time>2026-06-26T07:30:37Z</time>
      </trkpt>
      <trkpt lat="46.06502" lon="6.76948">
        <ele>1363.1</ele>
        <time>2026-06-26T07:30:38Z</time>
      </trkpt>
      <trkpt lat="46.06502" lon="6.76948">
        <ele>1363.1</ele>
        <time>2026-06-26T07:30:39Z</time>
      </trkpt>
      <trkpt lat="46.06502" lon="6.76948">
        <ele>1363.2</ele>
        <time>2026-06-26T07:30:40Z</time>
      </trkpt>
      <trkpt lat="46.06502" lon="6.76948">
        <ele>1363.3</ele>
        <time>2026-06-26T07:30:41Z</time>
      </trkpt>
      <trkpt lat="46.06502" lon="6.76948">
        <ele>1363.4</ele>
        <time>2026-06-26T07:30:42Z</time>
      </trkpt>
      <trkpt lat="46.06502" lon="6.76948">
        <ele>1363.5</ele>
        <time>2026-06-26T07:30:43Z</time>
      </trkpt>
      <trkpt lat="46.06502" lon="6.76949">
        <ele>1363.4</ele>
        <time>2026-06-26T07:30:44Z</time>
      </trkpt>
      <trkpt lat="46.06501" lon="6.7695">
        <ele>1363.5</ele>
        <time>2026-06-26T07:30:45Z</time>
      </trkpt>
      <trkpt lat="46.06501" lon="6.76951">
        <ele>1363.4</ele>
        <time>2026-06-26T07:30:46Z</time>
      </trkpt>
      <trkpt lat="46.065" lon="6.76952">
        <ele>1363.4</ele>
        <time>2026-06-26T07:30:47Z</time>
      </trkpt>
      <trkpt lat="46.065" lon="6.76953">
        <ele>1363.6</ele>
        <time>2026-06-26T07:30:48Z</time>
      </trkpt>
      <trkpt lat="46.065" lon="6.76954">
        <ele>1363.6</ele>
        <time>2026-06-26T07:30:49Z</time>
      </trkpt>
      <trkpt lat="46.06499" lon="6.76955">
        <ele>1363.7</ele>
        <time>2026-06-26T07:30:50Z</time>
      </trkpt>
      <trkpt lat="46.06499" lon="6.76956">
        <ele>1363.8</ele>
        <time>2026-06-26T07:30:51Z</time>
      </trkpt>
      <trkpt lat="46.06498" lon="6.76957">
        <ele>1363.9</ele>
        <time>2026-06-26T07:30:52Z</time>
      </trkpt>
      <trkpt lat="46.06497" lon="6.76958">
        <ele>1364.1</ele>
        <time>2026-06-26T07:30:53Z</time>
      </trkpt>
      <trkpt lat="46.06497" lon="6.76959">
        <ele>1364.2</ele>
        <time>2026-06-26T07:30:54Z</time>
      </trkpt>
      <trkpt lat="46.06496" lon="6.76958">
        <ele>1364.4</ele>
        <time>2026-06-26T07:30:55Z</time>
      </trkpt>
      <trkpt lat="46.06494" lon="6.76959">
        <ele>1364.6</ele>
        <time>2026-06-26T07:30:56Z</time>
      </trkpt>
      <trkpt lat="46.06494" lon="6.76959">
        <ele>1364.8</ele>
        <time>2026-06-26T07:30:57Z</time>
      </trkpt>
      <trkpt lat="46.06493" lon="6.7696">
        <ele>1364.9</ele>
        <time>2026-06-26T07:30:58Z</time>
      </trkpt>
      <trkpt lat="46.06493" lon="6.7696">
        <ele>1365.1</ele>
        <time>2026-06-26T07:30:59Z</time>
      </trkpt>
      <trkpt lat="46.06493" lon="6.76961">
        <ele>1365.2</ele>
        <time>2026-06-26T07:31:00Z</time>
      </trkpt>
      <trkpt lat="46.06493" lon="6.76961">
        <ele>1365.3</ele>
        <time>2026-06-26T07:31:01Z</time>
      </trkpt>
      <trkpt lat="46.06493" lon="6.76961">
        <ele>1365.4</ele>
        <time>2026-06-26T07:31:02Z</time>
      </trkpt>
      <trkpt lat="46.06494" lon="6.76962">
        <ele>1365.4</ele>
        <time>2026-06-26T07:31:03Z</time>
      </trkpt>
      <trkpt lat="46.06494" lon="6.76962">
        <ele>1365.4</ele>
        <time>2026-06-26T07:31:04Z</time>
      </trkpt>
      <trkpt lat="46.06494" lon="6.76962">
        <ele>1365.6</ele>
        <time>2026-06-26T07:31:05Z</time>
      </trkpt>
      <trkpt lat="46.06494" lon="6.76962">
        <ele>1365.6</ele>
        <time>2026-06-26T07:31:06Z</time>
      </trkpt>
      <trkpt lat="46.06494" lon="6.76962">
        <ele>1365.7</ele>
        <time>2026-06-26T07:31:07Z</time>
      </trkpt>
      <trkpt lat="46.06493" lon="6.76961">
        <ele>1365.7</ele>
        <time>2026-06-26T07:31:08Z</time>
      </trkpt>
      <trkpt lat="46.06493" lon="6.76962">
        <ele>1365.8</ele>
        <time>2026-06-26T07:31:09Z</time>
      </trkpt>
      <trkpt lat="46.06492" lon="6.76962">
        <ele>1366</ele>
        <time>2026-06-26T07:31:10Z</time>
      </trkpt>
      <trkpt lat="46.06491" lon="6.76962">
        <ele>1366.1</ele>
        <time>2026-06-26T07:31:11Z</time>
      </trkpt>
      <trkpt lat="46.0649" lon="6.76962">
        <ele>1366.1</ele>
        <time>2026-06-26T07:31:12Z</time>
      </trkpt>
      <trkpt lat="46.06489" lon="6.76963">
        <ele>1366.2</ele>
        <time>2026-06-26T07:31:13Z</time>
      </trkpt>
      <trkpt lat="46.06489" lon="6.76965">
        <ele>1366.3</ele>
        <time>2026-06-26T07:31:14Z</time>
      </trkpt>
      <trkpt lat="46.06488" lon="6.76966">
        <ele>1366.4</ele>
        <time>2026-06-26T07:31:15Z</time>
      </trkpt>
      <trkpt lat="46.06487" lon="6.76966">
        <ele>1366.3</ele>
        <time>2026-06-26T07:31:16Z</time>
      </trkpt>
      <trkpt lat="46.06486" lon="6.76968">
        <ele>1366.5</ele>
        <time>2026-06-26T07:31:17Z</time>
      </trkpt>
      <trkpt lat="46.06486" lon="6.76969">
        <ele>1366.6</ele>
        <time>2026-06-26T07:31:18Z</time>
      </trkpt>
      <trkpt lat="46.06485" lon="6.7697">
        <ele>1366.7</ele>
        <time>2026-06-26T07:31:19Z</time>
      </trkpt>
      <trkpt lat="46.06485" lon="6.76971">
        <ele>1366.8</ele>
        <time>2026-06-26T07:31:20Z</time>
      </trkpt>
      <trkpt lat="46.06485" lon="6.76972">
        <ele>1366.9</ele>
        <time>2026-06-26T07:31:21Z</time>
      </trkpt>
      <trkpt lat="46.06484" lon="6.76973">
        <ele>1366.9</ele>
        <time>2026-06-26T07:31:22Z</time>
      </trkpt>
      <trkpt lat="46.06484" lon="6.76974">
        <ele>1366.8</ele>
        <time>2026-06-26T07:31:23Z</time>
      </trkpt>
      <trkpt lat="46.06484" lon="6.76976">
        <ele>1366.9</ele>
        <time>2026-06-26T07:31:24Z</time>
      </trkpt>
      <trkpt lat="46.06484" lon="6.76977">
        <ele>1366.9</ele>
        <time>2026-06-26T07:31:25Z</time>
      </trkpt>
      <trkpt lat="46.06484" lon="6.76978">
        <ele>1367</ele>
        <time>2026-06-26T07:31:26Z</time>
      </trkpt>
      <trkpt lat="46.06484" lon="6.76979">
        <ele>1367</ele>
        <time>2026-06-26T07:31:27Z</time>
      </trkpt>
      <trkpt lat="46.06483" lon="6.7698">
        <ele>1367</ele>
        <time>2026-06-26T07:31:28Z</time>
      </trkpt>
      <trkpt lat="46.06483" lon="6.7698">
        <ele>1367</ele>
        <time>2026-06-26T07:31:29Z</time>
      </trkpt>
      <trkpt lat="46.06482" lon="6.76981">
        <ele>1366.9</ele>
        <time>2026-06-26T07:31:30Z</time>
      </trkpt>
      <trkpt lat="46.06483" lon="6.76981">
        <ele>1366.9</ele>
        <time>2026-06-26T07:31:31Z</time>
      </trkpt>
      <trkpt lat="46.06483" lon="6.76982">
        <ele>1366.9</ele>
        <time>2026-06-26T07:31:32Z</time>
      </trkpt>
      <trkpt lat="46.06483" lon="6.76982">
        <ele>1367</ele>
        <time>2026-06-26T07:31:33Z</time>
      </trkpt>
      <trkpt lat="46.06484" lon="6.76983">
        <ele>1367.1</ele>
        <time>2026-06-26T07:31:34Z</time>
      </trkpt>
      <trkpt lat="46.06484" lon="6.76983">
        <ele>1367.2</ele>
        <time>2026-06-26T07:31:35Z</time>
      </trkpt>
      <trkpt lat="46.06484" lon="6.76983">
        <ele>1367.2</ele>
        <time>2026-06-26T07:31:36Z</time>
      </trkpt>
      <trkpt lat="46.06484" lon="6.76984">
        <ele>1367.2</ele>
        <time>2026-06-26T07:31:37Z</time>
      </trkpt>
      <trkpt lat="46.06484" lon="6.76986">
        <ele>1367.4</ele>
        <time>2026-06-26T07:31:38Z</time>
      </trkpt>
      <trkpt lat="46.06485" lon="6.76987">
        <ele>1367.4</ele>
        <time>2026-06-26T07:31:39Z</time>
      </trkpt>
      <trkpt lat="46.06486" lon="6.76987">
        <ele>1367.5</ele>
        <time>2026-06-26T07:31:40Z</time>
      </trkpt>
      <trkpt lat="46.06487" lon="6.76987">
        <ele>1367.5</ele>
        <time>2026-06-26T07:31:41Z</time>
      </trkpt>
      <trkpt lat="46.06488" lon="6.76987">
        <ele>1367.5</ele>
        <time>2026-06-26T07:31:42Z</time>
      </trkpt>
      <trkpt lat="46.06488" lon="6.76988">
        <ele>1367.5</ele>
        <time>2026-06-26T07:31:43Z</time>
      </trkpt>
      <trkpt lat="46.06489" lon="6.76989">
        <ele>1367.4</ele>
        <time>2026-06-26T07:31:44Z</time>
      </trkpt>
      <trkpt lat="46.0649" lon="6.7699">
        <ele>1367.4</ele>
        <time>2026-06-26T07:31:45Z</time>
      </trkpt>
      <trkpt lat="46.0649" lon="6.7699">
        <ele>1367.5</ele>
        <time>2026-06-26T07:31:46Z</time>
      </trkpt>
      <trkpt lat="46.0649" lon="6.7699">
        <ele>1367.5</ele>
        <time>2026-06-26T07:31:47Z</time>
      </trkpt>
      <trkpt lat="46.0649" lon="6.7699">
        <ele>1367.4</ele>
        <time>2026-06-26T07:31:48Z</time>
      </trkpt>
      <trkpt lat="46.0649" lon="6.7699">
        <ele>1367.4</ele>
        <time>2026-06-26T07:31:49Z</time>
      </trkpt>
      <trkpt lat="46.0649" lon="6.7699">
        <ele>1367.4</ele>
        <time>2026-06-26T07:31:50Z</time>
      </trkpt>
      <trkpt lat="46.0649" lon="6.7699">
        <ele>1367.5</ele>
        <time>2026-06-26T07:31:51Z</time>
      </trkpt>
      <trkpt lat="46.06489" lon="6.7699">
        <ele>1367.4</ele>
        <time>2026-06-26T07:31:52Z</time>
      </trkpt>
      <trkpt lat="46.06489" lon="6.76991">
        <ele>1367.4</ele>
        <time>2026-06-26T07:31:53Z</time>
      </trkpt>
      <trkpt lat="46.06488" lon="6.76991">
        <ele>1367.4</ele>
        <time>2026-06-26T07:31:54Z</time>
      </trkpt>
      <trkpt lat="46.06488" lon="6.76992">
        <ele>1367.5</ele>
        <time>2026-06-26T07:31:55Z</time>
      </trkpt>
      <trkpt lat="46.06488" lon="6.76993">
        <ele>1367.5</ele>
        <time>2026-06-26T07:31:56Z</time>
      </trkpt>
      <trkpt lat="46.06487" lon="6.76994">
        <ele>1367.4</ele>
        <time>2026-06-26T07:31:57Z</time>
      </trkpt>
      <trkpt lat="46.06488" lon="6.76994">
        <ele>1367.3</ele>
        <time>2026-06-26T07:31:58Z</time>
      </trkpt>
      <trkpt lat="46.06488" lon="6.76995">
        <ele>1367.3</ele>
        <time>2026-06-26T07:31:59Z</time>
      </trkpt>
      <trkpt lat="46.06487" lon="6.76995">
        <ele>1367.3</ele>
        <time>2026-06-26T07:32:00Z</time>
      </trkpt>
      <trkpt lat="46.06487" lon="6.76996">
        <ele>1367.3</ele>
        <time>2026-06-26T07:32:01Z</time>
      </trkpt>
      <trkpt lat="46.06487" lon="6.76998">
        <ele>1367.2</ele>
        <time>2026-06-26T07:32:02Z</time>
      </trkpt>
      <trkpt lat="46.06487" lon="6.76998">
        <ele>1367.2</ele>
        <time>2026-06-26T07:32:03Z</time>
      </trkpt>
      <trkpt lat="46.06487" lon="6.76999">
        <ele>1367.2</ele>
        <time>2026-06-26T07:32:04Z</time>
      </trkpt>
      <trkpt lat="46.06487" lon="6.76999">
        <ele>1367.1</ele>
        <time>2026-06-26T07:32:05Z</time>
      </trkpt>
      <trkpt lat="46.06487" lon="6.76999">
        <ele>1367</ele>
        <time>2026-06-26T07:32:06Z</time>
      </trkpt>
      <trkpt lat="46.06487" lon="6.76999">
        <ele>1367</ele>
        <time>2026-06-26T07:32:07Z</time>
      </trkpt>
      <trkpt lat="46.06488" lon="6.76998">
        <ele>1367.1</ele>
        <time>2026-06-26T07:32:08Z</time>
      </trkpt>
      <trkpt lat="46.06489" lon="6.76997">
        <ele>1367.1</ele>
        <time>2026-06-26T07:32:09Z</time>
      </trkpt>
      <trkpt lat="46.06489" lon="6.76997">
        <ele>1367.1</ele>
        <time>2026-06-26T07:32:10Z</time>
      </trkpt>
      <trkpt lat="46.06489" lon="6.76997">
        <ele>1367</ele>
        <time>2026-06-26T07:32:11Z</time>
      </trkpt>
      <trkpt lat="46.06489" lon="6.76996">
        <ele>1367</ele>
        <time>2026-06-26T07:32:12Z</time>
      </trkpt>
      <trkpt lat="46.0649" lon="6.76995">
        <ele>1367</ele>
        <time>2026-06-26T07:32:13Z</time>
      </trkpt>
      <trkpt lat="46.0649" lon="6.76994">
        <ele>1367</ele>
        <time>2026-06-26T07:32:14Z</time>
      </trkpt>
      <trkpt lat="46.0649" lon="6.76993">
        <ele>1367</ele>
        <time>2026-06-26T07:32:15Z</time>
      </trkpt>
      <trkpt lat="46.06491" lon="6.76993">
        <ele>1367.1</ele>
        <time>2026-06-26T07:32:16Z</time>
      </trkpt>
      <trkpt lat="46.06493" lon="6.76992">
        <ele>1367.1</ele>
        <time>2026-06-26T07:32:17Z</time>
      </trkpt>
      <trkpt lat="46.06494" lon="6.76993">
        <ele>1367.1</ele>
        <time>2026-06-26T07:32:18Z</time>
      </trkpt>
      <trkpt lat="46.06493" lon="6.76991">
        <ele>1367.1</ele>
        <time>2026-06-26T07:32:19Z</time>
      </trkpt>
      <trkpt lat="46.06493" lon="6.7699">
        <ele>1367.1</ele>
        <time>2026-06-26T07:32:20Z</time>
      </trkpt>
      <trkpt lat="46.06493" lon="6.7699">
        <ele>1367.1</ele>
        <time>2026-06-26T07:32:21Z</time>
      </trkpt>
      <trkpt lat="46.06492" lon="6.76989">
        <ele>1367</ele>
        <time>2026-06-26T07:32:22Z</time>
      </trkpt>
      <trkpt lat="46.06492" lon="6.76989">
        <ele>1367</ele>
        <time>2026-06-26T07:32:23Z</time>
      </trkpt>
      <trkpt lat="46.06492" lon="6.76989">
        <ele>1367</ele>
        <time>2026-06-26T07:32:24Z</time>
      </trkpt>
      <trkpt lat="46.06492" lon="6.76989">
        <ele>1367.1</ele>
        <time>2026-06-26T07:32:25Z</time>
      </trkpt>
      <trkpt lat="46.06492" lon="6.76989">
        <ele>1367</ele>
        <time>2026-06-26T07:32:26Z</time>
      </trkpt>
      <trkpt lat="46.06492" lon="6.76989">
        <ele>1367</ele>
        <time>2026-06-26T07:32:27Z</time>
      </trkpt>
      <trkpt lat="46.06492" lon="6.76989">
        <ele>1367.1</ele>
        <time>2026-06-26T07:32:28Z</time>
      </trkpt>
      <trkpt lat="46.06492" lon="6.76989">
        <ele>1367.2</ele>
        <time>2026-06-26T07:32:29Z</time>
      </trkpt>
      <trkpt lat="46.06493" lon="6.76988">
        <ele>1367.3</ele>
        <time>2026-06-26T07:32:30Z</time>
      </trkpt>
      <trkpt lat="46.06493" lon="6.76987">
        <ele>1367.5</ele>
        <time>2026-06-26T07:32:31Z</time>
      </trkpt>
      <trkpt lat="46.06492" lon="6.76986">
        <ele>1367.5</ele>
        <time>2026-06-26T07:32:32Z</time>
      </trkpt>
      <trkpt lat="46.06492" lon="6.76986">
        <ele>1367.6</ele>
        <time>2026-06-26T07:32:33Z</time>
      </trkpt>
      <trkpt lat="46.06492" lon="6.76986">
        <ele>1367.7</ele>
        <time>2026-06-26T07:32:34Z</time>
      </trkpt>
      <trkpt lat="46.06492" lon="6.76987">
        <ele>1367.7</ele>
        <time>2026-06-26T07:32:35Z</time>
      </trkpt>
      <trkpt lat="46.06493" lon="6.76987">
        <ele>1367.6</ele>
        <time>2026-06-26T07:32:36Z</time>
      </trkpt>
      <trkpt lat="46.06493" lon="6.76987">
        <ele>1367.6</ele>
        <time>2026-06-26T07:32:37Z</time>
      </trkpt>
      <trkpt lat="46.06493" lon="6.76988">
        <ele>1367.7</ele>
        <time>2026-06-26T07:32:38Z</time>
      </trkpt>
      <trkpt lat="46.06493" lon="6.76988">
        <ele>1367.7</ele>
        <time>2026-06-26T07:32:39Z</time>
      </trkpt>
      <trkpt lat="46.06494" lon="6.76988">
        <ele>1367.6</ele>
        <time>2026-06-26T07:32:40Z</time>
      </trkpt>
      <trkpt lat="46.06494" lon="6.76988">
        <ele>1367.6</ele>
        <time>2026-06-26T07:32:41Z</time>
      </trkpt>
      <trkpt lat="46.06494" lon="6.76988">
        <ele>1367.7</ele>
        <time>2026-06-26T07:32:42Z</time>
      </trkpt>
      <trkpt lat="46.06493" lon="6.76988">
        <ele>1367.7</ele>
        <time>2026-06-26T07:32:43Z</time>
      </trkpt>
      <trkpt lat="46.06493" lon="6.76988">
        <ele>1367.8</ele>
        <time>2026-06-26T07:32:44Z</time>
      </trkpt>
      <trkpt lat="46.06493" lon="6.76988">
        <ele>1367.8</ele>
        <time>2026-06-26T07:32:45Z</time>
      </trkpt>
      <trkpt lat="46.06493" lon="6.76988">
        <ele>1367.8</ele>
        <time>2026-06-26T07:32:46Z</time>
      </trkpt>
      <trkpt lat="46.06493" lon="6.76988">
        <ele>1367.8</ele>
        <time>2026-06-26T07:32:47Z</time>
      </trkpt>
      <trkpt lat="46.06493" lon="6.76988">
        <ele>1367.8</ele>
        <time>2026-06-26T07:32:48Z</time>
      </trkpt>
      <trkpt lat="46.06493" lon="6.76988">
        <ele>1367.8</ele>
        <time>2026-06-26T07:32:49Z</time>
      </trkpt>
      <trkpt lat="46.06493" lon="6.76988">
        <ele>1367.7</ele>
        <time>2026-06-26T07:32:50Z</time>
      </trkpt>
      <trkpt lat="46.06493" lon="6.76988">
        <ele>1367.7</ele>
        <time>2026-06-26T07:32:51Z</time>
      </trkpt>
      <trkpt lat="46.06493" lon="6.76988">
        <ele>1367.7</ele>
        <time>2026-06-26T07:32:52Z</time>
      </trkpt>
      <trkpt lat="46.06493" lon="6.76987">
        <ele>1367.6</ele>
        <time>2026-06-26T07:32:53Z</time>
      </trkpt>
      <trkpt lat="46.06492" lon="6.76986">
        <ele>1367.4</ele>
        <time>2026-06-26T07:32:54Z</time>
      </trkpt>
      <trkpt lat="46.06492" lon="6.76986">
        <ele>1367.3</ele>
        <time>2026-06-26T07:32:55Z</time>
      </trkpt>
      <trkpt lat="46.06491" lon="6.76985">
        <ele>1367.2</ele>
        <time>2026-06-26T07:32:56Z</time>
      </trkpt>
      <trkpt lat="46.06491" lon="6.76984">
        <ele>1367.1</ele>
        <time>2026-06-26T07:32:57Z</time>
      </trkpt>
      <trkpt lat="46.06491" lon="6.76983">
        <ele>1367</ele>
        <time>2026-06-26T07:32:58Z</time>
      </trkpt>
      <trkpt lat="46.06491" lon="6.76982">
        <ele>1366.9</ele>
        <time>2026-06-26T07:32:59Z</time>
      </trkpt>
      <trkpt lat="46.0649" lon="6.76981">
        <ele>1366.9</ele>
        <time>2026-06-26T07:33:00Z</time>
      </trkpt>
      <trkpt lat="46.0649" lon="6.7698">
        <ele>1366.8</ele>
        <time>2026-06-26T07:33:01Z</time>
      </trkpt>
      <trkpt lat="46.0649" lon="6.76979">
        <ele>1366.8</ele>
        <time>2026-06-26T07:33:02Z</time>
      </trkpt>
      <trkpt lat="46.06489" lon="6.76978">
        <ele>1366.8</ele>
        <time>2026-06-26T07:33:03Z</time>
      </trkpt>
      <trkpt lat="46.06489" lon="6.76977">
        <ele>1366.8</ele>
        <time>2026-06-26T07:33:04Z</time>
      </trkpt>
      <trkpt lat="46.06489" lon="6.76976">
        <ele>1366.7</ele>
        <time>2026-06-26T07:33:05Z</time>
      </trkpt>
      <trkpt lat="46.06489" lon="6.76976">
        <ele>1366.6</ele>
        <time>2026-06-26T07:33:06Z</time>
      </trkpt>
      <trkpt lat="46.06489" lon="6.76976">
        <ele>1366.6</ele>
        <time>2026-06-26T07:33:07Z</time>
      </trkpt>
      <trkpt lat="46.06488" lon="6.76976">
        <ele>1366.6</ele>
        <time>2026-06-26T07:33:08Z</time>
      </trkpt>
      <trkpt lat="46.06488" lon="6.76976">
        <ele>1366.5</ele>
        <time>2026-06-26T07:33:09Z</time>
      </trkpt>
      <trkpt lat="46.06488" lon="6.76976">
        <ele>1366.5</ele>
        <time>2026-06-26T07:33:10Z</time>
      </trkpt>
      <trkpt lat="46.06488" lon="6.76976">
        <ele>1366.4</ele>
        <time>2026-06-26T07:33:11Z</time>
      </trkpt>
      <trkpt lat="46.06488" lon="6.76976">
        <ele>1366.4</ele>
        <time>2026-06-26T07:33:12Z</time>
      </trkpt>
      <trkpt lat="46.06488" lon="6.76976">
        <ele>1366.4</ele>
        <time>2026-06-26T07:33:13Z</time>
      </trkpt>
      <trkpt lat="46.06489" lon="6.76976">
        <ele>1366.5</ele>
        <time>2026-06-26T07:33:14Z</time>
      </trkpt>
      <trkpt lat="46.06489" lon="6.76976">
        <ele>1366.5</ele>
        <time>2026-06-26T07:33:15Z</time>
      </trkpt>
      <trkpt lat="46.06489" lon="6.76976">
        <ele>1366.5</ele>
        <time>2026-06-26T07:33:16Z</time>
      </trkpt>
      <trkpt lat="46.06489" lon="6.76976">
        <ele>1366.6</ele>
        <time>2026-06-26T07:33:17Z</time>
      </trkpt>
      <trkpt lat="46.06489" lon="6.76976">
        <ele>1366.6</ele>
        <time>2026-06-26T07:33:18Z</time>
      </trkpt>
      <trkpt lat="46.06489" lon="6.76976">
        <ele>1366.6</ele>
        <time>2026-06-26T07:33:19Z</time>
      </trkpt>
      <trkpt lat="46.06489" lon="6.76976">
        <ele>1366.7</ele>
        <time>2026-06-26T07:33:20Z</time>
      </trkpt>
      <trkpt lat="46.06489" lon="6.76976">
        <ele>1366.7</ele>
        <time>2026-06-26T07:33:21Z</time>
      </trkpt>
      <trkpt lat="46.06489" lon="6.76976">
        <ele>1366.7</ele>
        <time>2026-06-26T07:33:22Z</time>
      </trkpt>
      <trkpt lat="46.06489" lon="6.76976">
        <ele>1366.7</ele>
        <time>2026-06-26T07:33:23Z</time>
      </trkpt>
      <trkpt lat="46.06489" lon="6.76976">
        <ele>1366.7</ele>
        <time>2026-06-26T07:33:24Z</time>
      </trkpt>
      <trkpt lat="46.06489" lon="6.76975">
        <ele>1366.6</ele>
        <time>2026-06-26T07:33:25Z</time>
      </trkpt>
      <trkpt lat="46.06489" lon="6.76975">
        <ele>1366.7</ele>
        <time>2026-06-26T07:33:26Z</time>
      </trkpt>
      <trkpt lat="46.06488" lon="6.76975">
        <ele>1366.6</ele>
        <time>2026-06-26T07:33:27Z</time>
      </trkpt>
      <trkpt lat="46.06488" lon="6.76974">
        <ele>1366.6</ele>
        <time>2026-06-26T07:33:28Z</time>
      </trkpt>
      <trkpt lat="46.06488" lon="6.76974">
        <ele>1366.6</ele>
        <time>2026-06-26T07:33:29Z</time>
      </trkpt>
      <trkpt lat="46.06488" lon="6.76974">
        <ele>1366.6</ele>
        <time>2026-06-26T07:33:30Z</time>
      </trkpt>
      <trkpt lat="46.06488" lon="6.76975">
        <ele>1366.7</ele>
        <time>2026-06-26T07:33:31Z</time>
      </trkpt>
      <trkpt lat="46.06488" lon="6.76975">
        <ele>1366.6</ele>
        <time>2026-06-26T07:33:32Z</time>
      </trkpt>
      <trkpt lat="46.06488" lon="6.76975">
        <ele>1366.6</ele>
        <time>2026-06-26T07:33:33Z</time>
      </trkpt>
      <trkpt lat="46.06488" lon="6.76976">
        <ele>1366.6</ele>
        <time>2026-06-26T07:33:34Z</time>
      </trkpt>
      <trkpt lat="46.06487" lon="6.76976">
        <ele>1366.7</ele>
        <time>2026-06-26T07:33:35Z</time>
      </trkpt>
      <trkpt lat="46.06487" lon="6.76976">
        <ele>1366.7</ele>
        <time>2026-06-26T07:33:36Z</time>
      </trkpt>
      <trkpt lat="46.06487" lon="6.76976">
        <ele>1366.7</ele>
        <time>2026-06-26T07:33:37Z</time>
      </trkpt>
      <trkpt lat="46.06487" lon="6.76976">
        <ele>1366.7</ele>
        <time>2026-06-26T07:33:38Z</time>
      </trkpt>
      <trkpt lat="46.06487" lon="6.76976">
        <ele>1366.7</ele>
        <time>2026-06-26T07:33:39Z</time>
      </trkpt>
      <trkpt lat="46.06486" lon="6.76977">
        <ele>1366.8</ele>
        <time>2026-06-26T07:33:40Z</time>
      </trkpt>
      <trkpt lat="46.06486" lon="6.76977">
        <ele>1366.8</ele>
        <time>2026-06-26T07:33:41Z</time>
      </trkpt>
      <trkpt lat="46.06486" lon="6.76977">
        <ele>1366.8</ele>
        <time>2026-06-26T07:33:42Z</time>
      </trkpt>
      <trkpt lat="46.06486" lon="6.76978">
        <ele>1366.9</ele>
        <time>2026-06-26T07:33:43Z</time>
      </trkpt>
      <trkpt lat="46.06485" lon="6.76978">
        <ele>1366.9</ele>
        <time>2026-06-26T07:33:44Z</time>
      </trkpt>
      <trkpt lat="46.06486" lon="6.76979">
        <ele>1366.9</ele>
        <time>2026-06-26T07:33:45Z</time>
      </trkpt>
      <trkpt lat="46.06486" lon="6.7698">
        <ele>1366.8</ele>
        <time>2026-06-26T07:33:46Z</time>
      </trkpt>
      <trkpt lat="46.06486" lon="6.76981">
        <ele>1366.8</ele>
        <time>2026-06-26T07:33:47Z</time>
      </trkpt>
      <trkpt lat="46.06486" lon="6.76981">
        <ele>1366.9</ele>
        <time>2026-06-26T07:33:48Z</time>
      </trkpt>
      <trkpt lat="46.06487" lon="6.76982">
        <ele>1366.7</ele>
        <time>2026-06-26T07:33:49Z</time>
      </trkpt>
      <trkpt lat="46.06486" lon="6.76983">
        <ele>1366.7</ele>
        <time>2026-06-26T07:33:50Z</time>
      </trkpt>
      <trkpt lat="46.06486" lon="6.76983">
        <ele>1366.7</ele>
        <time>2026-06-26T07:33:51Z</time>
      </trkpt>
      <trkpt lat="46.06487" lon="6.76983">
        <ele>1366.7</ele>
        <time>2026-06-26T07:33:52Z</time>
      </trkpt>
      <trkpt lat="46.06487" lon="6.76983">
        <ele>1366.7</ele>
        <time>2026-06-26T07:33:53Z</time>
      </trkpt>
      <trkpt lat="46.06487" lon="6.76983">
        <ele>1366.8</ele>
        <time>2026-06-26T07:33:54Z</time>
      </trkpt>
      <trkpt lat="46.06487" lon="6.76983">
        <ele>1366.9</ele>
        <time>2026-06-26T07:33:55Z</time>
      </trkpt>
      <trkpt lat="46.06487" lon="6.76984">
        <ele>1367</ele>
        <time>2026-06-26T07:33:56Z</time>
      </trkpt>
      <trkpt lat="46.06487" lon="6.76984">
        <ele>1367</ele>
        <time>2026-06-26T07:33:57Z</time>
      </trkpt>
      <trkpt lat="46.06487" lon="6.76985">
        <ele>1366.9</ele>
        <time>2026-06-26T07:33:58Z</time>
      </trkpt>
      <trkpt lat="46.06487" lon="6.76985">
        <ele>1366.9</ele>
        <time>2026-06-26T07:33:59Z</time>
      </trkpt>
      <trkpt lat="46.06487" lon="6.76985">
        <ele>1366.9</ele>
        <time>2026-06-26T07:34:00Z</time>
      </trkpt>
      <trkpt lat="46.06487" lon="6.76985">
        <ele>1366.9</ele>
        <time>2026-06-26T07:34:01Z</time>
      </trkpt>
      <trkpt lat="46.06487" lon="6.76985">
        <ele>1367</ele>
        <time>2026-06-26T07:34:02Z</time>
      </trkpt>
      <trkpt lat="46.06487" lon="6.76985">
        <ele>1367</ele>
        <time>2026-06-26T07:34:03Z</time>
      </trkpt>
      <trkpt lat="46.06488" lon="6.76985">
        <ele>1367</ele>
        <time>2026-06-26T07:34:04Z</time>
      </trkpt>
      <trkpt lat="46.06488" lon="6.76985">
        <ele>1367.1</ele>
        <time>2026-06-26T07:34:05Z</time>
      </trkpt>
      <trkpt lat="46.06488" lon="6.76985">
        <ele>1367.1</ele>
        <time>2026-06-26T07:34:06Z</time>
      </trkpt>
      <trkpt lat="46.06488" lon="6.76985">
        <ele>1367.1</ele>
        <time>2026-06-26T07:34:07Z</time>
      </trkpt>
      <trkpt lat="46.06488" lon="6.76985">
        <ele>1367.1</ele>
        <time>2026-06-26T07:34:08Z</time>
      </trkpt>
      <trkpt lat="46.06488" lon="6.76985">
        <ele>1367.3</ele>
        <time>2026-06-26T07:34:09Z</time>
      </trkpt>
      <trkpt lat="46.06488" lon="6.76985">
        <ele>1367.3</ele>
        <time>2026-06-26T07:34:10Z</time>
      </trkpt>
      <trkpt lat="46.06488" lon="6.76986">
        <ele>1367.3</ele>
        <time>2026-06-26T07:34:11Z</time>
      </trkpt>
      <trkpt lat="46.06488" lon="6.76985">
        <ele>1367.3</ele>
        <time>2026-06-26T07:34:12Z</time>
      </trkpt>
      <trkpt lat="46.06488" lon="6.76986">
        <ele>1367.3</ele>
        <time>2026-06-26T07:34:13Z</time>
      </trkpt>
      <trkpt lat="46.06488" lon="6.76986">
        <ele>1367.3</ele>
        <time>2026-06-26T07:34:14Z</time>
      </trkpt>
      <trkpt lat="46.06488" lon="6.76986">
        <ele>1367.2</ele>
        <time>2026-06-26T07:34:15Z</time>
      </trkpt>
      <trkpt lat="46.06488" lon="6.76986">
        <ele>1367.2</ele>
        <time>2026-06-26T07:34:16Z</time>
      </trkpt>
      <trkpt lat="46.06488" lon="6.76986">
        <ele>1367.1</ele>
        <time>2026-06-26T07:34:17Z</time>
      </trkpt>
      <trkpt lat="46.06488" lon="6.76986">
        <ele>1367</ele>
        <time>2026-06-26T07:34:18Z</time>
      </trkpt>
      <trkpt lat="46.06488" lon="6.76986">
        <ele>1367</ele>
        <time>2026-06-26T07:34:19Z</time>
      </trkpt>
      <trkpt lat="46.06488" lon="6.76986">
        <ele>1366.9</ele>
        <time>2026-06-26T07:34:20Z</time>
      </trkpt>
      <trkpt lat="46.06488" lon="6.76985">
        <ele>1366.9</ele>
        <time>2026-06-26T07:34:21Z</time>
      </trkpt>
      <trkpt lat="46.06488" lon="6.76985">
        <ele>1366.9</ele>
        <time>2026-06-26T07:34:22Z</time>
      </trkpt>
      <trkpt lat="46.06488" lon="6.76986">
        <ele>1367</ele>
        <time>2026-06-26T07:34:23Z</time>
      </trkpt>
      <trkpt lat="46.06488" lon="6.76985">
        <ele>1367</ele>
        <time>2026-06-26T07:34:24Z</time>
      </trkpt>
      <trkpt lat="46.06488" lon="6.76985">
        <ele>1366.9</ele>
        <time>2026-06-26T07:34:25Z</time>
      </trkpt>
      <trkpt lat="46.06488" lon="6.76986">
        <ele>1366.9</ele>
        <time>2026-06-26T07:34:26Z</time>
      </trkpt>
      <trkpt lat="46.06488" lon="6.76986">
        <ele>1366.9</ele>
        <time>2026-06-26T07:34:27Z</time>
      </trkpt>
      <trkpt lat="46.06488" lon="6.76986">
        <ele>1366.8</ele>
        <time>2026-06-26T07:34:28Z</time>
      </trkpt>
      <trkpt lat="46.06489" lon="6.76986">
        <ele>1366.8</ele>
        <time>2026-06-26T07:34:29Z</time>
      </trkpt>
      <trkpt lat="46.06489" lon="6.76986">
        <ele>1366.8</ele>
        <time>2026-06-26T07:34:30Z</time>
      </trkpt>
      <trkpt lat="46.06489" lon="6.76986">
        <ele>1366.8</ele>
        <time>2026-06-26T07:34:31Z</time>
      </trkpt>
      <trkpt lat="46.06489" lon="6.76986">
        <ele>1366.8</ele>
        <time>2026-06-26T07:34:32Z</time>
      </trkpt>
      <trkpt lat="46.06489" lon="6.76985">
        <ele>1366.8</ele>
        <time>2026-06-26T07:34:33Z</time>
      </trkpt>
      <trkpt lat="46.06489" lon="6.76985">
        <ele>1366.9</ele>
        <time>2026-06-26T07:34:34Z</time>
      </trkpt>
      <trkpt lat="46.06489" lon="6.76985">
        <ele>1366.9</ele>
        <time>2026-06-26T07:34:35Z</time>
      </trkpt>
      <trkpt lat="46.06489" lon="6.76985">
        <ele>1366.9</ele>
        <time>2026-06-26T07:34:36Z</time>
      </trkpt>
      <trkpt lat="46.06489" lon="6.76985">
        <ele>1366.9</ele>
        <time>2026-06-26T07:34:37Z</time>
      </trkpt>
      <trkpt lat="46.06489" lon="6.76985">
        <ele>1367</ele>
        <time>2026-06-26T07:34:38Z</time>
      </trkpt>
      <trkpt lat="46.06489" lon="6.76985">
        <ele>1367</ele>
        <time>2026-06-26T07:34:39Z</time>
      </trkpt>
      <trkpt lat="46.06489" lon="6.76984">
        <ele>1367</ele>
        <time>2026-06-26T07:34:40Z</time>
      </trkpt>
      <trkpt lat="46.06489" lon="6.76984">
        <ele>1367</ele>
        <time>2026-06-26T07:34:41Z</time>
      </trkpt>
      <trkpt lat="46.0649" lon="6.76983">
        <ele>1366.9</ele>
        <time>2026-06-26T07:34:42Z</time>
      </trkpt>
      <trkpt lat="46.0649" lon="6.76983">
        <ele>1366.9</ele>
        <time>2026-06-26T07:34:43Z</time>
      </trkpt>
      <trkpt lat="46.0649" lon="6.76983">
        <ele>1367</ele>
        <time>2026-06-26T07:34:44Z</time>
      </trkpt>
      <trkpt lat="46.0649" lon="6.76983">
        <ele>1366.9</ele>
        <time>2026-06-26T07:34:45Z</time>
      </trkpt>
      <trkpt lat="46.0649" lon="6.76983">
        <ele>1366.8</ele>
        <time>2026-06-26T07:34:46Z</time>
      </trkpt>
      <trkpt lat="46.0649" lon="6.76983">
        <ele>1366.8</ele>
        <time>2026-06-26T07:34:47Z</time>
      </trkpt>
      <trkpt lat="46.0649" lon="6.76982">
        <ele>1366.8</ele>
        <time>2026-06-26T07:34:48Z</time>
      </trkpt>
      <trkpt lat="46.06491" lon="6.76982">
        <ele>1366.8</ele>
        <time>2026-06-26T07:34:49Z</time>
      </trkpt>
      <trkpt lat="46.06491" lon="6.76981">
        <ele>1366.8</ele>
        <time>2026-06-26T07:34:50Z</time>
      </trkpt>
      <trkpt lat="46.06491" lon="6.76981">
        <ele>1366.8</ele>
        <time>2026-06-26T07:34:51Z</time>
      </trkpt>
      <trkpt lat="46.06491" lon="6.7698">
        <ele>1366.9</ele>
        <time>2026-06-26T07:34:52Z</time>
      </trkpt>
      <trkpt lat="46.06492" lon="6.76979">
        <ele>1366.9</ele>
        <time>2026-06-26T07:34:53Z</time>
      </trkpt>
      <trkpt lat="46.06492" lon="6.76979">
        <ele>1367</ele>
        <time>2026-06-26T07:34:54Z</time>
      </trkpt>
      <trkpt lat="46.06492" lon="6.76979">
        <ele>1367</ele>
        <time>2026-06-26T07:34:55Z</time>
      </trkpt>
      <trkpt lat="46.06492" lon="6.76979">
        <ele>1367.1</ele>
        <time>2026-06-26T07:34:56Z</time>
      </trkpt>
      <trkpt lat="46.06493" lon="6.76979">
        <ele>1367</ele>
        <time>2026-06-26T07:34:57Z</time>
      </trkpt>
      <trkpt lat="46.06493" lon="6.76979">
        <ele>1367</ele>
        <time>2026-06-26T07:34:58Z</time>
      </trkpt>
      <trkpt lat="46.06493" lon="6.76979">
        <ele>1367</ele>
        <time>2026-06-26T07:34:59Z</time>
      </trkpt>
      <trkpt lat="46.06493" lon="6.76978">
        <ele>1367</ele>
        <time>2026-06-26T07:35:00Z</time>
      </trkpt>
      <trkpt lat="46.06493" lon="6.76978">
        <ele>1367</ele>
        <time>2026-06-26T07:35:01Z</time>
      </trkpt>
      <trkpt lat="46.06493" lon="6.76978">
        <ele>1367.1</ele>
        <time>2026-06-26T07:35:02Z</time>
      </trkpt>
      <trkpt lat="46.06493" lon="6.76977">
        <ele>1367.1</ele>
        <time>2026-06-26T07:35:03Z</time>
      </trkpt>
      <trkpt lat="46.06493" lon="6.76977">
        <ele>1367.2</ele>
        <time>2026-06-26T07:35:04Z</time>
      </trkpt>
      <trkpt lat="46.06494" lon="6.76977">
        <ele>1367.1</ele>
        <time>2026-06-26T07:35:05Z</time>
      </trkpt>
      <trkpt lat="46.06494" lon="6.76976">
        <ele>1367.1</ele>
        <time>2026-06-26T07:35:06Z</time>
      </trkpt>
      <trkpt lat="46.06494" lon="6.76976">
        <ele>1367.1</ele>
        <time>2026-06-26T07:35:07Z</time>
      </trkpt>
      <trkpt lat="46.06494" lon="6.76975">
        <ele>1367.2</ele>
        <time>2026-06-26T07:35:08Z</time>
      </trkpt>
      <trkpt lat="46.06495" lon="6.76975">
        <ele>1367.2</ele>
        <time>2026-06-26T07:35:09Z</time>
      </trkpt>
      <trkpt lat="46.06495" lon="6.76975">
        <ele>1367.2</ele>
        <time>2026-06-26T07:35:10Z</time>
      </trkpt>
      <trkpt lat="46.06495" lon="6.76974">
        <ele>1367.1</ele>
        <time>2026-06-26T07:35:11Z</time>
      </trkpt>
      <trkpt lat="46.06495" lon="6.76974">
        <ele>1367.1</ele>
        <time>2026-06-26T07:35:12Z</time>
      </trkpt>
      <trkpt lat="46.06495" lon="6.76973">
        <ele>1367.1</ele>
        <time>2026-06-26T07:35:13Z</time>
      </trkpt>
      <trkpt lat="46.06496" lon="6.76973">
        <ele>1367.1</ele>
        <time>2026-06-26T07:35:14Z</time>
      </trkpt>
      <trkpt lat="46.06496" lon="6.76973">
        <ele>1367.1</ele>
        <time>2026-06-26T07:35:15Z</time>
      </trkpt>
      <trkpt lat="46.06496" lon="6.76973">
        <ele>1367.1</ele>
        <time>2026-06-26T07:35:16Z</time>
      </trkpt>
      <trkpt lat="46.06496" lon="6.76973">
        <ele>1367</ele>
        <time>2026-06-26T07:35:17Z</time>
      </trkpt>
      <trkpt lat="46.06495" lon="6.76972">
        <ele>1367</ele>
        <time>2026-06-26T07:35:18Z</time>
      </trkpt>
      <trkpt lat="46.06495" lon="6.76972">
        <ele>1367</ele>
        <time>2026-06-26T07:35:19Z</time>
      </trkpt>
      <trkpt lat="46.06495" lon="6.76972">
        <ele>1367</ele>
        <time>2026-06-26T07:35:20Z</time>
      </trkpt>
      <trkpt lat="46.06495" lon="6.76972">
        <ele>1366.9</ele>
        <time>2026-06-26T07:35:21Z</time>
      </trkpt>
      <trkpt lat="46.06495" lon="6.76972">
        <ele>1366.9</ele>
        <time>2026-06-26T07:35:22Z</time>
      </trkpt>
      <trkpt lat="46.06495" lon="6.76972">
        <ele>1366.9</ele>
        <time>2026-06-26T07:35:23Z</time>
      </trkpt>
      <trkpt lat="46.06495" lon="6.76972">
        <ele>1367</ele>
        <time>2026-06-26T07:35:24Z</time>
      </trkpt>
      <trkpt lat="46.06496" lon="6.76972">
        <ele>1367</ele>
        <time>2026-06-26T07:35:25Z</time>
      </trkpt>
      <trkpt lat="46.06496" lon="6.76973">
        <ele>1367.1</ele>
        <time>2026-06-26T07:35:26Z</time>
      </trkpt>
      <trkpt lat="46.06497" lon="6.76973">
        <ele>1367.1</ele>
        <time>2026-06-26T07:35:27Z</time>
      </trkpt>
      <trkpt lat="46.06497" lon="6.76974">
        <ele>1367.1</ele>
        <time>2026-06-26T07:35:28Z</time>
      </trkpt>
      <trkpt lat="46.06498" lon="6.76974">
        <ele>1367.1</ele>
        <time>2026-06-26T07:35:29Z</time>
      </trkpt>
      <trkpt lat="46.06498" lon="6.76974">
        <ele>1367.2</ele>
        <time>2026-06-26T07:35:30Z</time>
      </trkpt>
      <trkpt lat="46.06498" lon="6.76973">
        <ele>1367.2</ele>
        <time>2026-06-26T07:35:31Z</time>
      </trkpt>
      <trkpt lat="46.06498" lon="6.76973">
        <ele>1367.3</ele>
        <time>2026-06-26T07:35:32Z</time>
      </trkpt>
      <trkpt lat="46.06498" lon="6.76974">
        <ele>1367.4</ele>
        <time>2026-06-26T07:35:33Z</time>
      </trkpt>
      <trkpt lat="46.06498" lon="6.76974">
        <ele>1367.5</ele>
        <time>2026-06-26T07:35:34Z</time>
      </trkpt>
      <trkpt lat="46.06498" lon="6.76974">
        <ele>1367.5</ele>
        <time>2026-06-26T07:35:35Z</time>
      </trkpt>
      <trkpt lat="46.06498" lon="6.76975">
        <ele>1367.6</ele>
        <time>2026-06-26T07:35:36Z</time>
      </trkpt>
      <trkpt lat="46.06499" lon="6.76975">
        <ele>1367.6</ele>
        <time>2026-06-26T07:35:37Z</time>
      </trkpt>
      <trkpt lat="46.06499" lon="6.76975">
        <ele>1367.6</ele>
        <time>2026-06-26T07:35:38Z</time>
      </trkpt>
      <trkpt lat="46.06499" lon="6.76975">
        <ele>1367.6</ele>
        <time>2026-06-26T07:35:39Z</time>
      </trkpt>
      <trkpt lat="46.06499" lon="6.76974">
        <ele>1367.6</ele>
        <time>2026-06-26T07:35:40Z</time>
      </trkpt>
      <trkpt lat="46.065" lon="6.76974">
        <ele>1367.6</ele>
        <time>2026-06-26T07:35:41Z</time>
      </trkpt>
      <trkpt lat="46.065" lon="6.76974">
        <ele>1367.7</ele>
        <time>2026-06-26T07:35:42Z</time>
      </trkpt>
      <trkpt lat="46.06499" lon="6.76974">
        <ele>1367.7</ele>
        <time>2026-06-26T07:35:43Z</time>
      </trkpt>
      <trkpt lat="46.065" lon="6.76974">
        <ele>1367.7</ele>
        <time>2026-06-26T07:35:44Z</time>
      </trkpt>
      <trkpt lat="46.065" lon="6.76974">
        <ele>1367.8</ele>
        <time>2026-06-26T07:35:45Z</time>
      </trkpt>
      <trkpt lat="46.065" lon="6.76973">
        <ele>1367.7</ele>
        <time>2026-06-26T07:35:46Z</time>
      </trkpt>
      <trkpt lat="46.065" lon="6.76973">
        <ele>1367.7</ele>
        <time>2026-06-26T07:35:47Z</time>
      </trkpt>
      <trkpt lat="46.065" lon="6.76973">
        <ele>1367.7</ele>
        <time>2026-06-26T07:35:48Z</time>
      </trkpt>
      <trkpt lat="46.065" lon="6.76973">
        <ele>1367.6</ele>
        <time>2026-06-26T07:35:49Z</time>
      </trkpt>
      <trkpt lat="46.065" lon="6.76973">
        <ele>1367.5</ele>
        <time>2026-06-26T07:35:50Z</time>
      </trkpt>
      <trkpt lat="46.065" lon="6.76973">
        <ele>1367.4</ele>
        <time>2026-06-26T07:35:51Z</time>
      </trkpt>
      <trkpt lat="46.065" lon="6.76973">
        <ele>1367.3</ele>
        <time>2026-06-26T07:35:52Z</time>
      </trkpt>
      <trkpt lat="46.06499" lon="6.76973">
        <ele>1367.3</ele>
        <time>2026-06-26T07:35:53Z</time>
      </trkpt>
      <trkpt lat="46.065" lon="6.76973">
        <ele>1367.2</ele>
        <time>2026-06-26T07:35:54Z</time>
      </trkpt>
      <trkpt lat="46.065" lon="6.76973">
        <ele>1367.2</ele>
        <time>2026-06-26T07:35:55Z</time>
      </trkpt>
      <trkpt lat="46.065" lon="6.76973">
        <ele>1367.2</ele>
        <time>2026-06-26T07:35:56Z</time>
      </trkpt>
      <trkpt lat="46.065" lon="6.76973">
        <ele>1367.2</ele>
        <time>2026-06-26T07:35:57Z</time>
      </trkpt>
      <trkpt lat="46.065" lon="6.76973">
        <ele>1367.2</ele>
        <time>2026-06-26T07:35:58Z</time>
      </trkpt>
      <trkpt lat="46.065" lon="6.76972">
        <ele>1367.2</ele>
        <time>2026-06-26T07:35:59Z</time>
      </trkpt>
      <trkpt lat="46.065" lon="6.76972">
        <ele>1367.2</ele>
        <time>2026-06-26T07:36:00Z</time>
      </trkpt>
      <trkpt lat="46.065" lon="6.76972">
        <ele>1367.1</ele>
        <time>2026-06-26T07:36:01Z</time>
      </trkpt>
      <trkpt lat="46.065" lon="6.76972">
        <ele>1367.1</ele>
        <time>2026-06-26T07:36:02Z</time>
      </trkpt>
      <trkpt lat="46.065" lon="6.76973">
        <ele>1367.1</ele>
        <time>2026-06-26T07:36:03Z</time>
      </trkpt>
      <trkpt lat="46.065" lon="6.76973">
        <ele>1367</ele>
        <time>2026-06-26T07:36:04Z</time>
      </trkpt>
      <trkpt lat="46.065" lon="6.76973">
        <ele>1367</ele>
        <time>2026-06-26T07:36:05Z</time>
      </trkpt>
      <trkpt lat="46.065" lon="6.76972">
        <ele>1367</ele>
        <time>2026-06-26T07:36:06Z</time>
      </trkpt>
      <trkpt lat="46.06501" lon="6.76972">
        <ele>1367</ele>
        <time>2026-06-26T07:36:07Z</time>
      </trkpt>
      <trkpt lat="46.06501" lon="6.76972">
        <ele>1367.1</ele>
        <time>2026-06-26T07:36:08Z</time>
      </trkpt>
      <trkpt lat="46.06501" lon="6.76972">
        <ele>1367.1</ele>
        <time>2026-06-26T07:36:09Z</time>
      </trkpt>
      <trkpt lat="46.06501" lon="6.76972">
        <ele>1367.1</ele>
        <time>2026-06-26T07:36:10Z</time>
      </trkpt>
      <trkpt lat="46.06501" lon="6.76972">
        <ele>1367.3</ele>
        <time>2026-06-26T07:36:11Z</time>
      </trkpt>
      <trkpt lat="46.06501" lon="6.76971">
        <ele>1367.2</ele>
        <time>2026-06-26T07:36:12Z</time>
      </trkpt>
      <trkpt lat="46.06501" lon="6.76971">
        <ele>1367.2</ele>
        <time>2026-06-26T07:36:13Z</time>
      </trkpt>
      <trkpt lat="46.06502" lon="6.7697">
        <ele>1367.2</ele>
        <time>2026-06-26T07:36:14Z</time>
      </trkpt>
      <trkpt lat="46.06502" lon="6.76971">
        <ele>1367.3</ele>
        <time>2026-06-26T07:36:15Z</time>
      </trkpt>
      <trkpt lat="46.06502" lon="6.7697">
        <ele>1367.3</ele>
        <time>2026-06-26T07:36:16Z</time>
      </trkpt>
      <trkpt lat="46.06502" lon="6.76971">
        <ele>1367.3</ele>
        <time>2026-06-26T07:36:17Z</time>
      </trkpt>
      <trkpt lat="46.06502" lon="6.76971">
        <ele>1367.3</ele>
        <time>2026-06-26T07:36:18Z</time>
      </trkpt>
      <trkpt lat="46.06502" lon="6.76972">
        <ele>1367.4</ele>
        <time>2026-06-26T07:36:19Z</time>
      </trkpt>
      <trkpt lat="46.06502" lon="6.76972">
        <ele>1367.5</ele>
        <time>2026-06-26T07:36:20Z</time>
      </trkpt>
      <trkpt lat="46.06502" lon="6.76973">
        <ele>1367.5</ele>
        <time>2026-06-26T07:36:21Z</time>
      </trkpt>
      <trkpt lat="46.06502" lon="6.76974">
        <ele>1367.4</ele>
        <time>2026-06-26T07:36:22Z</time>
      </trkpt>
      <trkpt lat="46.06502" lon="6.76975">
        <ele>1367.4</ele>
        <time>2026-06-26T07:36:23Z</time>
      </trkpt>
      <trkpt lat="46.06502" lon="6.76976">
        <ele>1367.3</ele>
        <time>2026-06-26T07:36:24Z</time>
      </trkpt>
      <trkpt lat="46.06501" lon="6.76976">
        <ele>1367.2</ele>
        <time>2026-06-26T07:36:25Z</time>
      </trkpt>
      <trkpt lat="46.06502" lon="6.76977">
        <ele>1367.1</ele>
        <time>2026-06-26T07:36:26Z</time>
      </trkpt>
      <trkpt lat="46.06502" lon="6.76978">
        <ele>1367</ele>
        <time>2026-06-26T07:36:27Z</time>
      </trkpt>
      <trkpt lat="46.06502" lon="6.76978">
        <ele>1366.9</ele>
        <time>2026-06-26T07:36:28Z</time>
      </trkpt>
      <trkpt lat="46.06502" lon="6.76979">
        <ele>1366.9</ele>
        <time>2026-06-26T07:36:29Z</time>
      </trkpt>
      <trkpt lat="46.06502" lon="6.76979">
        <ele>1366.9</ele>
        <time>2026-06-26T07:36:30Z</time>
      </trkpt>
      <trkpt lat="46.06502" lon="6.7698">
        <ele>1366.8</ele>
        <time>2026-06-26T07:36:31Z</time>
      </trkpt>
      <trkpt lat="46.06502" lon="6.76979">
        <ele>1366.8</ele>
        <time>2026-06-26T07:36:32Z</time>
      </trkpt>
      <trkpt lat="46.06501" lon="6.76979">
        <ele>1366.7</ele>
        <time>2026-06-26T07:36:33Z</time>
      </trkpt>
      <trkpt lat="46.06501" lon="6.76979">
        <ele>1366.8</ele>
        <time>2026-06-26T07:36:34Z</time>
      </trkpt>
      <trkpt lat="46.06501" lon="6.76978">
        <ele>1366.9</ele>
        <time>2026-06-26T07:36:35Z</time>
      </trkpt>
      <trkpt lat="46.06501" lon="6.76978">
        <ele>1366.9</ele>
        <time>2026-06-26T07:36:36Z</time>
      </trkpt>
      <trkpt lat="46.065" lon="6.76977">
        <ele>1366.9</ele>
        <time>2026-06-26T07:36:37Z</time>
      </trkpt>
      <trkpt lat="46.065" lon="6.76977">
        <ele>1366.8</ele>
        <time>2026-06-26T07:36:38Z</time>
      </trkpt>
      <trkpt lat="46.065" lon="6.76977">
        <ele>1366.8</ele>
        <time>2026-06-26T07:36:39Z</time>
      </trkpt>
      <trkpt lat="46.065" lon="6.76977">
        <ele>1366.8</ele>
        <time>2026-06-26T07:36:40Z</time>
      </trkpt>
      <trkpt lat="46.065" lon="6.76977">
        <ele>1366.8</ele>
        <time>2026-06-26T07:36:41Z</time>
      </trkpt>
      <trkpt lat="46.065" lon="6.76977">
        <ele>1366.8</ele>
        <time>2026-06-26T07:36:42Z</time>
      </trkpt>
      <trkpt lat="46.065" lon="6.76977">
        <ele>1366.7</ele>
        <time>2026-06-26T07:36:43Z</time>
      </trkpt>
      <trkpt lat="46.06499" lon="6.76977">
        <ele>1366.7</ele>
        <time>2026-06-26T07:36:44Z</time>
      </trkpt>
      <trkpt lat="46.06499" lon="6.76978">
        <ele>1366.8</ele>
        <time>2026-06-26T07:36:45Z</time>
      </trkpt>
      <trkpt lat="46.06499" lon="6.76978">
        <ele>1366.8</ele>
        <time>2026-06-26T07:36:46Z</time>
      </trkpt>
      <trkpt lat="46.06499" lon="6.76978">
        <ele>1366.9</ele>
        <time>2026-06-26T07:36:47Z</time>
      </trkpt>
      <trkpt lat="46.06499" lon="6.76979">
        <ele>1366.8</ele>
        <time>2026-06-26T07:36:48Z</time>
      </trkpt>
      <trkpt lat="46.06499" lon="6.76979">
        <ele>1366.7</ele>
        <time>2026-06-26T07:36:49Z</time>
      </trkpt>
      <trkpt lat="46.06499" lon="6.76979">
        <ele>1366.7</ele>
        <time>2026-06-26T07:36:50Z</time>
      </trkpt>
      <trkpt lat="46.06499" lon="6.76979">
        <ele>1366.7</ele>
        <time>2026-06-26T07:36:51Z</time>
      </trkpt>
      <trkpt lat="46.06499" lon="6.76979">
        <ele>1366.7</ele>
        <time>2026-06-26T07:36:52Z</time>
      </trkpt>
      <trkpt lat="46.06499" lon="6.76979">
        <ele>1366.7</ele>
        <time>2026-06-26T07:36:53Z</time>
      </trkpt>
      <trkpt lat="46.06499" lon="6.76979">
        <ele>1366.7</ele>
        <time>2026-06-26T07:36:54Z</time>
      </trkpt>
      <trkpt lat="46.06499" lon="6.76978">
        <ele>1366.7</ele>
        <time>2026-06-26T07:36:55Z</time>
      </trkpt>
      <trkpt lat="46.06499" lon="6.76978">
        <ele>1366.7</ele>
        <time>2026-06-26T07:36:56Z</time>
      </trkpt>
      <trkpt lat="46.06499" lon="6.76978">
        <ele>1366.7</ele>
        <time>2026-06-26T07:36:57Z</time>
      </trkpt>
      <trkpt lat="46.06499" lon="6.76977">
        <ele>1366.8</ele>
        <time>2026-06-26T07:36:58Z</time>
      </trkpt>
      <trkpt lat="46.06499" lon="6.76977">
        <ele>1366.8</ele>
        <time>2026-06-26T07:36:59Z</time>
      </trkpt>
      <trkpt lat="46.065" lon="6.76976">
        <ele>1366.9</ele>
        <time>2026-06-26T07:37:00Z</time>
      </trkpt>
      <trkpt lat="46.065" lon="6.76976">
        <ele>1367</ele>
        <time>2026-06-26T07:37:01Z</time>
      </trkpt>
      <trkpt lat="46.065" lon="6.76975">
        <ele>1367.1</ele>
        <time>2026-06-26T07:37:02Z</time>
      </trkpt>
      <trkpt lat="46.065" lon="6.76975">
        <ele>1367.1</ele>
        <time>2026-06-26T07:37:03Z</time>
      </trkpt>
      <trkpt lat="46.065" lon="6.76975">
        <ele>1367.1</ele>
        <time>2026-06-26T07:37:04Z</time>
      </trkpt>
      <trkpt lat="46.065" lon="6.76974">
        <ele>1367.1</ele>
        <time>2026-06-26T07:37:05Z</time>
      </trkpt>
      <trkpt lat="46.065" lon="6.76974">
        <ele>1367.1</ele>
        <time>2026-06-26T07:37:06Z</time>
      </trkpt>
      <trkpt lat="46.065" lon="6.76974">
        <ele>1367</ele>
        <time>2026-06-26T07:37:07Z</time>
      </trkpt>
      <trkpt lat="46.06499" lon="6.76974">
        <ele>1367</ele>
        <time>2026-06-26T07:37:08Z</time>
      </trkpt>
      <trkpt lat="46.06499" lon="6.76974">
        <ele>1367</ele>
        <time>2026-06-26T07:37:09Z</time>
      </trkpt>
      <trkpt lat="46.06499" lon="6.76974">
        <ele>1367</ele>
        <time>2026-06-26T07:37:10Z</time>
      </trkpt>
      <trkpt lat="46.06499" lon="6.76974">
        <ele>1367</ele>
        <time>2026-06-26T07:37:11Z</time>
      </trkpt>
      <trkpt lat="46.06498" lon="6.76974">
        <ele>1367</ele>
        <time>2026-06-26T07:37:12Z</time>
      </trkpt>
      <trkpt lat="46.06498" lon="6.76974">
        <ele>1367</ele>
        <time>2026-06-26T07:37:13Z</time>
      </trkpt>
      <trkpt lat="46.06498" lon="6.76974">
        <ele>1367</ele>
        <time>2026-06-26T07:37:14Z</time>
      </trkpt>
      <trkpt lat="46.06497" lon="6.76974">
        <ele>1367</ele>
        <time>2026-06-26T07:37:15Z</time>
      </trkpt>
      <trkpt lat="46.06496" lon="6.76974">
        <ele>1367.1</ele>
        <time>2026-06-26T07:37:16Z</time>
      </trkpt>
      <trkpt lat="46.06496" lon="6.76974">
        <ele>1367.1</ele>
        <time>2026-06-26T07:37:17Z</time>
      </trkpt>
      <trkpt lat="46.06496" lon="6.76974">
        <ele>1367.2</ele>
        <time>2026-06-26T07:37:18Z</time>
      </trkpt>
      <trkpt lat="46.06496" lon="6.76974">
        <ele>1367.2</ele>
        <time>2026-06-26T07:37:19Z</time>
      </trkpt>
      <trkpt lat="46.06496" lon="6.76974">
        <ele>1367.2</ele>
        <time>2026-06-26T07:37:20Z</time>
      </trkpt>
      <trkpt lat="46.06495" lon="6.76974">
        <ele>1367.2</ele>
        <time>2026-06-26T07:37:21Z</time>
      </trkpt>
      <trkpt lat="46.06494" lon="6.76973">
        <ele>1367.3</ele>
        <time>2026-06-26T07:37:22Z</time>
      </trkpt>
      <trkpt lat="46.06494" lon="6.76973">
        <ele>1367.2</ele>
        <time>2026-06-26T07:37:23Z</time>
      </trkpt>
      <trkpt lat="46.06494" lon="6.76973">
        <ele>1367.2</ele>
        <time>2026-06-26T07:37:24Z</time>
      </trkpt>
      <trkpt lat="46.06494" lon="6.76973">
        <ele>1367.2</ele>
        <time>2026-06-26T07:37:25Z</time>
      </trkpt>
      <trkpt lat="46.06494" lon="6.76974">
        <ele>1367.2</ele>
        <time>2026-06-26T07:37:26Z</time>
      </trkpt>
      <trkpt lat="46.06494" lon="6.76973">
        <ele>1367.4</ele>
        <time>2026-06-26T07:37:27Z</time>
      </trkpt>
      <trkpt lat="46.06494" lon="6.76973">
        <ele>1367.3</ele>
        <time>2026-06-26T07:37:28Z</time>
      </trkpt>
      <trkpt lat="46.06494" lon="6.76973">
        <ele>1367.3</ele>
        <time>2026-06-26T07:37:29Z</time>
      </trkpt>
      <trkpt lat="46.06494" lon="6.76973">
        <ele>1367.2</ele>
        <time>2026-06-26T07:37:30Z</time>
      </trkpt>
      <trkpt lat="46.06494" lon="6.76972">
        <ele>1367.2</ele>
        <time>2026-06-26T07:37:31Z</time>
      </trkpt>
      <trkpt lat="46.06494" lon="6.76972">
        <ele>1367.3</ele>
        <time>2026-06-26T07:37:32Z</time>
      </trkpt>
      <trkpt lat="46.06495" lon="6.76972">
        <ele>1367.2</ele>
        <time>2026-06-26T07:37:33Z</time>
      </trkpt>
      <trkpt lat="46.06495" lon="6.76972">
        <ele>1367.1</ele>
        <time>2026-06-26T07:37:34Z</time>
      </trkpt>
      <trkpt lat="46.06495" lon="6.76972">
        <ele>1367.1</ele>
        <time>2026-06-26T07:37:35Z</time>
      </trkpt>
      <trkpt lat="46.06495" lon="6.76972">
        <ele>1367.1</ele>
        <time>2026-06-26T07:37:36Z</time>
      </trkpt>
      <trkpt lat="46.06495" lon="6.76972">
        <ele>1367.2</ele>
        <time>2026-06-26T07:37:37Z</time>
      </trkpt>
      <trkpt lat="46.06495" lon="6.76971">
        <ele>1367.1</ele>
        <time>2026-06-26T07:37:38Z</time>
      </trkpt>
      <trkpt lat="46.06495" lon="6.76971">
        <ele>1367.1</ele>
        <time>2026-06-26T07:37:39Z</time>
      </trkpt>
      <trkpt lat="46.06496" lon="6.76971">
        <ele>1367.1</ele>
        <time>2026-06-26T07:37:40Z</time>
      </trkpt>
      <trkpt lat="46.06496" lon="6.76971">
        <ele>1367</ele>
        <time>2026-06-26T07:37:41Z</time>
      </trkpt>
      <trkpt lat="46.06496" lon="6.76971">
        <ele>1366.9</ele>
        <time>2026-06-26T07:37:42Z</time>
      </trkpt>
      <trkpt lat="46.06496" lon="6.76971">
        <ele>1366.9</ele>
        <time>2026-06-26T07:37:43Z</time>
      </trkpt>
      <trkpt lat="46.06496" lon="6.7697">
        <ele>1367</ele>
        <time>2026-06-26T07:37:44Z</time>
      </trkpt>
      <trkpt lat="46.06496" lon="6.7697">
        <ele>1367</ele>
        <time>2026-06-26T07:37:45Z</time>
      </trkpt>
      <trkpt lat="46.06496" lon="6.7697">
        <ele>1367.1</ele>
        <time>2026-06-26T07:37:46Z</time>
      </trkpt>
      <trkpt lat="46.06496" lon="6.7697">
        <ele>1367.1</ele>
        <time>2026-06-26T07:37:47Z</time>
      </trkpt>
      <trkpt lat="46.06496" lon="6.7697">
        <ele>1367</ele>
        <time>2026-06-26T07:37:48Z</time>
      </trkpt>
      <trkpt lat="46.06495" lon="6.7697">
        <ele>1367</ele>
        <time>2026-06-26T07:37:49Z</time>
      </trkpt>
      <trkpt lat="46.06495" lon="6.76969">
        <ele>1367</ele>
        <time>2026-06-26T07:37:50Z</time>
      </trkpt>
      <trkpt lat="46.06494" lon="6.76969">
        <ele>1367</ele>
        <time>2026-06-26T07:37:51Z</time>
      </trkpt>
      <trkpt lat="46.06494" lon="6.76968">
        <ele>1367</ele>
        <time>2026-06-26T07:37:52Z</time>
      </trkpt>
      <trkpt lat="46.06493" lon="6.76968">
        <ele>1367</ele>
        <time>2026-06-26T07:37:53Z</time>
      </trkpt>
      <trkpt lat="46.06493" lon="6.76968">
        <ele>1367</ele>
        <time>2026-06-26T07:37:54Z</time>
      </trkpt>
      <trkpt lat="46.06493" lon="6.76968">
        <ele>1367.1</ele>
        <time>2026-06-26T07:37:55Z</time>
      </trkpt>
      <trkpt lat="46.06492" lon="6.76967">
        <ele>1367.2</ele>
        <time>2026-06-26T07:37:56Z</time>
      </trkpt>
      <trkpt lat="46.06492" lon="6.76967">
        <ele>1367.2</ele>
        <time>2026-06-26T07:37:57Z</time>
      </trkpt>
      <trkpt lat="46.06492" lon="6.76967">
        <ele>1367.2</ele>
        <time>2026-06-26T07:37:58Z</time>
      </trkpt>
      <trkpt lat="46.06492" lon="6.76967">
        <ele>1367.2</ele>
        <time>2026-06-26T07:37:59Z</time>
      </trkpt>
      <trkpt lat="46.06491" lon="6.76967">
        <ele>1367.3</ele>
        <time>2026-06-26T07:38:00Z</time>
      </trkpt>
      <trkpt lat="46.06491" lon="6.76966">
        <ele>1367.3</ele>
        <time>2026-06-26T07:38:01Z</time>
      </trkpt>
      <trkpt lat="46.06491" lon="6.76965">
        <ele>1367.3</ele>
        <time>2026-06-26T07:38:02Z</time>
      </trkpt>
      <trkpt lat="46.0649" lon="6.76965">
        <ele>1367.2</ele>
        <time>2026-06-26T07:38:03Z</time>
      </trkpt>
      <trkpt lat="46.0649" lon="6.76965">
        <ele>1367.2</ele>
        <time>2026-06-26T07:38:04Z</time>
      </trkpt>
      <trkpt lat="46.06489" lon="6.76964">
        <ele>1367.3</ele>
        <time>2026-06-26T07:38:05Z</time>
      </trkpt>
      <trkpt lat="46.06489" lon="6.76964">
        <ele>1367.3</ele>
        <time>2026-06-26T07:38:06Z</time>
      </trkpt>
      <trkpt lat="46.06489" lon="6.76964">
        <ele>1367.3</ele>
        <time>2026-06-26T07:38:07Z</time>
      </trkpt>
      <trkpt lat="46.06489" lon="6.76963">
        <ele>1367.3</ele>
        <time>2026-06-26T07:38:08Z</time>
      </trkpt>
      <trkpt lat="46.06488" lon="6.76963">
        <ele>1367.5</ele>
        <time>2026-06-26T07:38:09Z</time>
      </trkpt>
      <trkpt lat="46.06488" lon="6.76963">
        <ele>1367.3</ele>
        <time>2026-06-26T07:38:10Z</time>
      </trkpt>
      <trkpt lat="46.06488" lon="6.76963">
        <ele>1367.3</ele>
        <time>2026-06-26T07:38:11Z</time>
      </trkpt>
      <trkpt lat="46.06489" lon="6.76961">
        <ele>1367.2</ele>
        <time>2026-06-26T07:38:12Z</time>
      </trkpt>
      <trkpt lat="46.06489" lon="6.76961">
        <ele>1367.2</ele>
        <time>2026-06-26T07:38:13Z</time>
      </trkpt>
      <trkpt lat="46.0649" lon="6.76961">
        <ele>1367.3</ele>
        <time>2026-06-26T07:38:14Z</time>
      </trkpt>
      <trkpt lat="46.0649" lon="6.76961">
        <ele>1367.3</ele>
        <time>2026-06-26T07:38:15Z</time>
      </trkpt>
      <trkpt lat="46.06491" lon="6.76959">
        <ele>1367.2</ele>
        <time>2026-06-26T07:38:16Z</time>
      </trkpt>
      <trkpt lat="46.06493" lon="6.76958">
        <ele>1367.1</ele>
        <time>2026-06-26T07:38:17Z</time>
      </trkpt>
      <trkpt lat="46.06493" lon="6.76958">
        <ele>1367.1</ele>
        <time>2026-06-26T07:38:18Z</time>
      </trkpt>
      <trkpt lat="46.06493" lon="6.76958">
        <ele>1367</ele>
        <time>2026-06-26T07:38:19Z</time>
      </trkpt>
      <trkpt lat="46.06494" lon="6.76958">
        <ele>1367</ele>
        <time>2026-06-26T07:38:20Z</time>
      </trkpt>
      <trkpt lat="46.06495" lon="6.76959">
        <ele>1367.2</ele>
        <time>2026-06-26T07:38:21Z</time>
      </trkpt>
      <trkpt lat="46.06495" lon="6.76959">
        <ele>1367.3</ele>
        <time>2026-06-26T07:38:22Z</time>
      </trkpt>
      <trkpt lat="46.06495" lon="6.76959">
        <ele>1367.5</ele>
        <time>2026-06-26T07:38:23Z</time>
      </trkpt>
      <trkpt lat="46.06495" lon="6.76959">
        <ele>1367.4</ele>
        <time>2026-06-26T07:38:24Z</time>
      </trkpt>
      <trkpt lat="46.06495" lon="6.76959">
        <ele>1367.3</ele>
        <time>2026-06-26T07:38:25Z</time>
      </trkpt>
      <trkpt lat="46.06495" lon="6.7696">
        <ele>1367.2</ele>
        <time>2026-06-26T07:38:26Z</time>
      </trkpt>
      <trkpt lat="46.06496" lon="6.7696">
        <ele>1367.2</ele>
        <time>2026-06-26T07:38:27Z</time>
      </trkpt>
      <trkpt lat="46.06496" lon="6.7696">
        <ele>1367.1</ele>
        <time>2026-06-26T07:38:28Z</time>
      </trkpt>
      <trkpt lat="46.06496" lon="6.7696">
        <ele>1367</ele>
        <time>2026-06-26T07:38:29Z</time>
      </trkpt>
      <trkpt lat="46.06496" lon="6.7696">
        <ele>1367</ele>
        <time>2026-06-26T07:38:30Z</time>
      </trkpt>
      <trkpt lat="46.06496" lon="6.7696">
        <ele>1366.9</ele>
        <time>2026-06-26T07:38:31Z</time>
      </trkpt>
      <trkpt lat="46.06496" lon="6.76961">
        <ele>1366.8</ele>
        <time>2026-06-26T07:38:32Z</time>
      </trkpt>
      <trkpt lat="46.06496" lon="6.76961">
        <ele>1366.8</ele>
        <time>2026-06-26T07:38:33Z</time>
      </trkpt>
      <trkpt lat="46.06496" lon="6.76961">
        <ele>1366.8</ele>
        <time>2026-06-26T07:38:34Z</time>
      </trkpt>
      <trkpt lat="46.06496" lon="6.76961">
        <ele>1366.8</ele>
        <time>2026-06-26T07:38:35Z</time>
      </trkpt>
      <trkpt lat="46.06496" lon="6.76961">
        <ele>1366.8</ele>
        <time>2026-06-26T07:38:36Z</time>
      </trkpt>
      <trkpt lat="46.06496" lon="6.76961">
        <ele>1366.8</ele>
        <time>2026-06-26T07:38:37Z</time>
      </trkpt>
      <trkpt lat="46.06496" lon="6.76961">
        <ele>1366.8</ele>
        <time>2026-06-26T07:38:38Z</time>
      </trkpt>
      <trkpt lat="46.06496" lon="6.76962">
        <ele>1366.8</ele>
        <time>2026-06-26T07:38:39Z</time>
      </trkpt>
      <trkpt lat="46.06496" lon="6.76962">
        <ele>1366.8</ele>
        <time>2026-06-26T07:38:40Z</time>
      </trkpt>
      <trkpt lat="46.06496" lon="6.76962">
        <ele>1366.8</ele>
        <time>2026-06-26T07:38:41Z</time>
      </trkpt>
      <trkpt lat="46.06496" lon="6.76962">
        <ele>1366.8</ele>
        <time>2026-06-26T07:38:42Z</time>
      </trkpt>
      <trkpt lat="46.06496" lon="6.76963">
        <ele>1366.9</ele>
        <time>2026-06-26T07:38:43Z</time>
      </trkpt>
      <trkpt lat="46.06495" lon="6.76963">
        <ele>1366.8</ele>
        <time>2026-06-26T07:38:44Z</time>
      </trkpt>
      <trkpt lat="46.06495" lon="6.76963">
        <ele>1366.8</ele>
        <time>2026-06-26T07:38:45Z</time>
      </trkpt>
      <trkpt lat="46.06495" lon="6.76963">
        <ele>1366.8</ele>
        <time>2026-06-26T07:38:46Z</time>
      </trkpt>
      <trkpt lat="46.06494" lon="6.76963">
        <ele>1366.9</ele>
        <time>2026-06-26T07:38:47Z</time>
      </trkpt>
      <trkpt lat="46.06494" lon="6.76963">
        <ele>1367</ele>
        <time>2026-06-26T07:38:48Z</time>
      </trkpt>
      <trkpt lat="46.06493" lon="6.76962">
        <ele>1366.9</ele>
        <time>2026-06-26T07:38:49Z</time>
      </trkpt>
      <trkpt lat="46.06493" lon="6.76963">
        <ele>1366.8</ele>
        <time>2026-06-26T07:38:50Z</time>
      </trkpt>
      <trkpt lat="46.06493" lon="6.76963">
        <ele>1366.8</ele>
        <time>2026-06-26T07:38:51Z</time>
      </trkpt>
      <trkpt lat="46.06493" lon="6.76963">
        <ele>1366.7</ele>
        <time>2026-06-26T07:38:52Z</time>
      </trkpt>
      <trkpt lat="46.06493" lon="6.76964">
        <ele>1366.7</ele>
        <time>2026-06-26T07:38:53Z</time>
      </trkpt>
      <trkpt lat="46.06493" lon="6.76964">
        <ele>1366.6</ele>
        <time>2026-06-26T07:38:54Z</time>
      </trkpt>
      <trkpt lat="46.06493" lon="6.76964">
        <ele>1366.6</ele>
        <time>2026-06-26T07:38:55Z</time>
      </trkpt>
      <trkpt lat="46.06493" lon="6.76964">
        <ele>1366.8</ele>
        <time>2026-06-26T07:38:56Z</time>
      </trkpt>
      <trkpt lat="46.06493" lon="6.76964">
        <ele>1366.8</ele>
        <time>2026-06-26T07:38:57Z</time>
      </trkpt>
      <trkpt lat="46.06493" lon="6.76964">
        <ele>1366.9</ele>
        <time>2026-06-26T07:38:58Z</time>
      </trkpt>
      <trkpt lat="46.06493" lon="6.76965">
        <ele>1366.8</ele>
        <time>2026-06-26T07:38:59Z</time>
      </trkpt>
      <trkpt lat="46.06492" lon="6.76965">
        <ele>1366.7</ele>
        <time>2026-06-26T07:39:00Z</time>
      </trkpt>
      <trkpt lat="46.06492" lon="6.76967">
        <ele>1366.7</ele>
        <time>2026-06-26T07:39:01Z</time>
      </trkpt>
      <trkpt lat="46.06493" lon="6.76968">
        <ele>1366.7</ele>
        <time>2026-06-26T07:39:02Z</time>
      </trkpt>
      <trkpt lat="46.06493" lon="6.7697">
        <ele>1366.8</ele>
        <time>2026-06-26T07:39:03Z</time>
      </trkpt>
      <trkpt lat="46.06492" lon="6.76976">
        <ele>1366.7</ele>
        <time>2026-06-26T07:39:04Z</time>
      </trkpt>
      <trkpt lat="46.06492" lon="6.7698">
        <ele>1366.8</ele>
        <time>2026-06-26T07:39:05Z</time>
      </trkpt>
      <trkpt lat="46.06492" lon="6.76983">
        <ele>1366.8</ele>
        <time>2026-06-26T07:39:06Z</time>
      </trkpt>
      <trkpt lat="46.06492" lon="6.76984">
        <ele>1366.9</ele>
        <time>2026-06-26T07:39:07Z</time>
      </trkpt>
      <trkpt lat="46.06492" lon="6.76985">
        <ele>1366.9</ele>
        <time>2026-06-26T07:39:08Z</time>
      </trkpt>
      <trkpt lat="46.06491" lon="6.76986">
        <ele>1366.9</ele>
        <time>2026-06-26T07:39:09Z</time>
      </trkpt>
      <trkpt lat="46.06492" lon="6.76986">
        <ele>1367.1</ele>
        <time>2026-06-26T07:39:10Z</time>
      </trkpt>
      <trkpt lat="46.06492" lon="6.76987">
        <ele>1367.2</ele>
        <time>2026-06-26T07:39:11Z</time>
      </trkpt>
      <trkpt lat="46.06493" lon="6.76987">
        <ele>1367.5</ele>
        <time>2026-06-26T07:39:12Z</time>
      </trkpt>
      <trkpt lat="46.06492" lon="6.76987">
        <ele>1367.6</ele>
        <time>2026-06-26T07:39:13Z</time>
      </trkpt>
      <trkpt lat="46.06493" lon="6.76987">
        <ele>1367.7</ele>
        <time>2026-06-26T07:39:14Z</time>
      </trkpt>
      <trkpt lat="46.06493" lon="6.76987">
        <ele>1367.9</ele>
        <time>2026-06-26T07:39:15Z</time>
      </trkpt>
      <trkpt lat="46.06493" lon="6.76988">
        <ele>1368.1</ele>
        <time>2026-06-26T07:39:16Z</time>
      </trkpt>
      <trkpt lat="46.06493" lon="6.76988">
        <ele>1368.2</ele>
        <time>2026-06-26T07:39:17Z</time>
      </trkpt>
      <trkpt lat="46.06493" lon="6.76988">
        <ele>1368.4</ele>
        <time>2026-06-26T07:39:18Z</time>
      </trkpt>
      <trkpt lat="46.06494" lon="6.76988">
        <ele>1368.5</ele>
        <time>2026-06-26T07:39:19Z</time>
      </trkpt>
      <trkpt lat="46.06494" lon="6.76988">
        <ele>1368.6</ele>
        <time>2026-06-26T07:39:20Z</time>
      </trkpt>
      <trkpt lat="46.06495" lon="6.76988">
        <ele>1368.7</ele>
        <time>2026-06-26T07:39:21Z</time>
      </trkpt>
      <trkpt lat="46.06495" lon="6.76987">
        <ele>1368.8</ele>
        <time>2026-06-26T07:39:22Z</time>
      </trkpt>
      <trkpt lat="46.06495" lon="6.76986">
        <ele>1369</ele>
        <time>2026-06-26T07:39:23Z</time>
      </trkpt>
      <trkpt lat="46.06495" lon="6.76986">
        <ele>1369.1</ele>
        <time>2026-06-26T07:39:24Z</time>
      </trkpt>
      <trkpt lat="46.06495" lon="6.76985">
        <ele>1369.2</ele>
        <time>2026-06-26T07:39:25Z</time>
      </trkpt>
      <trkpt lat="46.06495" lon="6.76985">
        <ele>1369.4</ele>
        <time>2026-06-26T07:39:26Z</time>
      </trkpt>
      <trkpt lat="46.06496" lon="6.76984">
        <ele>1369.7</ele>
        <time>2026-06-26T07:39:27Z</time>
      </trkpt>
      <trkpt lat="46.06496" lon="6.76984">
        <ele>1369.9</ele>
        <time>2026-06-26T07:39:28Z</time>
      </trkpt>
      <trkpt lat="46.06497" lon="6.76984">
        <ele>1370</ele>
        <time>2026-06-26T07:39:29Z</time>
      </trkpt>
      <trkpt lat="46.06496" lon="6.76983">
        <ele>1370.1</ele>
        <time>2026-06-26T07:39:30Z</time>
      </trkpt>
      <trkpt lat="46.06497" lon="6.76983">
        <ele>1370.2</ele>
        <time>2026-06-26T07:39:31Z</time>
      </trkpt>
      <trkpt lat="46.06497" lon="6.76983">
        <ele>1370.4</ele>
        <time>2026-06-26T07:39:32Z</time>
      </trkpt>
      <trkpt lat="46.06498" lon="6.76982">
        <ele>1370.5</ele>
        <time>2026-06-26T07:39:33Z</time>
      </trkpt>
      <trkpt lat="46.06499" lon="6.76981">
        <ele>1370.6</ele>
        <time>2026-06-26T07:39:34Z</time>
      </trkpt>
      <trkpt lat="46.065" lon="6.7698">
        <ele>1370.7</ele>
        <time>2026-06-26T07:39:35Z</time>
      </trkpt>
      <trkpt lat="46.06501" lon="6.76979">
        <ele>1370.9</ele>
        <time>2026-06-26T07:39:36Z</time>
      </trkpt>
      <trkpt lat="46.06501" lon="6.76978">
        <ele>1371.1</ele>
        <time>2026-06-26T07:39:37Z</time>
      </trkpt>
      <trkpt lat="46.06501" lon="6.76977">
        <ele>1371.2</ele>
        <time>2026-06-26T07:39:38Z</time>
      </trkpt>
      <trkpt lat="46.06502" lon="6.76977">
        <ele>1371.3</ele>
        <time>2026-06-26T07:39:39Z</time>
      </trkpt>
      <trkpt lat="46.06503" lon="6.76977">
        <ele>1371.4</ele>
        <time>2026-06-26T07:39:40Z</time>
      </trkpt>
      <trkpt lat="46.06504" lon="6.76979">
        <ele>1371.6</ele>
        <time>2026-06-26T07:39:41Z</time>
      </trkpt>
      <trkpt lat="46.06505" lon="6.76981">
        <ele>1371.7</ele>
        <time>2026-06-26T07:39:42Z</time>
      </trkpt>
      <trkpt lat="46.06505" lon="6.7698">
        <ele>1371.9</ele>
        <time>2026-06-26T07:39:43Z</time>
      </trkpt>
      <trkpt lat="46.06506" lon="6.76981">
        <ele>1372</ele>
        <time>2026-06-26T07:39:44Z</time>
      </trkpt>
      <trkpt lat="46.06507" lon="6.76981">
        <ele>1372</ele>
        <time>2026-06-26T07:39:45Z</time>
      </trkpt>
      <trkpt lat="46.06508" lon="6.76981">
        <ele>1372.2</ele>
        <time>2026-06-26T07:39:46Z</time>
      </trkpt>
      <trkpt lat="46.06508" lon="6.7698">
        <ele>1372.3</ele>
        <time>2026-06-26T07:39:47Z</time>
      </trkpt>
      <trkpt lat="46.06508" lon="6.76979">
        <ele>1372.6</ele>
        <time>2026-06-26T07:39:48Z</time>
      </trkpt>
      <trkpt lat="46.06509" lon="6.76979">
        <ele>1372.7</ele>
        <time>2026-06-26T07:39:49Z</time>
      </trkpt>
      <trkpt lat="46.0651" lon="6.76979">
        <ele>1372.8</ele>
        <time>2026-06-26T07:39:50Z</time>
      </trkpt>
      <trkpt lat="46.06511" lon="6.76978">
        <ele>1373</ele>
        <time>2026-06-26T07:39:51Z</time>
      </trkpt>
      <trkpt lat="46.06511" lon="6.76977">
        <ele>1373.1</ele>
        <time>2026-06-26T07:39:52Z</time>
      </trkpt>
      <trkpt lat="46.06512" lon="6.76977">
        <ele>1373.2</ele>
        <time>2026-06-26T07:39:53Z</time>
      </trkpt>
      <trkpt lat="46.06512" lon="6.76976">
        <ele>1373.3</ele>
        <time>2026-06-26T07:39:54Z</time>
      </trkpt>
      <trkpt lat="46.06512" lon="6.76975">
        <ele>1373.4</ele>
        <time>2026-06-26T07:39:55Z</time>
      </trkpt>
      <trkpt lat="46.06513" lon="6.76975">
        <ele>1373.5</ele>
        <time>2026-06-26T07:39:56Z</time>
      </trkpt>
      <trkpt lat="46.06514" lon="6.76974">
        <ele>1373.6</ele>
        <time>2026-06-26T07:39:57Z</time>
      </trkpt>
      <trkpt lat="46.06514" lon="6.76975">
        <ele>1373.7</ele>
        <time>2026-06-26T07:39:58Z</time>
      </trkpt>
      <trkpt lat="46.06516" lon="6.76975">
        <ele>1373.9</ele>
        <time>2026-06-26T07:39:59Z</time>
      </trkpt>
      <trkpt lat="46.06516" lon="6.76975">
        <ele>1374.1</ele>
        <time>2026-06-26T07:40:00Z</time>
      </trkpt>
      <trkpt lat="46.06516" lon="6.76974">
        <ele>1374.3</ele>
        <time>2026-06-26T07:40:01Z</time>
      </trkpt>
      <trkpt lat="46.06517" lon="6.76974">
        <ele>1374.4</ele>
        <time>2026-06-26T07:40:02Z</time>
      </trkpt>
      <trkpt lat="46.06517" lon="6.76974">
        <ele>1374.6</ele>
        <time>2026-06-26T07:40:03Z</time>
      </trkpt>
      <trkpt lat="46.06517" lon="6.76974">
        <ele>1374.8</ele>
        <time>2026-06-26T07:40:04Z</time>
      </trkpt>
      <trkpt lat="46.06518" lon="6.76974">
        <ele>1374.8</ele>
        <time>2026-06-26T07:40:05Z</time>
      </trkpt>
      <trkpt lat="46.06518" lon="6.76973">
        <ele>1374.9</ele>
        <time>2026-06-26T07:40:06Z</time>
      </trkpt>
      <trkpt lat="46.06519" lon="6.76973">
        <ele>1375.1</ele>
        <time>2026-06-26T07:40:07Z</time>
      </trkpt>
      <trkpt lat="46.06519" lon="6.76973">
        <ele>1375.2</ele>
        <time>2026-06-26T07:40:08Z</time>
      </trkpt>
      <trkpt lat="46.0652" lon="6.76973">
        <ele>1375.3</ele>
        <time>2026-06-26T07:40:09Z</time>
      </trkpt>
      <trkpt lat="46.06521" lon="6.76973">
        <ele>1375.5</ele>
        <time>2026-06-26T07:40:10Z</time>
      </trkpt>
      <trkpt lat="46.06521" lon="6.76974">
        <ele>1375.6</ele>
        <time>2026-06-26T07:40:11Z</time>
      </trkpt>
      <trkpt lat="46.06521" lon="6.76973">
        <ele>1375.8</ele>
        <time>2026-06-26T07:40:12Z</time>
      </trkpt>
      <trkpt lat="46.0652" lon="6.76973">
        <ele>1375.8</ele>
        <time>2026-06-26T07:40:13Z</time>
      </trkpt>
      <trkpt lat="46.06521" lon="6.76972">
        <ele>1375.9</ele>
        <time>2026-06-26T07:40:14Z</time>
      </trkpt>
      <trkpt lat="46.06521" lon="6.76971">
        <ele>1376</ele>
        <time>2026-06-26T07:40:15Z</time>
      </trkpt>
      <trkpt lat="46.06521" lon="6.76971">
        <ele>1376</ele>
        <time>2026-06-26T07:40:16Z</time>
      </trkpt>
      <trkpt lat="46.06521" lon="6.76971">
        <ele>1376.1</ele>
        <time>2026-06-26T07:40:17Z</time>
      </trkpt>
      <trkpt lat="46.06522" lon="6.76972">
        <ele>1376.1</ele>
        <time>2026-06-26T07:40:18Z</time>
      </trkpt>
      <trkpt lat="46.06522" lon="6.76971">
        <ele>1376.1</ele>
        <time>2026-06-26T07:40:19Z</time>
      </trkpt>
      <trkpt lat="46.06523" lon="6.76972">
        <ele>1376.2</ele>
        <time>2026-06-26T07:40:20Z</time>
      </trkpt>
      <trkpt lat="46.06523" lon="6.76973">
        <ele>1376.2</ele>
        <time>2026-06-26T07:40:21Z</time>
      </trkpt>
      <trkpt lat="46.06524" lon="6.76973">
        <ele>1376.2</ele>
        <time>2026-06-26T07:40:22Z</time>
      </trkpt>
      <trkpt lat="46.06525" lon="6.76973">
        <ele>1376.3</ele>
        <time>2026-06-26T07:40:23Z</time>
      </trkpt>
      <trkpt lat="46.06525" lon="6.76973">
        <ele>1376.4</ele>
        <time>2026-06-26T07:40:24Z</time>
      </trkpt>
      <trkpt lat="46.06526" lon="6.76973">
        <ele>1376.6</ele>
        <time>2026-06-26T07:40:25Z</time>
      </trkpt>
      <trkpt lat="46.06527" lon="6.76974">
        <ele>1376.7</ele>
        <time>2026-06-26T07:40:26Z</time>
      </trkpt>
      <trkpt lat="46.06527" lon="6.76974">
        <ele>1376.8</ele>
        <time>2026-06-26T07:40:27Z</time>
      </trkpt>
      <trkpt lat="46.06528" lon="6.76974">
        <ele>1377</ele>
        <time>2026-06-26T07:40:28Z</time>
      </trkpt>
      <trkpt lat="46.06528" lon="6.76974">
        <ele>1377.1</ele>
        <time>2026-06-26T07:40:29Z</time>
      </trkpt>
      <trkpt lat="46.06529" lon="6.76974">
        <ele>1377.3</ele>
        <time>2026-06-26T07:40:30Z</time>
      </trkpt>
      <trkpt lat="46.06529" lon="6.76974">
        <ele>1377.4</ele>
        <time>2026-06-26T07:40:31Z</time>
      </trkpt>
      <trkpt lat="46.0653" lon="6.76974">
        <ele>1377.6</ele>
        <time>2026-06-26T07:40:32Z</time>
      </trkpt>
      <trkpt lat="46.0653" lon="6.76974">
        <ele>1377.8</ele>
        <time>2026-06-26T07:40:33Z</time>
      </trkpt>
      <trkpt lat="46.0653" lon="6.76974">
        <ele>1378</ele>
        <time>2026-06-26T07:40:34Z</time>
      </trkpt>
      <trkpt lat="46.0653" lon="6.76974">
        <ele>1378.1</ele>
        <time>2026-06-26T07:40:35Z</time>
      </trkpt>
      <trkpt lat="46.06531" lon="6.76973">
        <ele>1378.2</ele>
        <time>2026-06-26T07:40:36Z</time>
      </trkpt>
      <trkpt lat="46.06531" lon="6.76973">
        <ele>1378.4</ele>
        <time>2026-06-26T07:40:37Z</time>
      </trkpt>
      <trkpt lat="46.06532" lon="6.76973">
        <ele>1378.6</ele>
        <time>2026-06-26T07:40:38Z</time>
      </trkpt>
      <trkpt lat="46.06533" lon="6.76972">
        <ele>1378.8</ele>
        <time>2026-06-26T07:40:39Z</time>
      </trkpt>
      <trkpt lat="46.06533" lon="6.76972">
        <ele>1378.9</ele>
        <time>2026-06-26T07:40:40Z</time>
      </trkpt>
      <trkpt lat="46.06533" lon="6.76971">
        <ele>1379</ele>
        <time>2026-06-26T07:40:41Z</time>
      </trkpt>
      <trkpt lat="46.06534" lon="6.76971">
        <ele>1379.1</ele>
        <time>2026-06-26T07:40:42Z</time>
      </trkpt>
      <trkpt lat="46.06534" lon="6.76971">
        <ele>1379.2</ele>
        <time>2026-06-26T07:40:43Z</time>
      </trkpt>
      <trkpt lat="46.06533" lon="6.76971">
        <ele>1379.4</ele>
        <time>2026-06-26T07:40:44Z</time>
      </trkpt>
      <trkpt lat="46.06533" lon="6.76971">
        <ele>1379.5</ele>
        <time>2026-06-26T07:40:45Z</time>
      </trkpt>
      <trkpt lat="46.06534" lon="6.76971">
        <ele>1379.7</ele>
        <time>2026-06-26T07:40:46Z</time>
      </trkpt>
      <trkpt lat="46.06534" lon="6.76972">
        <ele>1379.8</ele>
        <time>2026-06-26T07:40:47Z</time>
      </trkpt>
      <trkpt lat="46.06534" lon="6.76972">
        <ele>1379.9</ele>
        <time>2026-06-26T07:40:48Z</time>
      </trkpt>
      <trkpt lat="46.06534" lon="6.76972">
        <ele>1380.1</ele>
        <time>2026-06-26T07:40:49Z</time>
      </trkpt>
      <trkpt lat="46.06535" lon="6.76973">
        <ele>1380.2</ele>
        <time>2026-06-26T07:40:50Z</time>
      </trkpt>
      <trkpt lat="46.06534" lon="6.76973">
        <ele>1380.4</ele>
        <time>2026-06-26T07:40:51Z</time>
      </trkpt>
      <trkpt lat="46.06534" lon="6.76973">
        <ele>1380.5</ele>
        <time>2026-06-26T07:40:52Z</time>
      </trkpt>
      <trkpt lat="46.06534" lon="6.76974">
        <ele>1380.7</ele>
        <time>2026-06-26T07:40:53Z</time>
      </trkpt>
      <trkpt lat="46.06534" lon="6.76975">
        <ele>1380.8</ele>
        <time>2026-06-26T07:40:54Z</time>
      </trkpt>
      <trkpt lat="46.06534" lon="6.76975">
        <ele>1380.9</ele>
        <time>2026-06-26T07:40:55Z</time>
      </trkpt>
      <trkpt lat="46.06535" lon="6.76976">
        <ele>1381.1</ele>
        <time>2026-06-26T07:40:56Z</time>
      </trkpt>
      <trkpt lat="46.06536" lon="6.76975">
        <ele>1381.2</ele>
        <time>2026-06-26T07:40:57Z</time>
      </trkpt>
      <trkpt lat="46.06536" lon="6.76976">
        <ele>1381.4</ele>
        <time>2026-06-26T07:40:58Z</time>
      </trkpt>
      <trkpt lat="46.06536" lon="6.76975">
        <ele>1381.5</ele>
        <time>2026-06-26T07:40:59Z</time>
      </trkpt>
      <trkpt lat="46.06536" lon="6.76975">
        <ele>1381.6</ele>
        <time>2026-06-26T07:41:00Z</time>
      </trkpt>
      <trkpt lat="46.06536" lon="6.76976">
        <ele>1381.8</ele>
        <time>2026-06-26T07:41:01Z</time>
      </trkpt>
      <trkpt lat="46.06537" lon="6.76976">
        <ele>1382.1</ele>
        <time>2026-06-26T07:41:02Z</time>
      </trkpt>
      <trkpt lat="46.06537" lon="6.76976">
        <ele>1382.3</ele>
        <time>2026-06-26T07:41:03Z</time>
      </trkpt>
      <trkpt lat="46.06538" lon="6.76975">
        <ele>1382.6</ele>
        <time>2026-06-26T07:41:04Z</time>
      </trkpt>
      <trkpt lat="46.06538" lon="6.76974">
        <ele>1382.7</ele>
        <time>2026-06-26T07:41:05Z</time>
      </trkpt>
      <trkpt lat="46.06539" lon="6.76973">
        <ele>1382.9</ele>
        <time>2026-06-26T07:41:06Z</time>
      </trkpt>
      <trkpt lat="46.06539" lon="6.76974">
        <ele>1383.3</ele>
        <time>2026-06-26T07:41:07Z</time>
      </trkpt>
      <trkpt lat="46.06539" lon="6.76974">
        <ele>1383.5</ele>
        <time>2026-06-26T07:41:08Z</time>
      </trkpt>
      <trkpt lat="46.06539" lon="6.76973">
        <ele>1383.6</ele>
        <time>2026-06-26T07:41:09Z</time>
      </trkpt>
      <trkpt lat="46.06539" lon="6.76973">
        <ele>1383.8</ele>
        <time>2026-06-26T07:41:10Z</time>
      </trkpt>
      <trkpt lat="46.06539" lon="6.76972">
        <ele>1384</ele>
        <time>2026-06-26T07:41:11Z</time>
      </trkpt>
      <trkpt lat="46.0654" lon="6.76971">
        <ele>1384.2</ele>
        <time>2026-06-26T07:41:12Z</time>
      </trkpt>
      <trkpt lat="46.06542" lon="6.76968">
        <ele>1384.4</ele>
        <time>2026-06-26T07:41:13Z</time>
      </trkpt>
      <trkpt lat="46.06544" lon="6.76967">
        <ele>1384.4</ele>
        <time>2026-06-26T07:41:14Z</time>
      </trkpt>
      <trkpt lat="46.06544" lon="6.76967">
        <ele>1384.5</ele>
        <time>2026-06-26T07:41:15Z</time>
      </trkpt>
      <trkpt lat="46.06545" lon="6.76967">
        <ele>1384.6</ele>
        <time>2026-06-26T07:41:16Z</time>
      </trkpt>
      <trkpt lat="46.06546" lon="6.76967">
        <ele>1384.9</ele>
        <time>2026-06-26T07:41:17Z</time>
      </trkpt>
      <trkpt lat="46.06546" lon="6.76967">
        <ele>1385</ele>
        <time>2026-06-26T07:41:18Z</time>
      </trkpt>
      <trkpt lat="46.06548" lon="6.76965">
        <ele>1385.1</ele>
        <time>2026-06-26T07:41:19Z</time>
      </trkpt>
      <trkpt lat="46.06549" lon="6.76964">
        <ele>1385.2</ele>
        <time>2026-06-26T07:41:20Z</time>
      </trkpt>
      <trkpt lat="46.06549" lon="6.76963">
        <ele>1385.3</ele>
        <time>2026-06-26T07:41:21Z</time>
      </trkpt>
      <trkpt lat="46.06549" lon="6.76962">
        <ele>1385.4</ele>
        <time>2026-06-26T07:41:22Z</time>
      </trkpt>
      <trkpt lat="46.06551" lon="6.7696">
        <ele>1385.4</ele>
        <time>2026-06-26T07:41:23Z</time>
      </trkpt>
      <trkpt lat="46.06551" lon="6.76959">
        <ele>1385.5</ele>
        <time>2026-06-26T07:41:24Z</time>
      </trkpt>
      <trkpt lat="46.06552" lon="6.76959">
        <ele>1385.6</ele>
        <time>2026-06-26T07:41:25Z</time>
      </trkpt>
      <trkpt lat="46.06553" lon="6.76959">
        <ele>1385.8</ele>
        <time>2026-06-26T07:41:26Z</time>
      </trkpt>
      <trkpt lat="46.06553" lon="6.76958">
        <ele>1385.9</ele>
        <time>2026-06-26T07:41:27Z</time>
      </trkpt>
      <trkpt lat="46.06554" lon="6.76958">
        <ele>1386.1</ele>
        <time>2026-06-26T07:41:28Z</time>
      </trkpt>
      <trkpt lat="46.06554" lon="6.76958">
        <ele>1386.3</ele>
        <time>2026-06-26T07:41:29Z</time>
      </trkpt>
      <trkpt lat="46.06554" lon="6.76957">
        <ele>1386.4</ele>
        <time>2026-06-26T07:41:30Z</time>
      </trkpt>
      <trkpt lat="46.06554" lon="6.76957">
        <ele>1386.3</ele>
        <time>2026-06-26T07:41:31Z</time>
      </trkpt>
      <trkpt lat="46.06554" lon="6.76957">
        <ele>1386.4</ele>
        <time>2026-06-26T07:41:32Z</time>
      </trkpt>
      <trkpt lat="46.06554" lon="6.76955">
        <ele>1386.4</ele>
        <time>2026-06-26T07:41:33Z</time>
      </trkpt>
      <trkpt lat="46.06555" lon="6.76955">
        <ele>1386.4</ele>
        <time>2026-06-26T07:41:34Z</time>
      </trkpt>
      <trkpt lat="46.06556" lon="6.76954">
        <ele>1386.6</ele>
        <time>2026-06-26T07:41:35Z</time>
      </trkpt>
      <trkpt lat="46.06556" lon="6.76953">
        <ele>1386.8</ele>
        <time>2026-06-26T07:41:36Z</time>
      </trkpt>
      <trkpt lat="46.06556" lon="6.76953">
        <ele>1387</ele>
        <time>2026-06-26T07:41:37Z</time>
      </trkpt>
      <trkpt lat="46.06557" lon="6.76952">
        <ele>1387.3</ele>
        <time>2026-06-26T07:41:38Z</time>
      </trkpt>
      <trkpt lat="46.06558" lon="6.76951">
        <ele>1387.5</ele>
        <time>2026-06-26T07:41:39Z</time>
      </trkpt>
      <trkpt lat="46.0656" lon="6.76951">
        <ele>1387.7</ele>
        <time>2026-06-26T07:41:40Z</time>
      </trkpt>
      <trkpt lat="46.06561" lon="6.76951">
        <ele>1387.8</ele>
        <time>2026-06-26T07:41:41Z</time>
      </trkpt>
      <trkpt lat="46.06561" lon="6.76951">
        <ele>1387.9</ele>
        <time>2026-06-26T07:41:42Z</time>
      </trkpt>
      <trkpt lat="46.06562" lon="6.76951">
        <ele>1387.9</ele>
        <time>2026-06-26T07:41:43Z</time>
      </trkpt>
      <trkpt lat="46.06562" lon="6.7695">
        <ele>1388.1</ele>
        <time>2026-06-26T07:41:44Z</time>
      </trkpt>
      <trkpt lat="46.06561" lon="6.7695">
        <ele>1388.2</ele>
        <time>2026-06-26T07:41:45Z</time>
      </trkpt>
      <trkpt lat="46.06562" lon="6.7695">
        <ele>1388.3</ele>
        <time>2026-06-26T07:41:46Z</time>
      </trkpt>
      <trkpt lat="46.06562" lon="6.7695">
        <ele>1388.4</ele>
        <time>2026-06-26T07:41:47Z</time>
      </trkpt>
      <trkpt lat="46.06562" lon="6.76951">
        <ele>1388.5</ele>
        <time>2026-06-26T07:41:48Z</time>
      </trkpt>
      <trkpt lat="46.06563" lon="6.7695">
        <ele>1388.6</ele>
        <time>2026-06-26T07:41:49Z</time>
      </trkpt>
      <trkpt lat="46.06563" lon="6.7695">
        <ele>1388.7</ele>
        <time>2026-06-26T07:41:50Z</time>
      </trkpt>
      <trkpt lat="46.06563" lon="6.7695">
        <ele>1388.7</ele>
        <time>2026-06-26T07:41:51Z</time>
      </trkpt>
      <trkpt lat="46.06563" lon="6.76949">
        <ele>1388.9</ele>
        <time>2026-06-26T07:41:52Z</time>
      </trkpt>
      <trkpt lat="46.06564" lon="6.76949">
        <ele>1389.1</ele>
        <time>2026-06-26T07:41:53Z</time>
      </trkpt>
      <trkpt lat="46.06566" lon="6.76949">
        <ele>1389.3</ele>
        <time>2026-06-26T07:41:54Z</time>
      </trkpt>
      <trkpt lat="46.06566" lon="6.76949">
        <ele>1389.4</ele>
        <time>2026-06-26T07:41:55Z</time>
      </trkpt>
      <trkpt lat="46.06567" lon="6.76948">
        <ele>1389.5</ele>
        <time>2026-06-26T07:41:56Z</time>
      </trkpt>
      <trkpt lat="46.06567" lon="6.76949">
        <ele>1389.7</ele>
        <time>2026-06-26T07:41:57Z</time>
      </trkpt>
      <trkpt lat="46.06568" lon="6.76948">
        <ele>1389.9</ele>
        <time>2026-06-26T07:41:58Z</time>
      </trkpt>
      <trkpt lat="46.06568" lon="6.76948">
        <ele>1389.9</ele>
        <time>2026-06-26T07:41:59Z</time>
      </trkpt>
      <trkpt lat="46.06569" lon="6.76948">
        <ele>1390</ele>
        <time>2026-06-26T07:42:00Z</time>
      </trkpt>
      <trkpt lat="46.0657" lon="6.76948">
        <ele>1390.1</ele>
        <time>2026-06-26T07:42:01Z</time>
      </trkpt>
      <trkpt lat="46.0657" lon="6.76947">
        <ele>1390.2</ele>
        <time>2026-06-26T07:42:02Z</time>
      </trkpt>
      <trkpt lat="46.06572" lon="6.76947">
        <ele>1390.3</ele>
        <time>2026-06-26T07:42:03Z</time>
      </trkpt>
      <trkpt lat="46.06573" lon="6.76947">
        <ele>1390.6</ele>
        <time>2026-06-26T07:42:04Z</time>
      </trkpt>
      <trkpt lat="46.06573" lon="6.76946">
        <ele>1390.8</ele>
        <time>2026-06-26T07:42:05Z</time>
      </trkpt>
      <trkpt lat="46.06574" lon="6.76945">
        <ele>1390.9</ele>
        <time>2026-06-26T07:42:06Z</time>
      </trkpt>
      <trkpt lat="46.06574" lon="6.76946">
        <ele>1391.1</ele>
        <time>2026-06-26T07:42:07Z</time>
      </trkpt>
      <trkpt lat="46.06575" lon="6.76944">
        <ele>1391.4</ele>
        <time>2026-06-26T07:42:08Z</time>
      </trkpt>
      <trkpt lat="46.06577" lon="6.76945">
        <ele>1391.6</ele>
        <time>2026-06-26T07:42:09Z</time>
      </trkpt>
      <trkpt lat="46.06577" lon="6.76945">
        <ele>1391.7</ele>
        <time>2026-06-26T07:42:10Z</time>
      </trkpt>
      <trkpt lat="46.06578" lon="6.76945">
        <ele>1391.9</ele>
        <time>2026-06-26T07:42:11Z</time>
      </trkpt>
      <trkpt lat="46.06578" lon="6.76944">
        <ele>1392</ele>
        <time>2026-06-26T07:42:12Z</time>
      </trkpt>
      <trkpt lat="46.06578" lon="6.76943">
        <ele>1392.1</ele>
        <time>2026-06-26T07:42:13Z</time>
      </trkpt>
      <trkpt lat="46.06579" lon="6.76944">
        <ele>1392.2</ele>
        <time>2026-06-26T07:42:14Z</time>
      </trkpt>
      <trkpt lat="46.06579" lon="6.76943">
        <ele>1392.3</ele>
        <time>2026-06-26T07:42:15Z</time>
      </trkpt>
      <trkpt lat="46.06579" lon="6.76942">
        <ele>1392.4</ele>
        <time>2026-06-26T07:42:16Z</time>
      </trkpt>
      <trkpt lat="46.0658" lon="6.76941">
        <ele>1392.5</ele>
        <time>2026-06-26T07:42:17Z</time>
      </trkpt>
      <trkpt lat="46.0658" lon="6.7694">
        <ele>1392.6</ele>
        <time>2026-06-26T07:42:18Z</time>
      </trkpt>
      <trkpt lat="46.06581" lon="6.76939">
        <ele>1392.7</ele>
        <time>2026-06-26T07:42:19Z</time>
      </trkpt>
      <trkpt lat="46.06581" lon="6.76939">
        <ele>1392.8</ele>
        <time>2026-06-26T07:42:20Z</time>
      </trkpt>
      <trkpt lat="46.06582" lon="6.76938">
        <ele>1392.9</ele>
        <time>2026-06-26T07:42:21Z</time>
      </trkpt>
      <trkpt lat="46.06581" lon="6.76936">
        <ele>1393</ele>
        <time>2026-06-26T07:42:22Z</time>
      </trkpt>
      <trkpt lat="46.06582" lon="6.76936">
        <ele>1393.2</ele>
        <time>2026-06-26T07:42:23Z</time>
      </trkpt>
      <trkpt lat="46.06582" lon="6.76933">
        <ele>1393.4</ele>
        <time>2026-06-26T07:42:24Z</time>
      </trkpt>
      <trkpt lat="46.06583" lon="6.76933">
        <ele>1393.5</ele>
        <time>2026-06-26T07:42:25Z</time>
      </trkpt>
      <trkpt lat="46.06584" lon="6.76933">
        <ele>1393.6</ele>
        <time>2026-06-26T07:42:26Z</time>
      </trkpt>
      <trkpt lat="46.06584" lon="6.76932">
        <ele>1393.6</ele>
        <time>2026-06-26T07:42:27Z</time>
      </trkpt>
      <trkpt lat="46.06585" lon="6.76932">
        <ele>1393.6</ele>
        <time>2026-06-26T07:42:28Z</time>
      </trkpt>
      <trkpt lat="46.06586" lon="6.76933">
        <ele>1393.7</ele>
        <time>2026-06-26T07:42:29Z</time>
      </trkpt>
      <trkpt lat="46.06586" lon="6.76932">
        <ele>1393.9</ele>
        <time>2026-06-26T07:42:30Z</time>
      </trkpt>
      <trkpt lat="46.06588" lon="6.76929">
        <ele>1394</ele>
        <time>2026-06-26T07:42:31Z</time>
      </trkpt>
      <trkpt lat="46.06589" lon="6.76928">
        <ele>1394.2</ele>
        <time>2026-06-26T07:42:32Z</time>
      </trkpt>
      <trkpt lat="46.0659" lon="6.76925">
        <ele>1394.4</ele>
        <time>2026-06-26T07:42:33Z</time>
      </trkpt>
      <trkpt lat="46.06591" lon="6.76925">
        <ele>1394.6</ele>
        <time>2026-06-26T07:42:34Z</time>
      </trkpt>
      <trkpt lat="46.06592" lon="6.76925">
        <ele>1394.7</ele>
        <time>2026-06-26T07:42:35Z</time>
      </trkpt>
      <trkpt lat="46.06593" lon="6.76924">
        <ele>1394.8</ele>
        <time>2026-06-26T07:42:36Z</time>
      </trkpt>
      <trkpt lat="46.06594" lon="6.76923">
        <ele>1395.1</ele>
        <time>2026-06-26T07:42:37Z</time>
      </trkpt>
      <trkpt lat="46.06594" lon="6.76922">
        <ele>1395.2</ele>
        <time>2026-06-26T07:42:38Z</time>
      </trkpt>
      <trkpt lat="46.06594" lon="6.76922">
        <ele>1395.4</ele>
        <time>2026-06-26T07:42:39Z</time>
      </trkpt>
      <trkpt lat="46.06594" lon="6.7692">
        <ele>1395.5</ele>
        <time>2026-06-26T07:42:40Z</time>
      </trkpt>
      <trkpt lat="46.06595" lon="6.7692">
        <ele>1395.7</ele>
        <time>2026-06-26T07:42:41Z</time>
      </trkpt>
      <trkpt lat="46.06596" lon="6.76918">
        <ele>1395.8</ele>
        <time>2026-06-26T07:42:42Z</time>
      </trkpt>
      <trkpt lat="46.06597" lon="6.76919">
        <ele>1395.9</ele>
        <time>2026-06-26T07:42:43Z</time>
      </trkpt>
      <trkpt lat="46.06597" lon="6.76919">
        <ele>1396</ele>
        <time>2026-06-26T07:42:44Z</time>
      </trkpt>
      <trkpt lat="46.06598" lon="6.76918">
        <ele>1396.1</ele>
        <time>2026-06-26T07:42:45Z</time>
      </trkpt>
      <trkpt lat="46.06598" lon="6.76918">
        <ele>1396.1</ele>
        <time>2026-06-26T07:42:46Z</time>
      </trkpt>
      <trkpt lat="46.06598" lon="6.76918">
        <ele>1396.2</ele>
        <time>2026-06-26T07:42:47Z</time>
      </trkpt>
      <trkpt lat="46.06599" lon="6.76917">
        <ele>1396.3</ele>
        <time>2026-06-26T07:42:48Z</time>
      </trkpt>
      <trkpt lat="46.066" lon="6.76916">
        <ele>1396.4</ele>
        <time>2026-06-26T07:42:49Z</time>
      </trkpt>
      <trkpt lat="46.066" lon="6.76916">
        <ele>1396.5</ele>
        <time>2026-06-26T07:42:50Z</time>
      </trkpt>
      <trkpt lat="46.06601" lon="6.76916">
        <ele>1396.6</ele>
        <time>2026-06-26T07:42:51Z</time>
      </trkpt>
      <trkpt lat="46.06602" lon="6.76916">
        <ele>1396.8</ele>
        <time>2026-06-26T07:42:52Z</time>
      </trkpt>
      <trkpt lat="46.06602" lon="6.76916">
        <ele>1396.9</ele>
        <time>2026-06-26T07:42:53Z</time>
      </trkpt>
      <trkpt lat="46.06602" lon="6.76916">
        <ele>1397</ele>
        <time>2026-06-26T07:42:54Z</time>
      </trkpt>
      <trkpt lat="46.06603" lon="6.76916">
        <ele>1397.1</ele>
        <time>2026-06-26T07:42:55Z</time>
      </trkpt>
      <trkpt lat="46.06602" lon="6.76915">
        <ele>1397.1</ele>
        <time>2026-06-26T07:42:56Z</time>
      </trkpt>
      <trkpt lat="46.06603" lon="6.76915">
        <ele>1397.2</ele>
        <time>2026-06-26T07:42:57Z</time>
      </trkpt>
      <trkpt lat="46.06603" lon="6.76915">
        <ele>1397.2</ele>
        <time>2026-06-26T07:42:58Z</time>
      </trkpt>
      <trkpt lat="46.06603" lon="6.76915">
        <ele>1397.4</ele>
        <time>2026-06-26T07:42:59Z</time>
      </trkpt>
      <trkpt lat="46.06604" lon="6.76915">
        <ele>1397.5</ele>
        <time>2026-06-26T07:43:00Z</time>
      </trkpt>
      <trkpt lat="46.06604" lon="6.76914">
        <ele>1397.6</ele>
        <time>2026-06-26T07:43:01Z</time>
      </trkpt>
      <trkpt lat="46.06604" lon="6.76912">
        <ele>1397.7</ele>
        <time>2026-06-26T07:43:02Z</time>
      </trkpt>
      <trkpt lat="46.06605" lon="6.76912">
        <ele>1397.8</ele>
        <time>2026-06-26T07:43:03Z</time>
      </trkpt>
      <trkpt lat="46.06606" lon="6.76912">
        <ele>1397.9</ele>
        <time>2026-06-26T07:43:04Z</time>
      </trkpt>
      <trkpt lat="46.06606" lon="6.76912">
        <ele>1398</ele>
        <time>2026-06-26T07:43:05Z</time>
      </trkpt>
      <trkpt lat="46.06607" lon="6.76911">
        <ele>1398.1</ele>
        <time>2026-06-26T07:43:06Z</time>
      </trkpt>
      <trkpt lat="46.06609" lon="6.7691">
        <ele>1398.2</ele>
        <time>2026-06-26T07:43:07Z</time>
      </trkpt>
      <trkpt lat="46.06611" lon="6.7691">
        <ele>1398.3</ele>
        <time>2026-06-26T07:43:08Z</time>
      </trkpt>
      <trkpt lat="46.06612" lon="6.7691">
        <ele>1398.4</ele>
        <time>2026-06-26T07:43:09Z</time>
      </trkpt>
      <trkpt lat="46.06612" lon="6.7691">
        <ele>1398.5</ele>
        <time>2026-06-26T07:43:10Z</time>
      </trkpt>
      <trkpt lat="46.06613" lon="6.76908">
        <ele>1398.7</ele>
        <time>2026-06-26T07:43:11Z</time>
      </trkpt>
      <trkpt lat="46.06614" lon="6.76908">
        <ele>1398.8</ele>
        <time>2026-06-26T07:43:12Z</time>
      </trkpt>
      <trkpt lat="46.06614" lon="6.76907">
        <ele>1399</ele>
        <time>2026-06-26T07:43:13Z</time>
      </trkpt>
      <trkpt lat="46.06615" lon="6.76907">
        <ele>1399.2</ele>
        <time>2026-06-26T07:43:14Z</time>
      </trkpt>
      <trkpt lat="46.06615" lon="6.76906">
        <ele>1399.3</ele>
        <time>2026-06-26T07:43:15Z</time>
      </trkpt>
      <trkpt lat="46.06616" lon="6.76906">
        <ele>1399.5</ele>
        <time>2026-06-26T07:43:16Z</time>
      </trkpt>
      <trkpt lat="46.06617" lon="6.76905">
        <ele>1399.6</ele>
        <time>2026-06-26T07:43:17Z</time>
      </trkpt>
      <trkpt lat="46.06618" lon="6.76905">
        <ele>1399.8</ele>
        <time>2026-06-26T07:43:18Z</time>
      </trkpt>
      <trkpt lat="46.06618" lon="6.76905">
        <ele>1400</ele>
        <time>2026-06-26T07:43:19Z</time>
      </trkpt>
      <trkpt lat="46.06619" lon="6.76905">
        <ele>1400.1</ele>
        <time>2026-06-26T07:43:20Z</time>
      </trkpt>
      <trkpt lat="46.0662" lon="6.76904">
        <ele>1400.2</ele>
        <time>2026-06-26T07:43:21Z</time>
      </trkpt>
      <trkpt lat="46.0662" lon="6.76905">
        <ele>1400.4</ele>
        <time>2026-06-26T07:43:22Z</time>
      </trkpt>
      <trkpt lat="46.06621" lon="6.76903">
        <ele>1400.5</ele>
        <time>2026-06-26T07:43:23Z</time>
      </trkpt>
      <trkpt lat="46.06621" lon="6.76902">
        <ele>1400.6</ele>
        <time>2026-06-26T07:43:24Z</time>
      </trkpt>
      <trkpt lat="46.06622" lon="6.76902">
        <ele>1400.7</ele>
        <time>2026-06-26T07:43:25Z</time>
      </trkpt>
      <trkpt lat="46.06623" lon="6.76901">
        <ele>1400.7</ele>
        <time>2026-06-26T07:43:26Z</time>
      </trkpt>
      <trkpt lat="46.06623" lon="6.76901">
        <ele>1400.6</ele>
        <time>2026-06-26T07:43:27Z</time>
      </trkpt>
      <trkpt lat="46.06624" lon="6.76901">
        <ele>1400.6</ele>
        <time>2026-06-26T07:43:28Z</time>
      </trkpt>
      <trkpt lat="46.06624" lon="6.76901">
        <ele>1400.6</ele>
        <time>2026-06-26T07:43:29Z</time>
      </trkpt>
      <trkpt lat="46.06624" lon="6.769">
        <ele>1400.7</ele>
        <time>2026-06-26T07:43:30Z</time>
      </trkpt>
      <trkpt lat="46.06623" lon="6.76898">
        <ele>1400.8</ele>
        <time>2026-06-26T07:43:31Z</time>
      </trkpt>
      <trkpt lat="46.06623" lon="6.76898">
        <ele>1400.9</ele>
        <time>2026-06-26T07:43:32Z</time>
      </trkpt>
      <trkpt lat="46.06623" lon="6.76898">
        <ele>1401.2</ele>
        <time>2026-06-26T07:43:33Z</time>
      </trkpt>
      <trkpt lat="46.06623" lon="6.76897">
        <ele>1401.3</ele>
        <time>2026-06-26T07:43:34Z</time>
      </trkpt>
      <trkpt lat="46.06624" lon="6.76897">
        <ele>1401.4</ele>
        <time>2026-06-26T07:43:35Z</time>
      </trkpt>
      <trkpt lat="46.06625" lon="6.76898">
        <ele>1401.5</ele>
        <time>2026-06-26T07:43:36Z</time>
      </trkpt>
      <trkpt lat="46.06625" lon="6.76897">
        <ele>1401.6</ele>
        <time>2026-06-26T07:43:37Z</time>
      </trkpt>
      <trkpt lat="46.06626" lon="6.76897">
        <ele>1401.7</ele>
        <time>2026-06-26T07:43:38Z</time>
      </trkpt>
      <trkpt lat="46.06627" lon="6.76897">
        <ele>1401.8</ele>
        <time>2026-06-26T07:43:39Z</time>
      </trkpt>
      <trkpt lat="46.06628" lon="6.76897">
        <ele>1401.9</ele>
        <time>2026-06-26T07:43:40Z</time>
      </trkpt>
      <trkpt lat="46.06628" lon="6.76897">
        <ele>1401.9</ele>
        <time>2026-06-26T07:43:41Z</time>
      </trkpt>
      <trkpt lat="46.06629" lon="6.76897">
        <ele>1402</ele>
        <time>2026-06-26T07:43:42Z</time>
      </trkpt>
      <trkpt lat="46.06629" lon="6.76897">
        <ele>1402.1</ele>
        <time>2026-06-26T07:43:43Z</time>
      </trkpt>
      <trkpt lat="46.06629" lon="6.76896">
        <ele>1402.2</ele>
        <time>2026-06-26T07:43:44Z</time>
      </trkpt>
      <trkpt lat="46.0663" lon="6.76895">
        <ele>1402.4</ele>
        <time>2026-06-26T07:43:45Z</time>
      </trkpt>
      <trkpt lat="46.0663" lon="6.76895">
        <ele>1402.6</ele>
        <time>2026-06-26T07:43:46Z</time>
      </trkpt>
      <trkpt lat="46.06631" lon="6.76894">
        <ele>1402.7</ele>
        <time>2026-06-26T07:43:47Z</time>
      </trkpt>
      <trkpt lat="46.06631" lon="6.76893">
        <ele>1402.9</ele>
        <time>2026-06-26T07:43:48Z</time>
      </trkpt>
      <trkpt lat="46.06632" lon="6.76893">
        <ele>1403.1</ele>
        <time>2026-06-26T07:43:49Z</time>
      </trkpt>
      <trkpt lat="46.06632" lon="6.76892">
        <ele>1403.2</ele>
        <time>2026-06-26T07:43:50Z</time>
      </trkpt>
      <trkpt lat="46.06633" lon="6.76892">
        <ele>1403.3</ele>
        <time>2026-06-26T07:43:51Z</time>
      </trkpt>
      <trkpt lat="46.06634" lon="6.76893">
        <ele>1403.4</ele>
        <time>2026-06-26T07:43:52Z</time>
      </trkpt>
      <trkpt lat="46.06635" lon="6.76892">
        <ele>1403.5</ele>
        <time>2026-06-26T07:43:53Z</time>
      </trkpt>
      <trkpt lat="46.06636" lon="6.76891">
        <ele>1403.7</ele>
        <time>2026-06-26T07:43:54Z</time>
      </trkpt>
      <trkpt lat="46.06637" lon="6.7689">
        <ele>1403.8</ele>
        <time>2026-06-26T07:43:55Z</time>
      </trkpt>
      <trkpt lat="46.06637" lon="6.76889">
        <ele>1404</ele>
        <time>2026-06-26T07:43:56Z</time>
      </trkpt>
      <trkpt lat="46.06637" lon="6.76889">
        <ele>1404.1</ele>
        <time>2026-06-26T07:43:57Z</time>
      </trkpt>
      <trkpt lat="46.06637" lon="6.76889">
        <ele>1404.3</ele>
        <time>2026-06-26T07:43:58Z</time>
      </trkpt>
      <trkpt lat="46.06638" lon="6.76888">
        <ele>1404.4</ele>
        <time>2026-06-26T07:43:59Z</time>
      </trkpt>
      <trkpt lat="46.06639" lon="6.76888">
        <ele>1404.4</ele>
        <time>2026-06-26T07:44:00Z</time>
      </trkpt>
      <trkpt lat="46.0664" lon="6.76888">
        <ele>1404.5</ele>
        <time>2026-06-26T07:44:01Z</time>
      </trkpt>
      <trkpt lat="46.0664" lon="6.76887">
        <ele>1404.6</ele>
        <time>2026-06-26T07:44:02Z</time>
      </trkpt>
      <trkpt lat="46.0664" lon="6.76887">
        <ele>1404.7</ele>
        <time>2026-06-26T07:44:03Z</time>
      </trkpt>
      <trkpt lat="46.06641" lon="6.76886">
        <ele>1404.8</ele>
        <time>2026-06-26T07:44:04Z</time>
      </trkpt>
      <trkpt lat="46.06642" lon="6.76886">
        <ele>1404.9</ele>
        <time>2026-06-26T07:44:05Z</time>
      </trkpt>
      <trkpt lat="46.06643" lon="6.76886">
        <ele>1405.1</ele>
        <time>2026-06-26T07:44:06Z</time>
      </trkpt>
      <trkpt lat="46.06645" lon="6.76884">
        <ele>1405.2</ele>
        <time>2026-06-26T07:44:07Z</time>
      </trkpt>
      <trkpt lat="46.06645" lon="6.76881">
        <ele>1405.3</ele>
        <time>2026-06-26T07:44:08Z</time>
      </trkpt>
      <trkpt lat="46.06645" lon="6.7688">
        <ele>1405.4</ele>
        <time>2026-06-26T07:44:09Z</time>
      </trkpt>
      <trkpt lat="46.06646" lon="6.76879">
        <ele>1405.4</ele>
        <time>2026-06-26T07:44:10Z</time>
      </trkpt>
      <trkpt lat="46.06647" lon="6.76878">
        <ele>1405.6</ele>
        <time>2026-06-26T07:44:11Z</time>
      </trkpt>
      <trkpt lat="46.06647" lon="6.76877">
        <ele>1405.7</ele>
        <time>2026-06-26T07:44:12Z</time>
      </trkpt>
      <trkpt lat="46.06649" lon="6.76876">
        <ele>1405.8</ele>
        <time>2026-06-26T07:44:13Z</time>
      </trkpt>
      <trkpt lat="46.0665" lon="6.76876">
        <ele>1405.9</ele>
        <time>2026-06-26T07:44:14Z</time>
      </trkpt>
      <trkpt lat="46.0665" lon="6.76875">
        <ele>1406.1</ele>
        <time>2026-06-26T07:44:15Z</time>
      </trkpt>
      <trkpt lat="46.06651" lon="6.76874">
        <ele>1406.2</ele>
        <time>2026-06-26T07:44:16Z</time>
      </trkpt>
      <trkpt lat="46.06652" lon="6.76874">
        <ele>1406.4</ele>
        <time>2026-06-26T07:44:17Z</time>
      </trkpt>
      <trkpt lat="46.06653" lon="6.76873">
        <ele>1406.5</ele>
        <time>2026-06-26T07:44:18Z</time>
      </trkpt>
      <trkpt lat="46.06655" lon="6.76873">
        <ele>1406.7</ele>
        <time>2026-06-26T07:44:19Z</time>
      </trkpt>
      <trkpt lat="46.06656" lon="6.76872">
        <ele>1406.8</ele>
        <time>2026-06-26T07:44:20Z</time>
      </trkpt>
      <trkpt lat="46.06657" lon="6.76871">
        <ele>1406.9</ele>
        <time>2026-06-26T07:44:21Z</time>
      </trkpt>
      <trkpt lat="46.06657" lon="6.76871">
        <ele>1407</ele>
        <time>2026-06-26T07:44:22Z</time>
      </trkpt>
      <trkpt lat="46.06658" lon="6.76871">
        <ele>1407.1</ele>
        <time>2026-06-26T07:44:23Z</time>
      </trkpt>
      <trkpt lat="46.06659" lon="6.76871">
        <ele>1407.1</ele>
        <time>2026-06-26T07:44:24Z</time>
      </trkpt>
      <trkpt lat="46.0666" lon="6.76871">
        <ele>1407.2</ele>
        <time>2026-06-26T07:44:25Z</time>
      </trkpt>
      <trkpt lat="46.0666" lon="6.7687">
        <ele>1407.3</ele>
        <time>2026-06-26T07:44:26Z</time>
      </trkpt>
      <trkpt lat="46.06662" lon="6.7687">
        <ele>1407.3</ele>
        <time>2026-06-26T07:44:27Z</time>
      </trkpt>
      <trkpt lat="46.06662" lon="6.7687">
        <ele>1407.4</ele>
        <time>2026-06-26T07:44:28Z</time>
      </trkpt>
      <trkpt lat="46.06663" lon="6.76871">
        <ele>1407.4</ele>
        <time>2026-06-26T07:44:29Z</time>
      </trkpt>
      <trkpt lat="46.06663" lon="6.76871">
        <ele>1407.5</ele>
        <time>2026-06-26T07:44:30Z</time>
      </trkpt>
      <trkpt lat="46.06664" lon="6.76871">
        <ele>1407.6</ele>
        <time>2026-06-26T07:44:31Z</time>
      </trkpt>
      <trkpt lat="46.06664" lon="6.76871">
        <ele>1407.8</ele>
        <time>2026-06-26T07:44:32Z</time>
      </trkpt>
      <trkpt lat="46.06664" lon="6.7687">
        <ele>1408</ele>
        <time>2026-06-26T07:44:33Z</time>
      </trkpt>
      <trkpt lat="46.06665" lon="6.7687">
        <ele>1408.1</ele>
        <time>2026-06-26T07:44:34Z</time>
      </trkpt>
      <trkpt lat="46.06664" lon="6.7687">
        <ele>1408.3</ele>
        <time>2026-06-26T07:44:35Z</time>
      </trkpt>
      <trkpt lat="46.06665" lon="6.7687">
        <ele>1408.4</ele>
        <time>2026-06-26T07:44:36Z</time>
      </trkpt>
      <trkpt lat="46.06664" lon="6.7687">
        <ele>1408.6</ele>
        <time>2026-06-26T07:44:37Z</time>
      </trkpt>
      <trkpt lat="46.06665" lon="6.76871">
        <ele>1408.7</ele>
        <time>2026-06-26T07:44:38Z</time>
      </trkpt>
      <trkpt lat="46.06666" lon="6.76871">
        <ele>1408.9</ele>
        <time>2026-06-26T07:44:39Z</time>
      </trkpt>
      <trkpt lat="46.06667" lon="6.76872">
        <ele>1408.9</ele>
        <time>2026-06-26T07:44:40Z</time>
      </trkpt>
      <trkpt lat="46.06667" lon="6.76872">
        <ele>1409</ele>
        <time>2026-06-26T07:44:41Z</time>
      </trkpt>
      <trkpt lat="46.06668" lon="6.76871">
        <ele>1409.1</ele>
        <time>2026-06-26T07:44:42Z</time>
      </trkpt>
      <trkpt lat="46.06669" lon="6.76871">
        <ele>1409.3</ele>
        <time>2026-06-26T07:44:43Z</time>
      </trkpt>
      <trkpt lat="46.06668" lon="6.76871">
        <ele>1409.4</ele>
        <time>2026-06-26T07:44:44Z</time>
      </trkpt>
      <trkpt lat="46.0667" lon="6.76876">
        <ele>1409.6</ele>
        <time>2026-06-26T07:44:45Z</time>
      </trkpt>
      <trkpt lat="46.0667" lon="6.76876">
        <ele>1409.6</ele>
        <time>2026-06-26T07:44:46Z</time>
      </trkpt>
      <trkpt lat="46.06672" lon="6.76877">
        <ele>1409.7</ele>
        <time>2026-06-26T07:44:47Z</time>
      </trkpt>
      <trkpt lat="46.06673" lon="6.76878">
        <ele>1409.8</ele>
        <time>2026-06-26T07:44:48Z</time>
      </trkpt>
      <trkpt lat="46.06674" lon="6.76878">
        <ele>1410</ele>
        <time>2026-06-26T07:44:49Z</time>
      </trkpt>
      <trkpt lat="46.06675" lon="6.76878">
        <ele>1410.1</ele>
        <time>2026-06-26T07:44:50Z</time>
      </trkpt>
      <trkpt lat="46.06676" lon="6.76877">
        <ele>1410.4</ele>
        <time>2026-06-26T07:44:51Z</time>
      </trkpt>
      <trkpt lat="46.06677" lon="6.76876">
        <ele>1410.5</ele>
        <time>2026-06-26T07:44:52Z</time>
      </trkpt>
      <trkpt lat="46.06677" lon="6.76875">
        <ele>1410.6</ele>
        <time>2026-06-26T07:44:53Z</time>
      </trkpt>
      <trkpt lat="46.06679" lon="6.76875">
        <ele>1410.7</ele>
        <time>2026-06-26T07:44:54Z</time>
      </trkpt>
      <trkpt lat="46.06679" lon="6.76874">
        <ele>1410.8</ele>
        <time>2026-06-26T07:44:55Z</time>
      </trkpt>
      <trkpt lat="46.0668" lon="6.76873">
        <ele>1411</ele>
        <time>2026-06-26T07:44:56Z</time>
      </trkpt>
      <trkpt lat="46.0668" lon="6.76872">
        <ele>1411.2</ele>
        <time>2026-06-26T07:44:57Z</time>
      </trkpt>
      <trkpt lat="46.06681" lon="6.76872">
        <ele>1411.3</ele>
        <time>2026-06-26T07:44:58Z</time>
      </trkpt>
      <trkpt lat="46.06681" lon="6.76871">
        <ele>1411.5</ele>
        <time>2026-06-26T07:44:59Z</time>
      </trkpt>
      <trkpt lat="46.06682" lon="6.76871">
        <ele>1411.7</ele>
        <time>2026-06-26T07:45:00Z</time>
      </trkpt>
      <trkpt lat="46.06683" lon="6.76871">
        <ele>1411.9</ele>
        <time>2026-06-26T07:45:01Z</time>
      </trkpt>
      <trkpt lat="46.06683" lon="6.76871">
        <ele>1412.1</ele>
        <time>2026-06-26T07:45:02Z</time>
      </trkpt>
      <trkpt lat="46.06684" lon="6.76871">
        <ele>1412.3</ele>
        <time>2026-06-26T07:45:03Z</time>
      </trkpt>
      <trkpt lat="46.06685" lon="6.76871">
        <ele>1412.5</ele>
        <time>2026-06-26T07:45:04Z</time>
      </trkpt>
      <trkpt lat="46.06685" lon="6.76869">
        <ele>1412.6</ele>
        <time>2026-06-26T07:45:05Z</time>
      </trkpt>
      <trkpt lat="46.06685" lon="6.76868">
        <ele>1412.7</ele>
        <time>2026-06-26T07:45:06Z</time>
      </trkpt>
      <trkpt lat="46.06685" lon="6.76867">
        <ele>1412.9</ele>
        <time>2026-06-26T07:45:07Z</time>
      </trkpt>
      <trkpt lat="46.06686" lon="6.76867">
        <ele>1413</ele>
        <time>2026-06-26T07:45:08Z</time>
      </trkpt>
      <trkpt lat="46.06686" lon="6.76867">
        <ele>1413.1</ele>
        <time>2026-06-26T07:45:09Z</time>
      </trkpt>
      <trkpt lat="46.06687" lon="6.76865">
        <ele>1413.3</ele>
        <time>2026-06-26T07:45:10Z</time>
      </trkpt>
      <trkpt lat="46.06687" lon="6.76864">
        <ele>1413.4</ele>
        <time>2026-06-26T07:45:11Z</time>
      </trkpt>
      <trkpt lat="46.06687" lon="6.76863">
        <ele>1413.5</ele>
        <time>2026-06-26T07:45:12Z</time>
      </trkpt>
      <trkpt lat="46.06687" lon="6.76862">
        <ele>1413.7</ele>
        <time>2026-06-26T07:45:13Z</time>
      </trkpt>
      <trkpt lat="46.06688" lon="6.76862">
        <ele>1413.8</ele>
        <time>2026-06-26T07:45:14Z</time>
      </trkpt>
      <trkpt lat="46.06688" lon="6.76862">
        <ele>1413.9</ele>
        <time>2026-06-26T07:45:15Z</time>
      </trkpt>
      <trkpt lat="46.06689" lon="6.76862">
        <ele>1413.9</ele>
        <time>2026-06-26T07:45:16Z</time>
      </trkpt>
      <trkpt lat="46.06689" lon="6.7686">
        <ele>1414</ele>
        <time>2026-06-26T07:45:17Z</time>
      </trkpt>
      <trkpt lat="46.06689" lon="6.76858">
        <ele>1414.1</ele>
        <time>2026-06-26T07:45:18Z</time>
      </trkpt>
      <trkpt lat="46.06689" lon="6.76858">
        <ele>1414.1</ele>
        <time>2026-06-26T07:45:19Z</time>
      </trkpt>
      <trkpt lat="46.06689" lon="6.76856">
        <ele>1414.2</ele>
        <time>2026-06-26T07:45:20Z</time>
      </trkpt>
      <trkpt lat="46.06689" lon="6.76855">
        <ele>1414.4</ele>
        <time>2026-06-26T07:45:21Z</time>
      </trkpt>
      <trkpt lat="46.0669" lon="6.76855">
        <ele>1414.5</ele>
        <time>2026-06-26T07:45:22Z</time>
      </trkpt>
      <trkpt lat="46.0669" lon="6.76855">
        <ele>1414.7</ele>
        <time>2026-06-26T07:45:23Z</time>
      </trkpt>
      <trkpt lat="46.06691" lon="6.76854">
        <ele>1414.8</ele>
        <time>2026-06-26T07:45:24Z</time>
      </trkpt>
      <trkpt lat="46.06692" lon="6.76853">
        <ele>1415</ele>
        <time>2026-06-26T07:45:25Z</time>
      </trkpt>
      <trkpt lat="46.06692" lon="6.76854">
        <ele>1415.1</ele>
        <time>2026-06-26T07:45:26Z</time>
      </trkpt>
      <trkpt lat="46.06693" lon="6.76853">
        <ele>1415.2</ele>
        <time>2026-06-26T07:45:27Z</time>
      </trkpt>
      <trkpt lat="46.06693" lon="6.76852">
        <ele>1415.3</ele>
        <time>2026-06-26T07:45:28Z</time>
      </trkpt>
      <trkpt lat="46.06693" lon="6.76851">
        <ele>1415.4</ele>
        <time>2026-06-26T07:45:29Z</time>
      </trkpt>
      <trkpt lat="46.06693" lon="6.7685">
        <ele>1415.5</ele>
        <time>2026-06-26T07:45:30Z</time>
      </trkpt>
      <trkpt lat="46.06693" lon="6.7685">
        <ele>1415.7</ele>
        <time>2026-06-26T07:45:31Z</time>
      </trkpt>
      <trkpt lat="46.06693" lon="6.76849">
        <ele>1415.9</ele>
        <time>2026-06-26T07:45:32Z</time>
      </trkpt>
      <trkpt lat="46.06693" lon="6.7685">
        <ele>1416.1</ele>
        <time>2026-06-26T07:45:33Z</time>
      </trkpt>
      <trkpt lat="46.06693" lon="6.76849">
        <ele>1416.2</ele>
        <time>2026-06-26T07:45:34Z</time>
      </trkpt>
      <trkpt lat="46.06693" lon="6.76848">
        <ele>1416.3</ele>
        <time>2026-06-26T07:45:35Z</time>
      </trkpt>
      <trkpt lat="46.06692" lon="6.76848">
        <ele>1416.4</ele>
        <time>2026-06-26T07:45:36Z</time>
      </trkpt>
      <trkpt lat="46.06691" lon="6.76849">
        <ele>1416.6</ele>
        <time>2026-06-26T07:45:37Z</time>
      </trkpt>
      <trkpt lat="46.06691" lon="6.76849">
        <ele>1416.7</ele>
        <time>2026-06-26T07:45:38Z</time>
      </trkpt>
      <trkpt lat="46.0669" lon="6.76849">
        <ele>1416.8</ele>
        <time>2026-06-26T07:45:39Z</time>
      </trkpt>
      <trkpt lat="46.0669" lon="6.7685">
        <ele>1416.9</ele>
        <time>2026-06-26T07:45:40Z</time>
      </trkpt>
      <trkpt lat="46.06691" lon="6.7685">
        <ele>1417</ele>
        <time>2026-06-26T07:45:41Z</time>
      </trkpt>
      <trkpt lat="46.0669" lon="6.76851">
        <ele>1417.1</ele>
        <time>2026-06-26T07:45:42Z</time>
      </trkpt>
      <trkpt lat="46.0669" lon="6.76852">
        <ele>1417.3</ele>
        <time>2026-06-26T07:45:43Z</time>
      </trkpt>
      <trkpt lat="46.06689" lon="6.76852">
        <ele>1417.4</ele>
        <time>2026-06-26T07:45:44Z</time>
      </trkpt>
      <trkpt lat="46.06688" lon="6.76853">
        <ele>1417.5</ele>
        <time>2026-06-26T07:45:45Z</time>
      </trkpt>
      <trkpt lat="46.06688" lon="6.76853">
        <ele>1417.6</ele>
        <time>2026-06-26T07:45:46Z</time>
      </trkpt>
      <trkpt lat="46.06687" lon="6.76853">
        <ele>1417.7</ele>
        <time>2026-06-26T07:45:47Z</time>
      </trkpt>
      <trkpt lat="46.06687" lon="6.76854">
        <ele>1417.8</ele>
        <time>2026-06-26T07:45:48Z</time>
      </trkpt>
      <trkpt lat="46.06687" lon="6.76854">
        <ele>1417.8</ele>
        <time>2026-06-26T07:45:49Z</time>
      </trkpt>
      <trkpt lat="46.06687" lon="6.76855">
        <ele>1417.9</ele>
        <time>2026-06-26T07:45:50Z</time>
      </trkpt>
      <trkpt lat="46.06686" lon="6.76856">
        <ele>1417.9</ele>
        <time>2026-06-26T07:45:51Z</time>
      </trkpt>
      <trkpt lat="46.06686" lon="6.76857">
        <ele>1418</ele>
        <time>2026-06-26T07:45:52Z</time>
      </trkpt>
      <trkpt lat="46.06686" lon="6.76858">
        <ele>1418.1</ele>
        <time>2026-06-26T07:45:53Z</time>
      </trkpt>
      <trkpt lat="46.06685" lon="6.76859">
        <ele>1418.2</ele>
        <time>2026-06-26T07:45:54Z</time>
      </trkpt>
      <trkpt lat="46.06685" lon="6.76859">
        <ele>1418.2</ele>
        <time>2026-06-26T07:45:55Z</time>
      </trkpt>
      <trkpt lat="46.06685" lon="6.76859">
        <ele>1418.2</ele>
        <time>2026-06-26T07:45:56Z</time>
      </trkpt>
      <trkpt lat="46.06685" lon="6.7686">
        <ele>1418.2</ele>
        <time>2026-06-26T07:45:57Z</time>
      </trkpt>
      <trkpt lat="46.06684" lon="6.76862">
        <ele>1418.3</ele>
        <time>2026-06-26T07:45:58Z</time>
      </trkpt>
      <trkpt lat="46.06684" lon="6.76863">
        <ele>1418.4</ele>
        <time>2026-06-26T07:45:59Z</time>
      </trkpt>
      <trkpt lat="46.06683" lon="6.76864">
        <ele>1418.6</ele>
        <time>2026-06-26T07:46:00Z</time>
      </trkpt>
      <trkpt lat="46.06683" lon="6.76865">
        <ele>1418.6</ele>
        <time>2026-06-26T07:46:01Z</time>
      </trkpt>
      <trkpt lat="46.06683" lon="6.76865">
        <ele>1418.6</ele>
        <time>2026-06-26T07:46:02Z</time>
      </trkpt>
      <trkpt lat="46.06682" lon="6.76866">
        <ele>1418.7</ele>
        <time>2026-06-26T07:46:03Z</time>
      </trkpt>
      <trkpt lat="46.06681" lon="6.76867">
        <ele>1418.8</ele>
        <time>2026-06-26T07:46:04Z</time>
      </trkpt>
      <trkpt lat="46.06681" lon="6.76868">
        <ele>1418.9</ele>
        <time>2026-06-26T07:46:05Z</time>
      </trkpt>
      <trkpt lat="46.06682" lon="6.76871">
        <ele>1419</ele>
        <time>2026-06-26T07:46:06Z</time>
      </trkpt>
      <trkpt lat="46.06682" lon="6.76872">
        <ele>1419.1</ele>
        <time>2026-06-26T07:46:07Z</time>
      </trkpt>
      <trkpt lat="46.06681" lon="6.76872">
        <ele>1419.1</ele>
        <time>2026-06-26T07:46:08Z</time>
      </trkpt>
      <trkpt lat="46.0668" lon="6.76871">
        <ele>1419.2</ele>
        <time>2026-06-26T07:46:09Z</time>
      </trkpt>
      <trkpt lat="46.0668" lon="6.76872">
        <ele>1419.3</ele>
        <time>2026-06-26T07:46:10Z</time>
      </trkpt>
      <trkpt lat="46.06679" lon="6.76873">
        <ele>1419.4</ele>
        <time>2026-06-26T07:46:11Z</time>
      </trkpt>
      <trkpt lat="46.06678" lon="6.76872">
        <ele>1419.5</ele>
        <time>2026-06-26T07:46:12Z</time>
      </trkpt>
      <trkpt lat="46.06677" lon="6.76872">
        <ele>1419.7</ele>
        <time>2026-06-26T07:46:13Z</time>
      </trkpt>
      <trkpt lat="46.06677" lon="6.76873">
        <ele>1419.9</ele>
        <time>2026-06-26T07:46:14Z</time>
      </trkpt>
      <trkpt lat="46.06676" lon="6.76874">
        <ele>1420.1</ele>
        <time>2026-06-26T07:46:15Z</time>
      </trkpt>
      <trkpt lat="46.06676" lon="6.76875">
        <ele>1420.2</ele>
        <time>2026-06-26T07:46:16Z</time>
      </trkpt>
      <trkpt lat="46.06677" lon="6.76876">
        <ele>1420.4</ele>
        <time>2026-06-26T07:46:17Z</time>
      </trkpt>
      <trkpt lat="46.06676" lon="6.76876">
        <ele>1420.5</ele>
        <time>2026-06-26T07:46:18Z</time>
      </trkpt>
      <trkpt lat="46.06676" lon="6.76877">
        <ele>1420.6</ele>
        <time>2026-06-26T07:46:19Z</time>
      </trkpt>
      <trkpt lat="46.06676" lon="6.76878">
        <ele>1420.7</ele>
        <time>2026-06-26T07:46:20Z</time>
      </trkpt>
      <trkpt lat="46.06675" lon="6.76877">
        <ele>1420.8</ele>
        <time>2026-06-26T07:46:21Z</time>
      </trkpt>
      <trkpt lat="46.06676" lon="6.76879">
        <ele>1421</ele>
        <time>2026-06-26T07:46:22Z</time>
      </trkpt>
      <trkpt lat="46.06676" lon="6.76881">
        <ele>1421.1</ele>
        <time>2026-06-26T07:46:23Z</time>
      </trkpt>
      <trkpt lat="46.06676" lon="6.76881">
        <ele>1421.2</ele>
        <time>2026-06-26T07:46:24Z</time>
      </trkpt>
      <trkpt lat="46.06676" lon="6.76881">
        <ele>1421.2</ele>
        <time>2026-06-26T07:46:25Z</time>
      </trkpt>
      <trkpt lat="46.06675" lon="6.76883">
        <ele>1421.3</ele>
        <time>2026-06-26T07:46:26Z</time>
      </trkpt>
      <trkpt lat="46.06673" lon="6.76882">
        <ele>1421.5</ele>
        <time>2026-06-26T07:46:27Z</time>
      </trkpt>
      <trkpt lat="46.06672" lon="6.76882">
        <ele>1421.7</ele>
        <time>2026-06-26T07:46:28Z</time>
      </trkpt>
      <trkpt lat="46.06672" lon="6.76883">
        <ele>1421.8</ele>
        <time>2026-06-26T07:46:29Z</time>
      </trkpt>
      <trkpt lat="46.06672" lon="6.76884">
        <ele>1421.9</ele>
        <time>2026-06-26T07:46:30Z</time>
      </trkpt>
      <trkpt lat="46.06671" lon="6.76883">
        <ele>1422.1</ele>
        <time>2026-06-26T07:46:31Z</time>
      </trkpt>
      <trkpt lat="46.06671" lon="6.76885">
        <ele>1422.2</ele>
        <time>2026-06-26T07:46:32Z</time>
      </trkpt>
      <trkpt lat="46.0667" lon="6.76885">
        <ele>1422.3</ele>
        <time>2026-06-26T07:46:33Z</time>
      </trkpt>
      <trkpt lat="46.06671" lon="6.76885">
        <ele>1422.3</ele>
        <time>2026-06-26T07:46:34Z</time>
      </trkpt>
      <trkpt lat="46.06671" lon="6.76885">
        <ele>1422.5</ele>
        <time>2026-06-26T07:46:35Z</time>
      </trkpt>
      <trkpt lat="46.06671" lon="6.76884">
        <ele>1422.6</ele>
        <time>2026-06-26T07:46:36Z</time>
      </trkpt>
      <trkpt lat="46.0667" lon="6.76884">
        <ele>1422.8</ele>
        <time>2026-06-26T07:46:37Z</time>
      </trkpt>
      <trkpt lat="46.0667" lon="6.76884">
        <ele>1423</ele>
        <time>2026-06-26T07:46:38Z</time>
      </trkpt>
      <trkpt lat="46.0667" lon="6.76886">
        <ele>1423.2</ele>
        <time>2026-06-26T07:46:39Z</time>
      </trkpt>
      <trkpt lat="46.0667" lon="6.76887">
        <ele>1423.5</ele>
        <time>2026-06-26T07:46:40Z</time>
      </trkpt>
      <trkpt lat="46.06669" lon="6.76888">
        <ele>1423.6</ele>
        <time>2026-06-26T07:46:41Z</time>
      </trkpt>
      <trkpt lat="46.06668" lon="6.76888">
        <ele>1423.8</ele>
        <time>2026-06-26T07:46:42Z</time>
      </trkpt>
      <trkpt lat="46.06668" lon="6.76889">
        <ele>1424</ele>
        <time>2026-06-26T07:46:43Z</time>
      </trkpt>
      <trkpt lat="46.06668" lon="6.7689">
        <ele>1424.1</ele>
        <time>2026-06-26T07:46:44Z</time>
      </trkpt>
      <trkpt lat="46.06667" lon="6.7689">
        <ele>1424.3</ele>
        <time>2026-06-26T07:46:45Z</time>
      </trkpt>
      <trkpt lat="46.06668" lon="6.76891">
        <ele>1424.5</ele>
        <time>2026-06-26T07:46:46Z</time>
      </trkpt>
      <trkpt lat="46.06668" lon="6.76891">
        <ele>1424.6</ele>
        <time>2026-06-26T07:46:47Z</time>
      </trkpt>
      <trkpt lat="46.06667" lon="6.76892">
        <ele>1424.7</ele>
        <time>2026-06-26T07:46:48Z</time>
      </trkpt>
      <trkpt lat="46.06667" lon="6.76893">
        <ele>1424.8</ele>
        <time>2026-06-26T07:46:49Z</time>
      </trkpt>
      <trkpt lat="46.06667" lon="6.76892">
        <ele>1424.8</ele>
        <time>2026-06-26T07:46:50Z</time>
      </trkpt>
      <trkpt lat="46.06667" lon="6.76893">
        <ele>1425</ele>
        <time>2026-06-26T07:46:51Z</time>
      </trkpt>
      <trkpt lat="46.06666" lon="6.76894">
        <ele>1425.1</ele>
        <time>2026-06-26T07:46:52Z</time>
      </trkpt>
      <trkpt lat="46.06665" lon="6.76894">
        <ele>1425.2</ele>
        <time>2026-06-26T07:46:53Z</time>
      </trkpt>
      <trkpt lat="46.06665" lon="6.76895">
        <ele>1425.4</ele>
        <time>2026-06-26T07:46:54Z</time>
      </trkpt>
      <trkpt lat="46.06664" lon="6.76897">
        <ele>1425.6</ele>
        <time>2026-06-26T07:46:55Z</time>
      </trkpt>
      <trkpt lat="46.06664" lon="6.76897">
        <ele>1425.7</ele>
        <time>2026-06-26T07:46:56Z</time>
      </trkpt>
      <trkpt lat="46.06664" lon="6.76898">
        <ele>1425.8</ele>
        <time>2026-06-26T07:46:57Z</time>
      </trkpt>
      <trkpt lat="46.06664" lon="6.76899">
        <ele>1426</ele>
        <time>2026-06-26T07:46:58Z</time>
      </trkpt>
      <trkpt lat="46.06664" lon="6.769">
        <ele>1426.1</ele>
        <time>2026-06-26T07:46:59Z</time>
      </trkpt>
      <trkpt lat="46.06664" lon="6.769">
        <ele>1426.1</ele>
        <time>2026-06-26T07:47:00Z</time>
      </trkpt>
      <trkpt lat="46.06663" lon="6.769">
        <ele>1426.3</ele>
        <time>2026-06-26T07:47:01Z</time>
      </trkpt>
      <trkpt lat="46.06662" lon="6.769">
        <ele>1426.5</ele>
        <time>2026-06-26T07:47:02Z</time>
      </trkpt>
      <trkpt lat="46.06662" lon="6.76901">
        <ele>1426.7</ele>
        <time>2026-06-26T07:47:03Z</time>
      </trkpt>
      <trkpt lat="46.0666" lon="6.76901">
        <ele>1426.8</ele>
        <time>2026-06-26T07:47:04Z</time>
      </trkpt>
      <trkpt lat="46.06659" lon="6.76902">
        <ele>1426.9</ele>
        <time>2026-06-26T07:47:05Z</time>
      </trkpt>
      <trkpt lat="46.06659" lon="6.76903">
        <ele>1427</ele>
        <time>2026-06-26T07:47:06Z</time>
      </trkpt>
      <trkpt lat="46.06659" lon="6.76903">
        <ele>1427.2</ele>
        <time>2026-06-26T07:47:07Z</time>
      </trkpt>
      <trkpt lat="46.06658" lon="6.76904">
        <ele>1427.3</ele>
        <time>2026-06-26T07:47:08Z</time>
      </trkpt>
      <trkpt lat="46.06658" lon="6.76906">
        <ele>1427.5</ele>
        <time>2026-06-26T07:47:09Z</time>
      </trkpt>
      <trkpt lat="46.06658" lon="6.76907">
        <ele>1427.6</ele>
        <time>2026-06-26T07:47:10Z</time>
      </trkpt>
      <trkpt lat="46.06658" lon="6.76909">
        <ele>1427.7</ele>
        <time>2026-06-26T07:47:11Z</time>
      </trkpt>
      <trkpt lat="46.06657" lon="6.76909">
        <ele>1427.8</ele>
        <time>2026-06-26T07:47:12Z</time>
      </trkpt>
      <trkpt lat="46.06657" lon="6.7691">
        <ele>1428</ele>
        <time>2026-06-26T07:47:13Z</time>
      </trkpt>
      <trkpt lat="46.06657" lon="6.76909">
        <ele>1428.1</ele>
        <time>2026-06-26T07:47:14Z</time>
      </trkpt>
      <trkpt lat="46.06657" lon="6.7691">
        <ele>1428.1</ele>
        <time>2026-06-26T07:47:15Z</time>
      </trkpt>
      <trkpt lat="46.06656" lon="6.76911">
        <ele>1428.3</ele>
        <time>2026-06-26T07:47:16Z</time>
      </trkpt>
      <trkpt lat="46.06655" lon="6.76912">
        <ele>1428.4</ele>
        <time>2026-06-26T07:47:17Z</time>
      </trkpt>
      <trkpt lat="46.06654" lon="6.76912">
        <ele>1428.6</ele>
        <time>2026-06-26T07:47:18Z</time>
      </trkpt>
      <trkpt lat="46.06654" lon="6.76913">
        <ele>1428.9</ele>
        <time>2026-06-26T07:47:19Z</time>
      </trkpt>
      <trkpt lat="46.06653" lon="6.76913">
        <ele>1428.9</ele>
        <time>2026-06-26T07:47:20Z</time>
      </trkpt>
      <trkpt lat="46.06653" lon="6.76914">
        <ele>1429</ele>
        <time>2026-06-26T07:47:21Z</time>
      </trkpt>
      <trkpt lat="46.06653" lon="6.76914">
        <ele>1429.2</ele>
        <time>2026-06-26T07:47:22Z</time>
      </trkpt>
      <trkpt lat="46.06652" lon="6.76915">
        <ele>1429.3</ele>
        <time>2026-06-26T07:47:23Z</time>
      </trkpt>
      <trkpt lat="46.06652" lon="6.76916">
        <ele>1429.4</ele>
        <time>2026-06-26T07:47:24Z</time>
      </trkpt>
      <trkpt lat="46.06652" lon="6.76917">
        <ele>1429.5</ele>
        <time>2026-06-26T07:47:25Z</time>
      </trkpt>
      <trkpt lat="46.06651" lon="6.76917">
        <ele>1429.7</ele>
        <time>2026-06-26T07:47:26Z</time>
      </trkpt>
      <trkpt lat="46.06651" lon="6.76919">
        <ele>1429.8</ele>
        <time>2026-06-26T07:47:27Z</time>
      </trkpt>
      <trkpt lat="46.06651" lon="6.7692">
        <ele>1429.9</ele>
        <time>2026-06-26T07:47:28Z</time>
      </trkpt>
      <trkpt lat="46.06651" lon="6.76922">
        <ele>1430</ele>
        <time>2026-06-26T07:47:29Z</time>
      </trkpt>
      <trkpt lat="46.0665" lon="6.76922">
        <ele>1430.1</ele>
        <time>2026-06-26T07:47:30Z</time>
      </trkpt>
      <trkpt lat="46.0665" lon="6.76924">
        <ele>1430.2</ele>
        <time>2026-06-26T07:47:31Z</time>
      </trkpt>
      <trkpt lat="46.0665" lon="6.76925">
        <ele>1430.3</ele>
        <time>2026-06-26T07:47:32Z</time>
      </trkpt>
      <trkpt lat="46.06649" lon="6.76926">
        <ele>1430.4</ele>
        <time>2026-06-26T07:47:33Z</time>
      </trkpt>
      <trkpt lat="46.06649" lon="6.76927">
        <ele>1430.4</ele>
        <time>2026-06-26T07:47:34Z</time>
      </trkpt>
      <trkpt lat="46.06649" lon="6.76929">
        <ele>1430.4</ele>
        <time>2026-06-26T07:47:35Z</time>
      </trkpt>
      <trkpt lat="46.0665" lon="6.76931">
        <ele>1430.6</ele>
        <time>2026-06-26T07:47:36Z</time>
      </trkpt>
      <trkpt lat="46.0665" lon="6.76934">
        <ele>1430.7</ele>
        <time>2026-06-26T07:47:37Z</time>
      </trkpt>
      <trkpt lat="46.06649" lon="6.76936">
        <ele>1430.7</ele>
        <time>2026-06-26T07:47:38Z</time>
      </trkpt>
      <trkpt lat="46.06649" lon="6.76936">
        <ele>1430.8</ele>
        <time>2026-06-26T07:47:39Z</time>
      </trkpt>
      <trkpt lat="46.06649" lon="6.76937">
        <ele>1431</ele>
        <time>2026-06-26T07:47:40Z</time>
      </trkpt>
      <trkpt lat="46.06648" lon="6.76937">
        <ele>1431.2</ele>
        <time>2026-06-26T07:47:41Z</time>
      </trkpt>
      <trkpt lat="46.06648" lon="6.7694">
        <ele>1431.2</ele>
        <time>2026-06-26T07:47:42Z</time>
      </trkpt>
      <trkpt lat="46.06648" lon="6.76939">
        <ele>1431.3</ele>
        <time>2026-06-26T07:47:43Z</time>
      </trkpt>
      <trkpt lat="46.06648" lon="6.76938">
        <ele>1431.4</ele>
        <time>2026-06-26T07:47:44Z</time>
      </trkpt>
      <trkpt lat="46.06648" lon="6.7694">
        <ele>1431.5</ele>
        <time>2026-06-26T07:47:45Z</time>
      </trkpt>
      <trkpt lat="46.06647" lon="6.76941">
        <ele>1431.7</ele>
        <time>2026-06-26T07:47:46Z</time>
      </trkpt>
      <trkpt lat="46.06647" lon="6.76944">
        <ele>1431.8</ele>
        <time>2026-06-26T07:47:47Z</time>
      </trkpt>
      <trkpt lat="46.06647" lon="6.76945">
        <ele>1432</ele>
        <time>2026-06-26T07:47:48Z</time>
      </trkpt>
      <trkpt lat="46.06646" lon="6.76946">
        <ele>1432.1</ele>
        <time>2026-06-26T07:47:49Z</time>
      </trkpt>
      <trkpt lat="46.06647" lon="6.76947">
        <ele>1432.2</ele>
        <time>2026-06-26T07:47:50Z</time>
      </trkpt>
      <trkpt lat="46.06646" lon="6.76947">
        <ele>1432.3</ele>
        <time>2026-06-26T07:47:51Z</time>
      </trkpt>
      <trkpt lat="46.06646" lon="6.76948">
        <ele>1432.4</ele>
        <time>2026-06-26T07:47:52Z</time>
      </trkpt>
      <trkpt lat="46.06645" lon="6.76949">
        <ele>1432.6</ele>
        <time>2026-06-26T07:47:53Z</time>
      </trkpt>
      <trkpt lat="46.06644" lon="6.7695">
        <ele>1432.8</ele>
        <time>2026-06-26T07:47:54Z</time>
      </trkpt>
      <trkpt lat="46.06644" lon="6.7695">
        <ele>1432.9</ele>
        <time>2026-06-26T07:47:55Z</time>
      </trkpt>
      <trkpt lat="46.06644" lon="6.76949">
        <ele>1433</ele>
        <time>2026-06-26T07:47:56Z</time>
      </trkpt>
      <trkpt lat="46.06644" lon="6.7695">
        <ele>1433.2</ele>
        <time>2026-06-26T07:47:57Z</time>
      </trkpt>
      <trkpt lat="46.06644" lon="6.76951">
        <ele>1433.5</ele>
        <time>2026-06-26T07:47:58Z</time>
      </trkpt>
      <trkpt lat="46.06643" lon="6.76951">
        <ele>1433.6</ele>
        <time>2026-06-26T07:47:59Z</time>
      </trkpt>
      <trkpt lat="46.06643" lon="6.76951">
        <ele>1433.7</ele>
        <time>2026-06-26T07:48:00Z</time>
      </trkpt>
      <trkpt lat="46.06642" lon="6.76951">
        <ele>1433.9</ele>
        <time>2026-06-26T07:48:01Z</time>
      </trkpt>
      <trkpt lat="46.06642" lon="6.76951">
        <ele>1434.1</ele>
        <time>2026-06-26T07:48:02Z</time>
      </trkpt>
      <trkpt lat="46.06641" lon="6.76951">
        <ele>1434.2</ele>
        <time>2026-06-26T07:48:03Z</time>
      </trkpt>
      <trkpt lat="46.06641" lon="6.76951">
        <ele>1434.6</ele>
        <time>2026-06-26T07:48:04Z</time>
      </trkpt>
      <trkpt lat="46.06641" lon="6.76951">
        <ele>1434.6</ele>
        <time>2026-06-26T07:48:05Z</time>
      </trkpt>
      <trkpt lat="46.06641" lon="6.76953">
        <ele>1434.7</ele>
        <time>2026-06-26T07:48:06Z</time>
      </trkpt>
      <trkpt lat="46.0664" lon="6.76954">
        <ele>1434.8</ele>
        <time>2026-06-26T07:48:07Z</time>
      </trkpt>
      <trkpt lat="46.0664" lon="6.76954">
        <ele>1434.9</ele>
        <time>2026-06-26T07:48:08Z</time>
      </trkpt>
      <trkpt lat="46.06639" lon="6.76955">
        <ele>1435</ele>
        <time>2026-06-26T07:48:09Z</time>
      </trkpt>
      <trkpt lat="46.06639" lon="6.76957">
        <ele>1435.1</ele>
        <time>2026-06-26T07:48:10Z</time>
      </trkpt>
      <trkpt lat="46.06639" lon="6.76958">
        <ele>1435.1</ele>
        <time>2026-06-26T07:48:11Z</time>
      </trkpt>
      <trkpt lat="46.06639" lon="6.76958">
        <ele>1435.2</ele>
        <time>2026-06-26T07:48:12Z</time>
      </trkpt>
      <trkpt lat="46.06638" lon="6.76959">
        <ele>1435.3</ele>
        <time>2026-06-26T07:48:13Z</time>
      </trkpt>
      <trkpt lat="46.06637" lon="6.7696">
        <ele>1435.4</ele>
        <time>2026-06-26T07:48:14Z</time>
      </trkpt>
      <trkpt lat="46.06636" lon="6.7696">
        <ele>1435.5</ele>
        <time>2026-06-26T07:48:15Z</time>
      </trkpt>
      <trkpt lat="46.06635" lon="6.76961">
        <ele>1435.7</ele>
        <time>2026-06-26T07:48:16Z</time>
      </trkpt>
      <trkpt lat="46.06635" lon="6.76961">
        <ele>1435.8</ele>
        <time>2026-06-26T07:48:17Z</time>
      </trkpt>
      <trkpt lat="46.06634" lon="6.76962">
        <ele>1435.9</ele>
        <time>2026-06-26T07:48:18Z</time>
      </trkpt>
      <trkpt lat="46.06634" lon="6.76962">
        <ele>1436</ele>
        <time>2026-06-26T07:48:19Z</time>
      </trkpt>
      <trkpt lat="46.06634" lon="6.76963">
        <ele>1436.1</ele>
        <time>2026-06-26T07:48:20Z</time>
      </trkpt>
      <trkpt lat="46.06633" lon="6.76963">
        <ele>1436.2</ele>
        <time>2026-06-26T07:48:21Z</time>
      </trkpt>
      <trkpt lat="46.06633" lon="6.76963">
        <ele>1436.3</ele>
        <time>2026-06-26T07:48:22Z</time>
      </trkpt>
      <trkpt lat="46.06633" lon="6.76966">
        <ele>1436.4</ele>
        <time>2026-06-26T07:48:23Z</time>
      </trkpt>
      <trkpt lat="46.06632" lon="6.76966">
        <ele>1436.4</ele>
        <time>2026-06-26T07:48:24Z</time>
      </trkpt>
      <trkpt lat="46.06632" lon="6.76967">
        <ele>1436.5</ele>
        <time>2026-06-26T07:48:25Z</time>
      </trkpt>
      <trkpt lat="46.06632" lon="6.7697">
        <ele>1436.7</ele>
        <time>2026-06-26T07:48:26Z</time>
      </trkpt>
      <trkpt lat="46.06632" lon="6.76971">
        <ele>1436.8</ele>
        <time>2026-06-26T07:48:27Z</time>
      </trkpt>
      <trkpt lat="46.06631" lon="6.76972">
        <ele>1437</ele>
        <time>2026-06-26T07:48:28Z</time>
      </trkpt>
      <trkpt lat="46.06631" lon="6.76973">
        <ele>1437.2</ele>
        <time>2026-06-26T07:48:29Z</time>
      </trkpt>
      <trkpt lat="46.0663" lon="6.76974">
        <ele>1437.4</ele>
        <time>2026-06-26T07:48:30Z</time>
      </trkpt>
      <trkpt lat="46.06629" lon="6.76974">
        <ele>1437.6</ele>
        <time>2026-06-26T07:48:31Z</time>
      </trkpt>
      <trkpt lat="46.06628" lon="6.76974">
        <ele>1437.8</ele>
        <time>2026-06-26T07:48:32Z</time>
      </trkpt>
      <trkpt lat="46.06628" lon="6.76974">
        <ele>1437.9</ele>
        <time>2026-06-26T07:48:33Z</time>
      </trkpt>
      <trkpt lat="46.06628" lon="6.76974">
        <ele>1438.1</ele>
        <time>2026-06-26T07:48:34Z</time>
      </trkpt>
      <trkpt lat="46.06627" lon="6.76974">
        <ele>1438.2</ele>
        <time>2026-06-26T07:48:35Z</time>
      </trkpt>
      <trkpt lat="46.06627" lon="6.76976">
        <ele>1438.3</ele>
        <time>2026-06-26T07:48:36Z</time>
      </trkpt>
      <trkpt lat="46.06628" lon="6.76977">
        <ele>1438.5</ele>
        <time>2026-06-26T07:48:37Z</time>
      </trkpt>
      <trkpt lat="46.06628" lon="6.76977">
        <ele>1438.7</ele>
        <time>2026-06-26T07:48:38Z</time>
      </trkpt>
      <trkpt lat="46.06629" lon="6.76976">
        <ele>1438.9</ele>
        <time>2026-06-26T07:48:39Z</time>
      </trkpt>
      <trkpt lat="46.06628" lon="6.76976">
        <ele>1439</ele>
        <time>2026-06-26T07:48:40Z</time>
      </trkpt>
      <trkpt lat="46.06629" lon="6.76975">
        <ele>1439.3</ele>
        <time>2026-06-26T07:48:41Z</time>
      </trkpt>
      <trkpt lat="46.06628" lon="6.76975">
        <ele>1439.5</ele>
        <time>2026-06-26T07:48:42Z</time>
      </trkpt>
      <trkpt lat="46.06628" lon="6.76975">
        <ele>1439.6</ele>
        <time>2026-06-26T07:48:43Z</time>
      </trkpt>
      <trkpt lat="46.06628" lon="6.76975">
        <ele>1439.8</ele>
        <time>2026-06-26T07:48:44Z</time>
      </trkpt>
      <trkpt lat="46.06629" lon="6.76976">
        <ele>1440</ele>
        <time>2026-06-26T07:48:45Z</time>
      </trkpt>
      <trkpt lat="46.06629" lon="6.76976">
        <ele>1440.2</ele>
        <time>2026-06-26T07:48:46Z</time>
      </trkpt>
      <trkpt lat="46.0663" lon="6.76977">
        <ele>1440.4</ele>
        <time>2026-06-26T07:48:47Z</time>
      </trkpt>
      <trkpt lat="46.06632" lon="6.76978">
        <ele>1440.5</ele>
        <time>2026-06-26T07:48:48Z</time>
      </trkpt>
      <trkpt lat="46.06632" lon="6.76978">
        <ele>1440.7</ele>
        <time>2026-06-26T07:48:49Z</time>
      </trkpt>
      <trkpt lat="46.06633" lon="6.76979">
        <ele>1440.8</ele>
        <time>2026-06-26T07:48:50Z</time>
      </trkpt>
      <trkpt lat="46.06633" lon="6.7698">
        <ele>1440.9</ele>
        <time>2026-06-26T07:48:51Z</time>
      </trkpt>
      <trkpt lat="46.06634" lon="6.76981">
        <ele>1441</ele>
        <time>2026-06-26T07:48:52Z</time>
      </trkpt>
      <trkpt lat="46.06635" lon="6.76984">
        <ele>1441.2</ele>
        <time>2026-06-26T07:48:53Z</time>
      </trkpt>
      <trkpt lat="46.06635" lon="6.76985">
        <ele>1441.4</ele>
        <time>2026-06-26T07:48:54Z</time>
      </trkpt>
      <trkpt lat="46.06635" lon="6.76985">
        <ele>1441.6</ele>
        <time>2026-06-26T07:48:55Z</time>
      </trkpt>
      <trkpt lat="46.06636" lon="6.76987">
        <ele>1441.8</ele>
        <time>2026-06-26T07:48:56Z</time>
      </trkpt>
      <trkpt lat="46.06637" lon="6.76987">
        <ele>1441.9</ele>
        <time>2026-06-26T07:48:57Z</time>
      </trkpt>
      <trkpt lat="46.06638" lon="6.76987">
        <ele>1442</ele>
        <time>2026-06-26T07:48:58Z</time>
      </trkpt>
      <trkpt lat="46.06638" lon="6.76987">
        <ele>1442.1</ele>
        <time>2026-06-26T07:48:59Z</time>
      </trkpt>
      <trkpt lat="46.0664" lon="6.76987">
        <ele>1442.2</ele>
        <time>2026-06-26T07:49:00Z</time>
      </trkpt>
      <trkpt lat="46.0664" lon="6.76987">
        <ele>1442.4</ele>
        <time>2026-06-26T07:49:01Z</time>
      </trkpt>
      <trkpt lat="46.06641" lon="6.76987">
        <ele>1442.5</ele>
        <time>2026-06-26T07:49:02Z</time>
      </trkpt>
      <trkpt lat="46.06642" lon="6.76988">
        <ele>1442.7</ele>
        <time>2026-06-26T07:49:03Z</time>
      </trkpt>
      <trkpt lat="46.06643" lon="6.76988">
        <ele>1442.7</ele>
        <time>2026-06-26T07:49:04Z</time>
      </trkpt>
      <trkpt lat="46.06643" lon="6.76988">
        <ele>1442.9</ele>
        <time>2026-06-26T07:49:05Z</time>
      </trkpt>
      <trkpt lat="46.06644" lon="6.76987">
        <ele>1443</ele>
        <time>2026-06-26T07:49:06Z</time>
      </trkpt>
      <trkpt lat="46.06644" lon="6.76987">
        <ele>1443.2</ele>
        <time>2026-06-26T07:49:07Z</time>
      </trkpt>
      <trkpt lat="46.06644" lon="6.76986">
        <ele>1443.3</ele>
        <time>2026-06-26T07:49:08Z</time>
      </trkpt>
      <trkpt lat="46.06644" lon="6.76986">
        <ele>1443.5</ele>
        <time>2026-06-26T07:49:09Z</time>
      </trkpt>
      <trkpt lat="46.06646" lon="6.76985">
        <ele>1443.6</ele>
        <time>2026-06-26T07:49:10Z</time>
      </trkpt>
      <trkpt lat="46.06647" lon="6.76986">
        <ele>1443.7</ele>
        <time>2026-06-26T07:49:11Z</time>
      </trkpt>
      <trkpt lat="46.06648" lon="6.76986">
        <ele>1443.9</ele>
        <time>2026-06-26T07:49:12Z</time>
      </trkpt>
      <trkpt lat="46.06649" lon="6.76987">
        <ele>1444</ele>
        <time>2026-06-26T07:49:13Z</time>
      </trkpt>
      <trkpt lat="46.0665" lon="6.76987">
        <ele>1444.2</ele>
        <time>2026-06-26T07:49:14Z</time>
      </trkpt>
      <trkpt lat="46.0665" lon="6.76988">
        <ele>1444.4</ele>
        <time>2026-06-26T07:49:15Z</time>
      </trkpt>
      <trkpt lat="46.06651" lon="6.76988">
        <ele>1444.5</ele>
        <time>2026-06-26T07:49:16Z</time>
      </trkpt>
      <trkpt lat="46.06652" lon="6.76987">
        <ele>1444.6</ele>
        <time>2026-06-26T07:49:17Z</time>
      </trkpt>
      <trkpt lat="46.06653" lon="6.76986">
        <ele>1444.8</ele>
        <time>2026-06-26T07:49:18Z</time>
      </trkpt>
      <trkpt lat="46.06653" lon="6.76985">
        <ele>1444.9</ele>
        <time>2026-06-26T07:49:19Z</time>
      </trkpt>
      <trkpt lat="46.06654" lon="6.76985">
        <ele>1445</ele>
        <time>2026-06-26T07:49:20Z</time>
      </trkpt>
      <trkpt lat="46.06657" lon="6.7699">
        <ele>1445.2</ele>
        <time>2026-06-26T07:49:21Z</time>
      </trkpt>
      <trkpt lat="46.06658" lon="6.7699">
        <ele>1445.3</ele>
        <time>2026-06-26T07:49:22Z</time>
      </trkpt>
      <trkpt lat="46.06658" lon="6.7699">
        <ele>1445.5</ele>
        <time>2026-06-26T07:49:23Z</time>
      </trkpt>
      <trkpt lat="46.06658" lon="6.7699">
        <ele>1445.6</ele>
        <time>2026-06-26T07:49:24Z</time>
      </trkpt>
      <trkpt lat="46.06658" lon="6.7699">
        <ele>1445.7</ele>
        <time>2026-06-26T07:49:25Z</time>
      </trkpt>
      <trkpt lat="46.06658" lon="6.7699">
        <ele>1445.8</ele>
        <time>2026-06-26T07:49:26Z</time>
      </trkpt>
      <trkpt lat="46.06658" lon="6.76989">
        <ele>1446</ele>
        <time>2026-06-26T07:49:27Z</time>
      </trkpt>
      <trkpt lat="46.06658" lon="6.76988">
        <ele>1446</ele>
        <time>2026-06-26T07:49:28Z</time>
      </trkpt>
      <trkpt lat="46.06657" lon="6.76986">
        <ele>1446.2</ele>
        <time>2026-06-26T07:49:29Z</time>
      </trkpt>
      <trkpt lat="46.06659" lon="6.76985">
        <ele>1446.3</ele>
        <time>2026-06-26T07:49:30Z</time>
      </trkpt>
      <trkpt lat="46.06661" lon="6.76987">
        <ele>1446.5</ele>
        <time>2026-06-26T07:49:31Z</time>
      </trkpt>
      <trkpt lat="46.06662" lon="6.76986">
        <ele>1446.7</ele>
        <time>2026-06-26T07:49:32Z</time>
      </trkpt>
      <trkpt lat="46.06664" lon="6.76986">
        <ele>1446.8</ele>
        <time>2026-06-26T07:49:33Z</time>
      </trkpt>
      <trkpt lat="46.06665" lon="6.76985">
        <ele>1447.1</ele>
        <time>2026-06-26T07:49:34Z</time>
      </trkpt>
      <trkpt lat="46.06665" lon="6.76985">
        <ele>1447.3</ele>
        <time>2026-06-26T07:49:35Z</time>
      </trkpt>
      <trkpt lat="46.06665" lon="6.76985">
        <ele>1447.4</ele>
        <time>2026-06-26T07:49:36Z</time>
      </trkpt>
      <trkpt lat="46.06666" lon="6.76984">
        <ele>1447.6</ele>
        <time>2026-06-26T07:49:37Z</time>
      </trkpt>
      <trkpt lat="46.06666" lon="6.76984">
        <ele>1447.7</ele>
        <time>2026-06-26T07:49:38Z</time>
      </trkpt>
      <trkpt lat="46.06667" lon="6.76983">
        <ele>1447.8</ele>
        <time>2026-06-26T07:49:39Z</time>
      </trkpt>
      <trkpt lat="46.06667" lon="6.76983">
        <ele>1447.9</ele>
        <time>2026-06-26T07:49:40Z</time>
      </trkpt>
      <trkpt lat="46.06667" lon="6.76982">
        <ele>1448</ele>
        <time>2026-06-26T07:49:41Z</time>
      </trkpt>
      <trkpt lat="46.06667" lon="6.76982">
        <ele>1448.1</ele>
        <time>2026-06-26T07:49:42Z</time>
      </trkpt>
      <trkpt lat="46.06668" lon="6.76981">
        <ele>1448.2</ele>
        <time>2026-06-26T07:49:43Z</time>
      </trkpt>
      <trkpt lat="46.06668" lon="6.76981">
        <ele>1448.3</ele>
        <time>2026-06-26T07:49:44Z</time>
      </trkpt>
      <trkpt lat="46.06669" lon="6.7698">
        <ele>1448.5</ele>
        <time>2026-06-26T07:49:45Z</time>
      </trkpt>
      <trkpt lat="46.0667" lon="6.76981">
        <ele>1448.7</ele>
        <time>2026-06-26T07:49:46Z</time>
      </trkpt>
      <trkpt lat="46.0667" lon="6.76982">
        <ele>1449</ele>
        <time>2026-06-26T07:49:47Z</time>
      </trkpt>
      <trkpt lat="46.0667" lon="6.76982">
        <ele>1449.1</ele>
        <time>2026-06-26T07:49:48Z</time>
      </trkpt>
      <trkpt lat="46.06672" lon="6.76982">
        <ele>1449.2</ele>
        <time>2026-06-26T07:49:49Z</time>
      </trkpt>
      <trkpt lat="46.06673" lon="6.76982">
        <ele>1449.4</ele>
        <time>2026-06-26T07:49:50Z</time>
      </trkpt>
      <trkpt lat="46.06674" lon="6.76981">
        <ele>1449.6</ele>
        <time>2026-06-26T07:49:51Z</time>
      </trkpt>
      <trkpt lat="46.06675" lon="6.76981">
        <ele>1449.7</ele>
        <time>2026-06-26T07:49:52Z</time>
      </trkpt>
      <trkpt lat="46.06677" lon="6.76981">
        <ele>1449.9</ele>
        <time>2026-06-26T07:49:53Z</time>
      </trkpt>
      <trkpt lat="46.06678" lon="6.76981">
        <ele>1450</ele>
        <time>2026-06-26T07:49:54Z</time>
      </trkpt>
      <trkpt lat="46.06678" lon="6.76981">
        <ele>1450.2</ele>
        <time>2026-06-26T07:49:55Z</time>
      </trkpt>
      <trkpt lat="46.06679" lon="6.76981">
        <ele>1450.3</ele>
        <time>2026-06-26T07:49:56Z</time>
      </trkpt>
      <trkpt lat="46.0668" lon="6.76981">
        <ele>1450.5</ele>
        <time>2026-06-26T07:49:57Z</time>
      </trkpt>
      <trkpt lat="46.0668" lon="6.7698">
        <ele>1450.6</ele>
        <time>2026-06-26T07:49:58Z</time>
      </trkpt>
      <trkpt lat="46.06681" lon="6.7698">
        <ele>1450.7</ele>
        <time>2026-06-26T07:49:59Z</time>
      </trkpt>
      <trkpt lat="46.06681" lon="6.76979">
        <ele>1450.8</ele>
        <time>2026-06-26T07:50:00Z</time>
      </trkpt>
      <trkpt lat="46.06682" lon="6.76979">
        <ele>1450.9</ele>
        <time>2026-06-26T07:50:01Z</time>
      </trkpt>
      <trkpt lat="46.06682" lon="6.76977">
        <ele>1451</ele>
        <time>2026-06-26T07:50:02Z</time>
      </trkpt>
      <trkpt lat="46.06683" lon="6.76975">
        <ele>1451.1</ele>
        <time>2026-06-26T07:50:03Z</time>
      </trkpt>
      <trkpt lat="46.06684" lon="6.76973">
        <ele>1451.4</ele>
        <time>2026-06-26T07:50:04Z</time>
      </trkpt>
      <trkpt lat="46.06683" lon="6.76973">
        <ele>1451.5</ele>
        <time>2026-06-26T07:50:05Z</time>
      </trkpt>
      <trkpt lat="46.06683" lon="6.76973">
        <ele>1451.7</ele>
        <time>2026-06-26T07:50:06Z</time>
      </trkpt>
      <trkpt lat="46.06684" lon="6.76973">
        <ele>1451.8</ele>
        <time>2026-06-26T07:50:07Z</time>
      </trkpt>
      <trkpt lat="46.06684" lon="6.76973">
        <ele>1451.9</ele>
        <time>2026-06-26T07:50:08Z</time>
      </trkpt>
      <trkpt lat="46.06685" lon="6.76973">
        <ele>1452</ele>
        <time>2026-06-26T07:50:09Z</time>
      </trkpt>
      <trkpt lat="46.06685" lon="6.76971">
        <ele>1452.2</ele>
        <time>2026-06-26T07:50:10Z</time>
      </trkpt>
      <trkpt lat="46.06686" lon="6.7697">
        <ele>1452.3</ele>
        <time>2026-06-26T07:50:11Z</time>
      </trkpt>
      <trkpt lat="46.06686" lon="6.76969">
        <ele>1452.4</ele>
        <time>2026-06-26T07:50:12Z</time>
      </trkpt>
      <trkpt lat="46.06686" lon="6.76968">
        <ele>1452.5</ele>
        <time>2026-06-26T07:50:13Z</time>
      </trkpt>
      <trkpt lat="46.06688" lon="6.76967">
        <ele>1452.6</ele>
        <time>2026-06-26T07:50:14Z</time>
      </trkpt>
      <trkpt lat="46.06689" lon="6.76966">
        <ele>1452.7</ele>
        <time>2026-06-26T07:50:15Z</time>
      </trkpt>
      <trkpt lat="46.06689" lon="6.76965">
        <ele>1452.8</ele>
        <time>2026-06-26T07:50:16Z</time>
      </trkpt>
      <trkpt lat="46.0669" lon="6.76965">
        <ele>1452.9</ele>
        <time>2026-06-26T07:50:17Z</time>
      </trkpt>
      <trkpt lat="46.0669" lon="6.76965">
        <ele>1453</ele>
        <time>2026-06-26T07:50:18Z</time>
      </trkpt>
      <trkpt lat="46.06691" lon="6.76964">
        <ele>1453.2</ele>
        <time>2026-06-26T07:50:19Z</time>
      </trkpt>
      <trkpt lat="46.06691" lon="6.76964">
        <ele>1453.4</ele>
        <time>2026-06-26T07:50:20Z</time>
      </trkpt>
      <trkpt lat="46.06692" lon="6.76964">
        <ele>1453.5</ele>
        <time>2026-06-26T07:50:21Z</time>
      </trkpt>
      <trkpt lat="46.06693" lon="6.76965">
        <ele>1453.6</ele>
        <time>2026-06-26T07:50:22Z</time>
      </trkpt>
      <trkpt lat="46.06693" lon="6.76965">
        <ele>1453.8</ele>
        <time>2026-06-26T07:50:23Z</time>
      </trkpt>
      <trkpt lat="46.06693" lon="6.76965">
        <ele>1453.9</ele>
        <time>2026-06-26T07:50:24Z</time>
      </trkpt>
      <trkpt lat="46.06693" lon="6.76964">
        <ele>1454</ele>
        <time>2026-06-26T07:50:25Z</time>
      </trkpt>
      <trkpt lat="46.06694" lon="6.76964">
        <ele>1454.1</ele>
        <time>2026-06-26T07:50:26Z</time>
      </trkpt>
      <trkpt lat="46.06695" lon="6.76963">
        <ele>1454.4</ele>
        <time>2026-06-26T07:50:27Z</time>
      </trkpt>
      <trkpt lat="46.06696" lon="6.76963">
        <ele>1454.6</ele>
        <time>2026-06-26T07:50:28Z</time>
      </trkpt>
      <trkpt lat="46.06696" lon="6.76962">
        <ele>1454.7</ele>
        <time>2026-06-26T07:50:29Z</time>
      </trkpt>
      <trkpt lat="46.06697" lon="6.76962">
        <ele>1454.8</ele>
        <time>2026-06-26T07:50:30Z</time>
      </trkpt>
      <trkpt lat="46.06697" lon="6.76962">
        <ele>1455</ele>
        <time>2026-06-26T07:50:31Z</time>
      </trkpt>
      <trkpt lat="46.06697" lon="6.76961">
        <ele>1455.1</ele>
        <time>2026-06-26T07:50:32Z</time>
      </trkpt>
      <trkpt lat="46.06698" lon="6.76961">
        <ele>1455.2</ele>
        <time>2026-06-26T07:50:33Z</time>
      </trkpt>
      <trkpt lat="46.06699" lon="6.76961">
        <ele>1455.3</ele>
        <time>2026-06-26T07:50:34Z</time>
      </trkpt>
      <trkpt lat="46.06699" lon="6.7696">
        <ele>1455.4</ele>
        <time>2026-06-26T07:50:35Z</time>
      </trkpt>
      <trkpt lat="46.06699" lon="6.76961">
        <ele>1455.5</ele>
        <time>2026-06-26T07:50:36Z</time>
      </trkpt>
      <trkpt lat="46.067" lon="6.76961">
        <ele>1455.6</ele>
        <time>2026-06-26T07:50:37Z</time>
      </trkpt>
      <trkpt lat="46.067" lon="6.7696">
        <ele>1455.7</ele>
        <time>2026-06-26T07:50:38Z</time>
      </trkpt>
      <trkpt lat="46.06701" lon="6.7696">
        <ele>1455.8</ele>
        <time>2026-06-26T07:50:39Z</time>
      </trkpt>
      <trkpt lat="46.06701" lon="6.7696">
        <ele>1455.9</ele>
        <time>2026-06-26T07:50:40Z</time>
      </trkpt>
      <trkpt lat="46.06701" lon="6.76959">
        <ele>1456.2</ele>
        <time>2026-06-26T07:50:41Z</time>
      </trkpt>
      <trkpt lat="46.06702" lon="6.76959">
        <ele>1456.3</ele>
        <time>2026-06-26T07:50:42Z</time>
      </trkpt>
      <trkpt lat="46.06702" lon="6.76958">
        <ele>1456.5</ele>
        <time>2026-06-26T07:50:43Z</time>
      </trkpt>
      <trkpt lat="46.06702" lon="6.76958">
        <ele>1456.6</ele>
        <time>2026-06-26T07:50:44Z</time>
      </trkpt>
      <trkpt lat="46.06702" lon="6.76958">
        <ele>1456.7</ele>
        <time>2026-06-26T07:50:45Z</time>
      </trkpt>
      <trkpt lat="46.06703" lon="6.76958">
        <ele>1456.8</ele>
        <time>2026-06-26T07:50:46Z</time>
      </trkpt>
      <trkpt lat="46.06702" lon="6.76958">
        <ele>1456.9</ele>
        <time>2026-06-26T07:50:47Z</time>
      </trkpt>
      <trkpt lat="46.06703" lon="6.76957">
        <ele>1457</ele>
        <time>2026-06-26T07:50:48Z</time>
      </trkpt>
      <trkpt lat="46.06703" lon="6.76957">
        <ele>1457.1</ele>
        <time>2026-06-26T07:50:49Z</time>
      </trkpt>
      <trkpt lat="46.06703" lon="6.76957">
        <ele>1457.2</ele>
        <time>2026-06-26T07:50:50Z</time>
      </trkpt>
      <trkpt lat="46.06704" lon="6.76958">
        <ele>1457.3</ele>
        <time>2026-06-26T07:50:51Z</time>
      </trkpt>
      <trkpt lat="46.06704" lon="6.76958">
        <ele>1457.4</ele>
        <time>2026-06-26T07:50:52Z</time>
      </trkpt>
      <trkpt lat="46.06705" lon="6.76958">
        <ele>1457.5</ele>
        <time>2026-06-26T07:50:53Z</time>
      </trkpt>
      <trkpt lat="46.06706" lon="6.76957">
        <ele>1457.7</ele>
        <time>2026-06-26T07:50:54Z</time>
      </trkpt>
      <trkpt lat="46.06706" lon="6.76957">
        <ele>1457.9</ele>
        <time>2026-06-26T07:50:55Z</time>
      </trkpt>
      <trkpt lat="46.06706" lon="6.76957">
        <ele>1458.2</ele>
        <time>2026-06-26T07:50:56Z</time>
      </trkpt>
      <trkpt lat="46.06706" lon="6.76957">
        <ele>1458.4</ele>
        <time>2026-06-26T07:50:57Z</time>
      </trkpt>
      <trkpt lat="46.06707" lon="6.76956">
        <ele>1458.6</ele>
        <time>2026-06-26T07:50:58Z</time>
      </trkpt>
      <trkpt lat="46.06707" lon="6.76954">
        <ele>1458.6</ele>
        <time>2026-06-26T07:50:59Z</time>
      </trkpt>
      <trkpt lat="46.06707" lon="6.76954">
        <ele>1458.7</ele>
        <time>2026-06-26T07:51:00Z</time>
      </trkpt>
      <trkpt lat="46.06708" lon="6.76953">
        <ele>1458.8</ele>
        <time>2026-06-26T07:51:01Z</time>
      </trkpt>
      <trkpt lat="46.06709" lon="6.76953">
        <ele>1459</ele>
        <time>2026-06-26T07:51:02Z</time>
      </trkpt>
      <trkpt lat="46.06709" lon="6.76953">
        <ele>1459.1</ele>
        <time>2026-06-26T07:51:03Z</time>
      </trkpt>
      <trkpt lat="46.0671" lon="6.76952">
        <ele>1459.2</ele>
        <time>2026-06-26T07:51:04Z</time>
      </trkpt>
      <trkpt lat="46.0671" lon="6.76952">
        <ele>1459.4</ele>
        <time>2026-06-26T07:51:05Z</time>
      </trkpt>
      <trkpt lat="46.06711" lon="6.76952">
        <ele>1459.5</ele>
        <time>2026-06-26T07:51:06Z</time>
      </trkpt>
      <trkpt lat="46.06712" lon="6.76952">
        <ele>1459.6</ele>
        <time>2026-06-26T07:51:07Z</time>
      </trkpt>
      <trkpt lat="46.06712" lon="6.76952">
        <ele>1459.7</ele>
        <time>2026-06-26T07:51:08Z</time>
      </trkpt>
      <trkpt lat="46.06713" lon="6.76952">
        <ele>1459.8</ele>
        <time>2026-06-26T07:51:09Z</time>
      </trkpt>
      <trkpt lat="46.06714" lon="6.76951">
        <ele>1459.9</ele>
        <time>2026-06-26T07:51:10Z</time>
      </trkpt>
      <trkpt lat="46.06715" lon="6.76952">
        <ele>1460</ele>
        <time>2026-06-26T07:51:11Z</time>
      </trkpt>
      <trkpt lat="46.06716" lon="6.76952">
        <ele>1460.2</ele>
        <time>2026-06-26T07:51:12Z</time>
      </trkpt>
      <trkpt lat="46.06716" lon="6.76952">
        <ele>1460.2</ele>
        <time>2026-06-26T07:51:13Z</time>
      </trkpt>
      <trkpt lat="46.06717" lon="6.76952">
        <ele>1460.5</ele>
        <time>2026-06-26T07:51:14Z</time>
      </trkpt>
      <trkpt lat="46.06717" lon="6.76952">
        <ele>1460.7</ele>
        <time>2026-06-26T07:51:15Z</time>
      </trkpt>
      <trkpt lat="46.06718" lon="6.76952">
        <ele>1460.9</ele>
        <time>2026-06-26T07:51:16Z</time>
      </trkpt>
      <trkpt lat="46.06718" lon="6.76951">
        <ele>1461.1</ele>
        <time>2026-06-26T07:51:17Z</time>
      </trkpt>
      <trkpt lat="46.06718" lon="6.76951">
        <ele>1461.2</ele>
        <time>2026-06-26T07:51:18Z</time>
      </trkpt>
      <trkpt lat="46.06719" lon="6.76951">
        <ele>1461.2</ele>
        <time>2026-06-26T07:51:19Z</time>
      </trkpt>
      <trkpt lat="46.06719" lon="6.7695">
        <ele>1461.3</ele>
        <time>2026-06-26T07:51:20Z</time>
      </trkpt>
      <trkpt lat="46.06719" lon="6.7695">
        <ele>1461.3</ele>
        <time>2026-06-26T07:51:21Z</time>
      </trkpt>
      <trkpt lat="46.06719" lon="6.76949">
        <ele>1461.3</ele>
        <time>2026-06-26T07:51:22Z</time>
      </trkpt>
      <trkpt lat="46.06719" lon="6.76949">
        <ele>1461.3</ele>
        <time>2026-06-26T07:51:23Z</time>
      </trkpt>
      <trkpt lat="46.06719" lon="6.76949">
        <ele>1461.3</ele>
        <time>2026-06-26T07:51:24Z</time>
      </trkpt>
      <trkpt lat="46.06719" lon="6.76948">
        <ele>1461.3</ele>
        <time>2026-06-26T07:51:25Z</time>
      </trkpt>
      <trkpt lat="46.06719" lon="6.76948">
        <ele>1461.2</ele>
        <time>2026-06-26T07:51:26Z</time>
      </trkpt>
      <trkpt lat="46.06719" lon="6.76948">
        <ele>1461.2</ele>
        <time>2026-06-26T07:51:27Z</time>
      </trkpt>
      <trkpt lat="46.06719" lon="6.76948">
        <ele>1461.2</ele>
        <time>2026-06-26T07:51:28Z</time>
      </trkpt>
      <trkpt lat="46.0672" lon="6.76948">
        <ele>1461.3</ele>
        <time>2026-06-26T07:51:29Z</time>
      </trkpt>
      <trkpt lat="46.0672" lon="6.76948">
        <ele>1461.3</ele>
        <time>2026-06-26T07:51:30Z</time>
      </trkpt>
      <trkpt lat="46.0672" lon="6.76947">
        <ele>1461.3</ele>
        <time>2026-06-26T07:51:31Z</time>
      </trkpt>
      <trkpt lat="46.0672" lon="6.76947">
        <ele>1461.3</ele>
        <time>2026-06-26T07:51:32Z</time>
      </trkpt>
      <trkpt lat="46.0672" lon="6.76947">
        <ele>1461.2</ele>
        <time>2026-06-26T07:51:33Z</time>
      </trkpt>
      <trkpt lat="46.06721" lon="6.76947">
        <ele>1461.2</ele>
        <time>2026-06-26T07:51:34Z</time>
      </trkpt>
      <trkpt lat="46.06722" lon="6.76947">
        <ele>1461.2</ele>
        <time>2026-06-26T07:51:35Z</time>
      </trkpt>
      <trkpt lat="46.06722" lon="6.76946">
        <ele>1461.2</ele>
        <time>2026-06-26T07:51:36Z</time>
      </trkpt>
      <trkpt lat="46.06722" lon="6.76947">
        <ele>1461.1</ele>
        <time>2026-06-26T07:51:37Z</time>
      </trkpt>
      <trkpt lat="46.06722" lon="6.76947">
        <ele>1461.1</ele>
        <time>2026-06-26T07:51:38Z</time>
      </trkpt>
      <trkpt lat="46.06722" lon="6.76948">
        <ele>1461</ele>
        <time>2026-06-26T07:51:39Z</time>
      </trkpt>
      <trkpt lat="46.06722" lon="6.76948">
        <ele>1461</ele>
        <time>2026-06-26T07:51:40Z</time>
      </trkpt>
      <trkpt lat="46.06722" lon="6.76949">
        <ele>1461</ele>
        <time>2026-06-26T07:51:41Z</time>
      </trkpt>
      <trkpt lat="46.06722" lon="6.76949">
        <ele>1460.9</ele>
        <time>2026-06-26T07:51:42Z</time>
      </trkpt>
      <trkpt lat="46.06723" lon="6.76949">
        <ele>1461</ele>
        <time>2026-06-26T07:51:43Z</time>
      </trkpt>
      <trkpt lat="46.06722" lon="6.76949">
        <ele>1460.9</ele>
        <time>2026-06-26T07:51:44Z</time>
      </trkpt>
      <trkpt lat="46.06722" lon="6.76949">
        <ele>1460.8</ele>
        <time>2026-06-26T07:51:45Z</time>
      </trkpt>
      <trkpt lat="46.06722" lon="6.76949">
        <ele>1460.8</ele>
        <time>2026-06-26T07:51:46Z</time>
      </trkpt>
      <trkpt lat="46.06722" lon="6.76949">
        <ele>1460.7</ele>
        <time>2026-06-26T07:51:47Z</time>
      </trkpt>
      <trkpt lat="46.06722" lon="6.76949">
        <ele>1460.7</ele>
        <time>2026-06-26T07:51:48Z</time>
      </trkpt>
      <trkpt lat="46.06722" lon="6.76949">
        <ele>1460.7</ele>
        <time>2026-06-26T07:51:49Z</time>
      </trkpt>
      <trkpt lat="46.06722" lon="6.76949">
        <ele>1460.7</ele>
        <time>2026-06-26T07:51:50Z</time>
      </trkpt>
      <trkpt lat="46.06721" lon="6.76949">
        <ele>1460.6</ele>
        <time>2026-06-26T07:51:51Z</time>
      </trkpt>
      <trkpt lat="46.06722" lon="6.76948">
        <ele>1460.7</ele>
        <time>2026-06-26T07:51:52Z</time>
      </trkpt>
      <trkpt lat="46.06722" lon="6.76948">
        <ele>1460.7</ele>
        <time>2026-06-26T07:51:53Z</time>
      </trkpt>
      <trkpt lat="46.06722" lon="6.76947">
        <ele>1460.8</ele>
        <time>2026-06-26T07:51:54Z</time>
      </trkpt>
      <trkpt lat="46.06722" lon="6.76947">
        <ele>1460.8</ele>
        <time>2026-06-26T07:51:55Z</time>
      </trkpt>
      <trkpt lat="46.06721" lon="6.76947">
        <ele>1460.8</ele>
        <time>2026-06-26T07:51:56Z</time>
      </trkpt>
      <trkpt lat="46.06722" lon="6.76947">
        <ele>1460.9</ele>
        <time>2026-06-26T07:51:57Z</time>
      </trkpt>
      <trkpt lat="46.06721" lon="6.76947">
        <ele>1461</ele>
        <time>2026-06-26T07:51:58Z</time>
      </trkpt>
      <trkpt lat="46.06721" lon="6.76947">
        <ele>1461</ele>
        <time>2026-06-26T07:51:59Z</time>
      </trkpt>
      <trkpt lat="46.06721" lon="6.76947">
        <ele>1461.1</ele>
        <time>2026-06-26T07:52:00Z</time>
      </trkpt>
      <trkpt lat="46.06721" lon="6.76947">
        <ele>1461.1</ele>
        <time>2026-06-26T07:52:01Z</time>
      </trkpt>
      <trkpt lat="46.06721" lon="6.76948">
        <ele>1461.1</ele>
        <time>2026-06-26T07:52:02Z</time>
      </trkpt>
      <trkpt lat="46.06721" lon="6.76948">
        <ele>1461.1</ele>
        <time>2026-06-26T07:52:03Z</time>
      </trkpt>
      <trkpt lat="46.06721" lon="6.76948">
        <ele>1461.1</ele>
        <time>2026-06-26T07:52:04Z</time>
      </trkpt>
      <trkpt lat="46.06721" lon="6.76949">
        <ele>1461.2</ele>
        <time>2026-06-26T07:52:05Z</time>
      </trkpt>
      <trkpt lat="46.0672" lon="6.76949">
        <ele>1461.2</ele>
        <time>2026-06-26T07:52:06Z</time>
      </trkpt>
      <trkpt lat="46.0672" lon="6.76949">
        <ele>1461.2</ele>
        <time>2026-06-26T07:52:07Z</time>
      </trkpt>
      <trkpt lat="46.0672" lon="6.7695">
        <ele>1461.2</ele>
        <time>2026-06-26T07:52:08Z</time>
      </trkpt>
      <trkpt lat="46.0672" lon="6.7695">
        <ele>1461.2</ele>
        <time>2026-06-26T07:52:09Z</time>
      </trkpt>
      <trkpt lat="46.0672" lon="6.7695">
        <ele>1461.2</ele>
        <time>2026-06-26T07:52:10Z</time>
      </trkpt>
      <trkpt lat="46.0672" lon="6.76951">
        <ele>1461.2</ele>
        <time>2026-06-26T07:52:11Z</time>
      </trkpt>
      <trkpt lat="46.06721" lon="6.76951">
        <ele>1461.2</ele>
        <time>2026-06-26T07:52:12Z</time>
      </trkpt>
      <trkpt lat="46.06721" lon="6.76951">
        <ele>1461.3</ele>
        <time>2026-06-26T07:52:13Z</time>
      </trkpt>
      <trkpt lat="46.06721" lon="6.76951">
        <ele>1461.3</ele>
        <time>2026-06-26T07:52:14Z</time>
      </trkpt>
      <trkpt lat="46.06722" lon="6.76951">
        <ele>1461.4</ele>
        <time>2026-06-26T07:52:15Z</time>
      </trkpt>
      <trkpt lat="46.06722" lon="6.76951">
        <ele>1461.5</ele>
        <time>2026-06-26T07:52:16Z</time>
      </trkpt>
      <trkpt lat="46.06723" lon="6.7695">
        <ele>1461.6</ele>
        <time>2026-06-26T07:52:17Z</time>
      </trkpt>
      <trkpt lat="46.06723" lon="6.7695">
        <ele>1461.8</ele>
        <time>2026-06-26T07:52:18Z</time>
      </trkpt>
      <trkpt lat="46.06724" lon="6.7695">
        <ele>1462</ele>
        <time>2026-06-26T07:52:19Z</time>
      </trkpt>
      <trkpt lat="46.06724" lon="6.7695">
        <ele>1462.1</ele>
        <time>2026-06-26T07:52:20Z</time>
      </trkpt>
      <trkpt lat="46.06725" lon="6.76949">
        <ele>1462.6</ele>
        <time>2026-06-26T07:52:21Z</time>
      </trkpt>
      <trkpt lat="46.06726" lon="6.76949">
        <ele>1462.7</ele>
        <time>2026-06-26T07:52:22Z</time>
      </trkpt>
      <trkpt lat="46.06727" lon="6.76949">
        <ele>1462.8</ele>
        <time>2026-06-26T07:52:23Z</time>
      </trkpt>
      <trkpt lat="46.06727" lon="6.76948">
        <ele>1462.9</ele>
        <time>2026-06-26T07:52:24Z</time>
      </trkpt>
      <trkpt lat="46.06729" lon="6.76948">
        <ele>1463</ele>
        <time>2026-06-26T07:52:25Z</time>
      </trkpt>
      <trkpt lat="46.06729" lon="6.76948">
        <ele>1463.3</ele>
        <time>2026-06-26T07:52:26Z</time>
      </trkpt>
      <trkpt lat="46.06731" lon="6.76947">
        <ele>1463.5</ele>
        <time>2026-06-26T07:52:27Z</time>
      </trkpt>
      <trkpt lat="46.06731" lon="6.76947">
        <ele>1463.8</ele>
        <time>2026-06-26T07:52:28Z</time>
      </trkpt>
      <trkpt lat="46.06732" lon="6.76946">
        <ele>1463.9</ele>
        <time>2026-06-26T07:52:29Z</time>
      </trkpt>
      <trkpt lat="46.06732" lon="6.76946">
        <ele>1464.1</ele>
        <time>2026-06-26T07:52:30Z</time>
      </trkpt>
      <trkpt lat="46.06734" lon="6.76946">
        <ele>1464.1</ele>
        <time>2026-06-26T07:52:31Z</time>
      </trkpt>
      <trkpt lat="46.06735" lon="6.76945">
        <ele>1464.3</ele>
        <time>2026-06-26T07:52:32Z</time>
      </trkpt>
      <trkpt lat="46.06736" lon="6.76945">
        <ele>1464.4</ele>
        <time>2026-06-26T07:52:33Z</time>
      </trkpt>
      <trkpt lat="46.06737" lon="6.76944">
        <ele>1464.7</ele>
        <time>2026-06-26T07:52:34Z</time>
      </trkpt>
      <trkpt lat="46.06737" lon="6.76944">
        <ele>1465</ele>
        <time>2026-06-26T07:52:35Z</time>
      </trkpt>
      <trkpt lat="46.06738" lon="6.76944">
        <ele>1465.2</ele>
        <time>2026-06-26T07:52:36Z</time>
      </trkpt>
      <trkpt lat="46.06739" lon="6.76944">
        <ele>1465.4</ele>
        <time>2026-06-26T07:52:37Z</time>
      </trkpt>
      <trkpt lat="46.0674" lon="6.76943">
        <ele>1465.5</ele>
        <time>2026-06-26T07:52:38Z</time>
      </trkpt>
      <trkpt lat="46.06741" lon="6.76943">
        <ele>1465.7</ele>
        <time>2026-06-26T07:52:39Z</time>
      </trkpt>
      <trkpt lat="46.06741" lon="6.76943">
        <ele>1466</ele>
        <time>2026-06-26T07:52:40Z</time>
      </trkpt>
      <trkpt lat="46.06742" lon="6.76943">
        <ele>1466.2</ele>
        <time>2026-06-26T07:52:41Z</time>
      </trkpt>
      <trkpt lat="46.06743" lon="6.76943">
        <ele>1466.4</ele>
        <time>2026-06-26T07:52:42Z</time>
      </trkpt>
      <trkpt lat="46.06743" lon="6.76943">
        <ele>1466.6</ele>
        <time>2026-06-26T07:52:43Z</time>
      </trkpt>
      <trkpt lat="46.06743" lon="6.76943">
        <ele>1466.7</ele>
        <time>2026-06-26T07:52:44Z</time>
      </trkpt>
      <trkpt lat="46.06744" lon="6.76943">
        <ele>1466.8</ele>
        <time>2026-06-26T07:52:45Z</time>
      </trkpt>
      <trkpt lat="46.06746" lon="6.76943">
        <ele>1466.9</ele>
        <time>2026-06-26T07:52:46Z</time>
      </trkpt>
      <trkpt lat="46.06746" lon="6.76943">
        <ele>1467.1</ele>
        <time>2026-06-26T07:52:47Z</time>
      </trkpt>
      <trkpt lat="46.06746" lon="6.76943">
        <ele>1467.3</ele>
        <time>2026-06-26T07:52:48Z</time>
      </trkpt>
      <trkpt lat="46.06747" lon="6.76943">
        <ele>1467.5</ele>
        <time>2026-06-26T07:52:49Z</time>
      </trkpt>
      <trkpt lat="46.06748" lon="6.76942">
        <ele>1467.8</ele>
        <time>2026-06-26T07:52:50Z</time>
      </trkpt>
      <trkpt lat="46.06747" lon="6.76942">
        <ele>1468</ele>
        <time>2026-06-26T07:52:51Z</time>
      </trkpt>
      <trkpt lat="46.06747" lon="6.76942">
        <ele>1468.2</ele>
        <time>2026-06-26T07:52:52Z</time>
      </trkpt>
      <trkpt lat="46.06748" lon="6.76942">
        <ele>1468.4</ele>
        <time>2026-06-26T07:52:53Z</time>
      </trkpt>
      <trkpt lat="46.06749" lon="6.76942">
        <ele>1468.6</ele>
        <time>2026-06-26T07:52:54Z</time>
      </trkpt>
      <trkpt lat="46.06749" lon="6.76942">
        <ele>1468.7</ele>
        <time>2026-06-26T07:52:55Z</time>
      </trkpt>
      <trkpt lat="46.0675" lon="6.76941">
        <ele>1468.8</ele>
        <time>2026-06-26T07:52:56Z</time>
      </trkpt>
      <trkpt lat="46.0675" lon="6.76941">
        <ele>1468.9</ele>
        <time>2026-06-26T07:52:57Z</time>
      </trkpt>
      <trkpt lat="46.06752" lon="6.76941">
        <ele>1469</ele>
        <time>2026-06-26T07:52:58Z</time>
      </trkpt>
      <trkpt lat="46.06753" lon="6.7694">
        <ele>1469.2</ele>
        <time>2026-06-26T07:52:59Z</time>
      </trkpt>
      <trkpt lat="46.06754" lon="6.7694">
        <ele>1469.2</ele>
        <time>2026-06-26T07:53:00Z</time>
      </trkpt>
      <trkpt lat="46.06754" lon="6.76939">
        <ele>1469.2</ele>
        <time>2026-06-26T07:53:01Z</time>
      </trkpt>
      <trkpt lat="46.06756" lon="6.76937">
        <ele>1469.3</ele>
        <time>2026-06-26T07:53:02Z</time>
      </trkpt>
      <trkpt lat="46.06757" lon="6.76936">
        <ele>1469.4</ele>
        <time>2026-06-26T07:53:03Z</time>
      </trkpt>
      <trkpt lat="46.06758" lon="6.76936">
        <ele>1469.5</ele>
        <time>2026-06-26T07:53:04Z</time>
      </trkpt>
      <trkpt lat="46.06758" lon="6.76935">
        <ele>1469.8</ele>
        <time>2026-06-26T07:53:05Z</time>
      </trkpt>
      <trkpt lat="46.06759" lon="6.76935">
        <ele>1469.9</ele>
        <time>2026-06-26T07:53:06Z</time>
      </trkpt>
      <trkpt lat="46.06759" lon="6.76934">
        <ele>1470</ele>
        <time>2026-06-26T07:53:07Z</time>
      </trkpt>
      <trkpt lat="46.0676" lon="6.76933">
        <ele>1470.1</ele>
        <time>2026-06-26T07:53:08Z</time>
      </trkpt>
      <trkpt lat="46.06761" lon="6.76932">
        <ele>1470.3</ele>
        <time>2026-06-26T07:53:09Z</time>
      </trkpt>
      <trkpt lat="46.06762" lon="6.76932">
        <ele>1470.5</ele>
        <time>2026-06-26T07:53:10Z</time>
      </trkpt>
      <trkpt lat="46.06762" lon="6.76931">
        <ele>1470.6</ele>
        <time>2026-06-26T07:53:11Z</time>
      </trkpt>
      <trkpt lat="46.06764" lon="6.76931">
        <ele>1470.8</ele>
        <time>2026-06-26T07:53:12Z</time>
      </trkpt>
      <trkpt lat="46.06764" lon="6.7693">
        <ele>1471</ele>
        <time>2026-06-26T07:53:13Z</time>
      </trkpt>
      <trkpt lat="46.06765" lon="6.7693">
        <ele>1471.2</ele>
        <time>2026-06-26T07:53:14Z</time>
      </trkpt>
      <trkpt lat="46.06765" lon="6.76929">
        <ele>1471.4</ele>
        <time>2026-06-26T07:53:15Z</time>
      </trkpt>
      <trkpt lat="46.06766" lon="6.76928">
        <ele>1471.6</ele>
        <time>2026-06-26T07:53:16Z</time>
      </trkpt>
      <trkpt lat="46.06765" lon="6.76927">
        <ele>1471.7</ele>
        <time>2026-06-26T07:53:17Z</time>
      </trkpt>
      <trkpt lat="46.06766" lon="6.76926">
        <ele>1471.8</ele>
        <time>2026-06-26T07:53:18Z</time>
      </trkpt>
      <trkpt lat="46.06765" lon="6.76926">
        <ele>1471.8</ele>
        <time>2026-06-26T07:53:19Z</time>
      </trkpt>
      <trkpt lat="46.06766" lon="6.76926">
        <ele>1472</ele>
        <time>2026-06-26T07:53:20Z</time>
      </trkpt>
      <trkpt lat="46.06768" lon="6.76925">
        <ele>1472.1</ele>
        <time>2026-06-26T07:53:21Z</time>
      </trkpt>
      <trkpt lat="46.06769" lon="6.76925">
        <ele>1472.2</ele>
        <time>2026-06-26T07:53:22Z</time>
      </trkpt>
      <trkpt lat="46.06769" lon="6.76925">
        <ele>1472.3</ele>
        <time>2026-06-26T07:53:23Z</time>
      </trkpt>
      <trkpt lat="46.0677" lon="6.76925">
        <ele>1472.4</ele>
        <time>2026-06-26T07:53:24Z</time>
      </trkpt>
      <trkpt lat="46.06769" lon="6.76926">
        <ele>1472.5</ele>
        <time>2026-06-26T07:53:25Z</time>
      </trkpt>
      <trkpt lat="46.06769" lon="6.76926">
        <ele>1472.7</ele>
        <time>2026-06-26T07:53:26Z</time>
      </trkpt>
      <trkpt lat="46.06769" lon="6.76926">
        <ele>1472.8</ele>
        <time>2026-06-26T07:53:27Z</time>
      </trkpt>
      <trkpt lat="46.06769" lon="6.76925">
        <ele>1472.9</ele>
        <time>2026-06-26T07:53:28Z</time>
      </trkpt>
      <trkpt lat="46.0677" lon="6.76925">
        <ele>1473</ele>
        <time>2026-06-26T07:53:29Z</time>
      </trkpt>
      <trkpt lat="46.06772" lon="6.76925">
        <ele>1473.2</ele>
        <time>2026-06-26T07:53:30Z</time>
      </trkpt>
      <trkpt lat="46.06774" lon="6.76924">
        <ele>1473.4</ele>
        <time>2026-06-26T07:53:31Z</time>
      </trkpt>
      <trkpt lat="46.06773" lon="6.76922">
        <ele>1473.6</ele>
        <time>2026-06-26T07:53:32Z</time>
      </trkpt>
      <trkpt lat="46.06774" lon="6.76923">
        <ele>1473.8</ele>
        <time>2026-06-26T07:53:33Z</time>
      </trkpt>
      <trkpt lat="46.06775" lon="6.76923">
        <ele>1474</ele>
        <time>2026-06-26T07:53:34Z</time>
      </trkpt>
      <trkpt lat="46.06776" lon="6.76923">
        <ele>1474.1</ele>
        <time>2026-06-26T07:53:35Z</time>
      </trkpt>
      <trkpt lat="46.06777" lon="6.76922">
        <ele>1474.2</ele>
        <time>2026-06-26T07:53:36Z</time>
      </trkpt>
      <trkpt lat="46.06778" lon="6.76923">
        <ele>1474.4</ele>
        <time>2026-06-26T07:53:37Z</time>
      </trkpt>
      <trkpt lat="46.06779" lon="6.76923">
        <ele>1474.7</ele>
        <time>2026-06-26T07:53:38Z</time>
      </trkpt>
      <trkpt lat="46.06781" lon="6.76924">
        <ele>1474.9</ele>
        <time>2026-06-26T07:53:39Z</time>
      </trkpt>
      <trkpt lat="46.06782" lon="6.76925">
        <ele>1475</ele>
        <time>2026-06-26T07:53:40Z</time>
      </trkpt>
      <trkpt lat="46.06782" lon="6.76924">
        <ele>1475.2</ele>
        <time>2026-06-26T07:53:41Z</time>
      </trkpt>
      <trkpt lat="46.06782" lon="6.76924">
        <ele>1475.3</ele>
        <time>2026-06-26T07:53:42Z</time>
      </trkpt>
      <trkpt lat="46.06783" lon="6.76924">
        <ele>1475.4</ele>
        <time>2026-06-26T07:53:43Z</time>
      </trkpt>
      <trkpt lat="46.06785" lon="6.76925">
        <ele>1475.5</ele>
        <time>2026-06-26T07:53:44Z</time>
      </trkpt>
      <trkpt lat="46.06787" lon="6.76925">
        <ele>1475.6</ele>
        <time>2026-06-26T07:53:45Z</time>
      </trkpt>
      <trkpt lat="46.06787" lon="6.76924">
        <ele>1475.7</ele>
        <time>2026-06-26T07:53:46Z</time>
      </trkpt>
      <trkpt lat="46.06789" lon="6.76924">
        <ele>1475.8</ele>
        <time>2026-06-26T07:53:47Z</time>
      </trkpt>
      <trkpt lat="46.0679" lon="6.76923">
        <ele>1475.9</ele>
        <time>2026-06-26T07:53:48Z</time>
      </trkpt>
      <trkpt lat="46.06791" lon="6.76922">
        <ele>1476</ele>
        <time>2026-06-26T07:53:49Z</time>
      </trkpt>
      <trkpt lat="46.0679" lon="6.76921">
        <ele>1476.1</ele>
        <time>2026-06-26T07:53:50Z</time>
      </trkpt>
      <trkpt lat="46.06789" lon="6.7692">
        <ele>1476.2</ele>
        <time>2026-06-26T07:53:51Z</time>
      </trkpt>
      <trkpt lat="46.0679" lon="6.76919">
        <ele>1476.3</ele>
        <time>2026-06-26T07:53:52Z</time>
      </trkpt>
      <trkpt lat="46.06791" lon="6.76918">
        <ele>1476.3</ele>
        <time>2026-06-26T07:53:53Z</time>
      </trkpt>
      <trkpt lat="46.06792" lon="6.76917">
        <ele>1476.5</ele>
        <time>2026-06-26T07:53:54Z</time>
      </trkpt>
      <trkpt lat="46.06792" lon="6.76916">
        <ele>1476.6</ele>
        <time>2026-06-26T07:53:55Z</time>
      </trkpt>
      <trkpt lat="46.06793" lon="6.76915">
        <ele>1476.8</ele>
        <time>2026-06-26T07:53:56Z</time>
      </trkpt>
      <trkpt lat="46.06793" lon="6.76915">
        <ele>1476.9</ele>
        <time>2026-06-26T07:53:57Z</time>
      </trkpt>
      <trkpt lat="46.06794" lon="6.76915">
        <ele>1477</ele>
        <time>2026-06-26T07:53:58Z</time>
      </trkpt>
      <trkpt lat="46.06795" lon="6.76914">
        <ele>1477.1</ele>
        <time>2026-06-26T07:53:59Z</time>
      </trkpt>
      <trkpt lat="46.06795" lon="6.76914">
        <ele>1477.2</ele>
        <time>2026-06-26T07:54:00Z</time>
      </trkpt>
      <trkpt lat="46.06795" lon="6.76914">
        <ele>1477.1</ele>
        <time>2026-06-26T07:54:01Z</time>
      </trkpt>
      <trkpt lat="46.06796" lon="6.76913">
        <ele>1477.1</ele>
        <time>2026-06-26T07:54:02Z</time>
      </trkpt>
      <trkpt lat="46.06797" lon="6.76912">
        <ele>1477.2</ele>
        <time>2026-06-26T07:54:03Z</time>
      </trkpt>
      <trkpt lat="46.06799" lon="6.76912">
        <ele>1477.3</ele>
        <time>2026-06-26T07:54:04Z</time>
      </trkpt>
      <trkpt lat="46.068" lon="6.76912">
        <ele>1477.4</ele>
        <time>2026-06-26T07:54:05Z</time>
      </trkpt>
      <trkpt lat="46.06801" lon="6.76911">
        <ele>1477.6</ele>
        <time>2026-06-26T07:54:06Z</time>
      </trkpt>
      <trkpt lat="46.06801" lon="6.7691">
        <ele>1477.7</ele>
        <time>2026-06-26T07:54:07Z</time>
      </trkpt>
      <trkpt lat="46.06802" lon="6.76909">
        <ele>1477.8</ele>
        <time>2026-06-26T07:54:08Z</time>
      </trkpt>
      <trkpt lat="46.06802" lon="6.76908">
        <ele>1478</ele>
        <time>2026-06-26T07:54:09Z</time>
      </trkpt>
      <trkpt lat="46.06803" lon="6.76908">
        <ele>1478.1</ele>
        <time>2026-06-26T07:54:10Z</time>
      </trkpt>
      <trkpt lat="46.06803" lon="6.76908">
        <ele>1478.2</ele>
        <time>2026-06-26T07:54:11Z</time>
      </trkpt>
      <trkpt lat="46.06803" lon="6.76908">
        <ele>1478.4</ele>
        <time>2026-06-26T07:54:12Z</time>
      </trkpt>
      <trkpt lat="46.06803" lon="6.76908">
        <ele>1478.4</ele>
        <time>2026-06-26T07:54:13Z</time>
      </trkpt>
      <trkpt lat="46.06803" lon="6.76907">
        <ele>1478.5</ele>
        <time>2026-06-26T07:54:14Z</time>
      </trkpt>
      <trkpt lat="46.06803" lon="6.76906">
        <ele>1478.7</ele>
        <time>2026-06-26T07:54:15Z</time>
      </trkpt>
      <trkpt lat="46.06803" lon="6.76905">
        <ele>1478.8</ele>
        <time>2026-06-26T07:54:16Z</time>
      </trkpt>
      <trkpt lat="46.06804" lon="6.76904">
        <ele>1478.9</ele>
        <time>2026-06-26T07:54:17Z</time>
      </trkpt>
      <trkpt lat="46.06805" lon="6.76903">
        <ele>1479</ele>
        <time>2026-06-26T07:54:18Z</time>
      </trkpt>
      <trkpt lat="46.06807" lon="6.76903">
        <ele>1479.2</ele>
        <time>2026-06-26T07:54:19Z</time>
      </trkpt>
      <trkpt lat="46.06807" lon="6.76902">
        <ele>1479.3</ele>
        <time>2026-06-26T07:54:20Z</time>
      </trkpt>
      <trkpt lat="46.06808" lon="6.76901">
        <ele>1479.4</ele>
        <time>2026-06-26T07:54:21Z</time>
      </trkpt>
      <trkpt lat="46.06808" lon="6.76901">
        <ele>1479.5</ele>
        <time>2026-06-26T07:54:22Z</time>
      </trkpt>
      <trkpt lat="46.06809" lon="6.769">
        <ele>1479.6</ele>
        <time>2026-06-26T07:54:23Z</time>
      </trkpt>
      <trkpt lat="46.06809" lon="6.769">
        <ele>1479.6</ele>
        <time>2026-06-26T07:54:24Z</time>
      </trkpt>
      <trkpt lat="46.06809" lon="6.76899">
        <ele>1479.7</ele>
        <time>2026-06-26T07:54:25Z</time>
      </trkpt>
      <trkpt lat="46.0681" lon="6.76899">
        <ele>1479.9</ele>
        <time>2026-06-26T07:54:26Z</time>
      </trkpt>
      <trkpt lat="46.06812" lon="6.76898">
        <ele>1480</ele>
        <time>2026-06-26T07:54:27Z</time>
      </trkpt>
      <trkpt lat="46.06811" lon="6.76896">
        <ele>1480.1</ele>
        <time>2026-06-26T07:54:28Z</time>
      </trkpt>
      <trkpt lat="46.06812" lon="6.76896">
        <ele>1480.2</ele>
        <time>2026-06-26T07:54:29Z</time>
      </trkpt>
      <trkpt lat="46.06812" lon="6.76894">
        <ele>1480.2</ele>
        <time>2026-06-26T07:54:30Z</time>
      </trkpt>
      <trkpt lat="46.06812" lon="6.76893">
        <ele>1480.2</ele>
        <time>2026-06-26T07:54:31Z</time>
      </trkpt>
      <trkpt lat="46.06812" lon="6.76892">
        <ele>1480.2</ele>
        <time>2026-06-26T07:54:32Z</time>
      </trkpt>
      <trkpt lat="46.06813" lon="6.7689">
        <ele>1480.2</ele>
        <time>2026-06-26T07:54:33Z</time>
      </trkpt>
      <trkpt lat="46.06812" lon="6.76889">
        <ele>1480.2</ele>
        <time>2026-06-26T07:54:34Z</time>
      </trkpt>
      <trkpt lat="46.06812" lon="6.76887">
        <ele>1480.1</ele>
        <time>2026-06-26T07:54:35Z</time>
      </trkpt>
      <trkpt lat="46.06813" lon="6.76886">
        <ele>1480</ele>
        <time>2026-06-26T07:54:36Z</time>
      </trkpt>
      <trkpt lat="46.06813" lon="6.76886">
        <ele>1479.9</ele>
        <time>2026-06-26T07:54:37Z</time>
      </trkpt>
      <trkpt lat="46.06814" lon="6.76884">
        <ele>1479.9</ele>
        <time>2026-06-26T07:54:38Z</time>
      </trkpt>
      <trkpt lat="46.06814" lon="6.76883">
        <ele>1479.9</ele>
        <time>2026-06-26T07:54:39Z</time>
      </trkpt>
      <trkpt lat="46.06814" lon="6.76881">
        <ele>1479.8</ele>
        <time>2026-06-26T07:54:40Z</time>
      </trkpt>
      <trkpt lat="46.06815" lon="6.7688">
        <ele>1479.9</ele>
        <time>2026-06-26T07:54:41Z</time>
      </trkpt>
      <trkpt lat="46.06814" lon="6.76878">
        <ele>1479.9</ele>
        <time>2026-06-26T07:54:42Z</time>
      </trkpt>
      <trkpt lat="46.06814" lon="6.76877">
        <ele>1480</ele>
        <time>2026-06-26T07:54:43Z</time>
      </trkpt>
      <trkpt lat="46.06814" lon="6.76876">
        <ele>1480</ele>
        <time>2026-06-26T07:54:44Z</time>
      </trkpt>
      <trkpt lat="46.06815" lon="6.76874">
        <ele>1480</ele>
        <time>2026-06-26T07:54:45Z</time>
      </trkpt>
      <trkpt lat="46.06814" lon="6.76872">
        <ele>1480</ele>
        <time>2026-06-26T07:54:46Z</time>
      </trkpt>
      <trkpt lat="46.06816" lon="6.76872">
        <ele>1480.1</ele>
        <time>2026-06-26T07:54:47Z</time>
      </trkpt>
      <trkpt lat="46.06817" lon="6.76871">
        <ele>1480.1</ele>
        <time>2026-06-26T07:54:48Z</time>
      </trkpt>
      <trkpt lat="46.06817" lon="6.76869">
        <ele>1480.1</ele>
        <time>2026-06-26T07:54:49Z</time>
      </trkpt>
      <trkpt lat="46.06819" lon="6.76868">
        <ele>1480.1</ele>
        <time>2026-06-26T07:54:50Z</time>
      </trkpt>
      <trkpt lat="46.0682" lon="6.76867">
        <ele>1480.2</ele>
        <time>2026-06-26T07:54:51Z</time>
      </trkpt>
      <trkpt lat="46.06819" lon="6.76866">
        <ele>1480.2</ele>
        <time>2026-06-26T07:54:52Z</time>
      </trkpt>
      <trkpt lat="46.0682" lon="6.76864">
        <ele>1480.3</ele>
        <time>2026-06-26T07:54:53Z</time>
      </trkpt>
      <trkpt lat="46.0682" lon="6.76864">
        <ele>1480.4</ele>
        <time>2026-06-26T07:54:54Z</time>
      </trkpt>
      <trkpt lat="46.06821" lon="6.76863">
        <ele>1480.5</ele>
        <time>2026-06-26T07:54:55Z</time>
      </trkpt>
      <trkpt lat="46.06822" lon="6.76862">
        <ele>1480.6</ele>
        <time>2026-06-26T07:54:56Z</time>
      </trkpt>
      <trkpt lat="46.06822" lon="6.76861">
        <ele>1480.6</ele>
        <time>2026-06-26T07:54:57Z</time>
      </trkpt>
      <trkpt lat="46.06822" lon="6.7686">
        <ele>1480.8</ele>
        <time>2026-06-26T07:54:58Z</time>
      </trkpt>
      <trkpt lat="46.06822" lon="6.76859">
        <ele>1480.8</ele>
        <time>2026-06-26T07:54:59Z</time>
      </trkpt>
      <trkpt lat="46.06822" lon="6.76857">
        <ele>1480.9</ele>
        <time>2026-06-26T07:55:00Z</time>
      </trkpt>
      <trkpt lat="46.06822" lon="6.76855">
        <ele>1481</ele>
        <time>2026-06-26T07:55:01Z</time>
      </trkpt>
      <trkpt lat="46.06825" lon="6.76858">
        <ele>1481</ele>
        <time>2026-06-26T07:55:02Z</time>
      </trkpt>
      <trkpt lat="46.06826" lon="6.76857">
        <ele>1481.2</ele>
        <time>2026-06-26T07:55:03Z</time>
      </trkpt>
      <trkpt lat="46.06826" lon="6.76856">
        <ele>1481.4</ele>
        <time>2026-06-26T07:55:04Z</time>
      </trkpt>
      <trkpt lat="46.06827" lon="6.76856">
        <ele>1481.5</ele>
        <time>2026-06-26T07:55:05Z</time>
      </trkpt>
      <trkpt lat="46.06828" lon="6.76856">
        <ele>1481.7</ele>
        <time>2026-06-26T07:55:06Z</time>
      </trkpt>
      <trkpt lat="46.06829" lon="6.76854">
        <ele>1481.8</ele>
        <time>2026-06-26T07:55:07Z</time>
      </trkpt>
      <trkpt lat="46.06829" lon="6.76854">
        <ele>1481.9</ele>
        <time>2026-06-26T07:55:08Z</time>
      </trkpt>
      <trkpt lat="46.0683" lon="6.76852">
        <ele>1482</ele>
        <time>2026-06-26T07:55:09Z</time>
      </trkpt>
      <trkpt lat="46.0683" lon="6.76851">
        <ele>1482.1</ele>
        <time>2026-06-26T07:55:10Z</time>
      </trkpt>
      <trkpt lat="46.06831" lon="6.7685">
        <ele>1482.1</ele>
        <time>2026-06-26T07:55:11Z</time>
      </trkpt>
      <trkpt lat="46.06829" lon="6.76849">
        <ele>1482.3</ele>
        <time>2026-06-26T07:55:12Z</time>
      </trkpt>
      <trkpt lat="46.06831" lon="6.7685">
        <ele>1482.5</ele>
        <time>2026-06-26T07:55:13Z</time>
      </trkpt>
      <trkpt lat="46.06831" lon="6.76849">
        <ele>1482.7</ele>
        <time>2026-06-26T07:55:14Z</time>
      </trkpt>
      <trkpt lat="46.06831" lon="6.76848">
        <ele>1482.9</ele>
        <time>2026-06-26T07:55:15Z</time>
      </trkpt>
      <trkpt lat="46.06832" lon="6.76848">
        <ele>1483</ele>
        <time>2026-06-26T07:55:16Z</time>
      </trkpt>
      <trkpt lat="46.06833" lon="6.76847">
        <ele>1483</ele>
        <time>2026-06-26T07:55:17Z</time>
      </trkpt>
      <trkpt lat="46.06832" lon="6.76846">
        <ele>1483.1</ele>
        <time>2026-06-26T07:55:18Z</time>
      </trkpt>
      <trkpt lat="46.06832" lon="6.76845">
        <ele>1483.2</ele>
        <time>2026-06-26T07:55:19Z</time>
      </trkpt>
      <trkpt lat="46.06832" lon="6.76845">
        <ele>1483.3</ele>
        <time>2026-06-26T07:55:20Z</time>
      </trkpt>
      <trkpt lat="46.06831" lon="6.76843">
        <ele>1483.5</ele>
        <time>2026-06-26T07:55:21Z</time>
      </trkpt>
      <trkpt lat="46.06831" lon="6.76841">
        <ele>1483.6</ele>
        <time>2026-06-26T07:55:22Z</time>
      </trkpt>
      <trkpt lat="46.0683" lon="6.7684">
        <ele>1483.6</ele>
        <time>2026-06-26T07:55:23Z</time>
      </trkpt>
      <trkpt lat="46.06831" lon="6.76838">
        <ele>1483.7</ele>
        <time>2026-06-26T07:55:24Z</time>
      </trkpt>
      <trkpt lat="46.06831" lon="6.76837">
        <ele>1483.8</ele>
        <time>2026-06-26T07:55:25Z</time>
      </trkpt>
      <trkpt lat="46.06831" lon="6.76837">
        <ele>1483.8</ele>
        <time>2026-06-26T07:55:26Z</time>
      </trkpt>
      <trkpt lat="46.06829" lon="6.76835">
        <ele>1484</ele>
        <time>2026-06-26T07:55:27Z</time>
      </trkpt>
      <trkpt lat="46.06829" lon="6.76834">
        <ele>1484.1</ele>
        <time>2026-06-26T07:55:28Z</time>
      </trkpt>
      <trkpt lat="46.0683" lon="6.76832">
        <ele>1484.2</ele>
        <time>2026-06-26T07:55:29Z</time>
      </trkpt>
      <trkpt lat="46.0683" lon="6.76832">
        <ele>1484.2</ele>
        <time>2026-06-26T07:55:30Z</time>
      </trkpt>
      <trkpt lat="46.0683" lon="6.76831">
        <ele>1484.2</ele>
        <time>2026-06-26T07:55:31Z</time>
      </trkpt>
      <trkpt lat="46.06831" lon="6.7683">
        <ele>1484.2</ele>
        <time>2026-06-26T07:55:32Z</time>
      </trkpt>
      <trkpt lat="46.06831" lon="6.76829">
        <ele>1484.3</ele>
        <time>2026-06-26T07:55:33Z</time>
      </trkpt>
      <trkpt lat="46.06832" lon="6.76827">
        <ele>1484.4</ele>
        <time>2026-06-26T07:55:34Z</time>
      </trkpt>
      <trkpt lat="46.06832" lon="6.76826">
        <ele>1484.5</ele>
        <time>2026-06-26T07:55:35Z</time>
      </trkpt>
      <trkpt lat="46.06832" lon="6.76826">
        <ele>1484.6</ele>
        <time>2026-06-26T07:55:36Z</time>
      </trkpt>
      <trkpt lat="46.06832" lon="6.76825">
        <ele>1484.7</ele>
        <time>2026-06-26T07:55:37Z</time>
      </trkpt>
      <trkpt lat="46.06832" lon="6.76823">
        <ele>1484.7</ele>
        <time>2026-06-26T07:55:38Z</time>
      </trkpt>
      <trkpt lat="46.06832" lon="6.76822">
        <ele>1484.8</ele>
        <time>2026-06-26T07:55:39Z</time>
      </trkpt>
      <trkpt lat="46.06834" lon="6.76822">
        <ele>1484.9</ele>
        <time>2026-06-26T07:55:40Z</time>
      </trkpt>
      <trkpt lat="46.06834" lon="6.76822">
        <ele>1485</ele>
        <time>2026-06-26T07:55:41Z</time>
      </trkpt>
      <trkpt lat="46.06834" lon="6.76821">
        <ele>1485.3</ele>
        <time>2026-06-26T07:55:42Z</time>
      </trkpt>
      <trkpt lat="46.06835" lon="6.76821">
        <ele>1485.4</ele>
        <time>2026-06-26T07:55:43Z</time>
      </trkpt>
      <trkpt lat="46.06835" lon="6.76821">
        <ele>1485.5</ele>
        <time>2026-06-26T07:55:44Z</time>
      </trkpt>
      <trkpt lat="46.06836" lon="6.76821">
        <ele>1485.5</ele>
        <time>2026-06-26T07:55:45Z</time>
      </trkpt>
      <trkpt lat="46.06837" lon="6.7682">
        <ele>1485.6</ele>
        <time>2026-06-26T07:55:46Z</time>
      </trkpt>
      <trkpt lat="46.06838" lon="6.7682">
        <ele>1485.7</ele>
        <time>2026-06-26T07:55:47Z</time>
      </trkpt>
      <trkpt lat="46.0684" lon="6.7682">
        <ele>1485.7</ele>
        <time>2026-06-26T07:55:48Z</time>
      </trkpt>
      <trkpt lat="46.0684" lon="6.76819">
        <ele>1485.7</ele>
        <time>2026-06-26T07:55:49Z</time>
      </trkpt>
      <trkpt lat="46.0684" lon="6.76818">
        <ele>1485.7</ele>
        <time>2026-06-26T07:55:50Z</time>
      </trkpt>
      <trkpt lat="46.0684" lon="6.76818">
        <ele>1485.8</ele>
        <time>2026-06-26T07:55:51Z</time>
      </trkpt>
      <trkpt lat="46.06842" lon="6.76818">
        <ele>1485.8</ele>
        <time>2026-06-26T07:55:52Z</time>
      </trkpt>
      <trkpt lat="46.06842" lon="6.76818">
        <ele>1485.8</ele>
        <time>2026-06-26T07:55:53Z</time>
      </trkpt>
      <trkpt lat="46.06844" lon="6.76818">
        <ele>1485.8</ele>
        <time>2026-06-26T07:55:54Z</time>
      </trkpt>
      <trkpt lat="46.06845" lon="6.76817">
        <ele>1485.8</ele>
        <time>2026-06-26T07:55:55Z</time>
      </trkpt>
      <trkpt lat="46.06845" lon="6.76817">
        <ele>1485.7</ele>
        <time>2026-06-26T07:55:56Z</time>
      </trkpt>
      <trkpt lat="46.06846" lon="6.76816">
        <ele>1485.7</ele>
        <time>2026-06-26T07:55:57Z</time>
      </trkpt>
      <trkpt lat="46.06846" lon="6.76817">
        <ele>1485.8</ele>
        <time>2026-06-26T07:55:58Z</time>
      </trkpt>
      <trkpt lat="46.06847" lon="6.76817">
        <ele>1485.9</ele>
        <time>2026-06-26T07:55:59Z</time>
      </trkpt>
      <trkpt lat="46.06847" lon="6.76817">
        <ele>1485.9</ele>
        <time>2026-06-26T07:56:00Z</time>
      </trkpt>
      <trkpt lat="46.06847" lon="6.76817">
        <ele>1486</ele>
        <time>2026-06-26T07:56:01Z</time>
      </trkpt>
      <trkpt lat="46.06848" lon="6.76817">
        <ele>1486.1</ele>
        <time>2026-06-26T07:56:02Z</time>
      </trkpt>
      <trkpt lat="46.06848" lon="6.76816">
        <ele>1486.3</ele>
        <time>2026-06-26T07:56:03Z</time>
      </trkpt>
      <trkpt lat="46.06848" lon="6.76815">
        <ele>1486.3</ele>
        <time>2026-06-26T07:56:04Z</time>
      </trkpt>
      <trkpt lat="46.06849" lon="6.76815">
        <ele>1486.4</ele>
        <time>2026-06-26T07:56:05Z</time>
      </trkpt>
      <trkpt lat="46.0685" lon="6.76815">
        <ele>1486.4</ele>
        <time>2026-06-26T07:56:06Z</time>
      </trkpt>
      <trkpt lat="46.06852" lon="6.76815">
        <ele>1486.6</ele>
        <time>2026-06-26T07:56:07Z</time>
      </trkpt>
      <trkpt lat="46.06853" lon="6.76813">
        <ele>1486.7</ele>
        <time>2026-06-26T07:56:08Z</time>
      </trkpt>
      <trkpt lat="46.06854" lon="6.76812">
        <ele>1486.8</ele>
        <time>2026-06-26T07:56:09Z</time>
      </trkpt>
      <trkpt lat="46.06854" lon="6.76812">
        <ele>1486.9</ele>
        <time>2026-06-26T07:56:10Z</time>
      </trkpt>
      <trkpt lat="46.06854" lon="6.76811">
        <ele>1486.9</ele>
        <time>2026-06-26T07:56:11Z</time>
      </trkpt>
      <trkpt lat="46.06854" lon="6.76811">
        <ele>1486.9</ele>
        <time>2026-06-26T07:56:12Z</time>
      </trkpt>
      <trkpt lat="46.06856" lon="6.76811">
        <ele>1487</ele>
        <time>2026-06-26T07:56:13Z</time>
      </trkpt>
      <trkpt lat="46.06856" lon="6.76809">
        <ele>1487</ele>
        <time>2026-06-26T07:56:14Z</time>
      </trkpt>
      <trkpt lat="46.06856" lon="6.76809">
        <ele>1487.2</ele>
        <time>2026-06-26T07:56:15Z</time>
      </trkpt>
      <trkpt lat="46.06856" lon="6.76808">
        <ele>1487.4</ele>
        <time>2026-06-26T07:56:16Z</time>
      </trkpt>
      <trkpt lat="46.06857" lon="6.76807">
        <ele>1487.5</ele>
        <time>2026-06-26T07:56:17Z</time>
      </trkpt>
      <trkpt lat="46.06858" lon="6.76808">
        <ele>1487.6</ele>
        <time>2026-06-26T07:56:18Z</time>
      </trkpt>
      <trkpt lat="46.06858" lon="6.76808">
        <ele>1487.6</ele>
        <time>2026-06-26T07:56:19Z</time>
      </trkpt>
      <trkpt lat="46.06858" lon="6.76808">
        <ele>1487.7</ele>
        <time>2026-06-26T07:56:20Z</time>
      </trkpt>
      <trkpt lat="46.06859" lon="6.76808">
        <ele>1487.7</ele>
        <time>2026-06-26T07:56:21Z</time>
      </trkpt>
      <trkpt lat="46.0686" lon="6.76808">
        <ele>1487.7</ele>
        <time>2026-06-26T07:56:22Z</time>
      </trkpt>
      <trkpt lat="46.0686" lon="6.76809">
        <ele>1487.7</ele>
        <time>2026-06-26T07:56:23Z</time>
      </trkpt>
      <trkpt lat="46.06861" lon="6.76809">
        <ele>1487.7</ele>
        <time>2026-06-26T07:56:24Z</time>
      </trkpt>
      <trkpt lat="46.06861" lon="6.7681">
        <ele>1487.8</ele>
        <time>2026-06-26T07:56:25Z</time>
      </trkpt>
      <trkpt lat="46.06862" lon="6.7681">
        <ele>1487.9</ele>
        <time>2026-06-26T07:56:26Z</time>
      </trkpt>
      <trkpt lat="46.06861" lon="6.76811">
        <ele>1488</ele>
        <time>2026-06-26T07:56:27Z</time>
      </trkpt>
      <trkpt lat="46.06861" lon="6.76811">
        <ele>1488.1</ele>
        <time>2026-06-26T07:56:28Z</time>
      </trkpt>
      <trkpt lat="46.06862" lon="6.76812">
        <ele>1488.2</ele>
        <time>2026-06-26T07:56:29Z</time>
      </trkpt>
      <trkpt lat="46.06862" lon="6.76813">
        <ele>1488.4</ele>
        <time>2026-06-26T07:56:30Z</time>
      </trkpt>
      <trkpt lat="46.06862" lon="6.76814">
        <ele>1488.6</ele>
        <time>2026-06-26T07:56:31Z</time>
      </trkpt>
      <trkpt lat="46.06862" lon="6.76814">
        <ele>1488.8</ele>
        <time>2026-06-26T07:56:32Z</time>
      </trkpt>
      <trkpt lat="46.06862" lon="6.76814">
        <ele>1488.9</ele>
        <time>2026-06-26T07:56:33Z</time>
      </trkpt>
      <trkpt lat="46.06862" lon="6.76814">
        <ele>1489</ele>
        <time>2026-06-26T07:56:34Z</time>
      </trkpt>
      <trkpt lat="46.06862" lon="6.76815">
        <ele>1489</ele>
        <time>2026-06-26T07:56:35Z</time>
      </trkpt>
      <trkpt lat="46.06862" lon="6.76815">
        <ele>1489.1</ele>
        <time>2026-06-26T07:56:36Z</time>
      </trkpt>
      <trkpt lat="46.06861" lon="6.76816">
        <ele>1489.1</ele>
        <time>2026-06-26T07:56:37Z</time>
      </trkpt>
      <trkpt lat="46.06862" lon="6.76816">
        <ele>1489.1</ele>
        <time>2026-06-26T07:56:38Z</time>
      </trkpt>
      <trkpt lat="46.06862" lon="6.76816">
        <ele>1489.1</ele>
        <time>2026-06-26T07:56:39Z</time>
      </trkpt>
      <trkpt lat="46.06862" lon="6.76817">
        <ele>1489.2</ele>
        <time>2026-06-26T07:56:40Z</time>
      </trkpt>
      <trkpt lat="46.06863" lon="6.76817">
        <ele>1489.3</ele>
        <time>2026-06-26T07:56:41Z</time>
      </trkpt>
      <trkpt lat="46.06863" lon="6.76817">
        <ele>1489.4</ele>
        <time>2026-06-26T07:56:42Z</time>
      </trkpt>
      <trkpt lat="46.06864" lon="6.76817">
        <ele>1489.6</ele>
        <time>2026-06-26T07:56:43Z</time>
      </trkpt>
      <trkpt lat="46.06864" lon="6.76817">
        <ele>1489.8</ele>
        <time>2026-06-26T07:56:44Z</time>
      </trkpt>
      <trkpt lat="46.06865" lon="6.76818">
        <ele>1490</ele>
        <time>2026-06-26T07:56:45Z</time>
      </trkpt>
      <trkpt lat="46.06865" lon="6.76818">
        <ele>1490.2</ele>
        <time>2026-06-26T07:56:46Z</time>
      </trkpt>
      <trkpt lat="46.06865" lon="6.76819">
        <ele>1490.4</ele>
        <time>2026-06-26T07:56:47Z</time>
      </trkpt>
      <trkpt lat="46.06866" lon="6.76819">
        <ele>1490.5</ele>
        <time>2026-06-26T07:56:48Z</time>
      </trkpt>
      <trkpt lat="46.06866" lon="6.7682">
        <ele>1490.7</ele>
        <time>2026-06-26T07:56:49Z</time>
      </trkpt>
      <trkpt lat="46.06865" lon="6.7682">
        <ele>1490.8</ele>
        <time>2026-06-26T07:56:50Z</time>
      </trkpt>
      <trkpt lat="46.06866" lon="6.7682">
        <ele>1490.9</ele>
        <time>2026-06-26T07:56:51Z</time>
      </trkpt>
      <trkpt lat="46.06866" lon="6.7682">
        <ele>1491</ele>
        <time>2026-06-26T07:56:52Z</time>
      </trkpt>
      <trkpt lat="46.06866" lon="6.76821">
        <ele>1491.1</ele>
        <time>2026-06-26T07:56:53Z</time>
      </trkpt>
      <trkpt lat="46.06867" lon="6.76821">
        <ele>1491.1</ele>
        <time>2026-06-26T07:56:54Z</time>
      </trkpt>
      <trkpt lat="46.06868" lon="6.76821">
        <ele>1491.2</ele>
        <time>2026-06-26T07:56:55Z</time>
      </trkpt>
      <trkpt lat="46.06868" lon="6.76821">
        <ele>1491.3</ele>
        <time>2026-06-26T07:56:56Z</time>
      </trkpt>
      <trkpt lat="46.06868" lon="6.76821">
        <ele>1491.3</ele>
        <time>2026-06-26T07:56:57Z</time>
      </trkpt>
      <trkpt lat="46.06869" lon="6.76821">
        <ele>1491.4</ele>
        <time>2026-06-26T07:56:58Z</time>
      </trkpt>
      <trkpt lat="46.06869" lon="6.76821">
        <ele>1491.5</ele>
        <time>2026-06-26T07:56:59Z</time>
      </trkpt>
      <trkpt lat="46.0687" lon="6.76821">
        <ele>1491.6</ele>
        <time>2026-06-26T07:57:00Z</time>
      </trkpt>
      <trkpt lat="46.0687" lon="6.76822">
        <ele>1491.6</ele>
        <time>2026-06-26T07:57:01Z</time>
      </trkpt>
      <trkpt lat="46.06871" lon="6.76822">
        <ele>1491.7</ele>
        <time>2026-06-26T07:57:02Z</time>
      </trkpt>
      <trkpt lat="46.06871" lon="6.76822">
        <ele>1491.7</ele>
        <time>2026-06-26T07:57:03Z</time>
      </trkpt>
      <trkpt lat="46.06871" lon="6.76821">
        <ele>1491.8</ele>
        <time>2026-06-26T07:57:04Z</time>
      </trkpt>
      <trkpt lat="46.06872" lon="6.76821">
        <ele>1491.8</ele>
        <time>2026-06-26T07:57:05Z</time>
      </trkpt>
      <trkpt lat="46.06872" lon="6.76821">
        <ele>1491.8</ele>
        <time>2026-06-26T07:57:06Z</time>
      </trkpt>
      <trkpt lat="46.06872" lon="6.76821">
        <ele>1491.8</ele>
        <time>2026-06-26T07:57:07Z</time>
      </trkpt>
      <trkpt lat="46.06872" lon="6.76822">
        <ele>1491.9</ele>
        <time>2026-06-26T07:57:08Z</time>
      </trkpt>
      <trkpt lat="46.06872" lon="6.76822">
        <ele>1491.9</ele>
        <time>2026-06-26T07:57:09Z</time>
      </trkpt>
      <trkpt lat="46.06872" lon="6.76823">
        <ele>1492.2</ele>
        <time>2026-06-26T07:57:10Z</time>
      </trkpt>
      <trkpt lat="46.06872" lon="6.76823">
        <ele>1492.3</ele>
        <time>2026-06-26T07:57:11Z</time>
      </trkpt>
      <trkpt lat="46.06872" lon="6.76824">
        <ele>1492.3</ele>
        <time>2026-06-26T07:57:12Z</time>
      </trkpt>
      <trkpt lat="46.06872" lon="6.76824">
        <ele>1492.4</ele>
        <time>2026-06-26T07:57:13Z</time>
      </trkpt>
      <trkpt lat="46.06873" lon="6.76824">
        <ele>1492.5</ele>
        <time>2026-06-26T07:57:14Z</time>
      </trkpt>
      <trkpt lat="46.06873" lon="6.76825">
        <ele>1492.7</ele>
        <time>2026-06-26T07:57:15Z</time>
      </trkpt>
      <trkpt lat="46.06873" lon="6.76825">
        <ele>1492.7</ele>
        <time>2026-06-26T07:57:16Z</time>
      </trkpt>
      <trkpt lat="46.06874" lon="6.76825">
        <ele>1492.7</ele>
        <time>2026-06-26T07:57:17Z</time>
      </trkpt>
      <trkpt lat="46.06874" lon="6.76826">
        <ele>1492.7</ele>
        <time>2026-06-26T07:57:18Z</time>
      </trkpt>
      <trkpt lat="46.06875" lon="6.76826">
        <ele>1492.8</ele>
        <time>2026-06-26T07:57:19Z</time>
      </trkpt>
      <trkpt lat="46.06876" lon="6.76826">
        <ele>1492.9</ele>
        <time>2026-06-26T07:57:20Z</time>
      </trkpt>
      <trkpt lat="46.06876" lon="6.76826">
        <ele>1493</ele>
        <time>2026-06-26T07:57:21Z</time>
      </trkpt>
      <trkpt lat="46.06877" lon="6.76826">
        <ele>1493.1</ele>
        <time>2026-06-26T07:57:22Z</time>
      </trkpt>
      <trkpt lat="46.06877" lon="6.76826">
        <ele>1493.1</ele>
        <time>2026-06-26T07:57:23Z</time>
      </trkpt>
      <trkpt lat="46.06876" lon="6.76827">
        <ele>1493.1</ele>
        <time>2026-06-26T07:57:24Z</time>
      </trkpt>
      <trkpt lat="46.06876" lon="6.76828">
        <ele>1493.3</ele>
        <time>2026-06-26T07:57:25Z</time>
      </trkpt>
      <trkpt lat="46.06876" lon="6.76828">
        <ele>1493.3</ele>
        <time>2026-06-26T07:57:26Z</time>
      </trkpt>
      <trkpt lat="46.06876" lon="6.76828">
        <ele>1493.4</ele>
        <time>2026-06-26T07:57:27Z</time>
      </trkpt>
      <trkpt lat="46.06876" lon="6.76828">
        <ele>1493.4</ele>
        <time>2026-06-26T07:57:28Z</time>
      </trkpt>
      <trkpt lat="46.06876" lon="6.76828">
        <ele>1493.4</ele>
        <time>2026-06-26T07:57:29Z</time>
      </trkpt>
      <trkpt lat="46.06876" lon="6.76827">
        <ele>1493.4</ele>
        <time>2026-06-26T07:57:30Z</time>
      </trkpt>
      <trkpt lat="46.06877" lon="6.76827">
        <ele>1493.5</ele>
        <time>2026-06-26T07:57:31Z</time>
      </trkpt>
      <trkpt lat="46.06878" lon="6.76827">
        <ele>1493.5</ele>
        <time>2026-06-26T07:57:32Z</time>
      </trkpt>
      <trkpt lat="46.06878" lon="6.76827">
        <ele>1493.5</ele>
        <time>2026-06-26T07:57:33Z</time>
      </trkpt>
      <trkpt lat="46.06879" lon="6.76827">
        <ele>1493.5</ele>
        <time>2026-06-26T07:57:34Z</time>
      </trkpt>
      <trkpt lat="46.0688" lon="6.76827">
        <ele>1493.5</ele>
        <time>2026-06-26T07:57:35Z</time>
      </trkpt>
      <trkpt lat="46.06881" lon="6.76828">
        <ele>1493.3</ele>
        <time>2026-06-26T07:57:36Z</time>
      </trkpt>
      <trkpt lat="46.06881" lon="6.76828">
        <ele>1493.3</ele>
        <time>2026-06-26T07:57:37Z</time>
      </trkpt>
      <trkpt lat="46.06881" lon="6.76828">
        <ele>1493.3</ele>
        <time>2026-06-26T07:57:38Z</time>
      </trkpt>
      <trkpt lat="46.06882" lon="6.76828">
        <ele>1493.4</ele>
        <time>2026-06-26T07:57:39Z</time>
      </trkpt>
      <trkpt lat="46.06884" lon="6.76827">
        <ele>1493.5</ele>
        <time>2026-06-26T07:57:40Z</time>
      </trkpt>
      <trkpt lat="46.06885" lon="6.76826">
        <ele>1493.6</ele>
        <time>2026-06-26T07:57:41Z</time>
      </trkpt>
      <trkpt lat="46.06885" lon="6.76826">
        <ele>1493.7</ele>
        <time>2026-06-26T07:57:42Z</time>
      </trkpt>
      <trkpt lat="46.06885" lon="6.76825">
        <ele>1493.7</ele>
        <time>2026-06-26T07:57:43Z</time>
      </trkpt>
      <trkpt lat="46.06886" lon="6.76825">
        <ele>1493.8</ele>
        <time>2026-06-26T07:57:44Z</time>
      </trkpt>
      <trkpt lat="46.06887" lon="6.76824">
        <ele>1493.8</ele>
        <time>2026-06-26T07:57:45Z</time>
      </trkpt>
      <trkpt lat="46.06887" lon="6.76824">
        <ele>1493.8</ele>
        <time>2026-06-26T07:57:46Z</time>
      </trkpt>
      <trkpt lat="46.06887" lon="6.76824">
        <ele>1493.8</ele>
        <time>2026-06-26T07:57:47Z</time>
      </trkpt>
      <trkpt lat="46.06888" lon="6.76824">
        <ele>1493.9</ele>
        <time>2026-06-26T07:57:48Z</time>
      </trkpt>
      <trkpt lat="46.06888" lon="6.76824">
        <ele>1493.9</ele>
        <time>2026-06-26T07:57:49Z</time>
      </trkpt>
      <trkpt lat="46.06888" lon="6.76825">
        <ele>1493.8</ele>
        <time>2026-06-26T07:57:50Z</time>
      </trkpt>
      <trkpt lat="46.06888" lon="6.76825">
        <ele>1493.8</ele>
        <time>2026-06-26T07:57:51Z</time>
      </trkpt>
      <trkpt lat="46.06888" lon="6.76825">
        <ele>1493.9</ele>
        <time>2026-06-26T07:57:52Z</time>
      </trkpt>
      <trkpt lat="46.06889" lon="6.76825">
        <ele>1493.9</ele>
        <time>2026-06-26T07:57:53Z</time>
      </trkpt>
      <trkpt lat="46.06889" lon="6.76825">
        <ele>1494</ele>
        <time>2026-06-26T07:57:54Z</time>
      </trkpt>
      <trkpt lat="46.06889" lon="6.76825">
        <ele>1494</ele>
        <time>2026-06-26T07:57:55Z</time>
      </trkpt>
      <trkpt lat="46.0689" lon="6.76824">
        <ele>1494</ele>
        <time>2026-06-26T07:57:56Z</time>
      </trkpt>
      <trkpt lat="46.0689" lon="6.76824">
        <ele>1494.1</ele>
        <time>2026-06-26T07:57:57Z</time>
      </trkpt>
      <trkpt lat="46.0689" lon="6.76823">
        <ele>1494.2</ele>
        <time>2026-06-26T07:57:58Z</time>
      </trkpt>
      <trkpt lat="46.0689" lon="6.76823">
        <ele>1494.2</ele>
        <time>2026-06-26T07:57:59Z</time>
      </trkpt>
      <trkpt lat="46.06891" lon="6.76822">
        <ele>1494.3</ele>
        <time>2026-06-26T07:58:00Z</time>
      </trkpt>
      <trkpt lat="46.06891" lon="6.76822">
        <ele>1494.3</ele>
        <time>2026-06-26T07:58:01Z</time>
      </trkpt>
      <trkpt lat="46.06891" lon="6.76822">
        <ele>1494.3</ele>
        <time>2026-06-26T07:58:02Z</time>
      </trkpt>
      <trkpt lat="46.06892" lon="6.76822">
        <ele>1494.3</ele>
        <time>2026-06-26T07:58:03Z</time>
      </trkpt>
      <trkpt lat="46.06892" lon="6.76822">
        <ele>1494.3</ele>
        <time>2026-06-26T07:58:04Z</time>
      </trkpt>
      <trkpt lat="46.06892" lon="6.76822">
        <ele>1494.3</ele>
        <time>2026-06-26T07:58:05Z</time>
      </trkpt>
      <trkpt lat="46.06892" lon="6.76823">
        <ele>1494.2</ele>
        <time>2026-06-26T07:58:06Z</time>
      </trkpt>
      <trkpt lat="46.06892" lon="6.76823">
        <ele>1494.3</ele>
        <time>2026-06-26T07:58:07Z</time>
      </trkpt>
      <trkpt lat="46.06891" lon="6.76823">
        <ele>1494.4</ele>
        <time>2026-06-26T07:58:08Z</time>
      </trkpt>
      <trkpt lat="46.06892" lon="6.76823">
        <ele>1494.4</ele>
        <time>2026-06-26T07:58:09Z</time>
      </trkpt>
      <trkpt lat="46.0689" lon="6.76824">
        <ele>1494.5</ele>
        <time>2026-06-26T07:58:10Z</time>
      </trkpt>
      <trkpt lat="46.06891" lon="6.76824">
        <ele>1494.5</ele>
        <time>2026-06-26T07:58:11Z</time>
      </trkpt>
      <trkpt lat="46.06891" lon="6.76824">
        <ele>1494.6</ele>
        <time>2026-06-26T07:58:12Z</time>
      </trkpt>
      <trkpt lat="46.06891" lon="6.76825">
        <ele>1494.6</ele>
        <time>2026-06-26T07:58:13Z</time>
      </trkpt>
      <trkpt lat="46.06891" lon="6.76825">
        <ele>1494.7</ele>
        <time>2026-06-26T07:58:14Z</time>
      </trkpt>
      <trkpt lat="46.06892" lon="6.76824">
        <ele>1494.8</ele>
        <time>2026-06-26T07:58:15Z</time>
      </trkpt>
      <trkpt lat="46.06892" lon="6.76825">
        <ele>1494.8</ele>
        <time>2026-06-26T07:58:16Z</time>
      </trkpt>
      <trkpt lat="46.06892" lon="6.76825">
        <ele>1494.9</ele>
        <time>2026-06-26T07:58:17Z</time>
      </trkpt>
      <trkpt lat="46.06893" lon="6.76825">
        <ele>1495</ele>
        <time>2026-06-26T07:58:18Z</time>
      </trkpt>
      <trkpt lat="46.06893" lon="6.76825">
        <ele>1495.1</ele>
        <time>2026-06-26T07:58:19Z</time>
      </trkpt>
      <trkpt lat="46.06893" lon="6.76826">
        <ele>1495.2</ele>
        <time>2026-06-26T07:58:20Z</time>
      </trkpt>
      <trkpt lat="46.06894" lon="6.76825">
        <ele>1495.3</ele>
        <time>2026-06-26T07:58:21Z</time>
      </trkpt>
      <trkpt lat="46.06894" lon="6.76825">
        <ele>1495.3</ele>
        <time>2026-06-26T07:58:22Z</time>
      </trkpt>
      <trkpt lat="46.06894" lon="6.76827">
        <ele>1495.3</ele>
        <time>2026-06-26T07:58:23Z</time>
      </trkpt>
      <trkpt lat="46.06894" lon="6.76827">
        <ele>1495.3</ele>
        <time>2026-06-26T07:58:24Z</time>
      </trkpt>
      <trkpt lat="46.06894" lon="6.76827">
        <ele>1495.2</ele>
        <time>2026-06-26T07:58:25Z</time>
      </trkpt>
      <trkpt lat="46.06895" lon="6.76827">
        <ele>1495.2</ele>
        <time>2026-06-26T07:58:26Z</time>
      </trkpt>
      <trkpt lat="46.06896" lon="6.76826">
        <ele>1495.2</ele>
        <time>2026-06-26T07:58:27Z</time>
      </trkpt>
      <trkpt lat="46.06897" lon="6.76826">
        <ele>1495.3</ele>
        <time>2026-06-26T07:58:28Z</time>
      </trkpt>
      <trkpt lat="46.06897" lon="6.76826">
        <ele>1495.3</ele>
        <time>2026-06-26T07:58:29Z</time>
      </trkpt>
      <trkpt lat="46.06897" lon="6.76827">
        <ele>1495.4</ele>
        <time>2026-06-26T07:58:30Z</time>
      </trkpt>
      <trkpt lat="46.06898" lon="6.76827">
        <ele>1495.4</ele>
        <time>2026-06-26T07:58:31Z</time>
      </trkpt>
      <trkpt lat="46.06898" lon="6.76827">
        <ele>1495.4</ele>
        <time>2026-06-26T07:58:32Z</time>
      </trkpt>
      <trkpt lat="46.06898" lon="6.76828">
        <ele>1495.4</ele>
        <time>2026-06-26T07:58:33Z</time>
      </trkpt>
      <trkpt lat="46.06899" lon="6.76828">
        <ele>1495.6</ele>
        <time>2026-06-26T07:58:34Z</time>
      </trkpt>
      <trkpt lat="46.06899" lon="6.76828">
        <ele>1495.7</ele>
        <time>2026-06-26T07:58:35Z</time>
      </trkpt>
      <trkpt lat="46.06899" lon="6.76829">
        <ele>1495.7</ele>
        <time>2026-06-26T07:58:36Z</time>
      </trkpt>
      <trkpt lat="46.069" lon="6.76829">
        <ele>1495.8</ele>
        <time>2026-06-26T07:58:37Z</time>
      </trkpt>
      <trkpt lat="46.069" lon="6.7683">
        <ele>1495.9</ele>
        <time>2026-06-26T07:58:38Z</time>
      </trkpt>
      <trkpt lat="46.069" lon="6.7683">
        <ele>1496</ele>
        <time>2026-06-26T07:58:39Z</time>
      </trkpt>
      <trkpt lat="46.069" lon="6.76831">
        <ele>1496.1</ele>
        <time>2026-06-26T07:58:40Z</time>
      </trkpt>
      <trkpt lat="46.069" lon="6.76832">
        <ele>1496.2</ele>
        <time>2026-06-26T07:58:41Z</time>
      </trkpt>
      <trkpt lat="46.069" lon="6.76832">
        <ele>1496.3</ele>
        <time>2026-06-26T07:58:42Z</time>
      </trkpt>
      <trkpt lat="46.06901" lon="6.76832">
        <ele>1496.3</ele>
        <time>2026-06-26T07:58:43Z</time>
      </trkpt>
      <trkpt lat="46.06901" lon="6.76832">
        <ele>1496.3</ele>
        <time>2026-06-26T07:58:44Z</time>
      </trkpt>
      <trkpt lat="46.06901" lon="6.76832">
        <ele>1496.4</ele>
        <time>2026-06-26T07:58:45Z</time>
      </trkpt>
      <trkpt lat="46.06901" lon="6.76832">
        <ele>1496.4</ele>
        <time>2026-06-26T07:58:46Z</time>
      </trkpt>
      <trkpt lat="46.06901" lon="6.76832">
        <ele>1496.5</ele>
        <time>2026-06-26T07:58:47Z</time>
      </trkpt>
      <trkpt lat="46.06901" lon="6.76832">
        <ele>1496.5</ele>
        <time>2026-06-26T07:58:48Z</time>
      </trkpt>
      <trkpt lat="46.06901" lon="6.76832">
        <ele>1496.6</ele>
        <time>2026-06-26T07:58:49Z</time>
      </trkpt>
      <trkpt lat="46.06902" lon="6.76832">
        <ele>1496.7</ele>
        <time>2026-06-26T07:58:50Z</time>
      </trkpt>
      <trkpt lat="46.06901" lon="6.76833">
        <ele>1496.8</ele>
        <time>2026-06-26T07:58:51Z</time>
      </trkpt>
      <trkpt lat="46.06902" lon="6.76834">
        <ele>1496.8</ele>
        <time>2026-06-26T07:58:52Z</time>
      </trkpt>
      <trkpt lat="46.06902" lon="6.76834">
        <ele>1497</ele>
        <time>2026-06-26T07:58:53Z</time>
      </trkpt>
      <trkpt lat="46.06902" lon="6.76834">
        <ele>1497.1</ele>
        <time>2026-06-26T07:58:54Z</time>
      </trkpt>
      <trkpt lat="46.06902" lon="6.76835">
        <ele>1497.2</ele>
        <time>2026-06-26T07:58:55Z</time>
      </trkpt>
      <trkpt lat="46.06903" lon="6.76835">
        <ele>1497.3</ele>
        <time>2026-06-26T07:58:56Z</time>
      </trkpt>
      <trkpt lat="46.06903" lon="6.76835">
        <ele>1497.4</ele>
        <time>2026-06-26T07:58:57Z</time>
      </trkpt>
      <trkpt lat="46.06903" lon="6.76835">
        <ele>1497.5</ele>
        <time>2026-06-26T07:58:58Z</time>
      </trkpt>
      <trkpt lat="46.06904" lon="6.76836">
        <ele>1497.6</ele>
        <time>2026-06-26T07:58:59Z</time>
      </trkpt>
      <trkpt lat="46.06904" lon="6.76836">
        <ele>1497.7</ele>
        <time>2026-06-26T07:59:00Z</time>
      </trkpt>
      <trkpt lat="46.06904" lon="6.76836">
        <ele>1497.8</ele>
        <time>2026-06-26T07:59:01Z</time>
      </trkpt>
      <trkpt lat="46.06904" lon="6.76836">
        <ele>1497.9</ele>
        <time>2026-06-26T07:59:02Z</time>
      </trkpt>
      <trkpt lat="46.06904" lon="6.76837">
        <ele>1498.1</ele>
        <time>2026-06-26T07:59:03Z</time>
      </trkpt>
      <trkpt lat="46.06904" lon="6.76837">
        <ele>1498.2</ele>
        <time>2026-06-26T07:59:04Z</time>
      </trkpt>
      <trkpt lat="46.06904" lon="6.76837">
        <ele>1498.4</ele>
        <time>2026-06-26T07:59:05Z</time>
      </trkpt>
      <trkpt lat="46.06904" lon="6.76837">
        <ele>1498.5</ele>
        <time>2026-06-26T07:59:06Z</time>
      </trkpt>
      <trkpt lat="46.06905" lon="6.76837">
        <ele>1498.7</ele>
        <time>2026-06-26T07:59:07Z</time>
      </trkpt>
      <trkpt lat="46.06904" lon="6.76838">
        <ele>1498.8</ele>
        <time>2026-06-26T07:59:08Z</time>
      </trkpt>
      <trkpt lat="46.06904" lon="6.76838">
        <ele>1498.9</ele>
        <time>2026-06-26T07:59:09Z</time>
      </trkpt>
      <trkpt lat="46.06905" lon="6.76837">
        <ele>1499</ele>
        <time>2026-06-26T07:59:10Z</time>
      </trkpt>
      <trkpt lat="46.06904" lon="6.76837">
        <ele>1499.2</ele>
        <time>2026-06-26T07:59:11Z</time>
      </trkpt>
      <trkpt lat="46.06904" lon="6.76836">
        <ele>1499.3</ele>
        <time>2026-06-26T07:59:12Z</time>
      </trkpt>
      <trkpt lat="46.06903" lon="6.76837">
        <ele>1499.4</ele>
        <time>2026-06-26T07:59:13Z</time>
      </trkpt>
      <trkpt lat="46.06903" lon="6.76838">
        <ele>1499.4</ele>
        <time>2026-06-26T07:59:14Z</time>
      </trkpt>
      <trkpt lat="46.06903" lon="6.76838">
        <ele>1499.6</ele>
        <time>2026-06-26T07:59:15Z</time>
      </trkpt>
      <trkpt lat="46.06903" lon="6.76838">
        <ele>1499.7</ele>
        <time>2026-06-26T07:59:16Z</time>
      </trkpt>
      <trkpt lat="46.06903" lon="6.76839">
        <ele>1499.9</ele>
        <time>2026-06-26T07:59:17Z</time>
      </trkpt>
      <trkpt lat="46.06903" lon="6.76839">
        <ele>1500</ele>
        <time>2026-06-26T07:59:18Z</time>
      </trkpt>
      <trkpt lat="46.06902" lon="6.7684">
        <ele>1500.2</ele>
        <time>2026-06-26T07:59:19Z</time>
      </trkpt>
      <trkpt lat="46.06901" lon="6.76841">
        <ele>1500.4</ele>
        <time>2026-06-26T07:59:20Z</time>
      </trkpt>
      <trkpt lat="46.06901" lon="6.76841">
        <ele>1500.7</ele>
        <time>2026-06-26T07:59:21Z</time>
      </trkpt>
      <trkpt lat="46.06901" lon="6.76841">
        <ele>1500.9</ele>
        <time>2026-06-26T07:59:22Z</time>
      </trkpt>
      <trkpt lat="46.069" lon="6.76841">
        <ele>1501.1</ele>
        <time>2026-06-26T07:59:23Z</time>
      </trkpt>
      <trkpt lat="46.069" lon="6.7684">
        <ele>1501.3</ele>
        <time>2026-06-26T07:59:24Z</time>
      </trkpt>
      <trkpt lat="46.069" lon="6.76841">
        <ele>1501.5</ele>
        <time>2026-06-26T07:59:25Z</time>
      </trkpt>
      <trkpt lat="46.069" lon="6.76841">
        <ele>1501.6</ele>
        <time>2026-06-26T07:59:26Z</time>
      </trkpt>
      <trkpt lat="46.06901" lon="6.76843">
        <ele>1501.8</ele>
        <time>2026-06-26T07:59:27Z</time>
      </trkpt>
      <trkpt lat="46.069" lon="6.76843">
        <ele>1502</ele>
        <time>2026-06-26T07:59:28Z</time>
      </trkpt>
      <trkpt lat="46.069" lon="6.76844">
        <ele>1502.2</ele>
        <time>2026-06-26T07:59:29Z</time>
      </trkpt>
      <trkpt lat="46.069" lon="6.76845">
        <ele>1502.4</ele>
        <time>2026-06-26T07:59:30Z</time>
      </trkpt>
      <trkpt lat="46.069" lon="6.76846">
        <ele>1502.6</ele>
        <time>2026-06-26T07:59:31Z</time>
      </trkpt>
      <trkpt lat="46.069" lon="6.76847">
        <ele>1502.8</ele>
        <time>2026-06-26T07:59:32Z</time>
      </trkpt>
      <trkpt lat="46.069" lon="6.76847">
        <ele>1502.9</ele>
        <time>2026-06-26T07:59:33Z</time>
      </trkpt>
      <trkpt lat="46.06901" lon="6.76849">
        <ele>1503.2</ele>
        <time>2026-06-26T07:59:34Z</time>
      </trkpt>
      <trkpt lat="46.06901" lon="6.7685">
        <ele>1503.4</ele>
        <time>2026-06-26T07:59:35Z</time>
      </trkpt>
      <trkpt lat="46.06901" lon="6.76851">
        <ele>1503.6</ele>
        <time>2026-06-26T07:59:36Z</time>
      </trkpt>
      <trkpt lat="46.06901" lon="6.76852">
        <ele>1503.9</ele>
        <time>2026-06-26T07:59:37Z</time>
      </trkpt>
      <trkpt lat="46.06901" lon="6.76853">
        <ele>1504</ele>
        <time>2026-06-26T07:59:38Z</time>
      </trkpt>
      <trkpt lat="46.06901" lon="6.76854">
        <ele>1504.2</ele>
        <time>2026-06-26T07:59:39Z</time>
      </trkpt>
      <trkpt lat="46.06902" lon="6.76855">
        <ele>1504.4</ele>
        <time>2026-06-26T07:59:40Z</time>
      </trkpt>
      <trkpt lat="46.06903" lon="6.76856">
        <ele>1504.6</ele>
        <time>2026-06-26T07:59:41Z</time>
      </trkpt>
      <trkpt lat="46.06904" lon="6.76857">
        <ele>1504.8</ele>
        <time>2026-06-26T07:59:42Z</time>
      </trkpt>
      <trkpt lat="46.06904" lon="6.76858">
        <ele>1505</ele>
        <time>2026-06-26T07:59:43Z</time>
      </trkpt>
      <trkpt lat="46.06904" lon="6.76859">
        <ele>1505.1</ele>
        <time>2026-06-26T07:59:44Z</time>
      </trkpt>
      <trkpt lat="46.06905" lon="6.7686">
        <ele>1505.2</ele>
        <time>2026-06-26T07:59:45Z</time>
      </trkpt>
      <trkpt lat="46.06905" lon="6.7686">
        <ele>1505.3</ele>
        <time>2026-06-26T07:59:46Z</time>
      </trkpt>
      <trkpt lat="46.06905" lon="6.76861">
        <ele>1505.4</ele>
        <time>2026-06-26T07:59:47Z</time>
      </trkpt>
      <trkpt lat="46.06905" lon="6.76862">
        <ele>1505.5</ele>
        <time>2026-06-26T07:59:48Z</time>
      </trkpt>
      <trkpt lat="46.06906" lon="6.76862">
        <ele>1505.7</ele>
        <time>2026-06-26T07:59:49Z</time>
      </trkpt>
      <trkpt lat="46.06906" lon="6.76863">
        <ele>1505.9</ele>
        <time>2026-06-26T07:59:50Z</time>
      </trkpt>
      <trkpt lat="46.06907" lon="6.76864">
        <ele>1506</ele>
        <time>2026-06-26T07:59:51Z</time>
      </trkpt>
      <trkpt lat="46.06907" lon="6.76864">
        <ele>1506.2</ele>
        <time>2026-06-26T07:59:52Z</time>
      </trkpt>
      <trkpt lat="46.06907" lon="6.76865">
        <ele>1506.4</ele>
        <time>2026-06-26T07:59:53Z</time>
      </trkpt>
      <trkpt lat="46.06908" lon="6.76865">
        <ele>1506.5</ele>
        <time>2026-06-26T07:59:54Z</time>
      </trkpt>
      <trkpt lat="46.06908" lon="6.76866">
        <ele>1506.8</ele>
        <time>2026-06-26T07:59:55Z</time>
      </trkpt>
      <trkpt lat="46.06909" lon="6.76866">
        <ele>1507</ele>
        <time>2026-06-26T07:59:56Z</time>
      </trkpt>
      <trkpt lat="46.06909" lon="6.76867">
        <ele>1507.1</ele>
        <time>2026-06-26T07:59:57Z</time>
      </trkpt>
      <trkpt lat="46.0691" lon="6.76868">
        <ele>1507.3</ele>
        <time>2026-06-26T07:59:58Z</time>
      </trkpt>
      <trkpt lat="46.0691" lon="6.76869">
        <ele>1507.4</ele>
        <time>2026-06-26T07:59:59Z</time>
      </trkpt>
      <trkpt lat="46.0691" lon="6.7687">
        <ele>1507.7</ele>
        <time>2026-06-26T08:00:00Z</time>
      </trkpt>
      <trkpt lat="46.06911" lon="6.7687">
        <ele>1507.9</ele>
        <time>2026-06-26T08:00:01Z</time>
      </trkpt>
      <trkpt lat="46.06911" lon="6.7687">
        <ele>1508</ele>
        <time>2026-06-26T08:00:02Z</time>
      </trkpt>
      <trkpt lat="46.06911" lon="6.76871">
        <ele>1508.2</ele>
        <time>2026-06-26T08:00:03Z</time>
      </trkpt>
      <trkpt lat="46.06911" lon="6.76872">
        <ele>1508.4</ele>
        <time>2026-06-26T08:00:04Z</time>
      </trkpt>
      <trkpt lat="46.06911" lon="6.76873">
        <ele>1508.4</ele>
        <time>2026-06-26T08:00:05Z</time>
      </trkpt>
      <trkpt lat="46.06912" lon="6.76873">
        <ele>1508.5</ele>
        <time>2026-06-26T08:00:06Z</time>
      </trkpt>
      <trkpt lat="46.06912" lon="6.76874">
        <ele>1508.6</ele>
        <time>2026-06-26T08:00:07Z</time>
      </trkpt>
      <trkpt lat="46.06912" lon="6.76874">
        <ele>1508.7</ele>
        <time>2026-06-26T08:00:08Z</time>
      </trkpt>
      <trkpt lat="46.06912" lon="6.76875">
        <ele>1508.9</ele>
        <time>2026-06-26T08:00:09Z</time>
      </trkpt>
      <trkpt lat="46.06913" lon="6.76876">
        <ele>1509.1</ele>
        <time>2026-06-26T08:00:10Z</time>
      </trkpt>
      <trkpt lat="46.06914" lon="6.76876">
        <ele>1509.2</ele>
        <time>2026-06-26T08:00:11Z</time>
      </trkpt>
      <trkpt lat="46.06914" lon="6.76877">
        <ele>1509.4</ele>
        <time>2026-06-26T08:00:12Z</time>
      </trkpt>
      <trkpt lat="46.06914" lon="6.76878">
        <ele>1509.5</ele>
        <time>2026-06-26T08:00:13Z</time>
      </trkpt>
      <trkpt lat="46.06914" lon="6.76878">
        <ele>1509.6</ele>
        <time>2026-06-26T08:00:14Z</time>
      </trkpt>
      <trkpt lat="46.06915" lon="6.76879">
        <ele>1509.9</ele>
        <time>2026-06-26T08:00:15Z</time>
      </trkpt>
      <trkpt lat="46.06915" lon="6.76879">
        <ele>1510.1</ele>
        <time>2026-06-26T08:00:16Z</time>
      </trkpt>
      <trkpt lat="46.06915" lon="6.76879">
        <ele>1510.3</ele>
        <time>2026-06-26T08:00:17Z</time>
      </trkpt>
      <trkpt lat="46.06915" lon="6.76879">
        <ele>1510.5</ele>
        <time>2026-06-26T08:00:18Z</time>
      </trkpt>
      <trkpt lat="46.06915" lon="6.7688">
        <ele>1510.7</ele>
        <time>2026-06-26T08:00:19Z</time>
      </trkpt>
      <trkpt lat="46.06915" lon="6.7688">
        <ele>1510.9</ele>
        <time>2026-06-26T08:00:20Z</time>
      </trkpt>
      <trkpt lat="46.06915" lon="6.7688">
        <ele>1511</ele>
        <time>2026-06-26T08:00:21Z</time>
      </trkpt>
      <trkpt lat="46.06915" lon="6.76881">
        <ele>1511.1</ele>
        <time>2026-06-26T08:00:22Z</time>
      </trkpt>
      <trkpt lat="46.06914" lon="6.76881">
        <ele>1511.2</ele>
        <time>2026-06-26T08:00:23Z</time>
      </trkpt>
      <trkpt lat="46.06914" lon="6.76882">
        <ele>1511.3</ele>
        <time>2026-06-26T08:00:24Z</time>
      </trkpt>
      <trkpt lat="46.06915" lon="6.76882">
        <ele>1511.5</ele>
        <time>2026-06-26T08:00:25Z</time>
      </trkpt>
      <trkpt lat="46.06915" lon="6.76883">
        <ele>1511.7</ele>
        <time>2026-06-26T08:00:26Z</time>
      </trkpt>
      <trkpt lat="46.06915" lon="6.76883">
        <ele>1511.9</ele>
        <time>2026-06-26T08:00:27Z</time>
      </trkpt>
      <trkpt lat="46.06915" lon="6.76884">
        <ele>1512.1</ele>
        <time>2026-06-26T08:00:28Z</time>
      </trkpt>
      <trkpt lat="46.06915" lon="6.76884">
        <ele>1512.3</ele>
        <time>2026-06-26T08:00:29Z</time>
      </trkpt>
      <trkpt lat="46.06915" lon="6.76885">
        <ele>1512.5</ele>
        <time>2026-06-26T08:00:30Z</time>
      </trkpt>
      <trkpt lat="46.06914" lon="6.76885">
        <ele>1512.6</ele>
        <time>2026-06-26T08:00:31Z</time>
      </trkpt>
      <trkpt lat="46.06915" lon="6.76886">
        <ele>1512.8</ele>
        <time>2026-06-26T08:00:32Z</time>
      </trkpt>
      <trkpt lat="46.06915" lon="6.76886">
        <ele>1513</ele>
        <time>2026-06-26T08:00:33Z</time>
      </trkpt>
      <trkpt lat="46.06916" lon="6.76886">
        <ele>1513.2</ele>
        <time>2026-06-26T08:00:34Z</time>
      </trkpt>
      <trkpt lat="46.06916" lon="6.76886">
        <ele>1513.3</ele>
        <time>2026-06-26T08:00:35Z</time>
      </trkpt>
      <trkpt lat="46.06916" lon="6.76887">
        <ele>1513.7</ele>
        <time>2026-06-26T08:00:36Z</time>
      </trkpt>
      <trkpt lat="46.06916" lon="6.76887">
        <ele>1513.8</ele>
        <time>2026-06-26T08:00:37Z</time>
      </trkpt>
      <trkpt lat="46.06916" lon="6.76888">
        <ele>1514</ele>
        <time>2026-06-26T08:00:38Z</time>
      </trkpt>
      <trkpt lat="46.06916" lon="6.76889">
        <ele>1514.1</ele>
        <time>2026-06-26T08:00:39Z</time>
      </trkpt>
      <trkpt lat="46.06916" lon="6.76889">
        <ele>1514.2</ele>
        <time>2026-06-26T08:00:40Z</time>
      </trkpt>
      <trkpt lat="46.06916" lon="6.7689">
        <ele>1514.3</ele>
        <time>2026-06-26T08:00:41Z</time>
      </trkpt>
      <trkpt lat="46.06916" lon="6.76891">
        <ele>1514.5</ele>
        <time>2026-06-26T08:00:42Z</time>
      </trkpt>
      <trkpt lat="46.06916" lon="6.76892">
        <ele>1514.6</ele>
        <time>2026-06-26T08:00:43Z</time>
      </trkpt>
      <trkpt lat="46.06916" lon="6.76893">
        <ele>1514.6</ele>
        <time>2026-06-26T08:00:44Z</time>
      </trkpt>
      <trkpt lat="46.06916" lon="6.76894">
        <ele>1514.9</ele>
        <time>2026-06-26T08:00:45Z</time>
      </trkpt>
      <trkpt lat="46.06917" lon="6.76894">
        <ele>1515.1</ele>
        <time>2026-06-26T08:00:46Z</time>
      </trkpt>
      <trkpt lat="46.06917" lon="6.76895">
        <ele>1515.1</ele>
        <time>2026-06-26T08:00:47Z</time>
      </trkpt>
      <trkpt lat="46.06917" lon="6.76895">
        <ele>1515.4</ele>
        <time>2026-06-26T08:00:48Z</time>
      </trkpt>
      <trkpt lat="46.06917" lon="6.76895">
        <ele>1515.6</ele>
        <time>2026-06-26T08:00:49Z</time>
      </trkpt>
      <trkpt lat="46.06918" lon="6.76896">
        <ele>1515.7</ele>
        <time>2026-06-26T08:00:50Z</time>
      </trkpt>
      <trkpt lat="46.06918" lon="6.76896">
        <ele>1515.8</ele>
        <time>2026-06-26T08:00:51Z</time>
      </trkpt>
      <trkpt lat="46.06918" lon="6.76897">
        <ele>1516</ele>
        <time>2026-06-26T08:00:52Z</time>
      </trkpt>
      <trkpt lat="46.06918" lon="6.76898">
        <ele>1516.2</ele>
        <time>2026-06-26T08:00:53Z</time>
      </trkpt>
      <trkpt lat="46.06918" lon="6.76898">
        <ele>1516.3</ele>
        <time>2026-06-26T08:00:54Z</time>
      </trkpt>
      <trkpt lat="46.06918" lon="6.76899">
        <ele>1516.4</ele>
        <time>2026-06-26T08:00:55Z</time>
      </trkpt>
      <trkpt lat="46.06917" lon="6.76899">
        <ele>1516.5</ele>
        <time>2026-06-26T08:00:56Z</time>
      </trkpt>
      <trkpt lat="46.06917" lon="6.769">
        <ele>1516.7</ele>
        <time>2026-06-26T08:00:57Z</time>
      </trkpt>
      <trkpt lat="46.06917" lon="6.769">
        <ele>1516.8</ele>
        <time>2026-06-26T08:00:58Z</time>
      </trkpt>
      <trkpt lat="46.06917" lon="6.769">
        <ele>1516.9</ele>
        <time>2026-06-26T08:00:59Z</time>
      </trkpt>
      <trkpt lat="46.06916" lon="6.76901">
        <ele>1517</ele>
        <time>2026-06-26T08:01:00Z</time>
      </trkpt>
      <trkpt lat="46.06916" lon="6.76902">
        <ele>1517.2</ele>
        <time>2026-06-26T08:01:01Z</time>
      </trkpt>
      <trkpt lat="46.06916" lon="6.76902">
        <ele>1517.3</ele>
        <time>2026-06-26T08:01:02Z</time>
      </trkpt>
      <trkpt lat="46.06916" lon="6.76902">
        <ele>1517.5</ele>
        <time>2026-06-26T08:01:03Z</time>
      </trkpt>
      <trkpt lat="46.06915" lon="6.76902">
        <ele>1517.7</ele>
        <time>2026-06-26T08:01:04Z</time>
      </trkpt>
      <trkpt lat="46.06915" lon="6.76902">
        <ele>1517.8</ele>
        <time>2026-06-26T08:01:05Z</time>
      </trkpt>
      <trkpt lat="46.06915" lon="6.76902">
        <ele>1518</ele>
        <time>2026-06-26T08:01:06Z</time>
      </trkpt>
      <trkpt lat="46.06915" lon="6.76902">
        <ele>1518.1</ele>
        <time>2026-06-26T08:01:07Z</time>
      </trkpt>
      <trkpt lat="46.06914" lon="6.76903">
        <ele>1518.3</ele>
        <time>2026-06-26T08:01:08Z</time>
      </trkpt>
      <trkpt lat="46.06914" lon="6.76902">
        <ele>1518.4</ele>
        <time>2026-06-26T08:01:09Z</time>
      </trkpt>
      <trkpt lat="46.06913" lon="6.76903">
        <ele>1518.5</ele>
        <time>2026-06-26T08:01:10Z</time>
      </trkpt>
      <trkpt lat="46.06913" lon="6.76903">
        <ele>1518.8</ele>
        <time>2026-06-26T08:01:11Z</time>
      </trkpt>
      <trkpt lat="46.06912" lon="6.76904">
        <ele>1518.9</ele>
        <time>2026-06-26T08:01:12Z</time>
      </trkpt>
      <trkpt lat="46.06911" lon="6.76905">
        <ele>1519</ele>
        <time>2026-06-26T08:01:13Z</time>
      </trkpt>
      <trkpt lat="46.06911" lon="6.76907">
        <ele>1519.2</ele>
        <time>2026-06-26T08:01:14Z</time>
      </trkpt>
      <trkpt lat="46.06912" lon="6.76907">
        <ele>1519.4</ele>
        <time>2026-06-26T08:01:15Z</time>
      </trkpt>
      <trkpt lat="46.06911" lon="6.76907">
        <ele>1519.5</ele>
        <time>2026-06-26T08:01:16Z</time>
      </trkpt>
      <trkpt lat="46.06911" lon="6.76908">
        <ele>1519.6</ele>
        <time>2026-06-26T08:01:17Z</time>
      </trkpt>
      <trkpt lat="46.06912" lon="6.76909">
        <ele>1519.9</ele>
        <time>2026-06-26T08:01:18Z</time>
      </trkpt>
      <trkpt lat="46.06912" lon="6.7691">
        <ele>1520.1</ele>
        <time>2026-06-26T08:01:19Z</time>
      </trkpt>
      <trkpt lat="46.06913" lon="6.7691">
        <ele>1520.2</ele>
        <time>2026-06-26T08:01:20Z</time>
      </trkpt>
      <trkpt lat="46.06913" lon="6.76911">
        <ele>1520.4</ele>
        <time>2026-06-26T08:01:21Z</time>
      </trkpt>
      <trkpt lat="46.06913" lon="6.76912">
        <ele>1520.4</ele>
        <time>2026-06-26T08:01:22Z</time>
      </trkpt>
      <trkpt lat="46.06914" lon="6.76913">
        <ele>1520.5</ele>
        <time>2026-06-26T08:01:23Z</time>
      </trkpt>
      <trkpt lat="46.06915" lon="6.76914">
        <ele>1520.6</ele>
        <time>2026-06-26T08:01:24Z</time>
      </trkpt>
      <trkpt lat="46.06915" lon="6.76915">
        <ele>1520.7</ele>
        <time>2026-06-26T08:01:25Z</time>
      </trkpt>
      <trkpt lat="46.06915" lon="6.76916">
        <ele>1520.8</ele>
        <time>2026-06-26T08:01:26Z</time>
      </trkpt>
      <trkpt lat="46.06915" lon="6.76916">
        <ele>1520.9</ele>
        <time>2026-06-26T08:01:27Z</time>
      </trkpt>
      <trkpt lat="46.06916" lon="6.76917">
        <ele>1520.9</ele>
        <time>2026-06-26T08:01:28Z</time>
      </trkpt>
      <trkpt lat="46.06916" lon="6.76917">
        <ele>1521</ele>
        <time>2026-06-26T08:01:29Z</time>
      </trkpt>
      <trkpt lat="46.06916" lon="6.76918">
        <ele>1521</ele>
        <time>2026-06-26T08:01:30Z</time>
      </trkpt>
      <trkpt lat="46.06916" lon="6.76917">
        <ele>1521</ele>
        <time>2026-06-26T08:01:31Z</time>
      </trkpt>
      <trkpt lat="46.06916" lon="6.76918">
        <ele>1521</ele>
        <time>2026-06-26T08:01:32Z</time>
      </trkpt>
      <trkpt lat="46.06916" lon="6.76918">
        <ele>1521</ele>
        <time>2026-06-26T08:01:33Z</time>
      </trkpt>
      <trkpt lat="46.06916" lon="6.76918">
        <ele>1521</ele>
        <time>2026-06-26T08:01:34Z</time>
      </trkpt>
      <trkpt lat="46.06916" lon="6.76918">
        <ele>1521</ele>
        <time>2026-06-26T08:01:35Z</time>
      </trkpt>
      <trkpt lat="46.06917" lon="6.76918">
        <ele>1521</ele>
        <time>2026-06-26T08:01:36Z</time>
      </trkpt>
      <trkpt lat="46.06916" lon="6.76919">
        <ele>1521</ele>
        <time>2026-06-26T08:01:37Z</time>
      </trkpt>
      <trkpt lat="46.06916" lon="6.76919">
        <ele>1521.1</ele>
        <time>2026-06-26T08:01:38Z</time>
      </trkpt>
      <trkpt lat="46.06916" lon="6.76919">
        <ele>1521.2</ele>
        <time>2026-06-26T08:01:39Z</time>
      </trkpt>
      <trkpt lat="46.06915" lon="6.76919">
        <ele>1521.2</ele>
        <time>2026-06-26T08:01:40Z</time>
      </trkpt>
      <trkpt lat="46.06915" lon="6.76919">
        <ele>1521.3</ele>
        <time>2026-06-26T08:01:41Z</time>
      </trkpt>
      <trkpt lat="46.06915" lon="6.7692">
        <ele>1521.3</ele>
        <time>2026-06-26T08:01:42Z</time>
      </trkpt>
      <trkpt lat="46.06915" lon="6.7692">
        <ele>1521.3</ele>
        <time>2026-06-26T08:01:43Z</time>
      </trkpt>
      <trkpt lat="46.06915" lon="6.7692">
        <ele>1521.2</ele>
        <time>2026-06-26T08:01:44Z</time>
      </trkpt>
      <trkpt lat="46.06915" lon="6.7692">
        <ele>1521.2</ele>
        <time>2026-06-26T08:01:45Z</time>
      </trkpt>
      <trkpt lat="46.06915" lon="6.7692">
        <ele>1521.1</ele>
        <time>2026-06-26T08:01:46Z</time>
      </trkpt>
      <trkpt lat="46.06915" lon="6.76921">
        <ele>1521.1</ele>
        <time>2026-06-26T08:01:47Z</time>
      </trkpt>
      <trkpt lat="46.06916" lon="6.76921">
        <ele>1521.1</ele>
        <time>2026-06-26T08:01:48Z</time>
      </trkpt>
      <trkpt lat="46.06916" lon="6.76921">
        <ele>1521.1</ele>
        <time>2026-06-26T08:01:49Z</time>
      </trkpt>
      <trkpt lat="46.06916" lon="6.76921">
        <ele>1521.1</ele>
        <time>2026-06-26T08:01:50Z</time>
      </trkpt>
      <trkpt lat="46.06916" lon="6.76921">
        <ele>1521.1</ele>
        <time>2026-06-26T08:01:51Z</time>
      </trkpt>
      <trkpt lat="46.06916" lon="6.76922">
        <ele>1521.1</ele>
        <time>2026-06-26T08:01:52Z</time>
      </trkpt>
      <trkpt lat="46.06917" lon="6.76922">
        <ele>1521.1</ele>
        <time>2026-06-26T08:01:53Z</time>
      </trkpt>
      <trkpt lat="46.06917" lon="6.76922">
        <ele>1521</ele>
        <time>2026-06-26T08:01:54Z</time>
      </trkpt>
      <trkpt lat="46.06918" lon="6.76922">
        <ele>1521</ele>
        <time>2026-06-26T08:01:55Z</time>
      </trkpt>
      <trkpt lat="46.06918" lon="6.76922">
        <ele>1521</ele>
        <time>2026-06-26T08:01:56Z</time>
      </trkpt>
      <trkpt lat="46.06919" lon="6.76922">
        <ele>1521</ele>
        <time>2026-06-26T08:01:57Z</time>
      </trkpt>
      <trkpt lat="46.06919" lon="6.76921">
        <ele>1521</ele>
        <time>2026-06-26T08:01:58Z</time>
      </trkpt>
      <trkpt lat="46.06919" lon="6.76921">
        <ele>1520.9</ele>
        <time>2026-06-26T08:01:59Z</time>
      </trkpt>
      <trkpt lat="46.0692" lon="6.76921">
        <ele>1520.8</ele>
        <time>2026-06-26T08:02:00Z</time>
      </trkpt>
      <trkpt lat="46.0692" lon="6.76921">
        <ele>1520.8</ele>
        <time>2026-06-26T08:02:01Z</time>
      </trkpt>
      <trkpt lat="46.06919" lon="6.76921">
        <ele>1520.8</ele>
        <time>2026-06-26T08:02:02Z</time>
      </trkpt>
      <trkpt lat="46.0692" lon="6.76922">
        <ele>1520.9</ele>
        <time>2026-06-26T08:02:03Z</time>
      </trkpt>
      <trkpt lat="46.0692" lon="6.76922">
        <ele>1520.8</ele>
        <time>2026-06-26T08:02:04Z</time>
      </trkpt>
      <trkpt lat="46.0692" lon="6.76922">
        <ele>1520.8</ele>
        <time>2026-06-26T08:02:05Z</time>
      </trkpt>
      <trkpt lat="46.06921" lon="6.76922">
        <ele>1520.8</ele>
        <time>2026-06-26T08:02:06Z</time>
      </trkpt>
      <trkpt lat="46.06921" lon="6.76922">
        <ele>1520.9</ele>
        <time>2026-06-26T08:02:07Z</time>
      </trkpt>
      <trkpt lat="46.06921" lon="6.76922">
        <ele>1520.9</ele>
        <time>2026-06-26T08:02:08Z</time>
      </trkpt>
      <trkpt lat="46.06922" lon="6.76922">
        <ele>1520.9</ele>
        <time>2026-06-26T08:02:09Z</time>
      </trkpt>
      <trkpt lat="46.06922" lon="6.76922">
        <ele>1520.9</ele>
        <time>2026-06-26T08:02:10Z</time>
      </trkpt>
      <trkpt lat="46.06923" lon="6.76922">
        <ele>1520.9</ele>
        <time>2026-06-26T08:02:11Z</time>
      </trkpt>
      <trkpt lat="46.06923" lon="6.76921">
        <ele>1521</ele>
        <time>2026-06-26T08:02:12Z</time>
      </trkpt>
      <trkpt lat="46.06924" lon="6.76922">
        <ele>1521</ele>
        <time>2026-06-26T08:02:13Z</time>
      </trkpt>
      <trkpt lat="46.06924" lon="6.76921">
        <ele>1521</ele>
        <time>2026-06-26T08:02:14Z</time>
      </trkpt>
      <trkpt lat="46.06925" lon="6.76921">
        <ele>1520.9</ele>
        <time>2026-06-26T08:02:15Z</time>
      </trkpt>
      <trkpt lat="46.06925" lon="6.76921">
        <ele>1521</ele>
        <time>2026-06-26T08:02:16Z</time>
      </trkpt>
      <trkpt lat="46.06926" lon="6.76921">
        <ele>1521</ele>
        <time>2026-06-26T08:02:17Z</time>
      </trkpt>
      <trkpt lat="46.06925" lon="6.76921">
        <ele>1521</ele>
        <time>2026-06-26T08:02:18Z</time>
      </trkpt>
      <trkpt lat="46.06925" lon="6.76922">
        <ele>1521</ele>
        <time>2026-06-26T08:02:19Z</time>
      </trkpt>
      <trkpt lat="46.06926" lon="6.76922">
        <ele>1521.1</ele>
        <time>2026-06-26T08:02:20Z</time>
      </trkpt>
      <trkpt lat="46.06926" lon="6.76922">
        <ele>1521.1</ele>
        <time>2026-06-26T08:02:21Z</time>
      </trkpt>
      <trkpt lat="46.06927" lon="6.76922">
        <ele>1521.2</ele>
        <time>2026-06-26T08:02:22Z</time>
      </trkpt>
      <trkpt lat="46.06927" lon="6.76922">
        <ele>1521.1</ele>
        <time>2026-06-26T08:02:23Z</time>
      </trkpt>
      <trkpt lat="46.06927" lon="6.76922">
        <ele>1521.1</ele>
        <time>2026-06-26T08:02:24Z</time>
      </trkpt>
      <trkpt lat="46.06927" lon="6.76922">
        <ele>1521.1</ele>
        <time>2026-06-26T08:02:25Z</time>
      </trkpt>
      <trkpt lat="46.06926" lon="6.76923">
        <ele>1521.1</ele>
        <time>2026-06-26T08:02:26Z</time>
      </trkpt>
      <trkpt lat="46.06926" lon="6.76923">
        <ele>1521.2</ele>
        <time>2026-06-26T08:02:27Z</time>
      </trkpt>
      <trkpt lat="46.06926" lon="6.76923">
        <ele>1521.2</ele>
        <time>2026-06-26T08:02:28Z</time>
      </trkpt>
      <trkpt lat="46.06926" lon="6.76924">
        <ele>1521.1</ele>
        <time>2026-06-26T08:02:29Z</time>
      </trkpt>
      <trkpt lat="46.06926" lon="6.76924">
        <ele>1521.1</ele>
        <time>2026-06-26T08:02:30Z</time>
      </trkpt>
      <trkpt lat="46.06925" lon="6.76925">
        <ele>1521.1</ele>
        <time>2026-06-26T08:02:31Z</time>
      </trkpt>
      <trkpt lat="46.06925" lon="6.76925">
        <ele>1521.1</ele>
        <time>2026-06-26T08:02:32Z</time>
      </trkpt>
      <trkpt lat="46.06925" lon="6.76925">
        <ele>1521.1</ele>
        <time>2026-06-26T08:02:33Z</time>
      </trkpt>
      <trkpt lat="46.06925" lon="6.76925">
        <ele>1521.1</ele>
        <time>2026-06-26T08:02:34Z</time>
      </trkpt>
      <trkpt lat="46.06925" lon="6.76926">
        <ele>1521</ele>
        <time>2026-06-26T08:02:35Z</time>
      </trkpt>
      <trkpt lat="46.06926" lon="6.76926">
        <ele>1521</ele>
        <time>2026-06-26T08:02:36Z</time>
      </trkpt>
      <trkpt lat="46.06926" lon="6.76927">
        <ele>1520.9</ele>
        <time>2026-06-26T08:02:37Z</time>
      </trkpt>
      <trkpt lat="46.06926" lon="6.76927">
        <ele>1520.9</ele>
        <time>2026-06-26T08:02:38Z</time>
      </trkpt>
      <trkpt lat="46.06926" lon="6.76927">
        <ele>1521</ele>
        <time>2026-06-26T08:02:39Z</time>
      </trkpt>
      <trkpt lat="46.06926" lon="6.76927">
        <ele>1520.8</ele>
        <time>2026-06-26T08:02:40Z</time>
      </trkpt>
      <trkpt lat="46.06927" lon="6.76927">
        <ele>1520.8</ele>
        <time>2026-06-26T08:02:41Z</time>
      </trkpt>
      <trkpt lat="46.06927" lon="6.76927">
        <ele>1520.8</ele>
        <time>2026-06-26T08:02:42Z</time>
      </trkpt>
      <trkpt lat="46.06927" lon="6.76927">
        <ele>1520.8</ele>
        <time>2026-06-26T08:02:43Z</time>
      </trkpt>
      <trkpt lat="46.06927" lon="6.76927">
        <ele>1520.8</ele>
        <time>2026-06-26T08:02:44Z</time>
      </trkpt>
      <trkpt lat="46.06928" lon="6.76927">
        <ele>1520.8</ele>
        <time>2026-06-26T08:02:45Z</time>
      </trkpt>
      <trkpt lat="46.06928" lon="6.76927">
        <ele>1520.8</ele>
        <time>2026-06-26T08:02:46Z</time>
      </trkpt>
      <trkpt lat="46.06929" lon="6.76927">
        <ele>1520.9</ele>
        <time>2026-06-26T08:02:47Z</time>
      </trkpt>
      <trkpt lat="46.06929" lon="6.76927">
        <ele>1520.8</ele>
        <time>2026-06-26T08:02:48Z</time>
      </trkpt>
      <trkpt lat="46.06929" lon="6.76927">
        <ele>1520.8</ele>
        <time>2026-06-26T08:02:49Z</time>
      </trkpt>
      <trkpt lat="46.0693" lon="6.76927">
        <ele>1520.8</ele>
        <time>2026-06-26T08:02:50Z</time>
      </trkpt>
      <trkpt lat="46.0693" lon="6.76927">
        <ele>1520.8</ele>
        <time>2026-06-26T08:02:51Z</time>
      </trkpt>
      <trkpt lat="46.0693" lon="6.76927">
        <ele>1520.8</ele>
        <time>2026-06-26T08:02:52Z</time>
      </trkpt>
      <trkpt lat="46.0693" lon="6.76927">
        <ele>1520.8</ele>
        <time>2026-06-26T08:02:53Z</time>
      </trkpt>
      <trkpt lat="46.0693" lon="6.76927">
        <ele>1520.7</ele>
        <time>2026-06-26T08:02:54Z</time>
      </trkpt>
      <trkpt lat="46.0693" lon="6.76927">
        <ele>1520.6</ele>
        <time>2026-06-26T08:02:55Z</time>
      </trkpt>
      <trkpt lat="46.0693" lon="6.76927">
        <ele>1520.6</ele>
        <time>2026-06-26T08:02:56Z</time>
      </trkpt>
      <trkpt lat="46.0693" lon="6.76927">
        <ele>1520.5</ele>
        <time>2026-06-26T08:02:57Z</time>
      </trkpt>
      <trkpt lat="46.0693" lon="6.76927">
        <ele>1520.6</ele>
        <time>2026-06-26T08:02:58Z</time>
      </trkpt>
      <trkpt lat="46.0693" lon="6.76927">
        <ele>1520.6</ele>
        <time>2026-06-26T08:02:59Z</time>
      </trkpt>
      <trkpt lat="46.0693" lon="6.76927">
        <ele>1520.6</ele>
        <time>2026-06-26T08:03:00Z</time>
      </trkpt>
      <trkpt lat="46.0693" lon="6.76927">
        <ele>1520.6</ele>
        <time>2026-06-26T08:03:01Z</time>
      </trkpt>
      <trkpt lat="46.06929" lon="6.76927">
        <ele>1520.7</ele>
        <time>2026-06-26T08:03:02Z</time>
      </trkpt>
      <trkpt lat="46.06929" lon="6.76927">
        <ele>1520.8</ele>
        <time>2026-06-26T08:03:03Z</time>
      </trkpt>
      <trkpt lat="46.06928" lon="6.76927">
        <ele>1520.9</ele>
        <time>2026-06-26T08:03:04Z</time>
      </trkpt>
      <trkpt lat="46.06928" lon="6.76927">
        <ele>1520.9</ele>
        <time>2026-06-26T08:03:05Z</time>
      </trkpt>
      <trkpt lat="46.06927" lon="6.76928">
        <ele>1520.9</ele>
        <time>2026-06-26T08:03:06Z</time>
      </trkpt>
      <trkpt lat="46.06927" lon="6.76927">
        <ele>1520.9</ele>
        <time>2026-06-26T08:03:07Z</time>
      </trkpt>
      <trkpt lat="46.06927" lon="6.76927">
        <ele>1520.9</ele>
        <time>2026-06-26T08:03:08Z</time>
      </trkpt>
      <trkpt lat="46.06926" lon="6.76928">
        <ele>1520.9</ele>
        <time>2026-06-26T08:03:09Z</time>
      </trkpt>
      <trkpt lat="46.06926" lon="6.76928">
        <ele>1520.9</ele>
        <time>2026-06-26T08:03:10Z</time>
      </trkpt>
      <trkpt lat="46.06926" lon="6.76927">
        <ele>1520.8</ele>
        <time>2026-06-26T08:03:11Z</time>
      </trkpt>
      <trkpt lat="46.06925" lon="6.76927">
        <ele>1520.8</ele>
        <time>2026-06-26T08:03:12Z</time>
      </trkpt>
      <trkpt lat="46.06925" lon="6.76927">
        <ele>1520.7</ele>
        <time>2026-06-26T08:03:13Z</time>
      </trkpt>
      <trkpt lat="46.06925" lon="6.76927">
        <ele>1520.7</ele>
        <time>2026-06-26T08:03:14Z</time>
      </trkpt>
      <trkpt lat="46.06925" lon="6.76927">
        <ele>1520.7</ele>
        <time>2026-06-26T08:03:15Z</time>
      </trkpt>
      <trkpt lat="46.06924" lon="6.76927">
        <ele>1520.7</ele>
        <time>2026-06-26T08:03:16Z</time>
      </trkpt>
      <trkpt lat="46.06924" lon="6.76927">
        <ele>1520.8</ele>
        <time>2026-06-26T08:03:17Z</time>
      </trkpt>
      <trkpt lat="46.06924" lon="6.76927">
        <ele>1520.8</ele>
        <time>2026-06-26T08:03:18Z</time>
      </trkpt>
      <trkpt lat="46.06924" lon="6.76927">
        <ele>1520.8</ele>
        <time>2026-06-26T08:03:19Z</time>
      </trkpt>
      <trkpt lat="46.06924" lon="6.76927">
        <ele>1520.9</ele>
        <time>2026-06-26T08:03:20Z</time>
      </trkpt>
      <trkpt lat="46.06924" lon="6.76927">
        <ele>1520.9</ele>
        <time>2026-06-26T08:03:21Z</time>
      </trkpt>
      <trkpt lat="46.06923" lon="6.76927">
        <ele>1520.9</ele>
        <time>2026-06-26T08:03:22Z</time>
      </trkpt>
      <trkpt lat="46.06923" lon="6.76927">
        <ele>1520.9</ele>
        <time>2026-06-26T08:03:23Z</time>
      </trkpt>
      <trkpt lat="46.06923" lon="6.76927">
        <ele>1521</ele>
        <time>2026-06-26T08:03:24Z</time>
      </trkpt>
      <trkpt lat="46.06923" lon="6.76927">
        <ele>1520.9</ele>
        <time>2026-06-26T08:03:25Z</time>
      </trkpt>
      <trkpt lat="46.06922" lon="6.76928">
        <ele>1521</ele>
        <time>2026-06-26T08:03:26Z</time>
      </trkpt>
      <trkpt lat="46.06922" lon="6.76928">
        <ele>1521</ele>
        <time>2026-06-26T08:03:27Z</time>
      </trkpt>
      <trkpt lat="46.06922" lon="6.76928">
        <ele>1520.9</ele>
        <time>2026-06-26T08:03:28Z</time>
      </trkpt>
      <trkpt lat="46.06922" lon="6.76928">
        <ele>1520.8</ele>
        <time>2026-06-26T08:03:29Z</time>
      </trkpt>
      <trkpt lat="46.06922" lon="6.76928">
        <ele>1520.9</ele>
        <time>2026-06-26T08:03:30Z</time>
      </trkpt>
      <trkpt lat="46.06921" lon="6.76928">
        <ele>1520.9</ele>
        <time>2026-06-26T08:03:31Z</time>
      </trkpt>
      <trkpt lat="46.06921" lon="6.76928">
        <ele>1520.9</ele>
        <time>2026-06-26T08:03:32Z</time>
      </trkpt>
      <trkpt lat="46.06921" lon="6.76928">
        <ele>1520.9</ele>
        <time>2026-06-26T08:03:33Z</time>
      </trkpt>
      <trkpt lat="46.06921" lon="6.76928">
        <ele>1520.9</ele>
        <time>2026-06-26T08:03:34Z</time>
      </trkpt>
      <trkpt lat="46.0692" lon="6.76928">
        <ele>1520.9</ele>
        <time>2026-06-26T08:03:35Z</time>
      </trkpt>
      <trkpt lat="46.0692" lon="6.76928">
        <ele>1520.9</ele>
        <time>2026-06-26T08:03:36Z</time>
      </trkpt>
      <trkpt lat="46.0692" lon="6.76928">
        <ele>1520.9</ele>
        <time>2026-06-26T08:03:37Z</time>
      </trkpt>
      <trkpt lat="46.0692" lon="6.76928">
        <ele>1521</ele>
        <time>2026-06-26T08:03:38Z</time>
      </trkpt>
      <trkpt lat="46.0692" lon="6.76928">
        <ele>1521</ele>
        <time>2026-06-26T08:03:39Z</time>
      </trkpt>
      <trkpt lat="46.06919" lon="6.76928">
        <ele>1521</ele>
        <time>2026-06-26T08:03:40Z</time>
      </trkpt>
      <trkpt lat="46.06919" lon="6.76928">
        <ele>1521</ele>
        <time>2026-06-26T08:03:41Z</time>
      </trkpt>
      <trkpt lat="46.06919" lon="6.76928">
        <ele>1521</ele>
        <time>2026-06-26T08:03:42Z</time>
      </trkpt>
      <trkpt lat="46.06919" lon="6.76928">
        <ele>1521.1</ele>
        <time>2026-06-26T08:03:43Z</time>
      </trkpt>
      <trkpt lat="46.06918" lon="6.76928">
        <ele>1521.1</ele>
        <time>2026-06-26T08:03:44Z</time>
      </trkpt>
      <trkpt lat="46.06918" lon="6.76928">
        <ele>1521.2</ele>
        <time>2026-06-26T08:03:45Z</time>
      </trkpt>
      <trkpt lat="46.06918" lon="6.76927">
        <ele>1521.2</ele>
        <time>2026-06-26T08:03:46Z</time>
      </trkpt>
      <trkpt lat="46.06918" lon="6.76927">
        <ele>1521.3</ele>
        <time>2026-06-26T08:03:47Z</time>
      </trkpt>
      <trkpt lat="46.06918" lon="6.76927">
        <ele>1521.2</ele>
        <time>2026-06-26T08:03:48Z</time>
      </trkpt>
      <trkpt lat="46.06918" lon="6.76927">
        <ele>1521.2</ele>
        <time>2026-06-26T08:03:49Z</time>
      </trkpt>
      <trkpt lat="46.06917" lon="6.76927">
        <ele>1521.2</ele>
        <time>2026-06-26T08:03:50Z</time>
      </trkpt>
      <trkpt lat="46.06917" lon="6.76927">
        <ele>1521.3</ele>
        <time>2026-06-26T08:03:51Z</time>
      </trkpt>
      <trkpt lat="46.06917" lon="6.76927">
        <ele>1521.3</ele>
        <time>2026-06-26T08:03:52Z</time>
      </trkpt>
      <trkpt lat="46.06917" lon="6.76927">
        <ele>1521.3</ele>
        <time>2026-06-26T08:03:53Z</time>
      </trkpt>
      <trkpt lat="46.06917" lon="6.76927">
        <ele>1521.3</ele>
        <time>2026-06-26T08:03:54Z</time>
      </trkpt>
      <trkpt lat="46.06916" lon="6.76928">
        <ele>1521.4</ele>
        <time>2026-06-26T08:03:55Z</time>
      </trkpt>
      <trkpt lat="46.06916" lon="6.76928">
        <ele>1521.4</ele>
        <time>2026-06-26T08:03:56Z</time>
      </trkpt>
      <trkpt lat="46.06916" lon="6.76928">
        <ele>1521.4</ele>
        <time>2026-06-26T08:03:57Z</time>
      </trkpt>
      <trkpt lat="46.06915" lon="6.76928">
        <ele>1521.4</ele>
        <time>2026-06-26T08:03:58Z</time>
      </trkpt>
      <trkpt lat="46.06915" lon="6.76928">
        <ele>1521.2</ele>
        <time>2026-06-26T08:03:59Z</time>
      </trkpt>
      <trkpt lat="46.06915" lon="6.76928">
        <ele>1521.2</ele>
        <time>2026-06-26T08:04:00Z</time>
      </trkpt>
      <trkpt lat="46.06915" lon="6.76928">
        <ele>1521.1</ele>
        <time>2026-06-26T08:04:01Z</time>
      </trkpt>
      <trkpt lat="46.06915" lon="6.76928">
        <ele>1521.1</ele>
        <time>2026-06-26T08:04:02Z</time>
      </trkpt>
      <trkpt lat="46.06915" lon="6.76928">
        <ele>1521</ele>
        <time>2026-06-26T08:04:03Z</time>
      </trkpt>
      <trkpt lat="46.06915" lon="6.76928">
        <ele>1521</ele>
        <time>2026-06-26T08:04:04Z</time>
      </trkpt>
      <trkpt lat="46.06915" lon="6.76928">
        <ele>1520.9</ele>
        <time>2026-06-26T08:04:05Z</time>
      </trkpt>
      <trkpt lat="46.06915" lon="6.76928">
        <ele>1520.9</ele>
        <time>2026-06-26T08:04:06Z</time>
      </trkpt>
      <trkpt lat="46.06915" lon="6.76928">
        <ele>1521</ele>
        <time>2026-06-26T08:04:07Z</time>
      </trkpt>
      <trkpt lat="46.06914" lon="6.76928">
        <ele>1521</ele>
        <time>2026-06-26T08:04:08Z</time>
      </trkpt>
      <trkpt lat="46.06914" lon="6.76928">
        <ele>1520.9</ele>
        <time>2026-06-26T08:04:09Z</time>
      </trkpt>
      <trkpt lat="46.06914" lon="6.76928">
        <ele>1520.8</ele>
        <time>2026-06-26T08:04:10Z</time>
      </trkpt>
      <trkpt lat="46.06914" lon="6.76928">
        <ele>1520.8</ele>
        <time>2026-06-26T08:04:11Z</time>
      </trkpt>
      <trkpt lat="46.06914" lon="6.76928">
        <ele>1520.7</ele>
        <time>2026-06-26T08:04:12Z</time>
      </trkpt>
      <trkpt lat="46.06914" lon="6.76929">
        <ele>1520.7</ele>
        <time>2026-06-26T08:04:13Z</time>
      </trkpt>
      <trkpt lat="46.06914" lon="6.76929">
        <ele>1520.7</ele>
        <time>2026-06-26T08:04:14Z</time>
      </trkpt>
      <trkpt lat="46.06914" lon="6.76929">
        <ele>1520.7</ele>
        <time>2026-06-26T08:04:15Z</time>
      </trkpt>
      <trkpt lat="46.06914" lon="6.76928">
        <ele>1520.7</ele>
        <time>2026-06-26T08:04:16Z</time>
      </trkpt>
      <trkpt lat="46.06914" lon="6.76928">
        <ele>1520.7</ele>
        <time>2026-06-26T08:04:17Z</time>
      </trkpt>
      <trkpt lat="46.06914" lon="6.76928">
        <ele>1520.7</ele>
        <time>2026-06-26T08:04:18Z</time>
      </trkpt>
      <trkpt lat="46.06914" lon="6.76928">
        <ele>1520.8</ele>
        <time>2026-06-26T08:04:19Z</time>
      </trkpt>
      <trkpt lat="46.06914" lon="6.76928">
        <ele>1520.8</ele>
        <time>2026-06-26T08:04:20Z</time>
      </trkpt>
      <trkpt lat="46.06914" lon="6.76928">
        <ele>1520.8</ele>
        <time>2026-06-26T08:04:21Z</time>
      </trkpt>
      <trkpt lat="46.06913" lon="6.76928">
        <ele>1520.8</ele>
        <time>2026-06-26T08:04:22Z</time>
      </trkpt>
      <trkpt lat="46.06913" lon="6.76928">
        <ele>1520.9</ele>
        <time>2026-06-26T08:04:23Z</time>
      </trkpt>
      <trkpt lat="46.06914" lon="6.76927">
        <ele>1520.8</ele>
        <time>2026-06-26T08:04:24Z</time>
      </trkpt>
      <trkpt lat="46.06914" lon="6.76927">
        <ele>1520.8</ele>
        <time>2026-06-26T08:04:25Z</time>
      </trkpt>
      <trkpt lat="46.06914" lon="6.76927">
        <ele>1520.8</ele>
        <time>2026-06-26T08:04:26Z</time>
      </trkpt>
      <trkpt lat="46.06915" lon="6.76926">
        <ele>1520.8</ele>
        <time>2026-06-26T08:04:27Z</time>
      </trkpt>
      <trkpt lat="46.06915" lon="6.76926">
        <ele>1520.8</ele>
        <time>2026-06-26T08:04:28Z</time>
      </trkpt>
      <trkpt lat="46.06915" lon="6.76926">
        <ele>1520.8</ele>
        <time>2026-06-26T08:04:29Z</time>
      </trkpt>
      <trkpt lat="46.06915" lon="6.76926">
        <ele>1520.8</ele>
        <time>2026-06-26T08:04:30Z</time>
      </trkpt>
      <trkpt lat="46.06916" lon="6.76926">
        <ele>1520.8</ele>
        <time>2026-06-26T08:04:31Z</time>
      </trkpt>
      <trkpt lat="46.06916" lon="6.76926">
        <ele>1520.8</ele>
        <time>2026-06-26T08:04:32Z</time>
      </trkpt>
      <trkpt lat="46.06916" lon="6.76925">
        <ele>1520.8</ele>
        <time>2026-06-26T08:04:33Z</time>
      </trkpt>
      <trkpt lat="46.06916" lon="6.76925">
        <ele>1520.8</ele>
        <time>2026-06-26T08:04:34Z</time>
      </trkpt>
      <trkpt lat="46.06916" lon="6.76925">
        <ele>1520.8</ele>
        <time>2026-06-26T08:04:35Z</time>
      </trkpt>
      <trkpt lat="46.06916" lon="6.76925">
        <ele>1520.8</ele>
        <time>2026-06-26T08:04:36Z</time>
      </trkpt>
      <trkpt lat="46.06916" lon="6.76925">
        <ele>1520.8</ele>
        <time>2026-06-26T08:04:37Z</time>
      </trkpt>
      <trkpt lat="46.06916" lon="6.76925">
        <ele>1520.8</ele>
        <time>2026-06-26T08:04:38Z</time>
      </trkpt>
      <trkpt lat="46.06917" lon="6.76925">
        <ele>1520.9</ele>
        <time>2026-06-26T08:04:39Z</time>
      </trkpt>
      <trkpt lat="46.06917" lon="6.76926">
        <ele>1520.8</ele>
        <time>2026-06-26T08:04:40Z</time>
      </trkpt>
      <trkpt lat="46.06916" lon="6.76926">
        <ele>1520.8</ele>
        <time>2026-06-26T08:04:41Z</time>
      </trkpt>
      <trkpt lat="46.06917" lon="6.76926">
        <ele>1520.9</ele>
        <time>2026-06-26T08:04:42Z</time>
      </trkpt>
      <trkpt lat="46.06917" lon="6.76926">
        <ele>1520.8</ele>
        <time>2026-06-26T08:04:43Z</time>
      </trkpt>
      <trkpt lat="46.06917" lon="6.76925">
        <ele>1520.8</ele>
        <time>2026-06-26T08:04:44Z</time>
      </trkpt>
      <trkpt lat="46.06917" lon="6.76925">
        <ele>1520.7</ele>
        <time>2026-06-26T08:04:45Z</time>
      </trkpt>
      <trkpt lat="46.06917" lon="6.76925">
        <ele>1520.7</ele>
        <time>2026-06-26T08:04:46Z</time>
      </trkpt>
      <trkpt lat="46.06918" lon="6.76925">
        <ele>1520.7</ele>
        <time>2026-06-26T08:04:47Z</time>
      </trkpt>
      <trkpt lat="46.06918" lon="6.76925">
        <ele>1520.7</ele>
        <time>2026-06-26T08:04:48Z</time>
      </trkpt>
      <trkpt lat="46.06917" lon="6.76925">
        <ele>1520.7</ele>
        <time>2026-06-26T08:04:49Z</time>
      </trkpt>
      <trkpt lat="46.06917" lon="6.76925">
        <ele>1520.8</ele>
        <time>2026-06-26T08:04:50Z</time>
      </trkpt>
      <trkpt lat="46.06917" lon="6.76925">
        <ele>1520.8</ele>
        <time>2026-06-26T08:04:51Z</time>
      </trkpt>
      <trkpt lat="46.06918" lon="6.76925">
        <ele>1520.8</ele>
        <time>2026-06-26T08:04:52Z</time>
      </trkpt>
      <trkpt lat="46.06917" lon="6.76925">
        <ele>1520.8</ele>
        <time>2026-06-26T08:04:53Z</time>
      </trkpt>
      <trkpt lat="46.06917" lon="6.76926">
        <ele>1520.8</ele>
        <time>2026-06-26T08:04:54Z</time>
      </trkpt>
      <trkpt lat="46.06917" lon="6.76926">
        <ele>1520.8</ele>
        <time>2026-06-26T08:04:55Z</time>
      </trkpt>
      <trkpt lat="46.06917" lon="6.76926">
        <ele>1520.8</ele>
        <time>2026-06-26T08:04:56Z</time>
      </trkpt>
      <trkpt lat="46.06917" lon="6.76926">
        <ele>1520.8</ele>
        <time>2026-06-26T08:04:57Z</time>
      </trkpt>
      <trkpt lat="46.06918" lon="6.76926">
        <ele>1520.9</ele>
        <time>2026-06-26T08:04:58Z</time>
      </trkpt>
      <trkpt lat="46.06918" lon="6.76926">
        <ele>1520.9</ele>
        <time>2026-06-26T08:04:59Z</time>
      </trkpt>
      <trkpt lat="46.06918" lon="6.76927">
        <ele>1520.9</ele>
        <time>2026-06-26T08:05:00Z</time>
      </trkpt>
      <trkpt lat="46.06918" lon="6.76927">
        <ele>1520.9</ele>
        <time>2026-06-26T08:05:01Z</time>
      </trkpt>
      <trkpt lat="46.06918" lon="6.76927">
        <ele>1520.9</ele>
        <time>2026-06-26T08:05:02Z</time>
      </trkpt>
      <trkpt lat="46.06917" lon="6.76928">
        <ele>1520.9</ele>
        <time>2026-06-26T08:05:03Z</time>
      </trkpt>
      <trkpt lat="46.06917" lon="6.76928">
        <ele>1520.9</ele>
        <time>2026-06-26T08:05:04Z</time>
      </trkpt>
      <trkpt lat="46.06917" lon="6.76928">
        <ele>1521</ele>
        <time>2026-06-26T08:05:05Z</time>
      </trkpt>
      <trkpt lat="46.06917" lon="6.76928">
        <ele>1521</ele>
        <time>2026-06-26T08:05:06Z</time>
      </trkpt>
      <trkpt lat="46.06917" lon="6.76928">
        <ele>1520.9</ele>
        <time>2026-06-26T08:05:07Z</time>
      </trkpt>
      <trkpt lat="46.06916" lon="6.76929">
        <ele>1520.9</ele>
        <time>2026-06-26T08:05:08Z</time>
      </trkpt>
      <trkpt lat="46.06916" lon="6.76928">
        <ele>1520.9</ele>
        <time>2026-06-26T08:05:09Z</time>
      </trkpt>
      <trkpt lat="46.06917" lon="6.76928">
        <ele>1521.1</ele>
        <time>2026-06-26T08:05:10Z</time>
      </trkpt>
      <trkpt lat="46.06919" lon="6.76927">
        <ele>1521.1</ele>
        <time>2026-06-26T08:05:11Z</time>
      </trkpt>
      <trkpt lat="46.0692" lon="6.76927">
        <ele>1521.1</ele>
        <time>2026-06-26T08:05:12Z</time>
      </trkpt>
      <trkpt lat="46.06921" lon="6.76926">
        <ele>1521.2</ele>
        <time>2026-06-26T08:05:13Z</time>
      </trkpt>
      <trkpt lat="46.06921" lon="6.76927">
        <ele>1521.3</ele>
        <time>2026-06-26T08:05:14Z</time>
      </trkpt>
      <trkpt lat="46.06922" lon="6.76927">
        <ele>1521.4</ele>
        <time>2026-06-26T08:05:15Z</time>
      </trkpt>
      <trkpt lat="46.06921" lon="6.76927">
        <ele>1521.3</ele>
        <time>2026-06-26T08:05:16Z</time>
      </trkpt>
      <trkpt lat="46.06921" lon="6.76927">
        <ele>1521.4</ele>
        <time>2026-06-26T08:05:17Z</time>
      </trkpt>
      <trkpt lat="46.06921" lon="6.76927">
        <ele>1521.4</ele>
        <time>2026-06-26T08:05:18Z</time>
      </trkpt>
      <trkpt lat="46.06921" lon="6.76927">
        <ele>1521.4</ele>
        <time>2026-06-26T08:05:19Z</time>
      </trkpt>
      <trkpt lat="46.06921" lon="6.76927">
        <ele>1521.4</ele>
        <time>2026-06-26T08:05:20Z</time>
      </trkpt>
      <trkpt lat="46.06922" lon="6.76927">
        <ele>1521.4</ele>
        <time>2026-06-26T08:05:21Z</time>
      </trkpt>
      <trkpt lat="46.06922" lon="6.76927">
        <ele>1521.4</ele>
        <time>2026-06-26T08:05:22Z</time>
      </trkpt>
      <trkpt lat="46.06921" lon="6.76928">
        <ele>1521.3</ele>
        <time>2026-06-26T08:05:23Z</time>
      </trkpt>
      <trkpt lat="46.06921" lon="6.76928">
        <ele>1521.3</ele>
        <time>2026-06-26T08:05:24Z</time>
      </trkpt>
      <trkpt lat="46.06921" lon="6.76929">
        <ele>1521.2</ele>
        <time>2026-06-26T08:05:25Z</time>
      </trkpt>
      <trkpt lat="46.06921" lon="6.76929">
        <ele>1521.2</ele>
        <time>2026-06-26T08:05:26Z</time>
      </trkpt>
      <trkpt lat="46.06921" lon="6.7693">
        <ele>1521.2</ele>
        <time>2026-06-26T08:05:27Z</time>
      </trkpt>
      <trkpt lat="46.0692" lon="6.7693">
        <ele>1521.2</ele>
        <time>2026-06-26T08:05:28Z</time>
      </trkpt>
      <trkpt lat="46.0692" lon="6.7693">
        <ele>1521.2</ele>
        <time>2026-06-26T08:05:29Z</time>
      </trkpt>
      <trkpt lat="46.06919" lon="6.76931">
        <ele>1521.2</ele>
        <time>2026-06-26T08:05:30Z</time>
      </trkpt>
      <trkpt lat="46.06919" lon="6.76931">
        <ele>1521.2</ele>
        <time>2026-06-26T08:05:31Z</time>
      </trkpt>
      <trkpt lat="46.06919" lon="6.76932">
        <ele>1521.2</ele>
        <time>2026-06-26T08:05:32Z</time>
      </trkpt>
      <trkpt lat="46.06918" lon="6.76932">
        <ele>1521.2</ele>
        <time>2026-06-26T08:05:33Z</time>
      </trkpt>
      <trkpt lat="46.06918" lon="6.76932">
        <ele>1521.3</ele>
        <time>2026-06-26T08:05:34Z</time>
      </trkpt>
      <trkpt lat="46.06918" lon="6.76932">
        <ele>1521.2</ele>
        <time>2026-06-26T08:05:35Z</time>
      </trkpt>
      <trkpt lat="46.06918" lon="6.76932">
        <ele>1521.3</ele>
        <time>2026-06-26T08:05:36Z</time>
      </trkpt>
      <trkpt lat="46.06918" lon="6.76931">
        <ele>1521.3</ele>
        <time>2026-06-26T08:05:37Z</time>
      </trkpt>
      <trkpt lat="46.06918" lon="6.76932">
        <ele>1521.4</ele>
        <time>2026-06-26T08:05:38Z</time>
      </trkpt>
      <trkpt lat="46.06918" lon="6.76931">
        <ele>1521.4</ele>
        <time>2026-06-26T08:05:39Z</time>
      </trkpt>
      <trkpt lat="46.06919" lon="6.76931">
        <ele>1521.4</ele>
        <time>2026-06-26T08:05:40Z</time>
      </trkpt>
      <trkpt lat="46.06919" lon="6.76931">
        <ele>1521.5</ele>
        <time>2026-06-26T08:05:41Z</time>
      </trkpt>
      <trkpt lat="46.06919" lon="6.76931">
        <ele>1521.5</ele>
        <time>2026-06-26T08:05:42Z</time>
      </trkpt>
      <trkpt lat="46.06919" lon="6.76931">
        <ele>1521.5</ele>
        <time>2026-06-26T08:05:43Z</time>
      </trkpt>
      <trkpt lat="46.0692" lon="6.7693">
        <ele>1521.4</ele>
        <time>2026-06-26T08:05:44Z</time>
      </trkpt>
      <trkpt lat="46.0692" lon="6.7693">
        <ele>1521.5</ele>
        <time>2026-06-26T08:05:45Z</time>
      </trkpt>
      <trkpt lat="46.0692" lon="6.7693">
        <ele>1521.6</ele>
        <time>2026-06-26T08:05:46Z</time>
      </trkpt>
      <trkpt lat="46.0692" lon="6.7693">
        <ele>1521.6</ele>
        <time>2026-06-26T08:05:47Z</time>
      </trkpt>
      <trkpt lat="46.0692" lon="6.76929">
        <ele>1521.6</ele>
        <time>2026-06-26T08:05:48Z</time>
      </trkpt>
      <trkpt lat="46.0692" lon="6.76929">
        <ele>1521.6</ele>
        <time>2026-06-26T08:05:49Z</time>
      </trkpt>
      <trkpt lat="46.0692" lon="6.76929">
        <ele>1521.5</ele>
        <time>2026-06-26T08:05:50Z</time>
      </trkpt>
      <trkpt lat="46.06919" lon="6.76929">
        <ele>1521.3</ele>
        <time>2026-06-26T08:05:51Z</time>
      </trkpt>
      <trkpt lat="46.06919" lon="6.7693">
        <ele>1521.4</ele>
        <time>2026-06-26T08:05:52Z</time>
      </trkpt>
      <trkpt lat="46.06919" lon="6.7693">
        <ele>1521.3</ele>
        <time>2026-06-26T08:05:53Z</time>
      </trkpt>
      <trkpt lat="46.06919" lon="6.7693">
        <ele>1521.2</ele>
        <time>2026-06-26T08:05:54Z</time>
      </trkpt>
      <trkpt lat="46.06919" lon="6.7693">
        <ele>1521.1</ele>
        <time>2026-06-26T08:05:55Z</time>
      </trkpt>
      <trkpt lat="46.06919" lon="6.7693">
        <ele>1521</ele>
        <time>2026-06-26T08:05:56Z</time>
      </trkpt>
      <trkpt lat="46.06919" lon="6.7693">
        <ele>1520.9</ele>
        <time>2026-06-26T08:05:57Z</time>
      </trkpt>
      <trkpt lat="46.06919" lon="6.7693">
        <ele>1520.9</ele>
        <time>2026-06-26T08:05:58Z</time>
      </trkpt>
      <trkpt lat="46.06919" lon="6.7693">
        <ele>1520.8</ele>
        <time>2026-06-26T08:05:59Z</time>
      </trkpt>
      <trkpt lat="46.06919" lon="6.7693">
        <ele>1520.8</ele>
        <time>2026-06-26T08:06:00Z</time>
      </trkpt>
      <trkpt lat="46.06919" lon="6.7693">
        <ele>1520.8</ele>
        <time>2026-06-26T08:06:01Z</time>
      </trkpt>
      <trkpt lat="46.06919" lon="6.7693">
        <ele>1520.8</ele>
        <time>2026-06-26T08:06:02Z</time>
      </trkpt>
      <trkpt lat="46.06919" lon="6.7693">
        <ele>1520.8</ele>
        <time>2026-06-26T08:06:03Z</time>
      </trkpt>
      <trkpt lat="46.06918" lon="6.7693">
        <ele>1520.7</ele>
        <time>2026-06-26T08:06:04Z</time>
      </trkpt>
      <trkpt lat="46.06918" lon="6.7693">
        <ele>1520.7</ele>
        <time>2026-06-26T08:06:05Z</time>
      </trkpt>
      <trkpt lat="46.06918" lon="6.7693">
        <ele>1520.8</ele>
        <time>2026-06-26T08:06:06Z</time>
      </trkpt>
      <trkpt lat="46.06918" lon="6.7693">
        <ele>1520.8</ele>
        <time>2026-06-26T08:06:07Z</time>
      </trkpt>
      <trkpt lat="46.06917" lon="6.76931">
        <ele>1520.9</ele>
        <time>2026-06-26T08:06:08Z</time>
      </trkpt>
      <trkpt lat="46.06917" lon="6.76931">
        <ele>1520.9</ele>
        <time>2026-06-26T08:06:09Z</time>
      </trkpt>
      <trkpt lat="46.06917" lon="6.76931">
        <ele>1521</ele>
        <time>2026-06-26T08:06:10Z</time>
      </trkpt>
      <trkpt lat="46.06917" lon="6.76931">
        <ele>1521</ele>
        <time>2026-06-26T08:06:11Z</time>
      </trkpt>
      <trkpt lat="46.06917" lon="6.76931">
        <ele>1521</ele>
        <time>2026-06-26T08:06:12Z</time>
      </trkpt>
      <trkpt lat="46.06917" lon="6.7693">
        <ele>1520.9</ele>
        <time>2026-06-26T08:06:13Z</time>
      </trkpt>
      <trkpt lat="46.06917" lon="6.7693">
        <ele>1521</ele>
        <time>2026-06-26T08:06:14Z</time>
      </trkpt>
      <trkpt lat="46.06917" lon="6.7693">
        <ele>1521</ele>
        <time>2026-06-26T08:06:15Z</time>
      </trkpt>
      <trkpt lat="46.06918" lon="6.7693">
        <ele>1521</ele>
        <time>2026-06-26T08:06:16Z</time>
      </trkpt>
      <trkpt lat="46.06918" lon="6.7693">
        <ele>1521.1</ele>
        <time>2026-06-26T08:06:17Z</time>
      </trkpt>
      <trkpt lat="46.06918" lon="6.7693">
        <ele>1521.1</ele>
        <time>2026-06-26T08:06:18Z</time>
      </trkpt>
      <trkpt lat="46.06917" lon="6.7693">
        <ele>1521.1</ele>
        <time>2026-06-26T08:06:19Z</time>
      </trkpt>
      <trkpt lat="46.06917" lon="6.7693">
        <ele>1521.1</ele>
        <time>2026-06-26T08:06:20Z</time>
      </trkpt>
      <trkpt lat="46.06918" lon="6.7693">
        <ele>1521.1</ele>
        <time>2026-06-26T08:06:21Z</time>
      </trkpt>
      <trkpt lat="46.06918" lon="6.7693">
        <ele>1521.1</ele>
        <time>2026-06-26T08:06:22Z</time>
      </trkpt>
      <trkpt lat="46.06918" lon="6.7693">
        <ele>1521.1</ele>
        <time>2026-06-26T08:06:23Z</time>
      </trkpt>
      <trkpt lat="46.06917" lon="6.7693">
        <ele>1521</ele>
        <time>2026-06-26T08:06:24Z</time>
      </trkpt>
      <trkpt lat="46.06917" lon="6.7693">
        <ele>1521</ele>
        <time>2026-06-26T08:06:25Z</time>
      </trkpt>
      <trkpt lat="46.06918" lon="6.7693">
        <ele>1521</ele>
        <time>2026-06-26T08:06:26Z</time>
      </trkpt>
      <trkpt lat="46.06918" lon="6.76929">
        <ele>1521</ele>
        <time>2026-06-26T08:06:27Z</time>
      </trkpt>
      <trkpt lat="46.06918" lon="6.76929">
        <ele>1521</ele>
        <time>2026-06-26T08:06:28Z</time>
      </trkpt>
      <trkpt lat="46.06918" lon="6.76928">
        <ele>1521</ele>
        <time>2026-06-26T08:06:29Z</time>
      </trkpt>
      <trkpt lat="46.06918" lon="6.76928">
        <ele>1520.9</ele>
        <time>2026-06-26T08:06:30Z</time>
      </trkpt>
      <trkpt lat="46.06918" lon="6.76928">
        <ele>1520.9</ele>
        <time>2026-06-26T08:06:31Z</time>
      </trkpt>
      <trkpt lat="46.06918" lon="6.76928">
        <ele>1520.9</ele>
        <time>2026-06-26T08:06:32Z</time>
      </trkpt>
      <trkpt lat="46.06917" lon="6.76929">
        <ele>1520.8</ele>
        <time>2026-06-26T08:06:33Z</time>
      </trkpt>
      <trkpt lat="46.06917" lon="6.76929">
        <ele>1520.9</ele>
        <time>2026-06-26T08:06:34Z</time>
      </trkpt>
      <trkpt lat="46.06917" lon="6.76929">
        <ele>1520.9</ele>
        <time>2026-06-26T08:06:35Z</time>
      </trkpt>
      <trkpt lat="46.06917" lon="6.76929">
        <ele>1520.9</ele>
        <time>2026-06-26T08:06:36Z</time>
      </trkpt>
      <trkpt lat="46.06917" lon="6.76929">
        <ele>1521</ele>
        <time>2026-06-26T08:06:37Z</time>
      </trkpt>
      <trkpt lat="46.06917" lon="6.7693">
        <ele>1521</ele>
        <time>2026-06-26T08:06:38Z</time>
      </trkpt>
      <trkpt lat="46.06916" lon="6.7693">
        <ele>1521</ele>
        <time>2026-06-26T08:06:39Z</time>
      </trkpt>
      <trkpt lat="46.06916" lon="6.76931">
        <ele>1521</ele>
        <time>2026-06-26T08:06:40Z</time>
      </trkpt>
      <trkpt lat="46.06916" lon="6.76931">
        <ele>1521</ele>
        <time>2026-06-26T08:06:41Z</time>
      </trkpt>
      <trkpt lat="46.06917" lon="6.76931">
        <ele>1521.1</ele>
        <time>2026-06-26T08:06:42Z</time>
      </trkpt>
      <trkpt lat="46.06917" lon="6.76931">
        <ele>1521.1</ele>
        <time>2026-06-26T08:06:43Z</time>
      </trkpt>
      <trkpt lat="46.06918" lon="6.76931">
        <ele>1521.1</ele>
        <time>2026-06-26T08:06:44Z</time>
      </trkpt>
      <trkpt lat="46.0692" lon="6.7693">
        <ele>1521.2</ele>
        <time>2026-06-26T08:06:45Z</time>
      </trkpt>
      <trkpt lat="46.06921" lon="6.7693">
        <ele>1521.1</ele>
        <time>2026-06-26T08:06:46Z</time>
      </trkpt>
      <trkpt lat="46.06921" lon="6.76929">
        <ele>1521.1</ele>
        <time>2026-06-26T08:06:47Z</time>
      </trkpt>
      <trkpt lat="46.06922" lon="6.7693">
        <ele>1521</ele>
        <time>2026-06-26T08:06:48Z</time>
      </trkpt>
      <trkpt lat="46.06922" lon="6.76929">
        <ele>1521</ele>
        <time>2026-06-26T08:06:49Z</time>
      </trkpt>
      <trkpt lat="46.0692" lon="6.7693">
        <ele>1520.9</ele>
        <time>2026-06-26T08:06:50Z</time>
      </trkpt>
      <trkpt lat="46.0692" lon="6.7693">
        <ele>1521</ele>
        <time>2026-06-26T08:06:51Z</time>
      </trkpt>
      <trkpt lat="46.0692" lon="6.7693">
        <ele>1521</ele>
        <time>2026-06-26T08:06:52Z</time>
      </trkpt>
      <trkpt lat="46.06921" lon="6.76929">
        <ele>1521</ele>
        <time>2026-06-26T08:06:53Z</time>
      </trkpt>
      <trkpt lat="46.06921" lon="6.76929">
        <ele>1521</ele>
        <time>2026-06-26T08:06:54Z</time>
      </trkpt>
      <trkpt lat="46.06922" lon="6.76929">
        <ele>1521</ele>
        <time>2026-06-26T08:06:55Z</time>
      </trkpt>
      <trkpt lat="46.06922" lon="6.76929">
        <ele>1521</ele>
        <time>2026-06-26T08:06:56Z</time>
      </trkpt>
      <trkpt lat="46.06923" lon="6.76929">
        <ele>1521.1</ele>
        <time>2026-06-26T08:06:57Z</time>
      </trkpt>
      <trkpt lat="46.06924" lon="6.76928">
        <ele>1521.1</ele>
        <time>2026-06-26T08:06:58Z</time>
      </trkpt>
      <trkpt lat="46.06924" lon="6.76928">
        <ele>1521.1</ele>
        <time>2026-06-26T08:06:59Z</time>
      </trkpt>
      <trkpt lat="46.06926" lon="6.76927">
        <ele>1521.1</ele>
        <time>2026-06-26T08:07:00Z</time>
      </trkpt>
      <trkpt lat="46.06926" lon="6.76926">
        <ele>1521.1</ele>
        <time>2026-06-26T08:07:01Z</time>
      </trkpt>
      <trkpt lat="46.06927" lon="6.76925">
        <ele>1521.2</ele>
        <time>2026-06-26T08:07:02Z</time>
      </trkpt>
      <trkpt lat="46.06927" lon="6.76925">
        <ele>1521.2</ele>
        <time>2026-06-26T08:07:03Z</time>
      </trkpt>
      <trkpt lat="46.06926" lon="6.76924">
        <ele>1521.2</ele>
        <time>2026-06-26T08:07:04Z</time>
      </trkpt>
      <trkpt lat="46.06927" lon="6.76923">
        <ele>1521.2</ele>
        <time>2026-06-26T08:07:05Z</time>
      </trkpt>
      <trkpt lat="46.06927" lon="6.76923">
        <ele>1521.2</ele>
        <time>2026-06-26T08:07:06Z</time>
      </trkpt>
      <trkpt lat="46.06927" lon="6.76922">
        <ele>1521.2</ele>
        <time>2026-06-26T08:07:07Z</time>
      </trkpt>
      <trkpt lat="46.06927" lon="6.76922">
        <ele>1521.1</ele>
        <time>2026-06-26T08:07:08Z</time>
      </trkpt>
      <trkpt lat="46.06927" lon="6.76921">
        <ele>1521.1</ele>
        <time>2026-06-26T08:07:09Z</time>
      </trkpt>
      <trkpt lat="46.06928" lon="6.76921">
        <ele>1521.1</ele>
        <time>2026-06-26T08:07:10Z</time>
      </trkpt>
      <trkpt lat="46.06929" lon="6.7692">
        <ele>1521.1</ele>
        <time>2026-06-26T08:07:11Z</time>
      </trkpt>
      <trkpt lat="46.06929" lon="6.7692">
        <ele>1521.1</ele>
        <time>2026-06-26T08:07:12Z</time>
      </trkpt>
      <trkpt lat="46.0693" lon="6.7692">
        <ele>1521.2</ele>
        <time>2026-06-26T08:07:13Z</time>
      </trkpt>
      <trkpt lat="46.0693" lon="6.76919">
        <ele>1521.3</ele>
        <time>2026-06-26T08:07:14Z</time>
      </trkpt>
      <trkpt lat="46.06931" lon="6.76919">
        <ele>1521.3</ele>
        <time>2026-06-26T08:07:15Z</time>
      </trkpt>
      <trkpt lat="46.06931" lon="6.76919">
        <ele>1521.3</ele>
        <time>2026-06-26T08:07:16Z</time>
      </trkpt>
      <trkpt lat="46.06932" lon="6.76919">
        <ele>1521.4</ele>
        <time>2026-06-26T08:07:17Z</time>
      </trkpt>
      <trkpt lat="46.06932" lon="6.76919">
        <ele>1521.4</ele>
        <time>2026-06-26T08:07:18Z</time>
      </trkpt>
      <trkpt lat="46.06932" lon="6.76919">
        <ele>1521.4</ele>
        <time>2026-06-26T08:07:19Z</time>
      </trkpt>
      <trkpt lat="46.06932" lon="6.76919">
        <ele>1521.4</ele>
        <time>2026-06-26T08:07:20Z</time>
      </trkpt>
      <trkpt lat="46.06932" lon="6.76919">
        <ele>1521.4</ele>
        <time>2026-06-26T08:07:21Z</time>
      </trkpt>
      <trkpt lat="46.06932" lon="6.76919">
        <ele>1521.4</ele>
        <time>2026-06-26T08:07:22Z</time>
      </trkpt>
      <trkpt lat="46.06932" lon="6.76918">
        <ele>1521.5</ele>
        <time>2026-06-26T08:07:23Z</time>
      </trkpt>
      <trkpt lat="46.06932" lon="6.76918">
        <ele>1521.5</ele>
        <time>2026-06-26T08:07:24Z</time>
      </trkpt>
      <trkpt lat="46.06932" lon="6.76919">
        <ele>1521.5</ele>
        <time>2026-06-26T08:07:25Z</time>
      </trkpt>
      <trkpt lat="46.06932" lon="6.76919">
        <ele>1521.6</ele>
        <time>2026-06-26T08:07:26Z</time>
      </trkpt>
      <trkpt lat="46.06932" lon="6.76919">
        <ele>1521.6</ele>
        <time>2026-06-26T08:07:27Z</time>
      </trkpt>
      <trkpt lat="46.06932" lon="6.76919">
        <ele>1521.7</ele>
        <time>2026-06-26T08:07:28Z</time>
      </trkpt>
      <trkpt lat="46.06932" lon="6.76919">
        <ele>1521.7</ele>
        <time>2026-06-26T08:07:29Z</time>
      </trkpt>
      <trkpt lat="46.06931" lon="6.76919">
        <ele>1521.7</ele>
        <time>2026-06-26T08:07:30Z</time>
      </trkpt>
      <trkpt lat="46.06931" lon="6.76919">
        <ele>1521.6</ele>
        <time>2026-06-26T08:07:31Z</time>
      </trkpt>
      <trkpt lat="46.06931" lon="6.76919">
        <ele>1521.6</ele>
        <time>2026-06-26T08:07:32Z</time>
      </trkpt>
      <trkpt lat="46.06931" lon="6.76919">
        <ele>1521.6</ele>
        <time>2026-06-26T08:07:33Z</time>
      </trkpt>
      <trkpt lat="46.06931" lon="6.76919">
        <ele>1521.5</ele>
        <time>2026-06-26T08:07:34Z</time>
      </trkpt>
      <trkpt lat="46.0693" lon="6.7692">
        <ele>1521.5</ele>
        <time>2026-06-26T08:07:35Z</time>
      </trkpt>
      <trkpt lat="46.0693" lon="6.7692">
        <ele>1521.5</ele>
        <time>2026-06-26T08:07:36Z</time>
      </trkpt>
      <trkpt lat="46.0693" lon="6.7692">
        <ele>1521.5</ele>
        <time>2026-06-26T08:07:37Z</time>
      </trkpt>
      <trkpt lat="46.0693" lon="6.7692">
        <ele>1521.5</ele>
        <time>2026-06-26T08:07:38Z</time>
      </trkpt>
      <trkpt lat="46.0693" lon="6.7692">
        <ele>1521.5</ele>
        <time>2026-06-26T08:07:39Z</time>
      </trkpt>
      <trkpt lat="46.06929" lon="6.7692">
        <ele>1521.4</ele>
        <time>2026-06-26T08:07:40Z</time>
      </trkpt>
      <trkpt lat="46.06929" lon="6.7692">
        <ele>1521.4</ele>
        <time>2026-06-26T08:07:41Z</time>
      </trkpt>
      <trkpt lat="46.06929" lon="6.7692">
        <ele>1521.3</ele>
        <time>2026-06-26T08:07:42Z</time>
      </trkpt>
      <trkpt lat="46.06929" lon="6.7692">
        <ele>1521.3</ele>
        <time>2026-06-26T08:07:43Z</time>
      </trkpt>
      <trkpt lat="46.06929" lon="6.7692">
        <ele>1521.3</ele>
        <time>2026-06-26T08:07:44Z</time>
      </trkpt>
      <trkpt lat="46.06929" lon="6.7692">
        <ele>1521.3</ele>
        <time>2026-06-26T08:07:45Z</time>
      </trkpt>
      <trkpt lat="46.06928" lon="6.7692">
        <ele>1521.3</ele>
        <time>2026-06-26T08:07:46Z</time>
      </trkpt>
      <trkpt lat="46.06928" lon="6.7692">
        <ele>1521.3</ele>
        <time>2026-06-26T08:07:47Z</time>
      </trkpt>
      <trkpt lat="46.06928" lon="6.76921">
        <ele>1521.2</ele>
        <time>2026-06-26T08:07:48Z</time>
      </trkpt>
      <trkpt lat="46.06928" lon="6.76921">
        <ele>1521.2</ele>
        <time>2026-06-26T08:07:49Z</time>
      </trkpt>
      <trkpt lat="46.06928" lon="6.76921">
        <ele>1521.2</ele>
        <time>2026-06-26T08:07:50Z</time>
      </trkpt>
      <trkpt lat="46.06928" lon="6.76921">
        <ele>1521.2</ele>
        <time>2026-06-26T08:07:51Z</time>
      </trkpt>
      <trkpt lat="46.06927" lon="6.76921">
        <ele>1521.2</ele>
        <time>2026-06-26T08:07:52Z</time>
      </trkpt>
      <trkpt lat="46.06927" lon="6.76921">
        <ele>1521.2</ele>
        <time>2026-06-26T08:07:53Z</time>
      </trkpt>
      <trkpt lat="46.06927" lon="6.76921">
        <ele>1521.2</ele>
        <time>2026-06-26T08:07:54Z</time>
      </trkpt>
      <trkpt lat="46.06927" lon="6.76921">
        <ele>1521.2</ele>
        <time>2026-06-26T08:07:55Z</time>
      </trkpt>
      <trkpt lat="46.06927" lon="6.76922">
        <ele>1521.2</ele>
        <time>2026-06-26T08:07:56Z</time>
      </trkpt>
      <trkpt lat="46.06927" lon="6.76922">
        <ele>1521.2</ele>
        <time>2026-06-26T08:07:57Z</time>
      </trkpt>
      <trkpt lat="46.06927" lon="6.76922">
        <ele>1521.2</ele>
        <time>2026-06-26T08:07:58Z</time>
      </trkpt>
      <trkpt lat="46.06927" lon="6.76922">
        <ele>1521.2</ele>
        <time>2026-06-26T08:07:59Z</time>
      </trkpt>
      <trkpt lat="46.06928" lon="6.76922">
        <ele>1521.2</ele>
        <time>2026-06-26T08:08:00Z</time>
      </trkpt>
      <trkpt lat="46.06928" lon="6.76922">
        <ele>1521.2</ele>
        <time>2026-06-26T08:08:01Z</time>
      </trkpt>
      <trkpt lat="46.06929" lon="6.76922">
        <ele>1521.2</ele>
        <time>2026-06-26T08:08:02Z</time>
      </trkpt>
      <trkpt lat="46.06929" lon="6.76922">
        <ele>1521.2</ele>
        <time>2026-06-26T08:08:03Z</time>
      </trkpt>
      <trkpt lat="46.0693" lon="6.76921">
        <ele>1521.2</ele>
        <time>2026-06-26T08:08:04Z</time>
      </trkpt>
      <trkpt lat="46.0693" lon="6.76921">
        <ele>1521.1</ele>
        <time>2026-06-26T08:08:05Z</time>
      </trkpt>
      <trkpt lat="46.06931" lon="6.76922">
        <ele>1521.1</ele>
        <time>2026-06-26T08:08:06Z</time>
      </trkpt>
      <trkpt lat="46.06931" lon="6.76922">
        <ele>1521.1</ele>
        <time>2026-06-26T08:08:07Z</time>
      </trkpt>
      <trkpt lat="46.0693" lon="6.76922">
        <ele>1521.1</ele>
        <time>2026-06-26T08:08:08Z</time>
      </trkpt>
      <trkpt lat="46.0693" lon="6.76922">
        <ele>1521.2</ele>
        <time>2026-06-26T08:08:09Z</time>
      </trkpt>
      <trkpt lat="46.0693" lon="6.76922">
        <ele>1521.2</ele>
        <time>2026-06-26T08:08:10Z</time>
      </trkpt>
      <trkpt lat="46.0693" lon="6.76922">
        <ele>1521.3</ele>
        <time>2026-06-26T08:08:11Z</time>
      </trkpt>
      <trkpt lat="46.0693" lon="6.76922">
        <ele>1521.3</ele>
        <time>2026-06-26T08:08:12Z</time>
      </trkpt>
      <trkpt lat="46.0693" lon="6.76922">
        <ele>1521.3</ele>
        <time>2026-06-26T08:08:13Z</time>
      </trkpt>
      <trkpt lat="46.0693" lon="6.76922">
        <ele>1521.3</ele>
        <time>2026-06-26T08:08:14Z</time>
      </trkpt>
      <trkpt lat="46.0693" lon="6.76922">
        <ele>1521.3</ele>
        <time>2026-06-26T08:08:15Z</time>
      </trkpt>
      <trkpt lat="46.06929" lon="6.76922">
        <ele>1521.3</ele>
        <time>2026-06-26T08:08:16Z</time>
      </trkpt>
      <trkpt lat="46.06929" lon="6.76922">
        <ele>1521.3</ele>
        <time>2026-06-26T08:08:17Z</time>
      </trkpt>
      <trkpt lat="46.06929" lon="6.76922">
        <ele>1521.2</ele>
        <time>2026-06-26T08:08:18Z</time>
      </trkpt>
      <trkpt lat="46.06929" lon="6.76922">
        <ele>1521.2</ele>
        <time>2026-06-26T08:08:19Z</time>
      </trkpt>
      <trkpt lat="46.06929" lon="6.76922">
        <ele>1521.2</ele>
        <time>2026-06-26T08:08:20Z</time>
      </trkpt>
      <trkpt lat="46.06929" lon="6.76922">
        <ele>1521.2</ele>
        <time>2026-06-26T08:08:21Z</time>
      </trkpt>
      <trkpt lat="46.06929" lon="6.76923">
        <ele>1521.2</ele>
        <time>2026-06-26T08:08:22Z</time>
      </trkpt>
      <trkpt lat="46.06928" lon="6.76923">
        <ele>1521.2</ele>
        <time>2026-06-26T08:08:23Z</time>
      </trkpt>
      <trkpt lat="46.06928" lon="6.76923">
        <ele>1521.2</ele>
        <time>2026-06-26T08:08:24Z</time>
      </trkpt>
      <trkpt lat="46.06928" lon="6.76923">
        <ele>1521.2</ele>
        <time>2026-06-26T08:08:25Z</time>
      </trkpt>
      <trkpt lat="46.06928" lon="6.76924">
        <ele>1521.2</ele>
        <time>2026-06-26T08:08:26Z</time>
      </trkpt>
      <trkpt lat="46.06928" lon="6.76924">
        <ele>1521.2</ele>
        <time>2026-06-26T08:08:27Z</time>
      </trkpt>
      <trkpt lat="46.06928" lon="6.76924">
        <ele>1521.3</ele>
        <time>2026-06-26T08:08:28Z</time>
      </trkpt>
      <trkpt lat="46.06927" lon="6.76924">
        <ele>1521.2</ele>
        <time>2026-06-26T08:08:29Z</time>
      </trkpt>
      <trkpt lat="46.06927" lon="6.76924">
        <ele>1521.2</ele>
        <time>2026-06-26T08:08:30Z</time>
      </trkpt>
      <trkpt lat="46.06927" lon="6.76925">
        <ele>1521.1</ele>
        <time>2026-06-26T08:08:31Z</time>
      </trkpt>
      <trkpt lat="46.06927" lon="6.76925">
        <ele>1521.1</ele>
        <time>2026-06-26T08:08:32Z</time>
      </trkpt>
      <trkpt lat="46.06927" lon="6.76925">
        <ele>1521.1</ele>
        <time>2026-06-26T08:08:33Z</time>
      </trkpt>
      <trkpt lat="46.06927" lon="6.76925">
        <ele>1521</ele>
        <time>2026-06-26T08:08:34Z</time>
      </trkpt>
      <trkpt lat="46.06927" lon="6.76926">
        <ele>1521</ele>
        <time>2026-06-26T08:08:35Z</time>
      </trkpt>
      <trkpt lat="46.06926" lon="6.76926">
        <ele>1521</ele>
        <time>2026-06-26T08:08:36Z</time>
      </trkpt>
      <trkpt lat="46.06926" lon="6.76926">
        <ele>1521</ele>
        <time>2026-06-26T08:08:37Z</time>
      </trkpt>
      <trkpt lat="46.06925" lon="6.76927">
        <ele>1521.2</ele>
        <time>2026-06-26T08:08:38Z</time>
      </trkpt>
      <trkpt lat="46.06925" lon="6.76927">
        <ele>1521.3</ele>
        <time>2026-06-26T08:08:39Z</time>
      </trkpt>
      <trkpt lat="46.06925" lon="6.76927">
        <ele>1521.5</ele>
        <time>2026-06-26T08:08:40Z</time>
      </trkpt>
      <trkpt lat="46.06925" lon="6.76927">
        <ele>1521.6</ele>
        <time>2026-06-26T08:08:41Z</time>
      </trkpt>
      <trkpt lat="46.06925" lon="6.76928">
        <ele>1521.7</ele>
        <time>2026-06-26T08:08:42Z</time>
      </trkpt>
      <trkpt lat="46.06925" lon="6.76928">
        <ele>1521.9</ele>
        <time>2026-06-26T08:08:43Z</time>
      </trkpt>
      <trkpt lat="46.06925" lon="6.76928">
        <ele>1522.1</ele>
        <time>2026-06-26T08:08:44Z</time>
      </trkpt>
      <trkpt lat="46.06925" lon="6.76929">
        <ele>1522.2</ele>
        <time>2026-06-26T08:08:45Z</time>
      </trkpt>
      <trkpt lat="46.06925" lon="6.7693">
        <ele>1522.3</ele>
        <time>2026-06-26T08:08:46Z</time>
      </trkpt>
      <trkpt lat="46.06925" lon="6.7693">
        <ele>1522.3</ele>
        <time>2026-06-26T08:08:47Z</time>
      </trkpt>
      <trkpt lat="46.06925" lon="6.7693">
        <ele>1522.5</ele>
        <time>2026-06-26T08:08:48Z</time>
      </trkpt>
      <trkpt lat="46.06925" lon="6.76931">
        <ele>1522.6</ele>
        <time>2026-06-26T08:08:49Z</time>
      </trkpt>
      <trkpt lat="46.06925" lon="6.76931">
        <ele>1522.9</ele>
        <time>2026-06-26T08:08:50Z</time>
      </trkpt>
      <trkpt lat="46.06925" lon="6.76932">
        <ele>1523.1</ele>
        <time>2026-06-26T08:08:51Z</time>
      </trkpt>
      <trkpt lat="46.06925" lon="6.76933">
        <ele>1523.2</ele>
        <time>2026-06-26T08:08:52Z</time>
      </trkpt>
      <trkpt lat="46.06925" lon="6.76934">
        <ele>1523.3</ele>
        <time>2026-06-26T08:08:53Z</time>
      </trkpt>
      <trkpt lat="46.06924" lon="6.76934">
        <ele>1523.5</ele>
        <time>2026-06-26T08:08:54Z</time>
      </trkpt>
      <trkpt lat="46.06924" lon="6.76935">
        <ele>1523.7</ele>
        <time>2026-06-26T08:08:55Z</time>
      </trkpt>
      <trkpt lat="46.06925" lon="6.76936">
        <ele>1523.8</ele>
        <time>2026-06-26T08:08:56Z</time>
      </trkpt>
      <trkpt lat="46.06924" lon="6.76937">
        <ele>1524</ele>
        <time>2026-06-26T08:08:57Z</time>
      </trkpt>
      <trkpt lat="46.06925" lon="6.76938">
        <ele>1524.2</ele>
        <time>2026-06-26T08:08:58Z</time>
      </trkpt>
      <trkpt lat="46.06924" lon="6.76939">
        <ele>1524.3</ele>
        <time>2026-06-26T08:08:59Z</time>
      </trkpt>
      <trkpt lat="46.06924" lon="6.7694">
        <ele>1524.5</ele>
        <time>2026-06-26T08:09:00Z</time>
      </trkpt>
      <trkpt lat="46.06924" lon="6.7694">
        <ele>1524.6</ele>
        <time>2026-06-26T08:09:01Z</time>
      </trkpt>
      <trkpt lat="46.06923" lon="6.76941">
        <ele>1524.7</ele>
        <time>2026-06-26T08:09:02Z</time>
      </trkpt>
      <trkpt lat="46.06923" lon="6.76942">
        <ele>1524.8</ele>
        <time>2026-06-26T08:09:03Z</time>
      </trkpt>
      <trkpt lat="46.06923" lon="6.76942">
        <ele>1525.1</ele>
        <time>2026-06-26T08:09:04Z</time>
      </trkpt>
      <trkpt lat="46.06923" lon="6.76943">
        <ele>1525.3</ele>
        <time>2026-06-26T08:09:05Z</time>
      </trkpt>
      <trkpt lat="46.06922" lon="6.76944">
        <ele>1525.5</ele>
        <time>2026-06-26T08:09:06Z</time>
      </trkpt>
      <trkpt lat="46.06922" lon="6.76944">
        <ele>1525.6</ele>
        <time>2026-06-26T08:09:07Z</time>
      </trkpt>
      <trkpt lat="46.06922" lon="6.76945">
        <ele>1525.8</ele>
        <time>2026-06-26T08:09:08Z</time>
      </trkpt>
      <trkpt lat="46.06922" lon="6.76946">
        <ele>1525.9</ele>
        <time>2026-06-26T08:09:09Z</time>
      </trkpt>
      <trkpt lat="46.06922" lon="6.76947">
        <ele>1526</ele>
        <time>2026-06-26T08:09:10Z</time>
      </trkpt>
      <trkpt lat="46.06922" lon="6.76947">
        <ele>1526</ele>
        <time>2026-06-26T08:09:11Z</time>
      </trkpt>
      <trkpt lat="46.06922" lon="6.76947">
        <ele>1526.1</ele>
        <time>2026-06-26T08:09:12Z</time>
      </trkpt>
      <trkpt lat="46.06922" lon="6.76948">
        <ele>1526.3</ele>
        <time>2026-06-26T08:09:13Z</time>
      </trkpt>
      <trkpt lat="46.06922" lon="6.76948">
        <ele>1526.5</ele>
        <time>2026-06-26T08:09:14Z</time>
      </trkpt>
      <trkpt lat="46.06922" lon="6.76948">
        <ele>1526.6</ele>
        <time>2026-06-26T08:09:15Z</time>
      </trkpt>
      <trkpt lat="46.06922" lon="6.76948">
        <ele>1526.7</ele>
        <time>2026-06-26T08:09:16Z</time>
      </trkpt>
      <trkpt lat="46.06922" lon="6.76949">
        <ele>1526.9</ele>
        <time>2026-06-26T08:09:17Z</time>
      </trkpt>
      <trkpt lat="46.06923" lon="6.76949">
        <ele>1527</ele>
        <time>2026-06-26T08:09:18Z</time>
      </trkpt>
      <trkpt lat="46.06923" lon="6.7695">
        <ele>1527.1</ele>
        <time>2026-06-26T08:09:19Z</time>
      </trkpt>
      <trkpt lat="46.06923" lon="6.7695">
        <ele>1527.2</ele>
        <time>2026-06-26T08:09:20Z</time>
      </trkpt>
      <trkpt lat="46.06924" lon="6.7695">
        <ele>1527.4</ele>
        <time>2026-06-26T08:09:21Z</time>
      </trkpt>
      <trkpt lat="46.06924" lon="6.76951">
        <ele>1527.6</ele>
        <time>2026-06-26T08:09:22Z</time>
      </trkpt>
      <trkpt lat="46.06925" lon="6.76951">
        <ele>1527.8</ele>
        <time>2026-06-26T08:09:23Z</time>
      </trkpt>
      <trkpt lat="46.06925" lon="6.76952">
        <ele>1527.9</ele>
        <time>2026-06-26T08:09:24Z</time>
      </trkpt>
      <trkpt lat="46.06926" lon="6.76953">
        <ele>1528.1</ele>
        <time>2026-06-26T08:09:25Z</time>
      </trkpt>
      <trkpt lat="46.06925" lon="6.76953">
        <ele>1528.2</ele>
        <time>2026-06-26T08:09:26Z</time>
      </trkpt>
      <trkpt lat="46.06926" lon="6.76954">
        <ele>1528.3</ele>
        <time>2026-06-26T08:09:27Z</time>
      </trkpt>
      <trkpt lat="46.06926" lon="6.76956">
        <ele>1528.4</ele>
        <time>2026-06-26T08:09:28Z</time>
      </trkpt>
      <trkpt lat="46.06925" lon="6.76956">
        <ele>1528.5</ele>
        <time>2026-06-26T08:09:29Z</time>
      </trkpt>
      <trkpt lat="46.06925" lon="6.76956">
        <ele>1528.6</ele>
        <time>2026-06-26T08:09:30Z</time>
      </trkpt>
      <trkpt lat="46.06925" lon="6.76957">
        <ele>1528.7</ele>
        <time>2026-06-26T08:09:31Z</time>
      </trkpt>
      <trkpt lat="46.06925" lon="6.76958">
        <ele>1528.9</ele>
        <time>2026-06-26T08:09:32Z</time>
      </trkpt>
      <trkpt lat="46.06925" lon="6.76959">
        <ele>1529</ele>
        <time>2026-06-26T08:09:33Z</time>
      </trkpt>
      <trkpt lat="46.06925" lon="6.7696">
        <ele>1529.1</ele>
        <time>2026-06-26T08:09:34Z</time>
      </trkpt>
      <trkpt lat="46.06925" lon="6.76961">
        <ele>1529.2</ele>
        <time>2026-06-26T08:09:35Z</time>
      </trkpt>
      <trkpt lat="46.06924" lon="6.76962">
        <ele>1529.4</ele>
        <time>2026-06-26T08:09:36Z</time>
      </trkpt>
      <trkpt lat="46.06922" lon="6.76962">
        <ele>1529.5</ele>
        <time>2026-06-26T08:09:37Z</time>
      </trkpt>
      <trkpt lat="46.06922" lon="6.76963">
        <ele>1529.6</ele>
        <time>2026-06-26T08:09:38Z</time>
      </trkpt>
      <trkpt lat="46.06922" lon="6.76964">
        <ele>1529.7</ele>
        <time>2026-06-26T08:09:39Z</time>
      </trkpt>
      <trkpt lat="46.06922" lon="6.76964">
        <ele>1529.8</ele>
        <time>2026-06-26T08:09:40Z</time>
      </trkpt>
      <trkpt lat="46.06921" lon="6.76964">
        <ele>1530</ele>
        <time>2026-06-26T08:09:41Z</time>
      </trkpt>
      <trkpt lat="46.06921" lon="6.76964">
        <ele>1530.2</ele>
        <time>2026-06-26T08:09:42Z</time>
      </trkpt>
      <trkpt lat="46.0692" lon="6.76964">
        <ele>1530.3</ele>
        <time>2026-06-26T08:09:43Z</time>
      </trkpt>
      <trkpt lat="46.0692" lon="6.76964">
        <ele>1530.5</ele>
        <time>2026-06-26T08:09:44Z</time>
      </trkpt>
      <trkpt lat="46.0692" lon="6.76963">
        <ele>1530.6</ele>
        <time>2026-06-26T08:09:45Z</time>
      </trkpt>
      <trkpt lat="46.0692" lon="6.76964">
        <ele>1530.8</ele>
        <time>2026-06-26T08:09:46Z</time>
      </trkpt>
      <trkpt lat="46.06919" lon="6.76963">
        <ele>1530.9</ele>
        <time>2026-06-26T08:09:47Z</time>
      </trkpt>
      <trkpt lat="46.06918" lon="6.76963">
        <ele>1531</ele>
        <time>2026-06-26T08:09:48Z</time>
      </trkpt>
      <trkpt lat="46.06918" lon="6.76963">
        <ele>1531.1</ele>
        <time>2026-06-26T08:09:49Z</time>
      </trkpt>
      <trkpt lat="46.06918" lon="6.76964">
        <ele>1531.2</ele>
        <time>2026-06-26T08:09:50Z</time>
      </trkpt>
      <trkpt lat="46.06917" lon="6.76964">
        <ele>1531.4</ele>
        <time>2026-06-26T08:09:51Z</time>
      </trkpt>
      <trkpt lat="46.06917" lon="6.76965">
        <ele>1531.5</ele>
        <time>2026-06-26T08:09:52Z</time>
      </trkpt>
      <trkpt lat="46.06916" lon="6.76966">
        <ele>1531.6</ele>
        <time>2026-06-26T08:09:53Z</time>
      </trkpt>
      <trkpt lat="46.06916" lon="6.76966">
        <ele>1531.7</ele>
        <time>2026-06-26T08:09:54Z</time>
      </trkpt>
      <trkpt lat="46.06916" lon="6.76966">
        <ele>1531.8</ele>
        <time>2026-06-26T08:09:55Z</time>
      </trkpt>
      <trkpt lat="46.06916" lon="6.76967">
        <ele>1531.8</ele>
        <time>2026-06-26T08:09:56Z</time>
      </trkpt>
      <trkpt lat="46.06916" lon="6.76969">
        <ele>1531.8</ele>
        <time>2026-06-26T08:09:57Z</time>
      </trkpt>
      <trkpt lat="46.06916" lon="6.7697">
        <ele>1531.8</ele>
        <time>2026-06-26T08:09:58Z</time>
      </trkpt>
      <trkpt lat="46.06916" lon="6.76971">
        <ele>1532</ele>
        <time>2026-06-26T08:09:59Z</time>
      </trkpt>
      <trkpt lat="46.06916" lon="6.76972">
        <ele>1532.1</ele>
        <time>2026-06-26T08:10:00Z</time>
      </trkpt>
      <trkpt lat="46.06915" lon="6.76972">
        <ele>1532.1</ele>
        <time>2026-06-26T08:10:01Z</time>
      </trkpt>
      <trkpt lat="46.06915" lon="6.76973">
        <ele>1532.3</ele>
        <time>2026-06-26T08:10:02Z</time>
      </trkpt>
      <trkpt lat="46.06915" lon="6.76973">
        <ele>1532.4</ele>
        <time>2026-06-26T08:10:03Z</time>
      </trkpt>
      <trkpt lat="46.06915" lon="6.76974">
        <ele>1532.6</ele>
        <time>2026-06-26T08:10:04Z</time>
      </trkpt>
      <trkpt lat="46.06915" lon="6.76976">
        <ele>1532.7</ele>
        <time>2026-06-26T08:10:05Z</time>
      </trkpt>
      <trkpt lat="46.06916" lon="6.76977">
        <ele>1532.8</ele>
        <time>2026-06-26T08:10:06Z</time>
      </trkpt>
      <trkpt lat="46.06916" lon="6.76978">
        <ele>1533</ele>
        <time>2026-06-26T08:10:07Z</time>
      </trkpt>
      <trkpt lat="46.06916" lon="6.76979">
        <ele>1533.1</ele>
        <time>2026-06-26T08:10:08Z</time>
      </trkpt>
      <trkpt lat="46.06916" lon="6.7698">
        <ele>1533.2</ele>
        <time>2026-06-26T08:10:09Z</time>
      </trkpt>
      <trkpt lat="46.06917" lon="6.76982">
        <ele>1533.4</ele>
        <time>2026-06-26T08:10:10Z</time>
      </trkpt>
      <trkpt lat="46.06917" lon="6.76984">
        <ele>1533.5</ele>
        <time>2026-06-26T08:10:11Z</time>
      </trkpt>
      <trkpt lat="46.06918" lon="6.76985">
        <ele>1533.7</ele>
        <time>2026-06-26T08:10:12Z</time>
      </trkpt>
      <trkpt lat="46.06918" lon="6.76986">
        <ele>1533.9</ele>
        <time>2026-06-26T08:10:13Z</time>
      </trkpt>
      <trkpt lat="46.06918" lon="6.76986">
        <ele>1534</ele>
        <time>2026-06-26T08:10:14Z</time>
      </trkpt>
      <trkpt lat="46.06917" lon="6.76987">
        <ele>1534.1</ele>
        <time>2026-06-26T08:10:15Z</time>
      </trkpt>
      <trkpt lat="46.06918" lon="6.76988">
        <ele>1534.3</ele>
        <time>2026-06-26T08:10:16Z</time>
      </trkpt>
      <trkpt lat="46.06918" lon="6.76989">
        <ele>1534.4</ele>
        <time>2026-06-26T08:10:17Z</time>
      </trkpt>
      <trkpt lat="46.06918" lon="6.76989">
        <ele>1534.7</ele>
        <time>2026-06-26T08:10:18Z</time>
      </trkpt>
      <trkpt lat="46.06919" lon="6.76991">
        <ele>1534.8</ele>
        <time>2026-06-26T08:10:19Z</time>
      </trkpt>
      <trkpt lat="46.06919" lon="6.76991">
        <ele>1535</ele>
        <time>2026-06-26T08:10:20Z</time>
      </trkpt>
      <trkpt lat="46.06919" lon="6.76992">
        <ele>1535.1</ele>
        <time>2026-06-26T08:10:21Z</time>
      </trkpt>
      <trkpt lat="46.06919" lon="6.76993">
        <ele>1535.1</ele>
        <time>2026-06-26T08:10:22Z</time>
      </trkpt>
      <trkpt lat="46.0692" lon="6.76994">
        <ele>1535.2</ele>
        <time>2026-06-26T08:10:23Z</time>
      </trkpt>
      <trkpt lat="46.06921" lon="6.76994">
        <ele>1535.3</ele>
        <time>2026-06-26T08:10:24Z</time>
      </trkpt>
      <trkpt lat="46.06921" lon="6.76995">
        <ele>1535.4</ele>
        <time>2026-06-26T08:10:25Z</time>
      </trkpt>
      <trkpt lat="46.06921" lon="6.76996">
        <ele>1535.5</ele>
        <time>2026-06-26T08:10:26Z</time>
      </trkpt>
      <trkpt lat="46.06922" lon="6.76996">
        <ele>1535.7</ele>
        <time>2026-06-26T08:10:27Z</time>
      </trkpt>
      <trkpt lat="46.06922" lon="6.76996">
        <ele>1535.8</ele>
        <time>2026-06-26T08:10:28Z</time>
      </trkpt>
      <trkpt lat="46.06923" lon="6.76997">
        <ele>1536</ele>
        <time>2026-06-26T08:10:29Z</time>
      </trkpt>
      <trkpt lat="46.06923" lon="6.76997">
        <ele>1536.2</ele>
        <time>2026-06-26T08:10:30Z</time>
      </trkpt>
      <trkpt lat="46.06924" lon="6.76996">
        <ele>1536.4</ele>
        <time>2026-06-26T08:10:31Z</time>
      </trkpt>
      <trkpt lat="46.06924" lon="6.76996">
        <ele>1536.7</ele>
        <time>2026-06-26T08:10:32Z</time>
      </trkpt>
      <trkpt lat="46.06925" lon="6.76997">
        <ele>1536.8</ele>
        <time>2026-06-26T08:10:33Z</time>
      </trkpt>
      <trkpt lat="46.06925" lon="6.76997">
        <ele>1537</ele>
        <time>2026-06-26T08:10:34Z</time>
      </trkpt>
      <trkpt lat="46.06925" lon="6.76998">
        <ele>1537.2</ele>
        <time>2026-06-26T08:10:35Z</time>
      </trkpt>
      <trkpt lat="46.06924" lon="6.76998">
        <ele>1537.5</ele>
        <time>2026-06-26T08:10:36Z</time>
      </trkpt>
      <trkpt lat="46.06924" lon="6.76998">
        <ele>1537.6</ele>
        <time>2026-06-26T08:10:37Z</time>
      </trkpt>
      <trkpt lat="46.06924" lon="6.76998">
        <ele>1537.8</ele>
        <time>2026-06-26T08:10:38Z</time>
      </trkpt>
      <trkpt lat="46.06925" lon="6.76999">
        <ele>1538</ele>
        <time>2026-06-26T08:10:39Z</time>
      </trkpt>
      <trkpt lat="46.06924" lon="6.76999">
        <ele>1538</ele>
        <time>2026-06-26T08:10:40Z</time>
      </trkpt>
      <trkpt lat="46.06925" lon="6.77">
        <ele>1538.2</ele>
        <time>2026-06-26T08:10:41Z</time>
      </trkpt>
      <trkpt lat="46.06925" lon="6.77">
        <ele>1538.4</ele>
        <time>2026-06-26T08:10:42Z</time>
      </trkpt>
      <trkpt lat="46.06926" lon="6.77">
        <ele>1538.5</ele>
        <time>2026-06-26T08:10:43Z</time>
      </trkpt>
      <trkpt lat="46.06927" lon="6.77">
        <ele>1538.6</ele>
        <time>2026-06-26T08:10:44Z</time>
      </trkpt>
      <trkpt lat="46.06926" lon="6.77001">
        <ele>1538.8</ele>
        <time>2026-06-26T08:10:45Z</time>
      </trkpt>
      <trkpt lat="46.06926" lon="6.77001">
        <ele>1539</ele>
        <time>2026-06-26T08:10:46Z</time>
      </trkpt>
      <trkpt lat="46.06926" lon="6.77002">
        <ele>1539.1</ele>
        <time>2026-06-26T08:10:47Z</time>
      </trkpt>
      <trkpt lat="46.06926" lon="6.77002">
        <ele>1539.3</ele>
        <time>2026-06-26T08:10:48Z</time>
      </trkpt>
      <trkpt lat="46.06926" lon="6.77003">
        <ele>1539.5</ele>
        <time>2026-06-26T08:10:49Z</time>
      </trkpt>
      <trkpt lat="46.06925" lon="6.77003">
        <ele>1539.6</ele>
        <time>2026-06-26T08:10:50Z</time>
      </trkpt>
      <trkpt lat="46.06925" lon="6.77004">
        <ele>1539.8</ele>
        <time>2026-06-26T08:10:51Z</time>
      </trkpt>
      <trkpt lat="46.06925" lon="6.77005">
        <ele>1539.9</ele>
        <time>2026-06-26T08:10:52Z</time>
      </trkpt>
      <trkpt lat="46.06926" lon="6.77006">
        <ele>1540.1</ele>
        <time>2026-06-26T08:10:53Z</time>
      </trkpt>
      <trkpt lat="46.06926" lon="6.77007">
        <ele>1540.3</ele>
        <time>2026-06-26T08:10:54Z</time>
      </trkpt>
      <trkpt lat="46.06926" lon="6.77007">
        <ele>1540.5</ele>
        <time>2026-06-26T08:10:55Z</time>
      </trkpt>
      <trkpt lat="46.06926" lon="6.77007">
        <ele>1540.5</ele>
        <time>2026-06-26T08:10:56Z</time>
      </trkpt>
      <trkpt lat="46.06926" lon="6.77008">
        <ele>1540.6</ele>
        <time>2026-06-26T08:10:57Z</time>
      </trkpt>
      <trkpt lat="46.06926" lon="6.77009">
        <ele>1540.7</ele>
        <time>2026-06-26T08:10:58Z</time>
      </trkpt>
      <trkpt lat="46.06925" lon="6.77009">
        <ele>1540.8</ele>
        <time>2026-06-26T08:10:59Z</time>
      </trkpt>
      <trkpt lat="46.06925" lon="6.7701">
        <ele>1541.1</ele>
        <time>2026-06-26T08:11:00Z</time>
      </trkpt>
      <trkpt lat="46.06925" lon="6.77011">
        <ele>1541.3</ele>
        <time>2026-06-26T08:11:01Z</time>
      </trkpt>
      <trkpt lat="46.06925" lon="6.77011">
        <ele>1541.5</ele>
        <time>2026-06-26T08:11:02Z</time>
      </trkpt>
      <trkpt lat="46.06926" lon="6.77012">
        <ele>1541.6</ele>
        <time>2026-06-26T08:11:03Z</time>
      </trkpt>
      <trkpt lat="46.06926" lon="6.77012">
        <ele>1541.8</ele>
        <time>2026-06-26T08:11:04Z</time>
      </trkpt>
      <trkpt lat="46.06926" lon="6.77013">
        <ele>1541.9</ele>
        <time>2026-06-26T08:11:05Z</time>
      </trkpt>
      <trkpt lat="46.06926" lon="6.77014">
        <ele>1542</ele>
        <time>2026-06-26T08:11:06Z</time>
      </trkpt>
      <trkpt lat="46.06926" lon="6.77013">
        <ele>1542.1</ele>
        <time>2026-06-26T08:11:07Z</time>
      </trkpt>
      <trkpt lat="46.06925" lon="6.77013">
        <ele>1542.2</ele>
        <time>2026-06-26T08:11:08Z</time>
      </trkpt>
      <trkpt lat="46.06924" lon="6.77014">
        <ele>1542.4</ele>
        <time>2026-06-26T08:11:09Z</time>
      </trkpt>
      <trkpt lat="46.06924" lon="6.77014">
        <ele>1542.6</ele>
        <time>2026-06-26T08:11:10Z</time>
      </trkpt>
      <trkpt lat="46.06923" lon="6.77014">
        <ele>1542.8</ele>
        <time>2026-06-26T08:11:11Z</time>
      </trkpt>
      <trkpt lat="46.06923" lon="6.77014">
        <ele>1543</ele>
        <time>2026-06-26T08:11:12Z</time>
      </trkpt>
      <trkpt lat="46.06923" lon="6.77014">
        <ele>1543.3</ele>
        <time>2026-06-26T08:11:13Z</time>
      </trkpt>
      <trkpt lat="46.06924" lon="6.77014">
        <ele>1543.5</ele>
        <time>2026-06-26T08:11:14Z</time>
      </trkpt>
      <trkpt lat="46.06923" lon="6.77014">
        <ele>1543.7</ele>
        <time>2026-06-26T08:11:15Z</time>
      </trkpt>
      <trkpt lat="46.06924" lon="6.77014">
        <ele>1543.9</ele>
        <time>2026-06-26T08:11:16Z</time>
      </trkpt>
      <trkpt lat="46.06924" lon="6.77014">
        <ele>1544.1</ele>
        <time>2026-06-26T08:11:17Z</time>
      </trkpt>
      <trkpt lat="46.06924" lon="6.77015">
        <ele>1544.2</ele>
        <time>2026-06-26T08:11:18Z</time>
      </trkpt>
      <trkpt lat="46.06924" lon="6.77015">
        <ele>1544.3</ele>
        <time>2026-06-26T08:11:19Z</time>
      </trkpt>
      <trkpt lat="46.06923" lon="6.77016">
        <ele>1544.4</ele>
        <time>2026-06-26T08:11:20Z</time>
      </trkpt>
      <trkpt lat="46.06923" lon="6.77017">
        <ele>1544.5</ele>
        <time>2026-06-26T08:11:21Z</time>
      </trkpt>
      <trkpt lat="46.06923" lon="6.77017">
        <ele>1544.6</ele>
        <time>2026-06-26T08:11:22Z</time>
      </trkpt>
      <trkpt lat="46.06922" lon="6.77018">
        <ele>1544.7</ele>
        <time>2026-06-26T08:11:23Z</time>
      </trkpt>
      <trkpt lat="46.06923" lon="6.77019">
        <ele>1544.8</ele>
        <time>2026-06-26T08:11:24Z</time>
      </trkpt>
      <trkpt lat="46.06922" lon="6.77019">
        <ele>1545</ele>
        <time>2026-06-26T08:11:25Z</time>
      </trkpt>
      <trkpt lat="46.06922" lon="6.77019">
        <ele>1545.2</ele>
        <time>2026-06-26T08:11:26Z</time>
      </trkpt>
      <trkpt lat="46.06922" lon="6.7702">
        <ele>1545.4</ele>
        <time>2026-06-26T08:11:27Z</time>
      </trkpt>
      <trkpt lat="46.06921" lon="6.7702">
        <ele>1545.5</ele>
        <time>2026-06-26T08:11:28Z</time>
      </trkpt>
      <trkpt lat="46.06922" lon="6.77022">
        <ele>1545.6</ele>
        <time>2026-06-26T08:11:29Z</time>
      </trkpt>
      <trkpt lat="46.06921" lon="6.77022">
        <ele>1545.7</ele>
        <time>2026-06-26T08:11:30Z</time>
      </trkpt>
      <trkpt lat="46.06921" lon="6.77023">
        <ele>1545.8</ele>
        <time>2026-06-26T08:11:31Z</time>
      </trkpt>
      <trkpt lat="46.06921" lon="6.77024">
        <ele>1545.9</ele>
        <time>2026-06-26T08:11:32Z</time>
      </trkpt>
      <trkpt lat="46.06921" lon="6.77025">
        <ele>1546</ele>
        <time>2026-06-26T08:11:33Z</time>
      </trkpt>
      <trkpt lat="46.06921" lon="6.77025">
        <ele>1546</ele>
        <time>2026-06-26T08:11:34Z</time>
      </trkpt>
      <trkpt lat="46.06921" lon="6.77026">
        <ele>1546.1</ele>
        <time>2026-06-26T08:11:35Z</time>
      </trkpt>
      <trkpt lat="46.06921" lon="6.77027">
        <ele>1546.3</ele>
        <time>2026-06-26T08:11:36Z</time>
      </trkpt>
      <trkpt lat="46.06921" lon="6.77027">
        <ele>1546.4</ele>
        <time>2026-06-26T08:11:37Z</time>
      </trkpt>
      <trkpt lat="46.06921" lon="6.77028">
        <ele>1546.5</ele>
        <time>2026-06-26T08:11:38Z</time>
      </trkpt>
      <trkpt lat="46.06922" lon="6.77029">
        <ele>1546.7</ele>
        <time>2026-06-26T08:11:39Z</time>
      </trkpt>
      <trkpt lat="46.06921" lon="6.77029">
        <ele>1546.9</ele>
        <time>2026-06-26T08:11:40Z</time>
      </trkpt>
      <trkpt lat="46.06921" lon="6.7703">
        <ele>1547.1</ele>
        <time>2026-06-26T08:11:41Z</time>
      </trkpt>
      <trkpt lat="46.06921" lon="6.77031">
        <ele>1547.4</ele>
        <time>2026-06-26T08:11:42Z</time>
      </trkpt>
      <trkpt lat="46.06921" lon="6.77031">
        <ele>1547.6</ele>
        <time>2026-06-26T08:11:43Z</time>
      </trkpt>
      <trkpt lat="46.06921" lon="6.77032">
        <ele>1547.7</ele>
        <time>2026-06-26T08:11:44Z</time>
      </trkpt>
      <trkpt lat="46.06921" lon="6.77032">
        <ele>1547.9</ele>
        <time>2026-06-26T08:11:45Z</time>
      </trkpt>
      <trkpt lat="46.06921" lon="6.77032">
        <ele>1548</ele>
        <time>2026-06-26T08:11:46Z</time>
      </trkpt>
      <trkpt lat="46.06922" lon="6.77034">
        <ele>1548.2</ele>
        <time>2026-06-26T08:11:47Z</time>
      </trkpt>
      <trkpt lat="46.06922" lon="6.77035">
        <ele>1548.3</ele>
        <time>2026-06-26T08:11:48Z</time>
      </trkpt>
      <trkpt lat="46.06924" lon="6.77036">
        <ele>1548.4</ele>
        <time>2026-06-26T08:11:49Z</time>
      </trkpt>
      <trkpt lat="46.06924" lon="6.77038">
        <ele>1548.5</ele>
        <time>2026-06-26T08:11:50Z</time>
      </trkpt>
      <trkpt lat="46.06925" lon="6.77039">
        <ele>1548.6</ele>
        <time>2026-06-26T08:11:51Z</time>
      </trkpt>
      <trkpt lat="46.06926" lon="6.77039">
        <ele>1548.8</ele>
        <time>2026-06-26T08:11:52Z</time>
      </trkpt>
      <trkpt lat="46.06926" lon="6.7704">
        <ele>1548.9</ele>
        <time>2026-06-26T08:11:53Z</time>
      </trkpt>
      <trkpt lat="46.06927" lon="6.77041">
        <ele>1549.1</ele>
        <time>2026-06-26T08:11:54Z</time>
      </trkpt>
      <trkpt lat="46.06928" lon="6.77042">
        <ele>1549.2</ele>
        <time>2026-06-26T08:11:55Z</time>
      </trkpt>
      <trkpt lat="46.06929" lon="6.77043">
        <ele>1549.5</ele>
        <time>2026-06-26T08:11:56Z</time>
      </trkpt>
      <trkpt lat="46.06929" lon="6.77043">
        <ele>1549.7</ele>
        <time>2026-06-26T08:11:57Z</time>
      </trkpt>
      <trkpt lat="46.06929" lon="6.77043">
        <ele>1550</ele>
        <time>2026-06-26T08:11:58Z</time>
      </trkpt>
      <trkpt lat="46.06929" lon="6.77044">
        <ele>1550.3</ele>
        <time>2026-06-26T08:11:59Z</time>
      </trkpt>
      <trkpt lat="46.0693" lon="6.77045">
        <ele>1550.4</ele>
        <time>2026-06-26T08:12:00Z</time>
      </trkpt>
      <trkpt lat="46.06931" lon="6.77045">
        <ele>1550.5</ele>
        <time>2026-06-26T08:12:01Z</time>
      </trkpt>
      <trkpt lat="46.06932" lon="6.77045">
        <ele>1550.6</ele>
        <time>2026-06-26T08:12:02Z</time>
      </trkpt>
      <trkpt lat="46.06932" lon="6.77046">
        <ele>1550.7</ele>
        <time>2026-06-26T08:12:03Z</time>
      </trkpt>
      <trkpt lat="46.06933" lon="6.77046">
        <ele>1550.7</ele>
        <time>2026-06-26T08:12:04Z</time>
      </trkpt>
      <trkpt lat="46.06934" lon="6.77046">
        <ele>1550.9</ele>
        <time>2026-06-26T08:12:05Z</time>
      </trkpt>
      <trkpt lat="46.06935" lon="6.77046">
        <ele>1551</ele>
        <time>2026-06-26T08:12:06Z</time>
      </trkpt>
      <trkpt lat="46.06935" lon="6.77046">
        <ele>1551.1</ele>
        <time>2026-06-26T08:12:07Z</time>
      </trkpt>
      <trkpt lat="46.06936" lon="6.77046">
        <ele>1551.2</ele>
        <time>2026-06-26T08:12:08Z</time>
      </trkpt>
      <trkpt lat="46.06937" lon="6.77046">
        <ele>1551.2</ele>
        <time>2026-06-26T08:12:09Z</time>
      </trkpt>
      <trkpt lat="46.06938" lon="6.77046">
        <ele>1551.2</ele>
        <time>2026-06-26T08:12:10Z</time>
      </trkpt>
      <trkpt lat="46.06939" lon="6.77047">
        <ele>1551.4</ele>
        <time>2026-06-26T08:12:11Z</time>
      </trkpt>
      <trkpt lat="46.0694" lon="6.77048">
        <ele>1551.4</ele>
        <time>2026-06-26T08:12:12Z</time>
      </trkpt>
      <trkpt lat="46.06941" lon="6.77048">
        <ele>1551.4</ele>
        <time>2026-06-26T08:12:13Z</time>
      </trkpt>
      <trkpt lat="46.06942" lon="6.77048">
        <ele>1551.5</ele>
        <time>2026-06-26T08:12:14Z</time>
      </trkpt>
      <trkpt lat="46.06942" lon="6.77048">
        <ele>1551.7</ele>
        <time>2026-06-26T08:12:15Z</time>
      </trkpt>
      <trkpt lat="46.06942" lon="6.77049">
        <ele>1551.8</ele>
        <time>2026-06-26T08:12:16Z</time>
      </trkpt>
      <trkpt lat="46.06942" lon="6.77049">
        <ele>1552</ele>
        <time>2026-06-26T08:12:17Z</time>
      </trkpt>
      <trkpt lat="46.06943" lon="6.77048">
        <ele>1552.1</ele>
        <time>2026-06-26T08:12:18Z</time>
      </trkpt>
      <trkpt lat="46.06943" lon="6.77048">
        <ele>1552.2</ele>
        <time>2026-06-26T08:12:19Z</time>
      </trkpt>
      <trkpt lat="46.06943" lon="6.77049">
        <ele>1552.4</ele>
        <time>2026-06-26T08:12:20Z</time>
      </trkpt>
      <trkpt lat="46.06944" lon="6.77049">
        <ele>1552.6</ele>
        <time>2026-06-26T08:12:21Z</time>
      </trkpt>
      <trkpt lat="46.06944" lon="6.77049">
        <ele>1552.7</ele>
        <time>2026-06-26T08:12:22Z</time>
      </trkpt>
      <trkpt lat="46.06944" lon="6.77049">
        <ele>1552.8</ele>
        <time>2026-06-26T08:12:23Z</time>
      </trkpt>
      <trkpt lat="46.06944" lon="6.77049">
        <ele>1552.9</ele>
        <time>2026-06-26T08:12:24Z</time>
      </trkpt>
      <trkpt lat="46.06944" lon="6.77049">
        <ele>1553</ele>
        <time>2026-06-26T08:12:25Z</time>
      </trkpt>
      <trkpt lat="46.06945" lon="6.77049">
        <ele>1553.1</ele>
        <time>2026-06-26T08:12:26Z</time>
      </trkpt>
      <trkpt lat="46.06947" lon="6.77049">
        <ele>1553.2</ele>
        <time>2026-06-26T08:12:27Z</time>
      </trkpt>
      <trkpt lat="46.06947" lon="6.77048">
        <ele>1553.3</ele>
        <time>2026-06-26T08:12:28Z</time>
      </trkpt>
      <trkpt lat="46.06948" lon="6.77049">
        <ele>1553.6</ele>
        <time>2026-06-26T08:12:29Z</time>
      </trkpt>
      <trkpt lat="46.06949" lon="6.77051">
        <ele>1553.8</ele>
        <time>2026-06-26T08:12:30Z</time>
      </trkpt>
      <trkpt lat="46.0695" lon="6.7705">
        <ele>1553.9</ele>
        <time>2026-06-26T08:12:31Z</time>
      </trkpt>
      <trkpt lat="46.0695" lon="6.7705">
        <ele>1554</ele>
        <time>2026-06-26T08:12:32Z</time>
      </trkpt>
      <trkpt lat="46.06951" lon="6.7705">
        <ele>1554.2</ele>
        <time>2026-06-26T08:12:33Z</time>
      </trkpt>
      <trkpt lat="46.06952" lon="6.77051">
        <ele>1554.3</ele>
        <time>2026-06-26T08:12:34Z</time>
      </trkpt>
      <trkpt lat="46.06953" lon="6.77052">
        <ele>1554.5</ele>
        <time>2026-06-26T08:12:35Z</time>
      </trkpt>
      <trkpt lat="46.06952" lon="6.77052">
        <ele>1554.6</ele>
        <time>2026-06-26T08:12:36Z</time>
      </trkpt>
      <trkpt lat="46.06953" lon="6.77053">
        <ele>1554.8</ele>
        <time>2026-06-26T08:12:37Z</time>
      </trkpt>
      <trkpt lat="46.06953" lon="6.77053">
        <ele>1554.8</ele>
        <time>2026-06-26T08:12:38Z</time>
      </trkpt>
      <trkpt lat="46.06953" lon="6.77054">
        <ele>1554.9</ele>
        <time>2026-06-26T08:12:39Z</time>
      </trkpt>
      <trkpt lat="46.06954" lon="6.77055">
        <ele>1555.1</ele>
        <time>2026-06-26T08:12:40Z</time>
      </trkpt>
      <trkpt lat="46.06954" lon="6.77055">
        <ele>1555.3</ele>
        <time>2026-06-26T08:12:41Z</time>
      </trkpt>
      <trkpt lat="46.06954" lon="6.77055">
        <ele>1555.5</ele>
        <time>2026-06-26T08:12:42Z</time>
      </trkpt>
      <trkpt lat="46.06954" lon="6.77056">
        <ele>1555.6</ele>
        <time>2026-06-26T08:12:43Z</time>
      </trkpt>
      <trkpt lat="46.06954" lon="6.77056">
        <ele>1555.7</ele>
        <time>2026-06-26T08:12:44Z</time>
      </trkpt>
      <trkpt lat="46.06954" lon="6.77057">
        <ele>1555.9</ele>
        <time>2026-06-26T08:12:45Z</time>
      </trkpt>
      <trkpt lat="46.06954" lon="6.77058">
        <ele>1556.1</ele>
        <time>2026-06-26T08:12:46Z</time>
      </trkpt>
      <trkpt lat="46.06955" lon="6.77057">
        <ele>1556.2</ele>
        <time>2026-06-26T08:12:47Z</time>
      </trkpt>
      <trkpt lat="46.06955" lon="6.77058">
        <ele>1556.4</ele>
        <time>2026-06-26T08:12:48Z</time>
      </trkpt>
      <trkpt lat="46.06955" lon="6.77058">
        <ele>1556.5</ele>
        <time>2026-06-26T08:12:49Z</time>
      </trkpt>
      <trkpt lat="46.06955" lon="6.77059">
        <ele>1556.6</ele>
        <time>2026-06-26T08:12:50Z</time>
      </trkpt>
      <trkpt lat="46.06955" lon="6.7706">
        <ele>1556.8</ele>
        <time>2026-06-26T08:12:51Z</time>
      </trkpt>
      <trkpt lat="46.06955" lon="6.77061">
        <ele>1557</ele>
        <time>2026-06-26T08:12:52Z</time>
      </trkpt>
      <trkpt lat="46.06956" lon="6.77061">
        <ele>1557.2</ele>
        <time>2026-06-26T08:12:53Z</time>
      </trkpt>
      <trkpt lat="46.06956" lon="6.77062">
        <ele>1557.4</ele>
        <time>2026-06-26T08:12:54Z</time>
      </trkpt>
      <trkpt lat="46.06956" lon="6.77062">
        <ele>1557.5</ele>
        <time>2026-06-26T08:12:55Z</time>
      </trkpt>
      <trkpt lat="46.06956" lon="6.77061">
        <ele>1557.7</ele>
        <time>2026-06-26T08:12:56Z</time>
      </trkpt>
      <trkpt lat="46.06956" lon="6.7706">
        <ele>1557.8</ele>
        <time>2026-06-26T08:12:57Z</time>
      </trkpt>
      <trkpt lat="46.06956" lon="6.77059">
        <ele>1557.9</ele>
        <time>2026-06-26T08:12:58Z</time>
      </trkpt>
      <trkpt lat="46.06956" lon="6.77059">
        <ele>1558</ele>
        <time>2026-06-26T08:12:59Z</time>
      </trkpt>
      <trkpt lat="46.06956" lon="6.77059">
        <ele>1558</ele>
        <time>2026-06-26T08:13:00Z</time>
      </trkpt>
      <trkpt lat="46.06955" lon="6.77059">
        <ele>1558.1</ele>
        <time>2026-06-26T08:13:01Z</time>
      </trkpt>
      <trkpt lat="46.06955" lon="6.77059">
        <ele>1558.1</ele>
        <time>2026-06-26T08:13:02Z</time>
      </trkpt>
      <trkpt lat="46.06955" lon="6.77059">
        <ele>1558.1</ele>
        <time>2026-06-26T08:13:03Z</time>
      </trkpt>
      <trkpt lat="46.06955" lon="6.77058">
        <ele>1558.2</ele>
        <time>2026-06-26T08:13:04Z</time>
      </trkpt>
      <trkpt lat="46.06955" lon="6.77059">
        <ele>1558.1</ele>
        <time>2026-06-26T08:13:05Z</time>
      </trkpt>
      <trkpt lat="46.06954" lon="6.7706">
        <ele>1558.2</ele>
        <time>2026-06-26T08:13:06Z</time>
      </trkpt>
      <trkpt lat="46.06954" lon="6.77061">
        <ele>1558.2</ele>
        <time>2026-06-26T08:13:07Z</time>
      </trkpt>
      <trkpt lat="46.06955" lon="6.77061">
        <ele>1558.3</ele>
        <time>2026-06-26T08:13:08Z</time>
      </trkpt>
      <trkpt lat="46.06954" lon="6.77062">
        <ele>1558.4</ele>
        <time>2026-06-26T08:13:09Z</time>
      </trkpt>
      <trkpt lat="46.06954" lon="6.77063">
        <ele>1558.5</ele>
        <time>2026-06-26T08:13:10Z</time>
      </trkpt>
      <trkpt lat="46.06954" lon="6.77063">
        <ele>1558.6</ele>
        <time>2026-06-26T08:13:11Z</time>
      </trkpt>
      <trkpt lat="46.06954" lon="6.77063">
        <ele>1558.8</ele>
        <time>2026-06-26T08:13:12Z</time>
      </trkpt>
      <trkpt lat="46.06954" lon="6.77064">
        <ele>1559</ele>
        <time>2026-06-26T08:13:13Z</time>
      </trkpt>
      <trkpt lat="46.06954" lon="6.77065">
        <ele>1559.2</ele>
        <time>2026-06-26T08:13:14Z</time>
      </trkpt>
      <trkpt lat="46.06953" lon="6.77065">
        <ele>1559.4</ele>
        <time>2026-06-26T08:13:15Z</time>
      </trkpt>
      <trkpt lat="46.06952" lon="6.77066">
        <ele>1559.6</ele>
        <time>2026-06-26T08:13:16Z</time>
      </trkpt>
      <trkpt lat="46.06952" lon="6.77066">
        <ele>1559.8</ele>
        <time>2026-06-26T08:13:17Z</time>
      </trkpt>
      <trkpt lat="46.06952" lon="6.77067">
        <ele>1559.9</ele>
        <time>2026-06-26T08:13:18Z</time>
      </trkpt>
      <trkpt lat="46.06953" lon="6.77068">
        <ele>1560</ele>
        <time>2026-06-26T08:13:19Z</time>
      </trkpt>
      <trkpt lat="46.06953" lon="6.77069">
        <ele>1560.1</ele>
        <time>2026-06-26T08:13:20Z</time>
      </trkpt>
      <trkpt lat="46.06952" lon="6.77069">
        <ele>1560.2</ele>
        <time>2026-06-26T08:13:21Z</time>
      </trkpt>
      <trkpt lat="46.06952" lon="6.7707">
        <ele>1560.3</ele>
        <time>2026-06-26T08:13:22Z</time>
      </trkpt>
      <trkpt lat="46.06952" lon="6.77071">
        <ele>1560.5</ele>
        <time>2026-06-26T08:13:23Z</time>
      </trkpt>
      <trkpt lat="46.06952" lon="6.77071">
        <ele>1560.6</ele>
        <time>2026-06-26T08:13:24Z</time>
      </trkpt>
      <trkpt lat="46.06951" lon="6.77071">
        <ele>1560.8</ele>
        <time>2026-06-26T08:13:25Z</time>
      </trkpt>
      <trkpt lat="46.06952" lon="6.77072">
        <ele>1561</ele>
        <time>2026-06-26T08:13:26Z</time>
      </trkpt>
      <trkpt lat="46.06952" lon="6.77073">
        <ele>1561.2</ele>
        <time>2026-06-26T08:13:27Z</time>
      </trkpt>
      <trkpt lat="46.06952" lon="6.77074">
        <ele>1561.4</ele>
        <time>2026-06-26T08:13:28Z</time>
      </trkpt>
      <trkpt lat="46.06952" lon="6.77075">
        <ele>1561.5</ele>
        <time>2026-06-26T08:13:29Z</time>
      </trkpt>
      <trkpt lat="46.06952" lon="6.77076">
        <ele>1561.7</ele>
        <time>2026-06-26T08:13:30Z</time>
      </trkpt>
      <trkpt lat="46.06952" lon="6.77077">
        <ele>1561.8</ele>
        <time>2026-06-26T08:13:31Z</time>
      </trkpt>
      <trkpt lat="46.06952" lon="6.77078">
        <ele>1561.9</ele>
        <time>2026-06-26T08:13:32Z</time>
      </trkpt>
      <trkpt lat="46.06951" lon="6.77078">
        <ele>1562.1</ele>
        <time>2026-06-26T08:13:33Z</time>
      </trkpt>
      <trkpt lat="46.06951" lon="6.77079">
        <ele>1562.2</ele>
        <time>2026-06-26T08:13:34Z</time>
      </trkpt>
      <trkpt lat="46.06951" lon="6.7708">
        <ele>1562.4</ele>
        <time>2026-06-26T08:13:35Z</time>
      </trkpt>
      <trkpt lat="46.06951" lon="6.7708">
        <ele>1562.6</ele>
        <time>2026-06-26T08:13:36Z</time>
      </trkpt>
      <trkpt lat="46.06951" lon="6.7708">
        <ele>1562.7</ele>
        <time>2026-06-26T08:13:37Z</time>
      </trkpt>
      <trkpt lat="46.06952" lon="6.7708">
        <ele>1562.8</ele>
        <time>2026-06-26T08:13:38Z</time>
      </trkpt>
      <trkpt lat="46.06952" lon="6.7708">
        <ele>1562.8</ele>
        <time>2026-06-26T08:13:39Z</time>
      </trkpt>
      <trkpt lat="46.06953" lon="6.77081">
        <ele>1562.9</ele>
        <time>2026-06-26T08:13:40Z</time>
      </trkpt>
      <trkpt lat="46.06954" lon="6.77082">
        <ele>1563</ele>
        <time>2026-06-26T08:13:41Z</time>
      </trkpt>
      <trkpt lat="46.06955" lon="6.77082">
        <ele>1563</ele>
        <time>2026-06-26T08:13:42Z</time>
      </trkpt>
      <trkpt lat="46.06956" lon="6.77082">
        <ele>1563.1</ele>
        <time>2026-06-26T08:13:43Z</time>
      </trkpt>
      <trkpt lat="46.06956" lon="6.77083">
        <ele>1563.1</ele>
        <time>2026-06-26T08:13:44Z</time>
      </trkpt>
      <trkpt lat="46.06956" lon="6.77083">
        <ele>1563</ele>
        <time>2026-06-26T08:13:45Z</time>
      </trkpt>
      <trkpt lat="46.06956" lon="6.77085">
        <ele>1562.9</ele>
        <time>2026-06-26T08:13:46Z</time>
      </trkpt>
      <trkpt lat="46.06955" lon="6.77086">
        <ele>1563</ele>
        <time>2026-06-26T08:13:47Z</time>
      </trkpt>
      <trkpt lat="46.06955" lon="6.77088">
        <ele>1563.1</ele>
        <time>2026-06-26T08:13:48Z</time>
      </trkpt>
      <trkpt lat="46.06955" lon="6.77089">
        <ele>1563.2</ele>
        <time>2026-06-26T08:13:49Z</time>
      </trkpt>
      <trkpt lat="46.06955" lon="6.7709">
        <ele>1563.3</ele>
        <time>2026-06-26T08:13:50Z</time>
      </trkpt>
      <trkpt lat="46.06955" lon="6.77091">
        <ele>1563.4</ele>
        <time>2026-06-26T08:13:51Z</time>
      </trkpt>
      <trkpt lat="46.06955" lon="6.77092">
        <ele>1563.4</ele>
        <time>2026-06-26T08:13:52Z</time>
      </trkpt>
      <trkpt lat="46.06954" lon="6.77093">
        <ele>1563.6</ele>
        <time>2026-06-26T08:13:53Z</time>
      </trkpt>
      <trkpt lat="46.06954" lon="6.77093">
        <ele>1563.7</ele>
        <time>2026-06-26T08:13:54Z</time>
      </trkpt>
      <trkpt lat="46.06953" lon="6.77094">
        <ele>1563.7</ele>
        <time>2026-06-26T08:13:55Z</time>
      </trkpt>
      <trkpt lat="46.06953" lon="6.77094">
        <ele>1563.9</ele>
        <time>2026-06-26T08:13:56Z</time>
      </trkpt>
      <trkpt lat="46.06953" lon="6.77095">
        <ele>1564</ele>
        <time>2026-06-26T08:13:57Z</time>
      </trkpt>
      <trkpt lat="46.06953" lon="6.77095">
        <ele>1564.1</ele>
        <time>2026-06-26T08:13:58Z</time>
      </trkpt>
      <trkpt lat="46.06953" lon="6.77096">
        <ele>1564.3</ele>
        <time>2026-06-26T08:13:59Z</time>
      </trkpt>
      <trkpt lat="46.06953" lon="6.77097">
        <ele>1564.5</ele>
        <time>2026-06-26T08:14:00Z</time>
      </trkpt>
      <trkpt lat="46.06953" lon="6.77097">
        <ele>1564.6</ele>
        <time>2026-06-26T08:14:01Z</time>
      </trkpt>
      <trkpt lat="46.06953" lon="6.77098">
        <ele>1564.7</ele>
        <time>2026-06-26T08:14:02Z</time>
      </trkpt>
      <trkpt lat="46.06953" lon="6.77099">
        <ele>1564.8</ele>
        <time>2026-06-26T08:14:03Z</time>
      </trkpt>
      <trkpt lat="46.06955" lon="6.771">
        <ele>1564.9</ele>
        <time>2026-06-26T08:14:04Z</time>
      </trkpt>
      <trkpt lat="46.06956" lon="6.771">
        <ele>1565</ele>
        <time>2026-06-26T08:14:05Z</time>
      </trkpt>
      <trkpt lat="46.06955" lon="6.77101">
        <ele>1565.1</ele>
        <time>2026-06-26T08:14:06Z</time>
      </trkpt>
      <trkpt lat="46.06955" lon="6.77101">
        <ele>1565.3</ele>
        <time>2026-06-26T08:14:07Z</time>
      </trkpt>
      <trkpt lat="46.06955" lon="6.77102">
        <ele>1565.5</ele>
        <time>2026-06-26T08:14:08Z</time>
      </trkpt>
      <trkpt lat="46.06955" lon="6.77103">
        <ele>1565.6</ele>
        <time>2026-06-26T08:14:09Z</time>
      </trkpt>
      <trkpt lat="46.06955" lon="6.77104">
        <ele>1565.8</ele>
        <time>2026-06-26T08:14:10Z</time>
      </trkpt>
      <trkpt lat="46.06955" lon="6.77104">
        <ele>1566</ele>
        <time>2026-06-26T08:14:11Z</time>
      </trkpt>
      <trkpt lat="46.06955" lon="6.77105">
        <ele>1566.2</ele>
        <time>2026-06-26T08:14:12Z</time>
      </trkpt>
      <trkpt lat="46.06954" lon="6.77106">
        <ele>1566.4</ele>
        <time>2026-06-26T08:14:13Z</time>
      </trkpt>
      <trkpt lat="46.06954" lon="6.77107">
        <ele>1566.5</ele>
        <time>2026-06-26T08:14:14Z</time>
      </trkpt>
      <trkpt lat="46.06954" lon="6.77107">
        <ele>1566.7</ele>
        <time>2026-06-26T08:14:15Z</time>
      </trkpt>
      <trkpt lat="46.06954" lon="6.77108">
        <ele>1566.8</ele>
        <time>2026-06-26T08:14:16Z</time>
      </trkpt>
      <trkpt lat="46.06954" lon="6.77109">
        <ele>1567</ele>
        <time>2026-06-26T08:14:17Z</time>
      </trkpt>
      <trkpt lat="46.06954" lon="6.77109">
        <ele>1567.2</ele>
        <time>2026-06-26T08:14:18Z</time>
      </trkpt>
      <trkpt lat="46.06954" lon="6.7711">
        <ele>1567.4</ele>
        <time>2026-06-26T08:14:19Z</time>
      </trkpt>
      <trkpt lat="46.06954" lon="6.77111">
        <ele>1567.5</ele>
        <time>2026-06-26T08:14:20Z</time>
      </trkpt>
      <trkpt lat="46.06954" lon="6.77111">
        <ele>1567.7</ele>
        <time>2026-06-26T08:14:21Z</time>
      </trkpt>
      <trkpt lat="46.06954" lon="6.77112">
        <ele>1567.9</ele>
        <time>2026-06-26T08:14:22Z</time>
      </trkpt>
      <trkpt lat="46.06954" lon="6.77113">
        <ele>1568</ele>
        <time>2026-06-26T08:14:23Z</time>
      </trkpt>
      <trkpt lat="46.06954" lon="6.77114">
        <ele>1568.2</ele>
        <time>2026-06-26T08:14:24Z</time>
      </trkpt>
      <trkpt lat="46.06954" lon="6.77114">
        <ele>1568.3</ele>
        <time>2026-06-26T08:14:25Z</time>
      </trkpt>
      <trkpt lat="46.06955" lon="6.77115">
        <ele>1568.4</ele>
        <time>2026-06-26T08:14:26Z</time>
      </trkpt>
      <trkpt lat="46.06955" lon="6.77116">
        <ele>1568.5</ele>
        <time>2026-06-26T08:14:27Z</time>
      </trkpt>
      <trkpt lat="46.06955" lon="6.77116">
        <ele>1568.5</ele>
        <time>2026-06-26T08:14:28Z</time>
      </trkpt>
      <trkpt lat="46.06955" lon="6.77116">
        <ele>1568.7</ele>
        <time>2026-06-26T08:14:29Z</time>
      </trkpt>
      <trkpt lat="46.06955" lon="6.77116">
        <ele>1568.8</ele>
        <time>2026-06-26T08:14:30Z</time>
      </trkpt>
      <trkpt lat="46.06954" lon="6.77116">
        <ele>1568.9</ele>
        <time>2026-06-26T08:14:31Z</time>
      </trkpt>
      <trkpt lat="46.06954" lon="6.77117">
        <ele>1569</ele>
        <time>2026-06-26T08:14:32Z</time>
      </trkpt>
      <trkpt lat="46.06954" lon="6.77118">
        <ele>1569.2</ele>
        <time>2026-06-26T08:14:33Z</time>
      </trkpt>
      <trkpt lat="46.06954" lon="6.77119">
        <ele>1569.5</ele>
        <time>2026-06-26T08:14:34Z</time>
      </trkpt>
      <trkpt lat="46.06955" lon="6.7712">
        <ele>1569.6</ele>
        <time>2026-06-26T08:14:35Z</time>
      </trkpt>
      <trkpt lat="46.06955" lon="6.77121">
        <ele>1569.8</ele>
        <time>2026-06-26T08:14:36Z</time>
      </trkpt>
      <trkpt lat="46.06956" lon="6.77122">
        <ele>1569.9</ele>
        <time>2026-06-26T08:14:37Z</time>
      </trkpt>
      <trkpt lat="46.06956" lon="6.77123">
        <ele>1570.1</ele>
        <time>2026-06-26T08:14:38Z</time>
      </trkpt>
      <trkpt lat="46.06956" lon="6.77123">
        <ele>1570.2</ele>
        <time>2026-06-26T08:14:39Z</time>
      </trkpt>
      <trkpt lat="46.06956" lon="6.77124">
        <ele>1570.3</ele>
        <time>2026-06-26T08:14:40Z</time>
      </trkpt>
      <trkpt lat="46.06956" lon="6.77124">
        <ele>1570.5</ele>
        <time>2026-06-26T08:14:41Z</time>
      </trkpt>
      <trkpt lat="46.06957" lon="6.77125">
        <ele>1570.7</ele>
        <time>2026-06-26T08:14:42Z</time>
      </trkpt>
      <trkpt lat="46.06957" lon="6.77126">
        <ele>1570.9</ele>
        <time>2026-06-26T08:14:43Z</time>
      </trkpt>
      <trkpt lat="46.06957" lon="6.77126">
        <ele>1571.1</ele>
        <time>2026-06-26T08:14:44Z</time>
      </trkpt>
      <trkpt lat="46.06957" lon="6.77127">
        <ele>1571.2</ele>
        <time>2026-06-26T08:14:45Z</time>
      </trkpt>
      <trkpt lat="46.06958" lon="6.77127">
        <ele>1571.4</ele>
        <time>2026-06-26T08:14:46Z</time>
      </trkpt>
      <trkpt lat="46.06957" lon="6.77127">
        <ele>1571.5</ele>
        <time>2026-06-26T08:14:47Z</time>
      </trkpt>
      <trkpt lat="46.06957" lon="6.77128">
        <ele>1571.7</ele>
        <time>2026-06-26T08:14:48Z</time>
      </trkpt>
      <trkpt lat="46.06957" lon="6.77128">
        <ele>1571.9</ele>
        <time>2026-06-26T08:14:49Z</time>
      </trkpt>
      <trkpt lat="46.06956" lon="6.77128">
        <ele>1572.2</ele>
        <time>2026-06-26T08:14:50Z</time>
      </trkpt>
      <trkpt lat="46.06956" lon="6.77129">
        <ele>1572.4</ele>
        <time>2026-06-26T08:14:51Z</time>
      </trkpt>
      <trkpt lat="46.06955" lon="6.77129">
        <ele>1572.4</ele>
        <time>2026-06-26T08:14:52Z</time>
      </trkpt>
      <trkpt lat="46.06955" lon="6.77129">
        <ele>1572.6</ele>
        <time>2026-06-26T08:14:53Z</time>
      </trkpt>
      <trkpt lat="46.06954" lon="6.77129">
        <ele>1572.7</ele>
        <time>2026-06-26T08:14:54Z</time>
      </trkpt>
      <trkpt lat="46.06954" lon="6.77129">
        <ele>1572.8</ele>
        <time>2026-06-26T08:14:55Z</time>
      </trkpt>
      <trkpt lat="46.06953" lon="6.77129">
        <ele>1572.9</ele>
        <time>2026-06-26T08:14:56Z</time>
      </trkpt>
      <trkpt lat="46.06953" lon="6.77129">
        <ele>1573</ele>
        <time>2026-06-26T08:14:57Z</time>
      </trkpt>
      <trkpt lat="46.06952" lon="6.7713">
        <ele>1573.1</ele>
        <time>2026-06-26T08:14:58Z</time>
      </trkpt>
      <trkpt lat="46.06952" lon="6.7713">
        <ele>1573.3</ele>
        <time>2026-06-26T08:14:59Z</time>
      </trkpt>
      <trkpt lat="46.06952" lon="6.7713">
        <ele>1573.5</ele>
        <time>2026-06-26T08:15:00Z</time>
      </trkpt>
      <trkpt lat="46.06952" lon="6.7713">
        <ele>1573.6</ele>
        <time>2026-06-26T08:15:01Z</time>
      </trkpt>
      <trkpt lat="46.06952" lon="6.77131">
        <ele>1573.8</ele>
        <time>2026-06-26T08:15:02Z</time>
      </trkpt>
      <trkpt lat="46.06951" lon="6.77131">
        <ele>1573.9</ele>
        <time>2026-06-26T08:15:03Z</time>
      </trkpt>
      <trkpt lat="46.06951" lon="6.77131">
        <ele>1574.2</ele>
        <time>2026-06-26T08:15:04Z</time>
      </trkpt>
      <trkpt lat="46.06951" lon="6.77132">
        <ele>1574.3</ele>
        <time>2026-06-26T08:15:05Z</time>
      </trkpt>
      <trkpt lat="46.06951" lon="6.77133">
        <ele>1574.6</ele>
        <time>2026-06-26T08:15:06Z</time>
      </trkpt>
      <trkpt lat="46.06952" lon="6.77134">
        <ele>1574.7</ele>
        <time>2026-06-26T08:15:07Z</time>
      </trkpt>
      <trkpt lat="46.06952" lon="6.77135">
        <ele>1574.8</ele>
        <time>2026-06-26T08:15:08Z</time>
      </trkpt>
      <trkpt lat="46.06951" lon="6.77135">
        <ele>1575</ele>
        <time>2026-06-26T08:15:09Z</time>
      </trkpt>
      <trkpt lat="46.06951" lon="6.77136">
        <ele>1575.2</ele>
        <time>2026-06-26T08:15:10Z</time>
      </trkpt>
      <trkpt lat="46.06951" lon="6.77137">
        <ele>1575.4</ele>
        <time>2026-06-26T08:15:11Z</time>
      </trkpt>
      <trkpt lat="46.06951" lon="6.77137">
        <ele>1575.5</ele>
        <time>2026-06-26T08:15:12Z</time>
      </trkpt>
      <trkpt lat="46.06951" lon="6.77139">
        <ele>1575.8</ele>
        <time>2026-06-26T08:15:13Z</time>
      </trkpt>
      <trkpt lat="46.06951" lon="6.77139">
        <ele>1575.9</ele>
        <time>2026-06-26T08:15:14Z</time>
      </trkpt>
      <trkpt lat="46.06952" lon="6.7714">
        <ele>1576</ele>
        <time>2026-06-26T08:15:15Z</time>
      </trkpt>
      <trkpt lat="46.06953" lon="6.77142">
        <ele>1576</ele>
        <time>2026-06-26T08:15:16Z</time>
      </trkpt>
      <trkpt lat="46.06953" lon="6.77144">
        <ele>1576.1</ele>
        <time>2026-06-26T08:15:17Z</time>
      </trkpt>
      <trkpt lat="46.06954" lon="6.77145">
        <ele>1576.1</ele>
        <time>2026-06-26T08:15:18Z</time>
      </trkpt>
      <trkpt lat="46.06954" lon="6.77147">
        <ele>1576.4</ele>
        <time>2026-06-26T08:15:19Z</time>
      </trkpt>
      <trkpt lat="46.06955" lon="6.77149">
        <ele>1576.5</ele>
        <time>2026-06-26T08:15:20Z</time>
      </trkpt>
      <trkpt lat="46.06956" lon="6.77149">
        <ele>1576.7</ele>
        <time>2026-06-26T08:15:21Z</time>
      </trkpt>
      <trkpt lat="46.06956" lon="6.7715">
        <ele>1576.8</ele>
        <time>2026-06-26T08:15:22Z</time>
      </trkpt>
      <trkpt lat="46.06956" lon="6.77151">
        <ele>1576.9</ele>
        <time>2026-06-26T08:15:23Z</time>
      </trkpt>
      <trkpt lat="46.06956" lon="6.77152">
        <ele>1577</ele>
        <time>2026-06-26T08:15:24Z</time>
      </trkpt>
      <trkpt lat="46.06957" lon="6.77152">
        <ele>1577.3</ele>
        <time>2026-06-26T08:15:25Z</time>
      </trkpt>
      <trkpt lat="46.06957" lon="6.77153">
        <ele>1577.4</ele>
        <time>2026-06-26T08:15:26Z</time>
      </trkpt>
      <trkpt lat="46.06957" lon="6.77154">
        <ele>1577.6</ele>
        <time>2026-06-26T08:15:27Z</time>
      </trkpt>
      <trkpt lat="46.06958" lon="6.77154">
        <ele>1577.8</ele>
        <time>2026-06-26T08:15:28Z</time>
      </trkpt>
      <trkpt lat="46.06958" lon="6.77154">
        <ele>1577.9</ele>
        <time>2026-06-26T08:15:29Z</time>
      </trkpt>
      <trkpt lat="46.06959" lon="6.77154">
        <ele>1578.1</ele>
        <time>2026-06-26T08:15:30Z</time>
      </trkpt>
      <trkpt lat="46.06959" lon="6.77155">
        <ele>1578.2</ele>
        <time>2026-06-26T08:15:31Z</time>
      </trkpt>
      <trkpt lat="46.0696" lon="6.77155">
        <ele>1578.3</ele>
        <time>2026-06-26T08:15:32Z</time>
      </trkpt>
      <trkpt lat="46.06961" lon="6.77155">
        <ele>1578.5</ele>
        <time>2026-06-26T08:15:33Z</time>
      </trkpt>
      <trkpt lat="46.06961" lon="6.77155">
        <ele>1578.7</ele>
        <time>2026-06-26T08:15:34Z</time>
      </trkpt>
      <trkpt lat="46.06962" lon="6.77155">
        <ele>1578.8</ele>
        <time>2026-06-26T08:15:35Z</time>
      </trkpt>
      <trkpt lat="46.06962" lon="6.77155">
        <ele>1579</ele>
        <time>2026-06-26T08:15:36Z</time>
      </trkpt>
      <trkpt lat="46.06963" lon="6.77155">
        <ele>1579.1</ele>
        <time>2026-06-26T08:15:37Z</time>
      </trkpt>
      <trkpt lat="46.06963" lon="6.77156">
        <ele>1579.2</ele>
        <time>2026-06-26T08:15:38Z</time>
      </trkpt>
      <trkpt lat="46.06964" lon="6.77155">
        <ele>1579.3</ele>
        <time>2026-06-26T08:15:39Z</time>
      </trkpt>
      <trkpt lat="46.06965" lon="6.77155">
        <ele>1579.4</ele>
        <time>2026-06-26T08:15:40Z</time>
      </trkpt>
      <trkpt lat="46.06965" lon="6.77155">
        <ele>1579.4</ele>
        <time>2026-06-26T08:15:41Z</time>
      </trkpt>
      <trkpt lat="46.06966" lon="6.77155">
        <ele>1579.6</ele>
        <time>2026-06-26T08:15:42Z</time>
      </trkpt>
      <trkpt lat="46.06967" lon="6.77155">
        <ele>1579.6</ele>
        <time>2026-06-26T08:15:43Z</time>
      </trkpt>
      <trkpt lat="46.06967" lon="6.77155">
        <ele>1579.7</ele>
        <time>2026-06-26T08:15:44Z</time>
      </trkpt>
      <trkpt lat="46.06968" lon="6.77154">
        <ele>1579.7</ele>
        <time>2026-06-26T08:15:45Z</time>
      </trkpt>
      <trkpt lat="46.06968" lon="6.77155">
        <ele>1579.8</ele>
        <time>2026-06-26T08:15:46Z</time>
      </trkpt>
      <trkpt lat="46.06968" lon="6.77154">
        <ele>1579.9</ele>
        <time>2026-06-26T08:15:47Z</time>
      </trkpt>
      <trkpt lat="46.06968" lon="6.77154">
        <ele>1580</ele>
        <time>2026-06-26T08:15:48Z</time>
      </trkpt>
      <trkpt lat="46.06968" lon="6.77153">
        <ele>1580</ele>
        <time>2026-06-26T08:15:49Z</time>
      </trkpt>
      <trkpt lat="46.06968" lon="6.77153">
        <ele>1580</ele>
        <time>2026-06-26T08:15:50Z</time>
      </trkpt>
      <trkpt lat="46.06968" lon="6.77152">
        <ele>1580</ele>
        <time>2026-06-26T08:15:51Z</time>
      </trkpt>
      <trkpt lat="46.06968" lon="6.77152">
        <ele>1580</ele>
        <time>2026-06-26T08:15:52Z</time>
      </trkpt>
      <trkpt lat="46.06968" lon="6.77152">
        <ele>1580</ele>
        <time>2026-06-26T08:15:53Z</time>
      </trkpt>
      <trkpt lat="46.06968" lon="6.77152">
        <ele>1580.1</ele>
        <time>2026-06-26T08:15:54Z</time>
      </trkpt>
      <trkpt lat="46.06968" lon="6.77152">
        <ele>1580.1</ele>
        <time>2026-06-26T08:15:55Z</time>
      </trkpt>
      <trkpt lat="46.06968" lon="6.77152">
        <ele>1580.2</ele>
        <time>2026-06-26T08:15:56Z</time>
      </trkpt>
      <trkpt lat="46.06968" lon="6.77152">
        <ele>1580.2</ele>
        <time>2026-06-26T08:15:57Z</time>
      </trkpt>
      <trkpt lat="46.06969" lon="6.77151">
        <ele>1580.3</ele>
        <time>2026-06-26T08:15:58Z</time>
      </trkpt>
      <trkpt lat="46.06968" lon="6.77151">
        <ele>1580.3</ele>
        <time>2026-06-26T08:15:59Z</time>
      </trkpt>
      <trkpt lat="46.06968" lon="6.77151">
        <ele>1580.3</ele>
        <time>2026-06-26T08:16:00Z</time>
      </trkpt>
      <trkpt lat="46.06969" lon="6.77151">
        <ele>1580.4</ele>
        <time>2026-06-26T08:16:01Z</time>
      </trkpt>
      <trkpt lat="46.0697" lon="6.77151">
        <ele>1580.5</ele>
        <time>2026-06-26T08:16:02Z</time>
      </trkpt>
      <trkpt lat="46.06971" lon="6.7715">
        <ele>1580.5</ele>
        <time>2026-06-26T08:16:03Z</time>
      </trkpt>
      <trkpt lat="46.06971" lon="6.7715">
        <ele>1580.6</ele>
        <time>2026-06-26T08:16:04Z</time>
      </trkpt>
      <trkpt lat="46.06972" lon="6.77151">
        <ele>1580.7</ele>
        <time>2026-06-26T08:16:05Z</time>
      </trkpt>
      <trkpt lat="46.06972" lon="6.77151">
        <ele>1580.7</ele>
        <time>2026-06-26T08:16:06Z</time>
      </trkpt>
      <trkpt lat="46.06972" lon="6.77151">
        <ele>1580.8</ele>
        <time>2026-06-26T08:16:07Z</time>
      </trkpt>
      <trkpt lat="46.06973" lon="6.77151">
        <ele>1580.9</ele>
        <time>2026-06-26T08:16:08Z</time>
      </trkpt>
      <trkpt lat="46.06974" lon="6.77152">
        <ele>1580.9</ele>
        <time>2026-06-26T08:16:09Z</time>
      </trkpt>
      <trkpt lat="46.06973" lon="6.77153">
        <ele>1581</ele>
        <time>2026-06-26T08:16:10Z</time>
      </trkpt>
      <trkpt lat="46.06974" lon="6.77153">
        <ele>1581.1</ele>
        <time>2026-06-26T08:16:11Z</time>
      </trkpt>
      <trkpt lat="46.06975" lon="6.77153">
        <ele>1581.3</ele>
        <time>2026-06-26T08:16:12Z</time>
      </trkpt>
      <trkpt lat="46.06975" lon="6.77153">
        <ele>1581.4</ele>
        <time>2026-06-26T08:16:13Z</time>
      </trkpt>
      <trkpt lat="46.06976" lon="6.77153">
        <ele>1581.6</ele>
        <time>2026-06-26T08:16:14Z</time>
      </trkpt>
      <trkpt lat="46.06976" lon="6.77153">
        <ele>1581.8</ele>
        <time>2026-06-26T08:16:15Z</time>
      </trkpt>
      <trkpt lat="46.06976" lon="6.77153">
        <ele>1582</ele>
        <time>2026-06-26T08:16:16Z</time>
      </trkpt>
      <trkpt lat="46.06977" lon="6.77153">
        <ele>1582.1</ele>
        <time>2026-06-26T08:16:17Z</time>
      </trkpt>
      <trkpt lat="46.06977" lon="6.77153">
        <ele>1582.3</ele>
        <time>2026-06-26T08:16:18Z</time>
      </trkpt>
      <trkpt lat="46.06977" lon="6.77153">
        <ele>1582.4</ele>
        <time>2026-06-26T08:16:19Z</time>
      </trkpt>
      <trkpt lat="46.06977" lon="6.77153">
        <ele>1582.6</ele>
        <time>2026-06-26T08:16:20Z</time>
      </trkpt>
      <trkpt lat="46.06977" lon="6.77153">
        <ele>1582.8</ele>
        <time>2026-06-26T08:16:21Z</time>
      </trkpt>
      <trkpt lat="46.06977" lon="6.77153">
        <ele>1583</ele>
        <time>2026-06-26T08:16:22Z</time>
      </trkpt>
      <trkpt lat="46.06977" lon="6.77154">
        <ele>1583.1</ele>
        <time>2026-06-26T08:16:23Z</time>
      </trkpt>
      <trkpt lat="46.06977" lon="6.77155">
        <ele>1583.3</ele>
        <time>2026-06-26T08:16:24Z</time>
      </trkpt>
      <trkpt lat="46.06977" lon="6.77156">
        <ele>1583.4</ele>
        <time>2026-06-26T08:16:25Z</time>
      </trkpt>
      <trkpt lat="46.06977" lon="6.77157">
        <ele>1583.7</ele>
        <time>2026-06-26T08:16:26Z</time>
      </trkpt>
      <trkpt lat="46.06977" lon="6.77157">
        <ele>1583.8</ele>
        <time>2026-06-26T08:16:27Z</time>
      </trkpt>
      <trkpt lat="46.06977" lon="6.77158">
        <ele>1584</ele>
        <time>2026-06-26T08:16:28Z</time>
      </trkpt>
      <trkpt lat="46.06977" lon="6.77159">
        <ele>1584.2</ele>
        <time>2026-06-26T08:16:29Z</time>
      </trkpt>
      <trkpt lat="46.06977" lon="6.77158">
        <ele>1584.4</ele>
        <time>2026-06-26T08:16:30Z</time>
      </trkpt>
      <trkpt lat="46.06976" lon="6.77158">
        <ele>1584.6</ele>
        <time>2026-06-26T08:16:31Z</time>
      </trkpt>
      <trkpt lat="46.06976" lon="6.77159">
        <ele>1584.8</ele>
        <time>2026-06-26T08:16:32Z</time>
      </trkpt>
      <trkpt lat="46.06976" lon="6.7716">
        <ele>1585</ele>
        <time>2026-06-26T08:16:33Z</time>
      </trkpt>
      <trkpt lat="46.06976" lon="6.77161">
        <ele>1585.1</ele>
        <time>2026-06-26T08:16:34Z</time>
      </trkpt>
      <trkpt lat="46.06977" lon="6.77162">
        <ele>1585.3</ele>
        <time>2026-06-26T08:16:35Z</time>
      </trkpt>
      <trkpt lat="46.06977" lon="6.77162">
        <ele>1585.5</ele>
        <time>2026-06-26T08:16:36Z</time>
      </trkpt>
      <trkpt lat="46.06977" lon="6.77163">
        <ele>1585.8</ele>
        <time>2026-06-26T08:16:37Z</time>
      </trkpt>
      <trkpt lat="46.06978" lon="6.77164">
        <ele>1586</ele>
        <time>2026-06-26T08:16:38Z</time>
      </trkpt>
      <trkpt lat="46.06978" lon="6.77164">
        <ele>1586.2</ele>
        <time>2026-06-26T08:16:39Z</time>
      </trkpt>
      <trkpt lat="46.06979" lon="6.77165">
        <ele>1586.4</ele>
        <time>2026-06-26T08:16:40Z</time>
      </trkpt>
      <trkpt lat="46.06979" lon="6.77165">
        <ele>1586.7</ele>
        <time>2026-06-26T08:16:41Z</time>
      </trkpt>
      <trkpt lat="46.0698" lon="6.77164">
        <ele>1587</ele>
        <time>2026-06-26T08:16:42Z</time>
      </trkpt>
      <trkpt lat="46.06981" lon="6.77164">
        <ele>1587.1</ele>
        <time>2026-06-26T08:16:43Z</time>
      </trkpt>
      <trkpt lat="46.06982" lon="6.77163">
        <ele>1587.4</ele>
        <time>2026-06-26T08:16:44Z</time>
      </trkpt>
      <trkpt lat="46.06983" lon="6.77164">
        <ele>1587.6</ele>
        <time>2026-06-26T08:16:45Z</time>
      </trkpt>
      <trkpt lat="46.06983" lon="6.77164">
        <ele>1587.8</ele>
        <time>2026-06-26T08:16:46Z</time>
      </trkpt>
      <trkpt lat="46.06984" lon="6.77165">
        <ele>1587.9</ele>
        <time>2026-06-26T08:16:47Z</time>
      </trkpt>
      <trkpt lat="46.06985" lon="6.77164">
        <ele>1588</ele>
        <time>2026-06-26T08:16:48Z</time>
      </trkpt>
      <trkpt lat="46.06986" lon="6.77165">
        <ele>1588.1</ele>
        <time>2026-06-26T08:16:49Z</time>
      </trkpt>
      <trkpt lat="46.06986" lon="6.77165">
        <ele>1588.2</ele>
        <time>2026-06-26T08:16:50Z</time>
      </trkpt>
      <trkpt lat="46.06986" lon="6.77164">
        <ele>1588.3</ele>
        <time>2026-06-26T08:16:51Z</time>
      </trkpt>
      <trkpt lat="46.06986" lon="6.77163">
        <ele>1588.5</ele>
        <time>2026-06-26T08:16:52Z</time>
      </trkpt>
      <trkpt lat="46.06987" lon="6.77163">
        <ele>1588.7</ele>
        <time>2026-06-26T08:16:53Z</time>
      </trkpt>
      <trkpt lat="46.06988" lon="6.77163">
        <ele>1588.9</ele>
        <time>2026-06-26T08:16:54Z</time>
      </trkpt>
      <trkpt lat="46.06989" lon="6.77163">
        <ele>1589</ele>
        <time>2026-06-26T08:16:55Z</time>
      </trkpt>
      <trkpt lat="46.06989" lon="6.77164">
        <ele>1589.2</ele>
        <time>2026-06-26T08:16:56Z</time>
      </trkpt>
      <trkpt lat="46.06989" lon="6.77164">
        <ele>1589.4</ele>
        <time>2026-06-26T08:16:57Z</time>
      </trkpt>
      <trkpt lat="46.0699" lon="6.77163">
        <ele>1589.6</ele>
        <time>2026-06-26T08:16:58Z</time>
      </trkpt>
      <trkpt lat="46.0699" lon="6.77162">
        <ele>1589.7</ele>
        <time>2026-06-26T08:16:59Z</time>
      </trkpt>
      <trkpt lat="46.06991" lon="6.77161">
        <ele>1590</ele>
        <time>2026-06-26T08:17:00Z</time>
      </trkpt>
      <trkpt lat="46.06991" lon="6.77161">
        <ele>1590</ele>
        <time>2026-06-26T08:17:01Z</time>
      </trkpt>
      <trkpt lat="46.06991" lon="6.77161">
        <ele>1590.1</ele>
        <time>2026-06-26T08:17:02Z</time>
      </trkpt>
      <trkpt lat="46.06991" lon="6.77161">
        <ele>1590.2</ele>
        <time>2026-06-26T08:17:03Z</time>
      </trkpt>
      <trkpt lat="46.06991" lon="6.77161">
        <ele>1590.3</ele>
        <time>2026-06-26T08:17:04Z</time>
      </trkpt>
      <trkpt lat="46.06991" lon="6.77161">
        <ele>1590.5</ele>
        <time>2026-06-26T08:17:05Z</time>
      </trkpt>
      <trkpt lat="46.06991" lon="6.77162">
        <ele>1590.6</ele>
        <time>2026-06-26T08:17:06Z</time>
      </trkpt>
      <trkpt lat="46.06991" lon="6.77162">
        <ele>1590.7</ele>
        <time>2026-06-26T08:17:07Z</time>
      </trkpt>
      <trkpt lat="46.0699" lon="6.77162">
        <ele>1590.9</ele>
        <time>2026-06-26T08:17:08Z</time>
      </trkpt>
      <trkpt lat="46.0699" lon="6.77162">
        <ele>1591.1</ele>
        <time>2026-06-26T08:17:09Z</time>
      </trkpt>
      <trkpt lat="46.06989" lon="6.77162">
        <ele>1591.2</ele>
        <time>2026-06-26T08:17:10Z</time>
      </trkpt>
      <trkpt lat="46.06989" lon="6.77162">
        <ele>1591.4</ele>
        <time>2026-06-26T08:17:11Z</time>
      </trkpt>
      <trkpt lat="46.06988" lon="6.77162">
        <ele>1591.5</ele>
        <time>2026-06-26T08:17:12Z</time>
      </trkpt>
      <trkpt lat="46.06988" lon="6.77162">
        <ele>1591.7</ele>
        <time>2026-06-26T08:17:13Z</time>
      </trkpt>
      <trkpt lat="46.06987" lon="6.77161">
        <ele>1591.8</ele>
        <time>2026-06-26T08:17:14Z</time>
      </trkpt>
      <trkpt lat="46.06986" lon="6.77161">
        <ele>1591.9</ele>
        <time>2026-06-26T08:17:15Z</time>
      </trkpt>
      <trkpt lat="46.06986" lon="6.77161">
        <ele>1592.1</ele>
        <time>2026-06-26T08:17:16Z</time>
      </trkpt>
      <trkpt lat="46.06986" lon="6.77161">
        <ele>1592.3</ele>
        <time>2026-06-26T08:17:17Z</time>
      </trkpt>
      <trkpt lat="46.06985" lon="6.77161">
        <ele>1592.6</ele>
        <time>2026-06-26T08:17:18Z</time>
      </trkpt>
      <trkpt lat="46.06985" lon="6.77161">
        <ele>1592.6</ele>
        <time>2026-06-26T08:17:19Z</time>
      </trkpt>
      <trkpt lat="46.06985" lon="6.77162">
        <ele>1592.7</ele>
        <time>2026-06-26T08:17:20Z</time>
      </trkpt>
      <trkpt lat="46.06984" lon="6.77163">
        <ele>1592.8</ele>
        <time>2026-06-26T08:17:21Z</time>
      </trkpt>
      <trkpt lat="46.06984" lon="6.77163">
        <ele>1592.8</ele>
        <time>2026-06-26T08:17:22Z</time>
      </trkpt>
      <trkpt lat="46.06986" lon="6.77165">
        <ele>1592.9</ele>
        <time>2026-06-26T08:17:23Z</time>
      </trkpt>
      <trkpt lat="46.06987" lon="6.77167">
        <ele>1593</ele>
        <time>2026-06-26T08:17:24Z</time>
      </trkpt>
      <trkpt lat="46.06987" lon="6.77168">
        <ele>1593.1</ele>
        <time>2026-06-26T08:17:25Z</time>
      </trkpt>
      <trkpt lat="46.06987" lon="6.77169">
        <ele>1593.2</ele>
        <time>2026-06-26T08:17:26Z</time>
      </trkpt>
      <trkpt lat="46.06987" lon="6.7717">
        <ele>1593.3</ele>
        <time>2026-06-26T08:17:27Z</time>
      </trkpt>
      <trkpt lat="46.06987" lon="6.77171">
        <ele>1593.3</ele>
        <time>2026-06-26T08:17:28Z</time>
      </trkpt>
      <trkpt lat="46.06987" lon="6.77171">
        <ele>1593.4</ele>
        <time>2026-06-26T08:17:29Z</time>
      </trkpt>
      <trkpt lat="46.06987" lon="6.77172">
        <ele>1593.4</ele>
        <time>2026-06-26T08:17:30Z</time>
      </trkpt>
      <trkpt lat="46.06987" lon="6.77172">
        <ele>1593.5</ele>
        <time>2026-06-26T08:17:31Z</time>
      </trkpt>
      <trkpt lat="46.06987" lon="6.77173">
        <ele>1593.5</ele>
        <time>2026-06-26T08:17:32Z</time>
      </trkpt>
      <trkpt lat="46.06986" lon="6.77174">
        <ele>1593.6</ele>
        <time>2026-06-26T08:17:33Z</time>
      </trkpt>
      <trkpt lat="46.06986" lon="6.77175">
        <ele>1593.7</ele>
        <time>2026-06-26T08:17:34Z</time>
      </trkpt>
      <trkpt lat="46.06986" lon="6.77176">
        <ele>1593.8</ele>
        <time>2026-06-26T08:17:35Z</time>
      </trkpt>
      <trkpt lat="46.06986" lon="6.77176">
        <ele>1594</ele>
        <time>2026-06-26T08:17:36Z</time>
      </trkpt>
      <trkpt lat="46.06986" lon="6.77177">
        <ele>1594.1</ele>
        <time>2026-06-26T08:17:37Z</time>
      </trkpt>
      <trkpt lat="46.06985" lon="6.77177">
        <ele>1594.3</ele>
        <time>2026-06-26T08:17:38Z</time>
      </trkpt>
      <trkpt lat="46.06985" lon="6.77177">
        <ele>1594.4</ele>
        <time>2026-06-26T08:17:39Z</time>
      </trkpt>
      <trkpt lat="46.06985" lon="6.77177">
        <ele>1594.6</ele>
        <time>2026-06-26T08:17:40Z</time>
      </trkpt>
      <trkpt lat="46.06984" lon="6.77177">
        <ele>1594.7</ele>
        <time>2026-06-26T08:17:41Z</time>
      </trkpt>
      <trkpt lat="46.06983" lon="6.77178">
        <ele>1594.7</ele>
        <time>2026-06-26T08:17:42Z</time>
      </trkpt>
      <trkpt lat="46.06983" lon="6.77178">
        <ele>1594.8</ele>
        <time>2026-06-26T08:17:43Z</time>
      </trkpt>
      <trkpt lat="46.06983" lon="6.77179">
        <ele>1594.9</ele>
        <time>2026-06-26T08:17:44Z</time>
      </trkpt>
      <trkpt lat="46.06983" lon="6.7718">
        <ele>1594.9</ele>
        <time>2026-06-26T08:17:45Z</time>
      </trkpt>
      <trkpt lat="46.06983" lon="6.77181">
        <ele>1595</ele>
        <time>2026-06-26T08:17:46Z</time>
      </trkpt>
      <trkpt lat="46.06983" lon="6.77182">
        <ele>1595</ele>
        <time>2026-06-26T08:17:47Z</time>
      </trkpt>
      <trkpt lat="46.06983" lon="6.77182">
        <ele>1595.1</ele>
        <time>2026-06-26T08:17:48Z</time>
      </trkpt>
      <trkpt lat="46.06983" lon="6.77183">
        <ele>1595.2</ele>
        <time>2026-06-26T08:17:49Z</time>
      </trkpt>
      <trkpt lat="46.06983" lon="6.77183">
        <ele>1595.3</ele>
        <time>2026-06-26T08:17:50Z</time>
      </trkpt>
      <trkpt lat="46.06982" lon="6.77183">
        <ele>1595.4</ele>
        <time>2026-06-26T08:17:51Z</time>
      </trkpt>
      <trkpt lat="46.06982" lon="6.77184">
        <ele>1595.4</ele>
        <time>2026-06-26T08:17:52Z</time>
      </trkpt>
      <trkpt lat="46.06981" lon="6.77185">
        <ele>1595.4</ele>
        <time>2026-06-26T08:17:53Z</time>
      </trkpt>
      <trkpt lat="46.06981" lon="6.77185">
        <ele>1595.5</ele>
        <time>2026-06-26T08:17:54Z</time>
      </trkpt>
      <trkpt lat="46.0698" lon="6.77186">
        <ele>1595.5</ele>
        <time>2026-06-26T08:17:55Z</time>
      </trkpt>
      <trkpt lat="46.0698" lon="6.77186">
        <ele>1595.6</ele>
        <time>2026-06-26T08:17:56Z</time>
      </trkpt>
      <trkpt lat="46.06979" lon="6.77187">
        <ele>1595.7</ele>
        <time>2026-06-26T08:17:57Z</time>
      </trkpt>
      <trkpt lat="46.06979" lon="6.77188">
        <ele>1595.8</ele>
        <time>2026-06-26T08:17:58Z</time>
      </trkpt>
      <trkpt lat="46.06979" lon="6.77189">
        <ele>1595.9</ele>
        <time>2026-06-26T08:17:59Z</time>
      </trkpt>
      <trkpt lat="46.06978" lon="6.77188">
        <ele>1596.1</ele>
        <time>2026-06-26T08:18:00Z</time>
      </trkpt>
      <trkpt lat="46.06978" lon="6.77188">
        <ele>1596.2</ele>
        <time>2026-06-26T08:18:01Z</time>
      </trkpt>
      <trkpt lat="46.06978" lon="6.77189">
        <ele>1596.3</ele>
        <time>2026-06-26T08:18:02Z</time>
      </trkpt>
      <trkpt lat="46.06977" lon="6.77189">
        <ele>1596.4</ele>
        <time>2026-06-26T08:18:03Z</time>
      </trkpt>
      <trkpt lat="46.06977" lon="6.77189">
        <ele>1596.6</ele>
        <time>2026-06-26T08:18:04Z</time>
      </trkpt>
      <trkpt lat="46.06977" lon="6.7719">
        <ele>1596.7</ele>
        <time>2026-06-26T08:18:05Z</time>
      </trkpt>
      <trkpt lat="46.06977" lon="6.77191">
        <ele>1596.9</ele>
        <time>2026-06-26T08:18:06Z</time>
      </trkpt>
      <trkpt lat="46.06977" lon="6.77192">
        <ele>1597</ele>
        <time>2026-06-26T08:18:07Z</time>
      </trkpt>
      <trkpt lat="46.06977" lon="6.77193">
        <ele>1597.1</ele>
        <time>2026-06-26T08:18:08Z</time>
      </trkpt>
      <trkpt lat="46.06978" lon="6.77193">
        <ele>1597.4</ele>
        <time>2026-06-26T08:18:09Z</time>
      </trkpt>
      <trkpt lat="46.06977" lon="6.77194">
        <ele>1597.6</ele>
        <time>2026-06-26T08:18:10Z</time>
      </trkpt>
      <trkpt lat="46.06977" lon="6.77195">
        <ele>1597.9</ele>
        <time>2026-06-26T08:18:11Z</time>
      </trkpt>
      <trkpt lat="46.06977" lon="6.77195">
        <ele>1598.1</ele>
        <time>2026-06-26T08:18:12Z</time>
      </trkpt>
      <trkpt lat="46.06976" lon="6.77196">
        <ele>1598.3</ele>
        <time>2026-06-26T08:18:13Z</time>
      </trkpt>
      <trkpt lat="46.06975" lon="6.77197">
        <ele>1598.5</ele>
        <time>2026-06-26T08:18:14Z</time>
      </trkpt>
      <trkpt lat="46.06975" lon="6.77198">
        <ele>1598.6</ele>
        <time>2026-06-26T08:18:15Z</time>
      </trkpt>
      <trkpt lat="46.06975" lon="6.77199">
        <ele>1598.7</ele>
        <time>2026-06-26T08:18:16Z</time>
      </trkpt>
      <trkpt lat="46.06976" lon="6.77201">
        <ele>1598.8</ele>
        <time>2026-06-26T08:18:17Z</time>
      </trkpt>
      <trkpt lat="46.06976" lon="6.77202">
        <ele>1599</ele>
        <time>2026-06-26T08:18:18Z</time>
      </trkpt>
      <trkpt lat="46.06976" lon="6.77203">
        <ele>1599.1</ele>
        <time>2026-06-26T08:18:19Z</time>
      </trkpt>
      <trkpt lat="46.06977" lon="6.77204">
        <ele>1599.3</ele>
        <time>2026-06-26T08:18:20Z</time>
      </trkpt>
      <trkpt lat="46.06977" lon="6.77204">
        <ele>1599.5</ele>
        <time>2026-06-26T08:18:21Z</time>
      </trkpt>
      <trkpt lat="46.06978" lon="6.77205">
        <ele>1599.5</ele>
        <time>2026-06-26T08:18:22Z</time>
      </trkpt>
      <trkpt lat="46.06978" lon="6.77206">
        <ele>1599.6</ele>
        <time>2026-06-26T08:18:23Z</time>
      </trkpt>
      <trkpt lat="46.06978" lon="6.77206">
        <ele>1599.7</ele>
        <time>2026-06-26T08:18:24Z</time>
      </trkpt>
      <trkpt lat="46.06978" lon="6.77207">
        <ele>1599.9</ele>
        <time>2026-06-26T08:18:25Z</time>
      </trkpt>
      <trkpt lat="46.06978" lon="6.77207">
        <ele>1600</ele>
        <time>2026-06-26T08:18:26Z</time>
      </trkpt>
      <trkpt lat="46.06978" lon="6.77208">
        <ele>1600.2</ele>
        <time>2026-06-26T08:18:27Z</time>
      </trkpt>
      <trkpt lat="46.06979" lon="6.77209">
        <ele>1600.4</ele>
        <time>2026-06-26T08:18:28Z</time>
      </trkpt>
      <trkpt lat="46.06979" lon="6.77209">
        <ele>1600.6</ele>
        <time>2026-06-26T08:18:29Z</time>
      </trkpt>
      <trkpt lat="46.0698" lon="6.7721">
        <ele>1600.7</ele>
        <time>2026-06-26T08:18:30Z</time>
      </trkpt>
      <trkpt lat="46.0698" lon="6.7721">
        <ele>1600.9</ele>
        <time>2026-06-26T08:18:31Z</time>
      </trkpt>
      <trkpt lat="46.06981" lon="6.7721">
        <ele>1601.1</ele>
        <time>2026-06-26T08:18:32Z</time>
      </trkpt>
      <trkpt lat="46.06982" lon="6.77211">
        <ele>1601.2</ele>
        <time>2026-06-26T08:18:33Z</time>
      </trkpt>
      <trkpt lat="46.06982" lon="6.77211">
        <ele>1601.5</ele>
        <time>2026-06-26T08:18:34Z</time>
      </trkpt>
      <trkpt lat="46.06983" lon="6.77212">
        <ele>1601.6</ele>
        <time>2026-06-26T08:18:35Z</time>
      </trkpt>
      <trkpt lat="46.06983" lon="6.77213">
        <ele>1601.9</ele>
        <time>2026-06-26T08:18:36Z</time>
      </trkpt>
      <trkpt lat="46.06983" lon="6.77213">
        <ele>1602.1</ele>
        <time>2026-06-26T08:18:37Z</time>
      </trkpt>
      <trkpt lat="46.06983" lon="6.77213">
        <ele>1602.4</ele>
        <time>2026-06-26T08:18:38Z</time>
      </trkpt>
      <trkpt lat="46.06984" lon="6.77214">
        <ele>1602.7</ele>
        <time>2026-06-26T08:18:39Z</time>
      </trkpt>
      <trkpt lat="46.06985" lon="6.77215">
        <ele>1603</ele>
        <time>2026-06-26T08:18:40Z</time>
      </trkpt>
      <trkpt lat="46.06986" lon="6.77215">
        <ele>1603.2</ele>
        <time>2026-06-26T08:18:41Z</time>
      </trkpt>
      <trkpt lat="46.06986" lon="6.77216">
        <ele>1603.4</ele>
        <time>2026-06-26T08:18:42Z</time>
      </trkpt>
      <trkpt lat="46.06987" lon="6.77216">
        <ele>1603.6</ele>
        <time>2026-06-26T08:18:43Z</time>
      </trkpt>
      <trkpt lat="46.06987" lon="6.77216">
        <ele>1603.8</ele>
        <time>2026-06-26T08:18:44Z</time>
      </trkpt>
      <trkpt lat="46.06987" lon="6.77217">
        <ele>1603.9</ele>
        <time>2026-06-26T08:18:45Z</time>
      </trkpt>
      <trkpt lat="46.06987" lon="6.77218">
        <ele>1604.1</ele>
        <time>2026-06-26T08:18:46Z</time>
      </trkpt>
      <trkpt lat="46.06988" lon="6.77218">
        <ele>1604.2</ele>
        <time>2026-06-26T08:18:47Z</time>
      </trkpt>
      <trkpt lat="46.06989" lon="6.77218">
        <ele>1604.4</ele>
        <time>2026-06-26T08:18:48Z</time>
      </trkpt>
      <trkpt lat="46.0699" lon="6.77218">
        <ele>1604.5</ele>
        <time>2026-06-26T08:18:49Z</time>
      </trkpt>
      <trkpt lat="46.0699" lon="6.77218">
        <ele>1604.6</ele>
        <time>2026-06-26T08:18:50Z</time>
      </trkpt>
      <trkpt lat="46.0699" lon="6.77218">
        <ele>1604.8</ele>
        <time>2026-06-26T08:18:51Z</time>
      </trkpt>
      <trkpt lat="46.0699" lon="6.77218">
        <ele>1605</ele>
        <time>2026-06-26T08:18:52Z</time>
      </trkpt>
      <trkpt lat="46.06989" lon="6.77218">
        <ele>1605.1</ele>
        <time>2026-06-26T08:18:53Z</time>
      </trkpt>
      <trkpt lat="46.06989" lon="6.77218">
        <ele>1605.1</ele>
        <time>2026-06-26T08:18:54Z</time>
      </trkpt>
      <trkpt lat="46.06989" lon="6.77219">
        <ele>1605.1</ele>
        <time>2026-06-26T08:18:55Z</time>
      </trkpt>
      <trkpt lat="46.06989" lon="6.77219">
        <ele>1605.1</ele>
        <time>2026-06-26T08:18:56Z</time>
      </trkpt>
      <trkpt lat="46.06989" lon="6.77219">
        <ele>1605.2</ele>
        <time>2026-06-26T08:18:57Z</time>
      </trkpt>
      <trkpt lat="46.06989" lon="6.77219">
        <ele>1605.2</ele>
        <time>2026-06-26T08:18:58Z</time>
      </trkpt>
      <trkpt lat="46.06989" lon="6.77219">
        <ele>1605.2</ele>
        <time>2026-06-26T08:18:59Z</time>
      </trkpt>
      <trkpt lat="46.06989" lon="6.77219">
        <ele>1605.1</ele>
        <time>2026-06-26T08:19:00Z</time>
      </trkpt>
      <trkpt lat="46.06989" lon="6.77219">
        <ele>1605.1</ele>
        <time>2026-06-26T08:19:01Z</time>
      </trkpt>
      <trkpt lat="46.0699" lon="6.77219">
        <ele>1605.1</ele>
        <time>2026-06-26T08:19:02Z</time>
      </trkpt>
      <trkpt lat="46.0699" lon="6.77219">
        <ele>1605.2</ele>
        <time>2026-06-26T08:19:03Z</time>
      </trkpt>
      <trkpt lat="46.06991" lon="6.77219">
        <ele>1605.4</ele>
        <time>2026-06-26T08:19:04Z</time>
      </trkpt>
      <trkpt lat="46.06992" lon="6.77219">
        <ele>1605.5</ele>
        <time>2026-06-26T08:19:05Z</time>
      </trkpt>
      <trkpt lat="46.06992" lon="6.77219">
        <ele>1605.5</ele>
        <time>2026-06-26T08:19:06Z</time>
      </trkpt>
      <trkpt lat="46.06992" lon="6.77219">
        <ele>1605.6</ele>
        <time>2026-06-26T08:19:07Z</time>
      </trkpt>
      <trkpt lat="46.06993" lon="6.7722">
        <ele>1605.7</ele>
        <time>2026-06-26T08:19:08Z</time>
      </trkpt>
      <trkpt lat="46.06994" lon="6.7722">
        <ele>1605.8</ele>
        <time>2026-06-26T08:19:09Z</time>
      </trkpt>
      <trkpt lat="46.06994" lon="6.77221">
        <ele>1605.9</ele>
        <time>2026-06-26T08:19:10Z</time>
      </trkpt>
      <trkpt lat="46.06994" lon="6.77222">
        <ele>1606</ele>
        <time>2026-06-26T08:19:11Z</time>
      </trkpt>
      <trkpt lat="46.06995" lon="6.77222">
        <ele>1606</ele>
        <time>2026-06-26T08:19:12Z</time>
      </trkpt>
      <trkpt lat="46.06995" lon="6.77222">
        <ele>1606.1</ele>
        <time>2026-06-26T08:19:13Z</time>
      </trkpt>
      <trkpt lat="46.06996" lon="6.77223">
        <ele>1606.2</ele>
        <time>2026-06-26T08:19:14Z</time>
      </trkpt>
      <trkpt lat="46.06996" lon="6.77223">
        <ele>1606.4</ele>
        <time>2026-06-26T08:19:15Z</time>
      </trkpt>
      <trkpt lat="46.06996" lon="6.77223">
        <ele>1606.5</ele>
        <time>2026-06-26T08:19:16Z</time>
      </trkpt>
      <trkpt lat="46.06996" lon="6.77223">
        <ele>1606.7</ele>
        <time>2026-06-26T08:19:17Z</time>
      </trkpt>
      <trkpt lat="46.06997" lon="6.77224">
        <ele>1607</ele>
        <time>2026-06-26T08:19:18Z</time>
      </trkpt>
      <trkpt lat="46.06997" lon="6.77225">
        <ele>1607</ele>
        <time>2026-06-26T08:19:19Z</time>
      </trkpt>
      <trkpt lat="46.06997" lon="6.77226">
        <ele>1607.1</ele>
        <time>2026-06-26T08:19:20Z</time>
      </trkpt>
      <trkpt lat="46.06997" lon="6.77226">
        <ele>1607.2</ele>
        <time>2026-06-26T08:19:21Z</time>
      </trkpt>
      <trkpt lat="46.06998" lon="6.77227">
        <ele>1607.4</ele>
        <time>2026-06-26T08:19:22Z</time>
      </trkpt>
      <trkpt lat="46.06998" lon="6.77228">
        <ele>1607.6</ele>
        <time>2026-06-26T08:19:23Z</time>
      </trkpt>
      <trkpt lat="46.06999" lon="6.77228">
        <ele>1607.9</ele>
        <time>2026-06-26T08:19:24Z</time>
      </trkpt>
      <trkpt lat="46.06999" lon="6.77229">
        <ele>1608.2</ele>
        <time>2026-06-26T08:19:25Z</time>
      </trkpt>
      <trkpt lat="46.06999" lon="6.7723">
        <ele>1608.4</ele>
        <time>2026-06-26T08:19:26Z</time>
      </trkpt>
      <trkpt lat="46.06999" lon="6.77229">
        <ele>1608.6</ele>
        <time>2026-06-26T08:19:27Z</time>
      </trkpt>
      <trkpt lat="46.06999" lon="6.7723">
        <ele>1608.8</ele>
        <time>2026-06-26T08:19:28Z</time>
      </trkpt>
      <trkpt lat="46.06999" lon="6.7723">
        <ele>1609.1</ele>
        <time>2026-06-26T08:19:29Z</time>
      </trkpt>
      <trkpt lat="46.06999" lon="6.77231">
        <ele>1609.2</ele>
        <time>2026-06-26T08:19:30Z</time>
      </trkpt>
      <trkpt lat="46.07" lon="6.77231">
        <ele>1609.5</ele>
        <time>2026-06-26T08:19:31Z</time>
      </trkpt>
      <trkpt lat="46.07" lon="6.77232">
        <ele>1609.8</ele>
        <time>2026-06-26T08:19:32Z</time>
      </trkpt>
      <trkpt lat="46.07001" lon="6.77232">
        <ele>1610.1</ele>
        <time>2026-06-26T08:19:33Z</time>
      </trkpt>
      <trkpt lat="46.07002" lon="6.77232">
        <ele>1610.4</ele>
        <time>2026-06-26T08:19:34Z</time>
      </trkpt>
      <trkpt lat="46.07003" lon="6.77231">
        <ele>1610.6</ele>
        <time>2026-06-26T08:19:35Z</time>
      </trkpt>
      <trkpt lat="46.07004" lon="6.77231">
        <ele>1610.7</ele>
        <time>2026-06-26T08:19:36Z</time>
      </trkpt>
      <trkpt lat="46.07004" lon="6.77231">
        <ele>1611</ele>
        <time>2026-06-26T08:19:37Z</time>
      </trkpt>
      <trkpt lat="46.07004" lon="6.77232">
        <ele>1611.2</ele>
        <time>2026-06-26T08:19:38Z</time>
      </trkpt>
      <trkpt lat="46.07004" lon="6.77233">
        <ele>1611.5</ele>
        <time>2026-06-26T08:19:39Z</time>
      </trkpt>
      <trkpt lat="46.07003" lon="6.77234">
        <ele>1611.7</ele>
        <time>2026-06-26T08:19:40Z</time>
      </trkpt>
      <trkpt lat="46.07004" lon="6.77234">
        <ele>1611.9</ele>
        <time>2026-06-26T08:19:41Z</time>
      </trkpt>
      <trkpt lat="46.07005" lon="6.77235">
        <ele>1612.2</ele>
        <time>2026-06-26T08:19:42Z</time>
      </trkpt>
      <trkpt lat="46.07006" lon="6.77235">
        <ele>1612.4</ele>
        <time>2026-06-26T08:19:43Z</time>
      </trkpt>
      <trkpt lat="46.07007" lon="6.77235">
        <ele>1612.6</ele>
        <time>2026-06-26T08:19:44Z</time>
      </trkpt>
      <trkpt lat="46.07006" lon="6.77235">
        <ele>1612.8</ele>
        <time>2026-06-26T08:19:45Z</time>
      </trkpt>
      <trkpt lat="46.07007" lon="6.77235">
        <ele>1613</ele>
        <time>2026-06-26T08:19:46Z</time>
      </trkpt>
      <trkpt lat="46.07007" lon="6.77234">
        <ele>1613.1</ele>
        <time>2026-06-26T08:19:47Z</time>
      </trkpt>
      <trkpt lat="46.07008" lon="6.77235">
        <ele>1613.3</ele>
        <time>2026-06-26T08:19:48Z</time>
      </trkpt>
      <trkpt lat="46.07008" lon="6.77235">
        <ele>1613.5</ele>
        <time>2026-06-26T08:19:49Z</time>
      </trkpt>
      <trkpt lat="46.07009" lon="6.77235">
        <ele>1613.7</ele>
        <time>2026-06-26T08:19:50Z</time>
      </trkpt>
      <trkpt lat="46.07009" lon="6.77235">
        <ele>1613.9</ele>
        <time>2026-06-26T08:19:51Z</time>
      </trkpt>
      <trkpt lat="46.07009" lon="6.77235">
        <ele>1614.1</ele>
        <time>2026-06-26T08:19:52Z</time>
      </trkpt>
      <trkpt lat="46.0701" lon="6.77236">
        <ele>1614.3</ele>
        <time>2026-06-26T08:19:53Z</time>
      </trkpt>
      <trkpt lat="46.07011" lon="6.77235">
        <ele>1614.4</ele>
        <time>2026-06-26T08:19:54Z</time>
      </trkpt>
      <trkpt lat="46.07011" lon="6.77235">
        <ele>1614.5</ele>
        <time>2026-06-26T08:19:55Z</time>
      </trkpt>
      <trkpt lat="46.07012" lon="6.77235">
        <ele>1614.8</ele>
        <time>2026-06-26T08:19:56Z</time>
      </trkpt>
      <trkpt lat="46.07013" lon="6.77235">
        <ele>1615</ele>
        <time>2026-06-26T08:19:57Z</time>
      </trkpt>
      <trkpt lat="46.07013" lon="6.77235">
        <ele>1615.2</ele>
        <time>2026-06-26T08:19:58Z</time>
      </trkpt>
      <trkpt lat="46.07014" lon="6.77235">
        <ele>1615.4</ele>
        <time>2026-06-26T08:19:59Z</time>
      </trkpt>
      <trkpt lat="46.07014" lon="6.77235">
        <ele>1615.6</ele>
        <time>2026-06-26T08:20:00Z</time>
      </trkpt>
      <trkpt lat="46.07015" lon="6.77235">
        <ele>1615.8</ele>
        <time>2026-06-26T08:20:01Z</time>
      </trkpt>
      <trkpt lat="46.07016" lon="6.77235">
        <ele>1616</ele>
        <time>2026-06-26T08:20:02Z</time>
      </trkpt>
      <trkpt lat="46.07017" lon="6.77235">
        <ele>1616.1</ele>
        <time>2026-06-26T08:20:03Z</time>
      </trkpt>
      <trkpt lat="46.07018" lon="6.77235">
        <ele>1616.3</ele>
        <time>2026-06-26T08:20:04Z</time>
      </trkpt>
      <trkpt lat="46.07018" lon="6.77235">
        <ele>1616.5</ele>
        <time>2026-06-26T08:20:05Z</time>
      </trkpt>
      <trkpt lat="46.07019" lon="6.77235">
        <ele>1616.7</ele>
        <time>2026-06-26T08:20:06Z</time>
      </trkpt>
      <trkpt lat="46.07019" lon="6.77235">
        <ele>1616.8</ele>
        <time>2026-06-26T08:20:07Z</time>
      </trkpt>
      <trkpt lat="46.0702" lon="6.77236">
        <ele>1617</ele>
        <time>2026-06-26T08:20:08Z</time>
      </trkpt>
      <trkpt lat="46.0702" lon="6.77236">
        <ele>1617.1</ele>
        <time>2026-06-26T08:20:09Z</time>
      </trkpt>
      <trkpt lat="46.07021" lon="6.77236">
        <ele>1617.2</ele>
        <time>2026-06-26T08:20:10Z</time>
      </trkpt>
      <trkpt lat="46.07022" lon="6.77236">
        <ele>1617.3</ele>
        <time>2026-06-26T08:20:11Z</time>
      </trkpt>
      <trkpt lat="46.07022" lon="6.77236">
        <ele>1617.4</ele>
        <time>2026-06-26T08:20:12Z</time>
      </trkpt>
      <trkpt lat="46.07022" lon="6.77235">
        <ele>1617.5</ele>
        <time>2026-06-26T08:20:13Z</time>
      </trkpt>
      <trkpt lat="46.07023" lon="6.77235">
        <ele>1617.7</ele>
        <time>2026-06-26T08:20:14Z</time>
      </trkpt>
      <trkpt lat="46.07023" lon="6.77236">
        <ele>1617.8</ele>
        <time>2026-06-26T08:20:15Z</time>
      </trkpt>
      <trkpt lat="46.07023" lon="6.77235">
        <ele>1617.9</ele>
        <time>2026-06-26T08:20:16Z</time>
      </trkpt>
      <trkpt lat="46.07024" lon="6.77235">
        <ele>1617.9</ele>
        <time>2026-06-26T08:20:17Z</time>
      </trkpt>
      <trkpt lat="46.07025" lon="6.77235">
        <ele>1617.9</ele>
        <time>2026-06-26T08:20:18Z</time>
      </trkpt>
      <trkpt lat="46.07025" lon="6.77235">
        <ele>1618</ele>
        <time>2026-06-26T08:20:19Z</time>
      </trkpt>
      <trkpt lat="46.07025" lon="6.77234">
        <ele>1618.1</ele>
        <time>2026-06-26T08:20:20Z</time>
      </trkpt>
      <trkpt lat="46.07026" lon="6.77234">
        <ele>1618.3</ele>
        <time>2026-06-26T08:20:21Z</time>
      </trkpt>
      <trkpt lat="46.07027" lon="6.77234">
        <ele>1618.5</ele>
        <time>2026-06-26T08:20:22Z</time>
      </trkpt>
      <trkpt lat="46.07028" lon="6.77233">
        <ele>1618.6</ele>
        <time>2026-06-26T08:20:23Z</time>
      </trkpt>
      <trkpt lat="46.07029" lon="6.77233">
        <ele>1618.7</ele>
        <time>2026-06-26T08:20:24Z</time>
      </trkpt>
      <trkpt lat="46.07029" lon="6.77234">
        <ele>1618.9</ele>
        <time>2026-06-26T08:20:25Z</time>
      </trkpt>
      <trkpt lat="46.0703" lon="6.77233">
        <ele>1619</ele>
        <time>2026-06-26T08:20:26Z</time>
      </trkpt>
      <trkpt lat="46.0703" lon="6.77233">
        <ele>1619.3</ele>
        <time>2026-06-26T08:20:27Z</time>
      </trkpt>
      <trkpt lat="46.0703" lon="6.77233">
        <ele>1619.4</ele>
        <time>2026-06-26T08:20:28Z</time>
      </trkpt>
      <trkpt lat="46.0703" lon="6.77235">
        <ele>1619.8</ele>
        <time>2026-06-26T08:20:29Z</time>
      </trkpt>
      <trkpt lat="46.0703" lon="6.77236">
        <ele>1620</ele>
        <time>2026-06-26T08:20:30Z</time>
      </trkpt>
      <trkpt lat="46.0703" lon="6.77237">
        <ele>1620.2</ele>
        <time>2026-06-26T08:20:31Z</time>
      </trkpt>
      <trkpt lat="46.0703" lon="6.77237">
        <ele>1620.5</ele>
        <time>2026-06-26T08:20:32Z</time>
      </trkpt>
      <trkpt lat="46.0703" lon="6.77238">
        <ele>1620.7</ele>
        <time>2026-06-26T08:20:33Z</time>
      </trkpt>
      <trkpt lat="46.0703" lon="6.77239">
        <ele>1621</ele>
        <time>2026-06-26T08:20:34Z</time>
      </trkpt>
      <trkpt lat="46.0703" lon="6.7724">
        <ele>1621.2</ele>
        <time>2026-06-26T08:20:35Z</time>
      </trkpt>
      <trkpt lat="46.07031" lon="6.7724">
        <ele>1621.4</ele>
        <time>2026-06-26T08:20:36Z</time>
      </trkpt>
      <trkpt lat="46.07031" lon="6.77241">
        <ele>1621.5</ele>
        <time>2026-06-26T08:20:37Z</time>
      </trkpt>
      <trkpt lat="46.07032" lon="6.77241">
        <ele>1621.8</ele>
        <time>2026-06-26T08:20:38Z</time>
      </trkpt>
      <trkpt lat="46.07032" lon="6.77241">
        <ele>1622</ele>
        <time>2026-06-26T08:20:39Z</time>
      </trkpt>
      <trkpt lat="46.07033" lon="6.7724">
        <ele>1622.2</ele>
        <time>2026-06-26T08:20:40Z</time>
      </trkpt>
      <trkpt lat="46.07034" lon="6.7724">
        <ele>1622.5</ele>
        <time>2026-06-26T08:20:41Z</time>
      </trkpt>
      <trkpt lat="46.07034" lon="6.77239">
        <ele>1622.8</ele>
        <time>2026-06-26T08:20:42Z</time>
      </trkpt>
      <trkpt lat="46.07034" lon="6.77237">
        <ele>1623.1</ele>
        <time>2026-06-26T08:20:43Z</time>
      </trkpt>
      <trkpt lat="46.07035" lon="6.77237">
        <ele>1623.3</ele>
        <time>2026-06-26T08:20:44Z</time>
      </trkpt>
      <trkpt lat="46.07035" lon="6.77237">
        <ele>1623.6</ele>
        <time>2026-06-26T08:20:45Z</time>
      </trkpt>
      <trkpt lat="46.07035" lon="6.77237">
        <ele>1623.8</ele>
        <time>2026-06-26T08:20:46Z</time>
      </trkpt>
      <trkpt lat="46.07034" lon="6.77238">
        <ele>1624</ele>
        <time>2026-06-26T08:20:47Z</time>
      </trkpt>
      <trkpt lat="46.07034" lon="6.77239">
        <ele>1624.3</ele>
        <time>2026-06-26T08:20:48Z</time>
      </trkpt>
      <trkpt lat="46.07034" lon="6.7724">
        <ele>1624.4</ele>
        <time>2026-06-26T08:20:49Z</time>
      </trkpt>
      <trkpt lat="46.07034" lon="6.7724">
        <ele>1624.6</ele>
        <time>2026-06-26T08:20:50Z</time>
      </trkpt>
      <trkpt lat="46.07034" lon="6.77241">
        <ele>1624.7</ele>
        <time>2026-06-26T08:20:51Z</time>
      </trkpt>
      <trkpt lat="46.07034" lon="6.77242">
        <ele>1624.9</ele>
        <time>2026-06-26T08:20:52Z</time>
      </trkpt>
      <trkpt lat="46.07034" lon="6.77242">
        <ele>1625</ele>
        <time>2026-06-26T08:20:53Z</time>
      </trkpt>
      <trkpt lat="46.07034" lon="6.77243">
        <ele>1625.1</ele>
        <time>2026-06-26T08:20:54Z</time>
      </trkpt>
      <trkpt lat="46.07033" lon="6.77244">
        <ele>1625.2</ele>
        <time>2026-06-26T08:20:55Z</time>
      </trkpt>
      <trkpt lat="46.07034" lon="6.77244">
        <ele>1625.6</ele>
        <time>2026-06-26T08:20:56Z</time>
      </trkpt>
      <trkpt lat="46.07034" lon="6.77244">
        <ele>1625.6</ele>
        <time>2026-06-26T08:20:57Z</time>
      </trkpt>
      <trkpt lat="46.07036" lon="6.77244">
        <ele>1625.7</ele>
        <time>2026-06-26T08:20:58Z</time>
      </trkpt>
      <trkpt lat="46.07037" lon="6.77244">
        <ele>1625.9</ele>
        <time>2026-06-26T08:20:59Z</time>
      </trkpt>
      <trkpt lat="46.07037" lon="6.77244">
        <ele>1626</ele>
        <time>2026-06-26T08:21:00Z</time>
      </trkpt>
      <trkpt lat="46.07038" lon="6.77244">
        <ele>1626.2</ele>
        <time>2026-06-26T08:21:01Z</time>
      </trkpt>
      <trkpt lat="46.07039" lon="6.77244">
        <ele>1626.3</ele>
        <time>2026-06-26T08:21:02Z</time>
      </trkpt>
      <trkpt lat="46.07039" lon="6.77244">
        <ele>1626.4</ele>
        <time>2026-06-26T08:21:03Z</time>
      </trkpt>
      <trkpt lat="46.07039" lon="6.77245">
        <ele>1626.6</ele>
        <time>2026-06-26T08:21:04Z</time>
      </trkpt>
      <trkpt lat="46.07039" lon="6.77245">
        <ele>1626.8</ele>
        <time>2026-06-26T08:21:05Z</time>
      </trkpt>
      <trkpt lat="46.07039" lon="6.77246">
        <ele>1627</ele>
        <time>2026-06-26T08:21:06Z</time>
      </trkpt>
      <trkpt lat="46.07039" lon="6.77246">
        <ele>1627.3</ele>
        <time>2026-06-26T08:21:07Z</time>
      </trkpt>
      <trkpt lat="46.07039" lon="6.77247">
        <ele>1627.5</ele>
        <time>2026-06-26T08:21:08Z</time>
      </trkpt>
      <trkpt lat="46.07039" lon="6.77248">
        <ele>1627.7</ele>
        <time>2026-06-26T08:21:09Z</time>
      </trkpt>
      <trkpt lat="46.07039" lon="6.77248">
        <ele>1627.9</ele>
        <time>2026-06-26T08:21:10Z</time>
      </trkpt>
      <trkpt lat="46.07038" lon="6.77249">
        <ele>1628.1</ele>
        <time>2026-06-26T08:21:11Z</time>
      </trkpt>
      <trkpt lat="46.07038" lon="6.7725">
        <ele>1628.2</ele>
        <time>2026-06-26T08:21:12Z</time>
      </trkpt>
      <trkpt lat="46.07038" lon="6.7725">
        <ele>1628.4</ele>
        <time>2026-06-26T08:21:13Z</time>
      </trkpt>
      <trkpt lat="46.07038" lon="6.77251">
        <ele>1628.6</ele>
        <time>2026-06-26T08:21:14Z</time>
      </trkpt>
      <trkpt lat="46.07038" lon="6.77251">
        <ele>1628.7</ele>
        <time>2026-06-26T08:21:15Z</time>
      </trkpt>
      <trkpt lat="46.07038" lon="6.77251">
        <ele>1628.9</ele>
        <time>2026-06-26T08:21:16Z</time>
      </trkpt>
      <trkpt lat="46.07038" lon="6.77252">
        <ele>1629.2</ele>
        <time>2026-06-26T08:21:17Z</time>
      </trkpt>
      <trkpt lat="46.07037" lon="6.77254">
        <ele>1629.3</ele>
        <time>2026-06-26T08:21:18Z</time>
      </trkpt>
      <trkpt lat="46.07037" lon="6.77254">
        <ele>1629.6</ele>
        <time>2026-06-26T08:21:19Z</time>
      </trkpt>
      <trkpt lat="46.07037" lon="6.77255">
        <ele>1629.8</ele>
        <time>2026-06-26T08:21:20Z</time>
      </trkpt>
      <trkpt lat="46.07037" lon="6.77255">
        <ele>1629.8</ele>
        <time>2026-06-26T08:21:21Z</time>
      </trkpt>
      <trkpt lat="46.07037" lon="6.77255">
        <ele>1630</ele>
        <time>2026-06-26T08:21:22Z</time>
      </trkpt>
      <trkpt lat="46.07037" lon="6.77256">
        <ele>1630.1</ele>
        <time>2026-06-26T08:21:23Z</time>
      </trkpt>
      <trkpt lat="46.07037" lon="6.77257">
        <ele>1630.2</ele>
        <time>2026-06-26T08:21:24Z</time>
      </trkpt>
      <trkpt lat="46.07036" lon="6.77258">
        <ele>1630.4</ele>
        <time>2026-06-26T08:21:25Z</time>
      </trkpt>
      <trkpt lat="46.07036" lon="6.77258">
        <ele>1630.5</ele>
        <time>2026-06-26T08:21:26Z</time>
      </trkpt>
      <trkpt lat="46.07036" lon="6.77259">
        <ele>1630.6</ele>
        <time>2026-06-26T08:21:27Z</time>
      </trkpt>
      <trkpt lat="46.07035" lon="6.77259">
        <ele>1630.8</ele>
        <time>2026-06-26T08:21:28Z</time>
      </trkpt>
      <trkpt lat="46.07035" lon="6.7726">
        <ele>1630.9</ele>
        <time>2026-06-26T08:21:29Z</time>
      </trkpt>
      <trkpt lat="46.07035" lon="6.77262">
        <ele>1630.9</ele>
        <time>2026-06-26T08:21:30Z</time>
      </trkpt>
      <trkpt lat="46.07034" lon="6.77262">
        <ele>1630.9</ele>
        <time>2026-06-26T08:21:31Z</time>
      </trkpt>
      <trkpt lat="46.07034" lon="6.77263">
        <ele>1630.9</ele>
        <time>2026-06-26T08:21:32Z</time>
      </trkpt>
      <trkpt lat="46.07033" lon="6.77263">
        <ele>1631</ele>
        <time>2026-06-26T08:21:33Z</time>
      </trkpt>
      <trkpt lat="46.07033" lon="6.77264">
        <ele>1631</ele>
        <time>2026-06-26T08:21:34Z</time>
      </trkpt>
      <trkpt lat="46.07032" lon="6.77265">
        <ele>1631.1</ele>
        <time>2026-06-26T08:21:35Z</time>
      </trkpt>
      <trkpt lat="46.07032" lon="6.77266">
        <ele>1631.2</ele>
        <time>2026-06-26T08:21:36Z</time>
      </trkpt>
      <trkpt lat="46.0703" lon="6.77267">
        <ele>1631.2</ele>
        <time>2026-06-26T08:21:37Z</time>
      </trkpt>
      <trkpt lat="46.0703" lon="6.77268">
        <ele>1631.2</ele>
        <time>2026-06-26T08:21:38Z</time>
      </trkpt>
      <trkpt lat="46.07029" lon="6.77269">
        <ele>1631.2</ele>
        <time>2026-06-26T08:21:39Z</time>
      </trkpt>
      <trkpt lat="46.07028" lon="6.77269">
        <ele>1631.2</ele>
        <time>2026-06-26T08:21:40Z</time>
      </trkpt>
      <trkpt lat="46.07028" lon="6.7727">
        <ele>1631.2</ele>
        <time>2026-06-26T08:21:41Z</time>
      </trkpt>
      <trkpt lat="46.07027" lon="6.77271">
        <ele>1631.3</ele>
        <time>2026-06-26T08:21:42Z</time>
      </trkpt>
      <trkpt lat="46.07026" lon="6.77272">
        <ele>1631.4</ele>
        <time>2026-06-26T08:21:43Z</time>
      </trkpt>
      <trkpt lat="46.07026" lon="6.77273">
        <ele>1631.5</ele>
        <time>2026-06-26T08:21:44Z</time>
      </trkpt>
      <trkpt lat="46.07025" lon="6.77274">
        <ele>1631.6</ele>
        <time>2026-06-26T08:21:45Z</time>
      </trkpt>
      <trkpt lat="46.07025" lon="6.77275">
        <ele>1631.6</ele>
        <time>2026-06-26T08:21:46Z</time>
      </trkpt>
      <trkpt lat="46.07026" lon="6.77277">
        <ele>1631.6</ele>
        <time>2026-06-26T08:21:47Z</time>
      </trkpt>
      <trkpt lat="46.07027" lon="6.77279">
        <ele>1631.7</ele>
        <time>2026-06-26T08:21:48Z</time>
      </trkpt>
      <trkpt lat="46.07028" lon="6.7728">
        <ele>1632</ele>
        <time>2026-06-26T08:21:49Z</time>
      </trkpt>
      <trkpt lat="46.07029" lon="6.77281">
        <ele>1632.3</ele>
        <time>2026-06-26T08:21:50Z</time>
      </trkpt>
      <trkpt lat="46.0703" lon="6.77282">
        <ele>1632.5</ele>
        <time>2026-06-26T08:21:51Z</time>
      </trkpt>
      <trkpt lat="46.07031" lon="6.77283">
        <ele>1632.6</ele>
        <time>2026-06-26T08:21:52Z</time>
      </trkpt>
      <trkpt lat="46.07032" lon="6.77282">
        <ele>1632.8</ele>
        <time>2026-06-26T08:21:53Z</time>
      </trkpt>
      <trkpt lat="46.07033" lon="6.77282">
        <ele>1632.9</ele>
        <time>2026-06-26T08:21:54Z</time>
      </trkpt>
      <trkpt lat="46.07033" lon="6.77282">
        <ele>1633</ele>
        <time>2026-06-26T08:21:55Z</time>
      </trkpt>
      <trkpt lat="46.07034" lon="6.77283">
        <ele>1633.4</ele>
        <time>2026-06-26T08:21:56Z</time>
      </trkpt>
      <trkpt lat="46.07034" lon="6.77283">
        <ele>1633.6</ele>
        <time>2026-06-26T08:21:57Z</time>
      </trkpt>
      <trkpt lat="46.07034" lon="6.77284">
        <ele>1633.8</ele>
        <time>2026-06-26T08:21:58Z</time>
      </trkpt>
      <trkpt lat="46.07035" lon="6.77284">
        <ele>1634</ele>
        <time>2026-06-26T08:21:59Z</time>
      </trkpt>
      <trkpt lat="46.07034" lon="6.77284">
        <ele>1634.2</ele>
        <time>2026-06-26T08:22:00Z</time>
      </trkpt>
      <trkpt lat="46.07034" lon="6.77285">
        <ele>1634.4</ele>
        <time>2026-06-26T08:22:01Z</time>
      </trkpt>
      <trkpt lat="46.07033" lon="6.77286">
        <ele>1634.6</ele>
        <time>2026-06-26T08:22:02Z</time>
      </trkpt>
      <trkpt lat="46.07033" lon="6.77286">
        <ele>1634.8</ele>
        <time>2026-06-26T08:22:03Z</time>
      </trkpt>
      <trkpt lat="46.07033" lon="6.77287">
        <ele>1634.9</ele>
        <time>2026-06-26T08:22:04Z</time>
      </trkpt>
      <trkpt lat="46.07033" lon="6.77288">
        <ele>1635.2</ele>
        <time>2026-06-26T08:22:05Z</time>
      </trkpt>
      <trkpt lat="46.07032" lon="6.77289">
        <ele>1635.4</ele>
        <time>2026-06-26T08:22:06Z</time>
      </trkpt>
      <trkpt lat="46.07032" lon="6.7729">
        <ele>1635.5</ele>
        <time>2026-06-26T08:22:07Z</time>
      </trkpt>
      <trkpt lat="46.07033" lon="6.77291">
        <ele>1635.7</ele>
        <time>2026-06-26T08:22:08Z</time>
      </trkpt>
      <trkpt lat="46.07034" lon="6.77291">
        <ele>1635.9</ele>
        <time>2026-06-26T08:22:09Z</time>
      </trkpt>
      <trkpt lat="46.07034" lon="6.77291">
        <ele>1636</ele>
        <time>2026-06-26T08:22:10Z</time>
      </trkpt>
      <trkpt lat="46.07035" lon="6.7729">
        <ele>1636.3</ele>
        <time>2026-06-26T08:22:11Z</time>
      </trkpt>
      <trkpt lat="46.07037" lon="6.7729">
        <ele>1636.5</ele>
        <time>2026-06-26T08:22:12Z</time>
      </trkpt>
      <trkpt lat="46.07038" lon="6.7729">
        <ele>1636.6</ele>
        <time>2026-06-26T08:22:13Z</time>
      </trkpt>
      <trkpt lat="46.07038" lon="6.77291">
        <ele>1636.8</ele>
        <time>2026-06-26T08:22:14Z</time>
      </trkpt>
      <trkpt lat="46.07039" lon="6.77291">
        <ele>1637</ele>
        <time>2026-06-26T08:22:15Z</time>
      </trkpt>
      <trkpt lat="46.0704" lon="6.7729">
        <ele>1637.2</ele>
        <time>2026-06-26T08:22:16Z</time>
      </trkpt>
      <trkpt lat="46.07041" lon="6.7729">
        <ele>1637.4</ele>
        <time>2026-06-26T08:22:17Z</time>
      </trkpt>
      <trkpt lat="46.07042" lon="6.7729">
        <ele>1637.6</ele>
        <time>2026-06-26T08:22:18Z</time>
      </trkpt>
      <trkpt lat="46.07042" lon="6.7729">
        <ele>1637.9</ele>
        <time>2026-06-26T08:22:19Z</time>
      </trkpt>
      <trkpt lat="46.07044" lon="6.77289">
        <ele>1638.2</ele>
        <time>2026-06-26T08:22:20Z</time>
      </trkpt>
      <trkpt lat="46.07044" lon="6.77289">
        <ele>1638.5</ele>
        <time>2026-06-26T08:22:21Z</time>
      </trkpt>
      <trkpt lat="46.07045" lon="6.77289">
        <ele>1638.7</ele>
        <time>2026-06-26T08:22:22Z</time>
      </trkpt>
      <trkpt lat="46.07046" lon="6.77289">
        <ele>1639</ele>
        <time>2026-06-26T08:22:23Z</time>
      </trkpt>
      <trkpt lat="46.07046" lon="6.77288">
        <ele>1639.1</ele>
        <time>2026-06-26T08:22:24Z</time>
      </trkpt>
      <trkpt lat="46.07047" lon="6.77289">
        <ele>1639.3</ele>
        <time>2026-06-26T08:22:25Z</time>
      </trkpt>
      <trkpt lat="46.07047" lon="6.77289">
        <ele>1639.5</ele>
        <time>2026-06-26T08:22:26Z</time>
      </trkpt>
      <trkpt lat="46.07048" lon="6.77289">
        <ele>1639.6</ele>
        <time>2026-06-26T08:22:27Z</time>
      </trkpt>
      <trkpt lat="46.07049" lon="6.77289">
        <ele>1639.8</ele>
        <time>2026-06-26T08:22:28Z</time>
      </trkpt>
      <trkpt lat="46.07049" lon="6.77289">
        <ele>1640</ele>
        <time>2026-06-26T08:22:29Z</time>
      </trkpt>
      <trkpt lat="46.0705" lon="6.77288">
        <ele>1640.2</ele>
        <time>2026-06-26T08:22:30Z</time>
      </trkpt>
      <trkpt lat="46.0705" lon="6.77288">
        <ele>1640.3</ele>
        <time>2026-06-26T08:22:31Z</time>
      </trkpt>
      <trkpt lat="46.0705" lon="6.77288">
        <ele>1640.4</ele>
        <time>2026-06-26T08:22:32Z</time>
      </trkpt>
      <trkpt lat="46.0705" lon="6.77288">
        <ele>1640.5</ele>
        <time>2026-06-26T08:22:33Z</time>
      </trkpt>
      <trkpt lat="46.0705" lon="6.77289">
        <ele>1640.6</ele>
        <time>2026-06-26T08:22:34Z</time>
      </trkpt>
      <trkpt lat="46.0705" lon="6.77289">
        <ele>1640.6</ele>
        <time>2026-06-26T08:22:35Z</time>
      </trkpt>
      <trkpt lat="46.07049" lon="6.77289">
        <ele>1640.7</ele>
        <time>2026-06-26T08:22:36Z</time>
      </trkpt>
      <trkpt lat="46.07049" lon="6.77289">
        <ele>1640.8</ele>
        <time>2026-06-26T08:22:37Z</time>
      </trkpt>
      <trkpt lat="46.07049" lon="6.77289">
        <ele>1640.8</ele>
        <time>2026-06-26T08:22:38Z</time>
      </trkpt>
      <trkpt lat="46.07049" lon="6.77289">
        <ele>1640.8</ele>
        <time>2026-06-26T08:22:39Z</time>
      </trkpt>
      <trkpt lat="46.07048" lon="6.77289">
        <ele>1640.8</ele>
        <time>2026-06-26T08:22:40Z</time>
      </trkpt>
      <trkpt lat="46.07048" lon="6.77289">
        <ele>1640.8</ele>
        <time>2026-06-26T08:22:41Z</time>
      </trkpt>
      <trkpt lat="46.07048" lon="6.77289">
        <ele>1640.8</ele>
        <time>2026-06-26T08:22:42Z</time>
      </trkpt>
      <trkpt lat="46.07048" lon="6.77289">
        <ele>1640.8</ele>
        <time>2026-06-26T08:22:43Z</time>
      </trkpt>
      <trkpt lat="46.07048" lon="6.77289">
        <ele>1640.8</ele>
        <time>2026-06-26T08:22:44Z</time>
      </trkpt>
      <trkpt lat="46.07048" lon="6.77289">
        <ele>1640.8</ele>
        <time>2026-06-26T08:22:45Z</time>
      </trkpt>
      <trkpt lat="46.07048" lon="6.77289">
        <ele>1640.9</ele>
        <time>2026-06-26T08:22:46Z</time>
      </trkpt>
      <trkpt lat="46.07048" lon="6.77289">
        <ele>1640.9</ele>
        <time>2026-06-26T08:22:47Z</time>
      </trkpt>
      <trkpt lat="46.07048" lon="6.77288">
        <ele>1641</ele>
        <time>2026-06-26T08:22:48Z</time>
      </trkpt>
      <trkpt lat="46.07048" lon="6.77289">
        <ele>1640.9</ele>
        <time>2026-06-26T08:22:49Z</time>
      </trkpt>
      <trkpt lat="46.07048" lon="6.77288">
        <ele>1640.9</ele>
        <time>2026-06-26T08:22:50Z</time>
      </trkpt>
      <trkpt lat="46.07048" lon="6.77288">
        <ele>1640.9</ele>
        <time>2026-06-26T08:22:51Z</time>
      </trkpt>
      <trkpt lat="46.07049" lon="6.77288">
        <ele>1640.9</ele>
        <time>2026-06-26T08:22:52Z</time>
      </trkpt>
      <trkpt lat="46.07049" lon="6.77288">
        <ele>1640.9</ele>
        <time>2026-06-26T08:22:53Z</time>
      </trkpt>
      <trkpt lat="46.0705" lon="6.77288">
        <ele>1640.8</ele>
        <time>2026-06-26T08:22:54Z</time>
      </trkpt>
      <trkpt lat="46.0705" lon="6.77288">
        <ele>1640.8</ele>
        <time>2026-06-26T08:22:55Z</time>
      </trkpt>
      <trkpt lat="46.0705" lon="6.77288">
        <ele>1640.8</ele>
        <time>2026-06-26T08:22:56Z</time>
      </trkpt>
      <trkpt lat="46.0705" lon="6.77287">
        <ele>1640.8</ele>
        <time>2026-06-26T08:22:57Z</time>
      </trkpt>
      <trkpt lat="46.07051" lon="6.77287">
        <ele>1640.8</ele>
        <time>2026-06-26T08:22:58Z</time>
      </trkpt>
      <trkpt lat="46.07051" lon="6.77287">
        <ele>1640.7</ele>
        <time>2026-06-26T08:22:59Z</time>
      </trkpt>
      <trkpt lat="46.07051" lon="6.77287">
        <ele>1640.7</ele>
        <time>2026-06-26T08:23:00Z</time>
      </trkpt>
      <trkpt lat="46.07052" lon="6.77287">
        <ele>1640.7</ele>
        <time>2026-06-26T08:23:01Z</time>
      </trkpt>
      <trkpt lat="46.07052" lon="6.77287">
        <ele>1640.7</ele>
        <time>2026-06-26T08:23:02Z</time>
      </trkpt>
      <trkpt lat="46.07052" lon="6.77287">
        <ele>1640.7</ele>
        <time>2026-06-26T08:23:03Z</time>
      </trkpt>
      <trkpt lat="46.07052" lon="6.77287">
        <ele>1640.7</ele>
        <time>2026-06-26T08:23:04Z</time>
      </trkpt>
      <trkpt lat="46.07052" lon="6.77286">
        <ele>1640.7</ele>
        <time>2026-06-26T08:23:05Z</time>
      </trkpt>
      <trkpt lat="46.07052" lon="6.77286">
        <ele>1640.7</ele>
        <time>2026-06-26T08:23:06Z</time>
      </trkpt>
      <trkpt lat="46.07052" lon="6.77286">
        <ele>1640.7</ele>
        <time>2026-06-26T08:23:07Z</time>
      </trkpt>
      <trkpt lat="46.07051" lon="6.77286">
        <ele>1640.7</ele>
        <time>2026-06-26T08:23:08Z</time>
      </trkpt>
      <trkpt lat="46.07051" lon="6.77286">
        <ele>1640.7</ele>
        <time>2026-06-26T08:23:09Z</time>
      </trkpt>
      <trkpt lat="46.07051" lon="6.77286">
        <ele>1640.7</ele>
        <time>2026-06-26T08:23:10Z</time>
      </trkpt>
      <trkpt lat="46.07051" lon="6.77286">
        <ele>1640.7</ele>
        <time>2026-06-26T08:23:11Z</time>
      </trkpt>
      <trkpt lat="46.07051" lon="6.77286">
        <ele>1640.8</ele>
        <time>2026-06-26T08:23:12Z</time>
      </trkpt>
      <trkpt lat="46.07051" lon="6.77285">
        <ele>1640.8</ele>
        <time>2026-06-26T08:23:13Z</time>
      </trkpt>
      <trkpt lat="46.07051" lon="6.77285">
        <ele>1640.9</ele>
        <time>2026-06-26T08:23:14Z</time>
      </trkpt>
      <trkpt lat="46.07051" lon="6.77285">
        <ele>1640.8</ele>
        <time>2026-06-26T08:23:15Z</time>
      </trkpt>
      <trkpt lat="46.07051" lon="6.77286">
        <ele>1640.8</ele>
        <time>2026-06-26T08:23:16Z</time>
      </trkpt>
      <trkpt lat="46.07051" lon="6.77286">
        <ele>1640.7</ele>
        <time>2026-06-26T08:23:17Z</time>
      </trkpt>
      <trkpt lat="46.07051" lon="6.77286">
        <ele>1640.8</ele>
        <time>2026-06-26T08:23:18Z</time>
      </trkpt>
      <trkpt lat="46.07051" lon="6.77286">
        <ele>1640.8</ele>
        <time>2026-06-26T08:23:19Z</time>
      </trkpt>
      <trkpt lat="46.07051" lon="6.77287">
        <ele>1640.8</ele>
        <time>2026-06-26T08:23:20Z</time>
      </trkpt>
      <trkpt lat="46.07051" lon="6.77287">
        <ele>1640.8</ele>
        <time>2026-06-26T08:23:21Z</time>
      </trkpt>
      <trkpt lat="46.07052" lon="6.77287">
        <ele>1640.7</ele>
        <time>2026-06-26T08:23:22Z</time>
      </trkpt>
      <trkpt lat="46.07053" lon="6.77287">
        <ele>1640.7</ele>
        <time>2026-06-26T08:23:23Z</time>
      </trkpt>
      <trkpt lat="46.07053" lon="6.77287">
        <ele>1640.5</ele>
        <time>2026-06-26T08:23:24Z</time>
      </trkpt>
      <trkpt lat="46.07054" lon="6.77287">
        <ele>1640.4</ele>
        <time>2026-06-26T08:23:25Z</time>
      </trkpt>
      <trkpt lat="46.07054" lon="6.77287">
        <ele>1640.3</ele>
        <time>2026-06-26T08:23:26Z</time>
      </trkpt>
      <trkpt lat="46.07055" lon="6.77288">
        <ele>1640.2</ele>
        <time>2026-06-26T08:23:27Z</time>
      </trkpt>
      <trkpt lat="46.07056" lon="6.77288">
        <ele>1640.2</ele>
        <time>2026-06-26T08:23:28Z</time>
      </trkpt>
      <trkpt lat="46.07057" lon="6.77288">
        <ele>1640.2</ele>
        <time>2026-06-26T08:23:29Z</time>
      </trkpt>
      <trkpt lat="46.07058" lon="6.77288">
        <ele>1640.2</ele>
        <time>2026-06-26T08:23:30Z</time>
      </trkpt>
      <trkpt lat="46.07059" lon="6.77289">
        <ele>1640.1</ele>
        <time>2026-06-26T08:23:31Z</time>
      </trkpt>
      <trkpt lat="46.0706" lon="6.77289">
        <ele>1640.2</ele>
        <time>2026-06-26T08:23:32Z</time>
      </trkpt>
      <trkpt lat="46.07061" lon="6.77288">
        <ele>1640.2</ele>
        <time>2026-06-26T08:23:33Z</time>
      </trkpt>
      <trkpt lat="46.07062" lon="6.77288">
        <ele>1640.2</ele>
        <time>2026-06-26T08:23:34Z</time>
      </trkpt>
      <trkpt lat="46.07063" lon="6.77288">
        <ele>1640.3</ele>
        <time>2026-06-26T08:23:35Z</time>
      </trkpt>
      <trkpt lat="46.07064" lon="6.77288">
        <ele>1640.3</ele>
        <time>2026-06-26T08:23:36Z</time>
      </trkpt>
      <trkpt lat="46.07064" lon="6.77288">
        <ele>1640.3</ele>
        <time>2026-06-26T08:23:37Z</time>
      </trkpt>
      <trkpt lat="46.07065" lon="6.77288">
        <ele>1640.3</ele>
        <time>2026-06-26T08:23:38Z</time>
      </trkpt>
      <trkpt lat="46.07066" lon="6.77288">
        <ele>1640.3</ele>
        <time>2026-06-26T08:23:39Z</time>
      </trkpt>
      <trkpt lat="46.07067" lon="6.77287">
        <ele>1640.3</ele>
        <time>2026-06-26T08:23:40Z</time>
      </trkpt>
      <trkpt lat="46.07067" lon="6.77287">
        <ele>1640.3</ele>
        <time>2026-06-26T08:23:41Z</time>
      </trkpt>
      <trkpt lat="46.07068" lon="6.77287">
        <ele>1640.3</ele>
        <time>2026-06-26T08:23:42Z</time>
      </trkpt>
      <trkpt lat="46.07069" lon="6.77286">
        <ele>1640.2</ele>
        <time>2026-06-26T08:23:43Z</time>
      </trkpt>
      <trkpt lat="46.07069" lon="6.77287">
        <ele>1640.3</ele>
        <time>2026-06-26T08:23:44Z</time>
      </trkpt>
      <trkpt lat="46.0707" lon="6.77287">
        <ele>1640.3</ele>
        <time>2026-06-26T08:23:45Z</time>
      </trkpt>
      <trkpt lat="46.0707" lon="6.77288">
        <ele>1640.4</ele>
        <time>2026-06-26T08:23:46Z</time>
      </trkpt>
      <trkpt lat="46.07071" lon="6.77287">
        <ele>1640.6</ele>
        <time>2026-06-26T08:23:47Z</time>
      </trkpt>
      <trkpt lat="46.07072" lon="6.77287">
        <ele>1640.8</ele>
        <time>2026-06-26T08:23:48Z</time>
      </trkpt>
      <trkpt lat="46.07073" lon="6.77286">
        <ele>1641</ele>
        <time>2026-06-26T08:23:49Z</time>
      </trkpt>
      <trkpt lat="46.07073" lon="6.77285">
        <ele>1641.1</ele>
        <time>2026-06-26T08:23:50Z</time>
      </trkpt>
      <trkpt lat="46.07074" lon="6.77284">
        <ele>1641.2</ele>
        <time>2026-06-26T08:23:51Z</time>
      </trkpt>
      <trkpt lat="46.07074" lon="6.77284">
        <ele>1641.4</ele>
        <time>2026-06-26T08:23:52Z</time>
      </trkpt>
      <trkpt lat="46.07074" lon="6.77283">
        <ele>1641.4</ele>
        <time>2026-06-26T08:23:53Z</time>
      </trkpt>
      <trkpt lat="46.07075" lon="6.77282">
        <ele>1641.5</ele>
        <time>2026-06-26T08:23:54Z</time>
      </trkpt>
      <trkpt lat="46.07075" lon="6.77281">
        <ele>1641.6</ele>
        <time>2026-06-26T08:23:55Z</time>
      </trkpt>
      <trkpt lat="46.07076" lon="6.77281">
        <ele>1641.6</ele>
        <time>2026-06-26T08:23:56Z</time>
      </trkpt>
      <trkpt lat="46.07076" lon="6.7728">
        <ele>1641.6</ele>
        <time>2026-06-26T08:23:57Z</time>
      </trkpt>
      <trkpt lat="46.07077" lon="6.7728">
        <ele>1641.7</ele>
        <time>2026-06-26T08:23:58Z</time>
      </trkpt>
      <trkpt lat="46.07077" lon="6.77279">
        <ele>1641.8</ele>
        <time>2026-06-26T08:23:59Z</time>
      </trkpt>
      <trkpt lat="46.07078" lon="6.77278">
        <ele>1642</ele>
        <time>2026-06-26T08:24:00Z</time>
      </trkpt>
      <trkpt lat="46.07079" lon="6.77278">
        <ele>1642</ele>
        <time>2026-06-26T08:24:01Z</time>
      </trkpt>
      <trkpt lat="46.07079" lon="6.77278">
        <ele>1642.1</ele>
        <time>2026-06-26T08:24:02Z</time>
      </trkpt>
      <trkpt lat="46.07079" lon="6.77277">
        <ele>1642.2</ele>
        <time>2026-06-26T08:24:03Z</time>
      </trkpt>
      <trkpt lat="46.0708" lon="6.77276">
        <ele>1642.3</ele>
        <time>2026-06-26T08:24:04Z</time>
      </trkpt>
      <trkpt lat="46.0708" lon="6.77274">
        <ele>1642.3</ele>
        <time>2026-06-26T08:24:05Z</time>
      </trkpt>
      <trkpt lat="46.0708" lon="6.77273">
        <ele>1642.1</ele>
        <time>2026-06-26T08:24:06Z</time>
      </trkpt>
      <trkpt lat="46.0708" lon="6.77273">
        <ele>1642.2</ele>
        <time>2026-06-26T08:24:07Z</time>
      </trkpt>
      <trkpt lat="46.0708" lon="6.77272">
        <ele>1642.3</ele>
        <time>2026-06-26T08:24:08Z</time>
      </trkpt>
      <trkpt lat="46.07081" lon="6.77271">
        <ele>1642.5</ele>
        <time>2026-06-26T08:24:09Z</time>
      </trkpt>
      <trkpt lat="46.07082" lon="6.77271">
        <ele>1642.6</ele>
        <time>2026-06-26T08:24:10Z</time>
      </trkpt>
      <trkpt lat="46.07082" lon="6.77269">
        <ele>1642.8</ele>
        <time>2026-06-26T08:24:11Z</time>
      </trkpt>
      <trkpt lat="46.07083" lon="6.77269">
        <ele>1643</ele>
        <time>2026-06-26T08:24:12Z</time>
      </trkpt>
      <trkpt lat="46.07084" lon="6.77268">
        <ele>1643.2</ele>
        <time>2026-06-26T08:24:13Z</time>
      </trkpt>
      <trkpt lat="46.07085" lon="6.77267">
        <ele>1643.4</ele>
        <time>2026-06-26T08:24:14Z</time>
      </trkpt>
      <trkpt lat="46.07085" lon="6.77266">
        <ele>1643.5</ele>
        <time>2026-06-26T08:24:15Z</time>
      </trkpt>
      <trkpt lat="46.07085" lon="6.77265">
        <ele>1643.6</ele>
        <time>2026-06-26T08:24:16Z</time>
      </trkpt>
      <trkpt lat="46.07085" lon="6.77264">
        <ele>1643.8</ele>
        <time>2026-06-26T08:24:17Z</time>
      </trkpt>
      <trkpt lat="46.07086" lon="6.77263">
        <ele>1643.9</ele>
        <time>2026-06-26T08:24:18Z</time>
      </trkpt>
      <trkpt lat="46.07086" lon="6.77262">
        <ele>1644</ele>
        <time>2026-06-26T08:24:19Z</time>
      </trkpt>
      <trkpt lat="46.07086" lon="6.77261">
        <ele>1644.1</ele>
        <time>2026-06-26T08:24:20Z</time>
      </trkpt>
      <trkpt lat="46.07086" lon="6.77259">
        <ele>1644.2</ele>
        <time>2026-06-26T08:24:21Z</time>
      </trkpt>
      <trkpt lat="46.07086" lon="6.77258">
        <ele>1644.3</ele>
        <time>2026-06-26T08:24:22Z</time>
      </trkpt>
      <trkpt lat="46.07087" lon="6.77257">
        <ele>1644.5</ele>
        <time>2026-06-26T08:24:23Z</time>
      </trkpt>
      <trkpt lat="46.07087" lon="6.77256">
        <ele>1644.5</ele>
        <time>2026-06-26T08:24:24Z</time>
      </trkpt>
      <trkpt lat="46.07087" lon="6.77254">
        <ele>1644.6</ele>
        <time>2026-06-26T08:24:25Z</time>
      </trkpt>
      <trkpt lat="46.07087" lon="6.77253">
        <ele>1644.7</ele>
        <time>2026-06-26T08:24:26Z</time>
      </trkpt>
      <trkpt lat="46.07087" lon="6.77252">
        <ele>1644.8</ele>
        <time>2026-06-26T08:24:27Z</time>
      </trkpt>
      <trkpt lat="46.07087" lon="6.77251">
        <ele>1644.9</ele>
        <time>2026-06-26T08:24:28Z</time>
      </trkpt>
      <trkpt lat="46.07088" lon="6.7725">
        <ele>1644.9</ele>
        <time>2026-06-26T08:24:29Z</time>
      </trkpt>
      <trkpt lat="46.07089" lon="6.77249">
        <ele>1645</ele>
        <time>2026-06-26T08:24:30Z</time>
      </trkpt>
      <trkpt lat="46.07089" lon="6.77248">
        <ele>1645.1</ele>
        <time>2026-06-26T08:24:31Z</time>
      </trkpt>
      <trkpt lat="46.07089" lon="6.77247">
        <ele>1645.1</ele>
        <time>2026-06-26T08:24:32Z</time>
      </trkpt>
      <trkpt lat="46.0709" lon="6.77246">
        <ele>1645.2</ele>
        <time>2026-06-26T08:24:33Z</time>
      </trkpt>
      <trkpt lat="46.0709" lon="6.77245">
        <ele>1645.2</ele>
        <time>2026-06-26T08:24:34Z</time>
      </trkpt>
      <trkpt lat="46.07091" lon="6.77244">
        <ele>1645.3</ele>
        <time>2026-06-26T08:24:35Z</time>
      </trkpt>
      <trkpt lat="46.07091" lon="6.77243">
        <ele>1645.6</ele>
        <time>2026-06-26T08:24:36Z</time>
      </trkpt>
      <trkpt lat="46.07092" lon="6.77242">
        <ele>1645.8</ele>
        <time>2026-06-26T08:24:37Z</time>
      </trkpt>
      <trkpt lat="46.07092" lon="6.77241">
        <ele>1645.9</ele>
        <time>2026-06-26T08:24:38Z</time>
      </trkpt>
      <trkpt lat="46.07092" lon="6.7724">
        <ele>1645.9</ele>
        <time>2026-06-26T08:24:39Z</time>
      </trkpt>
      <trkpt lat="46.07093" lon="6.77238">
        <ele>1646</ele>
        <time>2026-06-26T08:24:40Z</time>
      </trkpt>
      <trkpt lat="46.07093" lon="6.77237">
        <ele>1646</ele>
        <time>2026-06-26T08:24:41Z</time>
      </trkpt>
      <trkpt lat="46.07093" lon="6.77236">
        <ele>1646</ele>
        <time>2026-06-26T08:24:42Z</time>
      </trkpt>
      <trkpt lat="46.07095" lon="6.77235">
        <ele>1646</ele>
        <time>2026-06-26T08:24:43Z</time>
      </trkpt>
      <trkpt lat="46.07095" lon="6.77234">
        <ele>1646.1</ele>
        <time>2026-06-26T08:24:44Z</time>
      </trkpt>
      <trkpt lat="46.07096" lon="6.77232">
        <ele>1646.2</ele>
        <time>2026-06-26T08:24:45Z</time>
      </trkpt>
      <trkpt lat="46.07096" lon="6.77231">
        <ele>1646.3</ele>
        <time>2026-06-26T08:24:46Z</time>
      </trkpt>
      <trkpt lat="46.07097" lon="6.7723">
        <ele>1646.3</ele>
        <time>2026-06-26T08:24:47Z</time>
      </trkpt>
      <trkpt lat="46.07098" lon="6.77228">
        <ele>1646.4</ele>
        <time>2026-06-26T08:24:48Z</time>
      </trkpt>
      <trkpt lat="46.07098" lon="6.77228">
        <ele>1646.7</ele>
        <time>2026-06-26T08:24:49Z</time>
      </trkpt>
      <trkpt lat="46.07099" lon="6.77226">
        <ele>1646.9</ele>
        <time>2026-06-26T08:24:50Z</time>
      </trkpt>
      <trkpt lat="46.071" lon="6.77226">
        <ele>1647.1</ele>
        <time>2026-06-26T08:24:51Z</time>
      </trkpt>
      <trkpt lat="46.071" lon="6.77225">
        <ele>1647.3</ele>
        <time>2026-06-26T08:24:52Z</time>
      </trkpt>
      <trkpt lat="46.07101" lon="6.77224">
        <ele>1647.4</ele>
        <time>2026-06-26T08:24:53Z</time>
      </trkpt>
      <trkpt lat="46.07102" lon="6.77223">
        <ele>1647.7</ele>
        <time>2026-06-26T08:24:54Z</time>
      </trkpt>
      <trkpt lat="46.07103" lon="6.77221">
        <ele>1647.9</ele>
        <time>2026-06-26T08:24:55Z</time>
      </trkpt>
      <trkpt lat="46.07104" lon="6.7722">
        <ele>1648.1</ele>
        <time>2026-06-26T08:24:56Z</time>
      </trkpt>
      <trkpt lat="46.07105" lon="6.7722">
        <ele>1648.3</ele>
        <time>2026-06-26T08:24:57Z</time>
      </trkpt>
      <trkpt lat="46.07106" lon="6.77218">
        <ele>1648.4</ele>
        <time>2026-06-26T08:24:58Z</time>
      </trkpt>
      <trkpt lat="46.07106" lon="6.77217">
        <ele>1648.6</ele>
        <time>2026-06-26T08:24:59Z</time>
      </trkpt>
      <trkpt lat="46.07107" lon="6.77217">
        <ele>1648.9</ele>
        <time>2026-06-26T08:25:00Z</time>
      </trkpt>
      <trkpt lat="46.07107" lon="6.77216">
        <ele>1649.1</ele>
        <time>2026-06-26T08:25:01Z</time>
      </trkpt>
      <trkpt lat="46.07108" lon="6.77215">
        <ele>1649.2</ele>
        <time>2026-06-26T08:25:02Z</time>
      </trkpt>
      <trkpt lat="46.07109" lon="6.77215">
        <ele>1649.4</ele>
        <time>2026-06-26T08:25:03Z</time>
      </trkpt>
      <trkpt lat="46.0711" lon="6.77214">
        <ele>1649.6</ele>
        <time>2026-06-26T08:25:04Z</time>
      </trkpt>
      <trkpt lat="46.0711" lon="6.77214">
        <ele>1649.8</ele>
        <time>2026-06-26T08:25:05Z</time>
      </trkpt>
      <trkpt lat="46.0711" lon="6.77213">
        <ele>1650</ele>
        <time>2026-06-26T08:25:06Z</time>
      </trkpt>
      <trkpt lat="46.07111" lon="6.77213">
        <ele>1650.2</ele>
        <time>2026-06-26T08:25:07Z</time>
      </trkpt>
      <trkpt lat="46.07111" lon="6.77213">
        <ele>1650.4</ele>
        <time>2026-06-26T08:25:08Z</time>
      </trkpt>
      <trkpt lat="46.07112" lon="6.77213">
        <ele>1650.7</ele>
        <time>2026-06-26T08:25:09Z</time>
      </trkpt>
      <trkpt lat="46.07113" lon="6.77212">
        <ele>1650.9</ele>
        <time>2026-06-26T08:25:10Z</time>
      </trkpt>
      <trkpt lat="46.07113" lon="6.77212">
        <ele>1651.1</ele>
        <time>2026-06-26T08:25:11Z</time>
      </trkpt>
      <trkpt lat="46.07114" lon="6.77212">
        <ele>1651.3</ele>
        <time>2026-06-26T08:25:12Z</time>
      </trkpt>
      <trkpt lat="46.07114" lon="6.77212">
        <ele>1651.4</ele>
        <time>2026-06-26T08:25:13Z</time>
      </trkpt>
      <trkpt lat="46.07115" lon="6.77212">
        <ele>1651.6</ele>
        <time>2026-06-26T08:25:14Z</time>
      </trkpt>
      <trkpt lat="46.07115" lon="6.77212">
        <ele>1651.8</ele>
        <time>2026-06-26T08:25:15Z</time>
      </trkpt>
      <trkpt lat="46.07115" lon="6.77211">
        <ele>1651.9</ele>
        <time>2026-06-26T08:25:16Z</time>
      </trkpt>
      <trkpt lat="46.07116" lon="6.77211">
        <ele>1652.1</ele>
        <time>2026-06-26T08:25:17Z</time>
      </trkpt>
      <trkpt lat="46.07116" lon="6.7721">
        <ele>1652.2</ele>
        <time>2026-06-26T08:25:18Z</time>
      </trkpt>
      <trkpt lat="46.07117" lon="6.77209">
        <ele>1652.3</ele>
        <time>2026-06-26T08:25:19Z</time>
      </trkpt>
      <trkpt lat="46.07117" lon="6.77209">
        <ele>1652.3</ele>
        <time>2026-06-26T08:25:20Z</time>
      </trkpt>
      <trkpt lat="46.07118" lon="6.77209">
        <ele>1652.5</ele>
        <time>2026-06-26T08:25:21Z</time>
      </trkpt>
      <trkpt lat="46.07118" lon="6.77208">
        <ele>1652.7</ele>
        <time>2026-06-26T08:25:22Z</time>
      </trkpt>
      <trkpt lat="46.07118" lon="6.77209">
        <ele>1652.8</ele>
        <time>2026-06-26T08:25:23Z</time>
      </trkpt>
      <trkpt lat="46.07119" lon="6.77209">
        <ele>1653</ele>
        <time>2026-06-26T08:25:24Z</time>
      </trkpt>
      <trkpt lat="46.07119" lon="6.77209">
        <ele>1653.1</ele>
        <time>2026-06-26T08:25:25Z</time>
      </trkpt>
      <trkpt lat="46.07119" lon="6.77209">
        <ele>1653.3</ele>
        <time>2026-06-26T08:25:26Z</time>
      </trkpt>
      <trkpt lat="46.07119" lon="6.7721">
        <ele>1653.4</ele>
        <time>2026-06-26T08:25:27Z</time>
      </trkpt>
      <trkpt lat="46.07119" lon="6.7721">
        <ele>1653.5</ele>
        <time>2026-06-26T08:25:28Z</time>
      </trkpt>
      <trkpt lat="46.0712" lon="6.7721">
        <ele>1653.6</ele>
        <time>2026-06-26T08:25:29Z</time>
      </trkpt>
      <trkpt lat="46.0712" lon="6.7721">
        <ele>1653.8</ele>
        <time>2026-06-26T08:25:30Z</time>
      </trkpt>
      <trkpt lat="46.07121" lon="6.77209">
        <ele>1653.9</ele>
        <time>2026-06-26T08:25:31Z</time>
      </trkpt>
      <trkpt lat="46.07121" lon="6.77209">
        <ele>1654.2</ele>
        <time>2026-06-26T08:25:32Z</time>
      </trkpt>
      <trkpt lat="46.07121" lon="6.7721">
        <ele>1654.4</ele>
        <time>2026-06-26T08:25:33Z</time>
      </trkpt>
      <trkpt lat="46.07121" lon="6.7721">
        <ele>1654.5</ele>
        <time>2026-06-26T08:25:34Z</time>
      </trkpt>
      <trkpt lat="46.07121" lon="6.7721">
        <ele>1654.6</ele>
        <time>2026-06-26T08:25:35Z</time>
      </trkpt>
      <trkpt lat="46.07121" lon="6.77211">
        <ele>1654.7</ele>
        <time>2026-06-26T08:25:36Z</time>
      </trkpt>
      <trkpt lat="46.07121" lon="6.77211">
        <ele>1654.9</ele>
        <time>2026-06-26T08:25:37Z</time>
      </trkpt>
      <trkpt lat="46.07121" lon="6.77211">
        <ele>1655</ele>
        <time>2026-06-26T08:25:38Z</time>
      </trkpt>
      <trkpt lat="46.07121" lon="6.77212">
        <ele>1655.1</ele>
        <time>2026-06-26T08:25:39Z</time>
      </trkpt>
      <trkpt lat="46.07121" lon="6.77212">
        <ele>1655.3</ele>
        <time>2026-06-26T08:25:40Z</time>
      </trkpt>
      <trkpt lat="46.07121" lon="6.77213">
        <ele>1655.4</ele>
        <time>2026-06-26T08:25:41Z</time>
      </trkpt>
      <trkpt lat="46.07121" lon="6.77214">
        <ele>1655.6</ele>
        <time>2026-06-26T08:25:42Z</time>
      </trkpt>
      <trkpt lat="46.07121" lon="6.77215">
        <ele>1655.7</ele>
        <time>2026-06-26T08:25:43Z</time>
      </trkpt>
      <trkpt lat="46.07121" lon="6.77215">
        <ele>1655.9</ele>
        <time>2026-06-26T08:25:44Z</time>
      </trkpt>
      <trkpt lat="46.07122" lon="6.77216">
        <ele>1656</ele>
        <time>2026-06-26T08:25:45Z</time>
      </trkpt>
      <trkpt lat="46.07121" lon="6.77216">
        <ele>1656.2</ele>
        <time>2026-06-26T08:25:46Z</time>
      </trkpt>
      <trkpt lat="46.07122" lon="6.77217">
        <ele>1656.4</ele>
        <time>2026-06-26T08:25:47Z</time>
      </trkpt>
      <trkpt lat="46.07122" lon="6.77217">
        <ele>1656.4</ele>
        <time>2026-06-26T08:25:48Z</time>
      </trkpt>
      <trkpt lat="46.07122" lon="6.77218">
        <ele>1656.5</ele>
        <time>2026-06-26T08:25:49Z</time>
      </trkpt>
      <trkpt lat="46.07122" lon="6.77219">
        <ele>1656.6</ele>
        <time>2026-06-26T08:25:50Z</time>
      </trkpt>
      <trkpt lat="46.07122" lon="6.77219">
        <ele>1656.8</ele>
        <time>2026-06-26T08:25:51Z</time>
      </trkpt>
      <trkpt lat="46.07123" lon="6.7722">
        <ele>1657</ele>
        <time>2026-06-26T08:25:52Z</time>
      </trkpt>
      <trkpt lat="46.07123" lon="6.7722">
        <ele>1657.2</ele>
        <time>2026-06-26T08:25:53Z</time>
      </trkpt>
      <trkpt lat="46.07123" lon="6.77221">
        <ele>1657.3</ele>
        <time>2026-06-26T08:25:54Z</time>
      </trkpt>
      <trkpt lat="46.07123" lon="6.77221">
        <ele>1657.4</ele>
        <time>2026-06-26T08:25:55Z</time>
      </trkpt>
      <trkpt lat="46.07124" lon="6.77222">
        <ele>1657.5</ele>
        <time>2026-06-26T08:25:56Z</time>
      </trkpt>
      <trkpt lat="46.07124" lon="6.77222">
        <ele>1657.6</ele>
        <time>2026-06-26T08:25:57Z</time>
      </trkpt>
      <trkpt lat="46.07124" lon="6.77222">
        <ele>1657.7</ele>
        <time>2026-06-26T08:25:58Z</time>
      </trkpt>
      <trkpt lat="46.07124" lon="6.77222">
        <ele>1657.8</ele>
        <time>2026-06-26T08:25:59Z</time>
      </trkpt>
      <trkpt lat="46.07124" lon="6.77221">
        <ele>1658</ele>
        <time>2026-06-26T08:26:00Z</time>
      </trkpt>
      <trkpt lat="46.07124" lon="6.77221">
        <ele>1658.1</ele>
        <time>2026-06-26T08:26:01Z</time>
      </trkpt>
      <trkpt lat="46.07124" lon="6.77221">
        <ele>1658.3</ele>
        <time>2026-06-26T08:26:02Z</time>
      </trkpt>
      <trkpt lat="46.07124" lon="6.7722">
        <ele>1658.4</ele>
        <time>2026-06-26T08:26:03Z</time>
      </trkpt>
      <trkpt lat="46.07124" lon="6.7722">
        <ele>1658.4</ele>
        <time>2026-06-26T08:26:04Z</time>
      </trkpt>
      <trkpt lat="46.07124" lon="6.7722">
        <ele>1658.5</ele>
        <time>2026-06-26T08:26:05Z</time>
      </trkpt>
      <trkpt lat="46.07124" lon="6.7722">
        <ele>1658.5</ele>
        <time>2026-06-26T08:26:06Z</time>
      </trkpt>
      <trkpt lat="46.07124" lon="6.77222">
        <ele>1658.5</ele>
        <time>2026-06-26T08:26:07Z</time>
      </trkpt>
      <trkpt lat="46.07123" lon="6.77223">
        <ele>1658.6</ele>
        <time>2026-06-26T08:26:08Z</time>
      </trkpt>
      <trkpt lat="46.07123" lon="6.77224">
        <ele>1658.7</ele>
        <time>2026-06-26T08:26:09Z</time>
      </trkpt>
      <trkpt lat="46.07123" lon="6.77225">
        <ele>1658.9</ele>
        <time>2026-06-26T08:26:10Z</time>
      </trkpt>
      <trkpt lat="46.07123" lon="6.77225">
        <ele>1659.2</ele>
        <time>2026-06-26T08:26:11Z</time>
      </trkpt>
      <trkpt lat="46.07123" lon="6.77226">
        <ele>1659.4</ele>
        <time>2026-06-26T08:26:12Z</time>
      </trkpt>
      <trkpt lat="46.07123" lon="6.77226">
        <ele>1659.6</ele>
        <time>2026-06-26T08:26:13Z</time>
      </trkpt>
      <trkpt lat="46.07123" lon="6.77226">
        <ele>1659.7</ele>
        <time>2026-06-26T08:26:14Z</time>
      </trkpt>
      <trkpt lat="46.07123" lon="6.77227">
        <ele>1659.8</ele>
        <time>2026-06-26T08:26:15Z</time>
      </trkpt>
      <trkpt lat="46.07123" lon="6.77228">
        <ele>1660</ele>
        <time>2026-06-26T08:26:16Z</time>
      </trkpt>
      <trkpt lat="46.07123" lon="6.77228">
        <ele>1660.2</ele>
        <time>2026-06-26T08:26:17Z</time>
      </trkpt>
      <trkpt lat="46.07124" lon="6.77229">
        <ele>1660.6</ele>
        <time>2026-06-26T08:26:18Z</time>
      </trkpt>
      <trkpt lat="46.07124" lon="6.7723">
        <ele>1660.9</ele>
        <time>2026-06-26T08:26:19Z</time>
      </trkpt>
      <trkpt lat="46.07124" lon="6.77231">
        <ele>1661</ele>
        <time>2026-06-26T08:26:20Z</time>
      </trkpt>
      <trkpt lat="46.07124" lon="6.77232">
        <ele>1661.2</ele>
        <time>2026-06-26T08:26:21Z</time>
      </trkpt>
      <trkpt lat="46.07124" lon="6.77233">
        <ele>1661.3</ele>
        <time>2026-06-26T08:26:22Z</time>
      </trkpt>
      <trkpt lat="46.07124" lon="6.77234">
        <ele>1661.4</ele>
        <time>2026-06-26T08:26:23Z</time>
      </trkpt>
      <trkpt lat="46.07125" lon="6.77235">
        <ele>1661.4</ele>
        <time>2026-06-26T08:26:24Z</time>
      </trkpt>
      <trkpt lat="46.07125" lon="6.77236">
        <ele>1661.6</ele>
        <time>2026-06-26T08:26:25Z</time>
      </trkpt>
      <trkpt lat="46.07125" lon="6.77237">
        <ele>1661.8</ele>
        <time>2026-06-26T08:26:26Z</time>
      </trkpt>
      <trkpt lat="46.07125" lon="6.77237">
        <ele>1662</ele>
        <time>2026-06-26T08:26:27Z</time>
      </trkpt>
      <trkpt lat="46.07125" lon="6.77238">
        <ele>1662.1</ele>
        <time>2026-06-26T08:26:28Z</time>
      </trkpt>
      <trkpt lat="46.07125" lon="6.77239">
        <ele>1662.3</ele>
        <time>2026-06-26T08:26:29Z</time>
      </trkpt>
      <trkpt lat="46.07126" lon="6.7724">
        <ele>1662.6</ele>
        <time>2026-06-26T08:26:30Z</time>
      </trkpt>
      <trkpt lat="46.07126" lon="6.7724">
        <ele>1662.8</ele>
        <time>2026-06-26T08:26:31Z</time>
      </trkpt>
      <trkpt lat="46.07126" lon="6.77241">
        <ele>1663</ele>
        <time>2026-06-26T08:26:32Z</time>
      </trkpt>
      <trkpt lat="46.07126" lon="6.77241">
        <ele>1663.2</ele>
        <time>2026-06-26T08:26:33Z</time>
      </trkpt>
      <trkpt lat="46.07127" lon="6.77242">
        <ele>1663.4</ele>
        <time>2026-06-26T08:26:34Z</time>
      </trkpt>
      <trkpt lat="46.07127" lon="6.77243">
        <ele>1663.5</ele>
        <time>2026-06-26T08:26:35Z</time>
      </trkpt>
      <trkpt lat="46.07128" lon="6.77243">
        <ele>1663.6</ele>
        <time>2026-06-26T08:26:36Z</time>
      </trkpt>
      <trkpt lat="46.07128" lon="6.77244">
        <ele>1663.7</ele>
        <time>2026-06-26T08:26:37Z</time>
      </trkpt>
      <trkpt lat="46.07128" lon="6.77244">
        <ele>1663.8</ele>
        <time>2026-06-26T08:26:38Z</time>
      </trkpt>
      <trkpt lat="46.07128" lon="6.77245">
        <ele>1663.9</ele>
        <time>2026-06-26T08:26:39Z</time>
      </trkpt>
      <trkpt lat="46.07129" lon="6.77246">
        <ele>1664</ele>
        <time>2026-06-26T08:26:40Z</time>
      </trkpt>
      <trkpt lat="46.07129" lon="6.77246">
        <ele>1664.1</ele>
        <time>2026-06-26T08:26:41Z</time>
      </trkpt>
      <trkpt lat="46.07129" lon="6.77247">
        <ele>1664.4</ele>
        <time>2026-06-26T08:26:42Z</time>
      </trkpt>
      <trkpt lat="46.07129" lon="6.77247">
        <ele>1664.6</ele>
        <time>2026-06-26T08:26:43Z</time>
      </trkpt>
      <trkpt lat="46.0713" lon="6.77247">
        <ele>1664.8</ele>
        <time>2026-06-26T08:26:44Z</time>
      </trkpt>
      <trkpt lat="46.07131" lon="6.77247">
        <ele>1665.1</ele>
        <time>2026-06-26T08:26:45Z</time>
      </trkpt>
      <trkpt lat="46.07131" lon="6.77248">
        <ele>1665.3</ele>
        <time>2026-06-26T08:26:46Z</time>
      </trkpt>
      <trkpt lat="46.07132" lon="6.77248">
        <ele>1665.4</ele>
        <time>2026-06-26T08:26:47Z</time>
      </trkpt>
      <trkpt lat="46.07133" lon="6.77249">
        <ele>1665.5</ele>
        <time>2026-06-26T08:26:48Z</time>
      </trkpt>
      <trkpt lat="46.07133" lon="6.77249">
        <ele>1665.5</ele>
        <time>2026-06-26T08:26:49Z</time>
      </trkpt>
      <trkpt lat="46.07133" lon="6.77249">
        <ele>1665.7</ele>
        <time>2026-06-26T08:26:50Z</time>
      </trkpt>
      <trkpt lat="46.07133" lon="6.77249">
        <ele>1665.9</ele>
        <time>2026-06-26T08:26:51Z</time>
      </trkpt>
      <trkpt lat="46.07133" lon="6.7725">
        <ele>1666</ele>
        <time>2026-06-26T08:26:52Z</time>
      </trkpt>
      <trkpt lat="46.07133" lon="6.7725">
        <ele>1666.1</ele>
        <time>2026-06-26T08:26:53Z</time>
      </trkpt>
      <trkpt lat="46.07133" lon="6.77251">
        <ele>1666.2</ele>
        <time>2026-06-26T08:26:54Z</time>
      </trkpt>
      <trkpt lat="46.07133" lon="6.77251">
        <ele>1666.3</ele>
        <time>2026-06-26T08:26:55Z</time>
      </trkpt>
      <trkpt lat="46.07133" lon="6.77251">
        <ele>1666.4</ele>
        <time>2026-06-26T08:26:56Z</time>
      </trkpt>
      <trkpt lat="46.07133" lon="6.77252">
        <ele>1666.5</ele>
        <time>2026-06-26T08:26:57Z</time>
      </trkpt>
      <trkpt lat="46.07132" lon="6.77252">
        <ele>1666.6</ele>
        <time>2026-06-26T08:26:58Z</time>
      </trkpt>
      <trkpt lat="46.07132" lon="6.77253">
        <ele>1666.7</ele>
        <time>2026-06-26T08:26:59Z</time>
      </trkpt>
      <trkpt lat="46.07132" lon="6.77253">
        <ele>1666.8</ele>
        <time>2026-06-26T08:27:00Z</time>
      </trkpt>
      <trkpt lat="46.07132" lon="6.77254">
        <ele>1666.8</ele>
        <time>2026-06-26T08:27:01Z</time>
      </trkpt>
      <trkpt lat="46.07132" lon="6.77254">
        <ele>1666.9</ele>
        <time>2026-06-26T08:27:02Z</time>
      </trkpt>
      <trkpt lat="46.07132" lon="6.77254">
        <ele>1666.9</ele>
        <time>2026-06-26T08:27:03Z</time>
      </trkpt>
      <trkpt lat="46.07132" lon="6.77254">
        <ele>1667</ele>
        <time>2026-06-26T08:27:04Z</time>
      </trkpt>
      <trkpt lat="46.07132" lon="6.77255">
        <ele>1667</ele>
        <time>2026-06-26T08:27:05Z</time>
      </trkpt>
      <trkpt lat="46.07132" lon="6.77257">
        <ele>1667</ele>
        <time>2026-06-26T08:27:06Z</time>
      </trkpt>
      <trkpt lat="46.07132" lon="6.77257">
        <ele>1667.1</ele>
        <time>2026-06-26T08:27:07Z</time>
      </trkpt>
      <trkpt lat="46.07132" lon="6.77258">
        <ele>1667.2</ele>
        <time>2026-06-26T08:27:08Z</time>
      </trkpt>
      <trkpt lat="46.07133" lon="6.77259">
        <ele>1667.4</ele>
        <time>2026-06-26T08:27:09Z</time>
      </trkpt>
      <trkpt lat="46.07133" lon="6.7726">
        <ele>1667.5</ele>
        <time>2026-06-26T08:27:10Z</time>
      </trkpt>
      <trkpt lat="46.07133" lon="6.77261">
        <ele>1667.6</ele>
        <time>2026-06-26T08:27:11Z</time>
      </trkpt>
      <trkpt lat="46.07132" lon="6.77262">
        <ele>1667.6</ele>
        <time>2026-06-26T08:27:12Z</time>
      </trkpt>
      <trkpt lat="46.07132" lon="6.77263">
        <ele>1667.7</ele>
        <time>2026-06-26T08:27:13Z</time>
      </trkpt>
      <trkpt lat="46.07132" lon="6.77263">
        <ele>1667.8</ele>
        <time>2026-06-26T08:27:14Z</time>
      </trkpt>
      <trkpt lat="46.07133" lon="6.77264">
        <ele>1668</ele>
        <time>2026-06-26T08:27:15Z</time>
      </trkpt>
      <trkpt lat="46.07133" lon="6.77265">
        <ele>1668.2</ele>
        <time>2026-06-26T08:27:16Z</time>
      </trkpt>
      <trkpt lat="46.07133" lon="6.77266">
        <ele>1668.5</ele>
        <time>2026-06-26T08:27:17Z</time>
      </trkpt>
      <trkpt lat="46.07133" lon="6.77266">
        <ele>1668.6</ele>
        <time>2026-06-26T08:27:18Z</time>
      </trkpt>
      <trkpt lat="46.07133" lon="6.77267">
        <ele>1668.9</ele>
        <time>2026-06-26T08:27:19Z</time>
      </trkpt>
      <trkpt lat="46.07133" lon="6.77268">
        <ele>1669.2</ele>
        <time>2026-06-26T08:27:20Z</time>
      </trkpt>
      <trkpt lat="46.07133" lon="6.77268">
        <ele>1669.4</ele>
        <time>2026-06-26T08:27:21Z</time>
      </trkpt>
      <trkpt lat="46.07133" lon="6.77269">
        <ele>1669.6</ele>
        <time>2026-06-26T08:27:22Z</time>
      </trkpt>
      <trkpt lat="46.07133" lon="6.7727">
        <ele>1669.8</ele>
        <time>2026-06-26T08:27:23Z</time>
      </trkpt>
      <trkpt lat="46.07133" lon="6.7727">
        <ele>1670</ele>
        <time>2026-06-26T08:27:24Z</time>
      </trkpt>
      <trkpt lat="46.07134" lon="6.77271">
        <ele>1670.1</ele>
        <time>2026-06-26T08:27:25Z</time>
      </trkpt>
      <trkpt lat="46.07134" lon="6.77272">
        <ele>1670.3</ele>
        <time>2026-06-26T08:27:26Z</time>
      </trkpt>
      <trkpt lat="46.07135" lon="6.77272">
        <ele>1670.5</ele>
        <time>2026-06-26T08:27:27Z</time>
      </trkpt>
      <trkpt lat="46.07135" lon="6.77272">
        <ele>1670.7</ele>
        <time>2026-06-26T08:27:28Z</time>
      </trkpt>
      <trkpt lat="46.07135" lon="6.77272">
        <ele>1670.8</ele>
        <time>2026-06-26T08:27:29Z</time>
      </trkpt>
      <trkpt lat="46.07136" lon="6.77272">
        <ele>1671</ele>
        <time>2026-06-26T08:27:30Z</time>
      </trkpt>
      <trkpt lat="46.07136" lon="6.77273">
        <ele>1671.2</ele>
        <time>2026-06-26T08:27:31Z</time>
      </trkpt>
      <trkpt lat="46.07136" lon="6.77273">
        <ele>1671.3</ele>
        <time>2026-06-26T08:27:32Z</time>
      </trkpt>
      <trkpt lat="46.07136" lon="6.77274">
        <ele>1671.4</ele>
        <time>2026-06-26T08:27:33Z</time>
      </trkpt>
      <trkpt lat="46.07135" lon="6.77275">
        <ele>1671.6</ele>
        <time>2026-06-26T08:27:34Z</time>
      </trkpt>
      <trkpt lat="46.07135" lon="6.77275">
        <ele>1671.7</ele>
        <time>2026-06-26T08:27:35Z</time>
      </trkpt>
      <trkpt lat="46.07135" lon="6.77276">
        <ele>1672</ele>
        <time>2026-06-26T08:27:36Z</time>
      </trkpt>
      <trkpt lat="46.07136" lon="6.77277">
        <ele>1672.1</ele>
        <time>2026-06-26T08:27:37Z</time>
      </trkpt>
      <trkpt lat="46.07136" lon="6.77278">
        <ele>1672.4</ele>
        <time>2026-06-26T08:27:38Z</time>
      </trkpt>
      <trkpt lat="46.07135" lon="6.77279">
        <ele>1672.6</ele>
        <time>2026-06-26T08:27:39Z</time>
      </trkpt>
      <trkpt lat="46.07135" lon="6.77279">
        <ele>1672.8</ele>
        <time>2026-06-26T08:27:40Z</time>
      </trkpt>
      <trkpt lat="46.07135" lon="6.7728">
        <ele>1672.9</ele>
        <time>2026-06-26T08:27:41Z</time>
      </trkpt>
      <trkpt lat="46.07134" lon="6.77281">
        <ele>1673.1</ele>
        <time>2026-06-26T08:27:42Z</time>
      </trkpt>
      <trkpt lat="46.07134" lon="6.77282">
        <ele>1673.1</ele>
        <time>2026-06-26T08:27:43Z</time>
      </trkpt>
      <trkpt lat="46.07134" lon="6.77282">
        <ele>1673.4</ele>
        <time>2026-06-26T08:27:44Z</time>
      </trkpt>
      <trkpt lat="46.07134" lon="6.77282">
        <ele>1673.5</ele>
        <time>2026-06-26T08:27:45Z</time>
      </trkpt>
      <trkpt lat="46.07135" lon="6.77282">
        <ele>1673.6</ele>
        <time>2026-06-26T08:27:46Z</time>
      </trkpt>
      <trkpt lat="46.07135" lon="6.77282">
        <ele>1673.6</ele>
        <time>2026-06-26T08:27:47Z</time>
      </trkpt>
      <trkpt lat="46.07135" lon="6.77282">
        <ele>1673.8</ele>
        <time>2026-06-26T08:27:48Z</time>
      </trkpt>
      <trkpt lat="46.07135" lon="6.77282">
        <ele>1673.9</ele>
        <time>2026-06-26T08:27:49Z</time>
      </trkpt>
      <trkpt lat="46.07135" lon="6.77281">
        <ele>1673.9</ele>
        <time>2026-06-26T08:27:50Z</time>
      </trkpt>
      <trkpt lat="46.07135" lon="6.77281">
        <ele>1674</ele>
        <time>2026-06-26T08:27:51Z</time>
      </trkpt>
      <trkpt lat="46.07135" lon="6.77281">
        <ele>1674</ele>
        <time>2026-06-26T08:27:52Z</time>
      </trkpt>
      <trkpt lat="46.07135" lon="6.77281">
        <ele>1674</ele>
        <time>2026-06-26T08:27:53Z</time>
      </trkpt>
      <trkpt lat="46.07135" lon="6.77281">
        <ele>1674.1</ele>
        <time>2026-06-26T08:27:54Z</time>
      </trkpt>
      <trkpt lat="46.07135" lon="6.77281">
        <ele>1674.1</ele>
        <time>2026-06-26T08:27:55Z</time>
      </trkpt>
      <trkpt lat="46.07135" lon="6.77281">
        <ele>1674.1</ele>
        <time>2026-06-26T08:27:56Z</time>
      </trkpt>
      <trkpt lat="46.07136" lon="6.77281">
        <ele>1674.2</ele>
        <time>2026-06-26T08:27:57Z</time>
      </trkpt>
      <trkpt lat="46.07136" lon="6.77281">
        <ele>1674.2</ele>
        <time>2026-06-26T08:27:58Z</time>
      </trkpt>
      <trkpt lat="46.07136" lon="6.77281">
        <ele>1674.2</ele>
        <time>2026-06-26T08:27:59Z</time>
      </trkpt>
      <trkpt lat="46.07136" lon="6.77281">
        <ele>1674.2</ele>
        <time>2026-06-26T08:28:00Z</time>
      </trkpt>
      <trkpt lat="46.07136" lon="6.77281">
        <ele>1674.2</ele>
        <time>2026-06-26T08:28:01Z</time>
      </trkpt>
      <trkpt lat="46.07136" lon="6.77281">
        <ele>1674.2</ele>
        <time>2026-06-26T08:28:02Z</time>
      </trkpt>
      <trkpt lat="46.07136" lon="6.77281">
        <ele>1674.2</ele>
        <time>2026-06-26T08:28:03Z</time>
      </trkpt>
      <trkpt lat="46.07136" lon="6.77281">
        <ele>1674.2</ele>
        <time>2026-06-26T08:28:04Z</time>
      </trkpt>
      <trkpt lat="46.07137" lon="6.77281">
        <ele>1674.2</ele>
        <time>2026-06-26T08:28:05Z</time>
      </trkpt>
      <trkpt lat="46.07137" lon="6.77281">
        <ele>1674.2</ele>
        <time>2026-06-26T08:28:06Z</time>
      </trkpt>
      <trkpt lat="46.07137" lon="6.77281">
        <ele>1674.2</ele>
        <time>2026-06-26T08:28:07Z</time>
      </trkpt>
      <trkpt lat="46.07137" lon="6.77281">
        <ele>1674</ele>
        <time>2026-06-26T08:28:08Z</time>
      </trkpt>
      <trkpt lat="46.07137" lon="6.77281">
        <ele>1673.9</ele>
        <time>2026-06-26T08:28:09Z</time>
      </trkpt>
      <trkpt lat="46.07137" lon="6.77281">
        <ele>1673.7</ele>
        <time>2026-06-26T08:28:10Z</time>
      </trkpt>
      <trkpt lat="46.07137" lon="6.77281">
        <ele>1673.7</ele>
        <time>2026-06-26T08:28:11Z</time>
      </trkpt>
      <trkpt lat="46.07138" lon="6.77281">
        <ele>1673.7</ele>
        <time>2026-06-26T08:28:12Z</time>
      </trkpt>
      <trkpt lat="46.07138" lon="6.77281">
        <ele>1673.7</ele>
        <time>2026-06-26T08:28:13Z</time>
      </trkpt>
      <trkpt lat="46.07138" lon="6.77281">
        <ele>1673.7</ele>
        <time>2026-06-26T08:28:14Z</time>
      </trkpt>
      <trkpt lat="46.07138" lon="6.77281">
        <ele>1673.7</ele>
        <time>2026-06-26T08:28:15Z</time>
      </trkpt>
      <trkpt lat="46.07138" lon="6.77281">
        <ele>1673.7</ele>
        <time>2026-06-26T08:28:16Z</time>
      </trkpt>
      <trkpt lat="46.07138" lon="6.77281">
        <ele>1673.7</ele>
        <time>2026-06-26T08:28:17Z</time>
      </trkpt>
      <trkpt lat="46.07137" lon="6.77281">
        <ele>1673.7</ele>
        <time>2026-06-26T08:28:18Z</time>
      </trkpt>
      <trkpt lat="46.07138" lon="6.77281">
        <ele>1673.7</ele>
        <time>2026-06-26T08:28:19Z</time>
      </trkpt>
      <trkpt lat="46.07138" lon="6.77281">
        <ele>1673.6</ele>
        <time>2026-06-26T08:28:20Z</time>
      </trkpt>
      <trkpt lat="46.07138" lon="6.77281">
        <ele>1673.6</ele>
        <time>2026-06-26T08:28:21Z</time>
      </trkpt>
      <trkpt lat="46.07138" lon="6.77281">
        <ele>1673.7</ele>
        <time>2026-06-26T08:28:22Z</time>
      </trkpt>
      <trkpt lat="46.07138" lon="6.77281">
        <ele>1673.8</ele>
        <time>2026-06-26T08:28:23Z</time>
      </trkpt>
      <trkpt lat="46.07138" lon="6.77281">
        <ele>1673.8</ele>
        <time>2026-06-26T08:28:24Z</time>
      </trkpt>
      <trkpt lat="46.07138" lon="6.77281">
        <ele>1673.9</ele>
        <time>2026-06-26T08:28:25Z</time>
      </trkpt>
      <trkpt lat="46.07138" lon="6.77281">
        <ele>1673.9</ele>
        <time>2026-06-26T08:28:26Z</time>
      </trkpt>
      <trkpt lat="46.07139" lon="6.77281">
        <ele>1673.9</ele>
        <time>2026-06-26T08:28:27Z</time>
      </trkpt>
      <trkpt lat="46.07138" lon="6.77281">
        <ele>1674</ele>
        <time>2026-06-26T08:28:28Z</time>
      </trkpt>
      <trkpt lat="46.07138" lon="6.77281">
        <ele>1674</ele>
        <time>2026-06-26T08:28:29Z</time>
      </trkpt>
      <trkpt lat="46.07138" lon="6.77281">
        <ele>1674</ele>
        <time>2026-06-26T08:28:30Z</time>
      </trkpt>
      <trkpt lat="46.07138" lon="6.77281">
        <ele>1674</ele>
        <time>2026-06-26T08:28:31Z</time>
      </trkpt>
      <trkpt lat="46.07138" lon="6.77281">
        <ele>1674</ele>
        <time>2026-06-26T08:28:32Z</time>
      </trkpt>
      <trkpt lat="46.07139" lon="6.77281">
        <ele>1673.9</ele>
        <time>2026-06-26T08:28:33Z</time>
      </trkpt>
      <trkpt lat="46.07138" lon="6.77281">
        <ele>1673.9</ele>
        <time>2026-06-26T08:28:34Z</time>
      </trkpt>
      <trkpt lat="46.07138" lon="6.77281">
        <ele>1673.9</ele>
        <time>2026-06-26T08:28:35Z</time>
      </trkpt>
      <trkpt lat="46.07138" lon="6.77281">
        <ele>1673.9</ele>
        <time>2026-06-26T08:28:36Z</time>
      </trkpt>
      <trkpt lat="46.07138" lon="6.77281">
        <ele>1673.9</ele>
        <time>2026-06-26T08:28:37Z</time>
      </trkpt>
      <trkpt lat="46.07138" lon="6.7728">
        <ele>1673.9</ele>
        <time>2026-06-26T08:28:38Z</time>
      </trkpt>
      <trkpt lat="46.07138" lon="6.7728">
        <ele>1674</ele>
        <time>2026-06-26T08:28:39Z</time>
      </trkpt>
      <trkpt lat="46.07137" lon="6.7728">
        <ele>1674</ele>
        <time>2026-06-26T08:28:40Z</time>
      </trkpt>
      <trkpt lat="46.07137" lon="6.7728">
        <ele>1674.1</ele>
        <time>2026-06-26T08:28:41Z</time>
      </trkpt>
      <trkpt lat="46.07137" lon="6.7728">
        <ele>1674.1</ele>
        <time>2026-06-26T08:28:42Z</time>
      </trkpt>
      <trkpt lat="46.07137" lon="6.7728">
        <ele>1674.1</ele>
        <time>2026-06-26T08:28:43Z</time>
      </trkpt>
      <trkpt lat="46.07137" lon="6.7728">
        <ele>1674.1</ele>
        <time>2026-06-26T08:28:44Z</time>
      </trkpt>
      <trkpt lat="46.07137" lon="6.77279">
        <ele>1674.1</ele>
        <time>2026-06-26T08:28:45Z</time>
      </trkpt>
      <trkpt lat="46.07137" lon="6.77279">
        <ele>1674.1</ele>
        <time>2026-06-26T08:28:46Z</time>
      </trkpt>
      <trkpt lat="46.07137" lon="6.77279">
        <ele>1674.1</ele>
        <time>2026-06-26T08:28:47Z</time>
      </trkpt>
      <trkpt lat="46.07136" lon="6.77279">
        <ele>1674.1</ele>
        <time>2026-06-26T08:28:48Z</time>
      </trkpt>
      <trkpt lat="46.07136" lon="6.77279">
        <ele>1674.1</ele>
        <time>2026-06-26T08:28:49Z</time>
      </trkpt>
      <trkpt lat="46.07137" lon="6.77279">
        <ele>1674.1</ele>
        <time>2026-06-26T08:28:50Z</time>
      </trkpt>
      <trkpt lat="46.07137" lon="6.77278">
        <ele>1674.1</ele>
        <time>2026-06-26T08:28:51Z</time>
      </trkpt>
      <trkpt lat="46.07137" lon="6.77278">
        <ele>1674.1</ele>
        <time>2026-06-26T08:28:52Z</time>
      </trkpt>
      <trkpt lat="46.07137" lon="6.77278">
        <ele>1674.1</ele>
        <time>2026-06-26T08:28:53Z</time>
      </trkpt>
      <trkpt lat="46.07137" lon="6.77279">
        <ele>1674.1</ele>
        <time>2026-06-26T08:28:54Z</time>
      </trkpt>
      <trkpt lat="46.07136" lon="6.77278">
        <ele>1674.1</ele>
        <time>2026-06-26T08:28:55Z</time>
      </trkpt>
      <trkpt lat="46.07136" lon="6.77278">
        <ele>1674</ele>
        <time>2026-06-26T08:28:56Z</time>
      </trkpt>
      <trkpt lat="46.07136" lon="6.77278">
        <ele>1674</ele>
        <time>2026-06-26T08:28:57Z</time>
      </trkpt>
      <trkpt lat="46.07136" lon="6.77278">
        <ele>1674</ele>
        <time>2026-06-26T08:28:58Z</time>
      </trkpt>
      <trkpt lat="46.07136" lon="6.77278">
        <ele>1674</ele>
        <time>2026-06-26T08:28:59Z</time>
      </trkpt>
      <trkpt lat="46.07137" lon="6.77278">
        <ele>1674</ele>
        <time>2026-06-26T08:29:00Z</time>
      </trkpt>
      <trkpt lat="46.07137" lon="6.77278">
        <ele>1673.9</ele>
        <time>2026-06-26T08:29:01Z</time>
      </trkpt>
      <trkpt lat="46.07137" lon="6.77278">
        <ele>1673.9</ele>
        <time>2026-06-26T08:29:02Z</time>
      </trkpt>
      <trkpt lat="46.07137" lon="6.77278">
        <ele>1673.9</ele>
        <time>2026-06-26T08:29:03Z</time>
      </trkpt>
      <trkpt lat="46.07137" lon="6.77278">
        <ele>1673.9</ele>
        <time>2026-06-26T08:29:04Z</time>
      </trkpt>
      <trkpt lat="46.07137" lon="6.77278">
        <ele>1673.9</ele>
        <time>2026-06-26T08:29:05Z</time>
      </trkpt>
      <trkpt lat="46.07137" lon="6.77278">
        <ele>1673.9</ele>
        <time>2026-06-26T08:29:06Z</time>
      </trkpt>
      <trkpt lat="46.07137" lon="6.77278">
        <ele>1673.9</ele>
        <time>2026-06-26T08:29:07Z</time>
      </trkpt>
      <trkpt lat="46.07137" lon="6.77279">
        <ele>1673.9</ele>
        <time>2026-06-26T08:29:08Z</time>
      </trkpt>
      <trkpt lat="46.07137" lon="6.77279">
        <ele>1673.9</ele>
        <time>2026-06-26T08:29:09Z</time>
      </trkpt>
      <trkpt lat="46.07138" lon="6.77279">
        <ele>1673.9</ele>
        <time>2026-06-26T08:29:10Z</time>
      </trkpt>
      <trkpt lat="46.07138" lon="6.77279">
        <ele>1673.9</ele>
        <time>2026-06-26T08:29:11Z</time>
      </trkpt>
      <trkpt lat="46.07138" lon="6.77279">
        <ele>1673.9</ele>
        <time>2026-06-26T08:29:12Z</time>
      </trkpt>
      <trkpt lat="46.07138" lon="6.77279">
        <ele>1674</ele>
        <time>2026-06-26T08:29:13Z</time>
      </trkpt>
      <trkpt lat="46.07138" lon="6.77279">
        <ele>1674</ele>
        <time>2026-06-26T08:29:14Z</time>
      </trkpt>
      <trkpt lat="46.07138" lon="6.77279">
        <ele>1674</ele>
        <time>2026-06-26T08:29:15Z</time>
      </trkpt>
      <trkpt lat="46.07138" lon="6.77279">
        <ele>1673.9</ele>
        <time>2026-06-26T08:29:16Z</time>
      </trkpt>
      <trkpt lat="46.07138" lon="6.77279">
        <ele>1673.9</ele>
        <time>2026-06-26T08:29:17Z</time>
      </trkpt>
      <trkpt lat="46.07138" lon="6.77279">
        <ele>1673.9</ele>
        <time>2026-06-26T08:29:18Z</time>
      </trkpt>
      <trkpt lat="46.07138" lon="6.77279">
        <ele>1673.8</ele>
        <time>2026-06-26T08:29:19Z</time>
      </trkpt>
      <trkpt lat="46.07138" lon="6.77279">
        <ele>1673.8</ele>
        <time>2026-06-26T08:29:20Z</time>
      </trkpt>
      <trkpt lat="46.07138" lon="6.77279">
        <ele>1673.7</ele>
        <time>2026-06-26T08:29:21Z</time>
      </trkpt>
      <trkpt lat="46.07138" lon="6.77279">
        <ele>1673.5</ele>
        <time>2026-06-26T08:29:22Z</time>
      </trkpt>
      <trkpt lat="46.07138" lon="6.77279">
        <ele>1673.5</ele>
        <time>2026-06-26T08:29:23Z</time>
      </trkpt>
      <trkpt lat="46.07138" lon="6.77279">
        <ele>1673.6</ele>
        <time>2026-06-26T08:29:24Z</time>
      </trkpt>
      <trkpt lat="46.07138" lon="6.77279">
        <ele>1673.6</ele>
        <time>2026-06-26T08:29:25Z</time>
      </trkpt>
      <trkpt lat="46.07138" lon="6.77279">
        <ele>1673.6</ele>
        <time>2026-06-26T08:29:26Z</time>
      </trkpt>
      <trkpt lat="46.07138" lon="6.77279">
        <ele>1673.7</ele>
        <time>2026-06-26T08:29:27Z</time>
      </trkpt>
      <trkpt lat="46.07138" lon="6.77279">
        <ele>1673.6</ele>
        <time>2026-06-26T08:29:28Z</time>
      </trkpt>
      <trkpt lat="46.07138" lon="6.77279">
        <ele>1673.6</ele>
        <time>2026-06-26T08:29:29Z</time>
      </trkpt>
      <trkpt lat="46.07138" lon="6.77279">
        <ele>1673.6</ele>
        <time>2026-06-26T08:29:30Z</time>
      </trkpt>
      <trkpt lat="46.07138" lon="6.77279">
        <ele>1673.6</ele>
        <time>2026-06-26T08:29:31Z</time>
      </trkpt>
      <trkpt lat="46.07138" lon="6.77279">
        <ele>1673.7</ele>
        <time>2026-06-26T08:29:32Z</time>
      </trkpt>
      <trkpt lat="46.07138" lon="6.7728">
        <ele>1673.7</ele>
        <time>2026-06-26T08:29:33Z</time>
      </trkpt>
      <trkpt lat="46.07138" lon="6.7728">
        <ele>1673.7</ele>
        <time>2026-06-26T08:29:34Z</time>
      </trkpt>
      <trkpt lat="46.07139" lon="6.7728">
        <ele>1673.6</ele>
        <time>2026-06-26T08:29:35Z</time>
      </trkpt>
      <trkpt lat="46.07139" lon="6.7728">
        <ele>1673.6</ele>
        <time>2026-06-26T08:29:36Z</time>
      </trkpt>
      <trkpt lat="46.07139" lon="6.7728">
        <ele>1673.7</ele>
        <time>2026-06-26T08:29:37Z</time>
      </trkpt>
      <trkpt lat="46.07139" lon="6.7728">
        <ele>1673.7</ele>
        <time>2026-06-26T08:29:38Z</time>
      </trkpt>
      <trkpt lat="46.07139" lon="6.7728">
        <ele>1673.8</ele>
        <time>2026-06-26T08:29:39Z</time>
      </trkpt>
      <trkpt lat="46.07139" lon="6.7728">
        <ele>1673.9</ele>
        <time>2026-06-26T08:29:40Z</time>
      </trkpt>
      <trkpt lat="46.07138" lon="6.7728">
        <ele>1673.9</ele>
        <time>2026-06-26T08:29:41Z</time>
      </trkpt>
      <trkpt lat="46.07138" lon="6.7728">
        <ele>1674</ele>
        <time>2026-06-26T08:29:42Z</time>
      </trkpt>
      <trkpt lat="46.07138" lon="6.7728">
        <ele>1674</ele>
        <time>2026-06-26T08:29:43Z</time>
      </trkpt>
      <trkpt lat="46.07138" lon="6.7728">
        <ele>1674</ele>
        <time>2026-06-26T08:29:44Z</time>
      </trkpt>
      <trkpt lat="46.07138" lon="6.7728">
        <ele>1674</ele>
        <time>2026-06-26T08:29:45Z</time>
      </trkpt>
      <trkpt lat="46.07138" lon="6.7728">
        <ele>1674.1</ele>
        <time>2026-06-26T08:29:46Z</time>
      </trkpt>
      <trkpt lat="46.07138" lon="6.7728">
        <ele>1674.1</ele>
        <time>2026-06-26T08:29:47Z</time>
      </trkpt>
      <trkpt lat="46.07138" lon="6.7728">
        <ele>1674.1</ele>
        <time>2026-06-26T08:29:48Z</time>
      </trkpt>
      <trkpt lat="46.07138" lon="6.7728">
        <ele>1674.1</ele>
        <time>2026-06-26T08:29:49Z</time>
      </trkpt>
      <trkpt lat="46.07138" lon="6.7728">
        <ele>1674.1</ele>
        <time>2026-06-26T08:29:50Z</time>
      </trkpt>
      <trkpt lat="46.07138" lon="6.77279">
        <ele>1674.1</ele>
        <time>2026-06-26T08:29:51Z</time>
      </trkpt>
      <trkpt lat="46.07138" lon="6.77279">
        <ele>1674.1</ele>
        <time>2026-06-26T08:29:52Z</time>
      </trkpt>
      <trkpt lat="46.07138" lon="6.77279">
        <ele>1674.1</ele>
        <time>2026-06-26T08:29:53Z</time>
      </trkpt>
      <trkpt lat="46.07138" lon="6.77279">
        <ele>1674</ele>
        <time>2026-06-26T08:29:54Z</time>
      </trkpt>
      <trkpt lat="46.07138" lon="6.77279">
        <ele>1674</ele>
        <time>2026-06-26T08:29:55Z</time>
      </trkpt>
      <trkpt lat="46.07137" lon="6.77279">
        <ele>1674.1</ele>
        <time>2026-06-26T08:29:56Z</time>
      </trkpt>
      <trkpt lat="46.07137" lon="6.77279">
        <ele>1674.1</ele>
        <time>2026-06-26T08:29:57Z</time>
      </trkpt>
      <trkpt lat="46.07137" lon="6.77279">
        <ele>1674</ele>
        <time>2026-06-26T08:29:58Z</time>
      </trkpt>
      <trkpt lat="46.07137" lon="6.77279">
        <ele>1674</ele>
        <time>2026-06-26T08:29:59Z</time>
      </trkpt>
      <trkpt lat="46.07137" lon="6.77279">
        <ele>1673.9</ele>
        <time>2026-06-26T08:30:00Z</time>
      </trkpt>
      <trkpt lat="46.07138" lon="6.7728">
        <ele>1673.9</ele>
        <time>2026-06-26T08:30:01Z</time>
      </trkpt>
      <trkpt lat="46.07138" lon="6.77281">
        <ele>1673.9</ele>
        <time>2026-06-26T08:30:02Z</time>
      </trkpt>
      <trkpt lat="46.07138" lon="6.77281">
        <ele>1673.9</ele>
        <time>2026-06-26T08:30:03Z</time>
      </trkpt>
      <trkpt lat="46.07139" lon="6.77282">
        <ele>1673.8</ele>
        <time>2026-06-26T08:30:04Z</time>
      </trkpt>
      <trkpt lat="46.07138" lon="6.77282">
        <ele>1673.9</ele>
        <time>2026-06-26T08:30:05Z</time>
      </trkpt>
      <trkpt lat="46.07138" lon="6.77282">
        <ele>1673.9</ele>
        <time>2026-06-26T08:30:06Z</time>
      </trkpt>
      <trkpt lat="46.07138" lon="6.77282">
        <ele>1673.9</ele>
        <time>2026-06-26T08:30:07Z</time>
      </trkpt>
      <trkpt lat="46.07138" lon="6.77282">
        <ele>1673.9</ele>
        <time>2026-06-26T08:30:08Z</time>
      </trkpt>
      <trkpt lat="46.07138" lon="6.77282">
        <ele>1673.9</ele>
        <time>2026-06-26T08:30:09Z</time>
      </trkpt>
      <trkpt lat="46.07137" lon="6.77282">
        <ele>1673.9</ele>
        <time>2026-06-26T08:30:10Z</time>
      </trkpt>
      <trkpt lat="46.07137" lon="6.77282">
        <ele>1674</ele>
        <time>2026-06-26T08:30:11Z</time>
      </trkpt>
      <trkpt lat="46.07136" lon="6.77282">
        <ele>1674.1</ele>
        <time>2026-06-26T08:30:12Z</time>
      </trkpt>
      <trkpt lat="46.07136" lon="6.77282">
        <ele>1674.1</ele>
        <time>2026-06-26T08:30:13Z</time>
      </trkpt>
      <trkpt lat="46.07135" lon="6.77282">
        <ele>1674.2</ele>
        <time>2026-06-26T08:30:14Z</time>
      </trkpt>
      <trkpt lat="46.07135" lon="6.77282">
        <ele>1674.2</ele>
        <time>2026-06-26T08:30:15Z</time>
      </trkpt>
      <trkpt lat="46.07135" lon="6.77282">
        <ele>1674.2</ele>
        <time>2026-06-26T08:30:16Z</time>
      </trkpt>
      <trkpt lat="46.07134" lon="6.77282">
        <ele>1674.3</ele>
        <time>2026-06-26T08:30:17Z</time>
      </trkpt>
      <trkpt lat="46.07134" lon="6.77282">
        <ele>1674.2</ele>
        <time>2026-06-26T08:30:18Z</time>
      </trkpt>
      <trkpt lat="46.07134" lon="6.77282">
        <ele>1674.2</ele>
        <time>2026-06-26T08:30:19Z</time>
      </trkpt>
      <trkpt lat="46.07134" lon="6.77282">
        <ele>1674.1</ele>
        <time>2026-06-26T08:30:20Z</time>
      </trkpt>
      <trkpt lat="46.07134" lon="6.77281">
        <ele>1674.1</ele>
        <time>2026-06-26T08:30:21Z</time>
      </trkpt>
      <trkpt lat="46.07134" lon="6.77282">
        <ele>1674.1</ele>
        <time>2026-06-26T08:30:22Z</time>
      </trkpt>
      <trkpt lat="46.07134" lon="6.77282">
        <ele>1674.1</ele>
        <time>2026-06-26T08:30:23Z</time>
      </trkpt>
      <trkpt lat="46.07135" lon="6.77282">
        <ele>1674.1</ele>
        <time>2026-06-26T08:30:24Z</time>
      </trkpt>
      <trkpt lat="46.07135" lon="6.77281">
        <ele>1674.1</ele>
        <time>2026-06-26T08:30:25Z</time>
      </trkpt>
      <trkpt lat="46.07135" lon="6.77281">
        <ele>1674.1</ele>
        <time>2026-06-26T08:30:26Z</time>
      </trkpt>
      <trkpt lat="46.07135" lon="6.77281">
        <ele>1674.1</ele>
        <time>2026-06-26T08:30:27Z</time>
      </trkpt>
      <trkpt lat="46.07135" lon="6.77281">
        <ele>1674.2</ele>
        <time>2026-06-26T08:30:28Z</time>
      </trkpt>
      <trkpt lat="46.07135" lon="6.77281">
        <ele>1674.2</ele>
        <time>2026-06-26T08:30:29Z</time>
      </trkpt>
      <trkpt lat="46.07135" lon="6.77281">
        <ele>1674.2</ele>
        <time>2026-06-26T08:30:30Z</time>
      </trkpt>
      <trkpt lat="46.07135" lon="6.77281">
        <ele>1674.2</ele>
        <time>2026-06-26T08:30:31Z</time>
      </trkpt>
      <trkpt lat="46.07135" lon="6.77281">
        <ele>1674.2</ele>
        <time>2026-06-26T08:30:32Z</time>
      </trkpt>
      <trkpt lat="46.07135" lon="6.77281">
        <ele>1674.2</ele>
        <time>2026-06-26T08:30:33Z</time>
      </trkpt>
      <trkpt lat="46.07135" lon="6.77281">
        <ele>1674.2</ele>
        <time>2026-06-26T08:30:34Z</time>
      </trkpt>
      <trkpt lat="46.07135" lon="6.77281">
        <ele>1674.2</ele>
        <time>2026-06-26T08:30:35Z</time>
      </trkpt>
      <trkpt lat="46.07135" lon="6.77281">
        <ele>1674.2</ele>
        <time>2026-06-26T08:30:36Z</time>
      </trkpt>
      <trkpt lat="46.07135" lon="6.77281">
        <ele>1674.2</ele>
        <time>2026-06-26T08:30:37Z</time>
      </trkpt>
      <trkpt lat="46.07135" lon="6.77281">
        <ele>1674.2</ele>
        <time>2026-06-26T08:30:38Z</time>
      </trkpt>
      <trkpt lat="46.07135" lon="6.7728">
        <ele>1674.2</ele>
        <time>2026-06-26T08:30:39Z</time>
      </trkpt>
      <trkpt lat="46.07135" lon="6.7728">
        <ele>1674.2</ele>
        <time>2026-06-26T08:30:40Z</time>
      </trkpt>
      <trkpt lat="46.07135" lon="6.77281">
        <ele>1674.2</ele>
        <time>2026-06-26T08:30:41Z</time>
      </trkpt>
      <trkpt lat="46.07135" lon="6.77281">
        <ele>1674.1</ele>
        <time>2026-06-26T08:30:42Z</time>
      </trkpt>
      <trkpt lat="46.07135" lon="6.7728">
        <ele>1674.1</ele>
        <time>2026-06-26T08:30:43Z</time>
      </trkpt>
      <trkpt lat="46.07135" lon="6.7728">
        <ele>1674.1</ele>
        <time>2026-06-26T08:30:44Z</time>
      </trkpt>
      <trkpt lat="46.07135" lon="6.7728">
        <ele>1674</ele>
        <time>2026-06-26T08:30:45Z</time>
      </trkpt>
      <trkpt lat="46.07135" lon="6.7728">
        <ele>1674</ele>
        <time>2026-06-26T08:30:46Z</time>
      </trkpt>
      <trkpt lat="46.07135" lon="6.7728">
        <ele>1674</ele>
        <time>2026-06-26T08:30:47Z</time>
      </trkpt>
      <trkpt lat="46.07135" lon="6.7728">
        <ele>1674</ele>
        <time>2026-06-26T08:30:48Z</time>
      </trkpt>
      <trkpt lat="46.07135" lon="6.7728">
        <ele>1674</ele>
        <time>2026-06-26T08:30:49Z</time>
      </trkpt>
      <trkpt lat="46.07135" lon="6.7728">
        <ele>1674.1</ele>
        <time>2026-06-26T08:30:50Z</time>
      </trkpt>
      <trkpt lat="46.07134" lon="6.7728">
        <ele>1674.1</ele>
        <time>2026-06-26T08:30:51Z</time>
      </trkpt>
      <trkpt lat="46.07134" lon="6.7728">
        <ele>1674.1</ele>
        <time>2026-06-26T08:30:52Z</time>
      </trkpt>
      <trkpt lat="46.07134" lon="6.7728">
        <ele>1674.1</ele>
        <time>2026-06-26T08:30:53Z</time>
      </trkpt>
      <trkpt lat="46.07135" lon="6.7728">
        <ele>1674.1</ele>
        <time>2026-06-26T08:30:54Z</time>
      </trkpt>
      <trkpt lat="46.07135" lon="6.7728">
        <ele>1674.1</ele>
        <time>2026-06-26T08:30:55Z</time>
      </trkpt>
      <trkpt lat="46.07135" lon="6.7728">
        <ele>1674.1</ele>
        <time>2026-06-26T08:30:56Z</time>
      </trkpt>
      <trkpt lat="46.07135" lon="6.7728">
        <ele>1674.1</ele>
        <time>2026-06-26T08:30:57Z</time>
      </trkpt>
      <trkpt lat="46.07135" lon="6.7728">
        <ele>1674.2</ele>
        <time>2026-06-26T08:30:58Z</time>
      </trkpt>
      <trkpt lat="46.07135" lon="6.7728">
        <ele>1674.2</ele>
        <time>2026-06-26T08:30:59Z</time>
      </trkpt>
      <trkpt lat="46.07135" lon="6.77279">
        <ele>1674.3</ele>
        <time>2026-06-26T08:31:00Z</time>
      </trkpt>
      <trkpt lat="46.07134" lon="6.77279">
        <ele>1674.3</ele>
        <time>2026-06-26T08:31:01Z</time>
      </trkpt>
      <trkpt lat="46.07134" lon="6.77279">
        <ele>1674.4</ele>
        <time>2026-06-26T08:31:02Z</time>
      </trkpt>
      <trkpt lat="46.07134" lon="6.77279">
        <ele>1674.4</ele>
        <time>2026-06-26T08:31:03Z</time>
      </trkpt>
      <trkpt lat="46.07134" lon="6.77279">
        <ele>1674.4</ele>
        <time>2026-06-26T08:31:04Z</time>
      </trkpt>
      <trkpt lat="46.07134" lon="6.77278">
        <ele>1674.3</ele>
        <time>2026-06-26T08:31:05Z</time>
      </trkpt>
      <trkpt lat="46.07134" lon="6.77278">
        <ele>1674.3</ele>
        <time>2026-06-26T08:31:06Z</time>
      </trkpt>
      <trkpt lat="46.07134" lon="6.77279">
        <ele>1674.3</ele>
        <time>2026-06-26T08:31:07Z</time>
      </trkpt>
      <trkpt lat="46.07134" lon="6.77278">
        <ele>1674.4</ele>
        <time>2026-06-26T08:31:08Z</time>
      </trkpt>
      <trkpt lat="46.07134" lon="6.77279">
        <ele>1674.4</ele>
        <time>2026-06-26T08:31:09Z</time>
      </trkpt>
      <trkpt lat="46.07134" lon="6.77278">
        <ele>1674.4</ele>
        <time>2026-06-26T08:31:10Z</time>
      </trkpt>
      <trkpt lat="46.07134" lon="6.77279">
        <ele>1674.4</ele>
        <time>2026-06-26T08:31:11Z</time>
      </trkpt>
      <trkpt lat="46.07134" lon="6.77279">
        <ele>1674.4</ele>
        <time>2026-06-26T08:31:12Z</time>
      </trkpt>
      <trkpt lat="46.07134" lon="6.77279">
        <ele>1674.4</ele>
        <time>2026-06-26T08:31:13Z</time>
      </trkpt>
      <trkpt lat="46.07134" lon="6.77279">
        <ele>1674.4</ele>
        <time>2026-06-26T08:31:14Z</time>
      </trkpt>
      <trkpt lat="46.07134" lon="6.77279">
        <ele>1674.4</ele>
        <time>2026-06-26T08:31:15Z</time>
      </trkpt>
      <trkpt lat="46.07134" lon="6.77279">
        <ele>1674.4</ele>
        <time>2026-06-26T08:31:16Z</time>
      </trkpt>
      <trkpt lat="46.07134" lon="6.77279">
        <ele>1674.3</ele>
        <time>2026-06-26T08:31:17Z</time>
      </trkpt>
      <trkpt lat="46.07134" lon="6.77279">
        <ele>1674.3</ele>
        <time>2026-06-26T08:31:18Z</time>
      </trkpt>
      <trkpt lat="46.07134" lon="6.77279">
        <ele>1674.3</ele>
        <time>2026-06-26T08:31:19Z</time>
      </trkpt>
      <trkpt lat="46.07135" lon="6.7728">
        <ele>1674.3</ele>
        <time>2026-06-26T08:31:20Z</time>
      </trkpt>
      <trkpt lat="46.07135" lon="6.7728">
        <ele>1674.2</ele>
        <time>2026-06-26T08:31:21Z</time>
      </trkpt>
      <trkpt lat="46.07135" lon="6.7728">
        <ele>1674.1</ele>
        <time>2026-06-26T08:31:22Z</time>
      </trkpt>
      <trkpt lat="46.07135" lon="6.7728">
        <ele>1674.1</ele>
        <time>2026-06-26T08:31:23Z</time>
      </trkpt>
      <trkpt lat="46.07135" lon="6.7728">
        <ele>1674.1</ele>
        <time>2026-06-26T08:31:24Z</time>
      </trkpt>
      <trkpt lat="46.07135" lon="6.7728">
        <ele>1674.1</ele>
        <time>2026-06-26T08:31:25Z</time>
      </trkpt>
      <trkpt lat="46.07135" lon="6.7728">
        <ele>1674</ele>
        <time>2026-06-26T08:31:26Z</time>
      </trkpt>
      <trkpt lat="46.07135" lon="6.7728">
        <ele>1674</ele>
        <time>2026-06-26T08:31:27Z</time>
      </trkpt>
      <trkpt lat="46.07136" lon="6.7728">
        <ele>1674</ele>
        <time>2026-06-26T08:31:28Z</time>
      </trkpt>
      <trkpt lat="46.07135" lon="6.7728">
        <ele>1674</ele>
        <time>2026-06-26T08:31:29Z</time>
      </trkpt>
      <trkpt lat="46.07136" lon="6.77281">
        <ele>1673.9</ele>
        <time>2026-06-26T08:31:30Z</time>
      </trkpt>
      <trkpt lat="46.07136" lon="6.77281">
        <ele>1674</ele>
        <time>2026-06-26T08:31:31Z</time>
      </trkpt>
      <trkpt lat="46.07136" lon="6.77281">
        <ele>1674.1</ele>
        <time>2026-06-26T08:31:32Z</time>
      </trkpt>
      <trkpt lat="46.07136" lon="6.77281">
        <ele>1674.1</ele>
        <time>2026-06-26T08:31:33Z</time>
      </trkpt>
      <trkpt lat="46.07137" lon="6.77282">
        <ele>1674.2</ele>
        <time>2026-06-26T08:31:34Z</time>
      </trkpt>
      <trkpt lat="46.07137" lon="6.77283">
        <ele>1674.1</ele>
        <time>2026-06-26T08:31:35Z</time>
      </trkpt>
      <trkpt lat="46.07137" lon="6.77283">
        <ele>1674.1</ele>
        <time>2026-06-26T08:31:36Z</time>
      </trkpt>
      <trkpt lat="46.07137" lon="6.77283">
        <ele>1674</ele>
        <time>2026-06-26T08:31:37Z</time>
      </trkpt>
      <trkpt lat="46.07137" lon="6.77283">
        <ele>1674</ele>
        <time>2026-06-26T08:31:38Z</time>
      </trkpt>
      <trkpt lat="46.07137" lon="6.77283">
        <ele>1673.9</ele>
        <time>2026-06-26T08:31:39Z</time>
      </trkpt>
      <trkpt lat="46.07137" lon="6.77284">
        <ele>1673.9</ele>
        <time>2026-06-26T08:31:40Z</time>
      </trkpt>
      <trkpt lat="46.07138" lon="6.77284">
        <ele>1674</ele>
        <time>2026-06-26T08:31:41Z</time>
      </trkpt>
      <trkpt lat="46.07138" lon="6.77284">
        <ele>1674.1</ele>
        <time>2026-06-26T08:31:42Z</time>
      </trkpt>
      <trkpt lat="46.07138" lon="6.77284">
        <ele>1674.1</ele>
        <time>2026-06-26T08:31:43Z</time>
      </trkpt>
      <trkpt lat="46.07138" lon="6.77284">
        <ele>1674.1</ele>
        <time>2026-06-26T08:31:44Z</time>
      </trkpt>
      <trkpt lat="46.07138" lon="6.77284">
        <ele>1674.1</ele>
        <time>2026-06-26T08:31:45Z</time>
      </trkpt>
      <trkpt lat="46.07138" lon="6.77284">
        <ele>1674.1</ele>
        <time>2026-06-26T08:31:46Z</time>
      </trkpt>
      <trkpt lat="46.07138" lon="6.77283">
        <ele>1674.1</ele>
        <time>2026-06-26T08:31:47Z</time>
      </trkpt>
      <trkpt lat="46.07138" lon="6.77283">
        <ele>1674.1</ele>
        <time>2026-06-26T08:31:48Z</time>
      </trkpt>
      <trkpt lat="46.07138" lon="6.77284">
        <ele>1674.1</ele>
        <time>2026-06-26T08:31:49Z</time>
      </trkpt>
      <trkpt lat="46.07138" lon="6.77284">
        <ele>1674.2</ele>
        <time>2026-06-26T08:31:50Z</time>
      </trkpt>
      <trkpt lat="46.07138" lon="6.77284">
        <ele>1674.2</ele>
        <time>2026-06-26T08:31:51Z</time>
      </trkpt>
      <trkpt lat="46.07138" lon="6.77284">
        <ele>1674.2</ele>
        <time>2026-06-26T08:31:52Z</time>
      </trkpt>
      <trkpt lat="46.07138" lon="6.77284">
        <ele>1674.1</ele>
        <time>2026-06-26T08:31:53Z</time>
      </trkpt>
      <trkpt lat="46.07138" lon="6.77284">
        <ele>1674.1</ele>
        <time>2026-06-26T08:31:54Z</time>
      </trkpt>
      <trkpt lat="46.07138" lon="6.77284">
        <ele>1674.1</ele>
        <time>2026-06-26T08:31:55Z</time>
      </trkpt>
      <trkpt lat="46.07138" lon="6.77285">
        <ele>1674.1</ele>
        <time>2026-06-26T08:31:56Z</time>
      </trkpt>
      <trkpt lat="46.07138" lon="6.77286">
        <ele>1674.1</ele>
        <time>2026-06-26T08:31:57Z</time>
      </trkpt>
      <trkpt lat="46.07138" lon="6.77286">
        <ele>1674.2</ele>
        <time>2026-06-26T08:31:58Z</time>
      </trkpt>
      <trkpt lat="46.07137" lon="6.77287">
        <ele>1674.3</ele>
        <time>2026-06-26T08:31:59Z</time>
      </trkpt>
      <trkpt lat="46.07137" lon="6.77288">
        <ele>1674.5</ele>
        <time>2026-06-26T08:32:00Z</time>
      </trkpt>
      <trkpt lat="46.07137" lon="6.77289">
        <ele>1674.5</ele>
        <time>2026-06-26T08:32:01Z</time>
      </trkpt>
      <trkpt lat="46.07137" lon="6.77289">
        <ele>1674.5</ele>
        <time>2026-06-26T08:32:02Z</time>
      </trkpt>
      <trkpt lat="46.07137" lon="6.77289">
        <ele>1674.7</ele>
        <time>2026-06-26T08:32:03Z</time>
      </trkpt>
      <trkpt lat="46.07137" lon="6.7729">
        <ele>1674.8</ele>
        <time>2026-06-26T08:32:04Z</time>
      </trkpt>
      <trkpt lat="46.07137" lon="6.7729">
        <ele>1675</ele>
        <time>2026-06-26T08:32:05Z</time>
      </trkpt>
      <trkpt lat="46.07137" lon="6.77291">
        <ele>1675.2</ele>
        <time>2026-06-26T08:32:06Z</time>
      </trkpt>
      <trkpt lat="46.07136" lon="6.77291">
        <ele>1675.2</ele>
        <time>2026-06-26T08:32:07Z</time>
      </trkpt>
      <trkpt lat="46.07136" lon="6.77291">
        <ele>1675.3</ele>
        <time>2026-06-26T08:32:08Z</time>
      </trkpt>
      <trkpt lat="46.07137" lon="6.77292">
        <ele>1675.4</ele>
        <time>2026-06-26T08:32:09Z</time>
      </trkpt>
      <trkpt lat="46.07137" lon="6.77292">
        <ele>1675.4</ele>
        <time>2026-06-26T08:32:10Z</time>
      </trkpt>
      <trkpt lat="46.07137" lon="6.77292">
        <ele>1675.5</ele>
        <time>2026-06-26T08:32:11Z</time>
      </trkpt>
      <trkpt lat="46.07138" lon="6.77293">
        <ele>1675.5</ele>
        <time>2026-06-26T08:32:12Z</time>
      </trkpt>
      <trkpt lat="46.07138" lon="6.77293">
        <ele>1675.6</ele>
        <time>2026-06-26T08:32:13Z</time>
      </trkpt>
      <trkpt lat="46.07138" lon="6.77293">
        <ele>1675.7</ele>
        <time>2026-06-26T08:32:14Z</time>
      </trkpt>
      <trkpt lat="46.07138" lon="6.77293">
        <ele>1675.8</ele>
        <time>2026-06-26T08:32:15Z</time>
      </trkpt>
      <trkpt lat="46.07138" lon="6.77293">
        <ele>1675.9</ele>
        <time>2026-06-26T08:32:16Z</time>
      </trkpt>
      <trkpt lat="46.07138" lon="6.77293">
        <ele>1676</ele>
        <time>2026-06-26T08:32:17Z</time>
      </trkpt>
      <trkpt lat="46.07138" lon="6.77294">
        <ele>1676.2</ele>
        <time>2026-06-26T08:32:18Z</time>
      </trkpt>
      <trkpt lat="46.07138" lon="6.77294">
        <ele>1676.3</ele>
        <time>2026-06-26T08:32:19Z</time>
      </trkpt>
      <trkpt lat="46.07138" lon="6.77294">
        <ele>1676.4</ele>
        <time>2026-06-26T08:32:20Z</time>
      </trkpt>
      <trkpt lat="46.07138" lon="6.77295">
        <ele>1676.5</ele>
        <time>2026-06-26T08:32:21Z</time>
      </trkpt>
      <trkpt lat="46.07138" lon="6.77295">
        <ele>1676.6</ele>
        <time>2026-06-26T08:32:22Z</time>
      </trkpt>
      <trkpt lat="46.07138" lon="6.77295">
        <ele>1676.8</ele>
        <time>2026-06-26T08:32:23Z</time>
      </trkpt>
      <trkpt lat="46.07139" lon="6.77296">
        <ele>1677</ele>
        <time>2026-06-26T08:32:24Z</time>
      </trkpt>
      <trkpt lat="46.07139" lon="6.77296">
        <ele>1677.1</ele>
        <time>2026-06-26T08:32:25Z</time>
      </trkpt>
      <trkpt lat="46.07139" lon="6.77296">
        <ele>1677.3</ele>
        <time>2026-06-26T08:32:26Z</time>
      </trkpt>
      <trkpt lat="46.07139" lon="6.77297">
        <ele>1677.4</ele>
        <time>2026-06-26T08:32:27Z</time>
      </trkpt>
      <trkpt lat="46.07139" lon="6.77297">
        <ele>1677.6</ele>
        <time>2026-06-26T08:32:28Z</time>
      </trkpt>
      <trkpt lat="46.07139" lon="6.77298">
        <ele>1677.7</ele>
        <time>2026-06-26T08:32:29Z</time>
      </trkpt>
      <trkpt lat="46.07139" lon="6.77299">
        <ele>1677.8</ele>
        <time>2026-06-26T08:32:30Z</time>
      </trkpt>
      <trkpt lat="46.07138" lon="6.77299">
        <ele>1677.9</ele>
        <time>2026-06-26T08:32:31Z</time>
      </trkpt>
      <trkpt lat="46.07139" lon="6.773">
        <ele>1678.1</ele>
        <time>2026-06-26T08:32:32Z</time>
      </trkpt>
      <trkpt lat="46.07139" lon="6.77301">
        <ele>1678.3</ele>
        <time>2026-06-26T08:32:33Z</time>
      </trkpt>
      <trkpt lat="46.07139" lon="6.77301">
        <ele>1678.4</ele>
        <time>2026-06-26T08:32:34Z</time>
      </trkpt>
      <trkpt lat="46.07139" lon="6.77302">
        <ele>1678.6</ele>
        <time>2026-06-26T08:32:35Z</time>
      </trkpt>
      <trkpt lat="46.07139" lon="6.77303">
        <ele>1678.7</ele>
        <time>2026-06-26T08:32:36Z</time>
      </trkpt>
      <trkpt lat="46.07139" lon="6.77304">
        <ele>1678.7</ele>
        <time>2026-06-26T08:32:37Z</time>
      </trkpt>
      <trkpt lat="46.0714" lon="6.77304">
        <ele>1678.8</ele>
        <time>2026-06-26T08:32:38Z</time>
      </trkpt>
      <trkpt lat="46.0714" lon="6.77305">
        <ele>1679</ele>
        <time>2026-06-26T08:32:39Z</time>
      </trkpt>
      <trkpt lat="46.07141" lon="6.77305">
        <ele>1679.1</ele>
        <time>2026-06-26T08:32:40Z</time>
      </trkpt>
      <trkpt lat="46.07141" lon="6.77306">
        <ele>1679.3</ele>
        <time>2026-06-26T08:32:41Z</time>
      </trkpt>
      <trkpt lat="46.07141" lon="6.77306">
        <ele>1679.6</ele>
        <time>2026-06-26T08:32:42Z</time>
      </trkpt>
      <trkpt lat="46.07142" lon="6.77307">
        <ele>1679.7</ele>
        <time>2026-06-26T08:32:43Z</time>
      </trkpt>
      <trkpt lat="46.07142" lon="6.77308">
        <ele>1679.9</ele>
        <time>2026-06-26T08:32:44Z</time>
      </trkpt>
      <trkpt lat="46.07142" lon="6.77309">
        <ele>1680.1</ele>
        <time>2026-06-26T08:32:45Z</time>
      </trkpt>
      <trkpt lat="46.07142" lon="6.77309">
        <ele>1680.4</ele>
        <time>2026-06-26T08:32:46Z</time>
      </trkpt>
      <trkpt lat="46.07143" lon="6.7731">
        <ele>1680.6</ele>
        <time>2026-06-26T08:32:47Z</time>
      </trkpt>
      <trkpt lat="46.07143" lon="6.77311">
        <ele>1680.8</ele>
        <time>2026-06-26T08:32:48Z</time>
      </trkpt>
      <trkpt lat="46.07143" lon="6.77311">
        <ele>1680.9</ele>
        <time>2026-06-26T08:32:49Z</time>
      </trkpt>
      <trkpt lat="46.07143" lon="6.77312">
        <ele>1681</ele>
        <time>2026-06-26T08:32:50Z</time>
      </trkpt>
      <trkpt lat="46.07144" lon="6.77313">
        <ele>1681.1</ele>
        <time>2026-06-26T08:32:51Z</time>
      </trkpt>
      <trkpt lat="46.07144" lon="6.77313">
        <ele>1681.3</ele>
        <time>2026-06-26T08:32:52Z</time>
      </trkpt>
      <trkpt lat="46.07144" lon="6.77314">
        <ele>1681.4</ele>
        <time>2026-06-26T08:32:53Z</time>
      </trkpt>
      <trkpt lat="46.07144" lon="6.77315">
        <ele>1681.6</ele>
        <time>2026-06-26T08:32:54Z</time>
      </trkpt>
      <trkpt lat="46.07144" lon="6.77316">
        <ele>1681.7</ele>
        <time>2026-06-26T08:32:55Z</time>
      </trkpt>
      <trkpt lat="46.07144" lon="6.77317">
        <ele>1681.8</ele>
        <time>2026-06-26T08:32:56Z</time>
      </trkpt>
      <trkpt lat="46.07144" lon="6.77317">
        <ele>1682</ele>
        <time>2026-06-26T08:32:57Z</time>
      </trkpt>
      <trkpt lat="46.07145" lon="6.77318">
        <ele>1682.1</ele>
        <time>2026-06-26T08:32:58Z</time>
      </trkpt>
      <trkpt lat="46.07145" lon="6.77318">
        <ele>1682.3</ele>
        <time>2026-06-26T08:32:59Z</time>
      </trkpt>
      <trkpt lat="46.07145" lon="6.77318">
        <ele>1682.5</ele>
        <time>2026-06-26T08:33:00Z</time>
      </trkpt>
      <trkpt lat="46.07146" lon="6.77319">
        <ele>1682.6</ele>
        <time>2026-06-26T08:33:01Z</time>
      </trkpt>
      <trkpt lat="46.07146" lon="6.77319">
        <ele>1682.8</ele>
        <time>2026-06-26T08:33:02Z</time>
      </trkpt>
      <trkpt lat="46.07146" lon="6.77319">
        <ele>1682.9</ele>
        <time>2026-06-26T08:33:03Z</time>
      </trkpt>
      <trkpt lat="46.07146" lon="6.7732">
        <ele>1683.1</ele>
        <time>2026-06-26T08:33:04Z</time>
      </trkpt>
      <trkpt lat="46.07146" lon="6.77321">
        <ele>1683.3</ele>
        <time>2026-06-26T08:33:05Z</time>
      </trkpt>
      <trkpt lat="46.07146" lon="6.77322">
        <ele>1683.4</ele>
        <time>2026-06-26T08:33:06Z</time>
      </trkpt>
      <trkpt lat="46.07147" lon="6.77322">
        <ele>1683.6</ele>
        <time>2026-06-26T08:33:07Z</time>
      </trkpt>
      <trkpt lat="46.07148" lon="6.77322">
        <ele>1683.7</ele>
        <time>2026-06-26T08:33:08Z</time>
      </trkpt>
      <trkpt lat="46.07149" lon="6.77322">
        <ele>1683.8</ele>
        <time>2026-06-26T08:33:09Z</time>
      </trkpt>
      <trkpt lat="46.07149" lon="6.77322">
        <ele>1684</ele>
        <time>2026-06-26T08:33:10Z</time>
      </trkpt>
      <trkpt lat="46.0715" lon="6.77321">
        <ele>1684.2</ele>
        <time>2026-06-26T08:33:11Z</time>
      </trkpt>
      <trkpt lat="46.07151" lon="6.77321">
        <ele>1684.6</ele>
        <time>2026-06-26T08:33:12Z</time>
      </trkpt>
      <trkpt lat="46.07151" lon="6.77321">
        <ele>1684.7</ele>
        <time>2026-06-26T08:33:13Z</time>
      </trkpt>
      <trkpt lat="46.07151" lon="6.77322">
        <ele>1684.9</ele>
        <time>2026-06-26T08:33:14Z</time>
      </trkpt>
      <trkpt lat="46.07151" lon="6.77323">
        <ele>1685.1</ele>
        <time>2026-06-26T08:33:15Z</time>
      </trkpt>
      <trkpt lat="46.07151" lon="6.77323">
        <ele>1685.3</ele>
        <time>2026-06-26T08:33:16Z</time>
      </trkpt>
      <trkpt lat="46.07151" lon="6.77323">
        <ele>1685.4</ele>
        <time>2026-06-26T08:33:17Z</time>
      </trkpt>
      <trkpt lat="46.07151" lon="6.77324">
        <ele>1685.5</ele>
        <time>2026-06-26T08:33:18Z</time>
      </trkpt>
      <trkpt lat="46.07152" lon="6.77324">
        <ele>1685.7</ele>
        <time>2026-06-26T08:33:19Z</time>
      </trkpt>
      <trkpt lat="46.07152" lon="6.77325">
        <ele>1685.9</ele>
        <time>2026-06-26T08:33:20Z</time>
      </trkpt>
      <trkpt lat="46.07152" lon="6.77325">
        <ele>1686</ele>
        <time>2026-06-26T08:33:21Z</time>
      </trkpt>
      <trkpt lat="46.07153" lon="6.77324">
        <ele>1686.1</ele>
        <time>2026-06-26T08:33:22Z</time>
      </trkpt>
      <trkpt lat="46.07154" lon="6.77324">
        <ele>1686.2</ele>
        <time>2026-06-26T08:33:23Z</time>
      </trkpt>
      <trkpt lat="46.07154" lon="6.77325">
        <ele>1686.4</ele>
        <time>2026-06-26T08:33:24Z</time>
      </trkpt>
      <trkpt lat="46.07155" lon="6.77325">
        <ele>1686.5</ele>
        <time>2026-06-26T08:33:25Z</time>
      </trkpt>
      <trkpt lat="46.07155" lon="6.77325">
        <ele>1686.8</ele>
        <time>2026-06-26T08:33:26Z</time>
      </trkpt>
      <trkpt lat="46.07155" lon="6.77325">
        <ele>1686.9</ele>
        <time>2026-06-26T08:33:27Z</time>
      </trkpt>
      <trkpt lat="46.07156" lon="6.77325">
        <ele>1687.1</ele>
        <time>2026-06-26T08:33:28Z</time>
      </trkpt>
      <trkpt lat="46.07156" lon="6.77325">
        <ele>1687.2</ele>
        <time>2026-06-26T08:33:29Z</time>
      </trkpt>
      <trkpt lat="46.07157" lon="6.77326">
        <ele>1687.3</ele>
        <time>2026-06-26T08:33:30Z</time>
      </trkpt>
      <trkpt lat="46.07157" lon="6.77325">
        <ele>1687.5</ele>
        <time>2026-06-26T08:33:31Z</time>
      </trkpt>
      <trkpt lat="46.07157" lon="6.77325">
        <ele>1687.6</ele>
        <time>2026-06-26T08:33:32Z</time>
      </trkpt>
      <trkpt lat="46.07158" lon="6.77326">
        <ele>1687.8</ele>
        <time>2026-06-26T08:33:33Z</time>
      </trkpt>
      <trkpt lat="46.07159" lon="6.77326">
        <ele>1687.9</ele>
        <time>2026-06-26T08:33:34Z</time>
      </trkpt>
      <trkpt lat="46.07159" lon="6.77326">
        <ele>1688.2</ele>
        <time>2026-06-26T08:33:35Z</time>
      </trkpt>
      <trkpt lat="46.0716" lon="6.77326">
        <ele>1688.4</ele>
        <time>2026-06-26T08:33:36Z</time>
      </trkpt>
      <trkpt lat="46.0716" lon="6.77326">
        <ele>1688.4</ele>
        <time>2026-06-26T08:33:37Z</time>
      </trkpt>
      <trkpt lat="46.07161" lon="6.77327">
        <ele>1688.6</ele>
        <time>2026-06-26T08:33:38Z</time>
      </trkpt>
      <trkpt lat="46.07161" lon="6.77327">
        <ele>1688.7</ele>
        <time>2026-06-26T08:33:39Z</time>
      </trkpt>
      <trkpt lat="46.07162" lon="6.77327">
        <ele>1688.8</ele>
        <time>2026-06-26T08:33:40Z</time>
      </trkpt>
      <trkpt lat="46.07163" lon="6.77327">
        <ele>1689</ele>
        <time>2026-06-26T08:33:41Z</time>
      </trkpt>
      <trkpt lat="46.07163" lon="6.77327">
        <ele>1689.2</ele>
        <time>2026-06-26T08:33:42Z</time>
      </trkpt>
      <trkpt lat="46.07164" lon="6.77327">
        <ele>1689.3</ele>
        <time>2026-06-26T08:33:43Z</time>
      </trkpt>
      <trkpt lat="46.07165" lon="6.77327">
        <ele>1689.4</ele>
        <time>2026-06-26T08:33:44Z</time>
      </trkpt>
      <trkpt lat="46.07165" lon="6.77326">
        <ele>1689.6</ele>
        <time>2026-06-26T08:33:45Z</time>
      </trkpt>
      <trkpt lat="46.07166" lon="6.77326">
        <ele>1689.8</ele>
        <time>2026-06-26T08:33:46Z</time>
      </trkpt>
      <trkpt lat="46.07167" lon="6.77326">
        <ele>1690</ele>
        <time>2026-06-26T08:33:47Z</time>
      </trkpt>
      <trkpt lat="46.07167" lon="6.77327">
        <ele>1690.1</ele>
        <time>2026-06-26T08:33:48Z</time>
      </trkpt>
      <trkpt lat="46.07168" lon="6.77326">
        <ele>1690.3</ele>
        <time>2026-06-26T08:33:49Z</time>
      </trkpt>
      <trkpt lat="46.07169" lon="6.77326">
        <ele>1690.6</ele>
        <time>2026-06-26T08:33:50Z</time>
      </trkpt>
      <trkpt lat="46.0717" lon="6.77326">
        <ele>1690.8</ele>
        <time>2026-06-26T08:33:51Z</time>
      </trkpt>
      <trkpt lat="46.07171" lon="6.77326">
        <ele>1690.9</ele>
        <time>2026-06-26T08:33:52Z</time>
      </trkpt>
      <trkpt lat="46.07171" lon="6.77326">
        <ele>1691.1</ele>
        <time>2026-06-26T08:33:53Z</time>
      </trkpt>
      <trkpt lat="46.07172" lon="6.77326">
        <ele>1691.3</ele>
        <time>2026-06-26T08:33:54Z</time>
      </trkpt>
      <trkpt lat="46.07173" lon="6.77326">
        <ele>1691.4</ele>
        <time>2026-06-26T08:33:55Z</time>
      </trkpt>
      <trkpt lat="46.07173" lon="6.77326">
        <ele>1691.5</ele>
        <time>2026-06-26T08:33:56Z</time>
      </trkpt>
      <trkpt lat="46.07174" lon="6.77326">
        <ele>1691.7</ele>
        <time>2026-06-26T08:33:57Z</time>
      </trkpt>
      <trkpt lat="46.07174" lon="6.77326">
        <ele>1691.7</ele>
        <time>2026-06-26T08:33:58Z</time>
      </trkpt>
      <trkpt lat="46.07174" lon="6.77326">
        <ele>1691.8</ele>
        <time>2026-06-26T08:33:59Z</time>
      </trkpt>
      <trkpt lat="46.07175" lon="6.77325">
        <ele>1692.1</ele>
        <time>2026-06-26T08:34:00Z</time>
      </trkpt>
      <trkpt lat="46.07175" lon="6.77325">
        <ele>1692.3</ele>
        <time>2026-06-26T08:34:01Z</time>
      </trkpt>
      <trkpt lat="46.07176" lon="6.77325">
        <ele>1692.5</ele>
        <time>2026-06-26T08:34:02Z</time>
      </trkpt>
      <trkpt lat="46.07176" lon="6.77325">
        <ele>1692.6</ele>
        <time>2026-06-26T08:34:03Z</time>
      </trkpt>
      <trkpt lat="46.07177" lon="6.77326">
        <ele>1692.7</ele>
        <time>2026-06-26T08:34:04Z</time>
      </trkpt>
      <trkpt lat="46.07177" lon="6.77326">
        <ele>1692.8</ele>
        <time>2026-06-26T08:34:05Z</time>
      </trkpt>
      <trkpt lat="46.07177" lon="6.77326">
        <ele>1692.9</ele>
        <time>2026-06-26T08:34:06Z</time>
      </trkpt>
      <trkpt lat="46.07178" lon="6.77326">
        <ele>1693.1</ele>
        <time>2026-06-26T08:34:07Z</time>
      </trkpt>
      <trkpt lat="46.07178" lon="6.77327">
        <ele>1693.3</ele>
        <time>2026-06-26T08:34:08Z</time>
      </trkpt>
      <trkpt lat="46.07178" lon="6.77328">
        <ele>1693.3</ele>
        <time>2026-06-26T08:34:09Z</time>
      </trkpt>
      <trkpt lat="46.07179" lon="6.77328">
        <ele>1693.4</ele>
        <time>2026-06-26T08:34:10Z</time>
      </trkpt>
      <trkpt lat="46.07179" lon="6.77329">
        <ele>1693.5</ele>
        <time>2026-06-26T08:34:11Z</time>
      </trkpt>
      <trkpt lat="46.07179" lon="6.77329">
        <ele>1693.7</ele>
        <time>2026-06-26T08:34:12Z</time>
      </trkpt>
      <trkpt lat="46.07179" lon="6.7733">
        <ele>1693.9</ele>
        <time>2026-06-26T08:34:13Z</time>
      </trkpt>
      <trkpt lat="46.07179" lon="6.77331">
        <ele>1694</ele>
        <time>2026-06-26T08:34:14Z</time>
      </trkpt>
      <trkpt lat="46.07179" lon="6.77332">
        <ele>1694.1</ele>
        <time>2026-06-26T08:34:15Z</time>
      </trkpt>
      <trkpt lat="46.07179" lon="6.77332">
        <ele>1694.2</ele>
        <time>2026-06-26T08:34:16Z</time>
      </trkpt>
      <trkpt lat="46.07179" lon="6.77332">
        <ele>1694.2</ele>
        <time>2026-06-26T08:34:17Z</time>
      </trkpt>
      <trkpt lat="46.07179" lon="6.77333">
        <ele>1694.3</ele>
        <time>2026-06-26T08:34:18Z</time>
      </trkpt>
      <trkpt lat="46.07179" lon="6.77334">
        <ele>1694.4</ele>
        <time>2026-06-26T08:34:19Z</time>
      </trkpt>
      <trkpt lat="46.0718" lon="6.77335">
        <ele>1694.5</ele>
        <time>2026-06-26T08:34:20Z</time>
      </trkpt>
      <trkpt lat="46.0718" lon="6.77336">
        <ele>1694.7</ele>
        <time>2026-06-26T08:34:21Z</time>
      </trkpt>
      <trkpt lat="46.07179" lon="6.77337">
        <ele>1695</ele>
        <time>2026-06-26T08:34:22Z</time>
      </trkpt>
      <trkpt lat="46.07179" lon="6.77338">
        <ele>1695.2</ele>
        <time>2026-06-26T08:34:23Z</time>
      </trkpt>
      <trkpt lat="46.07179" lon="6.77339">
        <ele>1695.3</ele>
        <time>2026-06-26T08:34:24Z</time>
      </trkpt>
      <trkpt lat="46.07179" lon="6.7734">
        <ele>1695.4</ele>
        <time>2026-06-26T08:34:25Z</time>
      </trkpt>
      <trkpt lat="46.07179" lon="6.77341">
        <ele>1695.5</ele>
        <time>2026-06-26T08:34:26Z</time>
      </trkpt>
      <trkpt lat="46.07179" lon="6.77342">
        <ele>1695.6</ele>
        <time>2026-06-26T08:34:27Z</time>
      </trkpt>
      <trkpt lat="46.07179" lon="6.77343">
        <ele>1695.7</ele>
        <time>2026-06-26T08:34:28Z</time>
      </trkpt>
      <trkpt lat="46.07179" lon="6.77343">
        <ele>1695.8</ele>
        <time>2026-06-26T08:34:29Z</time>
      </trkpt>
      <trkpt lat="46.0718" lon="6.77344">
        <ele>1695.9</ele>
        <time>2026-06-26T08:34:30Z</time>
      </trkpt>
      <trkpt lat="46.07179" lon="6.77345">
        <ele>1696</ele>
        <time>2026-06-26T08:34:31Z</time>
      </trkpt>
      <trkpt lat="46.0718" lon="6.77346">
        <ele>1696</ele>
        <time>2026-06-26T08:34:32Z</time>
      </trkpt>
      <trkpt lat="46.0718" lon="6.77346">
        <ele>1696.1</ele>
        <time>2026-06-26T08:34:33Z</time>
      </trkpt>
      <trkpt lat="46.0718" lon="6.77347">
        <ele>1696.3</ele>
        <time>2026-06-26T08:34:34Z</time>
      </trkpt>
      <trkpt lat="46.0718" lon="6.77348">
        <ele>1696.4</ele>
        <time>2026-06-26T08:34:35Z</time>
      </trkpt>
      <trkpt lat="46.07181" lon="6.77349">
        <ele>1696.5</ele>
        <time>2026-06-26T08:34:36Z</time>
      </trkpt>
      <trkpt lat="46.07181" lon="6.7735">
        <ele>1696.7</ele>
        <time>2026-06-26T08:34:37Z</time>
      </trkpt>
      <trkpt lat="46.07181" lon="6.77351">
        <ele>1696.9</ele>
        <time>2026-06-26T08:34:38Z</time>
      </trkpt>
      <trkpt lat="46.07181" lon="6.77352">
        <ele>1697.1</ele>
        <time>2026-06-26T08:34:39Z</time>
      </trkpt>
      <trkpt lat="46.07181" lon="6.77353">
        <ele>1697.3</ele>
        <time>2026-06-26T08:34:40Z</time>
      </trkpt>
      <trkpt lat="46.07181" lon="6.77354">
        <ele>1697.3</ele>
        <time>2026-06-26T08:34:41Z</time>
      </trkpt>
      <trkpt lat="46.07181" lon="6.77355">
        <ele>1697.4</ele>
        <time>2026-06-26T08:34:42Z</time>
      </trkpt>
      <trkpt lat="46.07182" lon="6.77356">
        <ele>1697.5</ele>
        <time>2026-06-26T08:34:43Z</time>
      </trkpt>
      <trkpt lat="46.07182" lon="6.77357">
        <ele>1697.8</ele>
        <time>2026-06-26T08:34:44Z</time>
      </trkpt>
      <trkpt lat="46.07182" lon="6.77358">
        <ele>1697.9</ele>
        <time>2026-06-26T08:34:45Z</time>
      </trkpt>
      <trkpt lat="46.07182" lon="6.7736">
        <ele>1698.1</ele>
        <time>2026-06-26T08:34:46Z</time>
      </trkpt>
      <trkpt lat="46.07182" lon="6.77361">
        <ele>1698.2</ele>
        <time>2026-06-26T08:34:47Z</time>
      </trkpt>
      <trkpt lat="46.07182" lon="6.77362">
        <ele>1698.4</ele>
        <time>2026-06-26T08:34:48Z</time>
      </trkpt>
      <trkpt lat="46.07182" lon="6.77363">
        <ele>1698.4</ele>
        <time>2026-06-26T08:34:49Z</time>
      </trkpt>
      <trkpt lat="46.07182" lon="6.77364">
        <ele>1698.6</ele>
        <time>2026-06-26T08:34:50Z</time>
      </trkpt>
      <trkpt lat="46.07182" lon="6.77365">
        <ele>1698.8</ele>
        <time>2026-06-26T08:34:51Z</time>
      </trkpt>
      <trkpt lat="46.07182" lon="6.77366">
        <ele>1698.9</ele>
        <time>2026-06-26T08:34:52Z</time>
      </trkpt>
      <trkpt lat="46.07182" lon="6.77367">
        <ele>1699</ele>
        <time>2026-06-26T08:34:53Z</time>
      </trkpt>
      <trkpt lat="46.07182" lon="6.77369">
        <ele>1699.1</ele>
        <time>2026-06-26T08:34:54Z</time>
      </trkpt>
      <trkpt lat="46.07182" lon="6.7737">
        <ele>1699.3</ele>
        <time>2026-06-26T08:34:55Z</time>
      </trkpt>
      <trkpt lat="46.07181" lon="6.77371">
        <ele>1699.4</ele>
        <time>2026-06-26T08:34:56Z</time>
      </trkpt>
      <trkpt lat="46.07181" lon="6.77372">
        <ele>1699.5</ele>
        <time>2026-06-26T08:34:57Z</time>
      </trkpt>
      <trkpt lat="46.07181" lon="6.77373">
        <ele>1699.6</ele>
        <time>2026-06-26T08:34:58Z</time>
      </trkpt>
      <trkpt lat="46.07181" lon="6.77374">
        <ele>1699.8</ele>
        <time>2026-06-26T08:34:59Z</time>
      </trkpt>
      <trkpt lat="46.07181" lon="6.77375">
        <ele>1699.9</ele>
        <time>2026-06-26T08:35:00Z</time>
      </trkpt>
      <trkpt lat="46.0718" lon="6.77376">
        <ele>1699.9</ele>
        <time>2026-06-26T08:35:01Z</time>
      </trkpt>
      <trkpt lat="46.0718" lon="6.77377">
        <ele>1700</ele>
        <time>2026-06-26T08:35:02Z</time>
      </trkpt>
      <trkpt lat="46.0718" lon="6.77378">
        <ele>1700.2</ele>
        <time>2026-06-26T08:35:03Z</time>
      </trkpt>
      <trkpt lat="46.0718" lon="6.77379">
        <ele>1700.3</ele>
        <time>2026-06-26T08:35:04Z</time>
      </trkpt>
      <trkpt lat="46.0718" lon="6.7738">
        <ele>1700.6</ele>
        <time>2026-06-26T08:35:05Z</time>
      </trkpt>
      <trkpt lat="46.0718" lon="6.77381">
        <ele>1700.8</ele>
        <time>2026-06-26T08:35:06Z</time>
      </trkpt>
      <trkpt lat="46.07179" lon="6.77382">
        <ele>1700.9</ele>
        <time>2026-06-26T08:35:07Z</time>
      </trkpt>
      <trkpt lat="46.07179" lon="6.77383">
        <ele>1701</ele>
        <time>2026-06-26T08:35:08Z</time>
      </trkpt>
      <trkpt lat="46.07179" lon="6.77384">
        <ele>1701.1</ele>
        <time>2026-06-26T08:35:09Z</time>
      </trkpt>
      <trkpt lat="46.07179" lon="6.77385">
        <ele>1701.2</ele>
        <time>2026-06-26T08:35:10Z</time>
      </trkpt>
      <trkpt lat="46.07179" lon="6.77386">
        <ele>1701.3</ele>
        <time>2026-06-26T08:35:11Z</time>
      </trkpt>
      <trkpt lat="46.07178" lon="6.77387">
        <ele>1701.3</ele>
        <time>2026-06-26T08:35:12Z</time>
      </trkpt>
      <trkpt lat="46.07178" lon="6.77388">
        <ele>1701.4</ele>
        <time>2026-06-26T08:35:13Z</time>
      </trkpt>
      <trkpt lat="46.07178" lon="6.77389">
        <ele>1701.6</ele>
        <time>2026-06-26T08:35:14Z</time>
      </trkpt>
      <trkpt lat="46.07178" lon="6.7739">
        <ele>1701.8</ele>
        <time>2026-06-26T08:35:15Z</time>
      </trkpt>
      <trkpt lat="46.07178" lon="6.77391">
        <ele>1702</ele>
        <time>2026-06-26T08:35:16Z</time>
      </trkpt>
      <trkpt lat="46.07178" lon="6.77392">
        <ele>1702.1</ele>
        <time>2026-06-26T08:35:17Z</time>
      </trkpt>
      <trkpt lat="46.07178" lon="6.77393">
        <ele>1702.2</ele>
        <time>2026-06-26T08:35:18Z</time>
      </trkpt>
      <trkpt lat="46.07179" lon="6.77394">
        <ele>1702.3</ele>
        <time>2026-06-26T08:35:19Z</time>
      </trkpt>
      <trkpt lat="46.07179" lon="6.77395">
        <ele>1702.5</ele>
        <time>2026-06-26T08:35:20Z</time>
      </trkpt>
      <trkpt lat="46.07179" lon="6.77396">
        <ele>1702.7</ele>
        <time>2026-06-26T08:35:21Z</time>
      </trkpt>
      <trkpt lat="46.07179" lon="6.77397">
        <ele>1702.9</ele>
        <time>2026-06-26T08:35:22Z</time>
      </trkpt>
      <trkpt lat="46.07179" lon="6.77398">
        <ele>1702.9</ele>
        <time>2026-06-26T08:35:23Z</time>
      </trkpt>
      <trkpt lat="46.07179" lon="6.77399">
        <ele>1702.9</ele>
        <time>2026-06-26T08:35:24Z</time>
      </trkpt>
      <trkpt lat="46.07179" lon="6.774">
        <ele>1703.1</ele>
        <time>2026-06-26T08:35:25Z</time>
      </trkpt>
      <trkpt lat="46.07179" lon="6.77401">
        <ele>1703.3</ele>
        <time>2026-06-26T08:35:26Z</time>
      </trkpt>
      <trkpt lat="46.07179" lon="6.77402">
        <ele>1703.5</ele>
        <time>2026-06-26T08:35:27Z</time>
      </trkpt>
      <trkpt lat="46.0718" lon="6.77403">
        <ele>1703.7</ele>
        <time>2026-06-26T08:35:28Z</time>
      </trkpt>
      <trkpt lat="46.0718" lon="6.77403">
        <ele>1703.8</ele>
        <time>2026-06-26T08:35:29Z</time>
      </trkpt>
      <trkpt lat="46.0718" lon="6.77404">
        <ele>1704</ele>
        <time>2026-06-26T08:35:30Z</time>
      </trkpt>
      <trkpt lat="46.07181" lon="6.77405">
        <ele>1704.2</ele>
        <time>2026-06-26T08:35:31Z</time>
      </trkpt>
      <trkpt lat="46.07181" lon="6.77406">
        <ele>1704.3</ele>
        <time>2026-06-26T08:35:32Z</time>
      </trkpt>
      <trkpt lat="46.07181" lon="6.77407">
        <ele>1704.4</ele>
        <time>2026-06-26T08:35:33Z</time>
      </trkpt>
      <trkpt lat="46.07181" lon="6.77409">
        <ele>1704.6</ele>
        <time>2026-06-26T08:35:34Z</time>
      </trkpt>
      <trkpt lat="46.07181" lon="6.7741">
        <ele>1704.7</ele>
        <time>2026-06-26T08:35:35Z</time>
      </trkpt>
      <trkpt lat="46.07181" lon="6.77411">
        <ele>1704.8</ele>
        <time>2026-06-26T08:35:36Z</time>
      </trkpt>
      <trkpt lat="46.07182" lon="6.77411">
        <ele>1704.9</ele>
        <time>2026-06-26T08:35:37Z</time>
      </trkpt>
      <trkpt lat="46.07182" lon="6.77412">
        <ele>1705</ele>
        <time>2026-06-26T08:35:38Z</time>
      </trkpt>
      <trkpt lat="46.07182" lon="6.77413">
        <ele>1705.2</ele>
        <time>2026-06-26T08:35:39Z</time>
      </trkpt>
      <trkpt lat="46.07182" lon="6.77414">
        <ele>1705.3</ele>
        <time>2026-06-26T08:35:40Z</time>
      </trkpt>
      <trkpt lat="46.07183" lon="6.77414">
        <ele>1705.5</ele>
        <time>2026-06-26T08:35:41Z</time>
      </trkpt>
      <trkpt lat="46.07183" lon="6.77415">
        <ele>1705.6</ele>
        <time>2026-06-26T08:35:42Z</time>
      </trkpt>
      <trkpt lat="46.07183" lon="6.77415">
        <ele>1705.8</ele>
        <time>2026-06-26T08:35:43Z</time>
      </trkpt>
      <trkpt lat="46.07184" lon="6.77416">
        <ele>1705.9</ele>
        <time>2026-06-26T08:35:44Z</time>
      </trkpt>
      <trkpt lat="46.07184" lon="6.77416">
        <ele>1706</ele>
        <time>2026-06-26T08:35:45Z</time>
      </trkpt>
      <trkpt lat="46.07184" lon="6.77417">
        <ele>1706.1</ele>
        <time>2026-06-26T08:35:46Z</time>
      </trkpt>
      <trkpt lat="46.07185" lon="6.77418">
        <ele>1706.4</ele>
        <time>2026-06-26T08:35:47Z</time>
      </trkpt>
      <trkpt lat="46.07185" lon="6.77418">
        <ele>1706.6</ele>
        <time>2026-06-26T08:35:48Z</time>
      </trkpt>
      <trkpt lat="46.07185" lon="6.77419">
        <ele>1706.7</ele>
        <time>2026-06-26T08:35:49Z</time>
      </trkpt>
      <trkpt lat="46.07186" lon="6.7742">
        <ele>1706.9</ele>
        <time>2026-06-26T08:35:50Z</time>
      </trkpt>
      <trkpt lat="46.07186" lon="6.7742">
        <ele>1707</ele>
        <time>2026-06-26T08:35:51Z</time>
      </trkpt>
      <trkpt lat="46.07187" lon="6.77421">
        <ele>1707.1</ele>
        <time>2026-06-26T08:35:52Z</time>
      </trkpt>
      <trkpt lat="46.07187" lon="6.77422">
        <ele>1707.1</ele>
        <time>2026-06-26T08:35:53Z</time>
      </trkpt>
      <trkpt lat="46.07187" lon="6.77423">
        <ele>1707.4</ele>
        <time>2026-06-26T08:35:54Z</time>
      </trkpt>
      <trkpt lat="46.07188" lon="6.77424">
        <ele>1707.6</ele>
        <time>2026-06-26T08:35:55Z</time>
      </trkpt>
      <trkpt lat="46.07188" lon="6.77425">
        <ele>1707.7</ele>
        <time>2026-06-26T08:35:56Z</time>
      </trkpt>
      <trkpt lat="46.07189" lon="6.77426">
        <ele>1707.9</ele>
        <time>2026-06-26T08:35:57Z</time>
      </trkpt>
      <trkpt lat="46.07189" lon="6.77426">
        <ele>1708</ele>
        <time>2026-06-26T08:35:58Z</time>
      </trkpt>
      <trkpt lat="46.07189" lon="6.77427">
        <ele>1708.1</ele>
        <time>2026-06-26T08:35:59Z</time>
      </trkpt>
      <trkpt lat="46.0719" lon="6.77428">
        <ele>1708.2</ele>
        <time>2026-06-26T08:36:00Z</time>
      </trkpt>
      <trkpt lat="46.0719" lon="6.77429">
        <ele>1708.2</ele>
        <time>2026-06-26T08:36:01Z</time>
      </trkpt>
      <trkpt lat="46.0719" lon="6.7743">
        <ele>1708.3</ele>
        <time>2026-06-26T08:36:02Z</time>
      </trkpt>
      <trkpt lat="46.07191" lon="6.77431">
        <ele>1708.4</ele>
        <time>2026-06-26T08:36:03Z</time>
      </trkpt>
      <trkpt lat="46.07191" lon="6.77432">
        <ele>1708.5</ele>
        <time>2026-06-26T08:36:04Z</time>
      </trkpt>
      <trkpt lat="46.07191" lon="6.77433">
        <ele>1708.6</ele>
        <time>2026-06-26T08:36:05Z</time>
      </trkpt>
      <trkpt lat="46.07191" lon="6.77433">
        <ele>1708.7</ele>
        <time>2026-06-26T08:36:06Z</time>
      </trkpt>
      <trkpt lat="46.07192" lon="6.77434">
        <ele>1708.8</ele>
        <time>2026-06-26T08:36:07Z</time>
      </trkpt>
      <trkpt lat="46.07192" lon="6.77435">
        <ele>1708.9</ele>
        <time>2026-06-26T08:36:08Z</time>
      </trkpt>
      <trkpt lat="46.07191" lon="6.77436">
        <ele>1709</ele>
        <time>2026-06-26T08:36:09Z</time>
      </trkpt>
      <trkpt lat="46.07191" lon="6.77436">
        <ele>1709.2</ele>
        <time>2026-06-26T08:36:10Z</time>
      </trkpt>
      <trkpt lat="46.07191" lon="6.77437">
        <ele>1709.3</ele>
        <time>2026-06-26T08:36:11Z</time>
      </trkpt>
      <trkpt lat="46.07191" lon="6.77438">
        <ele>1709.4</ele>
        <time>2026-06-26T08:36:12Z</time>
      </trkpt>
      <trkpt lat="46.07191" lon="6.77438">
        <ele>1709.6</ele>
        <time>2026-06-26T08:36:13Z</time>
      </trkpt>
      <trkpt lat="46.07191" lon="6.7744">
        <ele>1709.6</ele>
        <time>2026-06-26T08:36:14Z</time>
      </trkpt>
      <trkpt lat="46.07191" lon="6.77441">
        <ele>1709.5</ele>
        <time>2026-06-26T08:36:15Z</time>
      </trkpt>
      <trkpt lat="46.07191" lon="6.77441">
        <ele>1709.6</ele>
        <time>2026-06-26T08:36:16Z</time>
      </trkpt>
      <trkpt lat="46.07191" lon="6.77442">
        <ele>1709.6</ele>
        <time>2026-06-26T08:36:17Z</time>
      </trkpt>
      <trkpt lat="46.07191" lon="6.77443">
        <ele>1709.7</ele>
        <time>2026-06-26T08:36:18Z</time>
      </trkpt>
      <trkpt lat="46.07191" lon="6.77443">
        <ele>1709.8</ele>
        <time>2026-06-26T08:36:19Z</time>
      </trkpt>
      <trkpt lat="46.07191" lon="6.77443">
        <ele>1709.8</ele>
        <time>2026-06-26T08:36:20Z</time>
      </trkpt>
      <trkpt lat="46.07191" lon="6.77443">
        <ele>1709.9</ele>
        <time>2026-06-26T08:36:21Z</time>
      </trkpt>
      <trkpt lat="46.07191" lon="6.77443">
        <ele>1709.9</ele>
        <time>2026-06-26T08:36:22Z</time>
      </trkpt>
      <trkpt lat="46.07191" lon="6.77443">
        <ele>1710</ele>
        <time>2026-06-26T08:36:23Z</time>
      </trkpt>
      <trkpt lat="46.07191" lon="6.77443">
        <ele>1710</ele>
        <time>2026-06-26T08:36:24Z</time>
      </trkpt>
      <trkpt lat="46.0719" lon="6.77443">
        <ele>1710</ele>
        <time>2026-06-26T08:36:25Z</time>
      </trkpt>
      <trkpt lat="46.0719" lon="6.77443">
        <ele>1710</ele>
        <time>2026-06-26T08:36:26Z</time>
      </trkpt>
      <trkpt lat="46.07191" lon="6.77444">
        <ele>1710.1</ele>
        <time>2026-06-26T08:36:27Z</time>
      </trkpt>
      <trkpt lat="46.0719" lon="6.77445">
        <ele>1710.1</ele>
        <time>2026-06-26T08:36:28Z</time>
      </trkpt>
      <trkpt lat="46.0719" lon="6.77446">
        <ele>1710.1</ele>
        <time>2026-06-26T08:36:29Z</time>
      </trkpt>
      <trkpt lat="46.0719" lon="6.77446">
        <ele>1710.1</ele>
        <time>2026-06-26T08:36:30Z</time>
      </trkpt>
      <trkpt lat="46.0719" lon="6.77447">
        <ele>1710.1</ele>
        <time>2026-06-26T08:36:31Z</time>
      </trkpt>
      <trkpt lat="46.07189" lon="6.77448">
        <ele>1710.1</ele>
        <time>2026-06-26T08:36:32Z</time>
      </trkpt>
      <trkpt lat="46.07189" lon="6.77449">
        <ele>1710.1</ele>
        <time>2026-06-26T08:36:33Z</time>
      </trkpt>
      <trkpt lat="46.07189" lon="6.7745">
        <ele>1710.1</ele>
        <time>2026-06-26T08:36:34Z</time>
      </trkpt>
      <trkpt lat="46.07189" lon="6.77452">
        <ele>1710.1</ele>
        <time>2026-06-26T08:36:35Z</time>
      </trkpt>
      <trkpt lat="46.07189" lon="6.77453">
        <ele>1710.1</ele>
        <time>2026-06-26T08:36:36Z</time>
      </trkpt>
      <trkpt lat="46.0719" lon="6.77454">
        <ele>1710.2</ele>
        <time>2026-06-26T08:36:37Z</time>
      </trkpt>
      <trkpt lat="46.0719" lon="6.77454">
        <ele>1710.3</ele>
        <time>2026-06-26T08:36:38Z</time>
      </trkpt>
      <trkpt lat="46.0719" lon="6.77456">
        <ele>1710.4</ele>
        <time>2026-06-26T08:36:39Z</time>
      </trkpt>
      <trkpt lat="46.0719" lon="6.77457">
        <ele>1710.5</ele>
        <time>2026-06-26T08:36:40Z</time>
      </trkpt>
      <trkpt lat="46.0719" lon="6.77458">
        <ele>1710.7</ele>
        <time>2026-06-26T08:36:41Z</time>
      </trkpt>
      <trkpt lat="46.0719" lon="6.77459">
        <ele>1710.7</ele>
        <time>2026-06-26T08:36:42Z</time>
      </trkpt>
      <trkpt lat="46.07191" lon="6.7746">
        <ele>1710.8</ele>
        <time>2026-06-26T08:36:43Z</time>
      </trkpt>
      <trkpt lat="46.07191" lon="6.77461">
        <ele>1710.8</ele>
        <time>2026-06-26T08:36:44Z</time>
      </trkpt>
      <trkpt lat="46.07191" lon="6.77462">
        <ele>1710.9</ele>
        <time>2026-06-26T08:36:45Z</time>
      </trkpt>
      <trkpt lat="46.0719" lon="6.77463">
        <ele>1711</ele>
        <time>2026-06-26T08:36:46Z</time>
      </trkpt>
      <trkpt lat="46.0719" lon="6.77464">
        <ele>1711.1</ele>
        <time>2026-06-26T08:36:47Z</time>
      </trkpt>
      <trkpt lat="46.0719" lon="6.77465">
        <ele>1711.1</ele>
        <time>2026-06-26T08:36:48Z</time>
      </trkpt>
      <trkpt lat="46.07189" lon="6.77466">
        <ele>1711.3</ele>
        <time>2026-06-26T08:36:49Z</time>
      </trkpt>
      <trkpt lat="46.07189" lon="6.77467">
        <ele>1711.4</ele>
        <time>2026-06-26T08:36:50Z</time>
      </trkpt>
      <trkpt lat="46.07188" lon="6.77467">
        <ele>1711.4</ele>
        <time>2026-06-26T08:36:51Z</time>
      </trkpt>
      <trkpt lat="46.07188" lon="6.77468">
        <ele>1711.5</ele>
        <time>2026-06-26T08:36:52Z</time>
      </trkpt>
      <trkpt lat="46.07188" lon="6.77468">
        <ele>1711.6</ele>
        <time>2026-06-26T08:36:53Z</time>
      </trkpt>
      <trkpt lat="46.07187" lon="6.77468">
        <ele>1711.7</ele>
        <time>2026-06-26T08:36:54Z</time>
      </trkpt>
      <trkpt lat="46.07186" lon="6.77468">
        <ele>1712</ele>
        <time>2026-06-26T08:36:55Z</time>
      </trkpt>
      <trkpt lat="46.07186" lon="6.77469">
        <ele>1712.1</ele>
        <time>2026-06-26T08:36:56Z</time>
      </trkpt>
      <trkpt lat="46.07185" lon="6.77469">
        <ele>1712.2</ele>
        <time>2026-06-26T08:36:57Z</time>
      </trkpt>
      <trkpt lat="46.07185" lon="6.77469">
        <ele>1712.3</ele>
        <time>2026-06-26T08:36:58Z</time>
      </trkpt>
      <trkpt lat="46.07184" lon="6.77469">
        <ele>1712.4</ele>
        <time>2026-06-26T08:36:59Z</time>
      </trkpt>
      <trkpt lat="46.07184" lon="6.77469">
        <ele>1712.7</ele>
        <time>2026-06-26T08:37:00Z</time>
      </trkpt>
      <trkpt lat="46.07183" lon="6.77469">
        <ele>1712.9</ele>
        <time>2026-06-26T08:37:01Z</time>
      </trkpt>
      <trkpt lat="46.07183" lon="6.7747">
        <ele>1713</ele>
        <time>2026-06-26T08:37:02Z</time>
      </trkpt>
      <trkpt lat="46.07182" lon="6.7747">
        <ele>1713.1</ele>
        <time>2026-06-26T08:37:03Z</time>
      </trkpt>
      <trkpt lat="46.07182" lon="6.7747">
        <ele>1713.2</ele>
        <time>2026-06-26T08:37:04Z</time>
      </trkpt>
      <trkpt lat="46.07182" lon="6.77471">
        <ele>1713.4</ele>
        <time>2026-06-26T08:37:05Z</time>
      </trkpt>
      <trkpt lat="46.07182" lon="6.77471">
        <ele>1713.6</ele>
        <time>2026-06-26T08:37:06Z</time>
      </trkpt>
      <trkpt lat="46.07182" lon="6.77471">
        <ele>1713.7</ele>
        <time>2026-06-26T08:37:07Z</time>
      </trkpt>
      <trkpt lat="46.07181" lon="6.77471">
        <ele>1713.7</ele>
        <time>2026-06-26T08:37:08Z</time>
      </trkpt>
      <trkpt lat="46.07181" lon="6.77471">
        <ele>1713.8</ele>
        <time>2026-06-26T08:37:09Z</time>
      </trkpt>
      <trkpt lat="46.0718" lon="6.77471">
        <ele>1714</ele>
        <time>2026-06-26T08:37:10Z</time>
      </trkpt>
      <trkpt lat="46.07179" lon="6.77471">
        <ele>1714.1</ele>
        <time>2026-06-26T08:37:11Z</time>
      </trkpt>
      <trkpt lat="46.07179" lon="6.77471">
        <ele>1714.3</ele>
        <time>2026-06-26T08:37:12Z</time>
      </trkpt>
      <trkpt lat="46.07179" lon="6.77472">
        <ele>1714.6</ele>
        <time>2026-06-26T08:37:13Z</time>
      </trkpt>
      <trkpt lat="46.07178" lon="6.77472">
        <ele>1714.8</ele>
        <time>2026-06-26T08:37:14Z</time>
      </trkpt>
      <trkpt lat="46.07178" lon="6.77472">
        <ele>1715</ele>
        <time>2026-06-26T08:37:15Z</time>
      </trkpt>
      <trkpt lat="46.07178" lon="6.77473">
        <ele>1715.2</ele>
        <time>2026-06-26T08:37:16Z</time>
      </trkpt>
      <trkpt lat="46.07178" lon="6.77474">
        <ele>1715.3</ele>
        <time>2026-06-26T08:37:17Z</time>
      </trkpt>
      <trkpt lat="46.07177" lon="6.77474">
        <ele>1715.4</ele>
        <time>2026-06-26T08:37:18Z</time>
      </trkpt>
      <trkpt lat="46.07177" lon="6.77475">
        <ele>1715.5</ele>
        <time>2026-06-26T08:37:19Z</time>
      </trkpt>
      <trkpt lat="46.07177" lon="6.77475">
        <ele>1715.7</ele>
        <time>2026-06-26T08:37:20Z</time>
      </trkpt>
      <trkpt lat="46.07177" lon="6.77475">
        <ele>1715.8</ele>
        <time>2026-06-26T08:37:21Z</time>
      </trkpt>
      <trkpt lat="46.07177" lon="6.77476">
        <ele>1715.9</ele>
        <time>2026-06-26T08:37:22Z</time>
      </trkpt>
      <trkpt lat="46.07176" lon="6.77477">
        <ele>1716</ele>
        <time>2026-06-26T08:37:23Z</time>
      </trkpt>
      <trkpt lat="46.07176" lon="6.77477">
        <ele>1716.1</ele>
        <time>2026-06-26T08:37:24Z</time>
      </trkpt>
      <trkpt lat="46.07176" lon="6.77478">
        <ele>1716.2</ele>
        <time>2026-06-26T08:37:25Z</time>
      </trkpt>
      <trkpt lat="46.07175" lon="6.77479">
        <ele>1716.4</ele>
        <time>2026-06-26T08:37:26Z</time>
      </trkpt>
      <trkpt lat="46.07175" lon="6.77479">
        <ele>1716.6</ele>
        <time>2026-06-26T08:37:27Z</time>
      </trkpt>
      <trkpt lat="46.07175" lon="6.77479">
        <ele>1716.8</ele>
        <time>2026-06-26T08:37:28Z</time>
      </trkpt>
      <trkpt lat="46.07175" lon="6.77479">
        <ele>1717</ele>
        <time>2026-06-26T08:37:29Z</time>
      </trkpt>
      <trkpt lat="46.07174" lon="6.7748">
        <ele>1717.2</ele>
        <time>2026-06-26T08:37:30Z</time>
      </trkpt>
      <trkpt lat="46.07174" lon="6.7748">
        <ele>1717.3</ele>
        <time>2026-06-26T08:37:31Z</time>
      </trkpt>
      <trkpt lat="46.07173" lon="6.7748">
        <ele>1717.5</ele>
        <time>2026-06-26T08:37:32Z</time>
      </trkpt>
      <trkpt lat="46.07173" lon="6.77481">
        <ele>1717.7</ele>
        <time>2026-06-26T08:37:33Z</time>
      </trkpt>
      <trkpt lat="46.07173" lon="6.77481">
        <ele>1717.9</ele>
        <time>2026-06-26T08:37:34Z</time>
      </trkpt>
      <trkpt lat="46.07173" lon="6.77482">
        <ele>1718</ele>
        <time>2026-06-26T08:37:35Z</time>
      </trkpt>
      <trkpt lat="46.07172" lon="6.77483">
        <ele>1718.2</ele>
        <time>2026-06-26T08:37:36Z</time>
      </trkpt>
      <trkpt lat="46.07172" lon="6.77484">
        <ele>1718.5</ele>
        <time>2026-06-26T08:37:37Z</time>
      </trkpt>
      <trkpt lat="46.07171" lon="6.77485">
        <ele>1718.6</ele>
        <time>2026-06-26T08:37:38Z</time>
      </trkpt>
      <trkpt lat="46.07171" lon="6.77485">
        <ele>1718.8</ele>
        <time>2026-06-26T08:37:39Z</time>
      </trkpt>
      <trkpt lat="46.07171" lon="6.77486">
        <ele>1719</ele>
        <time>2026-06-26T08:37:40Z</time>
      </trkpt>
      <trkpt lat="46.0717" lon="6.77486">
        <ele>1719.1</ele>
        <time>2026-06-26T08:37:41Z</time>
      </trkpt>
      <trkpt lat="46.0717" lon="6.77486">
        <ele>1719.3</ele>
        <time>2026-06-26T08:37:42Z</time>
      </trkpt>
      <trkpt lat="46.07169" lon="6.77486">
        <ele>1719.4</ele>
        <time>2026-06-26T08:37:43Z</time>
      </trkpt>
      <trkpt lat="46.07169" lon="6.77487">
        <ele>1719.5</ele>
        <time>2026-06-26T08:37:44Z</time>
      </trkpt>
      <trkpt lat="46.07169" lon="6.77487">
        <ele>1719.6</ele>
        <time>2026-06-26T08:37:45Z</time>
      </trkpt>
      <trkpt lat="46.07168" lon="6.77488">
        <ele>1719.7</ele>
        <time>2026-06-26T08:37:46Z</time>
      </trkpt>
      <trkpt lat="46.07168" lon="6.77489">
        <ele>1719.8</ele>
        <time>2026-06-26T08:37:47Z</time>
      </trkpt>
      <trkpt lat="46.07168" lon="6.77489">
        <ele>1720</ele>
        <time>2026-06-26T08:37:48Z</time>
      </trkpt>
      <trkpt lat="46.07168" lon="6.7749">
        <ele>1720.1</ele>
        <time>2026-06-26T08:37:49Z</time>
      </trkpt>
      <trkpt lat="46.07168" lon="6.7749">
        <ele>1720.3</ele>
        <time>2026-06-26T08:37:50Z</time>
      </trkpt>
      <trkpt lat="46.07168" lon="6.77492">
        <ele>1720.5</ele>
        <time>2026-06-26T08:37:51Z</time>
      </trkpt>
      <trkpt lat="46.07168" lon="6.77492">
        <ele>1720.6</ele>
        <time>2026-06-26T08:37:52Z</time>
      </trkpt>
      <trkpt lat="46.07168" lon="6.77493">
        <ele>1720.7</ele>
        <time>2026-06-26T08:37:53Z</time>
      </trkpt>
      <trkpt lat="46.07167" lon="6.77494">
        <ele>1720.8</ele>
        <time>2026-06-26T08:37:54Z</time>
      </trkpt>
      <trkpt lat="46.07167" lon="6.77495">
        <ele>1720.9</ele>
        <time>2026-06-26T08:37:55Z</time>
      </trkpt>
      <trkpt lat="46.07167" lon="6.77496">
        <ele>1721.1</ele>
        <time>2026-06-26T08:37:56Z</time>
      </trkpt>
      <trkpt lat="46.07166" lon="6.77497">
        <ele>1721.3</ele>
        <time>2026-06-26T08:37:57Z</time>
      </trkpt>
      <trkpt lat="46.07166" lon="6.77498">
        <ele>1721.4</ele>
        <time>2026-06-26T08:37:58Z</time>
      </trkpt>
      <trkpt lat="46.07166" lon="6.77498">
        <ele>1721.7</ele>
        <time>2026-06-26T08:37:59Z</time>
      </trkpt>
      <trkpt lat="46.07166" lon="6.77499">
        <ele>1721.9</ele>
        <time>2026-06-26T08:38:00Z</time>
      </trkpt>
      <trkpt lat="46.07166" lon="6.775">
        <ele>1722.1</ele>
        <time>2026-06-26T08:38:01Z</time>
      </trkpt>
      <trkpt lat="46.07166" lon="6.77501">
        <ele>1722.3</ele>
        <time>2026-06-26T08:38:02Z</time>
      </trkpt>
      <trkpt lat="46.07166" lon="6.77501">
        <ele>1722.4</ele>
        <time>2026-06-26T08:38:03Z</time>
      </trkpt>
      <trkpt lat="46.07166" lon="6.77502">
        <ele>1722.6</ele>
        <time>2026-06-26T08:38:04Z</time>
      </trkpt>
      <trkpt lat="46.07166" lon="6.77504">
        <ele>1722.8</ele>
        <time>2026-06-26T08:38:05Z</time>
      </trkpt>
      <trkpt lat="46.07166" lon="6.77504">
        <ele>1723</ele>
        <time>2026-06-26T08:38:06Z</time>
      </trkpt>
      <trkpt lat="46.07166" lon="6.77506">
        <ele>1723.1</ele>
        <time>2026-06-26T08:38:07Z</time>
      </trkpt>
      <trkpt lat="46.07166" lon="6.77507">
        <ele>1723.4</ele>
        <time>2026-06-26T08:38:08Z</time>
      </trkpt>
      <trkpt lat="46.07166" lon="6.77508">
        <ele>1723.6</ele>
        <time>2026-06-26T08:38:09Z</time>
      </trkpt>
      <trkpt lat="46.07166" lon="6.77508">
        <ele>1723.8</ele>
        <time>2026-06-26T08:38:10Z</time>
      </trkpt>
      <trkpt lat="46.07167" lon="6.77509">
        <ele>1723.9</ele>
        <time>2026-06-26T08:38:11Z</time>
      </trkpt>
      <trkpt lat="46.07166" lon="6.77509">
        <ele>1724.1</ele>
        <time>2026-06-26T08:38:12Z</time>
      </trkpt>
      <trkpt lat="46.07166" lon="6.7751">
        <ele>1724.4</ele>
        <time>2026-06-26T08:38:13Z</time>
      </trkpt>
      <trkpt lat="46.07166" lon="6.7751">
        <ele>1724.6</ele>
        <time>2026-06-26T08:38:14Z</time>
      </trkpt>
      <trkpt lat="46.07166" lon="6.7751">
        <ele>1724.7</ele>
        <time>2026-06-26T08:38:15Z</time>
      </trkpt>
      <trkpt lat="46.07165" lon="6.7751">
        <ele>1724.9</ele>
        <time>2026-06-26T08:38:16Z</time>
      </trkpt>
      <trkpt lat="46.07165" lon="6.7751">
        <ele>1725.1</ele>
        <time>2026-06-26T08:38:17Z</time>
      </trkpt>
      <trkpt lat="46.07164" lon="6.7751">
        <ele>1725.3</ele>
        <time>2026-06-26T08:38:18Z</time>
      </trkpt>
      <trkpt lat="46.07164" lon="6.7751">
        <ele>1725.6</ele>
        <time>2026-06-26T08:38:19Z</time>
      </trkpt>
      <trkpt lat="46.07164" lon="6.77511">
        <ele>1725.8</ele>
        <time>2026-06-26T08:38:20Z</time>
      </trkpt>
      <trkpt lat="46.07163" lon="6.77511">
        <ele>1726</ele>
        <time>2026-06-26T08:38:21Z</time>
      </trkpt>
      <trkpt lat="46.07163" lon="6.77511">
        <ele>1726.2</ele>
        <time>2026-06-26T08:38:22Z</time>
      </trkpt>
      <trkpt lat="46.07163" lon="6.77512">
        <ele>1726.3</ele>
        <time>2026-06-26T08:38:23Z</time>
      </trkpt>
      <trkpt lat="46.07163" lon="6.77513">
        <ele>1726.5</ele>
        <time>2026-06-26T08:38:24Z</time>
      </trkpt>
      <trkpt lat="46.07162" lon="6.77513">
        <ele>1726.6</ele>
        <time>2026-06-26T08:38:25Z</time>
      </trkpt>
      <trkpt lat="46.07162" lon="6.77514">
        <ele>1726.8</ele>
        <time>2026-06-26T08:38:26Z</time>
      </trkpt>
      <trkpt lat="46.07162" lon="6.77514">
        <ele>1726.9</ele>
        <time>2026-06-26T08:38:27Z</time>
      </trkpt>
      <trkpt lat="46.07162" lon="6.77515">
        <ele>1727.2</ele>
        <time>2026-06-26T08:38:28Z</time>
      </trkpt>
      <trkpt lat="46.07161" lon="6.77514">
        <ele>1727.4</ele>
        <time>2026-06-26T08:38:29Z</time>
      </trkpt>
      <trkpt lat="46.07161" lon="6.77514">
        <ele>1727.6</ele>
        <time>2026-06-26T08:38:30Z</time>
      </trkpt>
      <trkpt lat="46.0716" lon="6.77513">
        <ele>1727.8</ele>
        <time>2026-06-26T08:38:31Z</time>
      </trkpt>
      <trkpt lat="46.0716" lon="6.77514">
        <ele>1727.9</ele>
        <time>2026-06-26T08:38:32Z</time>
      </trkpt>
      <trkpt lat="46.0716" lon="6.77515">
        <ele>1728</ele>
        <time>2026-06-26T08:38:33Z</time>
      </trkpt>
      <trkpt lat="46.07159" lon="6.77515">
        <ele>1728.2</ele>
        <time>2026-06-26T08:38:34Z</time>
      </trkpt>
      <trkpt lat="46.07159" lon="6.77516">
        <ele>1728.3</ele>
        <time>2026-06-26T08:38:35Z</time>
      </trkpt>
      <trkpt lat="46.07159" lon="6.77516">
        <ele>1728.4</ele>
        <time>2026-06-26T08:38:36Z</time>
      </trkpt>
      <trkpt lat="46.07158" lon="6.77517">
        <ele>1728.5</ele>
        <time>2026-06-26T08:38:37Z</time>
      </trkpt>
      <trkpt lat="46.07158" lon="6.77518">
        <ele>1728.7</ele>
        <time>2026-06-26T08:38:38Z</time>
      </trkpt>
      <trkpt lat="46.07157" lon="6.77518">
        <ele>1728.8</ele>
        <time>2026-06-26T08:38:39Z</time>
      </trkpt>
      <trkpt lat="46.07158" lon="6.77519">
        <ele>1729</ele>
        <time>2026-06-26T08:38:40Z</time>
      </trkpt>
      <trkpt lat="46.07158" lon="6.77519">
        <ele>1729.2</ele>
        <time>2026-06-26T08:38:41Z</time>
      </trkpt>
      <trkpt lat="46.07157" lon="6.77519">
        <ele>1729.3</ele>
        <time>2026-06-26T08:38:42Z</time>
      </trkpt>
      <trkpt lat="46.07157" lon="6.77519">
        <ele>1729.6</ele>
        <time>2026-06-26T08:38:43Z</time>
      </trkpt>
      <trkpt lat="46.07156" lon="6.7752">
        <ele>1729.8</ele>
        <time>2026-06-26T08:38:44Z</time>
      </trkpt>
      <trkpt lat="46.07157" lon="6.7752">
        <ele>1729.9</ele>
        <time>2026-06-26T08:38:45Z</time>
      </trkpt>
      <trkpt lat="46.07156" lon="6.7752">
        <ele>1730.1</ele>
        <time>2026-06-26T08:38:46Z</time>
      </trkpt>
      <trkpt lat="46.07156" lon="6.77521">
        <ele>1730.4</ele>
        <time>2026-06-26T08:38:47Z</time>
      </trkpt>
      <trkpt lat="46.07155" lon="6.77521">
        <ele>1730.5</ele>
        <time>2026-06-26T08:38:48Z</time>
      </trkpt>
      <trkpt lat="46.07154" lon="6.7752">
        <ele>1730.7</ele>
        <time>2026-06-26T08:38:49Z</time>
      </trkpt>
      <trkpt lat="46.07153" lon="6.77519">
        <ele>1730.9</ele>
        <time>2026-06-26T08:38:50Z</time>
      </trkpt>
      <trkpt lat="46.07152" lon="6.77519">
        <ele>1731</ele>
        <time>2026-06-26T08:38:51Z</time>
      </trkpt>
      <trkpt lat="46.07152" lon="6.7752">
        <ele>1731.2</ele>
        <time>2026-06-26T08:38:52Z</time>
      </trkpt>
      <trkpt lat="46.07152" lon="6.7752">
        <ele>1731.4</ele>
        <time>2026-06-26T08:38:53Z</time>
      </trkpt>
      <trkpt lat="46.07151" lon="6.77521">
        <ele>1731.5</ele>
        <time>2026-06-26T08:38:54Z</time>
      </trkpt>
      <trkpt lat="46.07151" lon="6.77521">
        <ele>1731.6</ele>
        <time>2026-06-26T08:38:55Z</time>
      </trkpt>
      <trkpt lat="46.0715" lon="6.77521">
        <ele>1731.9</ele>
        <time>2026-06-26T08:38:56Z</time>
      </trkpt>
      <trkpt lat="46.07149" lon="6.77521">
        <ele>1732.1</ele>
        <time>2026-06-26T08:38:57Z</time>
      </trkpt>
      <trkpt lat="46.07149" lon="6.77521">
        <ele>1732.2</ele>
        <time>2026-06-26T08:38:58Z</time>
      </trkpt>
      <trkpt lat="46.07149" lon="6.77521">
        <ele>1732.3</ele>
        <time>2026-06-26T08:38:59Z</time>
      </trkpt>
      <trkpt lat="46.07149" lon="6.77521">
        <ele>1732.4</ele>
        <time>2026-06-26T08:39:00Z</time>
      </trkpt>
      <trkpt lat="46.07148" lon="6.77521">
        <ele>1732.5</ele>
        <time>2026-06-26T08:39:01Z</time>
      </trkpt>
      <trkpt lat="46.07148" lon="6.77522">
        <ele>1732.7</ele>
        <time>2026-06-26T08:39:02Z</time>
      </trkpt>
      <trkpt lat="46.07148" lon="6.77522">
        <ele>1732.8</ele>
        <time>2026-06-26T08:39:03Z</time>
      </trkpt>
      <trkpt lat="46.07148" lon="6.77522">
        <ele>1732.8</ele>
        <time>2026-06-26T08:39:04Z</time>
      </trkpt>
      <trkpt lat="46.07147" lon="6.77522">
        <ele>1733</ele>
        <time>2026-06-26T08:39:05Z</time>
      </trkpt>
      <trkpt lat="46.07146" lon="6.77522">
        <ele>1733.1</ele>
        <time>2026-06-26T08:39:06Z</time>
      </trkpt>
      <trkpt lat="46.07146" lon="6.77522">
        <ele>1733.3</ele>
        <time>2026-06-26T08:39:07Z</time>
      </trkpt>
      <trkpt lat="46.07146" lon="6.77522">
        <ele>1733.3</ele>
        <time>2026-06-26T08:39:08Z</time>
      </trkpt>
      <trkpt lat="46.07145" lon="6.77522">
        <ele>1733.5</ele>
        <time>2026-06-26T08:39:09Z</time>
      </trkpt>
      <trkpt lat="46.07146" lon="6.77524">
        <ele>1733.7</ele>
        <time>2026-06-26T08:39:10Z</time>
      </trkpt>
      <trkpt lat="46.07144" lon="6.77524">
        <ele>1733.8</ele>
        <time>2026-06-26T08:39:11Z</time>
      </trkpt>
      <trkpt lat="46.07144" lon="6.77524">
        <ele>1734</ele>
        <time>2026-06-26T08:39:12Z</time>
      </trkpt>
      <trkpt lat="46.07143" lon="6.77525">
        <ele>1734</ele>
        <time>2026-06-26T08:39:13Z</time>
      </trkpt>
      <trkpt lat="46.07143" lon="6.77526">
        <ele>1734.1</ele>
        <time>2026-06-26T08:39:14Z</time>
      </trkpt>
      <trkpt lat="46.07144" lon="6.77526">
        <ele>1734.2</ele>
        <time>2026-06-26T08:39:15Z</time>
      </trkpt>
      <trkpt lat="46.07144" lon="6.77527">
        <ele>1734.3</ele>
        <time>2026-06-26T08:39:16Z</time>
      </trkpt>
      <trkpt lat="46.07145" lon="6.77528">
        <ele>1734.4</ele>
        <time>2026-06-26T08:39:17Z</time>
      </trkpt>
      <trkpt lat="46.07145" lon="6.77529">
        <ele>1734.5</ele>
        <time>2026-06-26T08:39:18Z</time>
      </trkpt>
      <trkpt lat="46.07145" lon="6.77531">
        <ele>1734.7</ele>
        <time>2026-06-26T08:39:19Z</time>
      </trkpt>
      <trkpt lat="46.07144" lon="6.77533">
        <ele>1734.8</ele>
        <time>2026-06-26T08:39:20Z</time>
      </trkpt>
      <trkpt lat="46.07144" lon="6.77533">
        <ele>1735</ele>
        <time>2026-06-26T08:39:21Z</time>
      </trkpt>
      <trkpt lat="46.07144" lon="6.77534">
        <ele>1735.1</ele>
        <time>2026-06-26T08:39:22Z</time>
      </trkpt>
      <trkpt lat="46.07145" lon="6.77535">
        <ele>1735.3</ele>
        <time>2026-06-26T08:39:23Z</time>
      </trkpt>
      <trkpt lat="46.07145" lon="6.77535">
        <ele>1735.5</ele>
        <time>2026-06-26T08:39:24Z</time>
      </trkpt>
      <trkpt lat="46.07145" lon="6.77536">
        <ele>1735.7</ele>
        <time>2026-06-26T08:39:25Z</time>
      </trkpt>
      <trkpt lat="46.07145" lon="6.77537">
        <ele>1736</ele>
        <time>2026-06-26T08:39:26Z</time>
      </trkpt>
      <trkpt lat="46.07145" lon="6.77537">
        <ele>1736.2</ele>
        <time>2026-06-26T08:39:27Z</time>
      </trkpt>
      <trkpt lat="46.07144" lon="6.77538">
        <ele>1736.3</ele>
        <time>2026-06-26T08:39:28Z</time>
      </trkpt>
      <trkpt lat="46.07144" lon="6.77538">
        <ele>1736.5</ele>
        <time>2026-06-26T08:39:29Z</time>
      </trkpt>
      <trkpt lat="46.07144" lon="6.77539">
        <ele>1736.6</ele>
        <time>2026-06-26T08:39:30Z</time>
      </trkpt>
      <trkpt lat="46.07144" lon="6.77539">
        <ele>1736.7</ele>
        <time>2026-06-26T08:39:31Z</time>
      </trkpt>
      <trkpt lat="46.07144" lon="6.7754">
        <ele>1736.8</ele>
        <time>2026-06-26T08:39:32Z</time>
      </trkpt>
      <trkpt lat="46.07143" lon="6.7754">
        <ele>1736.7</ele>
        <time>2026-06-26T08:39:33Z</time>
      </trkpt>
      <trkpt lat="46.07143" lon="6.7754">
        <ele>1736.7</ele>
        <time>2026-06-26T08:39:34Z</time>
      </trkpt>
      <trkpt lat="46.07143" lon="6.77541">
        <ele>1736.7</ele>
        <time>2026-06-26T08:39:35Z</time>
      </trkpt>
      <trkpt lat="46.07143" lon="6.77541">
        <ele>1736.6</ele>
        <time>2026-06-26T08:39:36Z</time>
      </trkpt>
      <trkpt lat="46.07143" lon="6.77541">
        <ele>1736.6</ele>
        <time>2026-06-26T08:39:37Z</time>
      </trkpt>
      <trkpt lat="46.07143" lon="6.77541">
        <ele>1736.7</ele>
        <time>2026-06-26T08:39:38Z</time>
      </trkpt>
      <trkpt lat="46.07143" lon="6.77541">
        <ele>1736.6</ele>
        <time>2026-06-26T08:39:39Z</time>
      </trkpt>
      <trkpt lat="46.07143" lon="6.77542">
        <ele>1736.5</ele>
        <time>2026-06-26T08:39:40Z</time>
      </trkpt>
      <trkpt lat="46.07144" lon="6.77542">
        <ele>1736.5</ele>
        <time>2026-06-26T08:39:41Z</time>
      </trkpt>
      <trkpt lat="46.07144" lon="6.77542">
        <ele>1736.5</ele>
        <time>2026-06-26T08:39:42Z</time>
      </trkpt>
      <trkpt lat="46.07144" lon="6.77542">
        <ele>1736.4</ele>
        <time>2026-06-26T08:39:43Z</time>
      </trkpt>
      <trkpt lat="46.07144" lon="6.77542">
        <ele>1736.4</ele>
        <time>2026-06-26T08:39:44Z</time>
      </trkpt>
      <trkpt lat="46.07144" lon="6.77542">
        <ele>1736.4</ele>
        <time>2026-06-26T08:39:45Z</time>
      </trkpt>
      <trkpt lat="46.07144" lon="6.77542">
        <ele>1736.3</ele>
        <time>2026-06-26T08:39:46Z</time>
      </trkpt>
      <trkpt lat="46.07144" lon="6.77542">
        <ele>1736.4</ele>
        <time>2026-06-26T08:39:47Z</time>
      </trkpt>
      <trkpt lat="46.07144" lon="6.77542">
        <ele>1736.4</ele>
        <time>2026-06-26T08:39:48Z</time>
      </trkpt>
      <trkpt lat="46.07144" lon="6.77542">
        <ele>1736.3</ele>
        <time>2026-06-26T08:39:49Z</time>
      </trkpt>
      <trkpt lat="46.07144" lon="6.77541">
        <ele>1736.3</ele>
        <time>2026-06-26T08:39:50Z</time>
      </trkpt>
      <trkpt lat="46.07144" lon="6.77541">
        <ele>1736.3</ele>
        <time>2026-06-26T08:39:51Z</time>
      </trkpt>
      <trkpt lat="46.07144" lon="6.77541">
        <ele>1736.3</ele>
        <time>2026-06-26T08:39:52Z</time>
      </trkpt>
      <trkpt lat="46.07144" lon="6.77541">
        <ele>1736.2</ele>
        <time>2026-06-26T08:39:53Z</time>
      </trkpt>
      <trkpt lat="46.07144" lon="6.77541">
        <ele>1736.2</ele>
        <time>2026-06-26T08:39:54Z</time>
      </trkpt>
      <trkpt lat="46.07144" lon="6.77541">
        <ele>1736.2</ele>
        <time>2026-06-26T08:39:55Z</time>
      </trkpt>
      <trkpt lat="46.07144" lon="6.77541">
        <ele>1736.3</ele>
        <time>2026-06-26T08:39:56Z</time>
      </trkpt>
      <trkpt lat="46.07144" lon="6.77541">
        <ele>1736.3</ele>
        <time>2026-06-26T08:39:57Z</time>
      </trkpt>
      <trkpt lat="46.07144" lon="6.77541">
        <ele>1736.3</ele>
        <time>2026-06-26T08:39:58Z</time>
      </trkpt>
      <trkpt lat="46.07144" lon="6.77541">
        <ele>1736.3</ele>
        <time>2026-06-26T08:39:59Z</time>
      </trkpt>
      <trkpt lat="46.07144" lon="6.77541">
        <ele>1736.4</ele>
        <time>2026-06-26T08:40:00Z</time>
      </trkpt>
      <trkpt lat="46.07144" lon="6.77541">
        <ele>1736.4</ele>
        <time>2026-06-26T08:40:01Z</time>
      </trkpt>
      <trkpt lat="46.07145" lon="6.7754">
        <ele>1736.4</ele>
        <time>2026-06-26T08:40:02Z</time>
      </trkpt>
      <trkpt lat="46.07145" lon="6.7754">
        <ele>1736.5</ele>
        <time>2026-06-26T08:40:03Z</time>
      </trkpt>
      <trkpt lat="46.07145" lon="6.7754">
        <ele>1736.5</ele>
        <time>2026-06-26T08:40:04Z</time>
      </trkpt>
      <trkpt lat="46.07145" lon="6.7754">
        <ele>1736.5</ele>
        <time>2026-06-26T08:40:05Z</time>
      </trkpt>
      <trkpt lat="46.07145" lon="6.7754">
        <ele>1736.5</ele>
        <time>2026-06-26T08:40:06Z</time>
      </trkpt>
      <trkpt lat="46.07145" lon="6.7754">
        <ele>1736.6</ele>
        <time>2026-06-26T08:40:07Z</time>
      </trkpt>
      <trkpt lat="46.07145" lon="6.7754">
        <ele>1736.6</ele>
        <time>2026-06-26T08:40:08Z</time>
      </trkpt>
      <trkpt lat="46.07145" lon="6.7754">
        <ele>1736.6</ele>
        <time>2026-06-26T08:40:09Z</time>
      </trkpt>
      <trkpt lat="46.07146" lon="6.7754">
        <ele>1736.7</ele>
        <time>2026-06-26T08:40:10Z</time>
      </trkpt>
      <trkpt lat="46.07145" lon="6.7754">
        <ele>1736.7</ele>
        <time>2026-06-26T08:40:11Z</time>
      </trkpt>
      <trkpt lat="46.07145" lon="6.7754">
        <ele>1736.7</ele>
        <time>2026-06-26T08:40:12Z</time>
      </trkpt>
      <trkpt lat="46.07145" lon="6.77541">
        <ele>1736.7</ele>
        <time>2026-06-26T08:40:13Z</time>
      </trkpt>
      <trkpt lat="46.07145" lon="6.77541">
        <ele>1736.8</ele>
        <time>2026-06-26T08:40:14Z</time>
      </trkpt>
      <trkpt lat="46.07145" lon="6.77541">
        <ele>1736.8</ele>
        <time>2026-06-26T08:40:15Z</time>
      </trkpt>
      <trkpt lat="46.07145" lon="6.77541">
        <ele>1736.9</ele>
        <time>2026-06-26T08:40:16Z</time>
      </trkpt>
      <trkpt lat="46.07144" lon="6.77541">
        <ele>1737</ele>
        <time>2026-06-26T08:40:17Z</time>
      </trkpt>
      <trkpt lat="46.07143" lon="6.77541">
        <ele>1737.2</ele>
        <time>2026-06-26T08:40:18Z</time>
      </trkpt>
      <trkpt lat="46.07143" lon="6.77542">
        <ele>1737.3</ele>
        <time>2026-06-26T08:40:19Z</time>
      </trkpt>
      <trkpt lat="46.07143" lon="6.77542">
        <ele>1737.5</ele>
        <time>2026-06-26T08:40:20Z</time>
      </trkpt>
      <trkpt lat="46.07142" lon="6.77543">
        <ele>1737.6</ele>
        <time>2026-06-26T08:40:21Z</time>
      </trkpt>
      <trkpt lat="46.07142" lon="6.77544">
        <ele>1737.8</ele>
        <time>2026-06-26T08:40:22Z</time>
      </trkpt>
      <trkpt lat="46.07142" lon="6.77544">
        <ele>1738</ele>
        <time>2026-06-26T08:40:23Z</time>
      </trkpt>
      <trkpt lat="46.07141" lon="6.77544">
        <ele>1738.2</ele>
        <time>2026-06-26T08:40:24Z</time>
      </trkpt>
      <trkpt lat="46.07141" lon="6.77545">
        <ele>1738.2</ele>
        <time>2026-06-26T08:40:25Z</time>
      </trkpt>
      <trkpt lat="46.0714" lon="6.77545">
        <ele>1738.4</ele>
        <time>2026-06-26T08:40:26Z</time>
      </trkpt>
      <trkpt lat="46.0714" lon="6.77546">
        <ele>1738.6</ele>
        <time>2026-06-26T08:40:27Z</time>
      </trkpt>
      <trkpt lat="46.07139" lon="6.77546">
        <ele>1738.9</ele>
        <time>2026-06-26T08:40:28Z</time>
      </trkpt>
      <trkpt lat="46.07138" lon="6.77546">
        <ele>1739.2</ele>
        <time>2026-06-26T08:40:29Z</time>
      </trkpt>
      <trkpt lat="46.07138" lon="6.77546">
        <ele>1739.4</ele>
        <time>2026-06-26T08:40:30Z</time>
      </trkpt>
      <trkpt lat="46.07137" lon="6.77547">
        <ele>1739.5</ele>
        <time>2026-06-26T08:40:31Z</time>
      </trkpt>
      <trkpt lat="46.07137" lon="6.77548">
        <ele>1739.7</ele>
        <time>2026-06-26T08:40:32Z</time>
      </trkpt>
      <trkpt lat="46.07137" lon="6.77549">
        <ele>1740</ele>
        <time>2026-06-26T08:40:33Z</time>
      </trkpt>
      <trkpt lat="46.07138" lon="6.77549">
        <ele>1740.2</ele>
        <time>2026-06-26T08:40:34Z</time>
      </trkpt>
      <trkpt lat="46.07138" lon="6.7755">
        <ele>1740.3</ele>
        <time>2026-06-26T08:40:35Z</time>
      </trkpt>
      <trkpt lat="46.07138" lon="6.77551">
        <ele>1740.6</ele>
        <time>2026-06-26T08:40:36Z</time>
      </trkpt>
      <trkpt lat="46.07139" lon="6.77552">
        <ele>1740.8</ele>
        <time>2026-06-26T08:40:37Z</time>
      </trkpt>
      <trkpt lat="46.07139" lon="6.77553">
        <ele>1741</ele>
        <time>2026-06-26T08:40:38Z</time>
      </trkpt>
      <trkpt lat="46.0714" lon="6.77553">
        <ele>1741.1</ele>
        <time>2026-06-26T08:40:39Z</time>
      </trkpt>
      <trkpt lat="46.0714" lon="6.77553">
        <ele>1741.3</ele>
        <time>2026-06-26T08:40:40Z</time>
      </trkpt>
      <trkpt lat="46.0714" lon="6.77554">
        <ele>1741.5</ele>
        <time>2026-06-26T08:40:41Z</time>
      </trkpt>
      <trkpt lat="46.07141" lon="6.77555">
        <ele>1741.7</ele>
        <time>2026-06-26T08:40:42Z</time>
      </trkpt>
      <trkpt lat="46.07141" lon="6.77555">
        <ele>1741.9</ele>
        <time>2026-06-26T08:40:43Z</time>
      </trkpt>
      <trkpt lat="46.07141" lon="6.77556">
        <ele>1742.1</ele>
        <time>2026-06-26T08:40:44Z</time>
      </trkpt>
      <trkpt lat="46.07141" lon="6.77557">
        <ele>1742.2</ele>
        <time>2026-06-26T08:40:45Z</time>
      </trkpt>
      <trkpt lat="46.07141" lon="6.77558">
        <ele>1742.4</ele>
        <time>2026-06-26T08:40:46Z</time>
      </trkpt>
      <trkpt lat="46.07141" lon="6.77558">
        <ele>1742.6</ele>
        <time>2026-06-26T08:40:47Z</time>
      </trkpt>
      <trkpt lat="46.07141" lon="6.77559">
        <ele>1742.8</ele>
        <time>2026-06-26T08:40:48Z</time>
      </trkpt>
      <trkpt lat="46.07141" lon="6.7756">
        <ele>1742.9</ele>
        <time>2026-06-26T08:40:49Z</time>
      </trkpt>
      <trkpt lat="46.07141" lon="6.7756">
        <ele>1743.1</ele>
        <time>2026-06-26T08:40:50Z</time>
      </trkpt>
      <trkpt lat="46.07141" lon="6.7756">
        <ele>1743.3</ele>
        <time>2026-06-26T08:40:51Z</time>
      </trkpt>
      <trkpt lat="46.07141" lon="6.7756">
        <ele>1743.4</ele>
        <time>2026-06-26T08:40:52Z</time>
      </trkpt>
      <trkpt lat="46.07141" lon="6.77561">
        <ele>1743.6</ele>
        <time>2026-06-26T08:40:53Z</time>
      </trkpt>
      <trkpt lat="46.07141" lon="6.77561">
        <ele>1743.8</ele>
        <time>2026-06-26T08:40:54Z</time>
      </trkpt>
      <trkpt lat="46.07141" lon="6.77562">
        <ele>1743.9</ele>
        <time>2026-06-26T08:40:55Z</time>
      </trkpt>
      <trkpt lat="46.07141" lon="6.77562">
        <ele>1744</ele>
        <time>2026-06-26T08:40:56Z</time>
      </trkpt>
      <trkpt lat="46.07141" lon="6.77563">
        <ele>1744.2</ele>
        <time>2026-06-26T08:40:57Z</time>
      </trkpt>
      <trkpt lat="46.07141" lon="6.77564">
        <ele>1744.3</ele>
        <time>2026-06-26T08:40:58Z</time>
      </trkpt>
      <trkpt lat="46.07142" lon="6.77565">
        <ele>1744.5</ele>
        <time>2026-06-26T08:40:59Z</time>
      </trkpt>
      <trkpt lat="46.07142" lon="6.77565">
        <ele>1744.7</ele>
        <time>2026-06-26T08:41:00Z</time>
      </trkpt>
      <trkpt lat="46.07142" lon="6.77565">
        <ele>1744.9</ele>
        <time>2026-06-26T08:41:01Z</time>
      </trkpt>
      <trkpt lat="46.07142" lon="6.77566">
        <ele>1745.1</ele>
        <time>2026-06-26T08:41:02Z</time>
      </trkpt>
      <trkpt lat="46.07142" lon="6.77567">
        <ele>1745.3</ele>
        <time>2026-06-26T08:41:03Z</time>
      </trkpt>
      <trkpt lat="46.07142" lon="6.77568">
        <ele>1745.5</ele>
        <time>2026-06-26T08:41:04Z</time>
      </trkpt>
      <trkpt lat="46.07142" lon="6.77568">
        <ele>1745.6</ele>
        <time>2026-06-26T08:41:05Z</time>
      </trkpt>
      <trkpt lat="46.07143" lon="6.77569">
        <ele>1745.9</ele>
        <time>2026-06-26T08:41:06Z</time>
      </trkpt>
      <trkpt lat="46.07143" lon="6.7757">
        <ele>1746.1</ele>
        <time>2026-06-26T08:41:07Z</time>
      </trkpt>
      <trkpt lat="46.07143" lon="6.7757">
        <ele>1746.3</ele>
        <time>2026-06-26T08:41:08Z</time>
      </trkpt>
      <trkpt lat="46.07143" lon="6.77571">
        <ele>1746.4</ele>
        <time>2026-06-26T08:41:09Z</time>
      </trkpt>
      <trkpt lat="46.07143" lon="6.77572">
        <ele>1746.6</ele>
        <time>2026-06-26T08:41:10Z</time>
      </trkpt>
      <trkpt lat="46.07144" lon="6.77573">
        <ele>1746.8</ele>
        <time>2026-06-26T08:41:11Z</time>
      </trkpt>
      <trkpt lat="46.07144" lon="6.77574">
        <ele>1747</ele>
        <time>2026-06-26T08:41:12Z</time>
      </trkpt>
      <trkpt lat="46.07145" lon="6.77574">
        <ele>1747.2</ele>
        <time>2026-06-26T08:41:13Z</time>
      </trkpt>
      <trkpt lat="46.07145" lon="6.77575">
        <ele>1747.4</ele>
        <time>2026-06-26T08:41:14Z</time>
      </trkpt>
      <trkpt lat="46.07145" lon="6.77576">
        <ele>1747.5</ele>
        <time>2026-06-26T08:41:15Z</time>
      </trkpt>
      <trkpt lat="46.07145" lon="6.77576">
        <ele>1747.6</ele>
        <time>2026-06-26T08:41:16Z</time>
      </trkpt>
      <trkpt lat="46.07144" lon="6.77577">
        <ele>1747.8</ele>
        <time>2026-06-26T08:41:17Z</time>
      </trkpt>
      <trkpt lat="46.07144" lon="6.77577">
        <ele>1748</ele>
        <time>2026-06-26T08:41:18Z</time>
      </trkpt>
      <trkpt lat="46.07144" lon="6.77577">
        <ele>1748</ele>
        <time>2026-06-26T08:41:19Z</time>
      </trkpt>
      <trkpt lat="46.07144" lon="6.77578">
        <ele>1748.2</ele>
        <time>2026-06-26T08:41:20Z</time>
      </trkpt>
      <trkpt lat="46.07144" lon="6.77578">
        <ele>1748.3</ele>
        <time>2026-06-26T08:41:21Z</time>
      </trkpt>
      <trkpt lat="46.07143" lon="6.77579">
        <ele>1748.7</ele>
        <time>2026-06-26T08:41:22Z</time>
      </trkpt>
      <trkpt lat="46.07143" lon="6.77579">
        <ele>1748.9</ele>
        <time>2026-06-26T08:41:23Z</time>
      </trkpt>
      <trkpt lat="46.07144" lon="6.7758">
        <ele>1749.1</ele>
        <time>2026-06-26T08:41:24Z</time>
      </trkpt>
      <trkpt lat="46.07144" lon="6.7758">
        <ele>1749.3</ele>
        <time>2026-06-26T08:41:25Z</time>
      </trkpt>
      <trkpt lat="46.07144" lon="6.77581">
        <ele>1749.5</ele>
        <time>2026-06-26T08:41:26Z</time>
      </trkpt>
      <trkpt lat="46.07143" lon="6.77582">
        <ele>1749.7</ele>
        <time>2026-06-26T08:41:27Z</time>
      </trkpt>
      <trkpt lat="46.07143" lon="6.77583">
        <ele>1749.8</ele>
        <time>2026-06-26T08:41:28Z</time>
      </trkpt>
      <trkpt lat="46.07144" lon="6.77583">
        <ele>1750</ele>
        <time>2026-06-26T08:41:29Z</time>
      </trkpt>
      <trkpt lat="46.07144" lon="6.77584">
        <ele>1750.2</ele>
        <time>2026-06-26T08:41:30Z</time>
      </trkpt>
      <trkpt lat="46.07144" lon="6.77584">
        <ele>1750.4</ele>
        <time>2026-06-26T08:41:31Z</time>
      </trkpt>
      <trkpt lat="46.07145" lon="6.77585">
        <ele>1750.6</ele>
        <time>2026-06-26T08:41:32Z</time>
      </trkpt>
      <trkpt lat="46.07145" lon="6.77586">
        <ele>1750.7</ele>
        <time>2026-06-26T08:41:33Z</time>
      </trkpt>
      <trkpt lat="46.07146" lon="6.77587">
        <ele>1750.9</ele>
        <time>2026-06-26T08:41:34Z</time>
      </trkpt>
      <trkpt lat="46.07146" lon="6.77588">
        <ele>1751.1</ele>
        <time>2026-06-26T08:41:35Z</time>
      </trkpt>
      <trkpt lat="46.07146" lon="6.77588">
        <ele>1751.2</ele>
        <time>2026-06-26T08:41:36Z</time>
      </trkpt>
      <trkpt lat="46.07145" lon="6.77589">
        <ele>1751.3</ele>
        <time>2026-06-26T08:41:37Z</time>
      </trkpt>
      <trkpt lat="46.07145" lon="6.7759">
        <ele>1751.6</ele>
        <time>2026-06-26T08:41:38Z</time>
      </trkpt>
      <trkpt lat="46.07146" lon="6.77591">
        <ele>1751.8</ele>
        <time>2026-06-26T08:41:39Z</time>
      </trkpt>
      <trkpt lat="46.07146" lon="6.77591">
        <ele>1752</ele>
        <time>2026-06-26T08:41:40Z</time>
      </trkpt>
      <trkpt lat="46.07146" lon="6.77592">
        <ele>1752.2</ele>
        <time>2026-06-26T08:41:41Z</time>
      </trkpt>
      <trkpt lat="46.07146" lon="6.77592">
        <ele>1752.3</ele>
        <time>2026-06-26T08:41:42Z</time>
      </trkpt>
      <trkpt lat="46.07146" lon="6.77593">
        <ele>1752.6</ele>
        <time>2026-06-26T08:41:43Z</time>
      </trkpt>
      <trkpt lat="46.07146" lon="6.77594">
        <ele>1752.7</ele>
        <time>2026-06-26T08:41:44Z</time>
      </trkpt>
      <trkpt lat="46.07147" lon="6.77595">
        <ele>1752.9</ele>
        <time>2026-06-26T08:41:45Z</time>
      </trkpt>
      <trkpt lat="46.07146" lon="6.77595">
        <ele>1753</ele>
        <time>2026-06-26T08:41:46Z</time>
      </trkpt>
      <trkpt lat="46.07147" lon="6.77596">
        <ele>1753.2</ele>
        <time>2026-06-26T08:41:47Z</time>
      </trkpt>
      <trkpt lat="46.07148" lon="6.77596">
        <ele>1753.3</ele>
        <time>2026-06-26T08:41:48Z</time>
      </trkpt>
      <trkpt lat="46.07148" lon="6.77597">
        <ele>1753.5</ele>
        <time>2026-06-26T08:41:49Z</time>
      </trkpt>
      <trkpt lat="46.07148" lon="6.77597">
        <ele>1753.7</ele>
        <time>2026-06-26T08:41:50Z</time>
      </trkpt>
      <trkpt lat="46.07148" lon="6.77597">
        <ele>1753.9</ele>
        <time>2026-06-26T08:41:51Z</time>
      </trkpt>
      <trkpt lat="46.07148" lon="6.77597">
        <ele>1754.1</ele>
        <time>2026-06-26T08:41:52Z</time>
      </trkpt>
      <trkpt lat="46.07149" lon="6.77598">
        <ele>1754.3</ele>
        <time>2026-06-26T08:41:53Z</time>
      </trkpt>
      <trkpt lat="46.07149" lon="6.77598">
        <ele>1754.4</ele>
        <time>2026-06-26T08:41:54Z</time>
      </trkpt>
      <trkpt lat="46.0715" lon="6.77599">
        <ele>1754.6</ele>
        <time>2026-06-26T08:41:55Z</time>
      </trkpt>
      <trkpt lat="46.07151" lon="6.77599">
        <ele>1755</ele>
        <time>2026-06-26T08:41:56Z</time>
      </trkpt>
      <trkpt lat="46.07152" lon="6.776">
        <ele>1755.2</ele>
        <time>2026-06-26T08:41:57Z</time>
      </trkpt>
      <trkpt lat="46.07153" lon="6.776">
        <ele>1755.4</ele>
        <time>2026-06-26T08:41:58Z</time>
      </trkpt>
      <trkpt lat="46.07153" lon="6.77601">
        <ele>1755.5</ele>
        <time>2026-06-26T08:41:59Z</time>
      </trkpt>
      <trkpt lat="46.07154" lon="6.77601">
        <ele>1755.7</ele>
        <time>2026-06-26T08:42:00Z</time>
      </trkpt>
      <trkpt lat="46.07154" lon="6.77601">
        <ele>1755.8</ele>
        <time>2026-06-26T08:42:01Z</time>
      </trkpt>
      <trkpt lat="46.07154" lon="6.77601">
        <ele>1755.9</ele>
        <time>2026-06-26T08:42:02Z</time>
      </trkpt>
      <trkpt lat="46.07154" lon="6.77602">
        <ele>1756</ele>
        <time>2026-06-26T08:42:03Z</time>
      </trkpt>
      <trkpt lat="46.07154" lon="6.77603">
        <ele>1756.1</ele>
        <time>2026-06-26T08:42:04Z</time>
      </trkpt>
      <trkpt lat="46.07154" lon="6.77604">
        <ele>1756.3</ele>
        <time>2026-06-26T08:42:05Z</time>
      </trkpt>
      <trkpt lat="46.07155" lon="6.77605">
        <ele>1756.4</ele>
        <time>2026-06-26T08:42:06Z</time>
      </trkpt>
      <trkpt lat="46.07155" lon="6.77605">
        <ele>1756.6</ele>
        <time>2026-06-26T08:42:07Z</time>
      </trkpt>
      <trkpt lat="46.07154" lon="6.77605">
        <ele>1756.8</ele>
        <time>2026-06-26T08:42:08Z</time>
      </trkpt>
      <trkpt lat="46.07155" lon="6.77605">
        <ele>1757</ele>
        <time>2026-06-26T08:42:09Z</time>
      </trkpt>
      <trkpt lat="46.07155" lon="6.77606">
        <ele>1757.2</ele>
        <time>2026-06-26T08:42:10Z</time>
      </trkpt>
      <trkpt lat="46.07155" lon="6.77607">
        <ele>1757.3</ele>
        <time>2026-06-26T08:42:11Z</time>
      </trkpt>
      <trkpt lat="46.07155" lon="6.77607">
        <ele>1757.5</ele>
        <time>2026-06-26T08:42:12Z</time>
      </trkpt>
      <trkpt lat="46.07154" lon="6.77607">
        <ele>1757.7</ele>
        <time>2026-06-26T08:42:13Z</time>
      </trkpt>
      <trkpt lat="46.07154" lon="6.77608">
        <ele>1757.9</ele>
        <time>2026-06-26T08:42:14Z</time>
      </trkpt>
      <trkpt lat="46.07153" lon="6.77608">
        <ele>1758.2</ele>
        <time>2026-06-26T08:42:15Z</time>
      </trkpt>
      <trkpt lat="46.07153" lon="6.77608">
        <ele>1758.3</ele>
        <time>2026-06-26T08:42:16Z</time>
      </trkpt>
      <trkpt lat="46.07153" lon="6.77609">
        <ele>1758.5</ele>
        <time>2026-06-26T08:42:17Z</time>
      </trkpt>
      <trkpt lat="46.07154" lon="6.7761">
        <ele>1758.6</ele>
        <time>2026-06-26T08:42:18Z</time>
      </trkpt>
      <trkpt lat="46.07154" lon="6.7761">
        <ele>1758.7</ele>
        <time>2026-06-26T08:42:19Z</time>
      </trkpt>
      <trkpt lat="46.07154" lon="6.7761">
        <ele>1758.8</ele>
        <time>2026-06-26T08:42:20Z</time>
      </trkpt>
      <trkpt lat="46.07154" lon="6.7761">
        <ele>1758.9</ele>
        <time>2026-06-26T08:42:21Z</time>
      </trkpt>
      <trkpt lat="46.07155" lon="6.7761">
        <ele>1758.9</ele>
        <time>2026-06-26T08:42:22Z</time>
      </trkpt>
      <trkpt lat="46.07155" lon="6.7761">
        <ele>1758.9</ele>
        <time>2026-06-26T08:42:23Z</time>
      </trkpt>
      <trkpt lat="46.07155" lon="6.7761">
        <ele>1759</ele>
        <time>2026-06-26T08:42:24Z</time>
      </trkpt>
      <trkpt lat="46.07155" lon="6.77611">
        <ele>1759</ele>
        <time>2026-06-26T08:42:25Z</time>
      </trkpt>
      <trkpt lat="46.07156" lon="6.77611">
        <ele>1759.1</ele>
        <time>2026-06-26T08:42:26Z</time>
      </trkpt>
      <trkpt lat="46.07157" lon="6.77612">
        <ele>1759.2</ele>
        <time>2026-06-26T08:42:27Z</time>
      </trkpt>
      <trkpt lat="46.07157" lon="6.77613">
        <ele>1759.2</ele>
        <time>2026-06-26T08:42:28Z</time>
      </trkpt>
      <trkpt lat="46.07157" lon="6.77613">
        <ele>1759.4</ele>
        <time>2026-06-26T08:42:29Z</time>
      </trkpt>
      <trkpt lat="46.07158" lon="6.77614">
        <ele>1759.6</ele>
        <time>2026-06-26T08:42:30Z</time>
      </trkpt>
      <trkpt lat="46.07158" lon="6.77614">
        <ele>1759.7</ele>
        <time>2026-06-26T08:42:31Z</time>
      </trkpt>
      <trkpt lat="46.07159" lon="6.77615">
        <ele>1760</ele>
        <time>2026-06-26T08:42:32Z</time>
      </trkpt>
      <trkpt lat="46.07159" lon="6.77615">
        <ele>1760.3</ele>
        <time>2026-06-26T08:42:33Z</time>
      </trkpt>
      <trkpt lat="46.0716" lon="6.77616">
        <ele>1760.5</ele>
        <time>2026-06-26T08:42:34Z</time>
      </trkpt>
      <trkpt lat="46.0716" lon="6.77616">
        <ele>1760.6</ele>
        <time>2026-06-26T08:42:35Z</time>
      </trkpt>
      <trkpt lat="46.0716" lon="6.77617">
        <ele>1760.8</ele>
        <time>2026-06-26T08:42:36Z</time>
      </trkpt>
      <trkpt lat="46.0716" lon="6.77617">
        <ele>1760.9</ele>
        <time>2026-06-26T08:42:37Z</time>
      </trkpt>
      <trkpt lat="46.0716" lon="6.77617">
        <ele>1761.2</ele>
        <time>2026-06-26T08:42:38Z</time>
      </trkpt>
      <trkpt lat="46.0716" lon="6.77617">
        <ele>1761.3</ele>
        <time>2026-06-26T08:42:39Z</time>
      </trkpt>
      <trkpt lat="46.07159" lon="6.77617">
        <ele>1761.5</ele>
        <time>2026-06-26T08:42:40Z</time>
      </trkpt>
      <trkpt lat="46.07159" lon="6.77618">
        <ele>1761.7</ele>
        <time>2026-06-26T08:42:41Z</time>
      </trkpt>
      <trkpt lat="46.07159" lon="6.77618">
        <ele>1762.1</ele>
        <time>2026-06-26T08:42:42Z</time>
      </trkpt>
      <trkpt lat="46.07159" lon="6.77618">
        <ele>1762.2</ele>
        <time>2026-06-26T08:42:43Z</time>
      </trkpt>
      <trkpt lat="46.07159" lon="6.77619">
        <ele>1762.4</ele>
        <time>2026-06-26T08:42:44Z</time>
      </trkpt>
      <trkpt lat="46.07159" lon="6.77619">
        <ele>1762.6</ele>
        <time>2026-06-26T08:42:45Z</time>
      </trkpt>
      <trkpt lat="46.07159" lon="6.77619">
        <ele>1762.7</ele>
        <time>2026-06-26T08:42:46Z</time>
      </trkpt>
      <trkpt lat="46.07159" lon="6.77619">
        <ele>1762.8</ele>
        <time>2026-06-26T08:42:47Z</time>
      </trkpt>
      <trkpt lat="46.0716" lon="6.77619">
        <ele>1763</ele>
        <time>2026-06-26T08:42:48Z</time>
      </trkpt>
      <trkpt lat="46.0716" lon="6.77618">
        <ele>1763.2</ele>
        <time>2026-06-26T08:42:49Z</time>
      </trkpt>
      <trkpt lat="46.0716" lon="6.77618">
        <ele>1763.2</ele>
        <time>2026-06-26T08:42:50Z</time>
      </trkpt>
      <trkpt lat="46.0716" lon="6.77618">
        <ele>1763.4</ele>
        <time>2026-06-26T08:42:51Z</time>
      </trkpt>
      <trkpt lat="46.07161" lon="6.77618">
        <ele>1763.3</ele>
        <time>2026-06-26T08:42:52Z</time>
      </trkpt>
      <trkpt lat="46.07161" lon="6.77618">
        <ele>1763.3</ele>
        <time>2026-06-26T08:42:53Z</time>
      </trkpt>
      <trkpt lat="46.07161" lon="6.77617">
        <ele>1763.3</ele>
        <time>2026-06-26T08:42:54Z</time>
      </trkpt>
      <trkpt lat="46.0716" lon="6.77618">
        <ele>1763.3</ele>
        <time>2026-06-26T08:42:55Z</time>
      </trkpt>
      <trkpt lat="46.0716" lon="6.77618">
        <ele>1763.4</ele>
        <time>2026-06-26T08:42:56Z</time>
      </trkpt>
      <trkpt lat="46.07159" lon="6.77618">
        <ele>1763.5</ele>
        <time>2026-06-26T08:42:57Z</time>
      </trkpt>
      <trkpt lat="46.07158" lon="6.77618">
        <ele>1763.6</ele>
        <time>2026-06-26T08:42:58Z</time>
      </trkpt>
      <trkpt lat="46.07157" lon="6.77618">
        <ele>1763.8</ele>
        <time>2026-06-26T08:42:59Z</time>
      </trkpt>
      <trkpt lat="46.07157" lon="6.77618">
        <ele>1764</ele>
        <time>2026-06-26T08:43:00Z</time>
      </trkpt>
      <trkpt lat="46.07156" lon="6.77618">
        <ele>1764.1</ele>
        <time>2026-06-26T08:43:01Z</time>
      </trkpt>
      <trkpt lat="46.07156" lon="6.77618">
        <ele>1764.2</ele>
        <time>2026-06-26T08:43:02Z</time>
      </trkpt>
      <trkpt lat="46.07155" lon="6.77618">
        <ele>1764.3</ele>
        <time>2026-06-26T08:43:03Z</time>
      </trkpt>
      <trkpt lat="46.07154" lon="6.77618">
        <ele>1764.3</ele>
        <time>2026-06-26T08:43:04Z</time>
      </trkpt>
      <trkpt lat="46.07154" lon="6.77618">
        <ele>1764.4</ele>
        <time>2026-06-26T08:43:05Z</time>
      </trkpt>
      <trkpt lat="46.07153" lon="6.77618">
        <ele>1764.6</ele>
        <time>2026-06-26T08:43:06Z</time>
      </trkpt>
      <trkpt lat="46.07152" lon="6.77618">
        <ele>1764.7</ele>
        <time>2026-06-26T08:43:07Z</time>
      </trkpt>
      <trkpt lat="46.07151" lon="6.77619">
        <ele>1764.8</ele>
        <time>2026-06-26T08:43:08Z</time>
      </trkpt>
      <trkpt lat="46.07151" lon="6.77619">
        <ele>1765</ele>
        <time>2026-06-26T08:43:09Z</time>
      </trkpt>
      <trkpt lat="46.0715" lon="6.77619">
        <ele>1765.2</ele>
        <time>2026-06-26T08:43:10Z</time>
      </trkpt>
      <trkpt lat="46.07149" lon="6.77619">
        <ele>1765.3</ele>
        <time>2026-06-26T08:43:11Z</time>
      </trkpt>
      <trkpt lat="46.07148" lon="6.77619">
        <ele>1765.4</ele>
        <time>2026-06-26T08:43:12Z</time>
      </trkpt>
      <trkpt lat="46.07147" lon="6.77619">
        <ele>1765.5</ele>
        <time>2026-06-26T08:43:13Z</time>
      </trkpt>
      <trkpt lat="46.07147" lon="6.77619">
        <ele>1765.6</ele>
        <time>2026-06-26T08:43:14Z</time>
      </trkpt>
      <trkpt lat="46.07146" lon="6.77619">
        <ele>1765.7</ele>
        <time>2026-06-26T08:43:15Z</time>
      </trkpt>
      <trkpt lat="46.07145" lon="6.7762">
        <ele>1765.8</ele>
        <time>2026-06-26T08:43:16Z</time>
      </trkpt>
      <trkpt lat="46.07145" lon="6.7762">
        <ele>1765.8</ele>
        <time>2026-06-26T08:43:17Z</time>
      </trkpt>
      <trkpt lat="46.07144" lon="6.7762">
        <ele>1765.9</ele>
        <time>2026-06-26T08:43:18Z</time>
      </trkpt>
      <trkpt lat="46.07143" lon="6.7762">
        <ele>1766</ele>
        <time>2026-06-26T08:43:19Z</time>
      </trkpt>
      <trkpt lat="46.07142" lon="6.7762">
        <ele>1766.2</ele>
        <time>2026-06-26T08:43:20Z</time>
      </trkpt>
      <trkpt lat="46.07142" lon="6.7762">
        <ele>1766.4</ele>
        <time>2026-06-26T08:43:21Z</time>
      </trkpt>
      <trkpt lat="46.07141" lon="6.7762">
        <ele>1766.7</ele>
        <time>2026-06-26T08:43:22Z</time>
      </trkpt>
      <trkpt lat="46.07141" lon="6.7762">
        <ele>1766.9</ele>
        <time>2026-06-26T08:43:23Z</time>
      </trkpt>
      <trkpt lat="46.0714" lon="6.77621">
        <ele>1767.2</ele>
        <time>2026-06-26T08:43:24Z</time>
      </trkpt>
      <trkpt lat="46.0714" lon="6.77623">
        <ele>1767.4</ele>
        <time>2026-06-26T08:43:25Z</time>
      </trkpt>
      <trkpt lat="46.0714" lon="6.77623">
        <ele>1767.6</ele>
        <time>2026-06-26T08:43:26Z</time>
      </trkpt>
      <trkpt lat="46.07139" lon="6.77625">
        <ele>1767.7</ele>
        <time>2026-06-26T08:43:27Z</time>
      </trkpt>
      <trkpt lat="46.0714" lon="6.77626">
        <ele>1767.9</ele>
        <time>2026-06-26T08:43:28Z</time>
      </trkpt>
      <trkpt lat="46.0714" lon="6.77627">
        <ele>1768.1</ele>
        <time>2026-06-26T08:43:29Z</time>
      </trkpt>
      <trkpt lat="46.0714" lon="6.77627">
        <ele>1768.3</ele>
        <time>2026-06-26T08:43:30Z</time>
      </trkpt>
      <trkpt lat="46.0714" lon="6.77628">
        <ele>1768.5</ele>
        <time>2026-06-26T08:43:31Z</time>
      </trkpt>
      <trkpt lat="46.0714" lon="6.77629">
        <ele>1768.7</ele>
        <time>2026-06-26T08:43:32Z</time>
      </trkpt>
      <trkpt lat="46.0714" lon="6.77629">
        <ele>1768.9</ele>
        <time>2026-06-26T08:43:33Z</time>
      </trkpt>
      <trkpt lat="46.0714" lon="6.7763">
        <ele>1769.1</ele>
        <time>2026-06-26T08:43:34Z</time>
      </trkpt>
      <trkpt lat="46.0714" lon="6.77631">
        <ele>1769.3</ele>
        <time>2026-06-26T08:43:35Z</time>
      </trkpt>
      <trkpt lat="46.0714" lon="6.77632">
        <ele>1769.4</ele>
        <time>2026-06-26T08:43:36Z</time>
      </trkpt>
      <trkpt lat="46.0714" lon="6.77633">
        <ele>1769.5</ele>
        <time>2026-06-26T08:43:37Z</time>
      </trkpt>
      <trkpt lat="46.0714" lon="6.77633">
        <ele>1769.7</ele>
        <time>2026-06-26T08:43:38Z</time>
      </trkpt>
      <trkpt lat="46.0714" lon="6.77634">
        <ele>1769.8</ele>
        <time>2026-06-26T08:43:39Z</time>
      </trkpt>
      <trkpt lat="46.0714" lon="6.77635">
        <ele>1770</ele>
        <time>2026-06-26T08:43:40Z</time>
      </trkpt>
      <trkpt lat="46.0714" lon="6.77636">
        <ele>1770.2</ele>
        <time>2026-06-26T08:43:41Z</time>
      </trkpt>
      <trkpt lat="46.07141" lon="6.77637">
        <ele>1770.4</ele>
        <time>2026-06-26T08:43:42Z</time>
      </trkpt>
      <trkpt lat="46.07141" lon="6.77638">
        <ele>1770.6</ele>
        <time>2026-06-26T08:43:43Z</time>
      </trkpt>
      <trkpt lat="46.07141" lon="6.77638">
        <ele>1770.8</ele>
        <time>2026-06-26T08:43:44Z</time>
      </trkpt>
      <trkpt lat="46.0714" lon="6.77638">
        <ele>1770.9</ele>
        <time>2026-06-26T08:43:45Z</time>
      </trkpt>
      <trkpt lat="46.0714" lon="6.77638">
        <ele>1771.1</ele>
        <time>2026-06-26T08:43:46Z</time>
      </trkpt>
      <trkpt lat="46.0714" lon="6.77638">
        <ele>1771.3</ele>
        <time>2026-06-26T08:43:47Z</time>
      </trkpt>
      <trkpt lat="46.0714" lon="6.77638">
        <ele>1771.5</ele>
        <time>2026-06-26T08:43:48Z</time>
      </trkpt>
      <trkpt lat="46.0714" lon="6.77638">
        <ele>1771.7</ele>
        <time>2026-06-26T08:43:49Z</time>
      </trkpt>
      <trkpt lat="46.07139" lon="6.77637">
        <ele>1771.8</ele>
        <time>2026-06-26T08:43:50Z</time>
      </trkpt>
      <trkpt lat="46.07138" lon="6.77637">
        <ele>1772</ele>
        <time>2026-06-26T08:43:51Z</time>
      </trkpt>
      <trkpt lat="46.07138" lon="6.77637">
        <ele>1772.2</ele>
        <time>2026-06-26T08:43:52Z</time>
      </trkpt>
      <trkpt lat="46.07138" lon="6.77637">
        <ele>1772.3</ele>
        <time>2026-06-26T08:43:53Z</time>
      </trkpt>
      <trkpt lat="46.07138" lon="6.77637">
        <ele>1772.4</ele>
        <time>2026-06-26T08:43:54Z</time>
      </trkpt>
      <trkpt lat="46.07138" lon="6.77638">
        <ele>1772.5</ele>
        <time>2026-06-26T08:43:55Z</time>
      </trkpt>
      <trkpt lat="46.07138" lon="6.77638">
        <ele>1772.6</ele>
        <time>2026-06-26T08:43:56Z</time>
      </trkpt>
      <trkpt lat="46.07138" lon="6.77638">
        <ele>1772.6</ele>
        <time>2026-06-26T08:43:57Z</time>
      </trkpt>
      <trkpt lat="46.07139" lon="6.77638">
        <ele>1772.7</ele>
        <time>2026-06-26T08:43:58Z</time>
      </trkpt>
      <trkpt lat="46.07139" lon="6.77638">
        <ele>1772.7</ele>
        <time>2026-06-26T08:43:59Z</time>
      </trkpt>
      <trkpt lat="46.07138" lon="6.77638">
        <ele>1772.8</ele>
        <time>2026-06-26T08:44:00Z</time>
      </trkpt>
      <trkpt lat="46.07139" lon="6.77638">
        <ele>1772.8</ele>
        <time>2026-06-26T08:44:01Z</time>
      </trkpt>
      <trkpt lat="46.07139" lon="6.77638">
        <ele>1772.9</ele>
        <time>2026-06-26T08:44:02Z</time>
      </trkpt>
      <trkpt lat="46.07139" lon="6.77638">
        <ele>1772.8</ele>
        <time>2026-06-26T08:44:03Z</time>
      </trkpt>
      <trkpt lat="46.07139" lon="6.77638">
        <ele>1772.7</ele>
        <time>2026-06-26T08:44:04Z</time>
      </trkpt>
      <trkpt lat="46.07139" lon="6.77639">
        <ele>1772.7</ele>
        <time>2026-06-26T08:44:05Z</time>
      </trkpt>
      <trkpt lat="46.07139" lon="6.77639">
        <ele>1772.7</ele>
        <time>2026-06-26T08:44:06Z</time>
      </trkpt>
      <trkpt lat="46.07139" lon="6.77639">
        <ele>1772.7</ele>
        <time>2026-06-26T08:44:07Z</time>
      </trkpt>
      <trkpt lat="46.07139" lon="6.77639">
        <ele>1772.7</ele>
        <time>2026-06-26T08:44:08Z</time>
      </trkpt>
      <trkpt lat="46.07139" lon="6.77639">
        <ele>1772.7</ele>
        <time>2026-06-26T08:44:09Z</time>
      </trkpt>
      <trkpt lat="46.07139" lon="6.77639">
        <ele>1772.6</ele>
        <time>2026-06-26T08:44:10Z</time>
      </trkpt>
      <trkpt lat="46.07139" lon="6.77639">
        <ele>1772.6</ele>
        <time>2026-06-26T08:44:11Z</time>
      </trkpt>
      <trkpt lat="46.07139" lon="6.77639">
        <ele>1772.5</ele>
        <time>2026-06-26T08:44:12Z</time>
      </trkpt>
      <trkpt lat="46.07139" lon="6.77639">
        <ele>1772.5</ele>
        <time>2026-06-26T08:44:13Z</time>
      </trkpt>
      <trkpt lat="46.0714" lon="6.77639">
        <ele>1772.4</ele>
        <time>2026-06-26T08:44:14Z</time>
      </trkpt>
      <trkpt lat="46.0714" lon="6.77639">
        <ele>1772.5</ele>
        <time>2026-06-26T08:44:15Z</time>
      </trkpt>
      <trkpt lat="46.0714" lon="6.7764">
        <ele>1772.5</ele>
        <time>2026-06-26T08:44:16Z</time>
      </trkpt>
      <trkpt lat="46.0714" lon="6.7764">
        <ele>1772.5</ele>
        <time>2026-06-26T08:44:17Z</time>
      </trkpt>
      <trkpt lat="46.0714" lon="6.7764">
        <ele>1772.5</ele>
        <time>2026-06-26T08:44:18Z</time>
      </trkpt>
      <trkpt lat="46.0714" lon="6.7764">
        <ele>1772.5</ele>
        <time>2026-06-26T08:44:19Z</time>
      </trkpt>
      <trkpt lat="46.0714" lon="6.7764">
        <ele>1772.5</ele>
        <time>2026-06-26T08:44:20Z</time>
      </trkpt>
      <trkpt lat="46.0714" lon="6.7764">
        <ele>1772.6</ele>
        <time>2026-06-26T08:44:21Z</time>
      </trkpt>
      <trkpt lat="46.0714" lon="6.7764">
        <ele>1772.7</ele>
        <time>2026-06-26T08:44:22Z</time>
      </trkpt>
      <trkpt lat="46.0714" lon="6.7764">
        <ele>1772.8</ele>
        <time>2026-06-26T08:44:23Z</time>
      </trkpt>
      <trkpt lat="46.0714" lon="6.7764">
        <ele>1772.9</ele>
        <time>2026-06-26T08:44:24Z</time>
      </trkpt>
      <trkpt lat="46.0714" lon="6.7764">
        <ele>1773</ele>
        <time>2026-06-26T08:44:25Z</time>
      </trkpt>
      <trkpt lat="46.0714" lon="6.7764">
        <ele>1773.1</ele>
        <time>2026-06-26T08:44:26Z</time>
      </trkpt>
      <trkpt lat="46.0714" lon="6.7764">
        <ele>1773</ele>
        <time>2026-06-26T08:44:27Z</time>
      </trkpt>
      <trkpt lat="46.0714" lon="6.77639">
        <ele>1773</ele>
        <time>2026-06-26T08:44:28Z</time>
      </trkpt>
      <trkpt lat="46.0714" lon="6.77639">
        <ele>1773</ele>
        <time>2026-06-26T08:44:29Z</time>
      </trkpt>
      <trkpt lat="46.07139" lon="6.77639">
        <ele>1773.1</ele>
        <time>2026-06-26T08:44:30Z</time>
      </trkpt>
      <trkpt lat="46.07138" lon="6.77639">
        <ele>1773.1</ele>
        <time>2026-06-26T08:44:31Z</time>
      </trkpt>
      <trkpt lat="46.07138" lon="6.77639">
        <ele>1773.2</ele>
        <time>2026-06-26T08:44:32Z</time>
      </trkpt>
      <trkpt lat="46.07137" lon="6.7764">
        <ele>1773.3</ele>
        <time>2026-06-26T08:44:33Z</time>
      </trkpt>
      <trkpt lat="46.07136" lon="6.7764">
        <ele>1773.4</ele>
        <time>2026-06-26T08:44:34Z</time>
      </trkpt>
      <trkpt lat="46.07136" lon="6.7764">
        <ele>1773.5</ele>
        <time>2026-06-26T08:44:35Z</time>
      </trkpt>
      <trkpt lat="46.07135" lon="6.77641">
        <ele>1773.6</ele>
        <time>2026-06-26T08:44:36Z</time>
      </trkpt>
      <trkpt lat="46.07134" lon="6.77641">
        <ele>1773.7</ele>
        <time>2026-06-26T08:44:37Z</time>
      </trkpt>
      <trkpt lat="46.07134" lon="6.77642">
        <ele>1773.9</ele>
        <time>2026-06-26T08:44:38Z</time>
      </trkpt>
      <trkpt lat="46.07133" lon="6.77642">
        <ele>1774</ele>
        <time>2026-06-26T08:44:39Z</time>
      </trkpt>
      <trkpt lat="46.07132" lon="6.77643">
        <ele>1774.2</ele>
        <time>2026-06-26T08:44:40Z</time>
      </trkpt>
      <trkpt lat="46.07132" lon="6.77643">
        <ele>1774.4</ele>
        <time>2026-06-26T08:44:41Z</time>
      </trkpt>
      <trkpt lat="46.07131" lon="6.77644">
        <ele>1774.6</ele>
        <time>2026-06-26T08:44:42Z</time>
      </trkpt>
      <trkpt lat="46.07131" lon="6.77644">
        <ele>1774.7</ele>
        <time>2026-06-26T08:44:43Z</time>
      </trkpt>
      <trkpt lat="46.0713" lon="6.77644">
        <ele>1774.9</ele>
        <time>2026-06-26T08:44:44Z</time>
      </trkpt>
      <trkpt lat="46.07129" lon="6.77645">
        <ele>1775</ele>
        <time>2026-06-26T08:44:45Z</time>
      </trkpt>
      <trkpt lat="46.07128" lon="6.77645">
        <ele>1775.2</ele>
        <time>2026-06-26T08:44:46Z</time>
      </trkpt>
      <trkpt lat="46.07128" lon="6.77646">
        <ele>1775.4</ele>
        <time>2026-06-26T08:44:47Z</time>
      </trkpt>
      <trkpt lat="46.07128" lon="6.77647">
        <ele>1775.6</ele>
        <time>2026-06-26T08:44:48Z</time>
      </trkpt>
      <trkpt lat="46.07128" lon="6.77647">
        <ele>1775.7</ele>
        <time>2026-06-26T08:44:49Z</time>
      </trkpt>
      <trkpt lat="46.07128" lon="6.77648">
        <ele>1775.9</ele>
        <time>2026-06-26T08:44:50Z</time>
      </trkpt>
      <trkpt lat="46.07128" lon="6.77649">
        <ele>1776.1</ele>
        <time>2026-06-26T08:44:51Z</time>
      </trkpt>
      <trkpt lat="46.07128" lon="6.7765">
        <ele>1776.4</ele>
        <time>2026-06-26T08:44:52Z</time>
      </trkpt>
      <trkpt lat="46.07127" lon="6.7765">
        <ele>1776.7</ele>
        <time>2026-06-26T08:44:53Z</time>
      </trkpt>
      <trkpt lat="46.07127" lon="6.7765">
        <ele>1777</ele>
        <time>2026-06-26T08:44:54Z</time>
      </trkpt>
      <trkpt lat="46.07126" lon="6.77651">
        <ele>1777.2</ele>
        <time>2026-06-26T08:44:55Z</time>
      </trkpt>
      <trkpt lat="46.07126" lon="6.77652">
        <ele>1777.4</ele>
        <time>2026-06-26T08:44:56Z</time>
      </trkpt>
      <trkpt lat="46.07126" lon="6.77652">
        <ele>1777.6</ele>
        <time>2026-06-26T08:44:57Z</time>
      </trkpt>
      <trkpt lat="46.07126" lon="6.77653">
        <ele>1777.8</ele>
        <time>2026-06-26T08:44:58Z</time>
      </trkpt>
      <trkpt lat="46.07126" lon="6.77653">
        <ele>1778</ele>
        <time>2026-06-26T08:44:59Z</time>
      </trkpt>
      <trkpt lat="46.07125" lon="6.77654">
        <ele>1778.3</ele>
        <time>2026-06-26T08:45:00Z</time>
      </trkpt>
      <trkpt lat="46.07125" lon="6.77654">
        <ele>1778.4</ele>
        <time>2026-06-26T08:45:01Z</time>
      </trkpt>
      <trkpt lat="46.07125" lon="6.77655">
        <ele>1778.6</ele>
        <time>2026-06-26T08:45:02Z</time>
      </trkpt>
      <trkpt lat="46.07125" lon="6.77655">
        <ele>1778.7</ele>
        <time>2026-06-26T08:45:03Z</time>
      </trkpt>
      <trkpt lat="46.07125" lon="6.77656">
        <ele>1778.9</ele>
        <time>2026-06-26T08:45:04Z</time>
      </trkpt>
      <trkpt lat="46.07125" lon="6.77656">
        <ele>1779</ele>
        <time>2026-06-26T08:45:05Z</time>
      </trkpt>
      <trkpt lat="46.07124" lon="6.77656">
        <ele>1779.1</ele>
        <time>2026-06-26T08:45:06Z</time>
      </trkpt>
      <trkpt lat="46.07124" lon="6.77656">
        <ele>1779.3</ele>
        <time>2026-06-26T08:45:07Z</time>
      </trkpt>
      <trkpt lat="46.07123" lon="6.77656">
        <ele>1779.5</ele>
        <time>2026-06-26T08:45:08Z</time>
      </trkpt>
      <trkpt lat="46.07123" lon="6.77656">
        <ele>1779.7</ele>
        <time>2026-06-26T08:45:09Z</time>
      </trkpt>
      <trkpt lat="46.07122" lon="6.77657">
        <ele>1779.8</ele>
        <time>2026-06-26T08:45:10Z</time>
      </trkpt>
      <trkpt lat="46.07122" lon="6.77657">
        <ele>1780.1</ele>
        <time>2026-06-26T08:45:11Z</time>
      </trkpt>
      <trkpt lat="46.07122" lon="6.77657">
        <ele>1780.3</ele>
        <time>2026-06-26T08:45:12Z</time>
      </trkpt>
      <trkpt lat="46.07121" lon="6.77658">
        <ele>1780.6</ele>
        <time>2026-06-26T08:45:13Z</time>
      </trkpt>
      <trkpt lat="46.07121" lon="6.77658">
        <ele>1780.8</ele>
        <time>2026-06-26T08:45:14Z</time>
      </trkpt>
      <trkpt lat="46.0712" lon="6.77659">
        <ele>1781</ele>
        <time>2026-06-26T08:45:15Z</time>
      </trkpt>
      <trkpt lat="46.0712" lon="6.77659">
        <ele>1781.2</ele>
        <time>2026-06-26T08:45:16Z</time>
      </trkpt>
      <trkpt lat="46.0712" lon="6.7766">
        <ele>1781.3</ele>
        <time>2026-06-26T08:45:17Z</time>
      </trkpt>
      <trkpt lat="46.0712" lon="6.77661">
        <ele>1781.7</ele>
        <time>2026-06-26T08:45:18Z</time>
      </trkpt>
      <trkpt lat="46.0712" lon="6.77662">
        <ele>1781.9</ele>
        <time>2026-06-26T08:45:19Z</time>
      </trkpt>
      <trkpt lat="46.0712" lon="6.77663">
        <ele>1782</ele>
        <time>2026-06-26T08:45:20Z</time>
      </trkpt>
      <trkpt lat="46.0712" lon="6.77664">
        <ele>1782.1</ele>
        <time>2026-06-26T08:45:21Z</time>
      </trkpt>
      <trkpt lat="46.0712" lon="6.77665">
        <ele>1782.2</ele>
        <time>2026-06-26T08:45:22Z</time>
      </trkpt>
      <trkpt lat="46.0712" lon="6.77666">
        <ele>1782.3</ele>
        <time>2026-06-26T08:45:23Z</time>
      </trkpt>
      <trkpt lat="46.0712" lon="6.77667">
        <ele>1782.5</ele>
        <time>2026-06-26T08:45:24Z</time>
      </trkpt>
      <trkpt lat="46.0712" lon="6.77668">
        <ele>1782.7</ele>
        <time>2026-06-26T08:45:25Z</time>
      </trkpt>
      <trkpt lat="46.0712" lon="6.77669">
        <ele>1782.8</ele>
        <time>2026-06-26T08:45:26Z</time>
      </trkpt>
      <trkpt lat="46.07119" lon="6.7767">
        <ele>1783.1</ele>
        <time>2026-06-26T08:45:27Z</time>
      </trkpt>
      <trkpt lat="46.07119" lon="6.7767">
        <ele>1783.3</ele>
        <time>2026-06-26T08:45:28Z</time>
      </trkpt>
      <trkpt lat="46.07119" lon="6.77671">
        <ele>1783.4</ele>
        <time>2026-06-26T08:45:29Z</time>
      </trkpt>
      <trkpt lat="46.07118" lon="6.77672">
        <ele>1783.5</ele>
        <time>2026-06-26T08:45:30Z</time>
      </trkpt>
      <trkpt lat="46.07118" lon="6.77673">
        <ele>1783.7</ele>
        <time>2026-06-26T08:45:31Z</time>
      </trkpt>
      <trkpt lat="46.07117" lon="6.77674">
        <ele>1783.8</ele>
        <time>2026-06-26T08:45:32Z</time>
      </trkpt>
      <trkpt lat="46.07117" lon="6.77675">
        <ele>1784</ele>
        <time>2026-06-26T08:45:33Z</time>
      </trkpt>
      <trkpt lat="46.07117" lon="6.77676">
        <ele>1784.1</ele>
        <time>2026-06-26T08:45:34Z</time>
      </trkpt>
      <trkpt lat="46.07117" lon="6.77677">
        <ele>1784.2</ele>
        <time>2026-06-26T08:45:35Z</time>
      </trkpt>
      <trkpt lat="46.07116" lon="6.77678">
        <ele>1784.3</ele>
        <time>2026-06-26T08:45:36Z</time>
      </trkpt>
      <trkpt lat="46.07116" lon="6.77678">
        <ele>1784.4</ele>
        <time>2026-06-26T08:45:37Z</time>
      </trkpt>
      <trkpt lat="46.07116" lon="6.77679">
        <ele>1784.5</ele>
        <time>2026-06-26T08:45:38Z</time>
      </trkpt>
      <trkpt lat="46.07116" lon="6.77681">
        <ele>1784.6</ele>
        <time>2026-06-26T08:45:39Z</time>
      </trkpt>
      <trkpt lat="46.07116" lon="6.77681">
        <ele>1784.7</ele>
        <time>2026-06-26T08:45:40Z</time>
      </trkpt>
      <trkpt lat="46.07116" lon="6.77682">
        <ele>1784.8</ele>
        <time>2026-06-26T08:45:41Z</time>
      </trkpt>
      <trkpt lat="46.07115" lon="6.77682">
        <ele>1784.9</ele>
        <time>2026-06-26T08:45:42Z</time>
      </trkpt>
      <trkpt lat="46.07115" lon="6.77683">
        <ele>1785</ele>
        <time>2026-06-26T08:45:43Z</time>
      </trkpt>
      <trkpt lat="46.07116" lon="6.77683">
        <ele>1785.2</ele>
        <time>2026-06-26T08:45:44Z</time>
      </trkpt>
      <trkpt lat="46.07115" lon="6.77683">
        <ele>1785.3</ele>
        <time>2026-06-26T08:45:45Z</time>
      </trkpt>
      <trkpt lat="46.07116" lon="6.77684">
        <ele>1785.4</ele>
        <time>2026-06-26T08:45:46Z</time>
      </trkpt>
      <trkpt lat="46.07116" lon="6.77684">
        <ele>1785.5</ele>
        <time>2026-06-26T08:45:47Z</time>
      </trkpt>
      <trkpt lat="46.07116" lon="6.77684">
        <ele>1785.6</ele>
        <time>2026-06-26T08:45:48Z</time>
      </trkpt>
      <trkpt lat="46.07116" lon="6.77684">
        <ele>1785.8</ele>
        <time>2026-06-26T08:45:49Z</time>
      </trkpt>
      <trkpt lat="46.07116" lon="6.77684">
        <ele>1785.8</ele>
        <time>2026-06-26T08:45:50Z</time>
      </trkpt>
      <trkpt lat="46.07116" lon="6.77684">
        <ele>1785.8</ele>
        <time>2026-06-26T08:45:51Z</time>
      </trkpt>
      <trkpt lat="46.07116" lon="6.77684">
        <ele>1785.8</ele>
        <time>2026-06-26T08:45:52Z</time>
      </trkpt>
      <trkpt lat="46.07116" lon="6.77684">
        <ele>1785.9</ele>
        <time>2026-06-26T08:45:53Z</time>
      </trkpt>
      <trkpt lat="46.07116" lon="6.77684">
        <ele>1786</ele>
        <time>2026-06-26T08:45:54Z</time>
      </trkpt>
      <trkpt lat="46.07116" lon="6.77685">
        <ele>1786.1</ele>
        <time>2026-06-26T08:45:55Z</time>
      </trkpt>
      <trkpt lat="46.07115" lon="6.77685">
        <ele>1786.3</ele>
        <time>2026-06-26T08:45:56Z</time>
      </trkpt>
      <trkpt lat="46.07116" lon="6.77686">
        <ele>1786.4</ele>
        <time>2026-06-26T08:45:57Z</time>
      </trkpt>
      <trkpt lat="46.07116" lon="6.77687">
        <ele>1786.6</ele>
        <time>2026-06-26T08:45:58Z</time>
      </trkpt>
      <trkpt lat="46.07116" lon="6.77688">
        <ele>1786.7</ele>
        <time>2026-06-26T08:45:59Z</time>
      </trkpt>
      <trkpt lat="46.07117" lon="6.77688">
        <ele>1786.7</ele>
        <time>2026-06-26T08:46:00Z</time>
      </trkpt>
      <trkpt lat="46.07117" lon="6.77689">
        <ele>1786.6</ele>
        <time>2026-06-26T08:46:01Z</time>
      </trkpt>
      <trkpt lat="46.07117" lon="6.77689">
        <ele>1786.5</ele>
        <time>2026-06-26T08:46:02Z</time>
      </trkpt>
      <trkpt lat="46.07117" lon="6.77689">
        <ele>1786.6</ele>
        <time>2026-06-26T08:46:03Z</time>
      </trkpt>
      <trkpt lat="46.07117" lon="6.7769">
        <ele>1786.7</ele>
        <time>2026-06-26T08:46:04Z</time>
      </trkpt>
      <trkpt lat="46.07117" lon="6.7769">
        <ele>1786.7</ele>
        <time>2026-06-26T08:46:05Z</time>
      </trkpt>
      <trkpt lat="46.07118" lon="6.7769">
        <ele>1786.6</ele>
        <time>2026-06-26T08:46:06Z</time>
      </trkpt>
      <trkpt lat="46.07118" lon="6.7769">
        <ele>1786.7</ele>
        <time>2026-06-26T08:46:07Z</time>
      </trkpt>
      <trkpt lat="46.07118" lon="6.7769">
        <ele>1786.6</ele>
        <time>2026-06-26T08:46:08Z</time>
      </trkpt>
      <trkpt lat="46.07118" lon="6.7769">
        <ele>1786.6</ele>
        <time>2026-06-26T08:46:09Z</time>
      </trkpt>
      <trkpt lat="46.07118" lon="6.7769">
        <ele>1786.6</ele>
        <time>2026-06-26T08:46:10Z</time>
      </trkpt>
      <trkpt lat="46.07118" lon="6.7769">
        <ele>1786.6</ele>
        <time>2026-06-26T08:46:11Z</time>
      </trkpt>
      <trkpt lat="46.07118" lon="6.7769">
        <ele>1786.7</ele>
        <time>2026-06-26T08:46:12Z</time>
      </trkpt>
      <trkpt lat="46.07118" lon="6.7769">
        <ele>1786.7</ele>
        <time>2026-06-26T08:46:13Z</time>
      </trkpt>
      <trkpt lat="46.07118" lon="6.77691">
        <ele>1786.8</ele>
        <time>2026-06-26T08:46:14Z</time>
      </trkpt>
      <trkpt lat="46.07118" lon="6.77691">
        <ele>1786.8</ele>
        <time>2026-06-26T08:46:15Z</time>
      </trkpt>
      <trkpt lat="46.07118" lon="6.77691">
        <ele>1786.7</ele>
        <time>2026-06-26T08:46:16Z</time>
      </trkpt>
      <trkpt lat="46.07118" lon="6.77691">
        <ele>1786.8</ele>
        <time>2026-06-26T08:46:17Z</time>
      </trkpt>
      <trkpt lat="46.07118" lon="6.77691">
        <ele>1786.9</ele>
        <time>2026-06-26T08:46:18Z</time>
      </trkpt>
      <trkpt lat="46.07118" lon="6.77691">
        <ele>1786.9</ele>
        <time>2026-06-26T08:46:19Z</time>
      </trkpt>
      <trkpt lat="46.07118" lon="6.77691">
        <ele>1787</ele>
        <time>2026-06-26T08:46:20Z</time>
      </trkpt>
      <trkpt lat="46.07118" lon="6.77691">
        <ele>1787</ele>
        <time>2026-06-26T08:46:21Z</time>
      </trkpt>
      <trkpt lat="46.07118" lon="6.77691">
        <ele>1787</ele>
        <time>2026-06-26T08:46:22Z</time>
      </trkpt>
      <trkpt lat="46.07118" lon="6.77691">
        <ele>1787</ele>
        <time>2026-06-26T08:46:23Z</time>
      </trkpt>
      <trkpt lat="46.07118" lon="6.77691">
        <ele>1787</ele>
        <time>2026-06-26T08:46:24Z</time>
      </trkpt>
      <trkpt lat="46.07118" lon="6.77692">
        <ele>1787</ele>
        <time>2026-06-26T08:46:25Z</time>
      </trkpt>
      <trkpt lat="46.07118" lon="6.77692">
        <ele>1786.9</ele>
        <time>2026-06-26T08:46:26Z</time>
      </trkpt>
      <trkpt lat="46.07118" lon="6.77692">
        <ele>1786.9</ele>
        <time>2026-06-26T08:46:27Z</time>
      </trkpt>
      <trkpt lat="46.07118" lon="6.77692">
        <ele>1786.8</ele>
        <time>2026-06-26T08:46:28Z</time>
      </trkpt>
      <trkpt lat="46.07118" lon="6.77692">
        <ele>1786.8</ele>
        <time>2026-06-26T08:46:29Z</time>
      </trkpt>
      <trkpt lat="46.07118" lon="6.77692">
        <ele>1786.7</ele>
        <time>2026-06-26T08:46:30Z</time>
      </trkpt>
      <trkpt lat="46.07118" lon="6.77692">
        <ele>1786.6</ele>
        <time>2026-06-26T08:46:31Z</time>
      </trkpt>
      <trkpt lat="46.07118" lon="6.77692">
        <ele>1786.6</ele>
        <time>2026-06-26T08:46:32Z</time>
      </trkpt>
      <trkpt lat="46.07118" lon="6.77692">
        <ele>1786.5</ele>
        <time>2026-06-26T08:46:33Z</time>
      </trkpt>
      <trkpt lat="46.07118" lon="6.77692">
        <ele>1786.4</ele>
        <time>2026-06-26T08:46:34Z</time>
      </trkpt>
      <trkpt lat="46.07118" lon="6.77692">
        <ele>1786.5</ele>
        <time>2026-06-26T08:46:35Z</time>
      </trkpt>
      <trkpt lat="46.07119" lon="6.77692">
        <ele>1786.5</ele>
        <time>2026-06-26T08:46:36Z</time>
      </trkpt>
      <trkpt lat="46.07119" lon="6.77692">
        <ele>1786.5</ele>
        <time>2026-06-26T08:46:37Z</time>
      </trkpt>
      <trkpt lat="46.07119" lon="6.77692">
        <ele>1786.5</ele>
        <time>2026-06-26T08:46:38Z</time>
      </trkpt>
      <trkpt lat="46.07119" lon="6.77692">
        <ele>1786.5</ele>
        <time>2026-06-26T08:46:39Z</time>
      </trkpt>
      <trkpt lat="46.07119" lon="6.77692">
        <ele>1786.5</ele>
        <time>2026-06-26T08:46:40Z</time>
      </trkpt>
      <trkpt lat="46.07119" lon="6.77692">
        <ele>1786.6</ele>
        <time>2026-06-26T08:46:41Z</time>
      </trkpt>
      <trkpt lat="46.07119" lon="6.77692">
        <ele>1786.6</ele>
        <time>2026-06-26T08:46:42Z</time>
      </trkpt>
      <trkpt lat="46.07119" lon="6.77692">
        <ele>1786.7</ele>
        <time>2026-06-26T08:46:43Z</time>
      </trkpt>
      <trkpt lat="46.07119" lon="6.77692">
        <ele>1786.7</ele>
        <time>2026-06-26T08:46:44Z</time>
      </trkpt>
      <trkpt lat="46.07119" lon="6.77692">
        <ele>1786.7</ele>
        <time>2026-06-26T08:46:45Z</time>
      </trkpt>
      <trkpt lat="46.07119" lon="6.77692">
        <ele>1786.7</ele>
        <time>2026-06-26T08:46:46Z</time>
      </trkpt>
      <trkpt lat="46.07119" lon="6.77692">
        <ele>1786.7</ele>
        <time>2026-06-26T08:46:47Z</time>
      </trkpt>
      <trkpt lat="46.07119" lon="6.77692">
        <ele>1786.7</ele>
        <time>2026-06-26T08:46:48Z</time>
      </trkpt>
      <trkpt lat="46.07119" lon="6.77692">
        <ele>1786.7</ele>
        <time>2026-06-26T08:46:49Z</time>
      </trkpt>
      <trkpt lat="46.07119" lon="6.77692">
        <ele>1786.7</ele>
        <time>2026-06-26T08:46:50Z</time>
      </trkpt>
      <trkpt lat="46.07119" lon="6.77692">
        <ele>1786.7</ele>
        <time>2026-06-26T08:46:51Z</time>
      </trkpt>
      <trkpt lat="46.07119" lon="6.77692">
        <ele>1786.7</ele>
        <time>2026-06-26T08:46:52Z</time>
      </trkpt>
      <trkpt lat="46.07119" lon="6.77692">
        <ele>1786.7</ele>
        <time>2026-06-26T08:46:53Z</time>
      </trkpt>
      <trkpt lat="46.0712" lon="6.77692">
        <ele>1786.8</ele>
        <time>2026-06-26T08:46:54Z</time>
      </trkpt>
      <trkpt lat="46.0712" lon="6.77692">
        <ele>1786.7</ele>
        <time>2026-06-26T08:46:55Z</time>
      </trkpt>
      <trkpt lat="46.0712" lon="6.77692">
        <ele>1786.7</ele>
        <time>2026-06-26T08:46:56Z</time>
      </trkpt>
      <trkpt lat="46.0712" lon="6.77692">
        <ele>1786.7</ele>
        <time>2026-06-26T08:46:57Z</time>
      </trkpt>
      <trkpt lat="46.0712" lon="6.77692">
        <ele>1786.7</ele>
        <time>2026-06-26T08:46:58Z</time>
      </trkpt>
      <trkpt lat="46.0712" lon="6.77692">
        <ele>1786.7</ele>
        <time>2026-06-26T08:46:59Z</time>
      </trkpt>
      <trkpt lat="46.07119" lon="6.77692">
        <ele>1786.7</ele>
        <time>2026-06-26T08:47:00Z</time>
      </trkpt>
      <trkpt lat="46.07119" lon="6.77692">
        <ele>1786.6</ele>
        <time>2026-06-26T08:47:01Z</time>
      </trkpt>
      <trkpt lat="46.07119" lon="6.77692">
        <ele>1786.5</ele>
        <time>2026-06-26T08:47:02Z</time>
      </trkpt>
      <trkpt lat="46.0712" lon="6.77692">
        <ele>1786.5</ele>
        <time>2026-06-26T08:47:03Z</time>
      </trkpt>
      <trkpt lat="46.0712" lon="6.77692">
        <ele>1786.4</ele>
        <time>2026-06-26T08:47:04Z</time>
      </trkpt>
      <trkpt lat="46.0712" lon="6.77692">
        <ele>1786.5</ele>
        <time>2026-06-26T08:47:05Z</time>
      </trkpt>
      <trkpt lat="46.07119" lon="6.77692">
        <ele>1786.5</ele>
        <time>2026-06-26T08:47:06Z</time>
      </trkpt>
      <trkpt lat="46.0712" lon="6.77692">
        <ele>1786.5</ele>
        <time>2026-06-26T08:47:07Z</time>
      </trkpt>
      <trkpt lat="46.0712" lon="6.77692">
        <ele>1786.5</ele>
        <time>2026-06-26T08:47:08Z</time>
      </trkpt>
      <trkpt lat="46.0712" lon="6.77692">
        <ele>1786.5</ele>
        <time>2026-06-26T08:47:09Z</time>
      </trkpt>
      <trkpt lat="46.0712" lon="6.77692">
        <ele>1786.5</ele>
        <time>2026-06-26T08:47:10Z</time>
      </trkpt>
      <trkpt lat="46.0712" lon="6.77691">
        <ele>1786.5</ele>
        <time>2026-06-26T08:47:11Z</time>
      </trkpt>
      <trkpt lat="46.0712" lon="6.77692">
        <ele>1786.5</ele>
        <time>2026-06-26T08:47:12Z</time>
      </trkpt>
      <trkpt lat="46.0712" lon="6.77692">
        <ele>1786.5</ele>
        <time>2026-06-26T08:47:13Z</time>
      </trkpt>
      <trkpt lat="46.0712" lon="6.77692">
        <ele>1786.5</ele>
        <time>2026-06-26T08:47:14Z</time>
      </trkpt>
      <trkpt lat="46.0712" lon="6.77692">
        <ele>1786.5</ele>
        <time>2026-06-26T08:47:15Z</time>
      </trkpt>
      <trkpt lat="46.0712" lon="6.77692">
        <ele>1786.6</ele>
        <time>2026-06-26T08:47:16Z</time>
      </trkpt>
      <trkpt lat="46.0712" lon="6.77692">
        <ele>1786.7</ele>
        <time>2026-06-26T08:47:17Z</time>
      </trkpt>
      <trkpt lat="46.0712" lon="6.77692">
        <ele>1786.7</ele>
        <time>2026-06-26T08:47:18Z</time>
      </trkpt>
      <trkpt lat="46.0712" lon="6.77692">
        <ele>1786.7</ele>
        <time>2026-06-26T08:47:19Z</time>
      </trkpt>
      <trkpt lat="46.0712" lon="6.77692">
        <ele>1786.6</ele>
        <time>2026-06-26T08:47:20Z</time>
      </trkpt>
      <trkpt lat="46.0712" lon="6.77692">
        <ele>1786.6</ele>
        <time>2026-06-26T08:47:21Z</time>
      </trkpt>
      <trkpt lat="46.0712" lon="6.77692">
        <ele>1786.6</ele>
        <time>2026-06-26T08:47:22Z</time>
      </trkpt>
      <trkpt lat="46.0712" lon="6.77692">
        <ele>1786.6</ele>
        <time>2026-06-26T08:47:23Z</time>
      </trkpt>
      <trkpt lat="46.0712" lon="6.77692">
        <ele>1786.6</ele>
        <time>2026-06-26T08:47:24Z</time>
      </trkpt>
      <trkpt lat="46.0712" lon="6.77692">
        <ele>1786.6</ele>
        <time>2026-06-26T08:47:25Z</time>
      </trkpt>
      <trkpt lat="46.0712" lon="6.77692">
        <ele>1786.6</ele>
        <time>2026-06-26T08:47:26Z</time>
      </trkpt>
      <trkpt lat="46.0712" lon="6.77692">
        <ele>1786.6</ele>
        <time>2026-06-26T08:47:27Z</time>
      </trkpt>
      <trkpt lat="46.0712" lon="6.77692">
        <ele>1786.7</ele>
        <time>2026-06-26T08:47:28Z</time>
      </trkpt>
      <trkpt lat="46.0712" lon="6.77692">
        <ele>1786.7</ele>
        <time>2026-06-26T08:47:29Z</time>
      </trkpt>
      <trkpt lat="46.0712" lon="6.77692">
        <ele>1786.7</ele>
        <time>2026-06-26T08:47:30Z</time>
      </trkpt>
      <trkpt lat="46.0712" lon="6.77692">
        <ele>1786.7</ele>
        <time>2026-06-26T08:47:31Z</time>
      </trkpt>
      <trkpt lat="46.07121" lon="6.77692">
        <ele>1786.6</ele>
        <time>2026-06-26T08:47:32Z</time>
      </trkpt>
      <trkpt lat="46.0712" lon="6.77692">
        <ele>1786.6</ele>
        <time>2026-06-26T08:47:33Z</time>
      </trkpt>
      <trkpt lat="46.07121" lon="6.77692">
        <ele>1786.5</ele>
        <time>2026-06-26T08:47:34Z</time>
      </trkpt>
      <trkpt lat="46.07121" lon="6.77693">
        <ele>1786.4</ele>
        <time>2026-06-26T08:47:35Z</time>
      </trkpt>
      <trkpt lat="46.07121" lon="6.77693">
        <ele>1786.4</ele>
        <time>2026-06-26T08:47:36Z</time>
      </trkpt>
      <trkpt lat="46.07121" lon="6.77693">
        <ele>1786.3</ele>
        <time>2026-06-26T08:47:37Z</time>
      </trkpt>
      <trkpt lat="46.07121" lon="6.77693">
        <ele>1786.3</ele>
        <time>2026-06-26T08:47:38Z</time>
      </trkpt>
      <trkpt lat="46.07121" lon="6.77693">
        <ele>1786.4</ele>
        <time>2026-06-26T08:47:39Z</time>
      </trkpt>
      <trkpt lat="46.07121" lon="6.77693">
        <ele>1786.4</ele>
        <time>2026-06-26T08:47:40Z</time>
      </trkpt>
      <trkpt lat="46.07121" lon="6.77693">
        <ele>1786.4</ele>
        <time>2026-06-26T08:47:41Z</time>
      </trkpt>
      <trkpt lat="46.07121" lon="6.77693">
        <ele>1786.3</ele>
        <time>2026-06-26T08:47:42Z</time>
      </trkpt>
      <trkpt lat="46.07121" lon="6.77693">
        <ele>1786.3</ele>
        <time>2026-06-26T08:47:43Z</time>
      </trkpt>
      <trkpt lat="46.07121" lon="6.77693">
        <ele>1786.3</ele>
        <time>2026-06-26T08:47:44Z</time>
      </trkpt>
      <trkpt lat="46.07121" lon="6.77693">
        <ele>1786.3</ele>
        <time>2026-06-26T08:47:45Z</time>
      </trkpt>
      <trkpt lat="46.07121" lon="6.77693">
        <ele>1786.3</ele>
        <time>2026-06-26T08:47:46Z</time>
      </trkpt>
      <trkpt lat="46.07121" lon="6.77693">
        <ele>1786.3</ele>
        <time>2026-06-26T08:47:47Z</time>
      </trkpt>
      <trkpt lat="46.07121" lon="6.77693">
        <ele>1786.3</ele>
        <time>2026-06-26T08:47:48Z</time>
      </trkpt>
      <trkpt lat="46.07121" lon="6.77693">
        <ele>1786.4</ele>
        <time>2026-06-26T08:47:49Z</time>
      </trkpt>
      <trkpt lat="46.07121" lon="6.77693">
        <ele>1786.4</ele>
        <time>2026-06-26T08:47:50Z</time>
      </trkpt>
      <trkpt lat="46.07121" lon="6.77693">
        <ele>1786.4</ele>
        <time>2026-06-26T08:47:51Z</time>
      </trkpt>
      <trkpt lat="46.07121" lon="6.77693">
        <ele>1786.4</ele>
        <time>2026-06-26T08:47:52Z</time>
      </trkpt>
      <trkpt lat="46.07121" lon="6.77693">
        <ele>1786.4</ele>
        <time>2026-06-26T08:47:53Z</time>
      </trkpt>
      <trkpt lat="46.07121" lon="6.77693">
        <ele>1786.4</ele>
        <time>2026-06-26T08:47:54Z</time>
      </trkpt>
      <trkpt lat="46.07121" lon="6.77693">
        <ele>1786.4</ele>
        <time>2026-06-26T08:47:55Z</time>
      </trkpt>
      <trkpt lat="46.07121" lon="6.77693">
        <ele>1786.5</ele>
        <time>2026-06-26T08:47:56Z</time>
      </trkpt>
      <trkpt lat="46.07121" lon="6.77693">
        <ele>1786.5</ele>
        <time>2026-06-26T08:47:57Z</time>
      </trkpt>
      <trkpt lat="46.07121" lon="6.77693">
        <ele>1786.5</ele>
        <time>2026-06-26T08:47:58Z</time>
      </trkpt>
      <trkpt lat="46.07121" lon="6.77693">
        <ele>1786.5</ele>
        <time>2026-06-26T08:47:59Z</time>
      </trkpt>
      <trkpt lat="46.07121" lon="6.77693">
        <ele>1786.6</ele>
        <time>2026-06-26T08:48:00Z</time>
      </trkpt>
      <trkpt lat="46.07121" lon="6.77693">
        <ele>1786.6</ele>
        <time>2026-06-26T08:48:01Z</time>
      </trkpt>
      <trkpt lat="46.07121" lon="6.77693">
        <ele>1786.6</ele>
        <time>2026-06-26T08:48:02Z</time>
      </trkpt>
      <trkpt lat="46.07121" lon="6.77693">
        <ele>1786.6</ele>
        <time>2026-06-26T08:48:03Z</time>
      </trkpt>
      <trkpt lat="46.07121" lon="6.77693">
        <ele>1786.6</ele>
        <time>2026-06-26T08:48:04Z</time>
      </trkpt>
      <trkpt lat="46.07121" lon="6.77693">
        <ele>1786.5</ele>
        <time>2026-06-26T08:48:05Z</time>
      </trkpt>
      <trkpt lat="46.07121" lon="6.77693">
        <ele>1786.5</ele>
        <time>2026-06-26T08:48:06Z</time>
      </trkpt>
      <trkpt lat="46.07121" lon="6.77693">
        <ele>1786.4</ele>
        <time>2026-06-26T08:48:07Z</time>
      </trkpt>
      <trkpt lat="46.07121" lon="6.77693">
        <ele>1786.4</ele>
        <time>2026-06-26T08:48:08Z</time>
      </trkpt>
      <trkpt lat="46.07121" lon="6.77692">
        <ele>1786.3</ele>
        <time>2026-06-26T08:48:09Z</time>
      </trkpt>
      <trkpt lat="46.07121" lon="6.77692">
        <ele>1786.3</ele>
        <time>2026-06-26T08:48:10Z</time>
      </trkpt>
      <trkpt lat="46.07121" lon="6.77692">
        <ele>1786.3</ele>
        <time>2026-06-26T08:48:11Z</time>
      </trkpt>
      <trkpt lat="46.07121" lon="6.77692">
        <ele>1786.2</ele>
        <time>2026-06-26T08:48:12Z</time>
      </trkpt>
      <trkpt lat="46.07121" lon="6.77692">
        <ele>1786.2</ele>
        <time>2026-06-26T08:48:13Z</time>
      </trkpt>
      <trkpt lat="46.07121" lon="6.77692">
        <ele>1786.2</ele>
        <time>2026-06-26T08:48:14Z</time>
      </trkpt>
      <trkpt lat="46.07121" lon="6.77692">
        <ele>1786.3</ele>
        <time>2026-06-26T08:48:15Z</time>
      </trkpt>
      <trkpt lat="46.07121" lon="6.77692">
        <ele>1786.3</ele>
        <time>2026-06-26T08:48:16Z</time>
      </trkpt>
      <trkpt lat="46.07121" lon="6.77692">
        <ele>1786.4</ele>
        <time>2026-06-26T08:48:17Z</time>
      </trkpt>
      <trkpt lat="46.07121" lon="6.77692">
        <ele>1786.4</ele>
        <time>2026-06-26T08:48:18Z</time>
      </trkpt>
      <trkpt lat="46.07121" lon="6.77692">
        <ele>1786.4</ele>
        <time>2026-06-26T08:48:19Z</time>
      </trkpt>
      <trkpt lat="46.07121" lon="6.77692">
        <ele>1786.5</ele>
        <time>2026-06-26T08:48:20Z</time>
      </trkpt>
      <trkpt lat="46.07121" lon="6.77692">
        <ele>1786.5</ele>
        <time>2026-06-26T08:48:21Z</time>
      </trkpt>
      <trkpt lat="46.07121" lon="6.77692">
        <ele>1786.5</ele>
        <time>2026-06-26T08:48:22Z</time>
      </trkpt>
      <trkpt lat="46.07121" lon="6.77692">
        <ele>1786.5</ele>
        <time>2026-06-26T08:48:23Z</time>
      </trkpt>
      <trkpt lat="46.07121" lon="6.77693">
        <ele>1786.5</ele>
        <time>2026-06-26T08:48:24Z</time>
      </trkpt>
      <trkpt lat="46.07121" lon="6.77693">
        <ele>1786.5</ele>
        <time>2026-06-26T08:48:25Z</time>
      </trkpt>
      <trkpt lat="46.07121" lon="6.77693">
        <ele>1786.5</ele>
        <time>2026-06-26T08:48:26Z</time>
      </trkpt>
      <trkpt lat="46.07121" lon="6.77693">
        <ele>1786.5</ele>
        <time>2026-06-26T08:48:27Z</time>
      </trkpt>
      <trkpt lat="46.07121" lon="6.77693">
        <ele>1786.5</ele>
        <time>2026-06-26T08:48:28Z</time>
      </trkpt>
      <trkpt lat="46.07121" lon="6.77693">
        <ele>1786.5</ele>
        <time>2026-06-26T08:48:29Z</time>
      </trkpt>
      <trkpt lat="46.07121" lon="6.77693">
        <ele>1786.5</ele>
        <time>2026-06-26T08:48:30Z</time>
      </trkpt>
      <trkpt lat="46.07122" lon="6.77694">
        <ele>1786.5</ele>
        <time>2026-06-26T08:48:31Z</time>
      </trkpt>
      <trkpt lat="46.07121" lon="6.77694">
        <ele>1786.5</ele>
        <time>2026-06-26T08:48:32Z</time>
      </trkpt>
      <trkpt lat="46.07121" lon="6.77694">
        <ele>1786.5</ele>
        <time>2026-06-26T08:48:33Z</time>
      </trkpt>
      <trkpt lat="46.07122" lon="6.77694">
        <ele>1786.5</ele>
        <time>2026-06-26T08:48:34Z</time>
      </trkpt>
      <trkpt lat="46.07122" lon="6.77694">
        <ele>1786.6</ele>
        <time>2026-06-26T08:48:35Z</time>
      </trkpt>
      <trkpt lat="46.07122" lon="6.77694">
        <ele>1786.6</ele>
        <time>2026-06-26T08:48:36Z</time>
      </trkpt>
      <trkpt lat="46.07122" lon="6.77694">
        <ele>1786.6</ele>
        <time>2026-06-26T08:48:37Z</time>
      </trkpt>
      <trkpt lat="46.07122" lon="6.77694">
        <ele>1786.7</ele>
        <time>2026-06-26T08:48:38Z</time>
      </trkpt>
      <trkpt lat="46.07121" lon="6.77694">
        <ele>1786.7</ele>
        <time>2026-06-26T08:48:39Z</time>
      </trkpt>
      <trkpt lat="46.07121" lon="6.77694">
        <ele>1786.7</ele>
        <time>2026-06-26T08:48:40Z</time>
      </trkpt>
      <trkpt lat="46.07121" lon="6.77694">
        <ele>1786.7</ele>
        <time>2026-06-26T08:48:41Z</time>
      </trkpt>
      <trkpt lat="46.07121" lon="6.77694">
        <ele>1786.6</ele>
        <time>2026-06-26T08:48:42Z</time>
      </trkpt>
      <trkpt lat="46.07121" lon="6.77694">
        <ele>1786.6</ele>
        <time>2026-06-26T08:48:43Z</time>
      </trkpt>
      <trkpt lat="46.07122" lon="6.77694">
        <ele>1786.6</ele>
        <time>2026-06-26T08:48:44Z</time>
      </trkpt>
      <trkpt lat="46.07121" lon="6.77694">
        <ele>1786.6</ele>
        <time>2026-06-26T08:48:45Z</time>
      </trkpt>
      <trkpt lat="46.07121" lon="6.77694">
        <ele>1786.5</ele>
        <time>2026-06-26T08:48:46Z</time>
      </trkpt>
      <trkpt lat="46.07121" lon="6.77694">
        <ele>1786.4</ele>
        <time>2026-06-26T08:48:47Z</time>
      </trkpt>
      <trkpt lat="46.07121" lon="6.77694">
        <ele>1786.3</ele>
        <time>2026-06-26T08:48:48Z</time>
      </trkpt>
      <trkpt lat="46.07121" lon="6.77694">
        <ele>1786.2</ele>
        <time>2026-06-26T08:48:49Z</time>
      </trkpt>
      <trkpt lat="46.07121" lon="6.77694">
        <ele>1786.2</ele>
        <time>2026-06-26T08:48:50Z</time>
      </trkpt>
      <trkpt lat="46.07121" lon="6.77694">
        <ele>1786.1</ele>
        <time>2026-06-26T08:48:51Z</time>
      </trkpt>
      <trkpt lat="46.07121" lon="6.77694">
        <ele>1786.1</ele>
        <time>2026-06-26T08:48:52Z</time>
      </trkpt>
      <trkpt lat="46.07121" lon="6.77694">
        <ele>1786.1</ele>
        <time>2026-06-26T08:48:53Z</time>
      </trkpt>
      <trkpt lat="46.07121" lon="6.77694">
        <ele>1786.1</ele>
        <time>2026-06-26T08:48:54Z</time>
      </trkpt>
      <trkpt lat="46.07121" lon="6.77694">
        <ele>1786.1</ele>
        <time>2026-06-26T08:48:55Z</time>
      </trkpt>
      <trkpt lat="46.07121" lon="6.77694">
        <ele>1786.2</ele>
        <time>2026-06-26T08:48:56Z</time>
      </trkpt>
      <trkpt lat="46.07121" lon="6.77694">
        <ele>1786.2</ele>
        <time>2026-06-26T08:48:57Z</time>
      </trkpt>
      <trkpt lat="46.07121" lon="6.77694">
        <ele>1786.2</ele>
        <time>2026-06-26T08:48:58Z</time>
      </trkpt>
      <trkpt lat="46.07121" lon="6.77693">
        <ele>1786.2</ele>
        <time>2026-06-26T08:48:59Z</time>
      </trkpt>
      <trkpt lat="46.07121" lon="6.77693">
        <ele>1786.3</ele>
        <time>2026-06-26T08:49:00Z</time>
      </trkpt>
      <trkpt lat="46.07121" lon="6.77693">
        <ele>1786.4</ele>
        <time>2026-06-26T08:49:01Z</time>
      </trkpt>
      <trkpt lat="46.07121" lon="6.77693">
        <ele>1786.4</ele>
        <time>2026-06-26T08:49:02Z</time>
      </trkpt>
      <trkpt lat="46.07121" lon="6.77693">
        <ele>1786.4</ele>
        <time>2026-06-26T08:49:03Z</time>
      </trkpt>
      <trkpt lat="46.07121" lon="6.77693">
        <ele>1786.4</ele>
        <time>2026-06-26T08:49:04Z</time>
      </trkpt>
      <trkpt lat="46.07121" lon="6.77693">
        <ele>1786.5</ele>
        <time>2026-06-26T08:49:05Z</time>
      </trkpt>
      <trkpt lat="46.07121" lon="6.77694">
        <ele>1786.5</ele>
        <time>2026-06-26T08:49:06Z</time>
      </trkpt>
      <trkpt lat="46.07121" lon="6.77694">
        <ele>1786.5</ele>
        <time>2026-06-26T08:49:07Z</time>
      </trkpt>
      <trkpt lat="46.07121" lon="6.77693">
        <ele>1786.5</ele>
        <time>2026-06-26T08:49:08Z</time>
      </trkpt>
      <trkpt lat="46.07121" lon="6.77693">
        <ele>1786.5</ele>
        <time>2026-06-26T08:49:09Z</time>
      </trkpt>
      <trkpt lat="46.0712" lon="6.77693">
        <ele>1786.5</ele>
        <time>2026-06-26T08:49:10Z</time>
      </trkpt>
      <trkpt lat="46.0712" lon="6.77693">
        <ele>1786.5</ele>
        <time>2026-06-26T08:49:11Z</time>
      </trkpt>
      <trkpt lat="46.0712" lon="6.77693">
        <ele>1786.5</ele>
        <time>2026-06-26T08:49:12Z</time>
      </trkpt>
      <trkpt lat="46.0712" lon="6.77693">
        <ele>1786.5</ele>
        <time>2026-06-26T08:49:13Z</time>
      </trkpt>
      <trkpt lat="46.0712" lon="6.77693">
        <ele>1786.5</ele>
        <time>2026-06-26T08:49:14Z</time>
      </trkpt>
      <trkpt lat="46.0712" lon="6.77693">
        <ele>1786.5</ele>
        <time>2026-06-26T08:49:15Z</time>
      </trkpt>
      <trkpt lat="46.0712" lon="6.77693">
        <ele>1786.6</ele>
        <time>2026-06-26T08:49:16Z</time>
      </trkpt>
      <trkpt lat="46.0712" lon="6.77694">
        <ele>1786.6</ele>
        <time>2026-06-26T08:49:17Z</time>
      </trkpt>
      <trkpt lat="46.0712" lon="6.77694">
        <ele>1786.6</ele>
        <time>2026-06-26T08:49:18Z</time>
      </trkpt>
      <trkpt lat="46.0712" lon="6.77694">
        <ele>1786.6</ele>
        <time>2026-06-26T08:49:19Z</time>
      </trkpt>
      <trkpt lat="46.0712" lon="6.77694">
        <ele>1786.6</ele>
        <time>2026-06-26T08:49:20Z</time>
      </trkpt>
      <trkpt lat="46.0712" lon="6.77694">
        <ele>1786.6</ele>
        <time>2026-06-26T08:49:21Z</time>
      </trkpt>
      <trkpt lat="46.0712" lon="6.77694">
        <ele>1786.7</ele>
        <time>2026-06-26T08:49:22Z</time>
      </trkpt>
      <trkpt lat="46.0712" lon="6.77694">
        <ele>1786.8</ele>
        <time>2026-06-26T08:49:23Z</time>
      </trkpt>
      <trkpt lat="46.0712" lon="6.77694">
        <ele>1786.7</ele>
        <time>2026-06-26T08:49:24Z</time>
      </trkpt>
      <trkpt lat="46.0712" lon="6.77694">
        <ele>1786.6</ele>
        <time>2026-06-26T08:49:25Z</time>
      </trkpt>
      <trkpt lat="46.0712" lon="6.77694">
        <ele>1786.6</ele>
        <time>2026-06-26T08:49:26Z</time>
      </trkpt>
      <trkpt lat="46.0712" lon="6.77694">
        <ele>1786.5</ele>
        <time>2026-06-26T08:49:27Z</time>
      </trkpt>
      <trkpt lat="46.0712" lon="6.77694">
        <ele>1786.4</ele>
        <time>2026-06-26T08:49:28Z</time>
      </trkpt>
      <trkpt lat="46.0712" lon="6.77694">
        <ele>1786.4</ele>
        <time>2026-06-26T08:49:29Z</time>
      </trkpt>
      <trkpt lat="46.0712" lon="6.77694">
        <ele>1786.4</ele>
        <time>2026-06-26T08:49:30Z</time>
      </trkpt>
      <trkpt lat="46.0712" lon="6.77694">
        <ele>1786.3</ele>
        <time>2026-06-26T08:49:31Z</time>
      </trkpt>
      <trkpt lat="46.0712" lon="6.77694">
        <ele>1786.4</ele>
        <time>2026-06-26T08:49:32Z</time>
      </trkpt>
      <trkpt lat="46.0712" lon="6.77694">
        <ele>1786.4</ele>
        <time>2026-06-26T08:49:33Z</time>
      </trkpt>
      <trkpt lat="46.0712" lon="6.77694">
        <ele>1786.4</ele>
        <time>2026-06-26T08:49:34Z</time>
      </trkpt>
      <trkpt lat="46.0712" lon="6.77694">
        <ele>1786.4</ele>
        <time>2026-06-26T08:49:35Z</time>
      </trkpt>
      <trkpt lat="46.0712" lon="6.77694">
        <ele>1786.3</ele>
        <time>2026-06-26T08:49:36Z</time>
      </trkpt>
      <trkpt lat="46.07119" lon="6.77694">
        <ele>1786.2</ele>
        <time>2026-06-26T08:49:37Z</time>
      </trkpt>
      <trkpt lat="46.07119" lon="6.77694">
        <ele>1786.3</ele>
        <time>2026-06-26T08:49:38Z</time>
      </trkpt>
      <trkpt lat="46.07119" lon="6.77694">
        <ele>1786.3</ele>
        <time>2026-06-26T08:49:39Z</time>
      </trkpt>
      <trkpt lat="46.07119" lon="6.77694">
        <ele>1786.2</ele>
        <time>2026-06-26T08:49:40Z</time>
      </trkpt>
      <trkpt lat="46.07119" lon="6.77694">
        <ele>1786.2</ele>
        <time>2026-06-26T08:49:41Z</time>
      </trkpt>
      <trkpt lat="46.07119" lon="6.77694">
        <ele>1786.2</ele>
        <time>2026-06-26T08:49:42Z</time>
      </trkpt>
      <trkpt lat="46.0712" lon="6.77694">
        <ele>1786.2</ele>
        <time>2026-06-26T08:49:43Z</time>
      </trkpt>
      <trkpt lat="46.0712" lon="6.77694">
        <ele>1786.2</ele>
        <time>2026-06-26T08:49:44Z</time>
      </trkpt>
      <trkpt lat="46.0712" lon="6.77694">
        <ele>1786.2</ele>
        <time>2026-06-26T08:49:45Z</time>
      </trkpt>
      <trkpt lat="46.0712" lon="6.77694">
        <ele>1786.3</ele>
        <time>2026-06-26T08:49:46Z</time>
      </trkpt>
      <trkpt lat="46.0712" lon="6.77694">
        <ele>1786.2</ele>
        <time>2026-06-26T08:49:47Z</time>
      </trkpt>
      <trkpt lat="46.0712" lon="6.77694">
        <ele>1786.3</ele>
        <time>2026-06-26T08:49:48Z</time>
      </trkpt>
      <trkpt lat="46.0712" lon="6.77694">
        <ele>1786.3</ele>
        <time>2026-06-26T08:49:49Z</time>
      </trkpt>
      <trkpt lat="46.0712" lon="6.77694">
        <ele>1786.2</ele>
        <time>2026-06-26T08:49:50Z</time>
      </trkpt>
      <trkpt lat="46.07119" lon="6.77694">
        <ele>1786.2</ele>
        <time>2026-06-26T08:49:51Z</time>
      </trkpt>
      <trkpt lat="46.07119" lon="6.77694">
        <ele>1786.2</ele>
        <time>2026-06-26T08:49:52Z</time>
      </trkpt>
      <trkpt lat="46.07119" lon="6.77694">
        <ele>1786.1</ele>
        <time>2026-06-26T08:49:53Z</time>
      </trkpt>
      <trkpt lat="46.07119" lon="6.77694">
        <ele>1786.1</ele>
        <time>2026-06-26T08:49:54Z</time>
      </trkpt>
      <trkpt lat="46.07119" lon="6.77694">
        <ele>1786.1</ele>
        <time>2026-06-26T08:49:55Z</time>
      </trkpt>
      <trkpt lat="46.07119" lon="6.77694">
        <ele>1786.2</ele>
        <time>2026-06-26T08:49:56Z</time>
      </trkpt>
      <trkpt lat="46.07119" lon="6.77694">
        <ele>1786.2</ele>
        <time>2026-06-26T08:49:57Z</time>
      </trkpt>
      <trkpt lat="46.07119" lon="6.77694">
        <ele>1786.1</ele>
        <time>2026-06-26T08:49:58Z</time>
      </trkpt>
      <trkpt lat="46.07119" lon="6.77694">
        <ele>1786.2</ele>
        <time>2026-06-26T08:49:59Z</time>
      </trkpt>
      <trkpt lat="46.07119" lon="6.77694">
        <ele>1786.3</ele>
        <time>2026-06-26T08:50:00Z</time>
      </trkpt>
      <trkpt lat="46.07119" lon="6.77694">
        <ele>1786.2</ele>
        <time>2026-06-26T08:50:01Z</time>
      </trkpt>
      <trkpt lat="46.07119" lon="6.77694">
        <ele>1786.2</ele>
        <time>2026-06-26T08:50:02Z</time>
      </trkpt>
      <trkpt lat="46.07119" lon="6.77694">
        <ele>1786.2</ele>
        <time>2026-06-26T08:50:03Z</time>
      </trkpt>
      <trkpt lat="46.07119" lon="6.77694">
        <ele>1786.2</ele>
        <time>2026-06-26T08:50:04Z</time>
      </trkpt>
      <trkpt lat="46.07119" lon="6.77694">
        <ele>1786.1</ele>
        <time>2026-06-26T08:50:05Z</time>
      </trkpt>
      <trkpt lat="46.07119" lon="6.77695">
        <ele>1786.1</ele>
        <time>2026-06-26T08:50:06Z</time>
      </trkpt>
      <trkpt lat="46.07119" lon="6.77695">
        <ele>1786.1</ele>
        <time>2026-06-26T08:50:07Z</time>
      </trkpt>
      <trkpt lat="46.07119" lon="6.77695">
        <ele>1786.1</ele>
        <time>2026-06-26T08:50:08Z</time>
      </trkpt>
      <trkpt lat="46.07119" lon="6.77695">
        <ele>1786.1</ele>
        <time>2026-06-26T08:50:09Z</time>
      </trkpt>
      <trkpt lat="46.07119" lon="6.77695">
        <ele>1786.1</ele>
        <time>2026-06-26T08:50:10Z</time>
      </trkpt>
      <trkpt lat="46.07119" lon="6.77695">
        <ele>1786.2</ele>
        <time>2026-06-26T08:50:11Z</time>
      </trkpt>
      <trkpt lat="46.07119" lon="6.77695">
        <ele>1786.2</ele>
        <time>2026-06-26T08:50:12Z</time>
      </trkpt>
      <trkpt lat="46.07119" lon="6.77695">
        <ele>1786.2</ele>
        <time>2026-06-26T08:50:13Z</time>
      </trkpt>
      <trkpt lat="46.07119" lon="6.77695">
        <ele>1786.2</ele>
        <time>2026-06-26T08:50:14Z</time>
      </trkpt>
      <trkpt lat="46.07119" lon="6.77694">
        <ele>1786.2</ele>
        <time>2026-06-26T08:50:15Z</time>
      </trkpt>
      <trkpt lat="46.0712" lon="6.77695">
        <ele>1786.3</ele>
        <time>2026-06-26T08:50:16Z</time>
      </trkpt>
      <trkpt lat="46.0712" lon="6.77694">
        <ele>1786.4</ele>
        <time>2026-06-26T08:50:17Z</time>
      </trkpt>
      <trkpt lat="46.0712" lon="6.77694">
        <ele>1786.6</ele>
        <time>2026-06-26T08:50:18Z</time>
      </trkpt>
      <trkpt lat="46.0712" lon="6.77693">
        <ele>1786.7</ele>
        <time>2026-06-26T08:50:19Z</time>
      </trkpt>
      <trkpt lat="46.0712" lon="6.77693">
        <ele>1786.8</ele>
        <time>2026-06-26T08:50:20Z</time>
      </trkpt>
      <trkpt lat="46.0712" lon="6.77692">
        <ele>1786.8</ele>
        <time>2026-06-26T08:50:21Z</time>
      </trkpt>
      <trkpt lat="46.0712" lon="6.77692">
        <ele>1786.9</ele>
        <time>2026-06-26T08:50:22Z</time>
      </trkpt>
      <trkpt lat="46.0712" lon="6.77692">
        <ele>1786.9</ele>
        <time>2026-06-26T08:50:23Z</time>
      </trkpt>
      <trkpt lat="46.0712" lon="6.77692">
        <ele>1786.9</ele>
        <time>2026-06-26T08:50:24Z</time>
      </trkpt>
      <trkpt lat="46.0712" lon="6.77692">
        <ele>1786.9</ele>
        <time>2026-06-26T08:50:25Z</time>
      </trkpt>
      <trkpt lat="46.07121" lon="6.77692">
        <ele>1786.8</ele>
        <time>2026-06-26T08:50:26Z</time>
      </trkpt>
      <trkpt lat="46.07121" lon="6.77692">
        <ele>1786.8</ele>
        <time>2026-06-26T08:50:27Z</time>
      </trkpt>
      <trkpt lat="46.07121" lon="6.77693">
        <ele>1786.9</ele>
        <time>2026-06-26T08:50:28Z</time>
      </trkpt>
      <trkpt lat="46.07121" lon="6.77693">
        <ele>1786.9</ele>
        <time>2026-06-26T08:50:29Z</time>
      </trkpt>
      <trkpt lat="46.07121" lon="6.77693">
        <ele>1786.8</ele>
        <time>2026-06-26T08:50:30Z</time>
      </trkpt>
      <trkpt lat="46.07121" lon="6.77693">
        <ele>1786.7</ele>
        <time>2026-06-26T08:50:31Z</time>
      </trkpt>
      <trkpt lat="46.07121" lon="6.77693">
        <ele>1786.7</ele>
        <time>2026-06-26T08:50:32Z</time>
      </trkpt>
      <trkpt lat="46.07121" lon="6.77693">
        <ele>1786.6</ele>
        <time>2026-06-26T08:50:33Z</time>
      </trkpt>
      <trkpt lat="46.07121" lon="6.77693">
        <ele>1786.6</ele>
        <time>2026-06-26T08:50:34Z</time>
      </trkpt>
      <trkpt lat="46.07121" lon="6.77693">
        <ele>1786.6</ele>
        <time>2026-06-26T08:50:35Z</time>
      </trkpt>
      <trkpt lat="46.07121" lon="6.77693">
        <ele>1786.6</ele>
        <time>2026-06-26T08:50:36Z</time>
      </trkpt>
      <trkpt lat="46.07121" lon="6.77693">
        <ele>1786.7</ele>
        <time>2026-06-26T08:50:37Z</time>
      </trkpt>
      <trkpt lat="46.07121" lon="6.77693">
        <ele>1786.7</ele>
        <time>2026-06-26T08:50:38Z</time>
      </trkpt>
      <trkpt lat="46.07121" lon="6.77693">
        <ele>1786.7</ele>
        <time>2026-06-26T08:50:39Z</time>
      </trkpt>
      <trkpt lat="46.07121" lon="6.77693">
        <ele>1786.7</ele>
        <time>2026-06-26T08:50:40Z</time>
      </trkpt>
      <trkpt lat="46.07121" lon="6.77693">
        <ele>1786.7</ele>
        <time>2026-06-26T08:50:41Z</time>
      </trkpt>
      <trkpt lat="46.07121" lon="6.77694">
        <ele>1786.8</ele>
        <time>2026-06-26T08:50:42Z</time>
      </trkpt>
      <trkpt lat="46.07121" lon="6.77694">
        <ele>1786.9</ele>
        <time>2026-06-26T08:50:43Z</time>
      </trkpt>
      <trkpt lat="46.07121" lon="6.77694">
        <ele>1786.9</ele>
        <time>2026-06-26T08:50:44Z</time>
      </trkpt>
      <trkpt lat="46.07121" lon="6.77694">
        <ele>1786.9</ele>
        <time>2026-06-26T08:50:45Z</time>
      </trkpt>
      <trkpt lat="46.07122" lon="6.77694">
        <ele>1786.9</ele>
        <time>2026-06-26T08:50:46Z</time>
      </trkpt>
      <trkpt lat="46.07122" lon="6.77694">
        <ele>1786.9</ele>
        <time>2026-06-26T08:50:47Z</time>
      </trkpt>
      <trkpt lat="46.07122" lon="6.77694">
        <ele>1787</ele>
        <time>2026-06-26T08:50:48Z</time>
      </trkpt>
      <trkpt lat="46.07122" lon="6.77694">
        <ele>1787</ele>
        <time>2026-06-26T08:50:49Z</time>
      </trkpt>
      <trkpt lat="46.07122" lon="6.77694">
        <ele>1787</ele>
        <time>2026-06-26T08:50:50Z</time>
      </trkpt>
      <trkpt lat="46.07122" lon="6.77694">
        <ele>1787</ele>
        <time>2026-06-26T08:50:51Z</time>
      </trkpt>
      <trkpt lat="46.07122" lon="6.77694">
        <ele>1787</ele>
        <time>2026-06-26T08:50:52Z</time>
      </trkpt>
      <trkpt lat="46.07122" lon="6.77694">
        <ele>1787</ele>
        <time>2026-06-26T08:50:53Z</time>
      </trkpt>
      <trkpt lat="46.07122" lon="6.77694">
        <ele>1787</ele>
        <time>2026-06-26T08:50:54Z</time>
      </trkpt>
      <trkpt lat="46.07122" lon="6.77694">
        <ele>1786.9</ele>
        <time>2026-06-26T08:50:55Z</time>
      </trkpt>
      <trkpt lat="46.07122" lon="6.77694">
        <ele>1786.9</ele>
        <time>2026-06-26T08:50:56Z</time>
      </trkpt>
      <trkpt lat="46.07122" lon="6.77693">
        <ele>1786.9</ele>
        <time>2026-06-26T08:50:57Z</time>
      </trkpt>
      <trkpt lat="46.07122" lon="6.77693">
        <ele>1786.8</ele>
        <time>2026-06-26T08:50:58Z</time>
      </trkpt>
      <trkpt lat="46.07122" lon="6.77693">
        <ele>1786.7</ele>
        <time>2026-06-26T08:50:59Z</time>
      </trkpt>
      <trkpt lat="46.07122" lon="6.77693">
        <ele>1786.6</ele>
        <time>2026-06-26T08:51:00Z</time>
      </trkpt>
      <trkpt lat="46.07122" lon="6.77694">
        <ele>1786.6</ele>
        <time>2026-06-26T08:51:01Z</time>
      </trkpt>
      <trkpt lat="46.07122" lon="6.77694">
        <ele>1786.4</ele>
        <time>2026-06-26T08:51:02Z</time>
      </trkpt>
      <trkpt lat="46.07122" lon="6.77694">
        <ele>1786.4</ele>
        <time>2026-06-26T08:51:03Z</time>
      </trkpt>
      <trkpt lat="46.07122" lon="6.77694">
        <ele>1786.4</ele>
        <time>2026-06-26T08:51:04Z</time>
      </trkpt>
      <trkpt lat="46.07122" lon="6.77694">
        <ele>1786.4</ele>
        <time>2026-06-26T08:51:05Z</time>
      </trkpt>
      <trkpt lat="46.07122" lon="6.77694">
        <ele>1786.4</ele>
        <time>2026-06-26T08:51:06Z</time>
      </trkpt>
      <trkpt lat="46.07122" lon="6.77694">
        <ele>1786.6</ele>
        <time>2026-06-26T08:51:07Z</time>
      </trkpt>
      <trkpt lat="46.07122" lon="6.77694">
        <ele>1786.6</ele>
        <time>2026-06-26T08:51:08Z</time>
      </trkpt>
      <trkpt lat="46.07122" lon="6.77694">
        <ele>1786.6</ele>
        <time>2026-06-26T08:51:09Z</time>
      </trkpt>
      <trkpt lat="46.07123" lon="6.77694">
        <ele>1786.6</ele>
        <time>2026-06-26T08:51:10Z</time>
      </trkpt>
      <trkpt lat="46.07123" lon="6.77694">
        <ele>1786.6</ele>
        <time>2026-06-26T08:51:11Z</time>
      </trkpt>
      <trkpt lat="46.07123" lon="6.77694">
        <ele>1786.7</ele>
        <time>2026-06-26T08:51:12Z</time>
      </trkpt>
      <trkpt lat="46.07123" lon="6.77694">
        <ele>1786.7</ele>
        <time>2026-06-26T08:51:13Z</time>
      </trkpt>
      <trkpt lat="46.07123" lon="6.77694">
        <ele>1786.7</ele>
        <time>2026-06-26T08:51:14Z</time>
      </trkpt>
      <trkpt lat="46.07123" lon="6.77694">
        <ele>1786.7</ele>
        <time>2026-06-26T08:51:15Z</time>
      </trkpt>
      <trkpt lat="46.07123" lon="6.77694">
        <ele>1786.7</ele>
        <time>2026-06-26T08:51:16Z</time>
      </trkpt>
      <trkpt lat="46.07123" lon="6.77694">
        <ele>1786.7</ele>
        <time>2026-06-26T08:51:17Z</time>
      </trkpt>
      <trkpt lat="46.07123" lon="6.77694">
        <ele>1786.8</ele>
        <time>2026-06-26T08:51:18Z</time>
      </trkpt>
      <trkpt lat="46.07123" lon="6.77694">
        <ele>1786.8</ele>
        <time>2026-06-26T08:51:19Z</time>
      </trkpt>
      <trkpt lat="46.07123" lon="6.77694">
        <ele>1786.8</ele>
        <time>2026-06-26T08:51:20Z</time>
      </trkpt>
      <trkpt lat="46.07123" lon="6.77694">
        <ele>1786.8</ele>
        <time>2026-06-26T08:51:21Z</time>
      </trkpt>
      <trkpt lat="46.07123" lon="6.77694">
        <ele>1786.8</ele>
        <time>2026-06-26T08:51:22Z</time>
      </trkpt>
      <trkpt lat="46.07123" lon="6.77694">
        <ele>1786.8</ele>
        <time>2026-06-26T08:51:23Z</time>
      </trkpt>
      <trkpt lat="46.07123" lon="6.77693">
        <ele>1786.8</ele>
        <time>2026-06-26T08:51:24Z</time>
      </trkpt>
      <trkpt lat="46.07123" lon="6.77693">
        <ele>1786.8</ele>
        <time>2026-06-26T08:51:25Z</time>
      </trkpt>
      <trkpt lat="46.07123" lon="6.77693">
        <ele>1786.8</ele>
        <time>2026-06-26T08:51:26Z</time>
      </trkpt>
      <trkpt lat="46.07123" lon="6.77693">
        <ele>1786.8</ele>
        <time>2026-06-26T08:51:27Z</time>
      </trkpt>
      <trkpt lat="46.07123" lon="6.77693">
        <ele>1786.9</ele>
        <time>2026-06-26T08:51:28Z</time>
      </trkpt>
      <trkpt lat="46.07123" lon="6.77693">
        <ele>1786.9</ele>
        <time>2026-06-26T08:51:29Z</time>
      </trkpt>
      <trkpt lat="46.07123" lon="6.77693">
        <ele>1786.9</ele>
        <time>2026-06-26T08:51:30Z</time>
      </trkpt>
      <trkpt lat="46.07123" lon="6.77693">
        <ele>1786.9</ele>
        <time>2026-06-26T08:51:31Z</time>
      </trkpt>
      <trkpt lat="46.07123" lon="6.77693">
        <ele>1786.9</ele>
        <time>2026-06-26T08:51:32Z</time>
      </trkpt>
      <trkpt lat="46.07123" lon="6.77693">
        <ele>1786.9</ele>
        <time>2026-06-26T08:51:33Z</time>
      </trkpt>
      <trkpt lat="46.07123" lon="6.77693">
        <ele>1786.8</ele>
        <time>2026-06-26T08:51:34Z</time>
      </trkpt>
      <trkpt lat="46.07123" lon="6.77693">
        <ele>1786.8</ele>
        <time>2026-06-26T08:51:35Z</time>
      </trkpt>
      <trkpt lat="46.07123" lon="6.77693">
        <ele>1786.8</ele>
        <time>2026-06-26T08:51:36Z</time>
      </trkpt>
      <trkpt lat="46.07123" lon="6.77692">
        <ele>1786.7</ele>
        <time>2026-06-26T08:51:37Z</time>
      </trkpt>
      <trkpt lat="46.07123" lon="6.77692">
        <ele>1786.7</ele>
        <time>2026-06-26T08:51:38Z</time>
      </trkpt>
      <trkpt lat="46.07123" lon="6.77692">
        <ele>1786.6</ele>
        <time>2026-06-26T08:51:39Z</time>
      </trkpt>
      <trkpt lat="46.07123" lon="6.77692">
        <ele>1786.7</ele>
        <time>2026-06-26T08:51:40Z</time>
      </trkpt>
      <trkpt lat="46.07123" lon="6.77692">
        <ele>1786.8</ele>
        <time>2026-06-26T08:51:41Z</time>
      </trkpt>
      <trkpt lat="46.07123" lon="6.77692">
        <ele>1786.8</ele>
        <time>2026-06-26T08:51:42Z</time>
      </trkpt>
      <trkpt lat="46.07123" lon="6.77692">
        <ele>1786.9</ele>
        <time>2026-06-26T08:51:43Z</time>
      </trkpt>
      <trkpt lat="46.07123" lon="6.77692">
        <ele>1786.9</ele>
        <time>2026-06-26T08:51:44Z</time>
      </trkpt>
      <trkpt lat="46.07123" lon="6.77692">
        <ele>1786.9</ele>
        <time>2026-06-26T08:51:45Z</time>
      </trkpt>
      <trkpt lat="46.07123" lon="6.77692">
        <ele>1786.9</ele>
        <time>2026-06-26T08:51:46Z</time>
      </trkpt>
      <trkpt lat="46.07123" lon="6.77692">
        <ele>1786.9</ele>
        <time>2026-06-26T08:51:47Z</time>
      </trkpt>
      <trkpt lat="46.07123" lon="6.77692">
        <ele>1786.9</ele>
        <time>2026-06-26T08:51:48Z</time>
      </trkpt>
      <trkpt lat="46.07123" lon="6.77692">
        <ele>1786.9</ele>
        <time>2026-06-26T08:51:49Z</time>
      </trkpt>
      <trkpt lat="46.07123" lon="6.77693">
        <ele>1786.9</ele>
        <time>2026-06-26T08:51:50Z</time>
      </trkpt>
      <trkpt lat="46.07123" lon="6.77693">
        <ele>1786.8</ele>
        <time>2026-06-26T08:51:51Z</time>
      </trkpt>
      <trkpt lat="46.07123" lon="6.77693">
        <ele>1786.8</ele>
        <time>2026-06-26T08:51:52Z</time>
      </trkpt>
      <trkpt lat="46.07123" lon="6.77693">
        <ele>1786.8</ele>
        <time>2026-06-26T08:51:53Z</time>
      </trkpt>
      <trkpt lat="46.07123" lon="6.77693">
        <ele>1786.9</ele>
        <time>2026-06-26T08:51:54Z</time>
      </trkpt>
      <trkpt lat="46.07123" lon="6.77693">
        <ele>1786.9</ele>
        <time>2026-06-26T08:51:55Z</time>
      </trkpt>
      <trkpt lat="46.07123" lon="6.77693">
        <ele>1786.9</ele>
        <time>2026-06-26T08:51:56Z</time>
      </trkpt>
      <trkpt lat="46.07123" lon="6.77693">
        <ele>1787</ele>
        <time>2026-06-26T08:51:57Z</time>
      </trkpt>
      <trkpt lat="46.07123" lon="6.77693">
        <ele>1787</ele>
        <time>2026-06-26T08:51:58Z</time>
      </trkpt>
      <trkpt lat="46.07123" lon="6.77693">
        <ele>1787</ele>
        <time>2026-06-26T08:51:59Z</time>
      </trkpt>
      <trkpt lat="46.07123" lon="6.77693">
        <ele>1787</ele>
        <time>2026-06-26T08:52:00Z</time>
      </trkpt>
      <trkpt lat="46.07123" lon="6.77693">
        <ele>1786.9</ele>
        <time>2026-06-26T08:52:01Z</time>
      </trkpt>
      <trkpt lat="46.07123" lon="6.77693">
        <ele>1786.9</ele>
        <time>2026-06-26T08:52:02Z</time>
      </trkpt>
      <trkpt lat="46.07123" lon="6.77693">
        <ele>1786.9</ele>
        <time>2026-06-26T08:52:03Z</time>
      </trkpt>
      <trkpt lat="46.07123" lon="6.77693">
        <ele>1786.8</ele>
        <time>2026-06-26T08:52:04Z</time>
      </trkpt>
      <trkpt lat="46.07123" lon="6.77693">
        <ele>1786.8</ele>
        <time>2026-06-26T08:52:05Z</time>
      </trkpt>
      <trkpt lat="46.07123" lon="6.77693">
        <ele>1786.7</ele>
        <time>2026-06-26T08:52:06Z</time>
      </trkpt>
      <trkpt lat="46.07123" lon="6.77693">
        <ele>1786.7</ele>
        <time>2026-06-26T08:52:07Z</time>
      </trkpt>
      <trkpt lat="46.07123" lon="6.77694">
        <ele>1786.6</ele>
        <time>2026-06-26T08:52:08Z</time>
      </trkpt>
      <trkpt lat="46.07123" lon="6.77694">
        <ele>1786.6</ele>
        <time>2026-06-26T08:52:09Z</time>
      </trkpt>
      <trkpt lat="46.07123" lon="6.77694">
        <ele>1786.6</ele>
        <time>2026-06-26T08:52:10Z</time>
      </trkpt>
      <trkpt lat="46.07123" lon="6.77694">
        <ele>1786.6</ele>
        <time>2026-06-26T08:52:11Z</time>
      </trkpt>
      <trkpt lat="46.07123" lon="6.77694">
        <ele>1786.6</ele>
        <time>2026-06-26T08:52:12Z</time>
      </trkpt>
      <trkpt lat="46.07123" lon="6.77694">
        <ele>1786.6</ele>
        <time>2026-06-26T08:52:13Z</time>
      </trkpt>
      <trkpt lat="46.07123" lon="6.77694">
        <ele>1786.6</ele>
        <time>2026-06-26T08:52:14Z</time>
      </trkpt>
      <trkpt lat="46.07123" lon="6.77694">
        <ele>1786.6</ele>
        <time>2026-06-26T08:52:15Z</time>
      </trkpt>
      <trkpt lat="46.07123" lon="6.77693">
        <ele>1786.6</ele>
        <time>2026-06-26T08:52:16Z</time>
      </trkpt>
      <trkpt lat="46.07123" lon="6.77693">
        <ele>1786.5</ele>
        <time>2026-06-26T08:52:17Z</time>
      </trkpt>
      <trkpt lat="46.07123" lon="6.77693">
        <ele>1786.5</ele>
        <time>2026-06-26T08:52:18Z</time>
      </trkpt>
      <trkpt lat="46.07123" lon="6.77693">
        <ele>1786.5</ele>
        <time>2026-06-26T08:52:19Z</time>
      </trkpt>
      <trkpt lat="46.07123" lon="6.77693">
        <ele>1786.6</ele>
        <time>2026-06-26T08:52:20Z</time>
      </trkpt>
      <trkpt lat="46.07123" lon="6.77693">
        <ele>1786.7</ele>
        <time>2026-06-26T08:52:21Z</time>
      </trkpt>
      <trkpt lat="46.07123" lon="6.77693">
        <ele>1786.8</ele>
        <time>2026-06-26T08:52:22Z</time>
      </trkpt>
      <trkpt lat="46.07124" lon="6.77693">
        <ele>1786.7</ele>
        <time>2026-06-26T08:52:23Z</time>
      </trkpt>
      <trkpt lat="46.07124" lon="6.77694">
        <ele>1786.7</ele>
        <time>2026-06-26T08:52:24Z</time>
      </trkpt>
      <trkpt lat="46.07124" lon="6.77694">
        <ele>1786.7</ele>
        <time>2026-06-26T08:52:25Z</time>
      </trkpt>
      <trkpt lat="46.07124" lon="6.77694">
        <ele>1786.7</ele>
        <time>2026-06-26T08:52:26Z</time>
      </trkpt>
      <trkpt lat="46.07124" lon="6.77694">
        <ele>1786.8</ele>
        <time>2026-06-26T08:52:27Z</time>
      </trkpt>
      <trkpt lat="46.07124" lon="6.77694">
        <ele>1786.9</ele>
        <time>2026-06-26T08:52:28Z</time>
      </trkpt>
      <trkpt lat="46.07124" lon="6.77694">
        <ele>1786.9</ele>
        <time>2026-06-26T08:52:29Z</time>
      </trkpt>
      <trkpt lat="46.07124" lon="6.77694">
        <ele>1786.9</ele>
        <time>2026-06-26T08:52:30Z</time>
      </trkpt>
      <trkpt lat="46.07124" lon="6.77694">
        <ele>1787</ele>
        <time>2026-06-26T08:52:31Z</time>
      </trkpt>
      <trkpt lat="46.07124" lon="6.77693">
        <ele>1787</ele>
        <time>2026-06-26T08:52:32Z</time>
      </trkpt>
      <trkpt lat="46.07124" lon="6.77693">
        <ele>1787</ele>
        <time>2026-06-26T08:52:33Z</time>
      </trkpt>
      <trkpt lat="46.07124" lon="6.77693">
        <ele>1787</ele>
        <time>2026-06-26T08:52:34Z</time>
      </trkpt>
      <trkpt lat="46.07124" lon="6.77693">
        <ele>1787</ele>
        <time>2026-06-26T08:52:35Z</time>
      </trkpt>
      <trkpt lat="46.07124" lon="6.77693">
        <ele>1787</ele>
        <time>2026-06-26T08:52:36Z</time>
      </trkpt>
      <trkpt lat="46.07124" lon="6.77693">
        <ele>1787</ele>
        <time>2026-06-26T08:52:37Z</time>
      </trkpt>
      <trkpt lat="46.07124" lon="6.77693">
        <ele>1787</ele>
        <time>2026-06-26T08:52:38Z</time>
      </trkpt>
      <trkpt lat="46.07124" lon="6.77693">
        <ele>1786.9</ele>
        <time>2026-06-26T08:52:39Z</time>
      </trkpt>
      <trkpt lat="46.07124" lon="6.77693">
        <ele>1786.9</ele>
        <time>2026-06-26T08:52:40Z</time>
      </trkpt>
      <trkpt lat="46.07124" lon="6.77693">
        <ele>1786.9</ele>
        <time>2026-06-26T08:52:41Z</time>
      </trkpt>
      <trkpt lat="46.07124" lon="6.77693">
        <ele>1786.9</ele>
        <time>2026-06-26T08:52:42Z</time>
      </trkpt>
      <trkpt lat="46.07124" lon="6.77693">
        <ele>1786.9</ele>
        <time>2026-06-26T08:52:43Z</time>
      </trkpt>
      <trkpt lat="46.07124" lon="6.77693">
        <ele>1786.8</ele>
        <time>2026-06-26T08:52:44Z</time>
      </trkpt>
      <trkpt lat="46.07124" lon="6.77693">
        <ele>1786.7</ele>
        <time>2026-06-26T08:52:45Z</time>
      </trkpt>
      <trkpt lat="46.07124" lon="6.77693">
        <ele>1786.7</ele>
        <time>2026-06-26T08:52:46Z</time>
      </trkpt>
      <trkpt lat="46.07124" lon="6.77693">
        <ele>1786.7</ele>
        <time>2026-06-26T08:52:47Z</time>
      </trkpt>
      <trkpt lat="46.07124" lon="6.77693">
        <ele>1786.7</ele>
        <time>2026-06-26T08:52:48Z</time>
      </trkpt>
      <trkpt lat="46.07124" lon="6.77693">
        <ele>1786.7</ele>
        <time>2026-06-26T08:52:49Z</time>
      </trkpt>
      <trkpt lat="46.07124" lon="6.77692">
        <ele>1786.7</ele>
        <time>2026-06-26T08:52:50Z</time>
      </trkpt>
      <trkpt lat="46.07124" lon="6.77692">
        <ele>1786.7</ele>
        <time>2026-06-26T08:52:51Z</time>
      </trkpt>
      <trkpt lat="46.07124" lon="6.77692">
        <ele>1786.8</ele>
        <time>2026-06-26T08:52:52Z</time>
      </trkpt>
      <trkpt lat="46.07124" lon="6.77692">
        <ele>1786.9</ele>
        <time>2026-06-26T08:52:53Z</time>
      </trkpt>
      <trkpt lat="46.07124" lon="6.77692">
        <ele>1786.9</ele>
        <time>2026-06-26T08:52:54Z</time>
      </trkpt>
      <trkpt lat="46.07124" lon="6.77692">
        <ele>1787</ele>
        <time>2026-06-26T08:52:55Z</time>
      </trkpt>
      <trkpt lat="46.07124" lon="6.77692">
        <ele>1787.1</ele>
        <time>2026-06-26T08:52:56Z</time>
      </trkpt>
      <trkpt lat="46.07124" lon="6.77692">
        <ele>1787.1</ele>
        <time>2026-06-26T08:52:57Z</time>
      </trkpt>
      <trkpt lat="46.07124" lon="6.77692">
        <ele>1787.1</ele>
        <time>2026-06-26T08:52:58Z</time>
      </trkpt>
      <trkpt lat="46.07124" lon="6.77692">
        <ele>1787.2</ele>
        <time>2026-06-26T08:52:59Z</time>
      </trkpt>
      <trkpt lat="46.07124" lon="6.77691">
        <ele>1787.2</ele>
        <time>2026-06-26T08:53:00Z</time>
      </trkpt>
      <trkpt lat="46.07124" lon="6.77691">
        <ele>1787.1</ele>
        <time>2026-06-26T08:53:01Z</time>
      </trkpt>
      <trkpt lat="46.07124" lon="6.77691">
        <ele>1787.1</ele>
        <time>2026-06-26T08:53:02Z</time>
      </trkpt>
      <trkpt lat="46.07124" lon="6.77691">
        <ele>1787.1</ele>
        <time>2026-06-26T08:53:03Z</time>
      </trkpt>
      <trkpt lat="46.07124" lon="6.77691">
        <ele>1787.1</ele>
        <time>2026-06-26T08:53:04Z</time>
      </trkpt>
      <trkpt lat="46.07124" lon="6.77691">
        <ele>1787.1</ele>
        <time>2026-06-26T08:53:05Z</time>
      </trkpt>
      <trkpt lat="46.07124" lon="6.77691">
        <ele>1787.1</ele>
        <time>2026-06-26T08:53:06Z</time>
      </trkpt>
      <trkpt lat="46.07124" lon="6.77692">
        <ele>1787.2</ele>
        <time>2026-06-26T08:53:07Z</time>
      </trkpt>
      <trkpt lat="46.07124" lon="6.77692">
        <ele>1787.2</ele>
        <time>2026-06-26T08:53:08Z</time>
      </trkpt>
      <trkpt lat="46.07124" lon="6.77692">
        <ele>1787.3</ele>
        <time>2026-06-26T08:53:09Z</time>
      </trkpt>
      <trkpt lat="46.07123" lon="6.77692">
        <ele>1787.3</ele>
        <time>2026-06-26T08:53:10Z</time>
      </trkpt>
      <trkpt lat="46.07124" lon="6.77692">
        <ele>1787.3</ele>
        <time>2026-06-26T08:53:11Z</time>
      </trkpt>
      <trkpt lat="46.07124" lon="6.77692">
        <ele>1787.3</ele>
        <time>2026-06-26T08:53:12Z</time>
      </trkpt>
      <trkpt lat="46.07124" lon="6.77692">
        <ele>1787.2</ele>
        <time>2026-06-26T08:53:13Z</time>
      </trkpt>
      <trkpt lat="46.07124" lon="6.77692">
        <ele>1787.2</ele>
        <time>2026-06-26T08:53:14Z</time>
      </trkpt>
      <trkpt lat="46.07124" lon="6.77692">
        <ele>1787.2</ele>
        <time>2026-06-26T08:53:15Z</time>
      </trkpt>
      <trkpt lat="46.07124" lon="6.77692">
        <ele>1787.1</ele>
        <time>2026-06-26T08:53:16Z</time>
      </trkpt>
      <trkpt lat="46.07124" lon="6.77692">
        <ele>1787.1</ele>
        <time>2026-06-26T08:53:17Z</time>
      </trkpt>
      <trkpt lat="46.07124" lon="6.77692">
        <ele>1787.1</ele>
        <time>2026-06-26T08:53:18Z</time>
      </trkpt>
      <trkpt lat="46.07124" lon="6.77692">
        <ele>1787.1</ele>
        <time>2026-06-26T08:53:19Z</time>
      </trkpt>
      <trkpt lat="46.07124" lon="6.77692">
        <ele>1787</ele>
        <time>2026-06-26T08:53:20Z</time>
      </trkpt>
      <trkpt lat="46.07124" lon="6.77691">
        <ele>1786.9</ele>
        <time>2026-06-26T08:53:21Z</time>
      </trkpt>
      <trkpt lat="46.07124" lon="6.77691">
        <ele>1786.8</ele>
        <time>2026-06-26T08:53:22Z</time>
      </trkpt>
      <trkpt lat="46.07124" lon="6.77691">
        <ele>1786.8</ele>
        <time>2026-06-26T08:53:23Z</time>
      </trkpt>
      <trkpt lat="46.07124" lon="6.77691">
        <ele>1786.8</ele>
        <time>2026-06-26T08:53:24Z</time>
      </trkpt>
      <trkpt lat="46.07124" lon="6.77691">
        <ele>1786.9</ele>
        <time>2026-06-26T08:53:25Z</time>
      </trkpt>
      <trkpt lat="46.07124" lon="6.77691">
        <ele>1786.9</ele>
        <time>2026-06-26T08:53:26Z</time>
      </trkpt>
      <trkpt lat="46.07124" lon="6.77691">
        <ele>1786.9</ele>
        <time>2026-06-26T08:53:27Z</time>
      </trkpt>
      <trkpt lat="46.07124" lon="6.77691">
        <ele>1786.9</ele>
        <time>2026-06-26T08:53:28Z</time>
      </trkpt>
      <trkpt lat="46.07124" lon="6.77691">
        <ele>1786.9</ele>
        <time>2026-06-26T08:53:29Z</time>
      </trkpt>
      <trkpt lat="46.07124" lon="6.77691">
        <ele>1786.9</ele>
        <time>2026-06-26T08:53:30Z</time>
      </trkpt>
      <trkpt lat="46.07124" lon="6.77691">
        <ele>1786.8</ele>
        <time>2026-06-26T08:53:31Z</time>
      </trkpt>
      <trkpt lat="46.07124" lon="6.77691">
        <ele>1786.8</ele>
        <time>2026-06-26T08:53:32Z</time>
      </trkpt>
      <trkpt lat="46.07124" lon="6.77691">
        <ele>1786.9</ele>
        <time>2026-06-26T08:53:33Z</time>
      </trkpt>
      <trkpt lat="46.07123" lon="6.77691">
        <ele>1787</ele>
        <time>2026-06-26T08:53:34Z</time>
      </trkpt>
      <trkpt lat="46.07123" lon="6.77691">
        <ele>1787</ele>
        <time>2026-06-26T08:53:35Z</time>
      </trkpt>
      <trkpt lat="46.07123" lon="6.77691">
        <ele>1787</ele>
        <time>2026-06-26T08:53:36Z</time>
      </trkpt>
      <trkpt lat="46.07123" lon="6.77691">
        <ele>1787</ele>
        <time>2026-06-26T08:53:37Z</time>
      </trkpt>
      <trkpt lat="46.07123" lon="6.77691">
        <ele>1786.9</ele>
        <time>2026-06-26T08:53:38Z</time>
      </trkpt>
      <trkpt lat="46.07123" lon="6.77691">
        <ele>1786.9</ele>
        <time>2026-06-26T08:53:39Z</time>
      </trkpt>
      <trkpt lat="46.07123" lon="6.77692">
        <ele>1786.9</ele>
        <time>2026-06-26T08:53:40Z</time>
      </trkpt>
      <trkpt lat="46.07123" lon="6.77692">
        <ele>1786.9</ele>
        <time>2026-06-26T08:53:41Z</time>
      </trkpt>
      <trkpt lat="46.07123" lon="6.77692">
        <ele>1786.9</ele>
        <time>2026-06-26T08:53:42Z</time>
      </trkpt>
      <trkpt lat="46.07123" lon="6.77692">
        <ele>1786.9</ele>
        <time>2026-06-26T08:53:43Z</time>
      </trkpt>
      <trkpt lat="46.07123" lon="6.77692">
        <ele>1786.9</ele>
        <time>2026-06-26T08:53:44Z</time>
      </trkpt>
      <trkpt lat="46.07123" lon="6.77692">
        <ele>1786.9</ele>
        <time>2026-06-26T08:53:45Z</time>
      </trkpt>
      <trkpt lat="46.07123" lon="6.77692">
        <ele>1786.9</ele>
        <time>2026-06-26T08:53:46Z</time>
      </trkpt>
      <trkpt lat="46.07123" lon="6.77692">
        <ele>1786.9</ele>
        <time>2026-06-26T08:53:47Z</time>
      </trkpt>
      <trkpt lat="46.07123" lon="6.77692">
        <ele>1786.9</ele>
        <time>2026-06-26T08:53:48Z</time>
      </trkpt>
      <trkpt lat="46.07123" lon="6.77692">
        <ele>1786.9</ele>
        <time>2026-06-26T08:53:49Z</time>
      </trkpt>
      <trkpt lat="46.07123" lon="6.77692">
        <ele>1786.9</ele>
        <time>2026-06-26T08:53:50Z</time>
      </trkpt>
      <trkpt lat="46.07122" lon="6.77692">
        <ele>1787</ele>
        <time>2026-06-26T08:53:51Z</time>
      </trkpt>
      <trkpt lat="46.07122" lon="6.77692">
        <ele>1787.1</ele>
        <time>2026-06-26T08:53:52Z</time>
      </trkpt>
      <trkpt lat="46.07121" lon="6.77692">
        <ele>1787</ele>
        <time>2026-06-26T08:53:53Z</time>
      </trkpt>
      <trkpt lat="46.07121" lon="6.77692">
        <ele>1787.1</ele>
        <time>2026-06-26T08:53:54Z</time>
      </trkpt>
      <trkpt lat="46.07121" lon="6.77692">
        <ele>1787.1</ele>
        <time>2026-06-26T08:53:55Z</time>
      </trkpt>
      <trkpt lat="46.0712" lon="6.77692">
        <ele>1787.2</ele>
        <time>2026-06-26T08:53:56Z</time>
      </trkpt>
      <trkpt lat="46.0712" lon="6.77692">
        <ele>1787.2</ele>
        <time>2026-06-26T08:53:57Z</time>
      </trkpt>
      <trkpt lat="46.0712" lon="6.77692">
        <ele>1787.2</ele>
        <time>2026-06-26T08:53:58Z</time>
      </trkpt>
      <trkpt lat="46.0712" lon="6.77692">
        <ele>1787.2</ele>
        <time>2026-06-26T08:53:59Z</time>
      </trkpt>
      <trkpt lat="46.0712" lon="6.77692">
        <ele>1787.2</ele>
        <time>2026-06-26T08:54:00Z</time>
      </trkpt>
      <trkpt lat="46.0712" lon="6.77692">
        <ele>1787.2</ele>
        <time>2026-06-26T08:54:01Z</time>
      </trkpt>
      <trkpt lat="46.0712" lon="6.77692">
        <ele>1787.3</ele>
        <time>2026-06-26T08:54:02Z</time>
      </trkpt>
      <trkpt lat="46.0712" lon="6.77692">
        <ele>1787.3</ele>
        <time>2026-06-26T08:54:03Z</time>
      </trkpt>
      <trkpt lat="46.0712" lon="6.77692">
        <ele>1787.2</ele>
        <time>2026-06-26T08:54:04Z</time>
      </trkpt>
      <trkpt lat="46.0712" lon="6.77692">
        <ele>1787.3</ele>
        <time>2026-06-26T08:54:05Z</time>
      </trkpt>
      <trkpt lat="46.0712" lon="6.77692">
        <ele>1787.3</ele>
        <time>2026-06-26T08:54:06Z</time>
      </trkpt>
      <trkpt lat="46.0712" lon="6.77693">
        <ele>1787.3</ele>
        <time>2026-06-26T08:54:07Z</time>
      </trkpt>
      <trkpt lat="46.0712" lon="6.77693">
        <ele>1787.3</ele>
        <time>2026-06-26T08:54:08Z</time>
      </trkpt>
      <trkpt lat="46.0712" lon="6.77693">
        <ele>1787.3</ele>
        <time>2026-06-26T08:54:09Z</time>
      </trkpt>
      <trkpt lat="46.0712" lon="6.77693">
        <ele>1787.2</ele>
        <time>2026-06-26T08:54:10Z</time>
      </trkpt>
      <trkpt lat="46.0712" lon="6.77693">
        <ele>1787.3</ele>
        <time>2026-06-26T08:54:11Z</time>
      </trkpt>
      <trkpt lat="46.0712" lon="6.77693">
        <ele>1787.3</ele>
        <time>2026-06-26T08:54:12Z</time>
      </trkpt>
      <trkpt lat="46.0712" lon="6.77693">
        <ele>1787.3</ele>
        <time>2026-06-26T08:54:13Z</time>
      </trkpt>
      <trkpt lat="46.0712" lon="6.77694">
        <ele>1787.3</ele>
        <time>2026-06-26T08:54:14Z</time>
      </trkpt>
      <trkpt lat="46.0712" lon="6.77694">
        <ele>1787.3</ele>
        <time>2026-06-26T08:54:15Z</time>
      </trkpt>
      <trkpt lat="46.0712" lon="6.77694">
        <ele>1787.3</ele>
        <time>2026-06-26T08:54:16Z</time>
      </trkpt>
      <trkpt lat="46.0712" lon="6.77694">
        <ele>1787.3</ele>
        <time>2026-06-26T08:54:17Z</time>
      </trkpt>
      <trkpt lat="46.0712" lon="6.77694">
        <ele>1787.3</ele>
        <time>2026-06-26T08:54:18Z</time>
      </trkpt>
      <trkpt lat="46.0712" lon="6.77694">
        <ele>1787.4</ele>
        <time>2026-06-26T08:54:19Z</time>
      </trkpt>
      <trkpt lat="46.0712" lon="6.77694">
        <ele>1787.5</ele>
        <time>2026-06-26T08:54:20Z</time>
      </trkpt>
      <trkpt lat="46.0712" lon="6.77694">
        <ele>1787.4</ele>
        <time>2026-06-26T08:54:21Z</time>
      </trkpt>
      <trkpt lat="46.0712" lon="6.77694">
        <ele>1787.4</ele>
        <time>2026-06-26T08:54:22Z</time>
      </trkpt>
      <trkpt lat="46.0712" lon="6.77694">
        <ele>1787.4</ele>
        <time>2026-06-26T08:54:23Z</time>
      </trkpt>
      <trkpt lat="46.0712" lon="6.77694">
        <ele>1787.4</ele>
        <time>2026-06-26T08:54:24Z</time>
      </trkpt>
      <trkpt lat="46.0712" lon="6.77694">
        <ele>1787.4</ele>
        <time>2026-06-26T08:54:25Z</time>
      </trkpt>
      <trkpt lat="46.0712" lon="6.77694">
        <ele>1787.3</ele>
        <time>2026-06-26T08:54:26Z</time>
      </trkpt>
      <trkpt lat="46.0712" lon="6.77694">
        <ele>1787.2</ele>
        <time>2026-06-26T08:54:27Z</time>
      </trkpt>
      <trkpt lat="46.0712" lon="6.77694">
        <ele>1787.2</ele>
        <time>2026-06-26T08:54:28Z</time>
      </trkpt>
      <trkpt lat="46.0712" lon="6.77694">
        <ele>1787.2</ele>
        <time>2026-06-26T08:54:29Z</time>
      </trkpt>
      <trkpt lat="46.0712" lon="6.77694">
        <ele>1787.2</ele>
        <time>2026-06-26T08:54:30Z</time>
      </trkpt>
      <trkpt lat="46.0712" lon="6.77694">
        <ele>1787.2</ele>
        <time>2026-06-26T08:54:31Z</time>
      </trkpt>
      <trkpt lat="46.0712" lon="6.77694">
        <ele>1787.1</ele>
        <time>2026-06-26T08:54:32Z</time>
      </trkpt>
      <trkpt lat="46.0712" lon="6.77694">
        <ele>1787.2</ele>
        <time>2026-06-26T08:54:33Z</time>
      </trkpt>
      <trkpt lat="46.0712" lon="6.77694">
        <ele>1787.2</ele>
        <time>2026-06-26T08:54:34Z</time>
      </trkpt>
      <trkpt lat="46.0712" lon="6.77695">
        <ele>1787.2</ele>
        <time>2026-06-26T08:54:35Z</time>
      </trkpt>
      <trkpt lat="46.0712" lon="6.77695">
        <ele>1787.1</ele>
        <time>2026-06-26T08:54:36Z</time>
      </trkpt>
      <trkpt lat="46.0712" lon="6.77695">
        <ele>1787.1</ele>
        <time>2026-06-26T08:54:37Z</time>
      </trkpt>
      <trkpt lat="46.0712" lon="6.77695">
        <ele>1787.1</ele>
        <time>2026-06-26T08:54:38Z</time>
      </trkpt>
      <trkpt lat="46.07119" lon="6.77695">
        <ele>1787.1</ele>
        <time>2026-06-26T08:54:39Z</time>
      </trkpt>
      <trkpt lat="46.07119" lon="6.77695">
        <ele>1787</ele>
        <time>2026-06-26T08:54:40Z</time>
      </trkpt>
      <trkpt lat="46.07119" lon="6.77695">
        <ele>1787</ele>
        <time>2026-06-26T08:54:41Z</time>
      </trkpt>
      <trkpt lat="46.07119" lon="6.77695">
        <ele>1787</ele>
        <time>2026-06-26T08:54:42Z</time>
      </trkpt>
      <trkpt lat="46.07119" lon="6.77695">
        <ele>1787</ele>
        <time>2026-06-26T08:54:43Z</time>
      </trkpt>
      <trkpt lat="46.07119" lon="6.77695">
        <ele>1787</ele>
        <time>2026-06-26T08:54:44Z</time>
      </trkpt>
      <trkpt lat="46.07119" lon="6.77695">
        <ele>1787</ele>
        <time>2026-06-26T08:54:45Z</time>
      </trkpt>
      <trkpt lat="46.07119" lon="6.77695">
        <ele>1786.9</ele>
        <time>2026-06-26T08:54:46Z</time>
      </trkpt>
      <trkpt lat="46.07119" lon="6.77695">
        <ele>1787</ele>
        <time>2026-06-26T08:54:47Z</time>
      </trkpt>
      <trkpt lat="46.07119" lon="6.77695">
        <ele>1787</ele>
        <time>2026-06-26T08:54:48Z</time>
      </trkpt>
      <trkpt lat="46.07119" lon="6.77695">
        <ele>1787</ele>
        <time>2026-06-26T08:54:49Z</time>
      </trkpt>
      <trkpt lat="46.07119" lon="6.77695">
        <ele>1786.9</ele>
        <time>2026-06-26T08:54:50Z</time>
      </trkpt>
      <trkpt lat="46.07119" lon="6.77695">
        <ele>1786.9</ele>
        <time>2026-06-26T08:54:51Z</time>
      </trkpt>
      <trkpt lat="46.07119" lon="6.77695">
        <ele>1786.9</ele>
        <time>2026-06-26T08:54:52Z</time>
      </trkpt>
      <trkpt lat="46.07119" lon="6.77695">
        <ele>1786.9</ele>
        <time>2026-06-26T08:54:53Z</time>
      </trkpt>
      <trkpt lat="46.07118" lon="6.77695">
        <ele>1786.8</ele>
        <time>2026-06-26T08:54:54Z</time>
      </trkpt>
      <trkpt lat="46.07118" lon="6.77695">
        <ele>1786.7</ele>
        <time>2026-06-26T08:54:55Z</time>
      </trkpt>
      <trkpt lat="46.07118" lon="6.77695">
        <ele>1786.7</ele>
        <time>2026-06-26T08:54:56Z</time>
      </trkpt>
      <trkpt lat="46.07118" lon="6.77694">
        <ele>1786.6</ele>
        <time>2026-06-26T08:54:57Z</time>
      </trkpt>
      <trkpt lat="46.07118" lon="6.77694">
        <ele>1786.6</ele>
        <time>2026-06-26T08:54:58Z</time>
      </trkpt>
      <trkpt lat="46.07118" lon="6.77694">
        <ele>1786.6</ele>
        <time>2026-06-26T08:54:59Z</time>
      </trkpt>
      <trkpt lat="46.07118" lon="6.77695">
        <ele>1786.6</ele>
        <time>2026-06-26T08:55:00Z</time>
      </trkpt>
      <trkpt lat="46.07118" lon="6.77695">
        <ele>1786.5</ele>
        <time>2026-06-26T08:55:01Z</time>
      </trkpt>
      <trkpt lat="46.07118" lon="6.77695">
        <ele>1786.5</ele>
        <time>2026-06-26T08:55:02Z</time>
      </trkpt>
      <trkpt lat="46.07118" lon="6.77695">
        <ele>1786.4</ele>
        <time>2026-06-26T08:55:03Z</time>
      </trkpt>
      <trkpt lat="46.07118" lon="6.77694">
        <ele>1786.4</ele>
        <time>2026-06-26T08:55:04Z</time>
      </trkpt>
      <trkpt lat="46.07118" lon="6.77694">
        <ele>1786.4</ele>
        <time>2026-06-26T08:55:05Z</time>
      </trkpt>
      <trkpt lat="46.07118" lon="6.77694">
        <ele>1786.4</ele>
        <time>2026-06-26T08:55:06Z</time>
      </trkpt>
      <trkpt lat="46.07118" lon="6.77694">
        <ele>1786.4</ele>
        <time>2026-06-26T08:55:07Z</time>
      </trkpt>
      <trkpt lat="46.07118" lon="6.77694">
        <ele>1786.3</ele>
        <time>2026-06-26T08:55:08Z</time>
      </trkpt>
      <trkpt lat="46.07118" lon="6.77694">
        <ele>1786.3</ele>
        <time>2026-06-26T08:55:09Z</time>
      </trkpt>
      <trkpt lat="46.07118" lon="6.77694">
        <ele>1786.3</ele>
        <time>2026-06-26T08:55:10Z</time>
      </trkpt>
      <trkpt lat="46.07118" lon="6.77694">
        <ele>1786.4</ele>
        <time>2026-06-26T08:55:11Z</time>
      </trkpt>
      <trkpt lat="46.07119" lon="6.77694">
        <ele>1786.4</ele>
        <time>2026-06-26T08:55:12Z</time>
      </trkpt>
      <trkpt lat="46.07119" lon="6.77694">
        <ele>1786.4</ele>
        <time>2026-06-26T08:55:13Z</time>
      </trkpt>
      <trkpt lat="46.07119" lon="6.77694">
        <ele>1786.4</ele>
        <time>2026-06-26T08:55:14Z</time>
      </trkpt>
      <trkpt lat="46.07119" lon="6.77694">
        <ele>1786.5</ele>
        <time>2026-06-26T08:55:15Z</time>
      </trkpt>
      <trkpt lat="46.07119" lon="6.77694">
        <ele>1786.4</ele>
        <time>2026-06-26T08:55:16Z</time>
      </trkpt>
      <trkpt lat="46.07119" lon="6.77694">
        <ele>1786.4</ele>
        <time>2026-06-26T08:55:17Z</time>
      </trkpt>
      <trkpt lat="46.07119" lon="6.77694">
        <ele>1786.4</ele>
        <time>2026-06-26T08:55:18Z</time>
      </trkpt>
      <trkpt lat="46.07119" lon="6.77694">
        <ele>1786.3</ele>
        <time>2026-06-26T08:55:19Z</time>
      </trkpt>
      <trkpt lat="46.07119" lon="6.77694">
        <ele>1786.3</ele>
        <time>2026-06-26T08:55:20Z</time>
      </trkpt>
      <trkpt lat="46.07119" lon="6.77694">
        <ele>1786.3</ele>
        <time>2026-06-26T08:55:21Z</time>
      </trkpt>
      <trkpt lat="46.07119" lon="6.77694">
        <ele>1786.3</ele>
        <time>2026-06-26T08:55:22Z</time>
      </trkpt>
      <trkpt lat="46.07119" lon="6.77694">
        <ele>1786.3</ele>
        <time>2026-06-26T08:55:23Z</time>
      </trkpt>
      <trkpt lat="46.07119" lon="6.77694">
        <ele>1786.2</ele>
        <time>2026-06-26T08:55:24Z</time>
      </trkpt>
      <trkpt lat="46.07119" lon="6.77694">
        <ele>1786.2</ele>
        <time>2026-06-26T08:55:25Z</time>
      </trkpt>
      <trkpt lat="46.07119" lon="6.77695">
        <ele>1786.1</ele>
        <time>2026-06-26T08:55:26Z</time>
      </trkpt>
      <trkpt lat="46.07119" lon="6.77695">
        <ele>1786.2</ele>
        <time>2026-06-26T08:55:27Z</time>
      </trkpt>
      <trkpt lat="46.07119" lon="6.77695">
        <ele>1786.2</ele>
        <time>2026-06-26T08:55:28Z</time>
      </trkpt>
      <trkpt lat="46.07119" lon="6.77695">
        <ele>1786.2</ele>
        <time>2026-06-26T08:55:29Z</time>
      </trkpt>
      <trkpt lat="46.07119" lon="6.77695">
        <ele>1786.1</ele>
        <time>2026-06-26T08:55:30Z</time>
      </trkpt>
      <trkpt lat="46.07119" lon="6.77695">
        <ele>1786.1</ele>
        <time>2026-06-26T08:55:31Z</time>
      </trkpt>
      <trkpt lat="46.07119" lon="6.77695">
        <ele>1786.1</ele>
        <time>2026-06-26T08:55:32Z</time>
      </trkpt>
      <trkpt lat="46.07119" lon="6.77695">
        <ele>1786.1</ele>
        <time>2026-06-26T08:55:33Z</time>
      </trkpt>
      <trkpt lat="46.07119" lon="6.77694">
        <ele>1786.1</ele>
        <time>2026-06-26T08:55:34Z</time>
      </trkpt>
      <trkpt lat="46.07119" lon="6.77694">
        <ele>1786.1</ele>
        <time>2026-06-26T08:55:35Z</time>
      </trkpt>
      <trkpt lat="46.07119" lon="6.77694">
        <ele>1786</ele>
        <time>2026-06-26T08:55:36Z</time>
      </trkpt>
      <trkpt lat="46.07119" lon="6.77694">
        <ele>1786</ele>
        <time>2026-06-26T08:55:37Z</time>
      </trkpt>
      <trkpt lat="46.07119" lon="6.77694">
        <ele>1786</ele>
        <time>2026-06-26T08:55:38Z</time>
      </trkpt>
      <trkpt lat="46.07119" lon="6.77694">
        <ele>1786</ele>
        <time>2026-06-26T08:55:39Z</time>
      </trkpt>
      <trkpt lat="46.07119" lon="6.77694">
        <ele>1786</ele>
        <time>2026-06-26T08:55:40Z</time>
      </trkpt>
      <trkpt lat="46.07119" lon="6.77694">
        <ele>1786</ele>
        <time>2026-06-26T08:55:41Z</time>
      </trkpt>
      <trkpt lat="46.07119" lon="6.77694">
        <ele>1786.1</ele>
        <time>2026-06-26T08:55:42Z</time>
      </trkpt>
      <trkpt lat="46.07119" lon="6.77694">
        <ele>1786.1</ele>
        <time>2026-06-26T08:55:43Z</time>
      </trkpt>
      <trkpt lat="46.07119" lon="6.77694">
        <ele>1786.1</ele>
        <time>2026-06-26T08:55:44Z</time>
      </trkpt>
      <trkpt lat="46.07119" lon="6.77694">
        <ele>1786.2</ele>
        <time>2026-06-26T08:55:45Z</time>
      </trkpt>
      <trkpt lat="46.07119" lon="6.77693">
        <ele>1786.3</ele>
        <time>2026-06-26T08:55:46Z</time>
      </trkpt>
      <trkpt lat="46.07119" lon="6.77693">
        <ele>1786.4</ele>
        <time>2026-06-26T08:55:47Z</time>
      </trkpt>
      <trkpt lat="46.07119" lon="6.77693">
        <ele>1786.5</ele>
        <time>2026-06-26T08:55:48Z</time>
      </trkpt>
      <trkpt lat="46.07119" lon="6.77693">
        <ele>1786.5</ele>
        <time>2026-06-26T08:55:49Z</time>
      </trkpt>
      <trkpt lat="46.07119" lon="6.77693">
        <ele>1786.5</ele>
        <time>2026-06-26T08:55:50Z</time>
      </trkpt>
      <trkpt lat="46.07119" lon="6.77693">
        <ele>1786.6</ele>
        <time>2026-06-26T08:55:51Z</time>
      </trkpt>
      <trkpt lat="46.07119" lon="6.77693">
        <ele>1786.6</ele>
        <time>2026-06-26T08:55:52Z</time>
      </trkpt>
      <trkpt lat="46.07119" lon="6.77693">
        <ele>1786.7</ele>
        <time>2026-06-26T08:55:53Z</time>
      </trkpt>
      <trkpt lat="46.07119" lon="6.77692">
        <ele>1786.8</ele>
        <time>2026-06-26T08:55:54Z</time>
      </trkpt>
      <trkpt lat="46.07119" lon="6.77692">
        <ele>1786.8</ele>
        <time>2026-06-26T08:55:55Z</time>
      </trkpt>
      <trkpt lat="46.07119" lon="6.77692">
        <ele>1786.8</ele>
        <time>2026-06-26T08:55:56Z</time>
      </trkpt>
      <trkpt lat="46.0712" lon="6.77692">
        <ele>1786.8</ele>
        <time>2026-06-26T08:55:57Z</time>
      </trkpt>
      <trkpt lat="46.0712" lon="6.77692">
        <ele>1786.8</ele>
        <time>2026-06-26T08:55:58Z</time>
      </trkpt>
      <trkpt lat="46.0712" lon="6.77692">
        <ele>1786.8</ele>
        <time>2026-06-26T08:55:59Z</time>
      </trkpt>
      <trkpt lat="46.07119" lon="6.77692">
        <ele>1786.8</ele>
        <time>2026-06-26T08:56:00Z</time>
      </trkpt>
      <trkpt lat="46.07119" lon="6.77692">
        <ele>1786.9</ele>
        <time>2026-06-26T08:56:01Z</time>
      </trkpt>
      <trkpt lat="46.07119" lon="6.77692">
        <ele>1786.9</ele>
        <time>2026-06-26T08:56:02Z</time>
      </trkpt>
      <trkpt lat="46.07119" lon="6.77692">
        <ele>1786.9</ele>
        <time>2026-06-26T08:56:03Z</time>
      </trkpt>
      <trkpt lat="46.07119" lon="6.77692">
        <ele>1787</ele>
        <time>2026-06-26T08:56:04Z</time>
      </trkpt>
      <trkpt lat="46.07119" lon="6.77692">
        <ele>1787</ele>
        <time>2026-06-26T08:56:05Z</time>
      </trkpt>
      <trkpt lat="46.07119" lon="6.77692">
        <ele>1787.1</ele>
        <time>2026-06-26T08:56:06Z</time>
      </trkpt>
      <trkpt lat="46.07119" lon="6.77692">
        <ele>1787.1</ele>
        <time>2026-06-26T08:56:07Z</time>
      </trkpt>
      <trkpt lat="46.07119" lon="6.77692">
        <ele>1787.1</ele>
        <time>2026-06-26T08:56:08Z</time>
      </trkpt>
      <trkpt lat="46.07119" lon="6.77693">
        <ele>1787.2</ele>
        <time>2026-06-26T08:56:09Z</time>
      </trkpt>
      <trkpt lat="46.0712" lon="6.77693">
        <ele>1787.2</ele>
        <time>2026-06-26T08:56:10Z</time>
      </trkpt>
      <trkpt lat="46.0712" lon="6.77693">
        <ele>1787.4</ele>
        <time>2026-06-26T08:56:11Z</time>
      </trkpt>
      <trkpt lat="46.0712" lon="6.77694">
        <ele>1787.5</ele>
        <time>2026-06-26T08:56:12Z</time>
      </trkpt>
      <trkpt lat="46.07121" lon="6.77693">
        <ele>1787.6</ele>
        <time>2026-06-26T08:56:13Z</time>
      </trkpt>
      <trkpt lat="46.07121" lon="6.77693">
        <ele>1787.7</ele>
        <time>2026-06-26T08:56:14Z</time>
      </trkpt>
      <trkpt lat="46.07121" lon="6.77692">
        <ele>1787.7</ele>
        <time>2026-06-26T08:56:15Z</time>
      </trkpt>
      <trkpt lat="46.07122" lon="6.77691">
        <ele>1787.6</ele>
        <time>2026-06-26T08:56:16Z</time>
      </trkpt>
      <trkpt lat="46.07123" lon="6.77691">
        <ele>1787.6</ele>
        <time>2026-06-26T08:56:17Z</time>
      </trkpt>
      <trkpt lat="46.07123" lon="6.77691">
        <ele>1787.5</ele>
        <time>2026-06-26T08:56:18Z</time>
      </trkpt>
      <trkpt lat="46.07124" lon="6.77691">
        <ele>1787.5</ele>
        <time>2026-06-26T08:56:19Z</time>
      </trkpt>
      <trkpt lat="46.07125" lon="6.77691">
        <ele>1787.5</ele>
        <time>2026-06-26T08:56:20Z</time>
      </trkpt>
      <trkpt lat="46.07125" lon="6.77691">
        <ele>1787.5</ele>
        <time>2026-06-26T08:56:21Z</time>
      </trkpt>
      <trkpt lat="46.07126" lon="6.77692">
        <ele>1787.6</ele>
        <time>2026-06-26T08:56:22Z</time>
      </trkpt>
      <trkpt lat="46.07126" lon="6.77692">
        <ele>1787.8</ele>
        <time>2026-06-26T08:56:23Z</time>
      </trkpt>
      <trkpt lat="46.07126" lon="6.77693">
        <ele>1788</ele>
        <time>2026-06-26T08:56:24Z</time>
      </trkpt>
      <trkpt lat="46.07125" lon="6.77694">
        <ele>1788.1</ele>
        <time>2026-06-26T08:56:25Z</time>
      </trkpt>
      <trkpt lat="46.07125" lon="6.77694">
        <ele>1788.3</ele>
        <time>2026-06-26T08:56:26Z</time>
      </trkpt>
      <trkpt lat="46.07125" lon="6.77695">
        <ele>1788.4</ele>
        <time>2026-06-26T08:56:27Z</time>
      </trkpt>
      <trkpt lat="46.07125" lon="6.77696">
        <ele>1788.5</ele>
        <time>2026-06-26T08:56:28Z</time>
      </trkpt>
      <trkpt lat="46.07124" lon="6.77696">
        <ele>1788.6</ele>
        <time>2026-06-26T08:56:29Z</time>
      </trkpt>
      <trkpt lat="46.07124" lon="6.77697">
        <ele>1788.9</ele>
        <time>2026-06-26T08:56:30Z</time>
      </trkpt>
      <trkpt lat="46.07124" lon="6.77698">
        <ele>1789.1</ele>
        <time>2026-06-26T08:56:31Z</time>
      </trkpt>
      <trkpt lat="46.07123" lon="6.77698">
        <ele>1789.3</ele>
        <time>2026-06-26T08:56:32Z</time>
      </trkpt>
      <trkpt lat="46.07122" lon="6.77698">
        <ele>1789.5</ele>
        <time>2026-06-26T08:56:33Z</time>
      </trkpt>
      <trkpt lat="46.07122" lon="6.77699">
        <ele>1789.7</ele>
        <time>2026-06-26T08:56:34Z</time>
      </trkpt>
      <trkpt lat="46.07121" lon="6.77699">
        <ele>1789.9</ele>
        <time>2026-06-26T08:56:35Z</time>
      </trkpt>
      <trkpt lat="46.07121" lon="6.777">
        <ele>1790.1</ele>
        <time>2026-06-26T08:56:36Z</time>
      </trkpt>
      <trkpt lat="46.0712" lon="6.77701">
        <ele>1790.2</ele>
        <time>2026-06-26T08:56:37Z</time>
      </trkpt>
      <trkpt lat="46.0712" lon="6.77701">
        <ele>1790</ele>
        <time>2026-06-26T08:56:38Z</time>
      </trkpt>
      <trkpt lat="46.07119" lon="6.77701">
        <ele>1790.2</ele>
        <time>2026-06-26T08:56:39Z</time>
      </trkpt>
      <trkpt lat="46.07118" lon="6.77701">
        <ele>1790.3</ele>
        <time>2026-06-26T08:56:40Z</time>
      </trkpt>
      <trkpt lat="46.07117" lon="6.77702">
        <ele>1790.5</ele>
        <time>2026-06-26T08:56:41Z</time>
      </trkpt>
      <trkpt lat="46.07117" lon="6.77702">
        <ele>1790.6</ele>
        <time>2026-06-26T08:56:42Z</time>
      </trkpt>
      <trkpt lat="46.07116" lon="6.77702">
        <ele>1790.7</ele>
        <time>2026-06-26T08:56:43Z</time>
      </trkpt>
      <trkpt lat="46.07116" lon="6.77702">
        <ele>1790.8</ele>
        <time>2026-06-26T08:56:44Z</time>
      </trkpt>
      <trkpt lat="46.07115" lon="6.77703">
        <ele>1791.1</ele>
        <time>2026-06-26T08:56:45Z</time>
      </trkpt>
      <trkpt lat="46.07115" lon="6.77704">
        <ele>1791.3</ele>
        <time>2026-06-26T08:56:46Z</time>
      </trkpt>
      <trkpt lat="46.07114" lon="6.77704">
        <ele>1791.4</ele>
        <time>2026-06-26T08:56:47Z</time>
      </trkpt>
      <trkpt lat="46.07114" lon="6.77705">
        <ele>1791.6</ele>
        <time>2026-06-26T08:56:48Z</time>
      </trkpt>
      <trkpt lat="46.07113" lon="6.77706">
        <ele>1791.7</ele>
        <time>2026-06-26T08:56:49Z</time>
      </trkpt>
      <trkpt lat="46.07113" lon="6.77706">
        <ele>1791.9</ele>
        <time>2026-06-26T08:56:50Z</time>
      </trkpt>
      <trkpt lat="46.07112" lon="6.77707">
        <ele>1792</ele>
        <time>2026-06-26T08:56:51Z</time>
      </trkpt>
      <trkpt lat="46.07112" lon="6.77707">
        <ele>1792.1</ele>
        <time>2026-06-26T08:56:52Z</time>
      </trkpt>
      <trkpt lat="46.07112" lon="6.77707">
        <ele>1792.2</ele>
        <time>2026-06-26T08:56:53Z</time>
      </trkpt>
      <trkpt lat="46.07113" lon="6.77707">
        <ele>1792.3</ele>
        <time>2026-06-26T08:56:54Z</time>
      </trkpt>
      <trkpt lat="46.07113" lon="6.77707">
        <ele>1792.3</ele>
        <time>2026-06-26T08:56:55Z</time>
      </trkpt>
      <trkpt lat="46.07113" lon="6.77707">
        <ele>1792.3</ele>
        <time>2026-06-26T08:56:56Z</time>
      </trkpt>
      <trkpt lat="46.07113" lon="6.77707">
        <ele>1792.2</ele>
        <time>2026-06-26T08:56:57Z</time>
      </trkpt>
      <trkpt lat="46.07113" lon="6.77707">
        <ele>1792.2</ele>
        <time>2026-06-26T08:56:58Z</time>
      </trkpt>
      <trkpt lat="46.07112" lon="6.77707">
        <ele>1792.2</ele>
        <time>2026-06-26T08:56:59Z</time>
      </trkpt>
      <trkpt lat="46.07112" lon="6.77707">
        <ele>1792.2</ele>
        <time>2026-06-26T08:57:00Z</time>
      </trkpt>
      <trkpt lat="46.07112" lon="6.77707">
        <ele>1792.2</ele>
        <time>2026-06-26T08:57:01Z</time>
      </trkpt>
      <trkpt lat="46.07113" lon="6.77707">
        <ele>1792.3</ele>
        <time>2026-06-26T08:57:02Z</time>
      </trkpt>
      <trkpt lat="46.07113" lon="6.77707">
        <ele>1792.2</ele>
        <time>2026-06-26T08:57:03Z</time>
      </trkpt>
      <trkpt lat="46.07113" lon="6.77707">
        <ele>1792.3</ele>
        <time>2026-06-26T08:57:04Z</time>
      </trkpt>
      <trkpt lat="46.07113" lon="6.77708">
        <ele>1792.3</ele>
        <time>2026-06-26T08:57:05Z</time>
      </trkpt>
      <trkpt lat="46.07113" lon="6.77708">
        <ele>1792.4</ele>
        <time>2026-06-26T08:57:06Z</time>
      </trkpt>
      <trkpt lat="46.07113" lon="6.77707">
        <ele>1792.4</ele>
        <time>2026-06-26T08:57:07Z</time>
      </trkpt>
      <trkpt lat="46.07113" lon="6.77707">
        <ele>1792.3</ele>
        <time>2026-06-26T08:57:08Z</time>
      </trkpt>
      <trkpt lat="46.07113" lon="6.77707">
        <ele>1792.2</ele>
        <time>2026-06-26T08:57:09Z</time>
      </trkpt>
      <trkpt lat="46.07113" lon="6.77707">
        <ele>1792.2</ele>
        <time>2026-06-26T08:57:10Z</time>
      </trkpt>
      <trkpt lat="46.07113" lon="6.77707">
        <ele>1792.1</ele>
        <time>2026-06-26T08:57:11Z</time>
      </trkpt>
      <trkpt lat="46.07113" lon="6.77707">
        <ele>1792.1</ele>
        <time>2026-06-26T08:57:12Z</time>
      </trkpt>
      <trkpt lat="46.07114" lon="6.77707">
        <ele>1792.1</ele>
        <time>2026-06-26T08:57:13Z</time>
      </trkpt>
      <trkpt lat="46.07114" lon="6.77707">
        <ele>1792.1</ele>
        <time>2026-06-26T08:57:14Z</time>
      </trkpt>
      <trkpt lat="46.07114" lon="6.77707">
        <ele>1792.1</ele>
        <time>2026-06-26T08:57:15Z</time>
      </trkpt>
      <trkpt lat="46.07114" lon="6.77707">
        <ele>1792.1</ele>
        <time>2026-06-26T08:57:16Z</time>
      </trkpt>
      <trkpt lat="46.07114" lon="6.77707">
        <ele>1792</ele>
        <time>2026-06-26T08:57:17Z</time>
      </trkpt>
      <trkpt lat="46.07114" lon="6.77707">
        <ele>1792</ele>
        <time>2026-06-26T08:57:18Z</time>
      </trkpt>
      <trkpt lat="46.07114" lon="6.77707">
        <ele>1792</ele>
        <time>2026-06-26T08:57:19Z</time>
      </trkpt>
      <trkpt lat="46.07114" lon="6.77707">
        <ele>1792</ele>
        <time>2026-06-26T08:57:20Z</time>
      </trkpt>
      <trkpt lat="46.07114" lon="6.77707">
        <ele>1792</ele>
        <time>2026-06-26T08:57:21Z</time>
      </trkpt>
      <trkpt lat="46.07114" lon="6.77706">
        <ele>1792.1</ele>
        <time>2026-06-26T08:57:22Z</time>
      </trkpt>
      <trkpt lat="46.07114" lon="6.77706">
        <ele>1792.3</ele>
        <time>2026-06-26T08:57:23Z</time>
      </trkpt>
      <trkpt lat="46.07114" lon="6.77706">
        <ele>1792.2</ele>
        <time>2026-06-26T08:57:24Z</time>
      </trkpt>
      <trkpt lat="46.07114" lon="6.77706">
        <ele>1792.3</ele>
        <time>2026-06-26T08:57:25Z</time>
      </trkpt>
      <trkpt lat="46.07114" lon="6.77705">
        <ele>1792.3</ele>
        <time>2026-06-26T08:57:26Z</time>
      </trkpt>
      <trkpt lat="46.07114" lon="6.77705">
        <ele>1792.3</ele>
        <time>2026-06-26T08:57:27Z</time>
      </trkpt>
      <trkpt lat="46.07114" lon="6.77705">
        <ele>1792.4</ele>
        <time>2026-06-26T08:57:28Z</time>
      </trkpt>
      <trkpt lat="46.07114" lon="6.77704">
        <ele>1792.4</ele>
        <time>2026-06-26T08:57:29Z</time>
      </trkpt>
      <trkpt lat="46.07114" lon="6.77704">
        <ele>1792.3</ele>
        <time>2026-06-26T08:57:30Z</time>
      </trkpt>
      <trkpt lat="46.07114" lon="6.77704">
        <ele>1792.4</ele>
        <time>2026-06-26T08:57:31Z</time>
      </trkpt>
      <trkpt lat="46.07114" lon="6.77704">
        <ele>1792.4</ele>
        <time>2026-06-26T08:57:32Z</time>
      </trkpt>
      <trkpt lat="46.07114" lon="6.77704">
        <ele>1792.4</ele>
        <time>2026-06-26T08:57:33Z</time>
      </trkpt>
      <trkpt lat="46.07114" lon="6.77704">
        <ele>1792.4</ele>
        <time>2026-06-26T08:57:34Z</time>
      </trkpt>
      <trkpt lat="46.07114" lon="6.77704">
        <ele>1792.4</ele>
        <time>2026-06-26T08:57:35Z</time>
      </trkpt>
      <trkpt lat="46.07114" lon="6.77704">
        <ele>1792.5</ele>
        <time>2026-06-26T08:57:36Z</time>
      </trkpt>
      <trkpt lat="46.07114" lon="6.77704">
        <ele>1792.6</ele>
        <time>2026-06-26T08:57:37Z</time>
      </trkpt>
      <trkpt lat="46.07114" lon="6.77705">
        <ele>1792.6</ele>
        <time>2026-06-26T08:57:38Z</time>
      </trkpt>
      <trkpt lat="46.07114" lon="6.77705">
        <ele>1792.7</ele>
        <time>2026-06-26T08:57:39Z</time>
      </trkpt>
      <trkpt lat="46.07114" lon="6.77704">
        <ele>1792.7</ele>
        <time>2026-06-26T08:57:40Z</time>
      </trkpt>
      <trkpt lat="46.07114" lon="6.77704">
        <ele>1792.6</ele>
        <time>2026-06-26T08:57:41Z</time>
      </trkpt>
      <trkpt lat="46.07114" lon="6.77704">
        <ele>1792.6</ele>
        <time>2026-06-26T08:57:42Z</time>
      </trkpt>
      <trkpt lat="46.07114" lon="6.77705">
        <ele>1792.5</ele>
        <time>2026-06-26T08:57:43Z</time>
      </trkpt>
      <trkpt lat="46.07114" lon="6.77705">
        <ele>1792.5</ele>
        <time>2026-06-26T08:57:44Z</time>
      </trkpt>
      <trkpt lat="46.07114" lon="6.77704">
        <ele>1792.5</ele>
        <time>2026-06-26T08:57:45Z</time>
      </trkpt>
      <trkpt lat="46.07114" lon="6.77704">
        <ele>1792.5</ele>
        <time>2026-06-26T08:57:46Z</time>
      </trkpt>
      <trkpt lat="46.07114" lon="6.77704">
        <ele>1792.4</ele>
        <time>2026-06-26T08:57:47Z</time>
      </trkpt>
      <trkpt lat="46.07114" lon="6.77704">
        <ele>1792.4</ele>
        <time>2026-06-26T08:57:48Z</time>
      </trkpt>
      <trkpt lat="46.07114" lon="6.77704">
        <ele>1792.4</ele>
        <time>2026-06-26T08:57:49Z</time>
      </trkpt>
      <trkpt lat="46.07114" lon="6.77705">
        <ele>1792.4</ele>
        <time>2026-06-26T08:57:50Z</time>
      </trkpt>
      <trkpt lat="46.07114" lon="6.77705">
        <ele>1792.3</ele>
        <time>2026-06-26T08:57:51Z</time>
      </trkpt>
      <trkpt lat="46.07114" lon="6.77705">
        <ele>1792.3</ele>
        <time>2026-06-26T08:57:52Z</time>
      </trkpt>
      <trkpt lat="46.07114" lon="6.77706">
        <ele>1792.2</ele>
        <time>2026-06-26T08:57:53Z</time>
      </trkpt>
      <trkpt lat="46.07114" lon="6.77706">
        <ele>1792.3</ele>
        <time>2026-06-26T08:57:54Z</time>
      </trkpt>
      <trkpt lat="46.07114" lon="6.77707">
        <ele>1792.3</ele>
        <time>2026-06-26T08:57:55Z</time>
      </trkpt>
      <trkpt lat="46.07114" lon="6.77708">
        <ele>1792.3</ele>
        <time>2026-06-26T08:57:56Z</time>
      </trkpt>
      <trkpt lat="46.07114" lon="6.77708">
        <ele>1792.3</ele>
        <time>2026-06-26T08:57:57Z</time>
      </trkpt>
      <trkpt lat="46.07114" lon="6.77709">
        <ele>1792.4</ele>
        <time>2026-06-26T08:57:58Z</time>
      </trkpt>
      <trkpt lat="46.07114" lon="6.7771">
        <ele>1792.4</ele>
        <time>2026-06-26T08:57:59Z</time>
      </trkpt>
      <trkpt lat="46.07114" lon="6.77711">
        <ele>1792.4</ele>
        <time>2026-06-26T08:58:00Z</time>
      </trkpt>
      <trkpt lat="46.07114" lon="6.77711">
        <ele>1792.5</ele>
        <time>2026-06-26T08:58:01Z</time>
      </trkpt>
      <trkpt lat="46.07114" lon="6.77712">
        <ele>1792.6</ele>
        <time>2026-06-26T08:58:02Z</time>
      </trkpt>
      <trkpt lat="46.07114" lon="6.77713">
        <ele>1792.8</ele>
        <time>2026-06-26T08:58:03Z</time>
      </trkpt>
      <trkpt lat="46.07114" lon="6.77714">
        <ele>1792.9</ele>
        <time>2026-06-26T08:58:04Z</time>
      </trkpt>
      <trkpt lat="46.07115" lon="6.77715">
        <ele>1793</ele>
        <time>2026-06-26T08:58:05Z</time>
      </trkpt>
      <trkpt lat="46.07115" lon="6.77715">
        <ele>1793</ele>
        <time>2026-06-26T08:58:06Z</time>
      </trkpt>
      <trkpt lat="46.07115" lon="6.77716">
        <ele>1793.1</ele>
        <time>2026-06-26T08:58:07Z</time>
      </trkpt>
      <trkpt lat="46.07116" lon="6.77717">
        <ele>1793.2</ele>
        <time>2026-06-26T08:58:08Z</time>
      </trkpt>
      <trkpt lat="46.07116" lon="6.77717">
        <ele>1793.4</ele>
        <time>2026-06-26T08:58:09Z</time>
      </trkpt>
      <trkpt lat="46.07117" lon="6.77718">
        <ele>1793.6</ele>
        <time>2026-06-26T08:58:10Z</time>
      </trkpt>
      <trkpt lat="46.07117" lon="6.77718">
        <ele>1793.7</ele>
        <time>2026-06-26T08:58:11Z</time>
      </trkpt>
      <trkpt lat="46.07118" lon="6.77718">
        <ele>1793.7</ele>
        <time>2026-06-26T08:58:12Z</time>
      </trkpt>
      <trkpt lat="46.07118" lon="6.77718">
        <ele>1793.8</ele>
        <time>2026-06-26T08:58:13Z</time>
      </trkpt>
      <trkpt lat="46.07118" lon="6.77719">
        <ele>1793.9</ele>
        <time>2026-06-26T08:58:14Z</time>
      </trkpt>
      <trkpt lat="46.07119" lon="6.77719">
        <ele>1794</ele>
        <time>2026-06-26T08:58:15Z</time>
      </trkpt>
      <trkpt lat="46.07119" lon="6.7772">
        <ele>1794.3</ele>
        <time>2026-06-26T08:58:16Z</time>
      </trkpt>
      <trkpt lat="46.07119" lon="6.77721">
        <ele>1794.6</ele>
        <time>2026-06-26T08:58:17Z</time>
      </trkpt>
      <trkpt lat="46.07119" lon="6.77721">
        <ele>1794.9</ele>
        <time>2026-06-26T08:58:18Z</time>
      </trkpt>
      <trkpt lat="46.07119" lon="6.77722">
        <ele>1795.1</ele>
        <time>2026-06-26T08:58:19Z</time>
      </trkpt>
      <trkpt lat="46.0712" lon="6.77722">
        <ele>1795.3</ele>
        <time>2026-06-26T08:58:20Z</time>
      </trkpt>
      <trkpt lat="46.0712" lon="6.77723">
        <ele>1795.4</ele>
        <time>2026-06-26T08:58:21Z</time>
      </trkpt>
      <trkpt lat="46.0712" lon="6.77723">
        <ele>1795.6</ele>
        <time>2026-06-26T08:58:22Z</time>
      </trkpt>
      <trkpt lat="46.0712" lon="6.77724">
        <ele>1795.8</ele>
        <time>2026-06-26T08:58:23Z</time>
      </trkpt>
      <trkpt lat="46.07121" lon="6.77724">
        <ele>1796</ele>
        <time>2026-06-26T08:58:24Z</time>
      </trkpt>
      <trkpt lat="46.07121" lon="6.77724">
        <ele>1796.3</ele>
        <time>2026-06-26T08:58:25Z</time>
      </trkpt>
      <trkpt lat="46.07122" lon="6.77724">
        <ele>1796.5</ele>
        <time>2026-06-26T08:58:26Z</time>
      </trkpt>
      <trkpt lat="46.07123" lon="6.77724">
        <ele>1796.7</ele>
        <time>2026-06-26T08:58:27Z</time>
      </trkpt>
      <trkpt lat="46.07123" lon="6.77724">
        <ele>1796.8</ele>
        <time>2026-06-26T08:58:28Z</time>
      </trkpt>
      <trkpt lat="46.07123" lon="6.77724">
        <ele>1797</ele>
        <time>2026-06-26T08:58:29Z</time>
      </trkpt>
      <trkpt lat="46.07124" lon="6.77725">
        <ele>1797.1</ele>
        <time>2026-06-26T08:58:30Z</time>
      </trkpt>
      <trkpt lat="46.07124" lon="6.77725">
        <ele>1797.2</ele>
        <time>2026-06-26T08:58:31Z</time>
      </trkpt>
      <trkpt lat="46.07123" lon="6.77725">
        <ele>1797.4</ele>
        <time>2026-06-26T08:58:32Z</time>
      </trkpt>
      <trkpt lat="46.07123" lon="6.77725">
        <ele>1797.5</ele>
        <time>2026-06-26T08:58:33Z</time>
      </trkpt>
      <trkpt lat="46.07123" lon="6.77725">
        <ele>1797.7</ele>
        <time>2026-06-26T08:58:34Z</time>
      </trkpt>
      <trkpt lat="46.07123" lon="6.77726">
        <ele>1797.8</ele>
        <time>2026-06-26T08:58:35Z</time>
      </trkpt>
      <trkpt lat="46.07123" lon="6.77726">
        <ele>1797.9</ele>
        <time>2026-06-26T08:58:36Z</time>
      </trkpt>
      <trkpt lat="46.07123" lon="6.77726">
        <ele>1797.9</ele>
        <time>2026-06-26T08:58:37Z</time>
      </trkpt>
      <trkpt lat="46.07123" lon="6.77726">
        <ele>1798</ele>
        <time>2026-06-26T08:58:38Z</time>
      </trkpt>
      <trkpt lat="46.07123" lon="6.77726">
        <ele>1798</ele>
        <time>2026-06-26T08:58:39Z</time>
      </trkpt>
      <trkpt lat="46.07123" lon="6.77726">
        <ele>1798.1</ele>
        <time>2026-06-26T08:58:40Z</time>
      </trkpt>
      <trkpt lat="46.07123" lon="6.77726">
        <ele>1798.1</ele>
        <time>2026-06-26T08:58:41Z</time>
      </trkpt>
      <trkpt lat="46.07123" lon="6.77726">
        <ele>1798.1</ele>
        <time>2026-06-26T08:58:42Z</time>
      </trkpt>
      <trkpt lat="46.07123" lon="6.77726">
        <ele>1798.1</ele>
        <time>2026-06-26T08:58:43Z</time>
      </trkpt>
      <trkpt lat="46.07123" lon="6.77727">
        <ele>1798.1</ele>
        <time>2026-06-26T08:58:44Z</time>
      </trkpt>
      <trkpt lat="46.07123" lon="6.77727">
        <ele>1798</ele>
        <time>2026-06-26T08:58:45Z</time>
      </trkpt>
      <trkpt lat="46.07123" lon="6.77727">
        <ele>1798</ele>
        <time>2026-06-26T08:58:46Z</time>
      </trkpt>
      <trkpt lat="46.07124" lon="6.77726">
        <ele>1798</ele>
        <time>2026-06-26T08:58:47Z</time>
      </trkpt>
      <trkpt lat="46.07124" lon="6.77726">
        <ele>1798</ele>
        <time>2026-06-26T08:58:48Z</time>
      </trkpt>
      <trkpt lat="46.07124" lon="6.77726">
        <ele>1798</ele>
        <time>2026-06-26T08:58:49Z</time>
      </trkpt>
      <trkpt lat="46.07125" lon="6.77726">
        <ele>1797.9</ele>
        <time>2026-06-26T08:58:50Z</time>
      </trkpt>
      <trkpt lat="46.07125" lon="6.77726">
        <ele>1798</ele>
        <time>2026-06-26T08:58:51Z</time>
      </trkpt>
      <trkpt lat="46.07125" lon="6.77727">
        <ele>1798.2</ele>
        <time>2026-06-26T08:58:52Z</time>
      </trkpt>
      <trkpt lat="46.07125" lon="6.77727">
        <ele>1798.3</ele>
        <time>2026-06-26T08:58:53Z</time>
      </trkpt>
      <trkpt lat="46.07125" lon="6.77727">
        <ele>1798.4</ele>
        <time>2026-06-26T08:58:54Z</time>
      </trkpt>
      <trkpt lat="46.07125" lon="6.77727">
        <ele>1798.5</ele>
        <time>2026-06-26T08:58:55Z</time>
      </trkpt>
      <trkpt lat="46.07125" lon="6.77727">
        <ele>1798.7</ele>
        <time>2026-06-26T08:58:56Z</time>
      </trkpt>
      <trkpt lat="46.07125" lon="6.77727">
        <ele>1798.7</ele>
        <time>2026-06-26T08:58:57Z</time>
      </trkpt>
      <trkpt lat="46.07126" lon="6.77727">
        <ele>1798.8</ele>
        <time>2026-06-26T08:58:58Z</time>
      </trkpt>
      <trkpt lat="46.07126" lon="6.77727">
        <ele>1798.8</ele>
        <time>2026-06-26T08:58:59Z</time>
      </trkpt>
      <trkpt lat="46.07126" lon="6.77727">
        <ele>1798.8</ele>
        <time>2026-06-26T08:59:00Z</time>
      </trkpt>
      <trkpt lat="46.07126" lon="6.77727">
        <ele>1798.9</ele>
        <time>2026-06-26T08:59:01Z</time>
      </trkpt>
      <trkpt lat="46.07126" lon="6.77727">
        <ele>1798.9</ele>
        <time>2026-06-26T08:59:02Z</time>
      </trkpt>
      <trkpt lat="46.07127" lon="6.77728">
        <ele>1798.9</ele>
        <time>2026-06-26T08:59:03Z</time>
      </trkpt>
      <trkpt lat="46.07127" lon="6.77728">
        <ele>1799</ele>
        <time>2026-06-26T08:59:04Z</time>
      </trkpt>
      <trkpt lat="46.07127" lon="6.77728">
        <ele>1799.1</ele>
        <time>2026-06-26T08:59:05Z</time>
      </trkpt>
      <trkpt lat="46.07127" lon="6.77728">
        <ele>1799.1</ele>
        <time>2026-06-26T08:59:06Z</time>
      </trkpt>
      <trkpt lat="46.07127" lon="6.77728">
        <ele>1799.1</ele>
        <time>2026-06-26T08:59:07Z</time>
      </trkpt>
      <trkpt lat="46.07127" lon="6.77728">
        <ele>1799.1</ele>
        <time>2026-06-26T08:59:08Z</time>
      </trkpt>
      <trkpt lat="46.07127" lon="6.77728">
        <ele>1799.1</ele>
        <time>2026-06-26T08:59:09Z</time>
      </trkpt>
      <trkpt lat="46.07127" lon="6.77728">
        <ele>1799.2</ele>
        <time>2026-06-26T08:59:10Z</time>
      </trkpt>
      <trkpt lat="46.07128" lon="6.77728">
        <ele>1799.2</ele>
        <time>2026-06-26T08:59:11Z</time>
      </trkpt>
      <trkpt lat="46.07128" lon="6.77728">
        <ele>1799.2</ele>
        <time>2026-06-26T08:59:12Z</time>
      </trkpt>
      <trkpt lat="46.07128" lon="6.77728">
        <ele>1799.3</ele>
        <time>2026-06-26T08:59:13Z</time>
      </trkpt>
      <trkpt lat="46.07128" lon="6.77728">
        <ele>1799.4</ele>
        <time>2026-06-26T08:59:14Z</time>
      </trkpt>
      <trkpt lat="46.07128" lon="6.77728">
        <ele>1799.5</ele>
        <time>2026-06-26T08:59:15Z</time>
      </trkpt>
      <trkpt lat="46.07128" lon="6.77728">
        <ele>1799.6</ele>
        <time>2026-06-26T08:59:16Z</time>
      </trkpt>
      <trkpt lat="46.07128" lon="6.77728">
        <ele>1799.7</ele>
        <time>2026-06-26T08:59:17Z</time>
      </trkpt>
      <trkpt lat="46.07128" lon="6.77728">
        <ele>1799.7</ele>
        <time>2026-06-26T08:59:18Z</time>
      </trkpt>
      <trkpt lat="46.07128" lon="6.77728">
        <ele>1799.7</ele>
        <time>2026-06-26T08:59:19Z</time>
      </trkpt>
      <trkpt lat="46.07128" lon="6.77728">
        <ele>1799.7</ele>
        <time>2026-06-26T08:59:20Z</time>
      </trkpt>
      <trkpt lat="46.07128" lon="6.77728">
        <ele>1799.7</ele>
        <time>2026-06-26T08:59:21Z</time>
      </trkpt>
      <trkpt lat="46.07128" lon="6.77728">
        <ele>1799.7</ele>
        <time>2026-06-26T08:59:22Z</time>
      </trkpt>
      <trkpt lat="46.07128" lon="6.77728">
        <ele>1799.8</ele>
        <time>2026-06-26T08:59:23Z</time>
      </trkpt>
      <trkpt lat="46.07127" lon="6.77728">
        <ele>1799.8</ele>
        <time>2026-06-26T08:59:24Z</time>
      </trkpt>
      <trkpt lat="46.07127" lon="6.77728">
        <ele>1799.9</ele>
        <time>2026-06-26T08:59:25Z</time>
      </trkpt>
      <trkpt lat="46.07127" lon="6.77728">
        <ele>1799.9</ele>
        <time>2026-06-26T08:59:26Z</time>
      </trkpt>
      <trkpt lat="46.07127" lon="6.77728">
        <ele>1800</ele>
        <time>2026-06-26T08:59:27Z</time>
      </trkpt>
      <trkpt lat="46.07127" lon="6.77728">
        <ele>1800</ele>
        <time>2026-06-26T08:59:28Z</time>
      </trkpt>
      <trkpt lat="46.07127" lon="6.77728">
        <ele>1800</ele>
        <time>2026-06-26T08:59:29Z</time>
      </trkpt>
      <trkpt lat="46.07126" lon="6.77728">
        <ele>1800</ele>
        <time>2026-06-26T08:59:30Z</time>
      </trkpt>
      <trkpt lat="46.07126" lon="6.77728">
        <ele>1800</ele>
        <time>2026-06-26T08:59:31Z</time>
      </trkpt>
      <trkpt lat="46.07126" lon="6.77728">
        <ele>1799.9</ele>
        <time>2026-06-26T08:59:32Z</time>
      </trkpt>
      <trkpt lat="46.07126" lon="6.77728">
        <ele>1799.8</ele>
        <time>2026-06-26T08:59:33Z</time>
      </trkpt>
      <trkpt lat="46.07126" lon="6.77728">
        <ele>1799.8</ele>
        <time>2026-06-26T08:59:34Z</time>
      </trkpt>
      <trkpt lat="46.07126" lon="6.77728">
        <ele>1799.8</ele>
        <time>2026-06-26T08:59:35Z</time>
      </trkpt>
      <trkpt lat="46.07126" lon="6.77728">
        <ele>1799.8</ele>
        <time>2026-06-26T08:59:36Z</time>
      </trkpt>
      <trkpt lat="46.07126" lon="6.77728">
        <ele>1799.8</ele>
        <time>2026-06-26T08:59:37Z</time>
      </trkpt>
      <trkpt lat="46.07126" lon="6.77728">
        <ele>1799.8</ele>
        <time>2026-06-26T08:59:38Z</time>
      </trkpt>
      <trkpt lat="46.07126" lon="6.77729">
        <ele>1800</ele>
        <time>2026-06-26T08:59:39Z</time>
      </trkpt>
      <trkpt lat="46.07127" lon="6.77729">
        <ele>1800.1</ele>
        <time>2026-06-26T08:59:40Z</time>
      </trkpt>
      <trkpt lat="46.07127" lon="6.77729">
        <ele>1800.3</ele>
        <time>2026-06-26T08:59:41Z</time>
      </trkpt>
      <trkpt lat="46.07128" lon="6.77728">
        <ele>1800.5</ele>
        <time>2026-06-26T08:59:42Z</time>
      </trkpt>
      <trkpt lat="46.07129" lon="6.77728">
        <ele>1800.6</ele>
        <time>2026-06-26T08:59:43Z</time>
      </trkpt>
      <trkpt lat="46.0713" lon="6.77727">
        <ele>1800.8</ele>
        <time>2026-06-26T08:59:44Z</time>
      </trkpt>
      <trkpt lat="46.0713" lon="6.77727">
        <ele>1800.9</ele>
        <time>2026-06-26T08:59:45Z</time>
      </trkpt>
      <trkpt lat="46.07131" lon="6.77726">
        <ele>1801.2</ele>
        <time>2026-06-26T08:59:46Z</time>
      </trkpt>
      <trkpt lat="46.07132" lon="6.77726">
        <ele>1801.4</ele>
        <time>2026-06-26T08:59:47Z</time>
      </trkpt>
      <trkpt lat="46.07132" lon="6.77726">
        <ele>1801.5</ele>
        <time>2026-06-26T08:59:48Z</time>
      </trkpt>
      <trkpt lat="46.07133" lon="6.77725">
        <ele>1801.7</ele>
        <time>2026-06-26T08:59:49Z</time>
      </trkpt>
      <trkpt lat="46.07133" lon="6.77725">
        <ele>1801.8</ele>
        <time>2026-06-26T08:59:50Z</time>
      </trkpt>
      <trkpt lat="46.07133" lon="6.77726">
        <ele>1802</ele>
        <time>2026-06-26T08:59:51Z</time>
      </trkpt>
      <trkpt lat="46.07134" lon="6.77726">
        <ele>1802.1</ele>
        <time>2026-06-26T08:59:52Z</time>
      </trkpt>
      <trkpt lat="46.07134" lon="6.77727">
        <ele>1802.3</ele>
        <time>2026-06-26T08:59:53Z</time>
      </trkpt>
      <trkpt lat="46.07135" lon="6.77727">
        <ele>1802.5</ele>
        <time>2026-06-26T08:59:54Z</time>
      </trkpt>
      <trkpt lat="46.07135" lon="6.77727">
        <ele>1802.6</ele>
        <time>2026-06-26T08:59:55Z</time>
      </trkpt>
      <trkpt lat="46.07136" lon="6.77727">
        <ele>1802.7</ele>
        <time>2026-06-26T08:59:56Z</time>
      </trkpt>
      <trkpt lat="46.07136" lon="6.77727">
        <ele>1802.8</ele>
        <time>2026-06-26T08:59:57Z</time>
      </trkpt>
      <trkpt lat="46.07137" lon="6.77727">
        <ele>1802.8</ele>
        <time>2026-06-26T08:59:58Z</time>
      </trkpt>
      <trkpt lat="46.07138" lon="6.77727">
        <ele>1802.8</ele>
        <time>2026-06-26T08:59:59Z</time>
      </trkpt>
      <trkpt lat="46.07138" lon="6.77726">
        <ele>1802.8</ele>
        <time>2026-06-26T09:00:00Z</time>
      </trkpt>
      <trkpt lat="46.07139" lon="6.77726">
        <ele>1802.9</ele>
        <time>2026-06-26T09:00:01Z</time>
      </trkpt>
      <trkpt lat="46.0714" lon="6.77726">
        <ele>1802.9</ele>
        <time>2026-06-26T09:00:02Z</time>
      </trkpt>
      <trkpt lat="46.07141" lon="6.77725">
        <ele>1803</ele>
        <time>2026-06-26T09:00:03Z</time>
      </trkpt>
      <trkpt lat="46.07142" lon="6.77726">
        <ele>1803</ele>
        <time>2026-06-26T09:00:04Z</time>
      </trkpt>
      <trkpt lat="46.07142" lon="6.77726">
        <ele>1803</ele>
        <time>2026-06-26T09:00:05Z</time>
      </trkpt>
      <trkpt lat="46.07143" lon="6.77726">
        <ele>1803.2</ele>
        <time>2026-06-26T09:00:06Z</time>
      </trkpt>
      <trkpt lat="46.07144" lon="6.77726">
        <ele>1803.3</ele>
        <time>2026-06-26T09:00:07Z</time>
      </trkpt>
      <trkpt lat="46.07144" lon="6.77726">
        <ele>1803.5</ele>
        <time>2026-06-26T09:00:08Z</time>
      </trkpt>
      <trkpt lat="46.07145" lon="6.77726">
        <ele>1803.6</ele>
        <time>2026-06-26T09:00:09Z</time>
      </trkpt>
      <trkpt lat="46.07145" lon="6.77726">
        <ele>1803.8</ele>
        <time>2026-06-26T09:00:10Z</time>
      </trkpt>
      <trkpt lat="46.07146" lon="6.77726">
        <ele>1803.9</ele>
        <time>2026-06-26T09:00:11Z</time>
      </trkpt>
      <trkpt lat="46.07147" lon="6.77726">
        <ele>1804.1</ele>
        <time>2026-06-26T09:00:12Z</time>
      </trkpt>
      <trkpt lat="46.07147" lon="6.77726">
        <ele>1804.2</ele>
        <time>2026-06-26T09:00:13Z</time>
      </trkpt>
      <trkpt lat="46.07148" lon="6.77726">
        <ele>1804.3</ele>
        <time>2026-06-26T09:00:14Z</time>
      </trkpt>
      <trkpt lat="46.07148" lon="6.77726">
        <ele>1804.4</ele>
        <time>2026-06-26T09:00:15Z</time>
      </trkpt>
      <trkpt lat="46.07149" lon="6.77727">
        <ele>1804.4</ele>
        <time>2026-06-26T09:00:16Z</time>
      </trkpt>
      <trkpt lat="46.0715" lon="6.77727">
        <ele>1804.6</ele>
        <time>2026-06-26T09:00:17Z</time>
      </trkpt>
      <trkpt lat="46.07151" lon="6.77727">
        <ele>1804.6</ele>
        <time>2026-06-26T09:00:18Z</time>
      </trkpt>
      <trkpt lat="46.07151" lon="6.77727">
        <ele>1804.8</ele>
        <time>2026-06-26T09:00:19Z</time>
      </trkpt>
      <trkpt lat="46.07152" lon="6.77728">
        <ele>1804.9</ele>
        <time>2026-06-26T09:00:20Z</time>
      </trkpt>
      <trkpt lat="46.07153" lon="6.77728">
        <ele>1805</ele>
        <time>2026-06-26T09:00:21Z</time>
      </trkpt>
      <trkpt lat="46.07153" lon="6.77728">
        <ele>1805.1</ele>
        <time>2026-06-26T09:00:22Z</time>
      </trkpt>
      <trkpt lat="46.07154" lon="6.77728">
        <ele>1805.2</ele>
        <time>2026-06-26T09:00:23Z</time>
      </trkpt>
      <trkpt lat="46.07155" lon="6.77728">
        <ele>1805.3</ele>
        <time>2026-06-26T09:00:24Z</time>
      </trkpt>
      <trkpt lat="46.07155" lon="6.77729">
        <ele>1805.3</ele>
        <time>2026-06-26T09:00:25Z</time>
      </trkpt>
      <trkpt lat="46.07156" lon="6.77729">
        <ele>1805.5</ele>
        <time>2026-06-26T09:00:26Z</time>
      </trkpt>
      <trkpt lat="46.07156" lon="6.77729">
        <ele>1805.6</ele>
        <time>2026-06-26T09:00:27Z</time>
      </trkpt>
      <trkpt lat="46.07157" lon="6.77729">
        <ele>1805.8</ele>
        <time>2026-06-26T09:00:28Z</time>
      </trkpt>
      <trkpt lat="46.07157" lon="6.77729">
        <ele>1806</ele>
        <time>2026-06-26T09:00:29Z</time>
      </trkpt>
      <trkpt lat="46.07158" lon="6.77729">
        <ele>1806.1</ele>
        <time>2026-06-26T09:00:30Z</time>
      </trkpt>
      <trkpt lat="46.07159" lon="6.77729">
        <ele>1806.2</ele>
        <time>2026-06-26T09:00:31Z</time>
      </trkpt>
      <trkpt lat="46.07159" lon="6.7773">
        <ele>1806.4</ele>
        <time>2026-06-26T09:00:32Z</time>
      </trkpt>
      <trkpt lat="46.0716" lon="6.7773">
        <ele>1806.5</ele>
        <time>2026-06-26T09:00:33Z</time>
      </trkpt>
      <trkpt lat="46.0716" lon="6.7773">
        <ele>1806.6</ele>
        <time>2026-06-26T09:00:34Z</time>
      </trkpt>
      <trkpt lat="46.0716" lon="6.7773">
        <ele>1806.8</ele>
        <time>2026-06-26T09:00:35Z</time>
      </trkpt>
      <trkpt lat="46.07161" lon="6.7773">
        <ele>1806.9</ele>
        <time>2026-06-26T09:00:36Z</time>
      </trkpt>
      <trkpt lat="46.07162" lon="6.7773">
        <ele>1807.1</ele>
        <time>2026-06-26T09:00:37Z</time>
      </trkpt>
      <trkpt lat="46.07162" lon="6.7773">
        <ele>1807.1</ele>
        <time>2026-06-26T09:00:38Z</time>
      </trkpt>
      <trkpt lat="46.07162" lon="6.7773">
        <ele>1807.3</ele>
        <time>2026-06-26T09:00:39Z</time>
      </trkpt>
      <trkpt lat="46.07163" lon="6.7773">
        <ele>1807.4</ele>
        <time>2026-06-26T09:00:40Z</time>
      </trkpt>
      <trkpt lat="46.07163" lon="6.77731">
        <ele>1807.5</ele>
        <time>2026-06-26T09:00:41Z</time>
      </trkpt>
      <trkpt lat="46.07163" lon="6.77731">
        <ele>1807.7</ele>
        <time>2026-06-26T09:00:42Z</time>
      </trkpt>
      <trkpt lat="46.07164" lon="6.77731">
        <ele>1807.9</ele>
        <time>2026-06-26T09:00:43Z</time>
      </trkpt>
      <trkpt lat="46.07164" lon="6.77731">
        <ele>1808</ele>
        <time>2026-06-26T09:00:44Z</time>
      </trkpt>
      <trkpt lat="46.07165" lon="6.77732">
        <ele>1808.1</ele>
        <time>2026-06-26T09:00:45Z</time>
      </trkpt>
      <trkpt lat="46.07165" lon="6.77732">
        <ele>1808.1</ele>
        <time>2026-06-26T09:00:46Z</time>
      </trkpt>
      <trkpt lat="46.07166" lon="6.77732">
        <ele>1808.2</ele>
        <time>2026-06-26T09:00:47Z</time>
      </trkpt>
      <trkpt lat="46.07166" lon="6.77732">
        <ele>1808.3</ele>
        <time>2026-06-26T09:00:48Z</time>
      </trkpt>
      <trkpt lat="46.07167" lon="6.77732">
        <ele>1808.4</ele>
        <time>2026-06-26T09:00:49Z</time>
      </trkpt>
      <trkpt lat="46.07167" lon="6.77733">
        <ele>1808.6</ele>
        <time>2026-06-26T09:00:50Z</time>
      </trkpt>
      <trkpt lat="46.07168" lon="6.77733">
        <ele>1808.7</ele>
        <time>2026-06-26T09:00:51Z</time>
      </trkpt>
      <trkpt lat="46.07168" lon="6.77733">
        <ele>1808.8</ele>
        <time>2026-06-26T09:00:52Z</time>
      </trkpt>
      <trkpt lat="46.07169" lon="6.77733">
        <ele>1808.9</ele>
        <time>2026-06-26T09:00:53Z</time>
      </trkpt>
      <trkpt lat="46.07169" lon="6.77733">
        <ele>1809</ele>
        <time>2026-06-26T09:00:54Z</time>
      </trkpt>
      <trkpt lat="46.07169" lon="6.77733">
        <ele>1809</ele>
        <time>2026-06-26T09:00:55Z</time>
      </trkpt>
      <trkpt lat="46.07169" lon="6.77733">
        <ele>1809.1</ele>
        <time>2026-06-26T09:00:56Z</time>
      </trkpt>
      <trkpt lat="46.07168" lon="6.77732">
        <ele>1809.1</ele>
        <time>2026-06-26T09:00:57Z</time>
      </trkpt>
      <trkpt lat="46.07168" lon="6.77733">
        <ele>1809.2</ele>
        <time>2026-06-26T09:00:58Z</time>
      </trkpt>
      <trkpt lat="46.07168" lon="6.77733">
        <ele>1809.4</ele>
        <time>2026-06-26T09:00:59Z</time>
      </trkpt>
      <trkpt lat="46.07168" lon="6.77733">
        <ele>1809.5</ele>
        <time>2026-06-26T09:01:00Z</time>
      </trkpt>
      <trkpt lat="46.07168" lon="6.77733">
        <ele>1809.7</ele>
        <time>2026-06-26T09:01:01Z</time>
      </trkpt>
      <trkpt lat="46.07168" lon="6.77733">
        <ele>1809.8</ele>
        <time>2026-06-26T09:01:02Z</time>
      </trkpt>
      <trkpt lat="46.07168" lon="6.77733">
        <ele>1810</ele>
        <time>2026-06-26T09:01:03Z</time>
      </trkpt>
      <trkpt lat="46.07168" lon="6.77732">
        <ele>1810</ele>
        <time>2026-06-26T09:01:04Z</time>
      </trkpt>
      <trkpt lat="46.07168" lon="6.77732">
        <ele>1810</ele>
        <time>2026-06-26T09:01:05Z</time>
      </trkpt>
      <trkpt lat="46.07168" lon="6.77732">
        <ele>1810.1</ele>
        <time>2026-06-26T09:01:06Z</time>
      </trkpt>
      <trkpt lat="46.07167" lon="6.77732">
        <ele>1810.3</ele>
        <time>2026-06-26T09:01:07Z</time>
      </trkpt>
      <trkpt lat="46.07167" lon="6.77732">
        <ele>1810.4</ele>
        <time>2026-06-26T09:01:08Z</time>
      </trkpt>
      <trkpt lat="46.07168" lon="6.77732">
        <ele>1810.5</ele>
        <time>2026-06-26T09:01:09Z</time>
      </trkpt>
      <trkpt lat="46.07168" lon="6.77732">
        <ele>1810.7</ele>
        <time>2026-06-26T09:01:10Z</time>
      </trkpt>
      <trkpt lat="46.07168" lon="6.77732">
        <ele>1810.8</ele>
        <time>2026-06-26T09:01:11Z</time>
      </trkpt>
      <trkpt lat="46.07168" lon="6.77732">
        <ele>1810.9</ele>
        <time>2026-06-26T09:01:12Z</time>
      </trkpt>
      <trkpt lat="46.07168" lon="6.77732">
        <ele>1810.8</ele>
        <time>2026-06-26T09:01:13Z</time>
      </trkpt>
      <trkpt lat="46.07168" lon="6.77732">
        <ele>1810.8</ele>
        <time>2026-06-26T09:01:14Z</time>
      </trkpt>
      <trkpt lat="46.07168" lon="6.77732">
        <ele>1810.8</ele>
        <time>2026-06-26T09:01:15Z</time>
      </trkpt>
      <trkpt lat="46.07168" lon="6.77732">
        <ele>1810.8</ele>
        <time>2026-06-26T09:01:16Z</time>
      </trkpt>
      <trkpt lat="46.07168" lon="6.77733">
        <ele>1810.8</ele>
        <time>2026-06-26T09:01:17Z</time>
      </trkpt>
      <trkpt lat="46.07168" lon="6.77733">
        <ele>1810.8</ele>
        <time>2026-06-26T09:01:18Z</time>
      </trkpt>
      <trkpt lat="46.07167" lon="6.77734">
        <ele>1810.9</ele>
        <time>2026-06-26T09:01:19Z</time>
      </trkpt>
      <trkpt lat="46.07167" lon="6.77734">
        <ele>1811</ele>
        <time>2026-06-26T09:01:20Z</time>
      </trkpt>
      <trkpt lat="46.07167" lon="6.77735">
        <ele>1811.2</ele>
        <time>2026-06-26T09:01:21Z</time>
      </trkpt>
      <trkpt lat="46.07166" lon="6.77735">
        <ele>1811.4</ele>
        <time>2026-06-26T09:01:22Z</time>
      </trkpt>
      <trkpt lat="46.07165" lon="6.77735">
        <ele>1811.6</ele>
        <time>2026-06-26T09:01:23Z</time>
      </trkpt>
      <trkpt lat="46.07165" lon="6.77735">
        <ele>1811.8</ele>
        <time>2026-06-26T09:01:24Z</time>
      </trkpt>
      <trkpt lat="46.07164" lon="6.77736">
        <ele>1811.9</ele>
        <time>2026-06-26T09:01:25Z</time>
      </trkpt>
      <trkpt lat="46.07164" lon="6.77736">
        <ele>1812</ele>
        <time>2026-06-26T09:01:26Z</time>
      </trkpt>
      <trkpt lat="46.07163" lon="6.77736">
        <ele>1812.2</ele>
        <time>2026-06-26T09:01:27Z</time>
      </trkpt>
      <trkpt lat="46.07163" lon="6.77736">
        <ele>1812.3</ele>
        <time>2026-06-26T09:01:28Z</time>
      </trkpt>
      <trkpt lat="46.07163" lon="6.77736">
        <ele>1812.3</ele>
        <time>2026-06-26T09:01:29Z</time>
      </trkpt>
      <trkpt lat="46.07163" lon="6.77737">
        <ele>1812.4</ele>
        <time>2026-06-26T09:01:30Z</time>
      </trkpt>
      <trkpt lat="46.07163" lon="6.77737">
        <ele>1812.5</ele>
        <time>2026-06-26T09:01:31Z</time>
      </trkpt>
      <trkpt lat="46.07162" lon="6.77737">
        <ele>1812.6</ele>
        <time>2026-06-26T09:01:32Z</time>
      </trkpt>
      <trkpt lat="46.07162" lon="6.77738">
        <ele>1812.6</ele>
        <time>2026-06-26T09:01:33Z</time>
      </trkpt>
      <trkpt lat="46.07161" lon="6.77739">
        <ele>1812.7</ele>
        <time>2026-06-26T09:01:34Z</time>
      </trkpt>
      <trkpt lat="46.07161" lon="6.77739">
        <ele>1812.8</ele>
        <time>2026-06-26T09:01:35Z</time>
      </trkpt>
      <trkpt lat="46.0716" lon="6.7774">
        <ele>1813</ele>
        <time>2026-06-26T09:01:36Z</time>
      </trkpt>
      <trkpt lat="46.0716" lon="6.7774">
        <ele>1813.1</ele>
        <time>2026-06-26T09:01:37Z</time>
      </trkpt>
      <trkpt lat="46.07159" lon="6.77741">
        <ele>1813.2</ele>
        <time>2026-06-26T09:01:38Z</time>
      </trkpt>
      <trkpt lat="46.07159" lon="6.77741">
        <ele>1813.4</ele>
        <time>2026-06-26T09:01:39Z</time>
      </trkpt>
      <trkpt lat="46.07158" lon="6.77742">
        <ele>1813.6</ele>
        <time>2026-06-26T09:01:40Z</time>
      </trkpt>
      <trkpt lat="46.07157" lon="6.77743">
        <ele>1813.6</ele>
        <time>2026-06-26T09:01:41Z</time>
      </trkpt>
      <trkpt lat="46.07157" lon="6.77744">
        <ele>1813.5</ele>
        <time>2026-06-26T09:01:42Z</time>
      </trkpt>
      <trkpt lat="46.07156" lon="6.77745">
        <ele>1813.7</ele>
        <time>2026-06-26T09:01:43Z</time>
      </trkpt>
      <trkpt lat="46.07156" lon="6.77745">
        <ele>1813.8</ele>
        <time>2026-06-26T09:01:44Z</time>
      </trkpt>
      <trkpt lat="46.07156" lon="6.77746">
        <ele>1813.9</ele>
        <time>2026-06-26T09:01:45Z</time>
      </trkpt>
      <trkpt lat="46.07156" lon="6.77747">
        <ele>1814</ele>
        <time>2026-06-26T09:01:46Z</time>
      </trkpt>
      <trkpt lat="46.07155" lon="6.77747">
        <ele>1814.2</ele>
        <time>2026-06-26T09:01:47Z</time>
      </trkpt>
      <trkpt lat="46.07155" lon="6.77748">
        <ele>1814.3</ele>
        <time>2026-06-26T09:01:48Z</time>
      </trkpt>
      <trkpt lat="46.07155" lon="6.77748">
        <ele>1814.4</ele>
        <time>2026-06-26T09:01:49Z</time>
      </trkpt>
      <trkpt lat="46.07155" lon="6.77748">
        <ele>1814.5</ele>
        <time>2026-06-26T09:01:50Z</time>
      </trkpt>
      <trkpt lat="46.07154" lon="6.77749">
        <ele>1814.5</ele>
        <time>2026-06-26T09:01:51Z</time>
      </trkpt>
      <trkpt lat="46.07154" lon="6.77749">
        <ele>1814.6</ele>
        <time>2026-06-26T09:01:52Z</time>
      </trkpt>
      <trkpt lat="46.07153" lon="6.7775">
        <ele>1814.9</ele>
        <time>2026-06-26T09:01:53Z</time>
      </trkpt>
      <trkpt lat="46.07153" lon="6.77751">
        <ele>1815.1</ele>
        <time>2026-06-26T09:01:54Z</time>
      </trkpt>
      <trkpt lat="46.07153" lon="6.77751">
        <ele>1815.3</ele>
        <time>2026-06-26T09:01:55Z</time>
      </trkpt>
      <trkpt lat="46.07152" lon="6.77752">
        <ele>1815.4</ele>
        <time>2026-06-26T09:01:56Z</time>
      </trkpt>
      <trkpt lat="46.07152" lon="6.77752">
        <ele>1815.6</ele>
        <time>2026-06-26T09:01:57Z</time>
      </trkpt>
      <trkpt lat="46.07151" lon="6.77753">
        <ele>1815.7</ele>
        <time>2026-06-26T09:01:58Z</time>
      </trkpt>
      <trkpt lat="46.07151" lon="6.77753">
        <ele>1815.8</ele>
        <time>2026-06-26T09:01:59Z</time>
      </trkpt>
      <trkpt lat="46.07151" lon="6.77754">
        <ele>1815.9</ele>
        <time>2026-06-26T09:02:00Z</time>
      </trkpt>
      <trkpt lat="46.07151" lon="6.77754">
        <ele>1816</ele>
        <time>2026-06-26T09:02:01Z</time>
      </trkpt>
      <trkpt lat="46.0715" lon="6.77755">
        <ele>1816.1</ele>
        <time>2026-06-26T09:02:02Z</time>
      </trkpt>
      <trkpt lat="46.0715" lon="6.77755">
        <ele>1816.3</ele>
        <time>2026-06-26T09:02:03Z</time>
      </trkpt>
      <trkpt lat="46.07149" lon="6.77755">
        <ele>1816.5</ele>
        <time>2026-06-26T09:02:04Z</time>
      </trkpt>
      <trkpt lat="46.07149" lon="6.77756">
        <ele>1816.6</ele>
        <time>2026-06-26T09:02:05Z</time>
      </trkpt>
      <trkpt lat="46.07149" lon="6.77756">
        <ele>1816.7</ele>
        <time>2026-06-26T09:02:06Z</time>
      </trkpt>
      <trkpt lat="46.07149" lon="6.77757">
        <ele>1816.8</ele>
        <time>2026-06-26T09:02:07Z</time>
      </trkpt>
      <trkpt lat="46.07149" lon="6.77757">
        <ele>1816.8</ele>
        <time>2026-06-26T09:02:08Z</time>
      </trkpt>
      <trkpt lat="46.07148" lon="6.77758">
        <ele>1816.9</ele>
        <time>2026-06-26T09:02:09Z</time>
      </trkpt>
      <trkpt lat="46.07148" lon="6.77759">
        <ele>1817.1</ele>
        <time>2026-06-26T09:02:10Z</time>
      </trkpt>
      <trkpt lat="46.07148" lon="6.7776">
        <ele>1817.3</ele>
        <time>2026-06-26T09:02:11Z</time>
      </trkpt>
      <trkpt lat="46.07149" lon="6.77761">
        <ele>1817.5</ele>
        <time>2026-06-26T09:02:12Z</time>
      </trkpt>
      <trkpt lat="46.07149" lon="6.77761">
        <ele>1817.6</ele>
        <time>2026-06-26T09:02:13Z</time>
      </trkpt>
      <trkpt lat="46.07149" lon="6.77762">
        <ele>1817.7</ele>
        <time>2026-06-26T09:02:14Z</time>
      </trkpt>
      <trkpt lat="46.07149" lon="6.77762">
        <ele>1817.7</ele>
        <time>2026-06-26T09:02:15Z</time>
      </trkpt>
      <trkpt lat="46.07149" lon="6.77762">
        <ele>1817.8</ele>
        <time>2026-06-26T09:02:16Z</time>
      </trkpt>
      <trkpt lat="46.0715" lon="6.77763">
        <ele>1818</ele>
        <time>2026-06-26T09:02:17Z</time>
      </trkpt>
      <trkpt lat="46.0715" lon="6.77763">
        <ele>1818.2</ele>
        <time>2026-06-26T09:02:18Z</time>
      </trkpt>
      <trkpt lat="46.0715" lon="6.77764">
        <ele>1818.3</ele>
        <time>2026-06-26T09:02:19Z</time>
      </trkpt>
      <trkpt lat="46.0715" lon="6.77764">
        <ele>1818.4</ele>
        <time>2026-06-26T09:02:20Z</time>
      </trkpt>
      <trkpt lat="46.07151" lon="6.77765">
        <ele>1818.6</ele>
        <time>2026-06-26T09:02:21Z</time>
      </trkpt>
      <trkpt lat="46.07151" lon="6.77765">
        <ele>1818.6</ele>
        <time>2026-06-26T09:02:22Z</time>
      </trkpt>
      <trkpt lat="46.07151" lon="6.77765">
        <ele>1818.8</ele>
        <time>2026-06-26T09:02:23Z</time>
      </trkpt>
      <trkpt lat="46.07152" lon="6.77765">
        <ele>1819</ele>
        <time>2026-06-26T09:02:24Z</time>
      </trkpt>
      <trkpt lat="46.07152" lon="6.77765">
        <ele>1819.1</ele>
        <time>2026-06-26T09:02:25Z</time>
      </trkpt>
      <trkpt lat="46.07153" lon="6.77766">
        <ele>1819.2</ele>
        <time>2026-06-26T09:02:26Z</time>
      </trkpt>
      <trkpt lat="46.07153" lon="6.77766">
        <ele>1819.3</ele>
        <time>2026-06-26T09:02:27Z</time>
      </trkpt>
      <trkpt lat="46.07153" lon="6.77766">
        <ele>1819.4</ele>
        <time>2026-06-26T09:02:28Z</time>
      </trkpt>
      <trkpt lat="46.07154" lon="6.77767">
        <ele>1819.5</ele>
        <time>2026-06-26T09:02:29Z</time>
      </trkpt>
      <trkpt lat="46.07154" lon="6.77767">
        <ele>1819.6</ele>
        <time>2026-06-26T09:02:30Z</time>
      </trkpt>
      <trkpt lat="46.07154" lon="6.77767">
        <ele>1819.7</ele>
        <time>2026-06-26T09:02:31Z</time>
      </trkpt>
      <trkpt lat="46.07155" lon="6.77768">
        <ele>1819.8</ele>
        <time>2026-06-26T09:02:32Z</time>
      </trkpt>
      <trkpt lat="46.07155" lon="6.77768">
        <ele>1819.9</ele>
        <time>2026-06-26T09:02:33Z</time>
      </trkpt>
      <trkpt lat="46.07155" lon="6.77769">
        <ele>1819.9</ele>
        <time>2026-06-26T09:02:34Z</time>
      </trkpt>
      <trkpt lat="46.07155" lon="6.7777">
        <ele>1820</ele>
        <time>2026-06-26T09:02:35Z</time>
      </trkpt>
      <trkpt lat="46.07155" lon="6.7777">
        <ele>1820.1</ele>
        <time>2026-06-26T09:02:36Z</time>
      </trkpt>
      <trkpt lat="46.07155" lon="6.7777">
        <ele>1820.2</ele>
        <time>2026-06-26T09:02:37Z</time>
      </trkpt>
      <trkpt lat="46.07155" lon="6.77771">
        <ele>1820.2</ele>
        <time>2026-06-26T09:02:38Z</time>
      </trkpt>
      <trkpt lat="46.07155" lon="6.77771">
        <ele>1820.3</ele>
        <time>2026-06-26T09:02:39Z</time>
      </trkpt>
      <trkpt lat="46.07156" lon="6.77771">
        <ele>1820.3</ele>
        <time>2026-06-26T09:02:40Z</time>
      </trkpt>
      <trkpt lat="46.07156" lon="6.77771">
        <ele>1820.4</ele>
        <time>2026-06-26T09:02:41Z</time>
      </trkpt>
      <trkpt lat="46.07155" lon="6.77772">
        <ele>1820.5</ele>
        <time>2026-06-26T09:02:42Z</time>
      </trkpt>
      <trkpt lat="46.07156" lon="6.77772">
        <ele>1820.6</ele>
        <time>2026-06-26T09:02:43Z</time>
      </trkpt>
      <trkpt lat="46.07156" lon="6.77772">
        <ele>1820.7</ele>
        <time>2026-06-26T09:02:44Z</time>
      </trkpt>
      <trkpt lat="46.07156" lon="6.77773">
        <ele>1820.9</ele>
        <time>2026-06-26T09:02:45Z</time>
      </trkpt>
      <trkpt lat="46.07157" lon="6.77773">
        <ele>1821</ele>
        <time>2026-06-26T09:02:46Z</time>
      </trkpt>
      <trkpt lat="46.07157" lon="6.77773">
        <ele>1821.1</ele>
        <time>2026-06-26T09:02:47Z</time>
      </trkpt>
      <trkpt lat="46.07157" lon="6.77773">
        <ele>1821.3</ele>
        <time>2026-06-26T09:02:48Z</time>
      </trkpt>
      <trkpt lat="46.07157" lon="6.77774">
        <ele>1821.4</ele>
        <time>2026-06-26T09:02:49Z</time>
      </trkpt>
      <trkpt lat="46.07157" lon="6.77774">
        <ele>1821.5</ele>
        <time>2026-06-26T09:02:50Z</time>
      </trkpt>
      <trkpt lat="46.07157" lon="6.77774">
        <ele>1821.6</ele>
        <time>2026-06-26T09:02:51Z</time>
      </trkpt>
      <trkpt lat="46.07157" lon="6.77774">
        <ele>1821.7</ele>
        <time>2026-06-26T09:02:52Z</time>
      </trkpt>
      <trkpt lat="46.07157" lon="6.77774">
        <ele>1821.8</ele>
        <time>2026-06-26T09:02:53Z</time>
      </trkpt>
      <trkpt lat="46.07157" lon="6.77775">
        <ele>1821.8</ele>
        <time>2026-06-26T09:02:54Z</time>
      </trkpt>
      <trkpt lat="46.07158" lon="6.77775">
        <ele>1821.9</ele>
        <time>2026-06-26T09:02:55Z</time>
      </trkpt>
      <trkpt lat="46.07158" lon="6.77776">
        <ele>1821.9</ele>
        <time>2026-06-26T09:02:56Z</time>
      </trkpt>
      <trkpt lat="46.07158" lon="6.77777">
        <ele>1822</ele>
        <time>2026-06-26T09:02:57Z</time>
      </trkpt>
      <trkpt lat="46.07158" lon="6.77777">
        <ele>1822.1</ele>
        <time>2026-06-26T09:02:58Z</time>
      </trkpt>
      <trkpt lat="46.07158" lon="6.77778">
        <ele>1822.3</ele>
        <time>2026-06-26T09:02:59Z</time>
      </trkpt>
      <trkpt lat="46.07158" lon="6.77778">
        <ele>1822.4</ele>
        <time>2026-06-26T09:03:00Z</time>
      </trkpt>
      <trkpt lat="46.07158" lon="6.77779">
        <ele>1822.6</ele>
        <time>2026-06-26T09:03:01Z</time>
      </trkpt>
      <trkpt lat="46.07158" lon="6.7778">
        <ele>1822.9</ele>
        <time>2026-06-26T09:03:02Z</time>
      </trkpt>
      <trkpt lat="46.07159" lon="6.77781">
        <ele>1823.1</ele>
        <time>2026-06-26T09:03:03Z</time>
      </trkpt>
      <trkpt lat="46.07159" lon="6.77781">
        <ele>1823.3</ele>
        <time>2026-06-26T09:03:04Z</time>
      </trkpt>
      <trkpt lat="46.07159" lon="6.77782">
        <ele>1823.4</ele>
        <time>2026-06-26T09:03:05Z</time>
      </trkpt>
      <trkpt lat="46.07159" lon="6.77783">
        <ele>1823.6</ele>
        <time>2026-06-26T09:03:06Z</time>
      </trkpt>
      <trkpt lat="46.07159" lon="6.77784">
        <ele>1823.6</ele>
        <time>2026-06-26T09:03:07Z</time>
      </trkpt>
      <trkpt lat="46.0716" lon="6.77785">
        <ele>1823.8</ele>
        <time>2026-06-26T09:03:08Z</time>
      </trkpt>
      <trkpt lat="46.0716" lon="6.77786">
        <ele>1824</ele>
        <time>2026-06-26T09:03:09Z</time>
      </trkpt>
      <trkpt lat="46.0716" lon="6.77786">
        <ele>1824.2</ele>
        <time>2026-06-26T09:03:10Z</time>
      </trkpt>
      <trkpt lat="46.0716" lon="6.77788">
        <ele>1824.4</ele>
        <time>2026-06-26T09:03:11Z</time>
      </trkpt>
      <trkpt lat="46.0716" lon="6.77789">
        <ele>1824.6</ele>
        <time>2026-06-26T09:03:12Z</time>
      </trkpt>
      <trkpt lat="46.07161" lon="6.77789">
        <ele>1824.8</ele>
        <time>2026-06-26T09:03:13Z</time>
      </trkpt>
      <trkpt lat="46.07161" lon="6.7779">
        <ele>1825</ele>
        <time>2026-06-26T09:03:14Z</time>
      </trkpt>
      <trkpt lat="46.07162" lon="6.7779">
        <ele>1825.2</ele>
        <time>2026-06-26T09:03:15Z</time>
      </trkpt>
      <trkpt lat="46.07162" lon="6.77791">
        <ele>1825.5</ele>
        <time>2026-06-26T09:03:16Z</time>
      </trkpt>
      <trkpt lat="46.07162" lon="6.77792">
        <ele>1825.9</ele>
        <time>2026-06-26T09:03:17Z</time>
      </trkpt>
      <trkpt lat="46.07163" lon="6.77793">
        <ele>1826.1</ele>
        <time>2026-06-26T09:03:18Z</time>
      </trkpt>
      <trkpt lat="46.07163" lon="6.77793">
        <ele>1826.3</ele>
        <time>2026-06-26T09:03:19Z</time>
      </trkpt>
      <trkpt lat="46.07163" lon="6.77794">
        <ele>1826.6</ele>
        <time>2026-06-26T09:03:20Z</time>
      </trkpt>
      <trkpt lat="46.07163" lon="6.77794">
        <ele>1826.8</ele>
        <time>2026-06-26T09:03:21Z</time>
      </trkpt>
      <trkpt lat="46.07163" lon="6.77794">
        <ele>1827.1</ele>
        <time>2026-06-26T09:03:22Z</time>
      </trkpt>
      <trkpt lat="46.07163" lon="6.77795">
        <ele>1827.3</ele>
        <time>2026-06-26T09:03:23Z</time>
      </trkpt>
      <trkpt lat="46.07164" lon="6.77795">
        <ele>1827.5</ele>
        <time>2026-06-26T09:03:24Z</time>
      </trkpt>
      <trkpt lat="46.07164" lon="6.77796">
        <ele>1827.7</ele>
        <time>2026-06-26T09:03:25Z</time>
      </trkpt>
      <trkpt lat="46.07165" lon="6.77797">
        <ele>1827.9</ele>
        <time>2026-06-26T09:03:26Z</time>
      </trkpt>
      <trkpt lat="46.07165" lon="6.77797">
        <ele>1828.1</ele>
        <time>2026-06-26T09:03:27Z</time>
      </trkpt>
      <trkpt lat="46.07166" lon="6.77798">
        <ele>1828.4</ele>
        <time>2026-06-26T09:03:28Z</time>
      </trkpt>
      <trkpt lat="46.07166" lon="6.77798">
        <ele>1828.6</ele>
        <time>2026-06-26T09:03:29Z</time>
      </trkpt>
      <trkpt lat="46.07167" lon="6.77799">
        <ele>1828.7</ele>
        <time>2026-06-26T09:03:30Z</time>
      </trkpt>
      <trkpt lat="46.07168" lon="6.77798">
        <ele>1829</ele>
        <time>2026-06-26T09:03:31Z</time>
      </trkpt>
      <trkpt lat="46.07169" lon="6.77799">
        <ele>1829.1</ele>
        <time>2026-06-26T09:03:32Z</time>
      </trkpt>
      <trkpt lat="46.0717" lon="6.77799">
        <ele>1829.3</ele>
        <time>2026-06-26T09:03:33Z</time>
      </trkpt>
      <trkpt lat="46.0717" lon="6.77799">
        <ele>1829.5</ele>
        <time>2026-06-26T09:03:34Z</time>
      </trkpt>
      <trkpt lat="46.07171" lon="6.77799">
        <ele>1829.6</ele>
        <time>2026-06-26T09:03:35Z</time>
      </trkpt>
      <trkpt lat="46.07172" lon="6.77798">
        <ele>1829.7</ele>
        <time>2026-06-26T09:03:36Z</time>
      </trkpt>
      <trkpt lat="46.07173" lon="6.77798">
        <ele>1829.7</ele>
        <time>2026-06-26T09:03:37Z</time>
      </trkpt>
      <trkpt lat="46.07173" lon="6.77798">
        <ele>1829.8</ele>
        <time>2026-06-26T09:03:38Z</time>
      </trkpt>
      <trkpt lat="46.07174" lon="6.77799">
        <ele>1829.8</ele>
        <time>2026-06-26T09:03:39Z</time>
      </trkpt>
      <trkpt lat="46.07174" lon="6.778">
        <ele>1830</ele>
        <time>2026-06-26T09:03:40Z</time>
      </trkpt>
      <trkpt lat="46.07175" lon="6.77801">
        <ele>1830.1</ele>
        <time>2026-06-26T09:03:41Z</time>
      </trkpt>
      <trkpt lat="46.07175" lon="6.77801">
        <ele>1830.1</ele>
        <time>2026-06-26T09:03:42Z</time>
      </trkpt>
      <trkpt lat="46.07176" lon="6.77802">
        <ele>1830.2</ele>
        <time>2026-06-26T09:03:43Z</time>
      </trkpt>
      <trkpt lat="46.07176" lon="6.77803">
        <ele>1830.3</ele>
        <time>2026-06-26T09:03:44Z</time>
      </trkpt>
      <trkpt lat="46.07177" lon="6.77804">
        <ele>1830.5</ele>
        <time>2026-06-26T09:03:45Z</time>
      </trkpt>
      <trkpt lat="46.07177" lon="6.77804">
        <ele>1830.6</ele>
        <time>2026-06-26T09:03:46Z</time>
      </trkpt>
      <trkpt lat="46.07177" lon="6.77805">
        <ele>1830.9</ele>
        <time>2026-06-26T09:03:47Z</time>
      </trkpt>
      <trkpt lat="46.07178" lon="6.77806">
        <ele>1831.1</ele>
        <time>2026-06-26T09:03:48Z</time>
      </trkpt>
      <trkpt lat="46.07178" lon="6.77806">
        <ele>1831.3</ele>
        <time>2026-06-26T09:03:49Z</time>
      </trkpt>
      <trkpt lat="46.07179" lon="6.77807">
        <ele>1831.4</ele>
        <time>2026-06-26T09:03:50Z</time>
      </trkpt>
      <trkpt lat="46.07179" lon="6.77807">
        <ele>1831.6</ele>
        <time>2026-06-26T09:03:51Z</time>
      </trkpt>
      <trkpt lat="46.0718" lon="6.77807">
        <ele>1831.7</ele>
        <time>2026-06-26T09:03:52Z</time>
      </trkpt>
      <trkpt lat="46.0718" lon="6.77808">
        <ele>1831.8</ele>
        <time>2026-06-26T09:03:53Z</time>
      </trkpt>
      <trkpt lat="46.0718" lon="6.77809">
        <ele>1832</ele>
        <time>2026-06-26T09:03:54Z</time>
      </trkpt>
      <trkpt lat="46.07181" lon="6.77809">
        <ele>1832.2</ele>
        <time>2026-06-26T09:03:55Z</time>
      </trkpt>
      <trkpt lat="46.07181" lon="6.7781">
        <ele>1832.3</ele>
        <time>2026-06-26T09:03:56Z</time>
      </trkpt>
      <trkpt lat="46.07182" lon="6.7781">
        <ele>1832.5</ele>
        <time>2026-06-26T09:03:57Z</time>
      </trkpt>
      <trkpt lat="46.07182" lon="6.77811">
        <ele>1832.7</ele>
        <time>2026-06-26T09:03:58Z</time>
      </trkpt>
      <trkpt lat="46.07183" lon="6.77811">
        <ele>1832.9</ele>
        <time>2026-06-26T09:03:59Z</time>
      </trkpt>
      <trkpt lat="46.07183" lon="6.77812">
        <ele>1833</ele>
        <time>2026-06-26T09:04:00Z</time>
      </trkpt>
      <trkpt lat="46.07184" lon="6.77812">
        <ele>1833.2</ele>
        <time>2026-06-26T09:04:01Z</time>
      </trkpt>
      <trkpt lat="46.07184" lon="6.77813">
        <ele>1833.4</ele>
        <time>2026-06-26T09:04:02Z</time>
      </trkpt>
      <trkpt lat="46.07184" lon="6.77813">
        <ele>1833.5</ele>
        <time>2026-06-26T09:04:03Z</time>
      </trkpt>
      <trkpt lat="46.07185" lon="6.77814">
        <ele>1833.7</ele>
        <time>2026-06-26T09:04:04Z</time>
      </trkpt>
      <trkpt lat="46.07185" lon="6.77814">
        <ele>1833.9</ele>
        <time>2026-06-26T09:04:05Z</time>
      </trkpt>
      <trkpt lat="46.07186" lon="6.77815">
        <ele>1834.1</ele>
        <time>2026-06-26T09:04:06Z</time>
      </trkpt>
      <trkpt lat="46.07186" lon="6.77815">
        <ele>1834.2</ele>
        <time>2026-06-26T09:04:07Z</time>
      </trkpt>
      <trkpt lat="46.07187" lon="6.77816">
        <ele>1834.3</ele>
        <time>2026-06-26T09:04:08Z</time>
      </trkpt>
      <trkpt lat="46.07187" lon="6.77817">
        <ele>1834.5</ele>
        <time>2026-06-26T09:04:09Z</time>
      </trkpt>
      <trkpt lat="46.07188" lon="6.77818">
        <ele>1834.4</ele>
        <time>2026-06-26T09:04:10Z</time>
      </trkpt>
      <trkpt lat="46.07188" lon="6.77818">
        <ele>1834.5</ele>
        <time>2026-06-26T09:04:11Z</time>
      </trkpt>
      <trkpt lat="46.07189" lon="6.77819">
        <ele>1834.7</ele>
        <time>2026-06-26T09:04:12Z</time>
      </trkpt>
      <trkpt lat="46.07189" lon="6.77819">
        <ele>1834.8</ele>
        <time>2026-06-26T09:04:13Z</time>
      </trkpt>
      <trkpt lat="46.0719" lon="6.7782">
        <ele>1835</ele>
        <time>2026-06-26T09:04:14Z</time>
      </trkpt>
      <trkpt lat="46.0719" lon="6.77821">
        <ele>1835.1</ele>
        <time>2026-06-26T09:04:15Z</time>
      </trkpt>
      <trkpt lat="46.0719" lon="6.77821">
        <ele>1835.3</ele>
        <time>2026-06-26T09:04:16Z</time>
      </trkpt>
      <trkpt lat="46.0719" lon="6.77822">
        <ele>1835.5</ele>
        <time>2026-06-26T09:04:17Z</time>
      </trkpt>
      <trkpt lat="46.07191" lon="6.77823">
        <ele>1835.8</ele>
        <time>2026-06-26T09:04:18Z</time>
      </trkpt>
      <trkpt lat="46.07191" lon="6.77823">
        <ele>1836</ele>
        <time>2026-06-26T09:04:19Z</time>
      </trkpt>
      <trkpt lat="46.07191" lon="6.77824">
        <ele>1836.2</ele>
        <time>2026-06-26T09:04:20Z</time>
      </trkpt>
      <trkpt lat="46.07192" lon="6.77824">
        <ele>1836.4</ele>
        <time>2026-06-26T09:04:21Z</time>
      </trkpt>
      <trkpt lat="46.07192" lon="6.77825">
        <ele>1836.6</ele>
        <time>2026-06-26T09:04:22Z</time>
      </trkpt>
      <trkpt lat="46.07193" lon="6.77826">
        <ele>1836.8</ele>
        <time>2026-06-26T09:04:23Z</time>
      </trkpt>
      <trkpt lat="46.07193" lon="6.77826">
        <ele>1836.9</ele>
        <time>2026-06-26T09:04:24Z</time>
      </trkpt>
      <trkpt lat="46.07194" lon="6.77826">
        <ele>1837.1</ele>
        <time>2026-06-26T09:04:25Z</time>
      </trkpt>
      <trkpt lat="46.07194" lon="6.77827">
        <ele>1837.2</ele>
        <time>2026-06-26T09:04:26Z</time>
      </trkpt>
      <trkpt lat="46.07194" lon="6.77828">
        <ele>1837.4</ele>
        <time>2026-06-26T09:04:27Z</time>
      </trkpt>
      <trkpt lat="46.07195" lon="6.77828">
        <ele>1837.6</ele>
        <time>2026-06-26T09:04:28Z</time>
      </trkpt>
      <trkpt lat="46.07195" lon="6.77829">
        <ele>1837.7</ele>
        <time>2026-06-26T09:04:29Z</time>
      </trkpt>
      <trkpt lat="46.07195" lon="6.77829">
        <ele>1837.8</ele>
        <time>2026-06-26T09:04:30Z</time>
      </trkpt>
      <trkpt lat="46.07196" lon="6.7783">
        <ele>1837.9</ele>
        <time>2026-06-26T09:04:31Z</time>
      </trkpt>
      <trkpt lat="46.07196" lon="6.7783">
        <ele>1838.1</ele>
        <time>2026-06-26T09:04:32Z</time>
      </trkpt>
      <trkpt lat="46.07197" lon="6.77831">
        <ele>1838.3</ele>
        <time>2026-06-26T09:04:33Z</time>
      </trkpt>
      <trkpt lat="46.07197" lon="6.77832">
        <ele>1838.5</ele>
        <time>2026-06-26T09:04:34Z</time>
      </trkpt>
      <trkpt lat="46.07197" lon="6.77832">
        <ele>1838.7</ele>
        <time>2026-06-26T09:04:35Z</time>
      </trkpt>
      <trkpt lat="46.07198" lon="6.77833">
        <ele>1838.9</ele>
        <time>2026-06-26T09:04:36Z</time>
      </trkpt>
      <trkpt lat="46.07198" lon="6.77833">
        <ele>1839.2</ele>
        <time>2026-06-26T09:04:37Z</time>
      </trkpt>
      <trkpt lat="46.07198" lon="6.77834">
        <ele>1839.4</ele>
        <time>2026-06-26T09:04:38Z</time>
      </trkpt>
      <trkpt lat="46.07199" lon="6.77834">
        <ele>1839.6</ele>
        <time>2026-06-26T09:04:39Z</time>
      </trkpt>
      <trkpt lat="46.07199" lon="6.77835">
        <ele>1839.8</ele>
        <time>2026-06-26T09:04:40Z</time>
      </trkpt>
      <trkpt lat="46.072" lon="6.77835">
        <ele>1840</ele>
        <time>2026-06-26T09:04:41Z</time>
      </trkpt>
      <trkpt lat="46.072" lon="6.77835">
        <ele>1840.1</ele>
        <time>2026-06-26T09:04:42Z</time>
      </trkpt>
      <trkpt lat="46.07201" lon="6.77835">
        <ele>1840.3</ele>
        <time>2026-06-26T09:04:43Z</time>
      </trkpt>
      <trkpt lat="46.07202" lon="6.77835">
        <ele>1840.4</ele>
        <time>2026-06-26T09:04:44Z</time>
      </trkpt>
      <trkpt lat="46.07202" lon="6.77835">
        <ele>1840.6</ele>
        <time>2026-06-26T09:04:45Z</time>
      </trkpt>
      <trkpt lat="46.07203" lon="6.77835">
        <ele>1840.8</ele>
        <time>2026-06-26T09:04:46Z</time>
      </trkpt>
      <trkpt lat="46.07203" lon="6.77835">
        <ele>1840.9</ele>
        <time>2026-06-26T09:04:47Z</time>
      </trkpt>
      <trkpt lat="46.07204" lon="6.77834">
        <ele>1841.1</ele>
        <time>2026-06-26T09:04:48Z</time>
      </trkpt>
      <trkpt lat="46.07205" lon="6.77834">
        <ele>1841.3</ele>
        <time>2026-06-26T09:04:49Z</time>
      </trkpt>
      <trkpt lat="46.07205" lon="6.77835">
        <ele>1841.5</ele>
        <time>2026-06-26T09:04:50Z</time>
      </trkpt>
      <trkpt lat="46.07205" lon="6.77835">
        <ele>1841.8</ele>
        <time>2026-06-26T09:04:51Z</time>
      </trkpt>
      <trkpt lat="46.07206" lon="6.77836">
        <ele>1841.8</ele>
        <time>2026-06-26T09:04:52Z</time>
      </trkpt>
      <trkpt lat="46.07206" lon="6.77836">
        <ele>1841.9</ele>
        <time>2026-06-26T09:04:53Z</time>
      </trkpt>
      <trkpt lat="46.07207" lon="6.77836">
        <ele>1842.1</ele>
        <time>2026-06-26T09:04:54Z</time>
      </trkpt>
      <trkpt lat="46.07208" lon="6.77837">
        <ele>1842.2</ele>
        <time>2026-06-26T09:04:55Z</time>
      </trkpt>
      <trkpt lat="46.07208" lon="6.77837">
        <ele>1842.3</ele>
        <time>2026-06-26T09:04:56Z</time>
      </trkpt>
      <trkpt lat="46.07209" lon="6.77836">
        <ele>1842.5</ele>
        <time>2026-06-26T09:04:57Z</time>
      </trkpt>
      <trkpt lat="46.0721" lon="6.77836">
        <ele>1842.6</ele>
        <time>2026-06-26T09:04:58Z</time>
      </trkpt>
      <trkpt lat="46.0721" lon="6.77835">
        <ele>1842.7</ele>
        <time>2026-06-26T09:04:59Z</time>
      </trkpt>
      <trkpt lat="46.07211" lon="6.77835">
        <ele>1842.8</ele>
        <time>2026-06-26T09:05:00Z</time>
      </trkpt>
      <trkpt lat="46.07211" lon="6.77834">
        <ele>1842.9</ele>
        <time>2026-06-26T09:05:01Z</time>
      </trkpt>
      <trkpt lat="46.07212" lon="6.77834">
        <ele>1842.9</ele>
        <time>2026-06-26T09:05:02Z</time>
      </trkpt>
      <trkpt lat="46.07212" lon="6.77834">
        <ele>1842.9</ele>
        <time>2026-06-26T09:05:03Z</time>
      </trkpt>
      <trkpt lat="46.07213" lon="6.77834">
        <ele>1843.1</ele>
        <time>2026-06-26T09:05:04Z</time>
      </trkpt>
      <trkpt lat="46.07214" lon="6.77834">
        <ele>1843.2</ele>
        <time>2026-06-26T09:05:05Z</time>
      </trkpt>
      <trkpt lat="46.07214" lon="6.77834">
        <ele>1843.2</ele>
        <time>2026-06-26T09:05:06Z</time>
      </trkpt>
      <trkpt lat="46.07215" lon="6.77834">
        <ele>1843.3</ele>
        <time>2026-06-26T09:05:07Z</time>
      </trkpt>
      <trkpt lat="46.07216" lon="6.77835">
        <ele>1843.2</ele>
        <time>2026-06-26T09:05:08Z</time>
      </trkpt>
      <trkpt lat="46.07217" lon="6.77835">
        <ele>1843.2</ele>
        <time>2026-06-26T09:05:09Z</time>
      </trkpt>
      <trkpt lat="46.07218" lon="6.77835">
        <ele>1843.2</ele>
        <time>2026-06-26T09:05:10Z</time>
      </trkpt>
      <trkpt lat="46.07219" lon="6.77836">
        <ele>1843.2</ele>
        <time>2026-06-26T09:05:11Z</time>
      </trkpt>
      <trkpt lat="46.0722" lon="6.77835">
        <ele>1843.2</ele>
        <time>2026-06-26T09:05:12Z</time>
      </trkpt>
      <trkpt lat="46.0722" lon="6.77836">
        <ele>1843.3</ele>
        <time>2026-06-26T09:05:13Z</time>
      </trkpt>
      <trkpt lat="46.07222" lon="6.77835">
        <ele>1843.4</ele>
        <time>2026-06-26T09:05:14Z</time>
      </trkpt>
      <trkpt lat="46.07223" lon="6.77835">
        <ele>1843.4</ele>
        <time>2026-06-26T09:05:15Z</time>
      </trkpt>
      <trkpt lat="46.07223" lon="6.77835">
        <ele>1843.5</ele>
        <time>2026-06-26T09:05:16Z</time>
      </trkpt>
      <trkpt lat="46.07223" lon="6.77835">
        <ele>1843.5</ele>
        <time>2026-06-26T09:05:17Z</time>
      </trkpt>
      <trkpt lat="46.07223" lon="6.77836">
        <ele>1843.6</ele>
        <time>2026-06-26T09:05:18Z</time>
      </trkpt>
      <trkpt lat="46.07223" lon="6.77835">
        <ele>1843.6</ele>
        <time>2026-06-26T09:05:19Z</time>
      </trkpt>
      <trkpt lat="46.07223" lon="6.77835">
        <ele>1843.5</ele>
        <time>2026-06-26T09:05:20Z</time>
      </trkpt>
      <trkpt lat="46.07223" lon="6.77835">
        <ele>1843.5</ele>
        <time>2026-06-26T09:05:21Z</time>
      </trkpt>
      <trkpt lat="46.07222" lon="6.77835">
        <ele>1843.5</ele>
        <time>2026-06-26T09:05:22Z</time>
      </trkpt>
      <trkpt lat="46.07222" lon="6.77835">
        <ele>1843.6</ele>
        <time>2026-06-26T09:05:23Z</time>
      </trkpt>
      <trkpt lat="46.07222" lon="6.77835">
        <ele>1843.6</ele>
        <time>2026-06-26T09:05:24Z</time>
      </trkpt>
      <trkpt lat="46.07222" lon="6.77834">
        <ele>1843.6</ele>
        <time>2026-06-26T09:05:25Z</time>
      </trkpt>
      <trkpt lat="46.07222" lon="6.77834">
        <ele>1843.5</ele>
        <time>2026-06-26T09:05:26Z</time>
      </trkpt>
      <trkpt lat="46.07222" lon="6.77834">
        <ele>1843.5</ele>
        <time>2026-06-26T09:05:27Z</time>
      </trkpt>
      <trkpt lat="46.07222" lon="6.77834">
        <ele>1843.5</ele>
        <time>2026-06-26T09:05:28Z</time>
      </trkpt>
      <trkpt lat="46.07222" lon="6.77834">
        <ele>1843.6</ele>
        <time>2026-06-26T09:05:29Z</time>
      </trkpt>
      <trkpt lat="46.07222" lon="6.77834">
        <ele>1843.6</ele>
        <time>2026-06-26T09:05:30Z</time>
      </trkpt>
      <trkpt lat="46.07222" lon="6.77834">
        <ele>1843.6</ele>
        <time>2026-06-26T09:05:31Z</time>
      </trkpt>
      <trkpt lat="46.07222" lon="6.77834">
        <ele>1843.6</ele>
        <time>2026-06-26T09:05:32Z</time>
      </trkpt>
      <trkpt lat="46.07222" lon="6.77834">
        <ele>1843.6</ele>
        <time>2026-06-26T09:05:33Z</time>
      </trkpt>
      <trkpt lat="46.07222" lon="6.77834">
        <ele>1843.8</ele>
        <time>2026-06-26T09:05:34Z</time>
      </trkpt>
      <trkpt lat="46.07223" lon="6.77834">
        <ele>1843.7</ele>
        <time>2026-06-26T09:05:35Z</time>
      </trkpt>
      <trkpt lat="46.07223" lon="6.77834">
        <ele>1843.8</ele>
        <time>2026-06-26T09:05:36Z</time>
      </trkpt>
      <trkpt lat="46.07223" lon="6.77834">
        <ele>1843.8</ele>
        <time>2026-06-26T09:05:37Z</time>
      </trkpt>
      <trkpt lat="46.07223" lon="6.77834">
        <ele>1843.8</ele>
        <time>2026-06-26T09:05:38Z</time>
      </trkpt>
      <trkpt lat="46.07223" lon="6.77833">
        <ele>1843.8</ele>
        <time>2026-06-26T09:05:39Z</time>
      </trkpt>
      <trkpt lat="46.07223" lon="6.77833">
        <ele>1843.7</ele>
        <time>2026-06-26T09:05:40Z</time>
      </trkpt>
      <trkpt lat="46.07223" lon="6.77833">
        <ele>1843.7</ele>
        <time>2026-06-26T09:05:41Z</time>
      </trkpt>
      <trkpt lat="46.07223" lon="6.77833">
        <ele>1843.6</ele>
        <time>2026-06-26T09:05:42Z</time>
      </trkpt>
      <trkpt lat="46.07223" lon="6.77833">
        <ele>1843.5</ele>
        <time>2026-06-26T09:05:43Z</time>
      </trkpt>
      <trkpt lat="46.07223" lon="6.77833">
        <ele>1843.4</ele>
        <time>2026-06-26T09:05:44Z</time>
      </trkpt>
      <trkpt lat="46.07223" lon="6.77833">
        <ele>1843.4</ele>
        <time>2026-06-26T09:05:45Z</time>
      </trkpt>
      <trkpt lat="46.07223" lon="6.77832">
        <ele>1843.3</ele>
        <time>2026-06-26T09:05:46Z</time>
      </trkpt>
      <trkpt lat="46.07223" lon="6.77832">
        <ele>1843.3</ele>
        <time>2026-06-26T09:05:47Z</time>
      </trkpt>
      <trkpt lat="46.07223" lon="6.77832">
        <ele>1843.3</ele>
        <time>2026-06-26T09:05:48Z</time>
      </trkpt>
      <trkpt lat="46.07223" lon="6.77832">
        <ele>1843.3</ele>
        <time>2026-06-26T09:05:49Z</time>
      </trkpt>
      <trkpt lat="46.07224" lon="6.77832">
        <ele>1843.2</ele>
        <time>2026-06-26T09:05:50Z</time>
      </trkpt>
      <trkpt lat="46.07224" lon="6.77831">
        <ele>1843.2</ele>
        <time>2026-06-26T09:05:51Z</time>
      </trkpt>
      <trkpt lat="46.07224" lon="6.77831">
        <ele>1843.1</ele>
        <time>2026-06-26T09:05:52Z</time>
      </trkpt>
      <trkpt lat="46.07224" lon="6.77831">
        <ele>1843.1</ele>
        <time>2026-06-26T09:05:53Z</time>
      </trkpt>
      <trkpt lat="46.07224" lon="6.77831">
        <ele>1843.1</ele>
        <time>2026-06-26T09:05:54Z</time>
      </trkpt>
      <trkpt lat="46.07224" lon="6.77831">
        <ele>1843.1</ele>
        <time>2026-06-26T09:05:55Z</time>
      </trkpt>
      <trkpt lat="46.07223" lon="6.77831">
        <ele>1843.2</ele>
        <time>2026-06-26T09:05:56Z</time>
      </trkpt>
      <trkpt lat="46.07223" lon="6.77831">
        <ele>1843.3</ele>
        <time>2026-06-26T09:05:57Z</time>
      </trkpt>
      <trkpt lat="46.07222" lon="6.77831">
        <ele>1843.3</ele>
        <time>2026-06-26T09:05:58Z</time>
      </trkpt>
      <trkpt lat="46.07221" lon="6.77831">
        <ele>1843.4</ele>
        <time>2026-06-26T09:05:59Z</time>
      </trkpt>
      <trkpt lat="46.07221" lon="6.77831">
        <ele>1843.4</ele>
        <time>2026-06-26T09:06:00Z</time>
      </trkpt>
      <trkpt lat="46.0722" lon="6.7783">
        <ele>1843.4</ele>
        <time>2026-06-26T09:06:01Z</time>
      </trkpt>
      <trkpt lat="46.0722" lon="6.7783">
        <ele>1843.4</ele>
        <time>2026-06-26T09:06:02Z</time>
      </trkpt>
      <trkpt lat="46.07219" lon="6.7783">
        <ele>1843.4</ele>
        <time>2026-06-26T09:06:03Z</time>
      </trkpt>
      <trkpt lat="46.07219" lon="6.7783">
        <ele>1843.4</ele>
        <time>2026-06-26T09:06:04Z</time>
      </trkpt>
      <trkpt lat="46.07219" lon="6.7783">
        <ele>1843.4</ele>
        <time>2026-06-26T09:06:05Z</time>
      </trkpt>
      <trkpt lat="46.07219" lon="6.7783">
        <ele>1843.4</ele>
        <time>2026-06-26T09:06:06Z</time>
      </trkpt>
      <trkpt lat="46.07219" lon="6.7783">
        <ele>1843.3</ele>
        <time>2026-06-26T09:06:07Z</time>
      </trkpt>
      <trkpt lat="46.07219" lon="6.7783">
        <ele>1843.4</ele>
        <time>2026-06-26T09:06:08Z</time>
      </trkpt>
      <trkpt lat="46.0722" lon="6.7783">
        <ele>1843.4</ele>
        <time>2026-06-26T09:06:09Z</time>
      </trkpt>
      <trkpt lat="46.0722" lon="6.7783">
        <ele>1843.4</ele>
        <time>2026-06-26T09:06:10Z</time>
      </trkpt>
      <trkpt lat="46.0722" lon="6.7783">
        <ele>1843.4</ele>
        <time>2026-06-26T09:06:11Z</time>
      </trkpt>
      <trkpt lat="46.0722" lon="6.7783">
        <ele>1843.4</ele>
        <time>2026-06-26T09:06:12Z</time>
      </trkpt>
      <trkpt lat="46.0722" lon="6.7783">
        <ele>1843.4</ele>
        <time>2026-06-26T09:06:13Z</time>
      </trkpt>
      <trkpt lat="46.0722" lon="6.7783">
        <ele>1843.4</ele>
        <time>2026-06-26T09:06:14Z</time>
      </trkpt>
      <trkpt lat="46.0722" lon="6.7783">
        <ele>1843.5</ele>
        <time>2026-06-26T09:06:15Z</time>
      </trkpt>
      <trkpt lat="46.0722" lon="6.7783">
        <ele>1843.5</ele>
        <time>2026-06-26T09:06:16Z</time>
      </trkpt>
      <trkpt lat="46.0722" lon="6.7783">
        <ele>1843.5</ele>
        <time>2026-06-26T09:06:17Z</time>
      </trkpt>
      <trkpt lat="46.0722" lon="6.7783">
        <ele>1843.4</ele>
        <time>2026-06-26T09:06:18Z</time>
      </trkpt>
      <trkpt lat="46.0722" lon="6.7783">
        <ele>1843.3</ele>
        <time>2026-06-26T09:06:19Z</time>
      </trkpt>
      <trkpt lat="46.0722" lon="6.7783">
        <ele>1843.4</ele>
        <time>2026-06-26T09:06:20Z</time>
      </trkpt>
      <trkpt lat="46.0722" lon="6.7783">
        <ele>1843.4</ele>
        <time>2026-06-26T09:06:21Z</time>
      </trkpt>
      <trkpt lat="46.0722" lon="6.77829">
        <ele>1843.4</ele>
        <time>2026-06-26T09:06:22Z</time>
      </trkpt>
      <trkpt lat="46.0722" lon="6.77829">
        <ele>1843.4</ele>
        <time>2026-06-26T09:06:23Z</time>
      </trkpt>
      <trkpt lat="46.0722" lon="6.77829">
        <ele>1843.4</ele>
        <time>2026-06-26T09:06:24Z</time>
      </trkpt>
      <trkpt lat="46.0722" lon="6.77829">
        <ele>1843.4</ele>
        <time>2026-06-26T09:06:25Z</time>
      </trkpt>
      <trkpt lat="46.0722" lon="6.77829">
        <ele>1843.5</ele>
        <time>2026-06-26T09:06:26Z</time>
      </trkpt>
      <trkpt lat="46.0722" lon="6.77829">
        <ele>1843.6</ele>
        <time>2026-06-26T09:06:27Z</time>
      </trkpt>
      <trkpt lat="46.0722" lon="6.77829">
        <ele>1843.6</ele>
        <time>2026-06-26T09:06:28Z</time>
      </trkpt>
      <trkpt lat="46.0722" lon="6.77829">
        <ele>1843.6</ele>
        <time>2026-06-26T09:06:29Z</time>
      </trkpt>
      <trkpt lat="46.0722" lon="6.77829">
        <ele>1843.6</ele>
        <time>2026-06-26T09:06:30Z</time>
      </trkpt>
      <trkpt lat="46.0722" lon="6.77829">
        <ele>1843.6</ele>
        <time>2026-06-26T09:06:31Z</time>
      </trkpt>
      <trkpt lat="46.0722" lon="6.77829">
        <ele>1843.6</ele>
        <time>2026-06-26T09:06:32Z</time>
      </trkpt>
      <trkpt lat="46.0722" lon="6.77829">
        <ele>1843.6</ele>
        <time>2026-06-26T09:06:33Z</time>
      </trkpt>
      <trkpt lat="46.0722" lon="6.77829">
        <ele>1843.6</ele>
        <time>2026-06-26T09:06:34Z</time>
      </trkpt>
      <trkpt lat="46.0722" lon="6.77829">
        <ele>1843.6</ele>
        <time>2026-06-26T09:06:35Z</time>
      </trkpt>
      <trkpt lat="46.0722" lon="6.77829">
        <ele>1843.6</ele>
        <time>2026-06-26T09:06:36Z</time>
      </trkpt>
      <trkpt lat="46.0722" lon="6.77829">
        <ele>1843.6</ele>
        <time>2026-06-26T09:06:37Z</time>
      </trkpt>
      <trkpt lat="46.0722" lon="6.77829">
        <ele>1843.6</ele>
        <time>2026-06-26T09:06:38Z</time>
      </trkpt>
      <trkpt lat="46.0722" lon="6.77829">
        <ele>1843.6</ele>
        <time>2026-06-26T09:06:39Z</time>
      </trkpt>
      <trkpt lat="46.0722" lon="6.77829">
        <ele>1843.6</ele>
        <time>2026-06-26T09:06:40Z</time>
      </trkpt>
      <trkpt lat="46.0722" lon="6.7783">
        <ele>1843.5</ele>
        <time>2026-06-26T09:06:41Z</time>
      </trkpt>
      <trkpt lat="46.0722" lon="6.7783">
        <ele>1843.6</ele>
        <time>2026-06-26T09:06:42Z</time>
      </trkpt>
      <trkpt lat="46.07219" lon="6.7783">
        <ele>1843.6</ele>
        <time>2026-06-26T09:06:43Z</time>
      </trkpt>
      <trkpt lat="46.07219" lon="6.7783">
        <ele>1843.6</ele>
        <time>2026-06-26T09:06:44Z</time>
      </trkpt>
      <trkpt lat="46.07219" lon="6.77829">
        <ele>1843.7</ele>
        <time>2026-06-26T09:06:45Z</time>
      </trkpt>
      <trkpt lat="46.07219" lon="6.77829">
        <ele>1843.6</ele>
        <time>2026-06-26T09:06:46Z</time>
      </trkpt>
      <trkpt lat="46.07219" lon="6.77829">
        <ele>1843.6</ele>
        <time>2026-06-26T09:06:47Z</time>
      </trkpt>
      <trkpt lat="46.07219" lon="6.77829">
        <ele>1843.5</ele>
        <time>2026-06-26T09:06:48Z</time>
      </trkpt>
      <trkpt lat="46.07219" lon="6.77829">
        <ele>1843.5</ele>
        <time>2026-06-26T09:06:49Z</time>
      </trkpt>
      <trkpt lat="46.07219" lon="6.77829">
        <ele>1843.5</ele>
        <time>2026-06-26T09:06:50Z</time>
      </trkpt>
      <trkpt lat="46.07219" lon="6.77829">
        <ele>1843.5</ele>
        <time>2026-06-26T09:06:51Z</time>
      </trkpt>
      <trkpt lat="46.07219" lon="6.7783">
        <ele>1843.6</ele>
        <time>2026-06-26T09:06:52Z</time>
      </trkpt>
      <trkpt lat="46.07219" lon="6.7783">
        <ele>1843.6</ele>
        <time>2026-06-26T09:06:53Z</time>
      </trkpt>
      <trkpt lat="46.07219" lon="6.7783">
        <ele>1843.6</ele>
        <time>2026-06-26T09:06:54Z</time>
      </trkpt>
      <trkpt lat="46.07219" lon="6.7783">
        <ele>1843.6</ele>
        <time>2026-06-26T09:06:55Z</time>
      </trkpt>
      <trkpt lat="46.07219" lon="6.7783">
        <ele>1843.6</ele>
        <time>2026-06-26T09:06:56Z</time>
      </trkpt>
      <trkpt lat="46.07219" lon="6.7783">
        <ele>1843.6</ele>
        <time>2026-06-26T09:06:57Z</time>
      </trkpt>
      <trkpt lat="46.07219" lon="6.7783">
        <ele>1843.6</ele>
        <time>2026-06-26T09:06:58Z</time>
      </trkpt>
      <trkpt lat="46.07219" lon="6.7783">
        <ele>1843.6</ele>
        <time>2026-06-26T09:06:59Z</time>
      </trkpt>
      <trkpt lat="46.07219" lon="6.7783">
        <ele>1843.6</ele>
        <time>2026-06-26T09:07:00Z</time>
      </trkpt>
      <trkpt lat="46.07219" lon="6.7783">
        <ele>1843.6</ele>
        <time>2026-06-26T09:07:01Z</time>
      </trkpt>
      <trkpt lat="46.07219" lon="6.7783">
        <ele>1843.5</ele>
        <time>2026-06-26T09:07:02Z</time>
      </trkpt>
      <trkpt lat="46.07219" lon="6.7783">
        <ele>1843.5</ele>
        <time>2026-06-26T09:07:03Z</time>
      </trkpt>
      <trkpt lat="46.07218" lon="6.7783">
        <ele>1843.5</ele>
        <time>2026-06-26T09:07:04Z</time>
      </trkpt>
      <trkpt lat="46.07218" lon="6.7783">
        <ele>1843.6</ele>
        <time>2026-06-26T09:07:05Z</time>
      </trkpt>
      <trkpt lat="46.07218" lon="6.7783">
        <ele>1843.6</ele>
        <time>2026-06-26T09:07:06Z</time>
      </trkpt>
      <trkpt lat="46.07218" lon="6.7783">
        <ele>1843.6</ele>
        <time>2026-06-26T09:07:07Z</time>
      </trkpt>
      <trkpt lat="46.07219" lon="6.7783">
        <ele>1843.6</ele>
        <time>2026-06-26T09:07:08Z</time>
      </trkpt>
      <trkpt lat="46.07219" lon="6.7783">
        <ele>1843.5</ele>
        <time>2026-06-26T09:07:09Z</time>
      </trkpt>
      <trkpt lat="46.0722" lon="6.7783">
        <ele>1843.4</ele>
        <time>2026-06-26T09:07:10Z</time>
      </trkpt>
      <trkpt lat="46.0722" lon="6.7783">
        <ele>1843.4</ele>
        <time>2026-06-26T09:07:11Z</time>
      </trkpt>
      <trkpt lat="46.07221" lon="6.77831">
        <ele>1843.3</ele>
        <time>2026-06-26T09:07:12Z</time>
      </trkpt>
      <trkpt lat="46.07221" lon="6.77831">
        <ele>1843.3</ele>
        <time>2026-06-26T09:07:13Z</time>
      </trkpt>
      <trkpt lat="46.07222" lon="6.77831">
        <ele>1843.2</ele>
        <time>2026-06-26T09:07:14Z</time>
      </trkpt>
      <trkpt lat="46.07222" lon="6.77831">
        <ele>1843.2</ele>
        <time>2026-06-26T09:07:15Z</time>
      </trkpt>
      <trkpt lat="46.07222" lon="6.77832">
        <ele>1843.2</ele>
        <time>2026-06-26T09:07:16Z</time>
      </trkpt>
      <trkpt lat="46.07222" lon="6.77832">
        <ele>1843.2</ele>
        <time>2026-06-26T09:07:17Z</time>
      </trkpt>
      <trkpt lat="46.07222" lon="6.77832">
        <ele>1843.2</ele>
        <time>2026-06-26T09:07:18Z</time>
      </trkpt>
      <trkpt lat="46.07221" lon="6.77832">
        <ele>1843.2</ele>
        <time>2026-06-26T09:07:19Z</time>
      </trkpt>
      <trkpt lat="46.07221" lon="6.77832">
        <ele>1843.3</ele>
        <time>2026-06-26T09:07:20Z</time>
      </trkpt>
      <trkpt lat="46.07221" lon="6.77832">
        <ele>1843.2</ele>
        <time>2026-06-26T09:07:21Z</time>
      </trkpt>
      <trkpt lat="46.07221" lon="6.77832">
        <ele>1843.2</ele>
        <time>2026-06-26T09:07:22Z</time>
      </trkpt>
      <trkpt lat="46.07221" lon="6.77832">
        <ele>1843.2</ele>
        <time>2026-06-26T09:07:23Z</time>
      </trkpt>
      <trkpt lat="46.07221" lon="6.77832">
        <ele>1843.2</ele>
        <time>2026-06-26T09:07:24Z</time>
      </trkpt>
      <trkpt lat="46.07221" lon="6.77832">
        <ele>1843.2</ele>
        <time>2026-06-26T09:07:25Z</time>
      </trkpt>
      <trkpt lat="46.07221" lon="6.77832">
        <ele>1843.2</ele>
        <time>2026-06-26T09:07:26Z</time>
      </trkpt>
      <trkpt lat="46.07221" lon="6.77833">
        <ele>1843.3</ele>
        <time>2026-06-26T09:07:27Z</time>
      </trkpt>
      <trkpt lat="46.07221" lon="6.77833">
        <ele>1843.3</ele>
        <time>2026-06-26T09:07:28Z</time>
      </trkpt>
      <trkpt lat="46.07221" lon="6.77833">
        <ele>1843.4</ele>
        <time>2026-06-26T09:07:29Z</time>
      </trkpt>
      <trkpt lat="46.07221" lon="6.77833">
        <ele>1843.4</ele>
        <time>2026-06-26T09:07:30Z</time>
      </trkpt>
      <trkpt lat="46.07221" lon="6.77833">
        <ele>1843.4</ele>
        <time>2026-06-26T09:07:31Z</time>
      </trkpt>
      <trkpt lat="46.07221" lon="6.77833">
        <ele>1843.4</ele>
        <time>2026-06-26T09:07:32Z</time>
      </trkpt>
      <trkpt lat="46.07221" lon="6.77833">
        <ele>1843.4</ele>
        <time>2026-06-26T09:07:33Z</time>
      </trkpt>
      <trkpt lat="46.07221" lon="6.77833">
        <ele>1843.4</ele>
        <time>2026-06-26T09:07:34Z</time>
      </trkpt>
      <trkpt lat="46.0722" lon="6.77833">
        <ele>1843.4</ele>
        <time>2026-06-26T09:07:35Z</time>
      </trkpt>
      <trkpt lat="46.0722" lon="6.77833">
        <ele>1843.4</ele>
        <time>2026-06-26T09:07:36Z</time>
      </trkpt>
      <trkpt lat="46.0722" lon="6.77833">
        <ele>1843.4</ele>
        <time>2026-06-26T09:07:37Z</time>
      </trkpt>
      <trkpt lat="46.0722" lon="6.77833">
        <ele>1843.4</ele>
        <time>2026-06-26T09:07:38Z</time>
      </trkpt>
      <trkpt lat="46.0722" lon="6.77834">
        <ele>1843.5</ele>
        <time>2026-06-26T09:07:39Z</time>
      </trkpt>
      <trkpt lat="46.0722" lon="6.77834">
        <ele>1843.4</ele>
        <time>2026-06-26T09:07:40Z</time>
      </trkpt>
      <trkpt lat="46.0722" lon="6.77834">
        <ele>1843.4</ele>
        <time>2026-06-26T09:07:41Z</time>
      </trkpt>
      <trkpt lat="46.0722" lon="6.77834">
        <ele>1843.3</ele>
        <time>2026-06-26T09:07:42Z</time>
      </trkpt>
      <trkpt lat="46.0722" lon="6.77834">
        <ele>1843.3</ele>
        <time>2026-06-26T09:07:43Z</time>
      </trkpt>
      <trkpt lat="46.0722" lon="6.77834">
        <ele>1843.3</ele>
        <time>2026-06-26T09:07:44Z</time>
      </trkpt>
      <trkpt lat="46.0722" lon="6.77834">
        <ele>1843.3</ele>
        <time>2026-06-26T09:07:45Z</time>
      </trkpt>
      <trkpt lat="46.0722" lon="6.77834">
        <ele>1843.3</ele>
        <time>2026-06-26T09:07:46Z</time>
      </trkpt>
      <trkpt lat="46.0722" lon="6.77833">
        <ele>1843.2</ele>
        <time>2026-06-26T09:07:47Z</time>
      </trkpt>
      <trkpt lat="46.0722" lon="6.77833">
        <ele>1843.2</ele>
        <time>2026-06-26T09:07:48Z</time>
      </trkpt>
      <trkpt lat="46.0722" lon="6.77833">
        <ele>1843.2</ele>
        <time>2026-06-26T09:07:49Z</time>
      </trkpt>
      <trkpt lat="46.0722" lon="6.77833">
        <ele>1843.2</ele>
        <time>2026-06-26T09:07:50Z</time>
      </trkpt>
      <trkpt lat="46.0722" lon="6.77833">
        <ele>1843.2</ele>
        <time>2026-06-26T09:07:51Z</time>
      </trkpt>
      <trkpt lat="46.0722" lon="6.77832">
        <ele>1843.2</ele>
        <time>2026-06-26T09:07:52Z</time>
      </trkpt>
      <trkpt lat="46.0722" lon="6.77832">
        <ele>1843.2</ele>
        <time>2026-06-26T09:07:53Z</time>
      </trkpt>
      <trkpt lat="46.0722" lon="6.77832">
        <ele>1843.3</ele>
        <time>2026-06-26T09:07:54Z</time>
      </trkpt>
      <trkpt lat="46.07221" lon="6.77832">
        <ele>1843.3</ele>
        <time>2026-06-26T09:07:55Z</time>
      </trkpt>
      <trkpt lat="46.07221" lon="6.77832">
        <ele>1843.3</ele>
        <time>2026-06-26T09:07:56Z</time>
      </trkpt>
      <trkpt lat="46.07221" lon="6.77832">
        <ele>1843.3</ele>
        <time>2026-06-26T09:07:57Z</time>
      </trkpt>
      <trkpt lat="46.0722" lon="6.77832">
        <ele>1843.4</ele>
        <time>2026-06-26T09:07:58Z</time>
      </trkpt>
      <trkpt lat="46.0722" lon="6.77832">
        <ele>1843.4</ele>
        <time>2026-06-26T09:07:59Z</time>
      </trkpt>
      <trkpt lat="46.0722" lon="6.77832">
        <ele>1843.4</ele>
        <time>2026-06-26T09:08:00Z</time>
      </trkpt>
      <trkpt lat="46.0722" lon="6.77832">
        <ele>1843.3</ele>
        <time>2026-06-26T09:08:01Z</time>
      </trkpt>
      <trkpt lat="46.07221" lon="6.77832">
        <ele>1843.3</ele>
        <time>2026-06-26T09:08:02Z</time>
      </trkpt>
      <trkpt lat="46.07221" lon="6.77831">
        <ele>1843.3</ele>
        <time>2026-06-26T09:08:03Z</time>
      </trkpt>
      <trkpt lat="46.07221" lon="6.77831">
        <ele>1843.3</ele>
        <time>2026-06-26T09:08:04Z</time>
      </trkpt>
      <trkpt lat="46.07221" lon="6.77832">
        <ele>1843.3</ele>
        <time>2026-06-26T09:08:05Z</time>
      </trkpt>
      <trkpt lat="46.0722" lon="6.77832">
        <ele>1843.3</ele>
        <time>2026-06-26T09:08:06Z</time>
      </trkpt>
      <trkpt lat="46.07221" lon="6.77832">
        <ele>1843.3</ele>
        <time>2026-06-26T09:08:07Z</time>
      </trkpt>
      <trkpt lat="46.07221" lon="6.77832">
        <ele>1843.3</ele>
        <time>2026-06-26T09:08:08Z</time>
      </trkpt>
      <trkpt lat="46.0722" lon="6.77833">
        <ele>1843.3</ele>
        <time>2026-06-26T09:08:09Z</time>
      </trkpt>
      <trkpt lat="46.0722" lon="6.77832">
        <ele>1843.3</ele>
        <time>2026-06-26T09:08:10Z</time>
      </trkpt>
      <trkpt lat="46.0722" lon="6.77832">
        <ele>1843.1</ele>
        <time>2026-06-26T09:08:11Z</time>
      </trkpt>
      <trkpt lat="46.0722" lon="6.77832">
        <ele>1843.2</ele>
        <time>2026-06-26T09:08:12Z</time>
      </trkpt>
      <trkpt lat="46.0722" lon="6.77832">
        <ele>1843.1</ele>
        <time>2026-06-26T09:08:13Z</time>
      </trkpt>
      <trkpt lat="46.07221" lon="6.77831">
        <ele>1843.1</ele>
        <time>2026-06-26T09:08:14Z</time>
      </trkpt>
      <trkpt lat="46.07221" lon="6.77831">
        <ele>1843</ele>
        <time>2026-06-26T09:08:15Z</time>
      </trkpt>
      <trkpt lat="46.07221" lon="6.77831">
        <ele>1843</ele>
        <time>2026-06-26T09:08:16Z</time>
      </trkpt>
      <trkpt lat="46.07221" lon="6.77831">
        <ele>1843</ele>
        <time>2026-06-26T09:08:17Z</time>
      </trkpt>
      <trkpt lat="46.07221" lon="6.77831">
        <ele>1843.1</ele>
        <time>2026-06-26T09:08:18Z</time>
      </trkpt>
      <trkpt lat="46.07221" lon="6.77832">
        <ele>1843.2</ele>
        <time>2026-06-26T09:08:19Z</time>
      </trkpt>
      <trkpt lat="46.07221" lon="6.77832">
        <ele>1843.1</ele>
        <time>2026-06-26T09:08:20Z</time>
      </trkpt>
      <trkpt lat="46.07221" lon="6.77832">
        <ele>1843.1</ele>
        <time>2026-06-26T09:08:21Z</time>
      </trkpt>
      <trkpt lat="46.07221" lon="6.77832">
        <ele>1843.1</ele>
        <time>2026-06-26T09:08:22Z</time>
      </trkpt>
      <trkpt lat="46.07221" lon="6.77831">
        <ele>1843.1</ele>
        <time>2026-06-26T09:08:23Z</time>
      </trkpt>
      <trkpt lat="46.07221" lon="6.77831">
        <ele>1843.1</ele>
        <time>2026-06-26T09:08:24Z</time>
      </trkpt>
      <trkpt lat="46.07221" lon="6.77832">
        <ele>1843.1</ele>
        <time>2026-06-26T09:08:25Z</time>
      </trkpt>
      <trkpt lat="46.07221" lon="6.77832">
        <ele>1843.1</ele>
        <time>2026-06-26T09:08:26Z</time>
      </trkpt>
      <trkpt lat="46.07221" lon="6.77832">
        <ele>1843.1</ele>
        <time>2026-06-26T09:08:27Z</time>
      </trkpt>
      <trkpt lat="46.07221" lon="6.77832">
        <ele>1843.1</ele>
        <time>2026-06-26T09:08:28Z</time>
      </trkpt>
      <trkpt lat="46.07221" lon="6.77832">
        <ele>1843.1</ele>
        <time>2026-06-26T09:08:29Z</time>
      </trkpt>
      <trkpt lat="46.07221" lon="6.77832">
        <ele>1843.2</ele>
        <time>2026-06-26T09:08:30Z</time>
      </trkpt>
      <trkpt lat="46.07221" lon="6.77833">
        <ele>1843.1</ele>
        <time>2026-06-26T09:08:31Z</time>
      </trkpt>
      <trkpt lat="46.07221" lon="6.77833">
        <ele>1843.1</ele>
        <time>2026-06-26T09:08:32Z</time>
      </trkpt>
      <trkpt lat="46.07221" lon="6.77833">
        <ele>1843</ele>
        <time>2026-06-26T09:08:33Z</time>
      </trkpt>
      <trkpt lat="46.07221" lon="6.77833">
        <ele>1843</ele>
        <time>2026-06-26T09:08:34Z</time>
      </trkpt>
      <trkpt lat="46.0722" lon="6.77833">
        <ele>1843</ele>
        <time>2026-06-26T09:08:35Z</time>
      </trkpt>
      <trkpt lat="46.0722" lon="6.77833">
        <ele>1843</ele>
        <time>2026-06-26T09:08:36Z</time>
      </trkpt>
      <trkpt lat="46.0722" lon="6.77833">
        <ele>1843</ele>
        <time>2026-06-26T09:08:37Z</time>
      </trkpt>
      <trkpt lat="46.0722" lon="6.77833">
        <ele>1843.1</ele>
        <time>2026-06-26T09:08:38Z</time>
      </trkpt>
      <trkpt lat="46.07221" lon="6.77833">
        <ele>1843.1</ele>
        <time>2026-06-26T09:08:39Z</time>
      </trkpt>
      <trkpt lat="46.07221" lon="6.77833">
        <ele>1843.2</ele>
        <time>2026-06-26T09:08:40Z</time>
      </trkpt>
      <trkpt lat="46.07221" lon="6.77833">
        <ele>1843.2</ele>
        <time>2026-06-26T09:08:41Z</time>
      </trkpt>
      <trkpt lat="46.07221" lon="6.77834">
        <ele>1843.2</ele>
        <time>2026-06-26T09:08:42Z</time>
      </trkpt>
      <trkpt lat="46.07221" lon="6.77834">
        <ele>1843.3</ele>
        <time>2026-06-26T09:08:43Z</time>
      </trkpt>
      <trkpt lat="46.07221" lon="6.77834">
        <ele>1843.3</ele>
        <time>2026-06-26T09:08:44Z</time>
      </trkpt>
      <trkpt lat="46.07221" lon="6.77834">
        <ele>1843.3</ele>
        <time>2026-06-26T09:08:45Z</time>
      </trkpt>
      <trkpt lat="46.07221" lon="6.77834">
        <ele>1843.3</ele>
        <time>2026-06-26T09:08:46Z</time>
      </trkpt>
      <trkpt lat="46.07221" lon="6.77834">
        <ele>1843.3</ele>
        <time>2026-06-26T09:08:47Z</time>
      </trkpt>
      <trkpt lat="46.07222" lon="6.77834">
        <ele>1843.4</ele>
        <time>2026-06-26T09:08:48Z</time>
      </trkpt>
      <trkpt lat="46.07222" lon="6.77834">
        <ele>1843.4</ele>
        <time>2026-06-26T09:08:49Z</time>
      </trkpt>
      <trkpt lat="46.07222" lon="6.77835">
        <ele>1843.3</ele>
        <time>2026-06-26T09:08:50Z</time>
      </trkpt>
      <trkpt lat="46.07222" lon="6.77835">
        <ele>1843.4</ele>
        <time>2026-06-26T09:08:51Z</time>
      </trkpt>
      <trkpt lat="46.07222" lon="6.77835">
        <ele>1843.4</ele>
        <time>2026-06-26T09:08:52Z</time>
      </trkpt>
      <trkpt lat="46.07222" lon="6.77835">
        <ele>1843.4</ele>
        <time>2026-06-26T09:08:53Z</time>
      </trkpt>
      <trkpt lat="46.07221" lon="6.77835">
        <ele>1843.5</ele>
        <time>2026-06-26T09:08:54Z</time>
      </trkpt>
      <trkpt lat="46.07221" lon="6.77835">
        <ele>1843.5</ele>
        <time>2026-06-26T09:08:55Z</time>
      </trkpt>
      <trkpt lat="46.07221" lon="6.77835">
        <ele>1843.5</ele>
        <time>2026-06-26T09:08:56Z</time>
      </trkpt>
      <trkpt lat="46.07221" lon="6.77835">
        <ele>1843.6</ele>
        <time>2026-06-26T09:08:57Z</time>
      </trkpt>
      <trkpt lat="46.07221" lon="6.77836">
        <ele>1843.5</ele>
        <time>2026-06-26T09:08:58Z</time>
      </trkpt>
      <trkpt lat="46.07221" lon="6.77836">
        <ele>1843.5</ele>
        <time>2026-06-26T09:08:59Z</time>
      </trkpt>
      <trkpt lat="46.07221" lon="6.77836">
        <ele>1843.5</ele>
        <time>2026-06-26T09:09:00Z</time>
      </trkpt>
      <trkpt lat="46.07221" lon="6.77836">
        <ele>1843.5</ele>
        <time>2026-06-26T09:09:01Z</time>
      </trkpt>
      <trkpt lat="46.07221" lon="6.77836">
        <ele>1843.4</ele>
        <time>2026-06-26T09:09:02Z</time>
      </trkpt>
      <trkpt lat="46.07221" lon="6.77836">
        <ele>1843.4</ele>
        <time>2026-06-26T09:09:03Z</time>
      </trkpt>
      <trkpt lat="46.07221" lon="6.77836">
        <ele>1843.3</ele>
        <time>2026-06-26T09:09:04Z</time>
      </trkpt>
      <trkpt lat="46.07221" lon="6.77836">
        <ele>1843.3</ele>
        <time>2026-06-26T09:09:05Z</time>
      </trkpt>
      <trkpt lat="46.07221" lon="6.77836">
        <ele>1843.3</ele>
        <time>2026-06-26T09:09:06Z</time>
      </trkpt>
      <trkpt lat="46.07221" lon="6.77836">
        <ele>1843.2</ele>
        <time>2026-06-26T09:09:07Z</time>
      </trkpt>
      <trkpt lat="46.07221" lon="6.77836">
        <ele>1843.2</ele>
        <time>2026-06-26T09:09:08Z</time>
      </trkpt>
      <trkpt lat="46.07221" lon="6.77836">
        <ele>1843.2</ele>
        <time>2026-06-26T09:09:09Z</time>
      </trkpt>
      <trkpt lat="46.07221" lon="6.77836">
        <ele>1843.2</ele>
        <time>2026-06-26T09:09:10Z</time>
      </trkpt>
      <trkpt lat="46.07221" lon="6.77837">
        <ele>1843.2</ele>
        <time>2026-06-26T09:09:11Z</time>
      </trkpt>
      <trkpt lat="46.07221" lon="6.77837">
        <ele>1843.1</ele>
        <time>2026-06-26T09:09:12Z</time>
      </trkpt>
      <trkpt lat="46.07221" lon="6.77837">
        <ele>1843.2</ele>
        <time>2026-06-26T09:09:13Z</time>
      </trkpt>
      <trkpt lat="46.07221" lon="6.77837">
        <ele>1843.2</ele>
        <time>2026-06-26T09:09:14Z</time>
      </trkpt>
      <trkpt lat="46.07221" lon="6.77837">
        <ele>1843.2</ele>
        <time>2026-06-26T09:09:15Z</time>
      </trkpt>
      <trkpt lat="46.07221" lon="6.77837">
        <ele>1843.2</ele>
        <time>2026-06-26T09:09:16Z</time>
      </trkpt>
      <trkpt lat="46.07221" lon="6.77837">
        <ele>1843.3</ele>
        <time>2026-06-26T09:09:17Z</time>
      </trkpt>
      <trkpt lat="46.07221" lon="6.77837">
        <ele>1843.3</ele>
        <time>2026-06-26T09:09:18Z</time>
      </trkpt>
      <trkpt lat="46.07221" lon="6.77837">
        <ele>1843.3</ele>
        <time>2026-06-26T09:09:19Z</time>
      </trkpt>
      <trkpt lat="46.07221" lon="6.77837">
        <ele>1843.3</ele>
        <time>2026-06-26T09:09:20Z</time>
      </trkpt>
      <trkpt lat="46.07221" lon="6.77837">
        <ele>1843.3</ele>
        <time>2026-06-26T09:09:21Z</time>
      </trkpt>
      <trkpt lat="46.07222" lon="6.77837">
        <ele>1843.3</ele>
        <time>2026-06-26T09:09:22Z</time>
      </trkpt>
      <trkpt lat="46.07222" lon="6.77837">
        <ele>1843.3</ele>
        <time>2026-06-26T09:09:23Z</time>
      </trkpt>
      <trkpt lat="46.07222" lon="6.77837">
        <ele>1843.2</ele>
        <time>2026-06-26T09:09:24Z</time>
      </trkpt>
      <trkpt lat="46.07222" lon="6.77837">
        <ele>1843.2</ele>
        <time>2026-06-26T09:09:25Z</time>
      </trkpt>
      <trkpt lat="46.07222" lon="6.77837">
        <ele>1843.2</ele>
        <time>2026-06-26T09:09:26Z</time>
      </trkpt>
      <trkpt lat="46.07222" lon="6.77837">
        <ele>1843.2</ele>
        <time>2026-06-26T09:09:27Z</time>
      </trkpt>
      <trkpt lat="46.07222" lon="6.77837">
        <ele>1843.2</ele>
        <time>2026-06-26T09:09:28Z</time>
      </trkpt>
      <trkpt lat="46.07221" lon="6.77837">
        <ele>1843.2</ele>
        <time>2026-06-26T09:09:29Z</time>
      </trkpt>
      <trkpt lat="46.07221" lon="6.77837">
        <ele>1843.2</ele>
        <time>2026-06-26T09:09:30Z</time>
      </trkpt>
      <trkpt lat="46.07221" lon="6.77837">
        <ele>1843.2</ele>
        <time>2026-06-26T09:09:31Z</time>
      </trkpt>
      <trkpt lat="46.07221" lon="6.77837">
        <ele>1843.2</ele>
        <time>2026-06-26T09:09:32Z</time>
      </trkpt>
      <trkpt lat="46.07221" lon="6.77837">
        <ele>1843.1</ele>
        <time>2026-06-26T09:09:33Z</time>
      </trkpt>
      <trkpt lat="46.07221" lon="6.77837">
        <ele>1843.2</ele>
        <time>2026-06-26T09:09:34Z</time>
      </trkpt>
      <trkpt lat="46.07222" lon="6.77837">
        <ele>1843.2</ele>
        <time>2026-06-26T09:09:35Z</time>
      </trkpt>
      <trkpt lat="46.07222" lon="6.77837">
        <ele>1843.2</ele>
        <time>2026-06-26T09:09:36Z</time>
      </trkpt>
      <trkpt lat="46.07222" lon="6.77837">
        <ele>1843.2</ele>
        <time>2026-06-26T09:09:37Z</time>
      </trkpt>
      <trkpt lat="46.07222" lon="6.77837">
        <ele>1843.2</ele>
        <time>2026-06-26T09:09:38Z</time>
      </trkpt>
      <trkpt lat="46.07222" lon="6.77837">
        <ele>1843.3</ele>
        <time>2026-06-26T09:09:39Z</time>
      </trkpt>
      <trkpt lat="46.07222" lon="6.77838">
        <ele>1843.3</ele>
        <time>2026-06-26T09:09:40Z</time>
      </trkpt>
      <trkpt lat="46.07222" lon="6.77838">
        <ele>1843.3</ele>
        <time>2026-06-26T09:09:41Z</time>
      </trkpt>
      <trkpt lat="46.07222" lon="6.77837">
        <ele>1843.2</ele>
        <time>2026-06-26T09:09:42Z</time>
      </trkpt>
      <trkpt lat="46.07222" lon="6.77837">
        <ele>1843.2</ele>
        <time>2026-06-26T09:09:43Z</time>
      </trkpt>
      <trkpt lat="46.07222" lon="6.77837">
        <ele>1843.3</ele>
        <time>2026-06-26T09:09:44Z</time>
      </trkpt>
      <trkpt lat="46.07222" lon="6.77838">
        <ele>1843.4</ele>
        <time>2026-06-26T09:09:45Z</time>
      </trkpt>
      <trkpt lat="46.07222" lon="6.77838">
        <ele>1843.5</ele>
        <time>2026-06-26T09:09:46Z</time>
      </trkpt>
      <trkpt lat="46.07222" lon="6.77838">
        <ele>1843.6</ele>
        <time>2026-06-26T09:09:47Z</time>
      </trkpt>
      <trkpt lat="46.07222" lon="6.77838">
        <ele>1843.7</ele>
        <time>2026-06-26T09:09:48Z</time>
      </trkpt>
      <trkpt lat="46.07222" lon="6.77838">
        <ele>1843.8</ele>
        <time>2026-06-26T09:09:49Z</time>
      </trkpt>
      <trkpt lat="46.07222" lon="6.77838">
        <ele>1843.8</ele>
        <time>2026-06-26T09:09:50Z</time>
      </trkpt>
      <trkpt lat="46.07222" lon="6.77838">
        <ele>1843.8</ele>
        <time>2026-06-26T09:09:51Z</time>
      </trkpt>
      <trkpt lat="46.07222" lon="6.77838">
        <ele>1843.8</ele>
        <time>2026-06-26T09:09:52Z</time>
      </trkpt>
      <trkpt lat="46.07222" lon="6.77838">
        <ele>1843.8</ele>
        <time>2026-06-26T09:09:53Z</time>
      </trkpt>
      <trkpt lat="46.07222" lon="6.77837">
        <ele>1843.9</ele>
        <time>2026-06-26T09:09:54Z</time>
      </trkpt>
      <trkpt lat="46.07222" lon="6.77837">
        <ele>1843.9</ele>
        <time>2026-06-26T09:09:55Z</time>
      </trkpt>
      <trkpt lat="46.07222" lon="6.77837">
        <ele>1843.9</ele>
        <time>2026-06-26T09:09:56Z</time>
      </trkpt>
      <trkpt lat="46.07222" lon="6.77837">
        <ele>1843.9</ele>
        <time>2026-06-26T09:09:57Z</time>
      </trkpt>
      <trkpt lat="46.07222" lon="6.77837">
        <ele>1844</ele>
        <time>2026-06-26T09:09:58Z</time>
      </trkpt>
      <trkpt lat="46.07222" lon="6.77837">
        <ele>1844</ele>
        <time>2026-06-26T09:09:59Z</time>
      </trkpt>
      <trkpt lat="46.07221" lon="6.77837">
        <ele>1844</ele>
        <time>2026-06-26T09:10:00Z</time>
      </trkpt>
      <trkpt lat="46.07221" lon="6.77837">
        <ele>1844</ele>
        <time>2026-06-26T09:10:01Z</time>
      </trkpt>
      <trkpt lat="46.07221" lon="6.77837">
        <ele>1844.1</ele>
        <time>2026-06-26T09:10:02Z</time>
      </trkpt>
      <trkpt lat="46.07221" lon="6.77837">
        <ele>1844.2</ele>
        <time>2026-06-26T09:10:03Z</time>
      </trkpt>
      <trkpt lat="46.07221" lon="6.77837">
        <ele>1844.2</ele>
        <time>2026-06-26T09:10:04Z</time>
      </trkpt>
      <trkpt lat="46.07221" lon="6.77837">
        <ele>1844.2</ele>
        <time>2026-06-26T09:10:05Z</time>
      </trkpt>
      <trkpt lat="46.07221" lon="6.77836">
        <ele>1844.2</ele>
        <time>2026-06-26T09:10:06Z</time>
      </trkpt>
      <trkpt lat="46.07221" lon="6.77836">
        <ele>1844.1</ele>
        <time>2026-06-26T09:10:07Z</time>
      </trkpt>
      <trkpt lat="46.07221" lon="6.77836">
        <ele>1844.1</ele>
        <time>2026-06-26T09:10:08Z</time>
      </trkpt>
      <trkpt lat="46.07221" lon="6.77836">
        <ele>1844.1</ele>
        <time>2026-06-26T09:10:09Z</time>
      </trkpt>
      <trkpt lat="46.07221" lon="6.77836">
        <ele>1844.1</ele>
        <time>2026-06-26T09:10:10Z</time>
      </trkpt>
      <trkpt lat="46.07221" lon="6.77836">
        <ele>1844.2</ele>
        <time>2026-06-26T09:10:11Z</time>
      </trkpt>
      <trkpt lat="46.07221" lon="6.77836">
        <ele>1844.2</ele>
        <time>2026-06-26T09:10:12Z</time>
      </trkpt>
      <trkpt lat="46.07221" lon="6.77836">
        <ele>1844.3</ele>
        <time>2026-06-26T09:10:13Z</time>
      </trkpt>
      <trkpt lat="46.07221" lon="6.77836">
        <ele>1844.3</ele>
        <time>2026-06-26T09:10:14Z</time>
      </trkpt>
      <trkpt lat="46.07221" lon="6.77836">
        <ele>1844.3</ele>
        <time>2026-06-26T09:10:15Z</time>
      </trkpt>
      <trkpt lat="46.07221" lon="6.77836">
        <ele>1844.4</ele>
        <time>2026-06-26T09:10:16Z</time>
      </trkpt>
      <trkpt lat="46.07221" lon="6.77836">
        <ele>1844.4</ele>
        <time>2026-06-26T09:10:17Z</time>
      </trkpt>
      <trkpt lat="46.07221" lon="6.77836">
        <ele>1844.4</ele>
        <time>2026-06-26T09:10:18Z</time>
      </trkpt>
      <trkpt lat="46.07221" lon="6.77836">
        <ele>1844.5</ele>
        <time>2026-06-26T09:10:19Z</time>
      </trkpt>
      <trkpt lat="46.07221" lon="6.77836">
        <ele>1844.5</ele>
        <time>2026-06-26T09:10:20Z</time>
      </trkpt>
      <trkpt lat="46.07221" lon="6.77836">
        <ele>1844.5</ele>
        <time>2026-06-26T09:10:21Z</time>
      </trkpt>
      <trkpt lat="46.07221" lon="6.77836">
        <ele>1844.5</ele>
        <time>2026-06-26T09:10:22Z</time>
      </trkpt>
      <trkpt lat="46.0722" lon="6.77835">
        <ele>1844.7</ele>
        <time>2026-06-26T09:10:23Z</time>
      </trkpt>
      <trkpt lat="46.0722" lon="6.77835">
        <ele>1844.8</ele>
        <time>2026-06-26T09:10:24Z</time>
      </trkpt>
      <trkpt lat="46.0722" lon="6.77835">
        <ele>1844.8</ele>
        <time>2026-06-26T09:10:25Z</time>
      </trkpt>
      <trkpt lat="46.0722" lon="6.77835">
        <ele>1844.8</ele>
        <time>2026-06-26T09:10:26Z</time>
      </trkpt>
      <trkpt lat="46.0722" lon="6.77835">
        <ele>1844.8</ele>
        <time>2026-06-26T09:10:27Z</time>
      </trkpt>
      <trkpt lat="46.0722" lon="6.77835">
        <ele>1844.8</ele>
        <time>2026-06-26T09:10:28Z</time>
      </trkpt>
      <trkpt lat="46.0722" lon="6.77835">
        <ele>1844.8</ele>
        <time>2026-06-26T09:10:29Z</time>
      </trkpt>
      <trkpt lat="46.0722" lon="6.77835">
        <ele>1844.8</ele>
        <time>2026-06-26T09:10:30Z</time>
      </trkpt>
      <trkpt lat="46.0722" lon="6.77835">
        <ele>1844.7</ele>
        <time>2026-06-26T09:10:31Z</time>
      </trkpt>
      <trkpt lat="46.0722" lon="6.77835">
        <ele>1844.7</ele>
        <time>2026-06-26T09:10:32Z</time>
      </trkpt>
      <trkpt lat="46.0722" lon="6.77835">
        <ele>1844.8</ele>
        <time>2026-06-26T09:10:33Z</time>
      </trkpt>
      <trkpt lat="46.0722" lon="6.77835">
        <ele>1844.8</ele>
        <time>2026-06-26T09:10:34Z</time>
      </trkpt>
      <trkpt lat="46.0722" lon="6.77834">
        <ele>1844.9</ele>
        <time>2026-06-26T09:10:35Z</time>
      </trkpt>
      <trkpt lat="46.0722" lon="6.77835">
        <ele>1845</ele>
        <time>2026-06-26T09:10:36Z</time>
      </trkpt>
      <trkpt lat="46.0722" lon="6.77835">
        <ele>1845</ele>
        <time>2026-06-26T09:10:37Z</time>
      </trkpt>
      <trkpt lat="46.07221" lon="6.77834">
        <ele>1845.1</ele>
        <time>2026-06-26T09:10:38Z</time>
      </trkpt>
      <trkpt lat="46.07221" lon="6.77834">
        <ele>1845.1</ele>
        <time>2026-06-26T09:10:39Z</time>
      </trkpt>
      <trkpt lat="46.07221" lon="6.77834">
        <ele>1845.2</ele>
        <time>2026-06-26T09:10:40Z</time>
      </trkpt>
      <trkpt lat="46.07221" lon="6.77834">
        <ele>1845.2</ele>
        <time>2026-06-26T09:10:41Z</time>
      </trkpt>
      <trkpt lat="46.07222" lon="6.77833">
        <ele>1845.3</ele>
        <time>2026-06-26T09:10:42Z</time>
      </trkpt>
      <trkpt lat="46.07223" lon="6.77833">
        <ele>1845.4</ele>
        <time>2026-06-26T09:10:43Z</time>
      </trkpt>
      <trkpt lat="46.07223" lon="6.77834">
        <ele>1845.5</ele>
        <time>2026-06-26T09:10:44Z</time>
      </trkpt>
      <trkpt lat="46.07224" lon="6.77834">
        <ele>1845.6</ele>
        <time>2026-06-26T09:10:45Z</time>
      </trkpt>
      <trkpt lat="46.07224" lon="6.77834">
        <ele>1845.6</ele>
        <time>2026-06-26T09:10:46Z</time>
      </trkpt>
      <trkpt lat="46.07224" lon="6.77834">
        <ele>1845.6</ele>
        <time>2026-06-26T09:10:47Z</time>
      </trkpt>
      <trkpt lat="46.07225" lon="6.77834">
        <ele>1845.6</ele>
        <time>2026-06-26T09:10:48Z</time>
      </trkpt>
      <trkpt lat="46.07225" lon="6.77835">
        <ele>1845.5</ele>
        <time>2026-06-26T09:10:49Z</time>
      </trkpt>
      <trkpt lat="46.07225" lon="6.77835">
        <ele>1845.4</ele>
        <time>2026-06-26T09:10:50Z</time>
      </trkpt>
      <trkpt lat="46.07225" lon="6.77836">
        <ele>1845.4</ele>
        <time>2026-06-26T09:10:51Z</time>
      </trkpt>
      <trkpt lat="46.07225" lon="6.77836">
        <ele>1845.4</ele>
        <time>2026-06-26T09:10:52Z</time>
      </trkpt>
      <trkpt lat="46.07225" lon="6.77836">
        <ele>1845.5</ele>
        <time>2026-06-26T09:10:53Z</time>
      </trkpt>
      <trkpt lat="46.07225" lon="6.77837">
        <ele>1845.4</ele>
        <time>2026-06-26T09:10:54Z</time>
      </trkpt>
      <trkpt lat="46.07226" lon="6.77837">
        <ele>1845.4</ele>
        <time>2026-06-26T09:10:55Z</time>
      </trkpt>
      <trkpt lat="46.07226" lon="6.77837">
        <ele>1845.4</ele>
        <time>2026-06-26T09:10:56Z</time>
      </trkpt>
      <trkpt lat="46.07226" lon="6.77837">
        <ele>1845.4</ele>
        <time>2026-06-26T09:10:57Z</time>
      </trkpt>
      <trkpt lat="46.07227" lon="6.77837">
        <ele>1845.4</ele>
        <time>2026-06-26T09:10:58Z</time>
      </trkpt>
      <trkpt lat="46.07227" lon="6.77837">
        <ele>1845.4</ele>
        <time>2026-06-26T09:10:59Z</time>
      </trkpt>
      <trkpt lat="46.07227" lon="6.77837">
        <ele>1845.3</ele>
        <time>2026-06-26T09:11:00Z</time>
      </trkpt>
      <trkpt lat="46.07227" lon="6.77838">
        <ele>1845.2</ele>
        <time>2026-06-26T09:11:01Z</time>
      </trkpt>
      <trkpt lat="46.07228" lon="6.77838">
        <ele>1845.1</ele>
        <time>2026-06-26T09:11:02Z</time>
      </trkpt>
      <trkpt lat="46.07228" lon="6.77838">
        <ele>1845</ele>
        <time>2026-06-26T09:11:03Z</time>
      </trkpt>
      <trkpt lat="46.07228" lon="6.77837">
        <ele>1845</ele>
        <time>2026-06-26T09:11:04Z</time>
      </trkpt>
      <trkpt lat="46.07228" lon="6.77837">
        <ele>1844.9</ele>
        <time>2026-06-26T09:11:05Z</time>
      </trkpt>
      <trkpt lat="46.07229" lon="6.77837">
        <ele>1844.8</ele>
        <time>2026-06-26T09:11:06Z</time>
      </trkpt>
      <trkpt lat="46.07229" lon="6.77837">
        <ele>1844.7</ele>
        <time>2026-06-26T09:11:07Z</time>
      </trkpt>
      <trkpt lat="46.0723" lon="6.77837">
        <ele>1844.6</ele>
        <time>2026-06-26T09:11:08Z</time>
      </trkpt>
      <trkpt lat="46.0723" lon="6.77836">
        <ele>1844.6</ele>
        <time>2026-06-26T09:11:09Z</time>
      </trkpt>
      <trkpt lat="46.07231" lon="6.77836">
        <ele>1844.3</ele>
        <time>2026-06-26T09:11:10Z</time>
      </trkpt>
      <trkpt lat="46.07231" lon="6.77836">
        <ele>1844</ele>
        <time>2026-06-26T09:11:11Z</time>
      </trkpt>
      <trkpt lat="46.07231" lon="6.77836">
        <ele>1844</ele>
        <time>2026-06-26T09:11:12Z</time>
      </trkpt>
      <trkpt lat="46.07231" lon="6.77837">
        <ele>1843.9</ele>
        <time>2026-06-26T09:11:13Z</time>
      </trkpt>
      <trkpt lat="46.07232" lon="6.77837">
        <ele>1843.8</ele>
        <time>2026-06-26T09:11:14Z</time>
      </trkpt>
      <trkpt lat="46.07232" lon="6.77837">
        <ele>1843.8</ele>
        <time>2026-06-26T09:11:15Z</time>
      </trkpt>
      <trkpt lat="46.07233" lon="6.77837">
        <ele>1843.8</ele>
        <time>2026-06-26T09:11:16Z</time>
      </trkpt>
      <trkpt lat="46.07233" lon="6.77837">
        <ele>1843.8</ele>
        <time>2026-06-26T09:11:17Z</time>
      </trkpt>
      <trkpt lat="46.07234" lon="6.77837">
        <ele>1843.6</ele>
        <time>2026-06-26T09:11:18Z</time>
      </trkpt>
      <trkpt lat="46.07234" lon="6.77836">
        <ele>1843.5</ele>
        <time>2026-06-26T09:11:19Z</time>
      </trkpt>
      <trkpt lat="46.07234" lon="6.77836">
        <ele>1843.5</ele>
        <time>2026-06-26T09:11:20Z</time>
      </trkpt>
      <trkpt lat="46.07234" lon="6.77836">
        <ele>1843.4</ele>
        <time>2026-06-26T09:11:21Z</time>
      </trkpt>
      <trkpt lat="46.07235" lon="6.77836">
        <ele>1843.3</ele>
        <time>2026-06-26T09:11:22Z</time>
      </trkpt>
      <trkpt lat="46.07235" lon="6.77836">
        <ele>1843.3</ele>
        <time>2026-06-26T09:11:23Z</time>
      </trkpt>
      <trkpt lat="46.07235" lon="6.77836">
        <ele>1843.2</ele>
        <time>2026-06-26T09:11:24Z</time>
      </trkpt>
      <trkpt lat="46.07235" lon="6.77836">
        <ele>1843.2</ele>
        <time>2026-06-26T09:11:25Z</time>
      </trkpt>
      <trkpt lat="46.07235" lon="6.77836">
        <ele>1843.1</ele>
        <time>2026-06-26T09:11:26Z</time>
      </trkpt>
      <trkpt lat="46.07236" lon="6.77836">
        <ele>1843.1</ele>
        <time>2026-06-26T09:11:27Z</time>
      </trkpt>
      <trkpt lat="46.07236" lon="6.77836">
        <ele>1843.1</ele>
        <time>2026-06-26T09:11:28Z</time>
      </trkpt>
      <trkpt lat="46.07236" lon="6.77836">
        <ele>1843.1</ele>
        <time>2026-06-26T09:11:29Z</time>
      </trkpt>
      <trkpt lat="46.07236" lon="6.77836">
        <ele>1843.1</ele>
        <time>2026-06-26T09:11:30Z</time>
      </trkpt>
      <trkpt lat="46.07236" lon="6.77836">
        <ele>1843.1</ele>
        <time>2026-06-26T09:11:31Z</time>
      </trkpt>
      <trkpt lat="46.07236" lon="6.77836">
        <ele>1843.1</ele>
        <time>2026-06-26T09:11:32Z</time>
      </trkpt>
      <trkpt lat="46.07236" lon="6.77836">
        <ele>1843.2</ele>
        <time>2026-06-26T09:11:33Z</time>
      </trkpt>
      <trkpt lat="46.07236" lon="6.77836">
        <ele>1843.1</ele>
        <time>2026-06-26T09:11:34Z</time>
      </trkpt>
      <trkpt lat="46.07236" lon="6.77836">
        <ele>1843</ele>
        <time>2026-06-26T09:11:35Z</time>
      </trkpt>
      <trkpt lat="46.07236" lon="6.77837">
        <ele>1843</ele>
        <time>2026-06-26T09:11:36Z</time>
      </trkpt>
      <trkpt lat="46.07237" lon="6.77837">
        <ele>1843.1</ele>
        <time>2026-06-26T09:11:37Z</time>
      </trkpt>
      <trkpt lat="46.07237" lon="6.77837">
        <ele>1843.1</ele>
        <time>2026-06-26T09:11:38Z</time>
      </trkpt>
      <trkpt lat="46.07237" lon="6.77836">
        <ele>1843.2</ele>
        <time>2026-06-26T09:11:39Z</time>
      </trkpt>
      <trkpt lat="46.07237" lon="6.77836">
        <ele>1843.2</ele>
        <time>2026-06-26T09:11:40Z</time>
      </trkpt>
      <trkpt lat="46.07237" lon="6.77836">
        <ele>1843.2</ele>
        <time>2026-06-26T09:11:41Z</time>
      </trkpt>
      <trkpt lat="46.07237" lon="6.77836">
        <ele>1843.1</ele>
        <time>2026-06-26T09:11:42Z</time>
      </trkpt>
      <trkpt lat="46.07237" lon="6.77836">
        <ele>1843.1</ele>
        <time>2026-06-26T09:11:43Z</time>
      </trkpt>
      <trkpt lat="46.07237" lon="6.77837">
        <ele>1843.1</ele>
        <time>2026-06-26T09:11:44Z</time>
      </trkpt>
      <trkpt lat="46.07237" lon="6.77837">
        <ele>1843</ele>
        <time>2026-06-26T09:11:45Z</time>
      </trkpt>
      <trkpt lat="46.07237" lon="6.77837">
        <ele>1843</ele>
        <time>2026-06-26T09:11:46Z</time>
      </trkpt>
      <trkpt lat="46.07237" lon="6.77837">
        <ele>1843</ele>
        <time>2026-06-26T09:11:47Z</time>
      </trkpt>
      <trkpt lat="46.07237" lon="6.77838">
        <ele>1843</ele>
        <time>2026-06-26T09:11:48Z</time>
      </trkpt>
      <trkpt lat="46.07237" lon="6.77838">
        <ele>1842.9</ele>
        <time>2026-06-26T09:11:49Z</time>
      </trkpt>
      <trkpt lat="46.07237" lon="6.77838">
        <ele>1842.9</ele>
        <time>2026-06-26T09:11:50Z</time>
      </trkpt>
      <trkpt lat="46.07237" lon="6.77838">
        <ele>1842.9</ele>
        <time>2026-06-26T09:11:51Z</time>
      </trkpt>
      <trkpt lat="46.07237" lon="6.77838">
        <ele>1842.9</ele>
        <time>2026-06-26T09:11:52Z</time>
      </trkpt>
      <trkpt lat="46.07237" lon="6.77837">
        <ele>1842.9</ele>
        <time>2026-06-26T09:11:53Z</time>
      </trkpt>
      <trkpt lat="46.07237" lon="6.77837">
        <ele>1843</ele>
        <time>2026-06-26T09:11:54Z</time>
      </trkpt>
      <trkpt lat="46.07237" lon="6.77837">
        <ele>1843</ele>
        <time>2026-06-26T09:11:55Z</time>
      </trkpt>
      <trkpt lat="46.07237" lon="6.77837">
        <ele>1843.1</ele>
        <time>2026-06-26T09:11:56Z</time>
      </trkpt>
      <trkpt lat="46.07237" lon="6.77837">
        <ele>1843.1</ele>
        <time>2026-06-26T09:11:57Z</time>
      </trkpt>
      <trkpt lat="46.07237" lon="6.77837">
        <ele>1843.2</ele>
        <time>2026-06-26T09:11:58Z</time>
      </trkpt>
      <trkpt lat="46.07237" lon="6.77837">
        <ele>1843.2</ele>
        <time>2026-06-26T09:11:59Z</time>
      </trkpt>
      <trkpt lat="46.07238" lon="6.77838">
        <ele>1843.2</ele>
        <time>2026-06-26T09:12:00Z</time>
      </trkpt>
      <trkpt lat="46.07238" lon="6.77838">
        <ele>1843.2</ele>
        <time>2026-06-26T09:12:01Z</time>
      </trkpt>
      <trkpt lat="46.07238" lon="6.77838">
        <ele>1843.1</ele>
        <time>2026-06-26T09:12:02Z</time>
      </trkpt>
      <trkpt lat="46.07239" lon="6.77838">
        <ele>1842.9</ele>
        <time>2026-06-26T09:12:03Z</time>
      </trkpt>
      <trkpt lat="46.07239" lon="6.77839">
        <ele>1842.7</ele>
        <time>2026-06-26T09:12:04Z</time>
      </trkpt>
      <trkpt lat="46.07239" lon="6.77839">
        <ele>1842.6</ele>
        <time>2026-06-26T09:12:05Z</time>
      </trkpt>
      <trkpt lat="46.07238" lon="6.77839">
        <ele>1842.6</ele>
        <time>2026-06-26T09:12:06Z</time>
      </trkpt>
      <trkpt lat="46.07239" lon="6.77839">
        <ele>1842.5</ele>
        <time>2026-06-26T09:12:07Z</time>
      </trkpt>
      <trkpt lat="46.07239" lon="6.77839">
        <ele>1842.5</ele>
        <time>2026-06-26T09:12:08Z</time>
      </trkpt>
      <trkpt lat="46.0724" lon="6.77838">
        <ele>1842.5</ele>
        <time>2026-06-26T09:12:09Z</time>
      </trkpt>
      <trkpt lat="46.0724" lon="6.77838">
        <ele>1842.5</ele>
        <time>2026-06-26T09:12:10Z</time>
      </trkpt>
      <trkpt lat="46.0724" lon="6.77838">
        <ele>1842.5</ele>
        <time>2026-06-26T09:12:11Z</time>
      </trkpt>
      <trkpt lat="46.0724" lon="6.77838">
        <ele>1842.5</ele>
        <time>2026-06-26T09:12:12Z</time>
      </trkpt>
      <trkpt lat="46.0724" lon="6.77838">
        <ele>1842.5</ele>
        <time>2026-06-26T09:12:13Z</time>
      </trkpt>
      <trkpt lat="46.0724" lon="6.77838">
        <ele>1842.4</ele>
        <time>2026-06-26T09:12:14Z</time>
      </trkpt>
      <trkpt lat="46.07241" lon="6.77839">
        <ele>1842.3</ele>
        <time>2026-06-26T09:12:15Z</time>
      </trkpt>
      <trkpt lat="46.07241" lon="6.77839">
        <ele>1842.3</ele>
        <time>2026-06-26T09:12:16Z</time>
      </trkpt>
      <trkpt lat="46.07241" lon="6.77839">
        <ele>1842.2</ele>
        <time>2026-06-26T09:12:17Z</time>
      </trkpt>
      <trkpt lat="46.07242" lon="6.77839">
        <ele>1842.2</ele>
        <time>2026-06-26T09:12:18Z</time>
      </trkpt>
      <trkpt lat="46.07242" lon="6.77839">
        <ele>1842.2</ele>
        <time>2026-06-26T09:12:19Z</time>
      </trkpt>
      <trkpt lat="46.07242" lon="6.77839">
        <ele>1842.2</ele>
        <time>2026-06-26T09:12:20Z</time>
      </trkpt>
      <trkpt lat="46.07242" lon="6.77839">
        <ele>1842.4</ele>
        <time>2026-06-26T09:12:21Z</time>
      </trkpt>
      <trkpt lat="46.07242" lon="6.77839">
        <ele>1842.4</ele>
        <time>2026-06-26T09:12:22Z</time>
      </trkpt>
      <trkpt lat="46.07242" lon="6.77838">
        <ele>1842.5</ele>
        <time>2026-06-26T09:12:23Z</time>
      </trkpt>
      <trkpt lat="46.07242" lon="6.77838">
        <ele>1842.5</ele>
        <time>2026-06-26T09:12:24Z</time>
      </trkpt>
      <trkpt lat="46.07242" lon="6.77837">
        <ele>1842.4</ele>
        <time>2026-06-26T09:12:25Z</time>
      </trkpt>
      <trkpt lat="46.07242" lon="6.77836">
        <ele>1842.4</ele>
        <time>2026-06-26T09:12:26Z</time>
      </trkpt>
      <trkpt lat="46.07242" lon="6.77836">
        <ele>1842.4</ele>
        <time>2026-06-26T09:12:27Z</time>
      </trkpt>
      <trkpt lat="46.07242" lon="6.77835">
        <ele>1842.5</ele>
        <time>2026-06-26T09:12:28Z</time>
      </trkpt>
      <trkpt lat="46.07242" lon="6.77835">
        <ele>1842.5</ele>
        <time>2026-06-26T09:12:29Z</time>
      </trkpt>
      <trkpt lat="46.07242" lon="6.77835">
        <ele>1842.6</ele>
        <time>2026-06-26T09:12:30Z</time>
      </trkpt>
      <trkpt lat="46.07242" lon="6.77835">
        <ele>1842.6</ele>
        <time>2026-06-26T09:12:31Z</time>
      </trkpt>
      <trkpt lat="46.07242" lon="6.77835">
        <ele>1842.6</ele>
        <time>2026-06-26T09:12:32Z</time>
      </trkpt>
      <trkpt lat="46.07242" lon="6.77835">
        <ele>1842.6</ele>
        <time>2026-06-26T09:12:33Z</time>
      </trkpt>
      <trkpt lat="46.07242" lon="6.77835">
        <ele>1842.6</ele>
        <time>2026-06-26T09:12:34Z</time>
      </trkpt>
      <trkpt lat="46.07242" lon="6.77835">
        <ele>1842.6</ele>
        <time>2026-06-26T09:12:35Z</time>
      </trkpt>
      <trkpt lat="46.07243" lon="6.77836">
        <ele>1842.6</ele>
        <time>2026-06-26T09:12:36Z</time>
      </trkpt>
      <trkpt lat="46.07243" lon="6.77836">
        <ele>1842.6</ele>
        <time>2026-06-26T09:12:37Z</time>
      </trkpt>
      <trkpt lat="46.07242" lon="6.77836">
        <ele>1842.5</ele>
        <time>2026-06-26T09:12:38Z</time>
      </trkpt>
      <trkpt lat="46.07242" lon="6.77836">
        <ele>1842.5</ele>
        <time>2026-06-26T09:12:39Z</time>
      </trkpt>
      <trkpt lat="46.07242" lon="6.77836">
        <ele>1842.4</ele>
        <time>2026-06-26T09:12:40Z</time>
      </trkpt>
      <trkpt lat="46.07242" lon="6.77836">
        <ele>1842.4</ele>
        <time>2026-06-26T09:12:41Z</time>
      </trkpt>
      <trkpt lat="46.07242" lon="6.77836">
        <ele>1842.4</ele>
        <time>2026-06-26T09:12:42Z</time>
      </trkpt>
      <trkpt lat="46.07242" lon="6.77836">
        <ele>1842.4</ele>
        <time>2026-06-26T09:12:43Z</time>
      </trkpt>
      <trkpt lat="46.07242" lon="6.77836">
        <ele>1842.4</ele>
        <time>2026-06-26T09:12:44Z</time>
      </trkpt>
      <trkpt lat="46.07243" lon="6.77836">
        <ele>1842.4</ele>
        <time>2026-06-26T09:12:45Z</time>
      </trkpt>
      <trkpt lat="46.07243" lon="6.77835">
        <ele>1842.2</ele>
        <time>2026-06-26T09:12:46Z</time>
      </trkpt>
      <trkpt lat="46.07243" lon="6.77835">
        <ele>1842</ele>
        <time>2026-06-26T09:12:47Z</time>
      </trkpt>
      <trkpt lat="46.07244" lon="6.77836">
        <ele>1841.9</ele>
        <time>2026-06-26T09:12:48Z</time>
      </trkpt>
      <trkpt lat="46.07244" lon="6.77836">
        <ele>1841.7</ele>
        <time>2026-06-26T09:12:49Z</time>
      </trkpt>
      <trkpt lat="46.07244" lon="6.77836">
        <ele>1841.6</ele>
        <time>2026-06-26T09:12:50Z</time>
      </trkpt>
      <trkpt lat="46.07244" lon="6.77837">
        <ele>1841.5</ele>
        <time>2026-06-26T09:12:51Z</time>
      </trkpt>
      <trkpt lat="46.07244" lon="6.77837">
        <ele>1841.5</ele>
        <time>2026-06-26T09:12:52Z</time>
      </trkpt>
      <trkpt lat="46.07244" lon="6.77837">
        <ele>1841.4</ele>
        <time>2026-06-26T09:12:53Z</time>
      </trkpt>
      <trkpt lat="46.07244" lon="6.77837">
        <ele>1841.3</ele>
        <time>2026-06-26T09:12:54Z</time>
      </trkpt>
      <trkpt lat="46.07244" lon="6.77837">
        <ele>1841.2</ele>
        <time>2026-06-26T09:12:55Z</time>
      </trkpt>
      <trkpt lat="46.07244" lon="6.77837">
        <ele>1841.2</ele>
        <time>2026-06-26T09:12:56Z</time>
      </trkpt>
      <trkpt lat="46.07244" lon="6.77837">
        <ele>1841.1</ele>
        <time>2026-06-26T09:12:57Z</time>
      </trkpt>
      <trkpt lat="46.07244" lon="6.77837">
        <ele>1841.1</ele>
        <time>2026-06-26T09:12:58Z</time>
      </trkpt>
      <trkpt lat="46.07244" lon="6.77837">
        <ele>1841.1</ele>
        <time>2026-06-26T09:12:59Z</time>
      </trkpt>
      <trkpt lat="46.07244" lon="6.77837">
        <ele>1841.1</ele>
        <time>2026-06-26T09:13:00Z</time>
      </trkpt>
      <trkpt lat="46.07244" lon="6.77837">
        <ele>1841.1</ele>
        <time>2026-06-26T09:13:01Z</time>
      </trkpt>
      <trkpt lat="46.07244" lon="6.77837">
        <ele>1841.1</ele>
        <time>2026-06-26T09:13:02Z</time>
      </trkpt>
      <trkpt lat="46.07244" lon="6.77837">
        <ele>1841</ele>
        <time>2026-06-26T09:13:03Z</time>
      </trkpt>
      <trkpt lat="46.07244" lon="6.77837">
        <ele>1841.1</ele>
        <time>2026-06-26T09:13:04Z</time>
      </trkpt>
      <trkpt lat="46.07244" lon="6.77837">
        <ele>1841.1</ele>
        <time>2026-06-26T09:13:05Z</time>
      </trkpt>
      <trkpt lat="46.07244" lon="6.77837">
        <ele>1841.1</ele>
        <time>2026-06-26T09:13:06Z</time>
      </trkpt>
      <trkpt lat="46.07244" lon="6.77837">
        <ele>1841.1</ele>
        <time>2026-06-26T09:13:07Z</time>
      </trkpt>
      <trkpt lat="46.07244" lon="6.77837">
        <ele>1841.2</ele>
        <time>2026-06-26T09:13:08Z</time>
      </trkpt>
      <trkpt lat="46.07244" lon="6.77837">
        <ele>1841.2</ele>
        <time>2026-06-26T09:13:09Z</time>
      </trkpt>
      <trkpt lat="46.07244" lon="6.77837">
        <ele>1841.2</ele>
        <time>2026-06-26T09:13:10Z</time>
      </trkpt>
      <trkpt lat="46.07244" lon="6.77838">
        <ele>1841.2</ele>
        <time>2026-06-26T09:13:11Z</time>
      </trkpt>
      <trkpt lat="46.07244" lon="6.77838">
        <ele>1841.4</ele>
        <time>2026-06-26T09:13:12Z</time>
      </trkpt>
      <trkpt lat="46.07244" lon="6.77838">
        <ele>1841.5</ele>
        <time>2026-06-26T09:13:13Z</time>
      </trkpt>
      <trkpt lat="46.07244" lon="6.77838">
        <ele>1841.5</ele>
        <time>2026-06-26T09:13:14Z</time>
      </trkpt>
      <trkpt lat="46.07244" lon="6.77838">
        <ele>1841.6</ele>
        <time>2026-06-26T09:13:15Z</time>
      </trkpt>
      <trkpt lat="46.07243" lon="6.77838">
        <ele>1841.5</ele>
        <time>2026-06-26T09:13:16Z</time>
      </trkpt>
      <trkpt lat="46.07243" lon="6.77838">
        <ele>1841.6</ele>
        <time>2026-06-26T09:13:17Z</time>
      </trkpt>
      <trkpt lat="46.07243" lon="6.77838">
        <ele>1841.7</ele>
        <time>2026-06-26T09:13:18Z</time>
      </trkpt>
      <trkpt lat="46.07243" lon="6.77838">
        <ele>1841.7</ele>
        <time>2026-06-26T09:13:19Z</time>
      </trkpt>
      <trkpt lat="46.07243" lon="6.77838">
        <ele>1841.7</ele>
        <time>2026-06-26T09:13:20Z</time>
      </trkpt>
      <trkpt lat="46.07243" lon="6.77838">
        <ele>1841.7</ele>
        <time>2026-06-26T09:13:21Z</time>
      </trkpt>
      <trkpt lat="46.07243" lon="6.77838">
        <ele>1841.7</ele>
        <time>2026-06-26T09:13:22Z</time>
      </trkpt>
      <trkpt lat="46.07243" lon="6.77838">
        <ele>1841.8</ele>
        <time>2026-06-26T09:13:23Z</time>
      </trkpt>
      <trkpt lat="46.07243" lon="6.77838">
        <ele>1841.8</ele>
        <time>2026-06-26T09:13:24Z</time>
      </trkpt>
      <trkpt lat="46.07243" lon="6.77838">
        <ele>1841.8</ele>
        <time>2026-06-26T09:13:25Z</time>
      </trkpt>
      <trkpt lat="46.07243" lon="6.77838">
        <ele>1841.8</ele>
        <time>2026-06-26T09:13:26Z</time>
      </trkpt>
      <trkpt lat="46.07243" lon="6.77838">
        <ele>1841.8</ele>
        <time>2026-06-26T09:13:27Z</time>
      </trkpt>
      <trkpt lat="46.07243" lon="6.77838">
        <ele>1841.8</ele>
        <time>2026-06-26T09:13:28Z</time>
      </trkpt>
      <trkpt lat="46.07243" lon="6.77838">
        <ele>1841.9</ele>
        <time>2026-06-26T09:13:29Z</time>
      </trkpt>
      <trkpt lat="46.07242" lon="6.77838">
        <ele>1841.9</ele>
        <time>2026-06-26T09:13:30Z</time>
      </trkpt>
      <trkpt lat="46.07242" lon="6.77838">
        <ele>1842</ele>
        <time>2026-06-26T09:13:31Z</time>
      </trkpt>
      <trkpt lat="46.07242" lon="6.77838">
        <ele>1842</ele>
        <time>2026-06-26T09:13:32Z</time>
      </trkpt>
      <trkpt lat="46.07242" lon="6.77838">
        <ele>1842</ele>
        <time>2026-06-26T09:13:33Z</time>
      </trkpt>
      <trkpt lat="46.07242" lon="6.77838">
        <ele>1841.9</ele>
        <time>2026-06-26T09:13:34Z</time>
      </trkpt>
      <trkpt lat="46.07242" lon="6.77838">
        <ele>1841.9</ele>
        <time>2026-06-26T09:13:35Z</time>
      </trkpt>
      <trkpt lat="46.07242" lon="6.77839">
        <ele>1841.9</ele>
        <time>2026-06-26T09:13:36Z</time>
      </trkpt>
      <trkpt lat="46.07242" lon="6.77839">
        <ele>1841.9</ele>
        <time>2026-06-26T09:13:37Z</time>
      </trkpt>
      <trkpt lat="46.07242" lon="6.77839">
        <ele>1841.9</ele>
        <time>2026-06-26T09:13:38Z</time>
      </trkpt>
      <trkpt lat="46.07242" lon="6.77839">
        <ele>1842</ele>
        <time>2026-06-26T09:13:39Z</time>
      </trkpt>
      <trkpt lat="46.07242" lon="6.77839">
        <ele>1842.1</ele>
        <time>2026-06-26T09:13:40Z</time>
      </trkpt>
      <trkpt lat="46.07242" lon="6.77839">
        <ele>1842.2</ele>
        <time>2026-06-26T09:13:41Z</time>
      </trkpt>
      <trkpt lat="46.07242" lon="6.77839">
        <ele>1842.2</ele>
        <time>2026-06-26T09:13:42Z</time>
      </trkpt>
      <trkpt lat="46.07242" lon="6.77839">
        <ele>1842.2</ele>
        <time>2026-06-26T09:13:43Z</time>
      </trkpt>
      <trkpt lat="46.07242" lon="6.77839">
        <ele>1842.3</ele>
        <time>2026-06-26T09:13:44Z</time>
      </trkpt>
      <trkpt lat="46.07242" lon="6.77839">
        <ele>1842.4</ele>
        <time>2026-06-26T09:13:45Z</time>
      </trkpt>
      <trkpt lat="46.07242" lon="6.77839">
        <ele>1842.3</ele>
        <time>2026-06-26T09:13:46Z</time>
      </trkpt>
      <trkpt lat="46.07242" lon="6.77839">
        <ele>1842.3</ele>
        <time>2026-06-26T09:13:47Z</time>
      </trkpt>
      <trkpt lat="46.07242" lon="6.77839">
        <ele>1842.4</ele>
        <time>2026-06-26T09:13:48Z</time>
      </trkpt>
      <trkpt lat="46.07242" lon="6.77839">
        <ele>1842.4</ele>
        <time>2026-06-26T09:13:49Z</time>
      </trkpt>
      <trkpt lat="46.07242" lon="6.77839">
        <ele>1842.5</ele>
        <time>2026-06-26T09:13:50Z</time>
      </trkpt>
      <trkpt lat="46.07242" lon="6.77838">
        <ele>1842.5</ele>
        <time>2026-06-26T09:13:51Z</time>
      </trkpt>
      <trkpt lat="46.07242" lon="6.77838">
        <ele>1842.6</ele>
        <time>2026-06-26T09:13:52Z</time>
      </trkpt>
      <trkpt lat="46.07242" lon="6.77838">
        <ele>1842.7</ele>
        <time>2026-06-26T09:13:53Z</time>
      </trkpt>
      <trkpt lat="46.07242" lon="6.77838">
        <ele>1842.7</ele>
        <time>2026-06-26T09:13:54Z</time>
      </trkpt>
      <trkpt lat="46.07242" lon="6.77838">
        <ele>1842.7</ele>
        <time>2026-06-26T09:13:55Z</time>
      </trkpt>
      <trkpt lat="46.07242" lon="6.77838">
        <ele>1842.7</ele>
        <time>2026-06-26T09:13:56Z</time>
      </trkpt>
      <trkpt lat="46.07242" lon="6.77838">
        <ele>1842.7</ele>
        <time>2026-06-26T09:13:57Z</time>
      </trkpt>
      <trkpt lat="46.07242" lon="6.77838">
        <ele>1842.7</ele>
        <time>2026-06-26T09:13:58Z</time>
      </trkpt>
      <trkpt lat="46.07242" lon="6.77838">
        <ele>1842.7</ele>
        <time>2026-06-26T09:13:59Z</time>
      </trkpt>
      <trkpt lat="46.07242" lon="6.77838">
        <ele>1842.8</ele>
        <time>2026-06-26T09:14:00Z</time>
      </trkpt>
      <trkpt lat="46.07242" lon="6.77838">
        <ele>1842.8</ele>
        <time>2026-06-26T09:14:01Z</time>
      </trkpt>
      <trkpt lat="46.07242" lon="6.77838">
        <ele>1842.8</ele>
        <time>2026-06-26T09:14:02Z</time>
      </trkpt>
      <trkpt lat="46.07242" lon="6.77838">
        <ele>1842.8</ele>
        <time>2026-06-26T09:14:03Z</time>
      </trkpt>
      <trkpt lat="46.07242" lon="6.77838">
        <ele>1842.9</ele>
        <time>2026-06-26T09:14:04Z</time>
      </trkpt>
      <trkpt lat="46.07242" lon="6.77839">
        <ele>1842.9</ele>
        <time>2026-06-26T09:14:05Z</time>
      </trkpt>
      <trkpt lat="46.07242" lon="6.77839">
        <ele>1843</ele>
        <time>2026-06-26T09:14:06Z</time>
      </trkpt>
      <trkpt lat="46.07242" lon="6.77838">
        <ele>1843</ele>
        <time>2026-06-26T09:14:07Z</time>
      </trkpt>
      <trkpt lat="46.07242" lon="6.77838">
        <ele>1843</ele>
        <time>2026-06-26T09:14:08Z</time>
      </trkpt>
      <trkpt lat="46.07242" lon="6.77838">
        <ele>1843</ele>
        <time>2026-06-26T09:14:09Z</time>
      </trkpt>
      <trkpt lat="46.07242" lon="6.77838">
        <ele>1843</ele>
        <time>2026-06-26T09:14:10Z</time>
      </trkpt>
      <trkpt lat="46.07242" lon="6.77838">
        <ele>1843</ele>
        <time>2026-06-26T09:14:11Z</time>
      </trkpt>
      <trkpt lat="46.07242" lon="6.77838">
        <ele>1843</ele>
        <time>2026-06-26T09:14:12Z</time>
      </trkpt>
      <trkpt lat="46.07242" lon="6.77838">
        <ele>1843</ele>
        <time>2026-06-26T09:14:13Z</time>
      </trkpt>
      <trkpt lat="46.07242" lon="6.77838">
        <ele>1843</ele>
        <time>2026-06-26T09:14:14Z</time>
      </trkpt>
      <trkpt lat="46.07242" lon="6.77838">
        <ele>1843.1</ele>
        <time>2026-06-26T09:14:15Z</time>
      </trkpt>
      <trkpt lat="46.07242" lon="6.77838">
        <ele>1843.2</ele>
        <time>2026-06-26T09:14:16Z</time>
      </trkpt>
      <trkpt lat="46.07242" lon="6.77838">
        <ele>1843.2</ele>
        <time>2026-06-26T09:14:17Z</time>
      </trkpt>
      <trkpt lat="46.07242" lon="6.77838">
        <ele>1843.3</ele>
        <time>2026-06-26T09:14:18Z</time>
      </trkpt>
      <trkpt lat="46.07242" lon="6.77838">
        <ele>1843.3</ele>
        <time>2026-06-26T09:14:19Z</time>
      </trkpt>
      <trkpt lat="46.07242" lon="6.77838">
        <ele>1843.3</ele>
        <time>2026-06-26T09:14:20Z</time>
      </trkpt>
      <trkpt lat="46.07242" lon="6.77837">
        <ele>1843.3</ele>
        <time>2026-06-26T09:14:21Z</time>
      </trkpt>
      <trkpt lat="46.07242" lon="6.77837">
        <ele>1843.4</ele>
        <time>2026-06-26T09:14:22Z</time>
      </trkpt>
      <trkpt lat="46.07242" lon="6.77837">
        <ele>1843.4</ele>
        <time>2026-06-26T09:14:23Z</time>
      </trkpt>
      <trkpt lat="46.07242" lon="6.77837">
        <ele>1843.3</ele>
        <time>2026-06-26T09:14:24Z</time>
      </trkpt>
      <trkpt lat="46.07242" lon="6.77837">
        <ele>1843.4</ele>
        <time>2026-06-26T09:14:25Z</time>
      </trkpt>
      <trkpt lat="46.07242" lon="6.77837">
        <ele>1843.4</ele>
        <time>2026-06-26T09:14:26Z</time>
      </trkpt>
      <trkpt lat="46.07242" lon="6.77837">
        <ele>1843.5</ele>
        <time>2026-06-26T09:14:27Z</time>
      </trkpt>
      <trkpt lat="46.07242" lon="6.77837">
        <ele>1843.5</ele>
        <time>2026-06-26T09:14:28Z</time>
      </trkpt>
      <trkpt lat="46.07242" lon="6.77837">
        <ele>1843.6</ele>
        <time>2026-06-26T09:14:29Z</time>
      </trkpt>
      <trkpt lat="46.07242" lon="6.77837">
        <ele>1843.7</ele>
        <time>2026-06-26T09:14:30Z</time>
      </trkpt>
      <trkpt lat="46.07242" lon="6.77837">
        <ele>1843.7</ele>
        <time>2026-06-26T09:14:31Z</time>
      </trkpt>
      <trkpt lat="46.07241" lon="6.77836">
        <ele>1843.7</ele>
        <time>2026-06-26T09:14:32Z</time>
      </trkpt>
      <trkpt lat="46.07241" lon="6.77836">
        <ele>1843.8</ele>
        <time>2026-06-26T09:14:33Z</time>
      </trkpt>
      <trkpt lat="46.07241" lon="6.77836">
        <ele>1843.8</ele>
        <time>2026-06-26T09:14:34Z</time>
      </trkpt>
      <trkpt lat="46.07241" lon="6.77836">
        <ele>1843.8</ele>
        <time>2026-06-26T09:14:35Z</time>
      </trkpt>
      <trkpt lat="46.07241" lon="6.77836">
        <ele>1843.8</ele>
        <time>2026-06-26T09:14:36Z</time>
      </trkpt>
      <trkpt lat="46.07241" lon="6.77836">
        <ele>1843.8</ele>
        <time>2026-06-26T09:14:37Z</time>
      </trkpt>
      <trkpt lat="46.07241" lon="6.77836">
        <ele>1843.8</ele>
        <time>2026-06-26T09:14:38Z</time>
      </trkpt>
      <trkpt lat="46.07241" lon="6.77836">
        <ele>1843.9</ele>
        <time>2026-06-26T09:14:39Z</time>
      </trkpt>
      <trkpt lat="46.07241" lon="6.77835">
        <ele>1843.9</ele>
        <time>2026-06-26T09:14:40Z</time>
      </trkpt>
      <trkpt lat="46.07241" lon="6.77835">
        <ele>1843.9</ele>
        <time>2026-06-26T09:14:41Z</time>
      </trkpt>
      <trkpt lat="46.07241" lon="6.77835">
        <ele>1844</ele>
        <time>2026-06-26T09:14:42Z</time>
      </trkpt>
      <trkpt lat="46.07241" lon="6.77835">
        <ele>1844.1</ele>
        <time>2026-06-26T09:14:43Z</time>
      </trkpt>
      <trkpt lat="46.07241" lon="6.77835">
        <ele>1844.1</ele>
        <time>2026-06-26T09:14:44Z</time>
      </trkpt>
      <trkpt lat="46.07241" lon="6.77835">
        <ele>1844.1</ele>
        <time>2026-06-26T09:14:45Z</time>
      </trkpt>
      <trkpt lat="46.07241" lon="6.77835">
        <ele>1844.1</ele>
        <time>2026-06-26T09:14:46Z</time>
      </trkpt>
      <trkpt lat="46.07241" lon="6.77835">
        <ele>1844.2</ele>
        <time>2026-06-26T09:14:47Z</time>
      </trkpt>
      <trkpt lat="46.07241" lon="6.77835">
        <ele>1844.2</ele>
        <time>2026-06-26T09:14:48Z</time>
      </trkpt>
      <trkpt lat="46.0724" lon="6.77835">
        <ele>1844.2</ele>
        <time>2026-06-26T09:14:49Z</time>
      </trkpt>
      <trkpt lat="46.07241" lon="6.77835">
        <ele>1844.3</ele>
        <time>2026-06-26T09:14:50Z</time>
      </trkpt>
      <trkpt lat="46.07241" lon="6.77834">
        <ele>1844.3</ele>
        <time>2026-06-26T09:14:51Z</time>
      </trkpt>
      <trkpt lat="46.07241" lon="6.77835">
        <ele>1844.4</ele>
        <time>2026-06-26T09:14:52Z</time>
      </trkpt>
      <trkpt lat="46.07241" lon="6.77834">
        <ele>1844.5</ele>
        <time>2026-06-26T09:14:53Z</time>
      </trkpt>
      <trkpt lat="46.07241" lon="6.77834">
        <ele>1844.5</ele>
        <time>2026-06-26T09:14:54Z</time>
      </trkpt>
      <trkpt lat="46.07242" lon="6.77835">
        <ele>1844.5</ele>
        <time>2026-06-26T09:14:55Z</time>
      </trkpt>
      <trkpt lat="46.07242" lon="6.77834">
        <ele>1844.5</ele>
        <time>2026-06-26T09:14:56Z</time>
      </trkpt>
      <trkpt lat="46.07242" lon="6.77834">
        <ele>1844.5</ele>
        <time>2026-06-26T09:14:57Z</time>
      </trkpt>
      <trkpt lat="46.07242" lon="6.77834">
        <ele>1844.5</ele>
        <time>2026-06-26T09:14:58Z</time>
      </trkpt>
      <trkpt lat="46.07242" lon="6.77834">
        <ele>1844.6</ele>
        <time>2026-06-26T09:14:59Z</time>
      </trkpt>
      <trkpt lat="46.07242" lon="6.77834">
        <ele>1844.6</ele>
        <time>2026-06-26T09:15:00Z</time>
      </trkpt>
      <trkpt lat="46.07242" lon="6.77834">
        <ele>1844.6</ele>
        <time>2026-06-26T09:15:01Z</time>
      </trkpt>
      <trkpt lat="46.07242" lon="6.77834">
        <ele>1844.7</ele>
        <time>2026-06-26T09:15:02Z</time>
      </trkpt>
      <trkpt lat="46.07242" lon="6.77834">
        <ele>1844.7</ele>
        <time>2026-06-26T09:15:03Z</time>
      </trkpt>
      <trkpt lat="46.07242" lon="6.77834">
        <ele>1844.7</ele>
        <time>2026-06-26T09:15:04Z</time>
      </trkpt>
      <trkpt lat="46.07242" lon="6.77834">
        <ele>1844.8</ele>
        <time>2026-06-26T09:15:05Z</time>
      </trkpt>
      <trkpt lat="46.07242" lon="6.77834">
        <ele>1844.8</ele>
        <time>2026-06-26T09:15:06Z</time>
      </trkpt>
      <trkpt lat="46.07242" lon="6.77834">
        <ele>1844.8</ele>
        <time>2026-06-26T09:15:07Z</time>
      </trkpt>
      <trkpt lat="46.07243" lon="6.77834">
        <ele>1844.9</ele>
        <time>2026-06-26T09:15:08Z</time>
      </trkpt>
      <trkpt lat="46.07243" lon="6.77834">
        <ele>1844.9</ele>
        <time>2026-06-26T09:15:09Z</time>
      </trkpt>
      <trkpt lat="46.07242" lon="6.77834">
        <ele>1844.8</ele>
        <time>2026-06-26T09:15:10Z</time>
      </trkpt>
      <trkpt lat="46.07242" lon="6.77834">
        <ele>1844.8</ele>
        <time>2026-06-26T09:15:11Z</time>
      </trkpt>
      <trkpt lat="46.07242" lon="6.77834">
        <ele>1844.8</ele>
        <time>2026-06-26T09:15:12Z</time>
      </trkpt>
      <trkpt lat="46.07242" lon="6.77834">
        <ele>1844.8</ele>
        <time>2026-06-26T09:15:13Z</time>
      </trkpt>
      <trkpt lat="46.07242" lon="6.77834">
        <ele>1844.8</ele>
        <time>2026-06-26T09:15:14Z</time>
      </trkpt>
      <trkpt lat="46.07242" lon="6.77834">
        <ele>1844.8</ele>
        <time>2026-06-26T09:15:15Z</time>
      </trkpt>
      <trkpt lat="46.07242" lon="6.77834">
        <ele>1844.9</ele>
        <time>2026-06-26T09:15:16Z</time>
      </trkpt>
      <trkpt lat="46.07242" lon="6.77834">
        <ele>1844.9</ele>
        <time>2026-06-26T09:15:17Z</time>
      </trkpt>
      <trkpt lat="46.07242" lon="6.77834">
        <ele>1844.9</ele>
        <time>2026-06-26T09:15:18Z</time>
      </trkpt>
      <trkpt lat="46.07242" lon="6.77834">
        <ele>1845</ele>
        <time>2026-06-26T09:15:19Z</time>
      </trkpt>
      <trkpt lat="46.07242" lon="6.77833">
        <ele>1845.1</ele>
        <time>2026-06-26T09:15:20Z</time>
      </trkpt>
      <trkpt lat="46.07242" lon="6.77833">
        <ele>1845.2</ele>
        <time>2026-06-26T09:15:21Z</time>
      </trkpt>
      <trkpt lat="46.07242" lon="6.77833">
        <ele>1845.2</ele>
        <time>2026-06-26T09:15:22Z</time>
      </trkpt>
      <trkpt lat="46.07242" lon="6.77833">
        <ele>1845.3</ele>
        <time>2026-06-26T09:15:23Z</time>
      </trkpt>
      <trkpt lat="46.07242" lon="6.77833">
        <ele>1845.3</ele>
        <time>2026-06-26T09:15:24Z</time>
      </trkpt>
      <trkpt lat="46.07242" lon="6.77833">
        <ele>1845.4</ele>
        <time>2026-06-26T09:15:25Z</time>
      </trkpt>
      <trkpt lat="46.07242" lon="6.77833">
        <ele>1845.4</ele>
        <time>2026-06-26T09:15:26Z</time>
      </trkpt>
      <trkpt lat="46.07242" lon="6.77833">
        <ele>1845.4</ele>
        <time>2026-06-26T09:15:27Z</time>
      </trkpt>
      <trkpt lat="46.07242" lon="6.77833">
        <ele>1845.5</ele>
        <time>2026-06-26T09:15:28Z</time>
      </trkpt>
      <trkpt lat="46.07242" lon="6.77833">
        <ele>1845.5</ele>
        <time>2026-06-26T09:15:29Z</time>
      </trkpt>
      <trkpt lat="46.07242" lon="6.77833">
        <ele>1845.5</ele>
        <time>2026-06-26T09:15:30Z</time>
      </trkpt>
      <trkpt lat="46.07242" lon="6.77833">
        <ele>1845.5</ele>
        <time>2026-06-26T09:15:31Z</time>
      </trkpt>
      <trkpt lat="46.07242" lon="6.77833">
        <ele>1845.6</ele>
        <time>2026-06-26T09:15:32Z</time>
      </trkpt>
      <trkpt lat="46.07243" lon="6.77833">
        <ele>1845.5</ele>
        <time>2026-06-26T09:15:33Z</time>
      </trkpt>
      <trkpt lat="46.07243" lon="6.77833">
        <ele>1845.5</ele>
        <time>2026-06-26T09:15:34Z</time>
      </trkpt>
      <trkpt lat="46.07242" lon="6.77833">
        <ele>1845.6</ele>
        <time>2026-06-26T09:15:35Z</time>
      </trkpt>
      <trkpt lat="46.07242" lon="6.77832">
        <ele>1845.5</ele>
        <time>2026-06-26T09:15:36Z</time>
      </trkpt>
      <trkpt lat="46.07242" lon="6.77832">
        <ele>1845.6</ele>
        <time>2026-06-26T09:15:37Z</time>
      </trkpt>
      <trkpt lat="46.07242" lon="6.77832">
        <ele>1845.6</ele>
        <time>2026-06-26T09:15:38Z</time>
      </trkpt>
      <trkpt lat="46.07242" lon="6.77832">
        <ele>1845.5</ele>
        <time>2026-06-26T09:15:39Z</time>
      </trkpt>
      <trkpt lat="46.07242" lon="6.77832">
        <ele>1845.5</ele>
        <time>2026-06-26T09:15:40Z</time>
      </trkpt>
      <trkpt lat="46.07242" lon="6.77832">
        <ele>1845.5</ele>
        <time>2026-06-26T09:15:41Z</time>
      </trkpt>
      <trkpt lat="46.07242" lon="6.77833">
        <ele>1845.7</ele>
        <time>2026-06-26T09:15:42Z</time>
      </trkpt>
      <trkpt lat="46.07242" lon="6.77833">
        <ele>1845.8</ele>
        <time>2026-06-26T09:15:43Z</time>
      </trkpt>
      <trkpt lat="46.07242" lon="6.77833">
        <ele>1845.9</ele>
        <time>2026-06-26T09:15:44Z</time>
      </trkpt>
      <trkpt lat="46.07242" lon="6.77833">
        <ele>1845.9</ele>
        <time>2026-06-26T09:15:45Z</time>
      </trkpt>
      <trkpt lat="46.07242" lon="6.77833">
        <ele>1845.9</ele>
        <time>2026-06-26T09:15:46Z</time>
      </trkpt>
      <trkpt lat="46.07242" lon="6.77833">
        <ele>1845.9</ele>
        <time>2026-06-26T09:15:47Z</time>
      </trkpt>
      <trkpt lat="46.07242" lon="6.77833">
        <ele>1845.9</ele>
        <time>2026-06-26T09:15:48Z</time>
      </trkpt>
      <trkpt lat="46.07242" lon="6.77833">
        <ele>1845.9</ele>
        <time>2026-06-26T09:15:49Z</time>
      </trkpt>
      <trkpt lat="46.07242" lon="6.77833">
        <ele>1846</ele>
        <time>2026-06-26T09:15:50Z</time>
      </trkpt>
      <trkpt lat="46.07242" lon="6.77833">
        <ele>1846</ele>
        <time>2026-06-26T09:15:51Z</time>
      </trkpt>
      <trkpt lat="46.07242" lon="6.77833">
        <ele>1846</ele>
        <time>2026-06-26T09:15:52Z</time>
      </trkpt>
      <trkpt lat="46.07243" lon="6.77833">
        <ele>1846</ele>
        <time>2026-06-26T09:15:53Z</time>
      </trkpt>
      <trkpt lat="46.07243" lon="6.77833">
        <ele>1846.1</ele>
        <time>2026-06-26T09:15:54Z</time>
      </trkpt>
      <trkpt lat="46.07243" lon="6.77833">
        <ele>1846.1</ele>
        <time>2026-06-26T09:15:55Z</time>
      </trkpt>
      <trkpt lat="46.07243" lon="6.77834">
        <ele>1846.2</ele>
        <time>2026-06-26T09:15:56Z</time>
      </trkpt>
      <trkpt lat="46.07243" lon="6.77834">
        <ele>1846.2</ele>
        <time>2026-06-26T09:15:57Z</time>
      </trkpt>
      <trkpt lat="46.07243" lon="6.77834">
        <ele>1846.2</ele>
        <time>2026-06-26T09:15:58Z</time>
      </trkpt>
      <trkpt lat="46.07243" lon="6.77834">
        <ele>1846.1</ele>
        <time>2026-06-26T09:15:59Z</time>
      </trkpt>
      <trkpt lat="46.07244" lon="6.77835">
        <ele>1846</ele>
        <time>2026-06-26T09:16:00Z</time>
      </trkpt>
      <trkpt lat="46.07245" lon="6.77835">
        <ele>1845.8</ele>
        <time>2026-06-26T09:16:01Z</time>
      </trkpt>
      <trkpt lat="46.07245" lon="6.77835">
        <ele>1845.7</ele>
        <time>2026-06-26T09:16:02Z</time>
      </trkpt>
      <trkpt lat="46.07246" lon="6.77836">
        <ele>1845.6</ele>
        <time>2026-06-26T09:16:03Z</time>
      </trkpt>
      <trkpt lat="46.07246" lon="6.77837">
        <ele>1845.5</ele>
        <time>2026-06-26T09:16:04Z</time>
      </trkpt>
      <trkpt lat="46.07247" lon="6.77838">
        <ele>1845.4</ele>
        <time>2026-06-26T09:16:05Z</time>
      </trkpt>
      <trkpt lat="46.07248" lon="6.77838">
        <ele>1845.3</ele>
        <time>2026-06-26T09:16:06Z</time>
      </trkpt>
      <trkpt lat="46.07249" lon="6.77839">
        <ele>1845.2</ele>
        <time>2026-06-26T09:16:07Z</time>
      </trkpt>
      <trkpt lat="46.07249" lon="6.77839">
        <ele>1845.3</ele>
        <time>2026-06-26T09:16:08Z</time>
      </trkpt>
      <trkpt lat="46.0725" lon="6.77839">
        <ele>1845.4</ele>
        <time>2026-06-26T09:16:09Z</time>
      </trkpt>
      <trkpt lat="46.07251" lon="6.7784">
        <ele>1845.4</ele>
        <time>2026-06-26T09:16:10Z</time>
      </trkpt>
      <trkpt lat="46.07252" lon="6.77839">
        <ele>1845.5</ele>
        <time>2026-06-26T09:16:11Z</time>
      </trkpt>
      <trkpt lat="46.07252" lon="6.77839">
        <ele>1845.6</ele>
        <time>2026-06-26T09:16:12Z</time>
      </trkpt>
      <trkpt lat="46.07253" lon="6.77839">
        <ele>1845.7</ele>
        <time>2026-06-26T09:16:13Z</time>
      </trkpt>
      <trkpt lat="46.07254" lon="6.77838">
        <ele>1845.9</ele>
        <time>2026-06-26T09:16:14Z</time>
      </trkpt>
      <trkpt lat="46.07255" lon="6.77838">
        <ele>1846.1</ele>
        <time>2026-06-26T09:16:15Z</time>
      </trkpt>
      <trkpt lat="46.07256" lon="6.77838">
        <ele>1846.3</ele>
        <time>2026-06-26T09:16:16Z</time>
      </trkpt>
      <trkpt lat="46.07257" lon="6.77838">
        <ele>1846.5</ele>
        <time>2026-06-26T09:16:17Z</time>
      </trkpt>
      <trkpt lat="46.07258" lon="6.77838">
        <ele>1846.7</ele>
        <time>2026-06-26T09:16:18Z</time>
      </trkpt>
      <trkpt lat="46.07259" lon="6.77838">
        <ele>1846.8</ele>
        <time>2026-06-26T09:16:19Z</time>
      </trkpt>
      <trkpt lat="46.0726" lon="6.77837">
        <ele>1846.9</ele>
        <time>2026-06-26T09:16:20Z</time>
      </trkpt>
      <trkpt lat="46.07261" lon="6.77837">
        <ele>1847</ele>
        <time>2026-06-26T09:16:21Z</time>
      </trkpt>
      <trkpt lat="46.07262" lon="6.77837">
        <ele>1847.1</ele>
        <time>2026-06-26T09:16:22Z</time>
      </trkpt>
      <trkpt lat="46.07263" lon="6.77837">
        <ele>1847.1</ele>
        <time>2026-06-26T09:16:23Z</time>
      </trkpt>
      <trkpt lat="46.07264" lon="6.77837">
        <ele>1847.2</ele>
        <time>2026-06-26T09:16:24Z</time>
      </trkpt>
      <trkpt lat="46.07265" lon="6.77837">
        <ele>1847.2</ele>
        <time>2026-06-26T09:16:25Z</time>
      </trkpt>
      <trkpt lat="46.07266" lon="6.77836">
        <ele>1847.2</ele>
        <time>2026-06-26T09:16:26Z</time>
      </trkpt>
      <trkpt lat="46.07266" lon="6.77837">
        <ele>1847.2</ele>
        <time>2026-06-26T09:16:27Z</time>
      </trkpt>
      <trkpt lat="46.07267" lon="6.77837">
        <ele>1847.2</ele>
        <time>2026-06-26T09:16:28Z</time>
      </trkpt>
      <trkpt lat="46.07268" lon="6.77837">
        <ele>1847.1</ele>
        <time>2026-06-26T09:16:29Z</time>
      </trkpt>
      <trkpt lat="46.07269" lon="6.77838">
        <ele>1847.1</ele>
        <time>2026-06-26T09:16:30Z</time>
      </trkpt>
      <trkpt lat="46.0727" lon="6.77837">
        <ele>1847</ele>
        <time>2026-06-26T09:16:31Z</time>
      </trkpt>
      <trkpt lat="46.07271" lon="6.77837">
        <ele>1846.9</ele>
        <time>2026-06-26T09:16:32Z</time>
      </trkpt>
      <trkpt lat="46.07272" lon="6.77837">
        <ele>1846.7</ele>
        <time>2026-06-26T09:16:33Z</time>
      </trkpt>
      <trkpt lat="46.07272" lon="6.77836">
        <ele>1846.7</ele>
        <time>2026-06-26T09:16:34Z</time>
      </trkpt>
      <trkpt lat="46.07273" lon="6.77836">
        <ele>1846.6</ele>
        <time>2026-06-26T09:16:35Z</time>
      </trkpt>
      <trkpt lat="46.07273" lon="6.77835">
        <ele>1846.5</ele>
        <time>2026-06-26T09:16:36Z</time>
      </trkpt>
      <trkpt lat="46.07273" lon="6.77835">
        <ele>1846.4</ele>
        <time>2026-06-26T09:16:37Z</time>
      </trkpt>
      <trkpt lat="46.07274" lon="6.77835">
        <ele>1846.3</ele>
        <time>2026-06-26T09:16:38Z</time>
      </trkpt>
      <trkpt lat="46.07274" lon="6.77835">
        <ele>1846.2</ele>
        <time>2026-06-26T09:16:39Z</time>
      </trkpt>
      <trkpt lat="46.07274" lon="6.77835">
        <ele>1846.1</ele>
        <time>2026-06-26T09:16:40Z</time>
      </trkpt>
      <trkpt lat="46.07274" lon="6.77836">
        <ele>1846.2</ele>
        <time>2026-06-26T09:16:41Z</time>
      </trkpt>
      <trkpt lat="46.07275" lon="6.77836">
        <ele>1846.2</ele>
        <time>2026-06-26T09:16:42Z</time>
      </trkpt>
      <trkpt lat="46.07275" lon="6.77836">
        <ele>1846.1</ele>
        <time>2026-06-26T09:16:43Z</time>
      </trkpt>
      <trkpt lat="46.07275" lon="6.77837">
        <ele>1846</ele>
        <time>2026-06-26T09:16:44Z</time>
      </trkpt>
      <trkpt lat="46.07276" lon="6.77838">
        <ele>1845.9</ele>
        <time>2026-06-26T09:16:45Z</time>
      </trkpt>
      <trkpt lat="46.07276" lon="6.77839">
        <ele>1845.8</ele>
        <time>2026-06-26T09:16:46Z</time>
      </trkpt>
      <trkpt lat="46.07276" lon="6.77841">
        <ele>1845.8</ele>
        <time>2026-06-26T09:16:47Z</time>
      </trkpt>
      <trkpt lat="46.07276" lon="6.77842">
        <ele>1845.8</ele>
        <time>2026-06-26T09:16:48Z</time>
      </trkpt>
      <trkpt lat="46.07276" lon="6.77843">
        <ele>1845.7</ele>
        <time>2026-06-26T09:16:49Z</time>
      </trkpt>
      <trkpt lat="46.07276" lon="6.77844">
        <ele>1845.7</ele>
        <time>2026-06-26T09:16:50Z</time>
      </trkpt>
      <trkpt lat="46.07276" lon="6.77844">
        <ele>1845.6</ele>
        <time>2026-06-26T09:16:51Z</time>
      </trkpt>
      <trkpt lat="46.07277" lon="6.77845">
        <ele>1845.5</ele>
        <time>2026-06-26T09:16:52Z</time>
      </trkpt>
      <trkpt lat="46.07277" lon="6.77846">
        <ele>1845.4</ele>
        <time>2026-06-26T09:16:53Z</time>
      </trkpt>
      <trkpt lat="46.07277" lon="6.77846">
        <ele>1845.3</ele>
        <time>2026-06-26T09:16:54Z</time>
      </trkpt>
      <trkpt lat="46.07277" lon="6.77846">
        <ele>1845.2</ele>
        <time>2026-06-26T09:16:55Z</time>
      </trkpt>
      <trkpt lat="46.07277" lon="6.77846">
        <ele>1845.3</ele>
        <time>2026-06-26T09:16:56Z</time>
      </trkpt>
      <trkpt lat="46.07277" lon="6.77846">
        <ele>1845.3</ele>
        <time>2026-06-26T09:16:57Z</time>
      </trkpt>
      <trkpt lat="46.07277" lon="6.77846">
        <ele>1845.2</ele>
        <time>2026-06-26T09:16:58Z</time>
      </trkpt>
      <trkpt lat="46.07277" lon="6.77846">
        <ele>1845</ele>
        <time>2026-06-26T09:16:59Z</time>
      </trkpt>
      <trkpt lat="46.07277" lon="6.77846">
        <ele>1844.9</ele>
        <time>2026-06-26T09:17:00Z</time>
      </trkpt>
      <trkpt lat="46.07277" lon="6.77846">
        <ele>1844.8</ele>
        <time>2026-06-26T09:17:01Z</time>
      </trkpt>
      <trkpt lat="46.07277" lon="6.77846">
        <ele>1844.7</ele>
        <time>2026-06-26T09:17:02Z</time>
      </trkpt>
      <trkpt lat="46.07277" lon="6.77846">
        <ele>1844.6</ele>
        <time>2026-06-26T09:17:03Z</time>
      </trkpt>
      <trkpt lat="46.07277" lon="6.77846">
        <ele>1844.5</ele>
        <time>2026-06-26T09:17:04Z</time>
      </trkpt>
      <trkpt lat="46.07277" lon="6.77846">
        <ele>1844.5</ele>
        <time>2026-06-26T09:17:05Z</time>
      </trkpt>
      <trkpt lat="46.07278" lon="6.77846">
        <ele>1844.5</ele>
        <time>2026-06-26T09:17:06Z</time>
      </trkpt>
      <trkpt lat="46.07279" lon="6.77847">
        <ele>1844.5</ele>
        <time>2026-06-26T09:17:07Z</time>
      </trkpt>
      <trkpt lat="46.0728" lon="6.77847">
        <ele>1844.5</ele>
        <time>2026-06-26T09:17:08Z</time>
      </trkpt>
      <trkpt lat="46.0728" lon="6.77846">
        <ele>1844.5</ele>
        <time>2026-06-26T09:17:09Z</time>
      </trkpt>
      <trkpt lat="46.07281" lon="6.77846">
        <ele>1844.5</ele>
        <time>2026-06-26T09:17:10Z</time>
      </trkpt>
      <trkpt lat="46.07282" lon="6.77846">
        <ele>1844.5</ele>
        <time>2026-06-26T09:17:11Z</time>
      </trkpt>
      <trkpt lat="46.07283" lon="6.77846">
        <ele>1844.5</ele>
        <time>2026-06-26T09:17:12Z</time>
      </trkpt>
      <trkpt lat="46.07284" lon="6.77846">
        <ele>1844.5</ele>
        <time>2026-06-26T09:17:13Z</time>
      </trkpt>
      <trkpt lat="46.07286" lon="6.77846">
        <ele>1844.6</ele>
        <time>2026-06-26T09:17:14Z</time>
      </trkpt>
      <trkpt lat="46.07287" lon="6.77846">
        <ele>1844.7</ele>
        <time>2026-06-26T09:17:15Z</time>
      </trkpt>
      <trkpt lat="46.07288" lon="6.77846">
        <ele>1844.7</ele>
        <time>2026-06-26T09:17:16Z</time>
      </trkpt>
      <trkpt lat="46.07289" lon="6.77846">
        <ele>1844.7</ele>
        <time>2026-06-26T09:17:17Z</time>
      </trkpt>
      <trkpt lat="46.07289" lon="6.77845">
        <ele>1844.7</ele>
        <time>2026-06-26T09:17:18Z</time>
      </trkpt>
      <trkpt lat="46.07291" lon="6.77845">
        <ele>1844.6</ele>
        <time>2026-06-26T09:17:19Z</time>
      </trkpt>
      <trkpt lat="46.07292" lon="6.77845">
        <ele>1844.6</ele>
        <time>2026-06-26T09:17:20Z</time>
      </trkpt>
      <trkpt lat="46.07294" lon="6.77845">
        <ele>1844.6</ele>
        <time>2026-06-26T09:17:21Z</time>
      </trkpt>
      <trkpt lat="46.07296" lon="6.77845">
        <ele>1844.5</ele>
        <time>2026-06-26T09:17:22Z</time>
      </trkpt>
      <trkpt lat="46.07297" lon="6.77845">
        <ele>1844.4</ele>
        <time>2026-06-26T09:17:23Z</time>
      </trkpt>
      <trkpt lat="46.07297" lon="6.77844">
        <ele>1844.4</ele>
        <time>2026-06-26T09:17:24Z</time>
      </trkpt>
      <trkpt lat="46.07297" lon="6.77844">
        <ele>1844.5</ele>
        <time>2026-06-26T09:17:25Z</time>
      </trkpt>
      <trkpt lat="46.07297" lon="6.77844">
        <ele>1844.4</ele>
        <time>2026-06-26T09:17:26Z</time>
      </trkpt>
      <trkpt lat="46.07297" lon="6.77844">
        <ele>1844.5</ele>
        <time>2026-06-26T09:17:27Z</time>
      </trkpt>
      <trkpt lat="46.073" lon="6.77844">
        <ele>1844.7</ele>
        <time>2026-06-26T09:17:28Z</time>
      </trkpt>
      <trkpt lat="46.07301" lon="6.77844">
        <ele>1844.9</ele>
        <time>2026-06-26T09:17:29Z</time>
      </trkpt>
      <trkpt lat="46.07302" lon="6.77844">
        <ele>1845</ele>
        <time>2026-06-26T09:17:30Z</time>
      </trkpt>
      <trkpt lat="46.07303" lon="6.77844">
        <ele>1845.1</ele>
        <time>2026-06-26T09:17:31Z</time>
      </trkpt>
      <trkpt lat="46.07303" lon="6.77845">
        <ele>1845.2</ele>
        <time>2026-06-26T09:17:32Z</time>
      </trkpt>
      <trkpt lat="46.07303" lon="6.77845">
        <ele>1845.3</ele>
        <time>2026-06-26T09:17:33Z</time>
      </trkpt>
      <trkpt lat="46.07304" lon="6.77846">
        <ele>1845.2</ele>
        <time>2026-06-26T09:17:34Z</time>
      </trkpt>
      <trkpt lat="46.07304" lon="6.77846">
        <ele>1845.3</ele>
        <time>2026-06-26T09:17:35Z</time>
      </trkpt>
      <trkpt lat="46.07304" lon="6.77847">
        <ele>1845.3</ele>
        <time>2026-06-26T09:17:36Z</time>
      </trkpt>
      <trkpt lat="46.07305" lon="6.77848">
        <ele>1845.3</ele>
        <time>2026-06-26T09:17:37Z</time>
      </trkpt>
      <trkpt lat="46.07304" lon="6.77849">
        <ele>1845.3</ele>
        <time>2026-06-26T09:17:38Z</time>
      </trkpt>
      <trkpt lat="46.07304" lon="6.7785">
        <ele>1845.2</ele>
        <time>2026-06-26T09:17:39Z</time>
      </trkpt>
      <trkpt lat="46.07304" lon="6.77851">
        <ele>1845.2</ele>
        <time>2026-06-26T09:17:40Z</time>
      </trkpt>
      <trkpt lat="46.07304" lon="6.77852">
        <ele>1845.1</ele>
        <time>2026-06-26T09:17:41Z</time>
      </trkpt>
      <trkpt lat="46.07304" lon="6.77854">
        <ele>1845</ele>
        <time>2026-06-26T09:17:42Z</time>
      </trkpt>
      <trkpt lat="46.07304" lon="6.77855">
        <ele>1844.9</ele>
        <time>2026-06-26T09:17:43Z</time>
      </trkpt>
      <trkpt lat="46.07303" lon="6.77856">
        <ele>1844.8</ele>
        <time>2026-06-26T09:17:44Z</time>
      </trkpt>
      <trkpt lat="46.07304" lon="6.77857">
        <ele>1845</ele>
        <time>2026-06-26T09:17:45Z</time>
      </trkpt>
      <trkpt lat="46.07303" lon="6.77857">
        <ele>1845.1</ele>
        <time>2026-06-26T09:17:46Z</time>
      </trkpt>
      <trkpt lat="46.07302" lon="6.77857">
        <ele>1845.1</ele>
        <time>2026-06-26T09:17:47Z</time>
      </trkpt>
      <trkpt lat="46.07302" lon="6.77857">
        <ele>1845</ele>
        <time>2026-06-26T09:17:48Z</time>
      </trkpt>
      <trkpt lat="46.07301" lon="6.77857">
        <ele>1844.6</ele>
        <time>2026-06-26T09:17:49Z</time>
      </trkpt>
      <trkpt lat="46.073" lon="6.77857">
        <ele>1844.5</ele>
        <time>2026-06-26T09:17:50Z</time>
      </trkpt>
      <trkpt lat="46.07299" lon="6.77857">
        <ele>1844.3</ele>
        <time>2026-06-26T09:17:51Z</time>
      </trkpt>
      <trkpt lat="46.07299" lon="6.77856">
        <ele>1844.3</ele>
        <time>2026-06-26T09:17:52Z</time>
      </trkpt>
      <trkpt lat="46.07299" lon="6.77856">
        <ele>1844.3</ele>
        <time>2026-06-26T09:17:53Z</time>
      </trkpt>
      <trkpt lat="46.073" lon="6.77858">
        <ele>1844.2</ele>
        <time>2026-06-26T09:17:54Z</time>
      </trkpt>
      <trkpt lat="46.073" lon="6.77859">
        <ele>1844.1</ele>
        <time>2026-06-26T09:17:55Z</time>
      </trkpt>
      <trkpt lat="46.073" lon="6.77858">
        <ele>1844</ele>
        <time>2026-06-26T09:17:56Z</time>
      </trkpt>
      <trkpt lat="46.07299" lon="6.77859">
        <ele>1843.9</ele>
        <time>2026-06-26T09:17:57Z</time>
      </trkpt>
      <trkpt lat="46.07299" lon="6.77858">
        <ele>1843.8</ele>
        <time>2026-06-26T09:17:58Z</time>
      </trkpt>
      <trkpt lat="46.073" lon="6.77858">
        <ele>1843.6</ele>
        <time>2026-06-26T09:17:59Z</time>
      </trkpt>
      <trkpt lat="46.073" lon="6.77859">
        <ele>1843.4</ele>
        <time>2026-06-26T09:18:00Z</time>
      </trkpt>
      <trkpt lat="46.07301" lon="6.7786">
        <ele>1843.3</ele>
        <time>2026-06-26T09:18:01Z</time>
      </trkpt>
      <trkpt lat="46.07301" lon="6.7786">
        <ele>1843.3</ele>
        <time>2026-06-26T09:18:02Z</time>
      </trkpt>
      <trkpt lat="46.07301" lon="6.77861">
        <ele>1843.2</ele>
        <time>2026-06-26T09:18:03Z</time>
      </trkpt>
      <trkpt lat="46.07301" lon="6.77862">
        <ele>1843</ele>
        <time>2026-06-26T09:18:04Z</time>
      </trkpt>
      <trkpt lat="46.07301" lon="6.77861">
        <ele>1843.1</ele>
        <time>2026-06-26T09:18:05Z</time>
      </trkpt>
      <trkpt lat="46.07301" lon="6.77863">
        <ele>1843</ele>
        <time>2026-06-26T09:18:06Z</time>
      </trkpt>
      <trkpt lat="46.07301" lon="6.77864">
        <ele>1843</ele>
        <time>2026-06-26T09:18:07Z</time>
      </trkpt>
      <trkpt lat="46.07301" lon="6.77864">
        <ele>1843.1</ele>
        <time>2026-06-26T09:18:08Z</time>
      </trkpt>
      <trkpt lat="46.07301" lon="6.77864">
        <ele>1843.2</ele>
        <time>2026-06-26T09:18:09Z</time>
      </trkpt>
      <trkpt lat="46.07302" lon="6.77864">
        <ele>1843.4</ele>
        <time>2026-06-26T09:18:10Z</time>
      </trkpt>
      <trkpt lat="46.07302" lon="6.77865">
        <ele>1843.6</ele>
        <time>2026-06-26T09:18:11Z</time>
      </trkpt>
      <trkpt lat="46.07302" lon="6.77864">
        <ele>1843.7</ele>
        <time>2026-06-26T09:18:12Z</time>
      </trkpt>
      <trkpt lat="46.07302" lon="6.77864">
        <ele>1843.8</ele>
        <time>2026-06-26T09:18:13Z</time>
      </trkpt>
      <trkpt lat="46.07302" lon="6.77864">
        <ele>1843.9</ele>
        <time>2026-06-26T09:18:14Z</time>
      </trkpt>
      <trkpt lat="46.07302" lon="6.77864">
        <ele>1843.9</ele>
        <time>2026-06-26T09:18:15Z</time>
      </trkpt>
      <trkpt lat="46.07303" lon="6.77864">
        <ele>1844</ele>
        <time>2026-06-26T09:18:16Z</time>
      </trkpt>
      <trkpt lat="46.07304" lon="6.77864">
        <ele>1844</ele>
        <time>2026-06-26T09:18:17Z</time>
      </trkpt>
      <trkpt lat="46.07304" lon="6.77865">
        <ele>1844</ele>
        <time>2026-06-26T09:18:18Z</time>
      </trkpt>
      <trkpt lat="46.07305" lon="6.77865">
        <ele>1844</ele>
        <time>2026-06-26T09:18:19Z</time>
      </trkpt>
      <trkpt lat="46.07306" lon="6.77864">
        <ele>1844</ele>
        <time>2026-06-26T09:18:20Z</time>
      </trkpt>
      <trkpt lat="46.07306" lon="6.77863">
        <ele>1844</ele>
        <time>2026-06-26T09:18:21Z</time>
      </trkpt>
      <trkpt lat="46.07307" lon="6.77862">
        <ele>1843.9</ele>
        <time>2026-06-26T09:18:22Z</time>
      </trkpt>
      <trkpt lat="46.07306" lon="6.7786">
        <ele>1843.8</ele>
        <time>2026-06-26T09:18:23Z</time>
      </trkpt>
      <trkpt lat="46.07306" lon="6.77859">
        <ele>1843.8</ele>
        <time>2026-06-26T09:18:24Z</time>
      </trkpt>
      <trkpt lat="46.07304" lon="6.77858">
        <ele>1843.7</ele>
        <time>2026-06-26T09:18:25Z</time>
      </trkpt>
      <trkpt lat="46.07304" lon="6.77856">
        <ele>1843.7</ele>
        <time>2026-06-26T09:18:26Z</time>
      </trkpt>
      <trkpt lat="46.07304" lon="6.77855">
        <ele>1843.5</ele>
        <time>2026-06-26T09:18:27Z</time>
      </trkpt>
      <trkpt lat="46.07304" lon="6.77853">
        <ele>1843.6</ele>
        <time>2026-06-26T09:18:28Z</time>
      </trkpt>
      <trkpt lat="46.07304" lon="6.77852">
        <ele>1843.6</ele>
        <time>2026-06-26T09:18:29Z</time>
      </trkpt>
      <trkpt lat="46.07305" lon="6.77851">
        <ele>1843.6</ele>
        <time>2026-06-26T09:18:30Z</time>
      </trkpt>
      <trkpt lat="46.07306" lon="6.7785">
        <ele>1843.7</ele>
        <time>2026-06-26T09:18:31Z</time>
      </trkpt>
      <trkpt lat="46.07307" lon="6.77849">
        <ele>1843.8</ele>
        <time>2026-06-26T09:18:32Z</time>
      </trkpt>
      <trkpt lat="46.07307" lon="6.77848">
        <ele>1843.8</ele>
        <time>2026-06-26T09:18:33Z</time>
      </trkpt>
      <trkpt lat="46.07308" lon="6.77847">
        <ele>1843.9</ele>
        <time>2026-06-26T09:18:34Z</time>
      </trkpt>
      <trkpt lat="46.07309" lon="6.77846">
        <ele>1844</ele>
        <time>2026-06-26T09:18:35Z</time>
      </trkpt>
      <trkpt lat="46.07309" lon="6.77845">
        <ele>1844</ele>
        <time>2026-06-26T09:18:36Z</time>
      </trkpt>
      <trkpt lat="46.0731" lon="6.77844">
        <ele>1844</ele>
        <time>2026-06-26T09:18:37Z</time>
      </trkpt>
      <trkpt lat="46.0731" lon="6.77844">
        <ele>1844</ele>
        <time>2026-06-26T09:18:38Z</time>
      </trkpt>
      <trkpt lat="46.0731" lon="6.77843">
        <ele>1844.1</ele>
        <time>2026-06-26T09:18:39Z</time>
      </trkpt>
      <trkpt lat="46.0731" lon="6.77843">
        <ele>1844.1</ele>
        <time>2026-06-26T09:18:40Z</time>
      </trkpt>
      <trkpt lat="46.0731" lon="6.77843">
        <ele>1844.2</ele>
        <time>2026-06-26T09:18:41Z</time>
      </trkpt>
      <trkpt lat="46.0731" lon="6.77842">
        <ele>1844</ele>
        <time>2026-06-26T09:18:42Z</time>
      </trkpt>
      <trkpt lat="46.0731" lon="6.77842">
        <ele>1843.9</ele>
        <time>2026-06-26T09:18:43Z</time>
      </trkpt>
      <trkpt lat="46.07311" lon="6.77842">
        <ele>1843.8</ele>
        <time>2026-06-26T09:18:44Z</time>
      </trkpt>
      <trkpt lat="46.07311" lon="6.77842">
        <ele>1843.7</ele>
        <time>2026-06-26T09:18:45Z</time>
      </trkpt>
      <trkpt lat="46.07311" lon="6.77842">
        <ele>1843.6</ele>
        <time>2026-06-26T09:18:46Z</time>
      </trkpt>
      <trkpt lat="46.07311" lon="6.77841">
        <ele>1843.5</ele>
        <time>2026-06-26T09:18:47Z</time>
      </trkpt>
      <trkpt lat="46.07311" lon="6.77841">
        <ele>1843.5</ele>
        <time>2026-06-26T09:18:48Z</time>
      </trkpt>
      <trkpt lat="46.07311" lon="6.77841">
        <ele>1843.3</ele>
        <time>2026-06-26T09:18:49Z</time>
      </trkpt>
      <trkpt lat="46.07304" lon="6.77845">
        <ele>1843.2</ele>
        <time>2026-06-26T09:18:50Z</time>
      </trkpt>
      <trkpt lat="46.073" lon="6.77847">
        <ele>1843.1</ele>
        <time>2026-06-26T09:18:51Z</time>
      </trkpt>
      <trkpt lat="46.07297" lon="6.77851">
        <ele>1843.1</ele>
        <time>2026-06-26T09:18:52Z</time>
      </trkpt>
      <trkpt lat="46.07297" lon="6.77851">
        <ele>1843</ele>
        <time>2026-06-26T09:18:53Z</time>
      </trkpt>
      <trkpt lat="46.07298" lon="6.77852">
        <ele>1843</ele>
        <time>2026-06-26T09:18:54Z</time>
      </trkpt>
      <trkpt lat="46.07298" lon="6.77853">
        <ele>1842.9</ele>
        <time>2026-06-26T09:18:55Z</time>
      </trkpt>
      <trkpt lat="46.07298" lon="6.77852">
        <ele>1842.9</ele>
        <time>2026-06-26T09:18:56Z</time>
      </trkpt>
      <trkpt lat="46.07299" lon="6.77855">
        <ele>1842.8</ele>
        <time>2026-06-26T09:18:57Z</time>
      </trkpt>
      <trkpt lat="46.07299" lon="6.77856">
        <ele>1842.6</ele>
        <time>2026-06-26T09:18:58Z</time>
      </trkpt>
      <trkpt lat="46.073" lon="6.77855">
        <ele>1842.5</ele>
        <time>2026-06-26T09:18:59Z</time>
      </trkpt>
      <trkpt lat="46.073" lon="6.77854">
        <ele>1842.4</ele>
        <time>2026-06-26T09:19:00Z</time>
      </trkpt>
      <trkpt lat="46.073" lon="6.77853">
        <ele>1842.3</ele>
        <time>2026-06-26T09:19:01Z</time>
      </trkpt>
      <trkpt lat="46.073" lon="6.77853">
        <ele>1842.1</ele>
        <time>2026-06-26T09:19:02Z</time>
      </trkpt>
      <trkpt lat="46.07301" lon="6.77853">
        <ele>1842</ele>
        <time>2026-06-26T09:19:03Z</time>
      </trkpt>
      <trkpt lat="46.07301" lon="6.77853">
        <ele>1841.8</ele>
        <time>2026-06-26T09:19:04Z</time>
      </trkpt>
      <trkpt lat="46.07301" lon="6.77853">
        <ele>1841.7</ele>
        <time>2026-06-26T09:19:05Z</time>
      </trkpt>
      <trkpt lat="46.073" lon="6.77853">
        <ele>1841.5</ele>
        <time>2026-06-26T09:19:06Z</time>
      </trkpt>
      <trkpt lat="46.07301" lon="6.77852">
        <ele>1841.2</ele>
        <time>2026-06-26T09:19:07Z</time>
      </trkpt>
      <trkpt lat="46.07301" lon="6.77852">
        <ele>1841.1</ele>
        <time>2026-06-26T09:19:08Z</time>
      </trkpt>
      <trkpt lat="46.07301" lon="6.77852">
        <ele>1840.9</ele>
        <time>2026-06-26T09:19:09Z</time>
      </trkpt>
      <trkpt lat="46.07301" lon="6.77852">
        <ele>1840.8</ele>
        <time>2026-06-26T09:19:10Z</time>
      </trkpt>
      <trkpt lat="46.07301" lon="6.77852">
        <ele>1840.7</ele>
        <time>2026-06-26T09:19:11Z</time>
      </trkpt>
      <trkpt lat="46.07301" lon="6.77852">
        <ele>1840.7</ele>
        <time>2026-06-26T09:19:12Z</time>
      </trkpt>
      <trkpt lat="46.07301" lon="6.77852">
        <ele>1840.6</ele>
        <time>2026-06-26T09:19:13Z</time>
      </trkpt>
      <trkpt lat="46.07301" lon="6.77852">
        <ele>1840.5</ele>
        <time>2026-06-26T09:19:14Z</time>
      </trkpt>
      <trkpt lat="46.07302" lon="6.77852">
        <ele>1840.5</ele>
        <time>2026-06-26T09:19:15Z</time>
      </trkpt>
      <trkpt lat="46.07301" lon="6.77852">
        <ele>1840.5</ele>
        <time>2026-06-26T09:19:16Z</time>
      </trkpt>
      <trkpt lat="46.073" lon="6.77851">
        <ele>1840.5</ele>
        <time>2026-06-26T09:19:17Z</time>
      </trkpt>
      <trkpt lat="46.073" lon="6.77851">
        <ele>1840.5</ele>
        <time>2026-06-26T09:19:18Z</time>
      </trkpt>
      <trkpt lat="46.07299" lon="6.7785">
        <ele>1840.3</ele>
        <time>2026-06-26T09:19:19Z</time>
      </trkpt>
      <trkpt lat="46.07299" lon="6.77849">
        <ele>1840.2</ele>
        <time>2026-06-26T09:19:20Z</time>
      </trkpt>
      <trkpt lat="46.07299" lon="6.77849">
        <ele>1840.2</ele>
        <time>2026-06-26T09:19:21Z</time>
      </trkpt>
      <trkpt lat="46.07299" lon="6.77849">
        <ele>1840.1</ele>
        <time>2026-06-26T09:19:22Z</time>
      </trkpt>
      <trkpt lat="46.07299" lon="6.77849">
        <ele>1839.9</ele>
        <time>2026-06-26T09:19:23Z</time>
      </trkpt>
      <trkpt lat="46.07299" lon="6.77849">
        <ele>1839.7</ele>
        <time>2026-06-26T09:19:24Z</time>
      </trkpt>
      <trkpt lat="46.07299" lon="6.77849">
        <ele>1839.4</ele>
        <time>2026-06-26T09:19:25Z</time>
      </trkpt>
      <trkpt lat="46.07299" lon="6.77849">
        <ele>1839.2</ele>
        <time>2026-06-26T09:19:26Z</time>
      </trkpt>
      <trkpt lat="46.073" lon="6.77849">
        <ele>1839.1</ele>
        <time>2026-06-26T09:19:27Z</time>
      </trkpt>
      <trkpt lat="46.073" lon="6.77849">
        <ele>1839</ele>
        <time>2026-06-26T09:19:28Z</time>
      </trkpt>
      <trkpt lat="46.07301" lon="6.77849">
        <ele>1838.8</ele>
        <time>2026-06-26T09:19:29Z</time>
      </trkpt>
      <trkpt lat="46.07301" lon="6.77849">
        <ele>1838.6</ele>
        <time>2026-06-26T09:19:30Z</time>
      </trkpt>
      <trkpt lat="46.07302" lon="6.77849">
        <ele>1838.5</ele>
        <time>2026-06-26T09:19:31Z</time>
      </trkpt>
      <trkpt lat="46.07302" lon="6.77848">
        <ele>1838.4</ele>
        <time>2026-06-26T09:19:32Z</time>
      </trkpt>
      <trkpt lat="46.07301" lon="6.77848">
        <ele>1838.3</ele>
        <time>2026-06-26T09:19:33Z</time>
      </trkpt>
      <trkpt lat="46.07301" lon="6.77848">
        <ele>1838.3</ele>
        <time>2026-06-26T09:19:34Z</time>
      </trkpt>
      <trkpt lat="46.07301" lon="6.77849">
        <ele>1838.3</ele>
        <time>2026-06-26T09:19:35Z</time>
      </trkpt>
      <trkpt lat="46.073" lon="6.77849">
        <ele>1838.4</ele>
        <time>2026-06-26T09:19:36Z</time>
      </trkpt>
      <trkpt lat="46.07299" lon="6.77849">
        <ele>1838.3</ele>
        <time>2026-06-26T09:19:37Z</time>
      </trkpt>
      <trkpt lat="46.07299" lon="6.77849">
        <ele>1838.5</ele>
        <time>2026-06-26T09:19:38Z</time>
      </trkpt>
      <trkpt lat="46.07299" lon="6.7785">
        <ele>1838.5</ele>
        <time>2026-06-26T09:19:39Z</time>
      </trkpt>
      <trkpt lat="46.07299" lon="6.7785">
        <ele>1838.5</ele>
        <time>2026-06-26T09:19:40Z</time>
      </trkpt>
      <trkpt lat="46.07299" lon="6.77851">
        <ele>1838.4</ele>
        <time>2026-06-26T09:19:41Z</time>
      </trkpt>
      <trkpt lat="46.073" lon="6.77852">
        <ele>1838.3</ele>
        <time>2026-06-26T09:19:42Z</time>
      </trkpt>
      <trkpt lat="46.073" lon="6.77852">
        <ele>1838.1</ele>
        <time>2026-06-26T09:19:43Z</time>
      </trkpt>
      <trkpt lat="46.073" lon="6.77853">
        <ele>1838</ele>
        <time>2026-06-26T09:19:44Z</time>
      </trkpt>
      <trkpt lat="46.07301" lon="6.77853">
        <ele>1837.9</ele>
        <time>2026-06-26T09:19:45Z</time>
      </trkpt>
      <trkpt lat="46.07301" lon="6.77854">
        <ele>1837.7</ele>
        <time>2026-06-26T09:19:46Z</time>
      </trkpt>
      <trkpt lat="46.07301" lon="6.77855">
        <ele>1837.6</ele>
        <time>2026-06-26T09:19:47Z</time>
      </trkpt>
      <trkpt lat="46.07301" lon="6.77856">
        <ele>1837.4</ele>
        <time>2026-06-26T09:19:48Z</time>
      </trkpt>
      <trkpt lat="46.07301" lon="6.77858">
        <ele>1837.3</ele>
        <time>2026-06-26T09:19:49Z</time>
      </trkpt>
      <trkpt lat="46.07301" lon="6.77859">
        <ele>1837.3</ele>
        <time>2026-06-26T09:19:50Z</time>
      </trkpt>
      <trkpt lat="46.07301" lon="6.7786">
        <ele>1837.2</ele>
        <time>2026-06-26T09:19:51Z</time>
      </trkpt>
      <trkpt lat="46.07301" lon="6.77861">
        <ele>1837.2</ele>
        <time>2026-06-26T09:19:52Z</time>
      </trkpt>
      <trkpt lat="46.07301" lon="6.77862">
        <ele>1837.3</ele>
        <time>2026-06-26T09:19:53Z</time>
      </trkpt>
      <trkpt lat="46.073" lon="6.77863">
        <ele>1837.4</ele>
        <time>2026-06-26T09:19:54Z</time>
      </trkpt>
      <trkpt lat="46.073" lon="6.77865">
        <ele>1837.5</ele>
        <time>2026-06-26T09:19:55Z</time>
      </trkpt>
      <trkpt lat="46.073" lon="6.77866">
        <ele>1837.4</ele>
        <time>2026-06-26T09:19:56Z</time>
      </trkpt>
      <trkpt lat="46.073" lon="6.77867">
        <ele>1837.5</ele>
        <time>2026-06-26T09:19:57Z</time>
      </trkpt>
      <trkpt lat="46.07301" lon="6.77868">
        <ele>1837.6</ele>
        <time>2026-06-26T09:19:58Z</time>
      </trkpt>
      <trkpt lat="46.07301" lon="6.7787">
        <ele>1837.7</ele>
        <time>2026-06-26T09:19:59Z</time>
      </trkpt>
      <trkpt lat="46.07301" lon="6.77871">
        <ele>1837.8</ele>
        <time>2026-06-26T09:20:00Z</time>
      </trkpt>
      <trkpt lat="46.07301" lon="6.77871">
        <ele>1837.8</ele>
        <time>2026-06-26T09:20:01Z</time>
      </trkpt>
      <trkpt lat="46.07301" lon="6.77872">
        <ele>1837.9</ele>
        <time>2026-06-26T09:20:02Z</time>
      </trkpt>
      <trkpt lat="46.07301" lon="6.77873">
        <ele>1838</ele>
        <time>2026-06-26T09:20:03Z</time>
      </trkpt>
      <trkpt lat="46.07301" lon="6.77874">
        <ele>1838</ele>
        <time>2026-06-26T09:20:04Z</time>
      </trkpt>
      <trkpt lat="46.07302" lon="6.77874">
        <ele>1838</ele>
        <time>2026-06-26T09:20:05Z</time>
      </trkpt>
      <trkpt lat="46.07302" lon="6.77875">
        <ele>1838</ele>
        <time>2026-06-26T09:20:06Z</time>
      </trkpt>
      <trkpt lat="46.07302" lon="6.77876">
        <ele>1838</ele>
        <time>2026-06-26T09:20:07Z</time>
      </trkpt>
      <trkpt lat="46.07302" lon="6.77876">
        <ele>1838.1</ele>
        <time>2026-06-26T09:20:08Z</time>
      </trkpt>
      <trkpt lat="46.07303" lon="6.77876">
        <ele>1838.1</ele>
        <time>2026-06-26T09:20:09Z</time>
      </trkpt>
      <trkpt lat="46.07303" lon="6.77876">
        <ele>1838.2</ele>
        <time>2026-06-26T09:20:10Z</time>
      </trkpt>
      <trkpt lat="46.07303" lon="6.77877">
        <ele>1838.2</ele>
        <time>2026-06-26T09:20:11Z</time>
      </trkpt>
      <trkpt lat="46.07304" lon="6.77879">
        <ele>1838.1</ele>
        <time>2026-06-26T09:20:12Z</time>
      </trkpt>
      <trkpt lat="46.07304" lon="6.7788">
        <ele>1838</ele>
        <time>2026-06-26T09:20:13Z</time>
      </trkpt>
      <trkpt lat="46.07304" lon="6.77881">
        <ele>1838</ele>
        <time>2026-06-26T09:20:14Z</time>
      </trkpt>
      <trkpt lat="46.07304" lon="6.77881">
        <ele>1838.1</ele>
        <time>2026-06-26T09:20:15Z</time>
      </trkpt>
      <trkpt lat="46.07305" lon="6.77881">
        <ele>1838</ele>
        <time>2026-06-26T09:20:16Z</time>
      </trkpt>
      <trkpt lat="46.07304" lon="6.77881">
        <ele>1838</ele>
        <time>2026-06-26T09:20:17Z</time>
      </trkpt>
      <trkpt lat="46.07304" lon="6.77881">
        <ele>1838</ele>
        <time>2026-06-26T09:20:18Z</time>
      </trkpt>
      <trkpt lat="46.07306" lon="6.77881">
        <ele>1837.9</ele>
        <time>2026-06-26T09:20:19Z</time>
      </trkpt>
      <trkpt lat="46.07306" lon="6.7788">
        <ele>1837.9</ele>
        <time>2026-06-26T09:20:20Z</time>
      </trkpt>
      <trkpt lat="46.07306" lon="6.77881">
        <ele>1838</ele>
        <time>2026-06-26T09:20:21Z</time>
      </trkpt>
      <trkpt lat="46.07306" lon="6.77882">
        <ele>1838</ele>
        <time>2026-06-26T09:20:22Z</time>
      </trkpt>
      <trkpt lat="46.07306" lon="6.77883">
        <ele>1838</ele>
        <time>2026-06-26T09:20:23Z</time>
      </trkpt>
      <trkpt lat="46.07306" lon="6.77884">
        <ele>1838.1</ele>
        <time>2026-06-26T09:20:24Z</time>
      </trkpt>
      <trkpt lat="46.07307" lon="6.77885">
        <ele>1838.2</ele>
        <time>2026-06-26T09:20:25Z</time>
      </trkpt>
      <trkpt lat="46.07307" lon="6.77885">
        <ele>1838.3</ele>
        <time>2026-06-26T09:20:26Z</time>
      </trkpt>
      <trkpt lat="46.07308" lon="6.77886">
        <ele>1838.4</ele>
        <time>2026-06-26T09:20:27Z</time>
      </trkpt>
      <trkpt lat="46.07309" lon="6.77887">
        <ele>1838.6</ele>
        <time>2026-06-26T09:20:28Z</time>
      </trkpt>
      <trkpt lat="46.07309" lon="6.77888">
        <ele>1838.8</ele>
        <time>2026-06-26T09:20:29Z</time>
      </trkpt>
      <trkpt lat="46.07309" lon="6.77889">
        <ele>1839.1</ele>
        <time>2026-06-26T09:20:30Z</time>
      </trkpt>
      <trkpt lat="46.07309" lon="6.7789">
        <ele>1839.3</ele>
        <time>2026-06-26T09:20:31Z</time>
      </trkpt>
      <trkpt lat="46.07309" lon="6.7789">
        <ele>1839.4</ele>
        <time>2026-06-26T09:20:32Z</time>
      </trkpt>
      <trkpt lat="46.07308" lon="6.77892">
        <ele>1839.7</ele>
        <time>2026-06-26T09:20:33Z</time>
      </trkpt>
      <trkpt lat="46.07309" lon="6.77892">
        <ele>1840</ele>
        <time>2026-06-26T09:20:34Z</time>
      </trkpt>
      <trkpt lat="46.07309" lon="6.77894">
        <ele>1840.3</ele>
        <time>2026-06-26T09:20:35Z</time>
      </trkpt>
      <trkpt lat="46.07308" lon="6.77895">
        <ele>1840.5</ele>
        <time>2026-06-26T09:20:36Z</time>
      </trkpt>
      <trkpt lat="46.07309" lon="6.77895">
        <ele>1840.6</ele>
        <time>2026-06-26T09:20:37Z</time>
      </trkpt>
      <trkpt lat="46.0731" lon="6.77895">
        <ele>1840.8</ele>
        <time>2026-06-26T09:20:38Z</time>
      </trkpt>
      <trkpt lat="46.0731" lon="6.77895">
        <ele>1840.9</ele>
        <time>2026-06-26T09:20:39Z</time>
      </trkpt>
      <trkpt lat="46.0731" lon="6.77896">
        <ele>1841</ele>
        <time>2026-06-26T09:20:40Z</time>
      </trkpt>
      <trkpt lat="46.07311" lon="6.77896">
        <ele>1841.1</ele>
        <time>2026-06-26T09:20:41Z</time>
      </trkpt>
      <trkpt lat="46.07311" lon="6.77897">
        <ele>1841.2</ele>
        <time>2026-06-26T09:20:42Z</time>
      </trkpt>
      <trkpt lat="46.0731" lon="6.77898">
        <ele>1841.3</ele>
        <time>2026-06-26T09:20:43Z</time>
      </trkpt>
      <trkpt lat="46.0731" lon="6.77899">
        <ele>1841.4</ele>
        <time>2026-06-26T09:20:44Z</time>
      </trkpt>
      <trkpt lat="46.07309" lon="6.779">
        <ele>1841.5</ele>
        <time>2026-06-26T09:20:45Z</time>
      </trkpt>
      <trkpt lat="46.07306" lon="6.77902">
        <ele>1841.5</ele>
        <time>2026-06-26T09:20:52Z</time>
      </trkpt>
      <trkpt lat="46.07306" lon="6.77903">
        <ele>1841.9</ele>
        <time>2026-06-26T09:20:53Z</time>
      </trkpt>
      <trkpt lat="46.07306" lon="6.77903">
        <ele>1842.3</ele>
        <time>2026-06-26T09:20:54Z</time>
      </trkpt>
      <trkpt lat="46.07307" lon="6.77904">
        <ele>1842.5</ele>
        <time>2026-06-26T09:20:55Z</time>
      </trkpt>
      <trkpt lat="46.07308" lon="6.77905">
        <ele>1842.8</ele>
        <time>2026-06-26T09:20:56Z</time>
      </trkpt>
      <trkpt lat="46.07309" lon="6.77906">
        <ele>1843</ele>
        <time>2026-06-26T09:20:57Z</time>
      </trkpt>
      <trkpt lat="46.07311" lon="6.77906">
        <ele>1843.2</ele>
        <time>2026-06-26T09:20:58Z</time>
      </trkpt>
      <trkpt lat="46.07314" lon="6.77906">
        <ele>1843.4</ele>
        <time>2026-06-26T09:20:59Z</time>
      </trkpt>
      <trkpt lat="46.07317" lon="6.77907">
        <ele>1843.6</ele>
        <time>2026-06-26T09:21:00Z</time>
      </trkpt>
      <trkpt lat="46.07319" lon="6.77907">
        <ele>1843.9</ele>
        <time>2026-06-26T09:21:01Z</time>
      </trkpt>
      <trkpt lat="46.0732" lon="6.77908">
        <ele>1844.1</ele>
        <time>2026-06-26T09:21:02Z</time>
      </trkpt>
      <trkpt lat="46.07323" lon="6.77908">
        <ele>1844.3</ele>
        <time>2026-06-26T09:21:03Z</time>
      </trkpt>
      <trkpt lat="46.07324" lon="6.77908">
        <ele>1844.5</ele>
        <time>2026-06-26T09:21:04Z</time>
      </trkpt>
      <trkpt lat="46.07326" lon="6.77909">
        <ele>1844.7</ele>
        <time>2026-06-26T09:21:05Z</time>
      </trkpt>
      <trkpt lat="46.07327" lon="6.77909">
        <ele>1845</ele>
        <time>2026-06-26T09:21:06Z</time>
      </trkpt>
      <trkpt lat="46.07329" lon="6.77909">
        <ele>1845.2</ele>
        <time>2026-06-26T09:21:07Z</time>
      </trkpt>
      <trkpt lat="46.07332" lon="6.77909">
        <ele>1845.4</ele>
        <time>2026-06-26T09:21:08Z</time>
      </trkpt>
      <trkpt lat="46.07335" lon="6.77909">
        <ele>1845.6</ele>
        <time>2026-06-26T09:21:09Z</time>
      </trkpt>
      <trkpt lat="46.07338" lon="6.7791">
        <ele>1845.8</ele>
        <time>2026-06-26T09:21:10Z</time>
      </trkpt>
      <trkpt lat="46.07342" lon="6.7791">
        <ele>1845.9</ele>
        <time>2026-06-26T09:21:11Z</time>
      </trkpt>
      <trkpt lat="46.07345" lon="6.77911">
        <ele>1846</ele>
        <time>2026-06-26T09:21:12Z</time>
      </trkpt>
      <trkpt lat="46.07348" lon="6.77911">
        <ele>1846.1</ele>
        <time>2026-06-26T09:21:13Z</time>
      </trkpt>
      <trkpt lat="46.0735" lon="6.77913">
        <ele>1846.2</ele>
        <time>2026-06-26T09:21:14Z</time>
      </trkpt>
      <trkpt lat="46.07353" lon="6.77913">
        <ele>1846.3</ele>
        <time>2026-06-26T09:21:15Z</time>
      </trkpt>
      <trkpt lat="46.07355" lon="6.77914">
        <ele>1846.4</ele>
        <time>2026-06-26T09:21:16Z</time>
      </trkpt>
      <trkpt lat="46.07356" lon="6.77915">
        <ele>1846.6</ele>
        <time>2026-06-26T09:21:17Z</time>
      </trkpt>
      <trkpt lat="46.07358" lon="6.77916">
        <ele>1846.7</ele>
        <time>2026-06-26T09:21:18Z</time>
      </trkpt>
      <trkpt lat="46.07359" lon="6.77916">
        <ele>1846.9</ele>
        <time>2026-06-26T09:21:19Z</time>
      </trkpt>
      <trkpt lat="46.07355" lon="6.77917">
        <ele>1847.1</ele>
        <time>2026-06-26T09:21:20Z</time>
      </trkpt>
      <trkpt lat="46.07353" lon="6.77918">
        <ele>1847.3</ele>
        <time>2026-06-26T09:21:21Z</time>
      </trkpt>
      <trkpt lat="46.07377" lon="6.77936">
        <ele>1847.5</ele>
        <time>2026-06-26T09:21:53Z</time>
      </trkpt>
      <trkpt lat="46.07375" lon="6.77937">
        <ele>1848.8</ele>
        <time>2026-06-26T09:21:54Z</time>
      </trkpt>
      <trkpt lat="46.07373" lon="6.77937">
        <ele>1849.9</ele>
        <time>2026-06-26T09:21:55Z</time>
      </trkpt>
      <trkpt lat="46.07374" lon="6.77937">
        <ele>1850.8</ele>
        <time>2026-06-26T09:21:56Z</time>
      </trkpt>
      <trkpt lat="46.07375" lon="6.77937">
        <ele>1851.5</ele>
        <time>2026-06-26T09:21:57Z</time>
      </trkpt>
      <trkpt lat="46.07374" lon="6.77938">
        <ele>1852.2</ele>
        <time>2026-06-26T09:21:58Z</time>
      </trkpt>
      <trkpt lat="46.07342" lon="6.7794">
        <ele>1852.7</ele>
        <time>2026-06-26T09:21:59Z</time>
      </trkpt>
      <trkpt lat="46.07342" lon="6.77949">
        <ele>1853</ele>
        <time>2026-06-26T09:22:28Z</time>
      </trkpt>
      <trkpt lat="46.07343" lon="6.77949">
        <ele>1854</ele>
        <time>2026-06-26T09:22:29Z</time>
      </trkpt>
      <trkpt lat="46.07344" lon="6.77949">
        <ele>1854.8</ele>
        <time>2026-06-26T09:22:30Z</time>
      </trkpt>
      <trkpt lat="46.07345" lon="6.77949">
        <ele>1855.5</ele>
        <time>2026-06-26T09:22:31Z</time>
      </trkpt>
      <trkpt lat="46.07345" lon="6.7795">
        <ele>1856</ele>
        <time>2026-06-26T09:22:33Z</time>
      </trkpt>
      <trkpt lat="46.07345" lon="6.7795">
        <ele>1856.5</ele>
        <time>2026-06-26T09:22:34Z</time>
      </trkpt>
      <trkpt lat="46.07345" lon="6.77952">
        <ele>1856.7</ele>
        <time>2026-06-26T09:22:38Z</time>
      </trkpt>
      <trkpt lat="46.07345" lon="6.77953">
        <ele>1857.1</ele>
        <time>2026-06-26T09:22:39Z</time>
      </trkpt>
      <trkpt lat="46.07345" lon="6.77954">
        <ele>1857.5</ele>
        <time>2026-06-26T09:22:40Z</time>
      </trkpt>
      <trkpt lat="46.07345" lon="6.77955">
        <ele>1857.9</ele>
        <time>2026-06-26T09:22:41Z</time>
      </trkpt>
      <trkpt lat="46.07344" lon="6.77955">
        <ele>1858.2</ele>
        <time>2026-06-26T09:22:42Z</time>
      </trkpt>
      <trkpt lat="46.07343" lon="6.77956">
        <ele>1858.6</ele>
        <time>2026-06-26T09:22:43Z</time>
      </trkpt>
      <trkpt lat="46.07343" lon="6.77956">
        <ele>1859</ele>
        <time>2026-06-26T09:22:44Z</time>
      </trkpt>
      <trkpt lat="46.07342" lon="6.77956">
        <ele>1859.2</ele>
        <time>2026-06-26T09:22:45Z</time>
      </trkpt>
      <trkpt lat="46.07342" lon="6.77957">
        <ele>1859.5</ele>
        <time>2026-06-26T09:22:46Z</time>
      </trkpt>
      <trkpt lat="46.07342" lon="6.77957">
        <ele>1859.7</ele>
        <time>2026-06-26T09:22:47Z</time>
      </trkpt>
      <trkpt lat="46.07341" lon="6.77957">
        <ele>1860</ele>
        <time>2026-06-26T09:22:48Z</time>
      </trkpt>
      <trkpt lat="46.0734" lon="6.77957">
        <ele>1860.2</ele>
        <time>2026-06-26T09:22:49Z</time>
      </trkpt>
      <trkpt lat="46.0734" lon="6.77958">
        <ele>1860.4</ele>
        <time>2026-06-26T09:22:50Z</time>
      </trkpt>
      <trkpt lat="46.07339" lon="6.77958">
        <ele>1860.7</ele>
        <time>2026-06-26T09:22:51Z</time>
      </trkpt>
      <trkpt lat="46.07342" lon="6.7796">
        <ele>1860.9</ele>
        <time>2026-06-26T09:23:00Z</time>
      </trkpt>
      <trkpt lat="46.07342" lon="6.77961">
        <ele>1861.2</ele>
        <time>2026-06-26T09:23:01Z</time>
      </trkpt>
      <trkpt lat="46.07342" lon="6.77961">
        <ele>1861.6</ele>
        <time>2026-06-26T09:23:02Z</time>
      </trkpt>
      <trkpt lat="46.07342" lon="6.77962">
        <ele>1862</ele>
        <time>2026-06-26T09:23:03Z</time>
      </trkpt>
      <trkpt lat="46.07342" lon="6.77962">
        <ele>1862.3</ele>
        <time>2026-06-26T09:23:04Z</time>
      </trkpt>
      <trkpt lat="46.07341" lon="6.77963">
        <ele>1862.6</ele>
        <time>2026-06-26T09:23:05Z</time>
      </trkpt>
      <trkpt lat="46.07341" lon="6.77963">
        <ele>1862.9</ele>
        <time>2026-06-26T09:23:06Z</time>
      </trkpt>
      <trkpt lat="46.07341" lon="6.77963">
        <ele>1863.1</ele>
        <time>2026-06-26T09:23:07Z</time>
      </trkpt>
      <trkpt lat="46.07341" lon="6.77963">
        <ele>1863.4</ele>
        <time>2026-06-26T09:23:08Z</time>
      </trkpt>
      <trkpt lat="46.07341" lon="6.77963">
        <ele>1863.7</ele>
        <time>2026-06-26T09:23:09Z</time>
      </trkpt>
      <trkpt lat="46.07343" lon="6.77963">
        <ele>1863.8</ele>
        <time>2026-06-26T09:23:10Z</time>
      </trkpt>
      <trkpt lat="46.07344" lon="6.77964">
        <ele>1863.9</ele>
        <time>2026-06-26T09:23:11Z</time>
      </trkpt>
      <trkpt lat="46.07346" lon="6.77964">
        <ele>1864</ele>
        <time>2026-06-26T09:23:12Z</time>
      </trkpt>
      <trkpt lat="46.07348" lon="6.77964">
        <ele>1864.2</ele>
        <time>2026-06-26T09:23:13Z</time>
      </trkpt>
      <trkpt lat="46.07349" lon="6.77964">
        <ele>1864.3</ele>
        <time>2026-06-26T09:23:14Z</time>
      </trkpt>
      <trkpt lat="46.0735" lon="6.77964">
        <ele>1864.3</ele>
        <time>2026-06-26T09:23:15Z</time>
      </trkpt>
      <trkpt lat="46.0735" lon="6.77964">
        <ele>1864.4</ele>
        <time>2026-06-26T09:23:16Z</time>
      </trkpt>
      <trkpt lat="46.0735" lon="6.77964">
        <ele>1864.4</ele>
        <time>2026-06-26T09:23:17Z</time>
      </trkpt>
      <trkpt lat="46.07349" lon="6.77964">
        <ele>1864.5</ele>
        <time>2026-06-26T09:23:18Z</time>
      </trkpt>
      <trkpt lat="46.0735" lon="6.77964">
        <ele>1864.6</ele>
        <time>2026-06-26T09:23:19Z</time>
      </trkpt>
      <trkpt lat="46.07349" lon="6.77964">
        <ele>1864.7</ele>
        <time>2026-06-26T09:23:20Z</time>
      </trkpt>
      <trkpt lat="46.07349" lon="6.77964">
        <ele>1864.8</ele>
        <time>2026-06-26T09:23:21Z</time>
      </trkpt>
      <trkpt lat="46.07348" lon="6.77963">
        <ele>1864.9</ele>
        <time>2026-06-26T09:23:22Z</time>
      </trkpt>
      <trkpt lat="46.07348" lon="6.77963">
        <ele>1864.9</ele>
        <time>2026-06-26T09:23:23Z</time>
      </trkpt>
      <trkpt lat="46.07348" lon="6.77963">
        <ele>1865</ele>
        <time>2026-06-26T09:23:24Z</time>
      </trkpt>
      <trkpt lat="46.07348" lon="6.77963">
        <ele>1865</ele>
        <time>2026-06-26T09:23:25Z</time>
      </trkpt>
      <trkpt lat="46.07346" lon="6.77963">
        <ele>1865.1</ele>
        <time>2026-06-26T09:23:26Z</time>
      </trkpt>
      <trkpt lat="46.07346" lon="6.77963">
        <ele>1865.2</ele>
        <time>2026-06-26T09:23:27Z</time>
      </trkpt>
      <trkpt lat="46.07347" lon="6.77963">
        <ele>1865.2</ele>
        <time>2026-06-26T09:23:28Z</time>
      </trkpt>
      <trkpt lat="46.07348" lon="6.77964">
        <ele>1865.3</ele>
        <time>2026-06-26T09:23:29Z</time>
      </trkpt>
      <trkpt lat="46.07348" lon="6.77965">
        <ele>1865.4</ele>
        <time>2026-06-26T09:23:30Z</time>
      </trkpt>
      <trkpt lat="46.07349" lon="6.77965">
        <ele>1865.6</ele>
        <time>2026-06-26T09:23:31Z</time>
      </trkpt>
      <trkpt lat="46.0735" lon="6.77965">
        <ele>1865.8</ele>
        <time>2026-06-26T09:23:32Z</time>
      </trkpt>
      <trkpt lat="46.07349" lon="6.77965">
        <ele>1866</ele>
        <time>2026-06-26T09:23:33Z</time>
      </trkpt>
      <trkpt lat="46.07349" lon="6.77965">
        <ele>1866.1</ele>
        <time>2026-06-26T09:23:34Z</time>
      </trkpt>
      <trkpt lat="46.0735" lon="6.77966">
        <ele>1866.2</ele>
        <time>2026-06-26T09:23:35Z</time>
      </trkpt>
      <trkpt lat="46.0735" lon="6.77967">
        <ele>1866.4</ele>
        <time>2026-06-26T09:23:36Z</time>
      </trkpt>
      <trkpt lat="46.07351" lon="6.77967">
        <ele>1866.5</ele>
        <time>2026-06-26T09:23:37Z</time>
      </trkpt>
      <trkpt lat="46.07352" lon="6.77968">
        <ele>1866.6</ele>
        <time>2026-06-26T09:23:38Z</time>
      </trkpt>
      <trkpt lat="46.0735" lon="6.77968">
        <ele>1866.7</ele>
        <time>2026-06-26T09:23:39Z</time>
      </trkpt>
      <trkpt lat="46.07349" lon="6.77968">
        <ele>1866.7</ele>
        <time>2026-06-26T09:23:40Z</time>
      </trkpt>
      <trkpt lat="46.07348" lon="6.77969">
        <ele>1866.9</ele>
        <time>2026-06-26T09:23:41Z</time>
      </trkpt>
      <trkpt lat="46.07348" lon="6.77969">
        <ele>1867</ele>
        <time>2026-06-26T09:23:42Z</time>
      </trkpt>
      <trkpt lat="46.07348" lon="6.7797">
        <ele>1867.1</ele>
        <time>2026-06-26T09:23:43Z</time>
      </trkpt>
      <trkpt lat="46.07347" lon="6.77969">
        <ele>1867.3</ele>
        <time>2026-06-26T09:23:44Z</time>
      </trkpt>
      <trkpt lat="46.07347" lon="6.77969">
        <ele>1867.5</ele>
        <time>2026-06-26T09:23:45Z</time>
      </trkpt>
      <trkpt lat="46.07346" lon="6.77969">
        <ele>1867.6</ele>
        <time>2026-06-26T09:23:46Z</time>
      </trkpt>
      <trkpt lat="46.07346" lon="6.77969">
        <ele>1867.8</ele>
        <time>2026-06-26T09:23:47Z</time>
      </trkpt>
      <trkpt lat="46.07345" lon="6.77969">
        <ele>1868</ele>
        <time>2026-06-26T09:23:48Z</time>
      </trkpt>
      <trkpt lat="46.07345" lon="6.7797">
        <ele>1868.2</ele>
        <time>2026-06-26T09:23:49Z</time>
      </trkpt>
      <trkpt lat="46.07346" lon="6.7797">
        <ele>1868.4</ele>
        <time>2026-06-26T09:23:50Z</time>
      </trkpt>
      <trkpt lat="46.07345" lon="6.77971">
        <ele>1868.7</ele>
        <time>2026-06-26T09:23:51Z</time>
      </trkpt>
      <trkpt lat="46.07345" lon="6.77972">
        <ele>1869</ele>
        <time>2026-06-26T09:23:52Z</time>
      </trkpt>
      <trkpt lat="46.07345" lon="6.77973">
        <ele>1869.3</ele>
        <time>2026-06-26T09:23:53Z</time>
      </trkpt>
      <trkpt lat="46.07346" lon="6.77973">
        <ele>1869.4</ele>
        <time>2026-06-26T09:23:54Z</time>
      </trkpt>
      <trkpt lat="46.07346" lon="6.77974">
        <ele>1869.6</ele>
        <time>2026-06-26T09:23:55Z</time>
      </trkpt>
      <trkpt lat="46.07346" lon="6.77974">
        <ele>1869.7</ele>
        <time>2026-06-26T09:23:56Z</time>
      </trkpt>
      <trkpt lat="46.07345" lon="6.77975">
        <ele>1870</ele>
        <time>2026-06-26T09:23:57Z</time>
      </trkpt>
      <trkpt lat="46.07345" lon="6.77976">
        <ele>1870.2</ele>
        <time>2026-06-26T09:23:58Z</time>
      </trkpt>
      <trkpt lat="46.07346" lon="6.77976">
        <ele>1870.4</ele>
        <time>2026-06-26T09:23:59Z</time>
      </trkpt>
      <trkpt lat="46.07345" lon="6.77977">
        <ele>1870.6</ele>
        <time>2026-06-26T09:24:00Z</time>
      </trkpt>
      <trkpt lat="46.07345" lon="6.77977">
        <ele>1870.8</ele>
        <time>2026-06-26T09:24:01Z</time>
      </trkpt>
      <trkpt lat="46.07345" lon="6.77977">
        <ele>1870.9</ele>
        <time>2026-06-26T09:24:02Z</time>
      </trkpt>
      <trkpt lat="46.07345" lon="6.77978">
        <ele>1871.2</ele>
        <time>2026-06-26T09:24:03Z</time>
      </trkpt>
      <trkpt lat="46.07345" lon="6.77978">
        <ele>1871.4</ele>
        <time>2026-06-26T09:24:04Z</time>
      </trkpt>
      <trkpt lat="46.07345" lon="6.77978">
        <ele>1871.6</ele>
        <time>2026-06-26T09:24:05Z</time>
      </trkpt>
      <trkpt lat="46.07345" lon="6.77978">
        <ele>1871.8</ele>
        <time>2026-06-26T09:24:06Z</time>
      </trkpt>
      <trkpt lat="46.07346" lon="6.77979">
        <ele>1871.9</ele>
        <time>2026-06-26T09:24:07Z</time>
      </trkpt>
      <trkpt lat="46.07347" lon="6.7798">
        <ele>1872.1</ele>
        <time>2026-06-26T09:24:08Z</time>
      </trkpt>
      <trkpt lat="46.07349" lon="6.7798">
        <ele>1872.2</ele>
        <time>2026-06-26T09:24:09Z</time>
      </trkpt>
      <trkpt lat="46.0735" lon="6.77981">
        <ele>1872.4</ele>
        <time>2026-06-26T09:24:10Z</time>
      </trkpt>
      <trkpt lat="46.07351" lon="6.77982">
        <ele>1872.5</ele>
        <time>2026-06-26T09:24:11Z</time>
      </trkpt>
      <trkpt lat="46.07351" lon="6.77982">
        <ele>1872.6</ele>
        <time>2026-06-26T09:24:12Z</time>
      </trkpt>
      <trkpt lat="46.07351" lon="6.77982">
        <ele>1872.7</ele>
        <time>2026-06-26T09:24:13Z</time>
      </trkpt>
      <trkpt lat="46.07351" lon="6.77982">
        <ele>1873</ele>
        <time>2026-06-26T09:24:14Z</time>
      </trkpt>
      <trkpt lat="46.07352" lon="6.77982">
        <ele>1873.1</ele>
        <time>2026-06-26T09:24:15Z</time>
      </trkpt>
      <trkpt lat="46.07352" lon="6.77983">
        <ele>1873.2</ele>
        <time>2026-06-26T09:24:16Z</time>
      </trkpt>
      <trkpt lat="46.07353" lon="6.77983">
        <ele>1873.3</ele>
        <time>2026-06-26T09:24:17Z</time>
      </trkpt>
      <trkpt lat="46.07353" lon="6.77983">
        <ele>1873.4</ele>
        <time>2026-06-26T09:24:18Z</time>
      </trkpt>
      <trkpt lat="46.07354" lon="6.77982">
        <ele>1873.5</ele>
        <time>2026-06-26T09:24:19Z</time>
      </trkpt>
      <trkpt lat="46.07354" lon="6.77982">
        <ele>1873.5</ele>
        <time>2026-06-26T09:24:20Z</time>
      </trkpt>
      <trkpt lat="46.07354" lon="6.77982">
        <ele>1873.6</ele>
        <time>2026-06-26T09:24:21Z</time>
      </trkpt>
      <trkpt lat="46.07353" lon="6.77982">
        <ele>1873.6</ele>
        <time>2026-06-26T09:24:22Z</time>
      </trkpt>
      <trkpt lat="46.07353" lon="6.77982">
        <ele>1873.7</ele>
        <time>2026-06-26T09:24:23Z</time>
      </trkpt>
      <trkpt lat="46.07352" lon="6.77982">
        <ele>1873.7</ele>
        <time>2026-06-26T09:24:24Z</time>
      </trkpt>
      <trkpt lat="46.07353" lon="6.77982">
        <ele>1873.8</ele>
        <time>2026-06-26T09:24:25Z</time>
      </trkpt>
      <trkpt lat="46.07355" lon="6.77982">
        <ele>1873.8</ele>
        <time>2026-06-26T09:24:26Z</time>
      </trkpt>
      <trkpt lat="46.07355" lon="6.77982">
        <ele>1873.9</ele>
        <time>2026-06-26T09:24:27Z</time>
      </trkpt>
      <trkpt lat="46.07355" lon="6.77982">
        <ele>1873.9</ele>
        <time>2026-06-26T09:24:28Z</time>
      </trkpt>
      <trkpt lat="46.07355" lon="6.77982">
        <ele>1873.9</ele>
        <time>2026-06-26T09:24:29Z</time>
      </trkpt>
      <trkpt lat="46.07355" lon="6.77983">
        <ele>1873.9</ele>
        <time>2026-06-26T09:24:30Z</time>
      </trkpt>
      <trkpt lat="46.07356" lon="6.77983">
        <ele>1873.8</ele>
        <time>2026-06-26T09:24:31Z</time>
      </trkpt>
      <trkpt lat="46.07356" lon="6.77983">
        <ele>1873.7</ele>
        <time>2026-06-26T09:24:32Z</time>
      </trkpt>
      <trkpt lat="46.07355" lon="6.77984">
        <ele>1873.6</ele>
        <time>2026-06-26T09:24:33Z</time>
      </trkpt>
      <trkpt lat="46.07356" lon="6.77985">
        <ele>1873.5</ele>
        <time>2026-06-26T09:24:34Z</time>
      </trkpt>
      <trkpt lat="46.07356" lon="6.77986">
        <ele>1873.5</ele>
        <time>2026-06-26T09:24:35Z</time>
      </trkpt>
      <trkpt lat="46.07356" lon="6.77986">
        <ele>1873.5</ele>
        <time>2026-06-26T09:24:36Z</time>
      </trkpt>
      <trkpt lat="46.07356" lon="6.77987">
        <ele>1873.6</ele>
        <time>2026-06-26T09:24:37Z</time>
      </trkpt>
      <trkpt lat="46.07356" lon="6.77987">
        <ele>1873.8</ele>
        <time>2026-06-26T09:24:38Z</time>
      </trkpt>
      <trkpt lat="46.07356" lon="6.77989">
        <ele>1873.9</ele>
        <time>2026-06-26T09:24:39Z</time>
      </trkpt>
      <trkpt lat="46.07355" lon="6.77989">
        <ele>1874</ele>
        <time>2026-06-26T09:24:40Z</time>
      </trkpt>
      <trkpt lat="46.07357" lon="6.7799">
        <ele>1874.1</ele>
        <time>2026-06-26T09:24:41Z</time>
      </trkpt>
      <trkpt lat="46.07358" lon="6.7799">
        <ele>1874.2</ele>
        <time>2026-06-26T09:24:42Z</time>
      </trkpt>
      <trkpt lat="46.07357" lon="6.7799">
        <ele>1874.3</ele>
        <time>2026-06-26T09:24:43Z</time>
      </trkpt>
      <trkpt lat="46.07358" lon="6.7799">
        <ele>1874.4</ele>
        <time>2026-06-26T09:24:44Z</time>
      </trkpt>
      <trkpt lat="46.07357" lon="6.7799">
        <ele>1874.6</ele>
        <time>2026-06-26T09:24:45Z</time>
      </trkpt>
      <trkpt lat="46.07357" lon="6.7799">
        <ele>1874.7</ele>
        <time>2026-06-26T09:24:46Z</time>
      </trkpt>
      <trkpt lat="46.07357" lon="6.7799">
        <ele>1874.8</ele>
        <time>2026-06-26T09:24:47Z</time>
      </trkpt>
      <trkpt lat="46.07357" lon="6.7799">
        <ele>1875</ele>
        <time>2026-06-26T09:24:48Z</time>
      </trkpt>
      <trkpt lat="46.07357" lon="6.7799">
        <ele>1875.1</ele>
        <time>2026-06-26T09:24:49Z</time>
      </trkpt>
      <trkpt lat="46.07357" lon="6.7799">
        <ele>1875.2</ele>
        <time>2026-06-26T09:24:50Z</time>
      </trkpt>
      <trkpt lat="46.07357" lon="6.7799">
        <ele>1875.4</ele>
        <time>2026-06-26T09:24:51Z</time>
      </trkpt>
      <trkpt lat="46.07357" lon="6.7799">
        <ele>1875.5</ele>
        <time>2026-06-26T09:24:52Z</time>
      </trkpt>
      <trkpt lat="46.07356" lon="6.77991">
        <ele>1875.6</ele>
        <time>2026-06-26T09:24:53Z</time>
      </trkpt>
      <trkpt lat="46.07356" lon="6.77991">
        <ele>1875.7</ele>
        <time>2026-06-26T09:24:54Z</time>
      </trkpt>
      <trkpt lat="46.07355" lon="6.77991">
        <ele>1875.9</ele>
        <time>2026-06-26T09:24:55Z</time>
      </trkpt>
      <trkpt lat="46.07355" lon="6.77991">
        <ele>1876</ele>
        <time>2026-06-26T09:24:56Z</time>
      </trkpt>
      <trkpt lat="46.07355" lon="6.77991">
        <ele>1876.2</ele>
        <time>2026-06-26T09:24:57Z</time>
      </trkpt>
      <trkpt lat="46.07355" lon="6.77991">
        <ele>1876.3</ele>
        <time>2026-06-26T09:24:58Z</time>
      </trkpt>
      <trkpt lat="46.07354" lon="6.77991">
        <ele>1876.5</ele>
        <time>2026-06-26T09:24:59Z</time>
      </trkpt>
      <trkpt lat="46.07354" lon="6.77992">
        <ele>1876.6</ele>
        <time>2026-06-26T09:25:00Z</time>
      </trkpt>
      <trkpt lat="46.07354" lon="6.77992">
        <ele>1876.8</ele>
        <time>2026-06-26T09:25:01Z</time>
      </trkpt>
      <trkpt lat="46.07354" lon="6.77992">
        <ele>1877</ele>
        <time>2026-06-26T09:25:02Z</time>
      </trkpt>
      <trkpt lat="46.07354" lon="6.77993">
        <ele>1877.2</ele>
        <time>2026-06-26T09:25:03Z</time>
      </trkpt>
      <trkpt lat="46.07354" lon="6.77994">
        <ele>1877.3</ele>
        <time>2026-06-26T09:25:04Z</time>
      </trkpt>
      <trkpt lat="46.07353" lon="6.77994">
        <ele>1877.4</ele>
        <time>2026-06-26T09:25:05Z</time>
      </trkpt>
      <trkpt lat="46.07353" lon="6.77995">
        <ele>1877.5</ele>
        <time>2026-06-26T09:25:06Z</time>
      </trkpt>
      <trkpt lat="46.07353" lon="6.77995">
        <ele>1877.6</ele>
        <time>2026-06-26T09:25:07Z</time>
      </trkpt>
      <trkpt lat="46.07354" lon="6.77995">
        <ele>1877.7</ele>
        <time>2026-06-26T09:25:08Z</time>
      </trkpt>
      <trkpt lat="46.07354" lon="6.77994">
        <ele>1877.8</ele>
        <time>2026-06-26T09:25:09Z</time>
      </trkpt>
      <trkpt lat="46.07354" lon="6.77995">
        <ele>1877.8</ele>
        <time>2026-06-26T09:25:10Z</time>
      </trkpt>
      <trkpt lat="46.07354" lon="6.77995">
        <ele>1877.9</ele>
        <time>2026-06-26T09:25:11Z</time>
      </trkpt>
      <trkpt lat="46.07354" lon="6.77995">
        <ele>1878</ele>
        <time>2026-06-26T09:25:12Z</time>
      </trkpt>
      <trkpt lat="46.07354" lon="6.77995">
        <ele>1878.1</ele>
        <time>2026-06-26T09:25:13Z</time>
      </trkpt>
      <trkpt lat="46.07353" lon="6.77995">
        <ele>1878.3</ele>
        <time>2026-06-26T09:25:14Z</time>
      </trkpt>
      <trkpt lat="46.07353" lon="6.77996">
        <ele>1878.4</ele>
        <time>2026-06-26T09:25:15Z</time>
      </trkpt>
      <trkpt lat="46.07353" lon="6.77996">
        <ele>1878.6</ele>
        <time>2026-06-26T09:25:16Z</time>
      </trkpt>
      <trkpt lat="46.07353" lon="6.77996">
        <ele>1878.8</ele>
        <time>2026-06-26T09:25:17Z</time>
      </trkpt>
      <trkpt lat="46.07353" lon="6.77996">
        <ele>1878.9</ele>
        <time>2026-06-26T09:25:18Z</time>
      </trkpt>
      <trkpt lat="46.07352" lon="6.77997">
        <ele>1879</ele>
        <time>2026-06-26T09:25:19Z</time>
      </trkpt>
      <trkpt lat="46.07352" lon="6.77997">
        <ele>1879.1</ele>
        <time>2026-06-26T09:25:20Z</time>
      </trkpt>
      <trkpt lat="46.07352" lon="6.77996">
        <ele>1879.2</ele>
        <time>2026-06-26T09:25:21Z</time>
      </trkpt>
      <trkpt lat="46.07351" lon="6.77996">
        <ele>1879.3</ele>
        <time>2026-06-26T09:25:22Z</time>
      </trkpt>
      <trkpt lat="46.07351" lon="6.77996">
        <ele>1879.3</ele>
        <time>2026-06-26T09:25:23Z</time>
      </trkpt>
      <trkpt lat="46.07351" lon="6.77996">
        <ele>1879.4</ele>
        <time>2026-06-26T09:25:24Z</time>
      </trkpt>
      <trkpt lat="46.0735" lon="6.77996">
        <ele>1879.4</ele>
        <time>2026-06-26T09:25:25Z</time>
      </trkpt>
      <trkpt lat="46.07349" lon="6.77997">
        <ele>1879.4</ele>
        <time>2026-06-26T09:25:26Z</time>
      </trkpt>
      <trkpt lat="46.07349" lon="6.77997">
        <ele>1879.4</ele>
        <time>2026-06-26T09:25:27Z</time>
      </trkpt>
      <trkpt lat="46.07349" lon="6.77997">
        <ele>1879.5</ele>
        <time>2026-06-26T09:25:28Z</time>
      </trkpt>
      <trkpt lat="46.07349" lon="6.77997">
        <ele>1879.5</ele>
        <time>2026-06-26T09:25:29Z</time>
      </trkpt>
      <trkpt lat="46.07349" lon="6.77998">
        <ele>1879.5</ele>
        <time>2026-06-26T09:25:30Z</time>
      </trkpt>
      <trkpt lat="46.07348" lon="6.77998">
        <ele>1879.5</ele>
        <time>2026-06-26T09:25:31Z</time>
      </trkpt>
      <trkpt lat="46.07349" lon="6.77997">
        <ele>1879.6</ele>
        <time>2026-06-26T09:25:32Z</time>
      </trkpt>
      <trkpt lat="46.07349" lon="6.77998">
        <ele>1879.9</ele>
        <time>2026-06-26T09:25:33Z</time>
      </trkpt>
      <trkpt lat="46.07349" lon="6.77999">
        <ele>1880.1</ele>
        <time>2026-06-26T09:25:34Z</time>
      </trkpt>
      <trkpt lat="46.07348" lon="6.77999">
        <ele>1880</ele>
        <time>2026-06-26T09:25:35Z</time>
      </trkpt>
      <trkpt lat="46.07348" lon="6.78">
        <ele>1880.2</ele>
        <time>2026-06-26T09:25:36Z</time>
      </trkpt>
      <trkpt lat="46.07349" lon="6.78">
        <ele>1880.3</ele>
        <time>2026-06-26T09:25:37Z</time>
      </trkpt>
      <trkpt lat="46.07348" lon="6.78">
        <ele>1880.4</ele>
        <time>2026-06-26T09:25:38Z</time>
      </trkpt>
      <trkpt lat="46.07348" lon="6.78">
        <ele>1880.6</ele>
        <time>2026-06-26T09:25:39Z</time>
      </trkpt>
      <trkpt lat="46.07348" lon="6.78">
        <ele>1880.7</ele>
        <time>2026-06-26T09:25:40Z</time>
      </trkpt>
      <trkpt lat="46.07348" lon="6.78">
        <ele>1880.8</ele>
        <time>2026-06-26T09:25:41Z</time>
      </trkpt>
      <trkpt lat="46.07348" lon="6.78001">
        <ele>1880.9</ele>
        <time>2026-06-26T09:25:42Z</time>
      </trkpt>
      <trkpt lat="46.07348" lon="6.78001">
        <ele>1880.9</ele>
        <time>2026-06-26T09:25:43Z</time>
      </trkpt>
      <trkpt lat="46.07348" lon="6.78001">
        <ele>1880.9</ele>
        <time>2026-06-26T09:25:44Z</time>
      </trkpt>
      <trkpt lat="46.07349" lon="6.78001">
        <ele>1880.9</ele>
        <time>2026-06-26T09:25:45Z</time>
      </trkpt>
      <trkpt lat="46.0735" lon="6.78001">
        <ele>1880.9</ele>
        <time>2026-06-26T09:25:46Z</time>
      </trkpt>
      <trkpt lat="46.07351" lon="6.78001">
        <ele>1880.9</ele>
        <time>2026-06-26T09:25:47Z</time>
      </trkpt>
      <trkpt lat="46.07352" lon="6.78001">
        <ele>1881.1</ele>
        <time>2026-06-26T09:25:48Z</time>
      </trkpt>
      <trkpt lat="46.07353" lon="6.78001">
        <ele>1881.1</ele>
        <time>2026-06-26T09:25:49Z</time>
      </trkpt>
      <trkpt lat="46.07353" lon="6.78001">
        <ele>1881.2</ele>
        <time>2026-06-26T09:25:50Z</time>
      </trkpt>
      <trkpt lat="46.07353" lon="6.78001">
        <ele>1881.3</ele>
        <time>2026-06-26T09:25:51Z</time>
      </trkpt>
      <trkpt lat="46.07352" lon="6.78001">
        <ele>1881.3</ele>
        <time>2026-06-26T09:25:52Z</time>
      </trkpt>
      <trkpt lat="46.07352" lon="6.78001">
        <ele>1881.4</ele>
        <time>2026-06-26T09:25:53Z</time>
      </trkpt>
      <trkpt lat="46.07352" lon="6.78001">
        <ele>1881.4</ele>
        <time>2026-06-26T09:25:54Z</time>
      </trkpt>
      <trkpt lat="46.07352" lon="6.78001">
        <ele>1881.5</ele>
        <time>2026-06-26T09:25:55Z</time>
      </trkpt>
      <trkpt lat="46.07352" lon="6.78001">
        <ele>1881.6</ele>
        <time>2026-06-26T09:25:56Z</time>
      </trkpt>
      <trkpt lat="46.07352" lon="6.78002">
        <ele>1881.7</ele>
        <time>2026-06-26T09:25:57Z</time>
      </trkpt>
      <trkpt lat="46.07352" lon="6.78002">
        <ele>1881.8</ele>
        <time>2026-06-26T09:25:58Z</time>
      </trkpt>
      <trkpt lat="46.07352" lon="6.78003">
        <ele>1881.8</ele>
        <time>2026-06-26T09:25:59Z</time>
      </trkpt>
      <trkpt lat="46.07352" lon="6.78003">
        <ele>1881.8</ele>
        <time>2026-06-26T09:26:00Z</time>
      </trkpt>
      <trkpt lat="46.07352" lon="6.78003">
        <ele>1881.8</ele>
        <time>2026-06-26T09:26:01Z</time>
      </trkpt>
      <trkpt lat="46.07352" lon="6.78003">
        <ele>1881.8</ele>
        <time>2026-06-26T09:26:02Z</time>
      </trkpt>
      <trkpt lat="46.07353" lon="6.78003">
        <ele>1881.8</ele>
        <time>2026-06-26T09:26:03Z</time>
      </trkpt>
      <trkpt lat="46.07353" lon="6.78003">
        <ele>1881.9</ele>
        <time>2026-06-26T09:26:04Z</time>
      </trkpt>
      <trkpt lat="46.07353" lon="6.78003">
        <ele>1881.9</ele>
        <time>2026-06-26T09:26:05Z</time>
      </trkpt>
      <trkpt lat="46.07353" lon="6.78003">
        <ele>1881.9</ele>
        <time>2026-06-26T09:26:06Z</time>
      </trkpt>
      <trkpt lat="46.07354" lon="6.78003">
        <ele>1881.9</ele>
        <time>2026-06-26T09:26:07Z</time>
      </trkpt>
      <trkpt lat="46.07355" lon="6.78004">
        <ele>1881.9</ele>
        <time>2026-06-26T09:26:08Z</time>
      </trkpt>
      <trkpt lat="46.07354" lon="6.78004">
        <ele>1881.9</ele>
        <time>2026-06-26T09:26:09Z</time>
      </trkpt>
      <trkpt lat="46.07354" lon="6.78004">
        <ele>1881.8</ele>
        <time>2026-06-26T09:26:10Z</time>
      </trkpt>
      <trkpt lat="46.07355" lon="6.78004">
        <ele>1881.6</ele>
        <time>2026-06-26T09:26:11Z</time>
      </trkpt>
      <trkpt lat="46.07355" lon="6.78004">
        <ele>1881.6</ele>
        <time>2026-06-26T09:26:12Z</time>
      </trkpt>
      <trkpt lat="46.07355" lon="6.78005">
        <ele>1881.6</ele>
        <time>2026-06-26T09:26:13Z</time>
      </trkpt>
      <trkpt lat="46.07355" lon="6.78005">
        <ele>1881.6</ele>
        <time>2026-06-26T09:26:14Z</time>
      </trkpt>
      <trkpt lat="46.07355" lon="6.78005">
        <ele>1881.5</ele>
        <time>2026-06-26T09:26:15Z</time>
      </trkpt>
      <trkpt lat="46.07356" lon="6.78005">
        <ele>1881.6</ele>
        <time>2026-06-26T09:26:16Z</time>
      </trkpt>
      <trkpt lat="46.07357" lon="6.78005">
        <ele>1881.7</ele>
        <time>2026-06-26T09:26:17Z</time>
      </trkpt>
      <trkpt lat="46.07356" lon="6.78005">
        <ele>1881.7</ele>
        <time>2026-06-26T09:26:18Z</time>
      </trkpt>
      <trkpt lat="46.07356" lon="6.78005">
        <ele>1881.8</ele>
        <time>2026-06-26T09:26:19Z</time>
      </trkpt>
      <trkpt lat="46.07357" lon="6.78006">
        <ele>1882</ele>
        <time>2026-06-26T09:26:20Z</time>
      </trkpt>
      <trkpt lat="46.07357" lon="6.78006">
        <ele>1882.1</ele>
        <time>2026-06-26T09:26:21Z</time>
      </trkpt>
      <trkpt lat="46.07357" lon="6.78006">
        <ele>1882.3</ele>
        <time>2026-06-26T09:26:22Z</time>
      </trkpt>
      <trkpt lat="46.07357" lon="6.78006">
        <ele>1882.3</ele>
        <time>2026-06-26T09:26:23Z</time>
      </trkpt>
      <trkpt lat="46.07357" lon="6.78006">
        <ele>1882.3</ele>
        <time>2026-06-26T09:26:24Z</time>
      </trkpt>
      <trkpt lat="46.07357" lon="6.78006">
        <ele>1882.4</ele>
        <time>2026-06-26T09:26:25Z</time>
      </trkpt>
      <trkpt lat="46.07357" lon="6.78006">
        <ele>1882.4</ele>
        <time>2026-06-26T09:26:26Z</time>
      </trkpt>
      <trkpt lat="46.07357" lon="6.78006">
        <ele>1882.5</ele>
        <time>2026-06-26T09:26:27Z</time>
      </trkpt>
      <trkpt lat="46.07357" lon="6.78006">
        <ele>1882.6</ele>
        <time>2026-06-26T09:26:28Z</time>
      </trkpt>
      <trkpt lat="46.07357" lon="6.78007">
        <ele>1882.7</ele>
        <time>2026-06-26T09:26:29Z</time>
      </trkpt>
      <trkpt lat="46.07358" lon="6.78007">
        <ele>1882.7</ele>
        <time>2026-06-26T09:26:30Z</time>
      </trkpt>
      <trkpt lat="46.07358" lon="6.78008">
        <ele>1882.8</ele>
        <time>2026-06-26T09:26:31Z</time>
      </trkpt>
      <trkpt lat="46.07358" lon="6.78008">
        <ele>1882.9</ele>
        <time>2026-06-26T09:26:32Z</time>
      </trkpt>
      <trkpt lat="46.07359" lon="6.78008">
        <ele>1883.1</ele>
        <time>2026-06-26T09:26:33Z</time>
      </trkpt>
      <trkpt lat="46.0736" lon="6.78008">
        <ele>1883.3</ele>
        <time>2026-06-26T09:26:34Z</time>
      </trkpt>
      <trkpt lat="46.0736" lon="6.78009">
        <ele>1883.4</ele>
        <time>2026-06-26T09:26:35Z</time>
      </trkpt>
      <trkpt lat="46.0736" lon="6.78009">
        <ele>1883.5</ele>
        <time>2026-06-26T09:26:36Z</time>
      </trkpt>
      <trkpt lat="46.0736" lon="6.7801">
        <ele>1883.7</ele>
        <time>2026-06-26T09:26:37Z</time>
      </trkpt>
      <trkpt lat="46.0736" lon="6.7801">
        <ele>1883.9</ele>
        <time>2026-06-26T09:26:38Z</time>
      </trkpt>
      <trkpt lat="46.07361" lon="6.7801">
        <ele>1884.1</ele>
        <time>2026-06-26T09:26:39Z</time>
      </trkpt>
      <trkpt lat="46.07361" lon="6.78011">
        <ele>1884.3</ele>
        <time>2026-06-26T09:26:40Z</time>
      </trkpt>
      <trkpt lat="46.07361" lon="6.78011">
        <ele>1884.5</ele>
        <time>2026-06-26T09:26:41Z</time>
      </trkpt>
      <trkpt lat="46.07361" lon="6.78011">
        <ele>1884.7</ele>
        <time>2026-06-26T09:26:42Z</time>
      </trkpt>
      <trkpt lat="46.07361" lon="6.78011">
        <ele>1884.7</ele>
        <time>2026-06-26T09:26:43Z</time>
      </trkpt>
      <trkpt lat="46.07361" lon="6.78012">
        <ele>1885</ele>
        <time>2026-06-26T09:26:44Z</time>
      </trkpt>
      <trkpt lat="46.07361" lon="6.78012">
        <ele>1885.2</ele>
        <time>2026-06-26T09:26:45Z</time>
      </trkpt>
      <trkpt lat="46.07361" lon="6.78012">
        <ele>1885.4</ele>
        <time>2026-06-26T09:26:46Z</time>
      </trkpt>
      <trkpt lat="46.07361" lon="6.78012">
        <ele>1885.5</ele>
        <time>2026-06-26T09:26:47Z</time>
      </trkpt>
      <trkpt lat="46.07361" lon="6.78012">
        <ele>1885.7</ele>
        <time>2026-06-26T09:26:48Z</time>
      </trkpt>
      <trkpt lat="46.07361" lon="6.78012">
        <ele>1885.8</ele>
        <time>2026-06-26T09:26:49Z</time>
      </trkpt>
      <trkpt lat="46.07361" lon="6.78012">
        <ele>1885.9</ele>
        <time>2026-06-26T09:26:50Z</time>
      </trkpt>
      <trkpt lat="46.07361" lon="6.78012">
        <ele>1886.1</ele>
        <time>2026-06-26T09:26:51Z</time>
      </trkpt>
      <trkpt lat="46.07361" lon="6.78012">
        <ele>1886.2</ele>
        <time>2026-06-26T09:26:52Z</time>
      </trkpt>
      <trkpt lat="46.07361" lon="6.78012">
        <ele>1886.3</ele>
        <time>2026-06-26T09:26:53Z</time>
      </trkpt>
      <trkpt lat="46.07361" lon="6.78012">
        <ele>1886.3</ele>
        <time>2026-06-26T09:26:54Z</time>
      </trkpt>
      <trkpt lat="46.07361" lon="6.78012">
        <ele>1886.4</ele>
        <time>2026-06-26T09:26:55Z</time>
      </trkpt>
      <trkpt lat="46.07361" lon="6.78013">
        <ele>1886.4</ele>
        <time>2026-06-26T09:26:56Z</time>
      </trkpt>
      <trkpt lat="46.07361" lon="6.78013">
        <ele>1886.5</ele>
        <time>2026-06-26T09:26:57Z</time>
      </trkpt>
      <trkpt lat="46.07361" lon="6.78013">
        <ele>1886.5</ele>
        <time>2026-06-26T09:26:58Z</time>
      </trkpt>
      <trkpt lat="46.07361" lon="6.78013">
        <ele>1886.6</ele>
        <time>2026-06-26T09:26:59Z</time>
      </trkpt>
      <trkpt lat="46.0736" lon="6.78013">
        <ele>1886.7</ele>
        <time>2026-06-26T09:27:00Z</time>
      </trkpt>
      <trkpt lat="46.0736" lon="6.78013">
        <ele>1886.6</ele>
        <time>2026-06-26T09:27:01Z</time>
      </trkpt>
      <trkpt lat="46.07361" lon="6.78013">
        <ele>1886.7</ele>
        <time>2026-06-26T09:27:02Z</time>
      </trkpt>
      <trkpt lat="46.07361" lon="6.78013">
        <ele>1886.8</ele>
        <time>2026-06-26T09:27:03Z</time>
      </trkpt>
      <trkpt lat="46.07361" lon="6.78013">
        <ele>1886.9</ele>
        <time>2026-06-26T09:27:04Z</time>
      </trkpt>
      <trkpt lat="46.07361" lon="6.78013">
        <ele>1887</ele>
        <time>2026-06-26T09:27:05Z</time>
      </trkpt>
      <trkpt lat="46.07361" lon="6.78013">
        <ele>1887</ele>
        <time>2026-06-26T09:27:06Z</time>
      </trkpt>
      <trkpt lat="46.07361" lon="6.78013">
        <ele>1887</ele>
        <time>2026-06-26T09:27:07Z</time>
      </trkpt>
      <trkpt lat="46.07361" lon="6.78013">
        <ele>1887</ele>
        <time>2026-06-26T09:27:08Z</time>
      </trkpt>
      <trkpt lat="46.07361" lon="6.78013">
        <ele>1887.1</ele>
        <time>2026-06-26T09:27:09Z</time>
      </trkpt>
      <trkpt lat="46.07361" lon="6.78013">
        <ele>1887.1</ele>
        <time>2026-06-26T09:27:10Z</time>
      </trkpt>
      <trkpt lat="46.07361" lon="6.78013">
        <ele>1887.1</ele>
        <time>2026-06-26T09:27:11Z</time>
      </trkpt>
      <trkpt lat="46.07361" lon="6.78013">
        <ele>1887.2</ele>
        <time>2026-06-26T09:27:12Z</time>
      </trkpt>
      <trkpt lat="46.07361" lon="6.78013">
        <ele>1887.3</ele>
        <time>2026-06-26T09:27:13Z</time>
      </trkpt>
      <trkpt lat="46.07361" lon="6.78013">
        <ele>1887.3</ele>
        <time>2026-06-26T09:27:14Z</time>
      </trkpt>
      <trkpt lat="46.07361" lon="6.78013">
        <ele>1887.3</ele>
        <time>2026-06-26T09:27:15Z</time>
      </trkpt>
      <trkpt lat="46.0736" lon="6.78013">
        <ele>1887.3</ele>
        <time>2026-06-26T09:27:16Z</time>
      </trkpt>
      <trkpt lat="46.0736" lon="6.78013">
        <ele>1887.3</ele>
        <time>2026-06-26T09:27:17Z</time>
      </trkpt>
      <trkpt lat="46.0736" lon="6.78013">
        <ele>1887.3</ele>
        <time>2026-06-26T09:27:18Z</time>
      </trkpt>
      <trkpt lat="46.0736" lon="6.78013">
        <ele>1887.4</ele>
        <time>2026-06-26T09:27:19Z</time>
      </trkpt>
      <trkpt lat="46.0736" lon="6.78013">
        <ele>1887.4</ele>
        <time>2026-06-26T09:27:20Z</time>
      </trkpt>
      <trkpt lat="46.0736" lon="6.78014">
        <ele>1887.6</ele>
        <time>2026-06-26T09:27:21Z</time>
      </trkpt>
      <trkpt lat="46.07361" lon="6.78014">
        <ele>1887.7</ele>
        <time>2026-06-26T09:27:22Z</time>
      </trkpt>
      <trkpt lat="46.07361" lon="6.78015">
        <ele>1887.8</ele>
        <time>2026-06-26T09:27:23Z</time>
      </trkpt>
      <trkpt lat="46.07362" lon="6.78015">
        <ele>1887.8</ele>
        <time>2026-06-26T09:27:24Z</time>
      </trkpt>
      <trkpt lat="46.07362" lon="6.78016">
        <ele>1887.9</ele>
        <time>2026-06-26T09:27:25Z</time>
      </trkpt>
      <trkpt lat="46.07363" lon="6.78016">
        <ele>1888</ele>
        <time>2026-06-26T09:27:26Z</time>
      </trkpt>
      <trkpt lat="46.07364" lon="6.78016">
        <ele>1887.9</ele>
        <time>2026-06-26T09:27:27Z</time>
      </trkpt>
      <trkpt lat="46.07364" lon="6.78017">
        <ele>1888</ele>
        <time>2026-06-26T09:27:28Z</time>
      </trkpt>
      <trkpt lat="46.07364" lon="6.78017">
        <ele>1888.2</ele>
        <time>2026-06-26T09:27:29Z</time>
      </trkpt>
      <trkpt lat="46.07364" lon="6.78017">
        <ele>1888.3</ele>
        <time>2026-06-26T09:27:30Z</time>
      </trkpt>
      <trkpt lat="46.07364" lon="6.78017">
        <ele>1888.5</ele>
        <time>2026-06-26T09:27:31Z</time>
      </trkpt>
      <trkpt lat="46.07365" lon="6.78017">
        <ele>1888.6</ele>
        <time>2026-06-26T09:27:32Z</time>
      </trkpt>
      <trkpt lat="46.07365" lon="6.78017">
        <ele>1888.7</ele>
        <time>2026-06-26T09:27:33Z</time>
      </trkpt>
      <trkpt lat="46.07365" lon="6.78017">
        <ele>1888.9</ele>
        <time>2026-06-26T09:27:34Z</time>
      </trkpt>
      <trkpt lat="46.07366" lon="6.78017">
        <ele>1889.1</ele>
        <time>2026-06-26T09:27:35Z</time>
      </trkpt>
      <trkpt lat="46.07366" lon="6.78018">
        <ele>1889.2</ele>
        <time>2026-06-26T09:27:36Z</time>
      </trkpt>
      <trkpt lat="46.07366" lon="6.78018">
        <ele>1889.4</ele>
        <time>2026-06-26T09:27:37Z</time>
      </trkpt>
      <trkpt lat="46.07366" lon="6.78018">
        <ele>1889.5</ele>
        <time>2026-06-26T09:27:38Z</time>
      </trkpt>
      <trkpt lat="46.07366" lon="6.78019">
        <ele>1889.6</ele>
        <time>2026-06-26T09:27:39Z</time>
      </trkpt>
      <trkpt lat="46.07367" lon="6.78019">
        <ele>1889.7</ele>
        <time>2026-06-26T09:27:40Z</time>
      </trkpt>
      <trkpt lat="46.07367" lon="6.7802">
        <ele>1889.8</ele>
        <time>2026-06-26T09:27:41Z</time>
      </trkpt>
      <trkpt lat="46.07367" lon="6.7802">
        <ele>1890</ele>
        <time>2026-06-26T09:27:42Z</time>
      </trkpt>
      <trkpt lat="46.07367" lon="6.7802">
        <ele>1890.1</ele>
        <time>2026-06-26T09:27:43Z</time>
      </trkpt>
      <trkpt lat="46.07367" lon="6.78021">
        <ele>1890.2</ele>
        <time>2026-06-26T09:27:44Z</time>
      </trkpt>
      <trkpt lat="46.07367" lon="6.78021">
        <ele>1890.3</ele>
        <time>2026-06-26T09:27:45Z</time>
      </trkpt>
      <trkpt lat="46.07367" lon="6.78021">
        <ele>1890.4</ele>
        <time>2026-06-26T09:27:46Z</time>
      </trkpt>
      <trkpt lat="46.07367" lon="6.78022">
        <ele>1890.4</ele>
        <time>2026-06-26T09:27:47Z</time>
      </trkpt>
      <trkpt lat="46.07368" lon="6.78022">
        <ele>1890.5</ele>
        <time>2026-06-26T09:27:48Z</time>
      </trkpt>
      <trkpt lat="46.07368" lon="6.78022">
        <ele>1890.6</ele>
        <time>2026-06-26T09:27:49Z</time>
      </trkpt>
      <trkpt lat="46.07368" lon="6.78022">
        <ele>1890.8</ele>
        <time>2026-06-26T09:27:50Z</time>
      </trkpt>
      <trkpt lat="46.07368" lon="6.78022">
        <ele>1891.1</ele>
        <time>2026-06-26T09:27:51Z</time>
      </trkpt>
      <trkpt lat="46.07368" lon="6.78022">
        <ele>1891.3</ele>
        <time>2026-06-26T09:27:52Z</time>
      </trkpt>
      <trkpt lat="46.07368" lon="6.78023">
        <ele>1891.4</ele>
        <time>2026-06-26T09:27:53Z</time>
      </trkpt>
      <trkpt lat="46.07369" lon="6.78023">
        <ele>1891.4</ele>
        <time>2026-06-26T09:27:54Z</time>
      </trkpt>
      <trkpt lat="46.07369" lon="6.78024">
        <ele>1891.5</ele>
        <time>2026-06-26T09:27:55Z</time>
      </trkpt>
      <trkpt lat="46.0737" lon="6.78024">
        <ele>1891.5</ele>
        <time>2026-06-26T09:27:56Z</time>
      </trkpt>
      <trkpt lat="46.0737" lon="6.78023">
        <ele>1891.6</ele>
        <time>2026-06-26T09:27:57Z</time>
      </trkpt>
      <trkpt lat="46.07371" lon="6.78023">
        <ele>1891.6</ele>
        <time>2026-06-26T09:27:58Z</time>
      </trkpt>
      <trkpt lat="46.07371" lon="6.78024">
        <ele>1891.6</ele>
        <time>2026-06-26T09:27:59Z</time>
      </trkpt>
      <trkpt lat="46.07371" lon="6.78024">
        <ele>1891.6</ele>
        <time>2026-06-26T09:28:00Z</time>
      </trkpt>
      <trkpt lat="46.07372" lon="6.78024">
        <ele>1891.6</ele>
        <time>2026-06-26T09:28:01Z</time>
      </trkpt>
      <trkpt lat="46.07372" lon="6.78025">
        <ele>1891.6</ele>
        <time>2026-06-26T09:28:02Z</time>
      </trkpt>
      <trkpt lat="46.07372" lon="6.78026">
        <ele>1891.7</ele>
        <time>2026-06-26T09:28:03Z</time>
      </trkpt>
      <trkpt lat="46.07372" lon="6.78026">
        <ele>1891.8</ele>
        <time>2026-06-26T09:28:04Z</time>
      </trkpt>
      <trkpt lat="46.07373" lon="6.78027">
        <ele>1892</ele>
        <time>2026-06-26T09:28:05Z</time>
      </trkpt>
      <trkpt lat="46.07373" lon="6.78027">
        <ele>1892.2</ele>
        <time>2026-06-26T09:28:06Z</time>
      </trkpt>
      <trkpt lat="46.07373" lon="6.78028">
        <ele>1892.3</ele>
        <time>2026-06-26T09:28:07Z</time>
      </trkpt>
      <trkpt lat="46.07374" lon="6.78028">
        <ele>1892.4</ele>
        <time>2026-06-26T09:28:08Z</time>
      </trkpt>
      <trkpt lat="46.07374" lon="6.78029">
        <ele>1892.6</ele>
        <time>2026-06-26T09:28:09Z</time>
      </trkpt>
      <trkpt lat="46.07375" lon="6.78029">
        <ele>1892.8</ele>
        <time>2026-06-26T09:28:10Z</time>
      </trkpt>
      <trkpt lat="46.07375" lon="6.78029">
        <ele>1893</ele>
        <time>2026-06-26T09:28:11Z</time>
      </trkpt>
      <trkpt lat="46.07374" lon="6.7803">
        <ele>1893.3</ele>
        <time>2026-06-26T09:28:12Z</time>
      </trkpt>
      <trkpt lat="46.07374" lon="6.7803">
        <ele>1893.5</ele>
        <time>2026-06-26T09:28:13Z</time>
      </trkpt>
      <trkpt lat="46.07374" lon="6.7803">
        <ele>1893.7</ele>
        <time>2026-06-26T09:28:14Z</time>
      </trkpt>
      <trkpt lat="46.07374" lon="6.7803">
        <ele>1893.9</ele>
        <time>2026-06-26T09:28:15Z</time>
      </trkpt>
      <trkpt lat="46.07374" lon="6.78031">
        <ele>1894.1</ele>
        <time>2026-06-26T09:28:16Z</time>
      </trkpt>
      <trkpt lat="46.07375" lon="6.78031">
        <ele>1894.4</ele>
        <time>2026-06-26T09:28:17Z</time>
      </trkpt>
      <trkpt lat="46.07375" lon="6.78032">
        <ele>1894.6</ele>
        <time>2026-06-26T09:28:18Z</time>
      </trkpt>
      <trkpt lat="46.07375" lon="6.78032">
        <ele>1894.8</ele>
        <time>2026-06-26T09:28:19Z</time>
      </trkpt>
      <trkpt lat="46.07375" lon="6.78032">
        <ele>1895</ele>
        <time>2026-06-26T09:28:20Z</time>
      </trkpt>
      <trkpt lat="46.07376" lon="6.78032">
        <ele>1895.2</ele>
        <time>2026-06-26T09:28:21Z</time>
      </trkpt>
      <trkpt lat="46.07376" lon="6.78032">
        <ele>1895.3</ele>
        <time>2026-06-26T09:28:22Z</time>
      </trkpt>
      <trkpt lat="46.07376" lon="6.78033">
        <ele>1895.4</ele>
        <time>2026-06-26T09:28:23Z</time>
      </trkpt>
      <trkpt lat="46.07376" lon="6.78033">
        <ele>1895.6</ele>
        <time>2026-06-26T09:28:24Z</time>
      </trkpt>
      <trkpt lat="46.07376" lon="6.78033">
        <ele>1895.7</ele>
        <time>2026-06-26T09:28:25Z</time>
      </trkpt>
      <trkpt lat="46.07376" lon="6.78033">
        <ele>1895.8</ele>
        <time>2026-06-26T09:28:26Z</time>
      </trkpt>
      <trkpt lat="46.07376" lon="6.78034">
        <ele>1896</ele>
        <time>2026-06-26T09:28:27Z</time>
      </trkpt>
      <trkpt lat="46.07376" lon="6.78034">
        <ele>1896.3</ele>
        <time>2026-06-26T09:28:28Z</time>
      </trkpt>
      <trkpt lat="46.07376" lon="6.78035">
        <ele>1896.6</ele>
        <time>2026-06-26T09:28:29Z</time>
      </trkpt>
      <trkpt lat="46.07377" lon="6.78035">
        <ele>1896.7</ele>
        <time>2026-06-26T09:28:30Z</time>
      </trkpt>
      <trkpt lat="46.07377" lon="6.78036">
        <ele>1897.1</ele>
        <time>2026-06-26T09:28:31Z</time>
      </trkpt>
      <trkpt lat="46.07377" lon="6.78036">
        <ele>1897.4</ele>
        <time>2026-06-26T09:28:32Z</time>
      </trkpt>
      <trkpt lat="46.07378" lon="6.78036">
        <ele>1897.6</ele>
        <time>2026-06-26T09:28:33Z</time>
      </trkpt>
      <trkpt lat="46.07378" lon="6.78036">
        <ele>1897.7</ele>
        <time>2026-06-26T09:28:34Z</time>
      </trkpt>
      <trkpt lat="46.07378" lon="6.78035">
        <ele>1897.9</ele>
        <time>2026-06-26T09:28:35Z</time>
      </trkpt>
      <trkpt lat="46.07378" lon="6.78035">
        <ele>1898</ele>
        <time>2026-06-26T09:28:36Z</time>
      </trkpt>
      <trkpt lat="46.07378" lon="6.78035">
        <ele>1898.1</ele>
        <time>2026-06-26T09:28:37Z</time>
      </trkpt>
      <trkpt lat="46.07378" lon="6.78035">
        <ele>1898.3</ele>
        <time>2026-06-26T09:28:38Z</time>
      </trkpt>
      <trkpt lat="46.07378" lon="6.78035">
        <ele>1898.4</ele>
        <time>2026-06-26T09:28:39Z</time>
      </trkpt>
      <trkpt lat="46.07379" lon="6.78036">
        <ele>1898.5</ele>
        <time>2026-06-26T09:28:40Z</time>
      </trkpt>
      <trkpt lat="46.07379" lon="6.78037">
        <ele>1898.7</ele>
        <time>2026-06-26T09:28:41Z</time>
      </trkpt>
      <trkpt lat="46.07379" lon="6.78038">
        <ele>1899</ele>
        <time>2026-06-26T09:28:42Z</time>
      </trkpt>
      <trkpt lat="46.07379" lon="6.78038">
        <ele>1899.1</ele>
        <time>2026-06-26T09:28:43Z</time>
      </trkpt>
      <trkpt lat="46.07379" lon="6.78039">
        <ele>1899.3</ele>
        <time>2026-06-26T09:28:44Z</time>
      </trkpt>
      <trkpt lat="46.07379" lon="6.7804">
        <ele>1899.4</ele>
        <time>2026-06-26T09:28:45Z</time>
      </trkpt>
      <trkpt lat="46.07379" lon="6.78041">
        <ele>1899.6</ele>
        <time>2026-06-26T09:28:46Z</time>
      </trkpt>
      <trkpt lat="46.0738" lon="6.78041">
        <ele>1899.8</ele>
        <time>2026-06-26T09:28:47Z</time>
      </trkpt>
      <trkpt lat="46.0738" lon="6.78041">
        <ele>1900</ele>
        <time>2026-06-26T09:28:48Z</time>
      </trkpt>
      <trkpt lat="46.0738" lon="6.78041">
        <ele>1900.3</ele>
        <time>2026-06-26T09:28:49Z</time>
      </trkpt>
      <trkpt lat="46.0738" lon="6.78041">
        <ele>1900.6</ele>
        <time>2026-06-26T09:28:50Z</time>
      </trkpt>
      <trkpt lat="46.0738" lon="6.78042">
        <ele>1900.6</ele>
        <time>2026-06-26T09:28:51Z</time>
      </trkpt>
      <trkpt lat="46.0738" lon="6.78042">
        <ele>1900.9</ele>
        <time>2026-06-26T09:28:52Z</time>
      </trkpt>
      <trkpt lat="46.0738" lon="6.78043">
        <ele>1900.9</ele>
        <time>2026-06-26T09:28:53Z</time>
      </trkpt>
      <trkpt lat="46.0738" lon="6.78044">
        <ele>1901.2</ele>
        <time>2026-06-26T09:28:54Z</time>
      </trkpt>
      <trkpt lat="46.0738" lon="6.78044">
        <ele>1901.6</ele>
        <time>2026-06-26T09:28:55Z</time>
      </trkpt>
      <trkpt lat="46.0738" lon="6.78045">
        <ele>1901.8</ele>
        <time>2026-06-26T09:28:56Z</time>
      </trkpt>
      <trkpt lat="46.0738" lon="6.78046">
        <ele>1902</ele>
        <time>2026-06-26T09:28:57Z</time>
      </trkpt>
      <trkpt lat="46.07381" lon="6.78047">
        <ele>1902.2</ele>
        <time>2026-06-26T09:28:58Z</time>
      </trkpt>
      <trkpt lat="46.07381" lon="6.78047">
        <ele>1902.5</ele>
        <time>2026-06-26T09:28:59Z</time>
      </trkpt>
      <trkpt lat="46.07381" lon="6.78047">
        <ele>1902.7</ele>
        <time>2026-06-26T09:29:00Z</time>
      </trkpt>
      <trkpt lat="46.07381" lon="6.78048">
        <ele>1902.8</ele>
        <time>2026-06-26T09:29:01Z</time>
      </trkpt>
      <trkpt lat="46.07381" lon="6.78048">
        <ele>1903</ele>
        <time>2026-06-26T09:29:02Z</time>
      </trkpt>
      <trkpt lat="46.07381" lon="6.78048">
        <ele>1903.1</ele>
        <time>2026-06-26T09:29:03Z</time>
      </trkpt>
      <trkpt lat="46.07382" lon="6.78049">
        <ele>1903.3</ele>
        <time>2026-06-26T09:29:04Z</time>
      </trkpt>
      <trkpt lat="46.07382" lon="6.78049">
        <ele>1903.5</ele>
        <time>2026-06-26T09:29:05Z</time>
      </trkpt>
      <trkpt lat="46.07383" lon="6.78049">
        <ele>1903.6</ele>
        <time>2026-06-26T09:29:06Z</time>
      </trkpt>
      <trkpt lat="46.07383" lon="6.7805">
        <ele>1903.8</ele>
        <time>2026-06-26T09:29:07Z</time>
      </trkpt>
      <trkpt lat="46.07384" lon="6.7805">
        <ele>1903.9</ele>
        <time>2026-06-26T09:29:08Z</time>
      </trkpt>
      <trkpt lat="46.07384" lon="6.78051">
        <ele>1904.1</ele>
        <time>2026-06-26T09:29:09Z</time>
      </trkpt>
      <trkpt lat="46.07384" lon="6.78051">
        <ele>1904.2</ele>
        <time>2026-06-26T09:29:10Z</time>
      </trkpt>
      <trkpt lat="46.07384" lon="6.78052">
        <ele>1904.3</ele>
        <time>2026-06-26T09:29:11Z</time>
      </trkpt>
      <trkpt lat="46.07385" lon="6.78052">
        <ele>1904.4</ele>
        <time>2026-06-26T09:29:12Z</time>
      </trkpt>
      <trkpt lat="46.07385" lon="6.78053">
        <ele>1904.4</ele>
        <time>2026-06-26T09:29:13Z</time>
      </trkpt>
      <trkpt lat="46.07385" lon="6.78053">
        <ele>1904.7</ele>
        <time>2026-06-26T09:29:14Z</time>
      </trkpt>
      <trkpt lat="46.07385" lon="6.78054">
        <ele>1904.9</ele>
        <time>2026-06-26T09:29:15Z</time>
      </trkpt>
      <trkpt lat="46.07386" lon="6.78055">
        <ele>1905.1</ele>
        <time>2026-06-26T09:29:16Z</time>
      </trkpt>
      <trkpt lat="46.07386" lon="6.78055">
        <ele>1905.2</ele>
        <time>2026-06-26T09:29:17Z</time>
      </trkpt>
      <trkpt lat="46.07386" lon="6.78055">
        <ele>1905.3</ele>
        <time>2026-06-26T09:29:18Z</time>
      </trkpt>
      <trkpt lat="46.07386" lon="6.78055">
        <ele>1905.6</ele>
        <time>2026-06-26T09:29:19Z</time>
      </trkpt>
      <trkpt lat="46.07386" lon="6.78056">
        <ele>1905.7</ele>
        <time>2026-06-26T09:29:20Z</time>
      </trkpt>
      <trkpt lat="46.07386" lon="6.78056">
        <ele>1906</ele>
        <time>2026-06-26T09:29:21Z</time>
      </trkpt>
      <trkpt lat="46.07387" lon="6.78057">
        <ele>1906.3</ele>
        <time>2026-06-26T09:29:22Z</time>
      </trkpt>
      <trkpt lat="46.07387" lon="6.78057">
        <ele>1906.5</ele>
        <time>2026-06-26T09:29:23Z</time>
      </trkpt>
      <trkpt lat="46.07387" lon="6.78058">
        <ele>1906.6</ele>
        <time>2026-06-26T09:29:24Z</time>
      </trkpt>
      <trkpt lat="46.07387" lon="6.78058">
        <ele>1906.8</ele>
        <time>2026-06-26T09:29:25Z</time>
      </trkpt>
      <trkpt lat="46.07387" lon="6.78058">
        <ele>1907.2</ele>
        <time>2026-06-26T09:29:26Z</time>
      </trkpt>
      <trkpt lat="46.07387" lon="6.78058">
        <ele>1907.4</ele>
        <time>2026-06-26T09:29:27Z</time>
      </trkpt>
      <trkpt lat="46.07387" lon="6.78059">
        <ele>1907.6</ele>
        <time>2026-06-26T09:29:28Z</time>
      </trkpt>
      <trkpt lat="46.07387" lon="6.78059">
        <ele>1907.8</ele>
        <time>2026-06-26T09:29:29Z</time>
      </trkpt>
      <trkpt lat="46.07387" lon="6.7806">
        <ele>1908</ele>
        <time>2026-06-26T09:29:30Z</time>
      </trkpt>
      <trkpt lat="46.07387" lon="6.78061">
        <ele>1908.1</ele>
        <time>2026-06-26T09:29:31Z</time>
      </trkpt>
      <trkpt lat="46.07387" lon="6.78062">
        <ele>1908.3</ele>
        <time>2026-06-26T09:29:32Z</time>
      </trkpt>
      <trkpt lat="46.07388" lon="6.78062">
        <ele>1908.4</ele>
        <time>2026-06-26T09:29:33Z</time>
      </trkpt>
      <trkpt lat="46.07388" lon="6.78062">
        <ele>1908.7</ele>
        <time>2026-06-26T09:29:34Z</time>
      </trkpt>
      <trkpt lat="46.07389" lon="6.78062">
        <ele>1908.9</ele>
        <time>2026-06-26T09:29:35Z</time>
      </trkpt>
      <trkpt lat="46.07389" lon="6.78063">
        <ele>1909.1</ele>
        <time>2026-06-26T09:29:36Z</time>
      </trkpt>
      <trkpt lat="46.07389" lon="6.78063">
        <ele>1909.2</ele>
        <time>2026-06-26T09:29:37Z</time>
      </trkpt>
      <trkpt lat="46.07389" lon="6.78063">
        <ele>1909.4</ele>
        <time>2026-06-26T09:29:38Z</time>
      </trkpt>
      <trkpt lat="46.07389" lon="6.78063">
        <ele>1909.6</ele>
        <time>2026-06-26T09:29:39Z</time>
      </trkpt>
      <trkpt lat="46.07389" lon="6.78063">
        <ele>1909.7</ele>
        <time>2026-06-26T09:29:40Z</time>
      </trkpt>
      <trkpt lat="46.0739" lon="6.78064">
        <ele>1909.9</ele>
        <time>2026-06-26T09:29:41Z</time>
      </trkpt>
      <trkpt lat="46.0739" lon="6.78064">
        <ele>1910</ele>
        <time>2026-06-26T09:29:42Z</time>
      </trkpt>
      <trkpt lat="46.0739" lon="6.78064">
        <ele>1910.1</ele>
        <time>2026-06-26T09:29:43Z</time>
      </trkpt>
      <trkpt lat="46.0739" lon="6.78065">
        <ele>1910.3</ele>
        <time>2026-06-26T09:29:44Z</time>
      </trkpt>
      <trkpt lat="46.0739" lon="6.78065">
        <ele>1910.5</ele>
        <time>2026-06-26T09:29:45Z</time>
      </trkpt>
      <trkpt lat="46.0739" lon="6.78066">
        <ele>1910.7</ele>
        <time>2026-06-26T09:29:46Z</time>
      </trkpt>
      <trkpt lat="46.0739" lon="6.78067">
        <ele>1910.9</ele>
        <time>2026-06-26T09:29:47Z</time>
      </trkpt>
      <trkpt lat="46.0739" lon="6.78067">
        <ele>1911.1</ele>
        <time>2026-06-26T09:29:48Z</time>
      </trkpt>
      <trkpt lat="46.07391" lon="6.78068">
        <ele>1911.4</ele>
        <time>2026-06-26T09:29:49Z</time>
      </trkpt>
      <trkpt lat="46.07391" lon="6.78068">
        <ele>1911.7</ele>
        <time>2026-06-26T09:29:50Z</time>
      </trkpt>
      <trkpt lat="46.07391" lon="6.78069">
        <ele>1911.9</ele>
        <time>2026-06-26T09:29:51Z</time>
      </trkpt>
      <trkpt lat="46.07391" lon="6.78069">
        <ele>1912.1</ele>
        <time>2026-06-26T09:29:52Z</time>
      </trkpt>
      <trkpt lat="46.07392" lon="6.7807">
        <ele>1912.3</ele>
        <time>2026-06-26T09:29:53Z</time>
      </trkpt>
      <trkpt lat="46.07392" lon="6.7807">
        <ele>1912.6</ele>
        <time>2026-06-26T09:29:54Z</time>
      </trkpt>
      <trkpt lat="46.07392" lon="6.78071">
        <ele>1912.8</ele>
        <time>2026-06-26T09:29:55Z</time>
      </trkpt>
      <trkpt lat="46.07393" lon="6.78071">
        <ele>1913</ele>
        <time>2026-06-26T09:29:56Z</time>
      </trkpt>
      <trkpt lat="46.07393" lon="6.78072">
        <ele>1913.2</ele>
        <time>2026-06-26T09:29:57Z</time>
      </trkpt>
      <trkpt lat="46.07393" lon="6.78072">
        <ele>1913.4</ele>
        <time>2026-06-26T09:29:58Z</time>
      </trkpt>
      <trkpt lat="46.07393" lon="6.78073">
        <ele>1913.7</ele>
        <time>2026-06-26T09:29:59Z</time>
      </trkpt>
      <trkpt lat="46.07394" lon="6.78073">
        <ele>1914</ele>
        <time>2026-06-26T09:30:00Z</time>
      </trkpt>
      <trkpt lat="46.07394" lon="6.78074">
        <ele>1914.2</ele>
        <time>2026-06-26T09:30:01Z</time>
      </trkpt>
      <trkpt lat="46.07394" lon="6.78075">
        <ele>1914.5</ele>
        <time>2026-06-26T09:30:02Z</time>
      </trkpt>
      <trkpt lat="46.07395" lon="6.78075">
        <ele>1914.6</ele>
        <time>2026-06-26T09:30:03Z</time>
      </trkpt>
      <trkpt lat="46.07395" lon="6.78076">
        <ele>1914.8</ele>
        <time>2026-06-26T09:30:04Z</time>
      </trkpt>
      <trkpt lat="46.07395" lon="6.78076">
        <ele>1914.9</ele>
        <time>2026-06-26T09:30:05Z</time>
      </trkpt>
      <trkpt lat="46.07395" lon="6.78077">
        <ele>1915.1</ele>
        <time>2026-06-26T09:30:06Z</time>
      </trkpt>
      <trkpt lat="46.07395" lon="6.78077">
        <ele>1915.4</ele>
        <time>2026-06-26T09:30:07Z</time>
      </trkpt>
      <trkpt lat="46.07396" lon="6.78078">
        <ele>1915.5</ele>
        <time>2026-06-26T09:30:08Z</time>
      </trkpt>
      <trkpt lat="46.07396" lon="6.78078">
        <ele>1915.7</ele>
        <time>2026-06-26T09:30:09Z</time>
      </trkpt>
      <trkpt lat="46.07396" lon="6.78079">
        <ele>1915.8</ele>
        <time>2026-06-26T09:30:10Z</time>
      </trkpt>
      <trkpt lat="46.07396" lon="6.78079">
        <ele>1916.1</ele>
        <time>2026-06-26T09:30:11Z</time>
      </trkpt>
      <trkpt lat="46.07395" lon="6.7808">
        <ele>1916.3</ele>
        <time>2026-06-26T09:30:12Z</time>
      </trkpt>
      <trkpt lat="46.07395" lon="6.7808">
        <ele>1916.4</ele>
        <time>2026-06-26T09:30:13Z</time>
      </trkpt>
      <trkpt lat="46.07395" lon="6.7808">
        <ele>1916.6</ele>
        <time>2026-06-26T09:30:14Z</time>
      </trkpt>
      <trkpt lat="46.07395" lon="6.78081">
        <ele>1916.9</ele>
        <time>2026-06-26T09:30:15Z</time>
      </trkpt>
      <trkpt lat="46.07396" lon="6.78081">
        <ele>1917.1</ele>
        <time>2026-06-26T09:30:16Z</time>
      </trkpt>
      <trkpt lat="46.07396" lon="6.78081">
        <ele>1917.2</ele>
        <time>2026-06-26T09:30:17Z</time>
      </trkpt>
      <trkpt lat="46.07396" lon="6.78081">
        <ele>1917.4</ele>
        <time>2026-06-26T09:30:18Z</time>
      </trkpt>
      <trkpt lat="46.07395" lon="6.78082">
        <ele>1917.6</ele>
        <time>2026-06-26T09:30:19Z</time>
      </trkpt>
      <trkpt lat="46.07396" lon="6.78082">
        <ele>1917.8</ele>
        <time>2026-06-26T09:30:20Z</time>
      </trkpt>
      <trkpt lat="46.07396" lon="6.78083">
        <ele>1918.1</ele>
        <time>2026-06-26T09:30:21Z</time>
      </trkpt>
      <trkpt lat="46.07396" lon="6.78083">
        <ele>1918.4</ele>
        <time>2026-06-26T09:30:22Z</time>
      </trkpt>
      <trkpt lat="46.07396" lon="6.78084">
        <ele>1918.7</ele>
        <time>2026-06-26T09:30:23Z</time>
      </trkpt>
      <trkpt lat="46.07396" lon="6.78085">
        <ele>1918.9</ele>
        <time>2026-06-26T09:30:24Z</time>
      </trkpt>
      <trkpt lat="46.07396" lon="6.78085">
        <ele>1919.2</ele>
        <time>2026-06-26T09:30:25Z</time>
      </trkpt>
      <trkpt lat="46.07396" lon="6.78085">
        <ele>1919.5</ele>
        <time>2026-06-26T09:30:26Z</time>
      </trkpt>
      <trkpt lat="46.07396" lon="6.78085">
        <ele>1919.7</ele>
        <time>2026-06-26T09:30:27Z</time>
      </trkpt>
      <trkpt lat="46.07397" lon="6.78086">
        <ele>1920</ele>
        <time>2026-06-26T09:30:28Z</time>
      </trkpt>
      <trkpt lat="46.07397" lon="6.78086">
        <ele>1920.1</ele>
        <time>2026-06-26T09:30:29Z</time>
      </trkpt>
      <trkpt lat="46.07397" lon="6.78087">
        <ele>1920.1</ele>
        <time>2026-06-26T09:30:30Z</time>
      </trkpt>
      <trkpt lat="46.07397" lon="6.78087">
        <ele>1920.5</ele>
        <time>2026-06-26T09:30:31Z</time>
      </trkpt>
      <trkpt lat="46.07397" lon="6.78088">
        <ele>1920.8</ele>
        <time>2026-06-26T09:30:32Z</time>
      </trkpt>
      <trkpt lat="46.07397" lon="6.78088">
        <ele>1921</ele>
        <time>2026-06-26T09:30:33Z</time>
      </trkpt>
      <trkpt lat="46.07397" lon="6.78089">
        <ele>1921.3</ele>
        <time>2026-06-26T09:30:34Z</time>
      </trkpt>
      <trkpt lat="46.07397" lon="6.7809">
        <ele>1921.5</ele>
        <time>2026-06-26T09:30:35Z</time>
      </trkpt>
      <trkpt lat="46.07398" lon="6.7809">
        <ele>1921.7</ele>
        <time>2026-06-26T09:30:36Z</time>
      </trkpt>
      <trkpt lat="46.07398" lon="6.7809">
        <ele>1921.9</ele>
        <time>2026-06-26T09:30:37Z</time>
      </trkpt>
      <trkpt lat="46.07399" lon="6.78091">
        <ele>1922.1</ele>
        <time>2026-06-26T09:30:38Z</time>
      </trkpt>
      <trkpt lat="46.07399" lon="6.78091">
        <ele>1922.3</ele>
        <time>2026-06-26T09:30:39Z</time>
      </trkpt>
      <trkpt lat="46.07399" lon="6.78092">
        <ele>1922.5</ele>
        <time>2026-06-26T09:30:40Z</time>
      </trkpt>
      <trkpt lat="46.07399" lon="6.78092">
        <ele>1922.6</ele>
        <time>2026-06-26T09:30:41Z</time>
      </trkpt>
      <trkpt lat="46.074" lon="6.78092">
        <ele>1922.8</ele>
        <time>2026-06-26T09:30:42Z</time>
      </trkpt>
      <trkpt lat="46.074" lon="6.78093">
        <ele>1923</ele>
        <time>2026-06-26T09:30:43Z</time>
      </trkpt>
      <trkpt lat="46.07401" lon="6.78093">
        <ele>1923.2</ele>
        <time>2026-06-26T09:30:44Z</time>
      </trkpt>
      <trkpt lat="46.07401" lon="6.78093">
        <ele>1923.3</ele>
        <time>2026-06-26T09:30:45Z</time>
      </trkpt>
      <trkpt lat="46.07401" lon="6.78093">
        <ele>1923.5</ele>
        <time>2026-06-26T09:30:46Z</time>
      </trkpt>
      <trkpt lat="46.07401" lon="6.78094">
        <ele>1923.7</ele>
        <time>2026-06-26T09:30:47Z</time>
      </trkpt>
      <trkpt lat="46.07401" lon="6.78094">
        <ele>1923.8</ele>
        <time>2026-06-26T09:30:48Z</time>
      </trkpt>
      <trkpt lat="46.07401" lon="6.78094">
        <ele>1924.2</ele>
        <time>2026-06-26T09:30:49Z</time>
      </trkpt>
      <trkpt lat="46.07401" lon="6.78095">
        <ele>1924.4</ele>
        <time>2026-06-26T09:30:50Z</time>
      </trkpt>
      <trkpt lat="46.07401" lon="6.78095">
        <ele>1924.7</ele>
        <time>2026-06-26T09:30:51Z</time>
      </trkpt>
      <trkpt lat="46.07401" lon="6.78096">
        <ele>1924.8</ele>
        <time>2026-06-26T09:30:52Z</time>
      </trkpt>
      <trkpt lat="46.07401" lon="6.78096">
        <ele>1925</ele>
        <time>2026-06-26T09:30:53Z</time>
      </trkpt>
      <trkpt lat="46.07401" lon="6.78096">
        <ele>1925.2</ele>
        <time>2026-06-26T09:30:54Z</time>
      </trkpt>
      <trkpt lat="46.074" lon="6.78097">
        <ele>1925.4</ele>
        <time>2026-06-26T09:30:55Z</time>
      </trkpt>
      <trkpt lat="46.074" lon="6.78097">
        <ele>1925.6</ele>
        <time>2026-06-26T09:30:56Z</time>
      </trkpt>
      <trkpt lat="46.074" lon="6.78098">
        <ele>1925.7</ele>
        <time>2026-06-26T09:30:57Z</time>
      </trkpt>
      <trkpt lat="46.074" lon="6.78098">
        <ele>1925.8</ele>
        <time>2026-06-26T09:30:58Z</time>
      </trkpt>
      <trkpt lat="46.074" lon="6.78099">
        <ele>1926.1</ele>
        <time>2026-06-26T09:30:59Z</time>
      </trkpt>
      <trkpt lat="46.07399" lon="6.78099">
        <ele>1926.2</ele>
        <time>2026-06-26T09:31:00Z</time>
      </trkpt>
      <trkpt lat="46.07399" lon="6.781">
        <ele>1926.5</ele>
        <time>2026-06-26T09:31:01Z</time>
      </trkpt>
      <trkpt lat="46.074" lon="6.78101">
        <ele>1926.7</ele>
        <time>2026-06-26T09:31:02Z</time>
      </trkpt>
      <trkpt lat="46.074" lon="6.78101">
        <ele>1926.9</ele>
        <time>2026-06-26T09:31:03Z</time>
      </trkpt>
      <trkpt lat="46.074" lon="6.78101">
        <ele>1927.3</ele>
        <time>2026-06-26T09:31:04Z</time>
      </trkpt>
      <trkpt lat="46.074" lon="6.78102">
        <ele>1927.5</ele>
        <time>2026-06-26T09:31:05Z</time>
      </trkpt>
      <trkpt lat="46.07401" lon="6.78102">
        <ele>1927.8</ele>
        <time>2026-06-26T09:31:06Z</time>
      </trkpt>
      <trkpt lat="46.07401" lon="6.78103">
        <ele>1928</ele>
        <time>2026-06-26T09:31:07Z</time>
      </trkpt>
      <trkpt lat="46.07401" lon="6.78103">
        <ele>1928.3</ele>
        <time>2026-06-26T09:31:08Z</time>
      </trkpt>
      <trkpt lat="46.07402" lon="6.78104">
        <ele>1928.5</ele>
        <time>2026-06-26T09:31:09Z</time>
      </trkpt>
      <trkpt lat="46.07402" lon="6.78104">
        <ele>1928.8</ele>
        <time>2026-06-26T09:31:10Z</time>
      </trkpt>
      <trkpt lat="46.07402" lon="6.78104">
        <ele>1928.8</ele>
        <time>2026-06-26T09:31:11Z</time>
      </trkpt>
      <trkpt lat="46.07402" lon="6.78105">
        <ele>1929</ele>
        <time>2026-06-26T09:31:12Z</time>
      </trkpt>
      <trkpt lat="46.07402" lon="6.78105">
        <ele>1929.2</ele>
        <time>2026-06-26T09:31:13Z</time>
      </trkpt>
      <trkpt lat="46.07402" lon="6.78105">
        <ele>1929.3</ele>
        <time>2026-06-26T09:31:14Z</time>
      </trkpt>
      <trkpt lat="46.07401" lon="6.78106">
        <ele>1929.5</ele>
        <time>2026-06-26T09:31:15Z</time>
      </trkpt>
      <trkpt lat="46.07401" lon="6.78106">
        <ele>1929.7</ele>
        <time>2026-06-26T09:31:16Z</time>
      </trkpt>
      <trkpt lat="46.07401" lon="6.78107">
        <ele>1929.9</ele>
        <time>2026-06-26T09:31:17Z</time>
      </trkpt>
      <trkpt lat="46.074" lon="6.78107">
        <ele>1930</ele>
        <time>2026-06-26T09:31:18Z</time>
      </trkpt>
      <trkpt lat="46.074" lon="6.78107">
        <ele>1930.1</ele>
        <time>2026-06-26T09:31:19Z</time>
      </trkpt>
      <trkpt lat="46.074" lon="6.78107">
        <ele>1930.3</ele>
        <time>2026-06-26T09:31:20Z</time>
      </trkpt>
      <trkpt lat="46.07399" lon="6.78108">
        <ele>1930.5</ele>
        <time>2026-06-26T09:31:21Z</time>
      </trkpt>
      <trkpt lat="46.07399" lon="6.78108">
        <ele>1930.7</ele>
        <time>2026-06-26T09:31:22Z</time>
      </trkpt>
      <trkpt lat="46.07398" lon="6.78109">
        <ele>1930.9</ele>
        <time>2026-06-26T09:31:23Z</time>
      </trkpt>
      <trkpt lat="46.07398" lon="6.78109">
        <ele>1931.1</ele>
        <time>2026-06-26T09:31:24Z</time>
      </trkpt>
      <trkpt lat="46.07398" lon="6.7811">
        <ele>1931.3</ele>
        <time>2026-06-26T09:31:25Z</time>
      </trkpt>
      <trkpt lat="46.07399" lon="6.7811">
        <ele>1931.6</ele>
        <time>2026-06-26T09:31:26Z</time>
      </trkpt>
      <trkpt lat="46.07399" lon="6.7811">
        <ele>1931.8</ele>
        <time>2026-06-26T09:31:27Z</time>
      </trkpt>
      <trkpt lat="46.07399" lon="6.78111">
        <ele>1932</ele>
        <time>2026-06-26T09:31:28Z</time>
      </trkpt>
      <trkpt lat="46.07399" lon="6.78111">
        <ele>1932.1</ele>
        <time>2026-06-26T09:31:29Z</time>
      </trkpt>
      <trkpt lat="46.07399" lon="6.78111">
        <ele>1932.3</ele>
        <time>2026-06-26T09:31:30Z</time>
      </trkpt>
      <trkpt lat="46.07399" lon="6.78112">
        <ele>1932.5</ele>
        <time>2026-06-26T09:31:31Z</time>
      </trkpt>
      <trkpt lat="46.07398" lon="6.78112">
        <ele>1932.6</ele>
        <time>2026-06-26T09:31:32Z</time>
      </trkpt>
      <trkpt lat="46.07398" lon="6.78113">
        <ele>1932.8</ele>
        <time>2026-06-26T09:31:33Z</time>
      </trkpt>
      <trkpt lat="46.07398" lon="6.78113">
        <ele>1933</ele>
        <time>2026-06-26T09:31:34Z</time>
      </trkpt>
      <trkpt lat="46.07398" lon="6.78113">
        <ele>1933.1</ele>
        <time>2026-06-26T09:31:35Z</time>
      </trkpt>
      <trkpt lat="46.07398" lon="6.78114">
        <ele>1933.3</ele>
        <time>2026-06-26T09:31:36Z</time>
      </trkpt>
      <trkpt lat="46.07398" lon="6.78115">
        <ele>1933.6</ele>
        <time>2026-06-26T09:31:37Z</time>
      </trkpt>
      <trkpt lat="46.07398" lon="6.78115">
        <ele>1933.8</ele>
        <time>2026-06-26T09:31:38Z</time>
      </trkpt>
      <trkpt lat="46.07397" lon="6.78116">
        <ele>1933.9</ele>
        <time>2026-06-26T09:31:39Z</time>
      </trkpt>
      <trkpt lat="46.07398" lon="6.78116">
        <ele>1934.1</ele>
        <time>2026-06-26T09:31:40Z</time>
      </trkpt>
      <trkpt lat="46.07398" lon="6.78117">
        <ele>1934.3</ele>
        <time>2026-06-26T09:31:41Z</time>
      </trkpt>
      <trkpt lat="46.07398" lon="6.78117">
        <ele>1934.5</ele>
        <time>2026-06-26T09:31:42Z</time>
      </trkpt>
      <trkpt lat="46.07398" lon="6.78117">
        <ele>1934.7</ele>
        <time>2026-06-26T09:31:43Z</time>
      </trkpt>
      <trkpt lat="46.07398" lon="6.78117">
        <ele>1934.9</ele>
        <time>2026-06-26T09:31:44Z</time>
      </trkpt>
      <trkpt lat="46.07398" lon="6.78117">
        <ele>1935</ele>
        <time>2026-06-26T09:31:45Z</time>
      </trkpt>
      <trkpt lat="46.07398" lon="6.78118">
        <ele>1935.2</ele>
        <time>2026-06-26T09:31:46Z</time>
      </trkpt>
      <trkpt lat="46.07398" lon="6.78118">
        <ele>1935.3</ele>
        <time>2026-06-26T09:31:47Z</time>
      </trkpt>
      <trkpt lat="46.07397" lon="6.78118">
        <ele>1935.5</ele>
        <time>2026-06-26T09:31:48Z</time>
      </trkpt>
      <trkpt lat="46.07397" lon="6.78118">
        <ele>1935.6</ele>
        <time>2026-06-26T09:31:49Z</time>
      </trkpt>
      <trkpt lat="46.07397" lon="6.78118">
        <ele>1935.8</ele>
        <time>2026-06-26T09:31:50Z</time>
      </trkpt>
      <trkpt lat="46.07397" lon="6.78118">
        <ele>1935.8</ele>
        <time>2026-06-26T09:31:51Z</time>
      </trkpt>
      <trkpt lat="46.07396" lon="6.78118">
        <ele>1935.9</ele>
        <time>2026-06-26T09:31:52Z</time>
      </trkpt>
      <trkpt lat="46.07395" lon="6.78118">
        <ele>1936</ele>
        <time>2026-06-26T09:31:53Z</time>
      </trkpt>
      <trkpt lat="46.07395" lon="6.78119">
        <ele>1936.1</ele>
        <time>2026-06-26T09:31:54Z</time>
      </trkpt>
      <trkpt lat="46.07395" lon="6.78119">
        <ele>1936.2</ele>
        <time>2026-06-26T09:31:55Z</time>
      </trkpt>
      <trkpt lat="46.07394" lon="6.7812">
        <ele>1936.3</ele>
        <time>2026-06-26T09:31:56Z</time>
      </trkpt>
      <trkpt lat="46.07394" lon="6.7812">
        <ele>1936.5</ele>
        <time>2026-06-26T09:31:57Z</time>
      </trkpt>
      <trkpt lat="46.07394" lon="6.78121">
        <ele>1936.6</ele>
        <time>2026-06-26T09:31:58Z</time>
      </trkpt>
      <trkpt lat="46.07394" lon="6.78121">
        <ele>1936.8</ele>
        <time>2026-06-26T09:31:59Z</time>
      </trkpt>
      <trkpt lat="46.07394" lon="6.78122">
        <ele>1937.1</ele>
        <time>2026-06-26T09:32:00Z</time>
      </trkpt>
      <trkpt lat="46.07394" lon="6.78122">
        <ele>1937.3</ele>
        <time>2026-06-26T09:32:01Z</time>
      </trkpt>
      <trkpt lat="46.07393" lon="6.78123">
        <ele>1937.5</ele>
        <time>2026-06-26T09:32:02Z</time>
      </trkpt>
      <trkpt lat="46.07393" lon="6.78123">
        <ele>1937.7</ele>
        <time>2026-06-26T09:32:03Z</time>
      </trkpt>
      <trkpt lat="46.07393" lon="6.78124">
        <ele>1937.8</ele>
        <time>2026-06-26T09:32:04Z</time>
      </trkpt>
      <trkpt lat="46.07393" lon="6.78124">
        <ele>1938</ele>
        <time>2026-06-26T09:32:05Z</time>
      </trkpt>
      <trkpt lat="46.07393" lon="6.78125">
        <ele>1938.3</ele>
        <time>2026-06-26T09:32:06Z</time>
      </trkpt>
      <trkpt lat="46.07394" lon="6.78126">
        <ele>1938.6</ele>
        <time>2026-06-26T09:32:07Z</time>
      </trkpt>
      <trkpt lat="46.07394" lon="6.78127">
        <ele>1938.9</ele>
        <time>2026-06-26T09:32:08Z</time>
      </trkpt>
      <trkpt lat="46.07394" lon="6.78127">
        <ele>1939.3</ele>
        <time>2026-06-26T09:32:09Z</time>
      </trkpt>
      <trkpt lat="46.07395" lon="6.78128">
        <ele>1939.5</ele>
        <time>2026-06-26T09:32:10Z</time>
      </trkpt>
      <trkpt lat="46.07395" lon="6.78128">
        <ele>1939.7</ele>
        <time>2026-06-26T09:32:11Z</time>
      </trkpt>
      <trkpt lat="46.07395" lon="6.78129">
        <ele>1940</ele>
        <time>2026-06-26T09:32:12Z</time>
      </trkpt>
      <trkpt lat="46.07395" lon="6.78129">
        <ele>1940.3</ele>
        <time>2026-06-26T09:32:13Z</time>
      </trkpt>
      <trkpt lat="46.07395" lon="6.7813">
        <ele>1940.5</ele>
        <time>2026-06-26T09:32:14Z</time>
      </trkpt>
      <trkpt lat="46.07395" lon="6.7813">
        <ele>1940.8</ele>
        <time>2026-06-26T09:32:15Z</time>
      </trkpt>
      <trkpt lat="46.07395" lon="6.78131">
        <ele>1941.1</ele>
        <time>2026-06-26T09:32:16Z</time>
      </trkpt>
      <trkpt lat="46.07395" lon="6.78131">
        <ele>1941.4</ele>
        <time>2026-06-26T09:32:17Z</time>
      </trkpt>
      <trkpt lat="46.07396" lon="6.78132">
        <ele>1941.6</ele>
        <time>2026-06-26T09:32:18Z</time>
      </trkpt>
      <trkpt lat="46.07396" lon="6.78132">
        <ele>1941.7</ele>
        <time>2026-06-26T09:32:19Z</time>
      </trkpt>
      <trkpt lat="46.07396" lon="6.78133">
        <ele>1941.9</ele>
        <time>2026-06-26T09:32:20Z</time>
      </trkpt>
      <trkpt lat="46.07396" lon="6.78134">
        <ele>1942</ele>
        <time>2026-06-26T09:32:21Z</time>
      </trkpt>
      <trkpt lat="46.07395" lon="6.78134">
        <ele>1942.1</ele>
        <time>2026-06-26T09:32:22Z</time>
      </trkpt>
      <trkpt lat="46.07395" lon="6.78134">
        <ele>1942.4</ele>
        <time>2026-06-26T09:32:23Z</time>
      </trkpt>
      <trkpt lat="46.07395" lon="6.78135">
        <ele>1942.5</ele>
        <time>2026-06-26T09:32:24Z</time>
      </trkpt>
      <trkpt lat="46.07395" lon="6.78135">
        <ele>1942.7</ele>
        <time>2026-06-26T09:32:25Z</time>
      </trkpt>
      <trkpt lat="46.07394" lon="6.78135">
        <ele>1942.9</ele>
        <time>2026-06-26T09:32:26Z</time>
      </trkpt>
      <trkpt lat="46.07394" lon="6.78136">
        <ele>1943.1</ele>
        <time>2026-06-26T09:32:27Z</time>
      </trkpt>
      <trkpt lat="46.07394" lon="6.78136">
        <ele>1943.3</ele>
        <time>2026-06-26T09:32:28Z</time>
      </trkpt>
      <trkpt lat="46.07394" lon="6.78137">
        <ele>1943.6</ele>
        <time>2026-06-26T09:32:29Z</time>
      </trkpt>
      <trkpt lat="46.07394" lon="6.78137">
        <ele>1943.8</ele>
        <time>2026-06-26T09:32:30Z</time>
      </trkpt>
      <trkpt lat="46.07393" lon="6.78137">
        <ele>1944</ele>
        <time>2026-06-26T09:32:31Z</time>
      </trkpt>
      <trkpt lat="46.07393" lon="6.78137">
        <ele>1944.2</ele>
        <time>2026-06-26T09:32:32Z</time>
      </trkpt>
      <trkpt lat="46.07393" lon="6.78137">
        <ele>1944.3</ele>
        <time>2026-06-26T09:32:33Z</time>
      </trkpt>
      <trkpt lat="46.07393" lon="6.78137">
        <ele>1944.5</ele>
        <time>2026-06-26T09:32:34Z</time>
      </trkpt>
      <trkpt lat="46.07393" lon="6.78137">
        <ele>1944.6</ele>
        <time>2026-06-26T09:32:35Z</time>
      </trkpt>
      <trkpt lat="46.07393" lon="6.78137">
        <ele>1944.7</ele>
        <time>2026-06-26T09:32:36Z</time>
      </trkpt>
      <trkpt lat="46.07393" lon="6.78137">
        <ele>1944.8</ele>
        <time>2026-06-26T09:32:37Z</time>
      </trkpt>
      <trkpt lat="46.07393" lon="6.78137">
        <ele>1944.9</ele>
        <time>2026-06-26T09:32:38Z</time>
      </trkpt>
      <trkpt lat="46.07393" lon="6.78137">
        <ele>1945</ele>
        <time>2026-06-26T09:32:39Z</time>
      </trkpt>
      <trkpt lat="46.07393" lon="6.78137">
        <ele>1945.1</ele>
        <time>2026-06-26T09:32:40Z</time>
      </trkpt>
      <trkpt lat="46.07394" lon="6.78136">
        <ele>1945.1</ele>
        <time>2026-06-26T09:32:41Z</time>
      </trkpt>
      <trkpt lat="46.07394" lon="6.78136">
        <ele>1945.2</ele>
        <time>2026-06-26T09:32:42Z</time>
      </trkpt>
      <trkpt lat="46.07394" lon="6.78136">
        <ele>1945.2</ele>
        <time>2026-06-26T09:32:43Z</time>
      </trkpt>
      <trkpt lat="46.07394" lon="6.78136">
        <ele>1945.2</ele>
        <time>2026-06-26T09:32:44Z</time>
      </trkpt>
      <trkpt lat="46.07394" lon="6.78137">
        <ele>1945.3</ele>
        <time>2026-06-26T09:32:45Z</time>
      </trkpt>
      <trkpt lat="46.07394" lon="6.78138">
        <ele>1945.3</ele>
        <time>2026-06-26T09:32:46Z</time>
      </trkpt>
      <trkpt lat="46.07394" lon="6.78138">
        <ele>1945.4</ele>
        <time>2026-06-26T09:32:47Z</time>
      </trkpt>
      <trkpt lat="46.07394" lon="6.78138">
        <ele>1945.4</ele>
        <time>2026-06-26T09:32:48Z</time>
      </trkpt>
      <trkpt lat="46.07394" lon="6.78138">
        <ele>1945.4</ele>
        <time>2026-06-26T09:32:49Z</time>
      </trkpt>
      <trkpt lat="46.07394" lon="6.78139">
        <ele>1945.5</ele>
        <time>2026-06-26T09:32:50Z</time>
      </trkpt>
      <trkpt lat="46.07394" lon="6.78139">
        <ele>1945.6</ele>
        <time>2026-06-26T09:32:51Z</time>
      </trkpt>
      <trkpt lat="46.07394" lon="6.78139">
        <ele>1945.5</ele>
        <time>2026-06-26T09:32:52Z</time>
      </trkpt>
      <trkpt lat="46.07394" lon="6.78139">
        <ele>1945.5</ele>
        <time>2026-06-26T09:32:53Z</time>
      </trkpt>
      <trkpt lat="46.07394" lon="6.78139">
        <ele>1945.5</ele>
        <time>2026-06-26T09:32:54Z</time>
      </trkpt>
      <trkpt lat="46.07394" lon="6.7814">
        <ele>1945.5</ele>
        <time>2026-06-26T09:32:55Z</time>
      </trkpt>
      <trkpt lat="46.07394" lon="6.7814">
        <ele>1945.5</ele>
        <time>2026-06-26T09:32:56Z</time>
      </trkpt>
      <trkpt lat="46.07394" lon="6.7814">
        <ele>1945.6</ele>
        <time>2026-06-26T09:32:57Z</time>
      </trkpt>
      <trkpt lat="46.07394" lon="6.7814">
        <ele>1945.7</ele>
        <time>2026-06-26T09:32:58Z</time>
      </trkpt>
      <trkpt lat="46.07395" lon="6.78141">
        <ele>1945.7</ele>
        <time>2026-06-26T09:32:59Z</time>
      </trkpt>
      <trkpt lat="46.07395" lon="6.78141">
        <ele>1945.8</ele>
        <time>2026-06-26T09:33:00Z</time>
      </trkpt>
      <trkpt lat="46.07395" lon="6.78141">
        <ele>1945.9</ele>
        <time>2026-06-26T09:33:01Z</time>
      </trkpt>
      <trkpt lat="46.07395" lon="6.78142">
        <ele>1946</ele>
        <time>2026-06-26T09:33:02Z</time>
      </trkpt>
      <trkpt lat="46.07395" lon="6.78142">
        <ele>1946.1</ele>
        <time>2026-06-26T09:33:03Z</time>
      </trkpt>
      <trkpt lat="46.07395" lon="6.78143">
        <ele>1946.4</ele>
        <time>2026-06-26T09:33:04Z</time>
      </trkpt>
      <trkpt lat="46.07396" lon="6.78143">
        <ele>1946.5</ele>
        <time>2026-06-26T09:33:05Z</time>
      </trkpt>
      <trkpt lat="46.07396" lon="6.78143">
        <ele>1946.6</ele>
        <time>2026-06-26T09:33:06Z</time>
      </trkpt>
      <trkpt lat="46.07396" lon="6.78143">
        <ele>1946.7</ele>
        <time>2026-06-26T09:33:07Z</time>
      </trkpt>
      <trkpt lat="46.07396" lon="6.78144">
        <ele>1946.9</ele>
        <time>2026-06-26T09:33:08Z</time>
      </trkpt>
      <trkpt lat="46.07396" lon="6.78144">
        <ele>1947.1</ele>
        <time>2026-06-26T09:33:09Z</time>
      </trkpt>
      <trkpt lat="46.07397" lon="6.78144">
        <ele>1947.3</ele>
        <time>2026-06-26T09:33:10Z</time>
      </trkpt>
      <trkpt lat="46.07397" lon="6.78145">
        <ele>1947.5</ele>
        <time>2026-06-26T09:33:11Z</time>
      </trkpt>
      <trkpt lat="46.07397" lon="6.78145">
        <ele>1947.8</ele>
        <time>2026-06-26T09:33:12Z</time>
      </trkpt>
      <trkpt lat="46.07397" lon="6.78146">
        <ele>1948</ele>
        <time>2026-06-26T09:33:13Z</time>
      </trkpt>
      <trkpt lat="46.07397" lon="6.78146">
        <ele>1948.1</ele>
        <time>2026-06-26T09:33:14Z</time>
      </trkpt>
      <trkpt lat="46.07396" lon="6.78147">
        <ele>1948.2</ele>
        <time>2026-06-26T09:33:15Z</time>
      </trkpt>
      <trkpt lat="46.07396" lon="6.78148">
        <ele>1948.4</ele>
        <time>2026-06-26T09:33:16Z</time>
      </trkpt>
      <trkpt lat="46.07396" lon="6.78148">
        <ele>1948.5</ele>
        <time>2026-06-26T09:33:17Z</time>
      </trkpt>
      <trkpt lat="46.07396" lon="6.78149">
        <ele>1948.7</ele>
        <time>2026-06-26T09:33:18Z</time>
      </trkpt>
      <trkpt lat="46.07397" lon="6.78149">
        <ele>1948.9</ele>
        <time>2026-06-26T09:33:19Z</time>
      </trkpt>
      <trkpt lat="46.07397" lon="6.7815">
        <ele>1949.3</ele>
        <time>2026-06-26T09:33:20Z</time>
      </trkpt>
      <trkpt lat="46.07398" lon="6.78151">
        <ele>1949.7</ele>
        <time>2026-06-26T09:33:21Z</time>
      </trkpt>
      <trkpt lat="46.07398" lon="6.78151">
        <ele>1950</ele>
        <time>2026-06-26T09:33:22Z</time>
      </trkpt>
      <trkpt lat="46.07398" lon="6.78152">
        <ele>1950.2</ele>
        <time>2026-06-26T09:33:23Z</time>
      </trkpt>
      <trkpt lat="46.07399" lon="6.78152">
        <ele>1950.3</ele>
        <time>2026-06-26T09:33:24Z</time>
      </trkpt>
      <trkpt lat="46.07399" lon="6.78152">
        <ele>1950.5</ele>
        <time>2026-06-26T09:33:25Z</time>
      </trkpt>
      <trkpt lat="46.07399" lon="6.78153">
        <ele>1950.7</ele>
        <time>2026-06-26T09:33:26Z</time>
      </trkpt>
      <trkpt lat="46.07399" lon="6.78153">
        <ele>1950.9</ele>
        <time>2026-06-26T09:33:27Z</time>
      </trkpt>
      <trkpt lat="46.07399" lon="6.78153">
        <ele>1951</ele>
        <time>2026-06-26T09:33:28Z</time>
      </trkpt>
      <trkpt lat="46.07399" lon="6.78153">
        <ele>1951.2</ele>
        <time>2026-06-26T09:33:29Z</time>
      </trkpt>
      <trkpt lat="46.07399" lon="6.78154">
        <ele>1951.3</ele>
        <time>2026-06-26T09:33:30Z</time>
      </trkpt>
      <trkpt lat="46.07399" lon="6.78154">
        <ele>1951.4</ele>
        <time>2026-06-26T09:33:31Z</time>
      </trkpt>
      <trkpt lat="46.07399" lon="6.78154">
        <ele>1951.5</ele>
        <time>2026-06-26T09:33:32Z</time>
      </trkpt>
      <trkpt lat="46.07399" lon="6.78154">
        <ele>1951.6</ele>
        <time>2026-06-26T09:33:33Z</time>
      </trkpt>
      <trkpt lat="46.07399" lon="6.78154">
        <ele>1951.7</ele>
        <time>2026-06-26T09:33:34Z</time>
      </trkpt>
      <trkpt lat="46.07399" lon="6.78154">
        <ele>1951.8</ele>
        <time>2026-06-26T09:33:35Z</time>
      </trkpt>
      <trkpt lat="46.07399" lon="6.78154">
        <ele>1951.9</ele>
        <time>2026-06-26T09:33:36Z</time>
      </trkpt>
      <trkpt lat="46.07399" lon="6.78154">
        <ele>1952</ele>
        <time>2026-06-26T09:33:37Z</time>
      </trkpt>
      <trkpt lat="46.07399" lon="6.78154">
        <ele>1952.1</ele>
        <time>2026-06-26T09:33:38Z</time>
      </trkpt>
      <trkpt lat="46.07399" lon="6.78154">
        <ele>1952.1</ele>
        <time>2026-06-26T09:33:39Z</time>
      </trkpt>
      <trkpt lat="46.07398" lon="6.78154">
        <ele>1952.3</ele>
        <time>2026-06-26T09:33:40Z</time>
      </trkpt>
      <trkpt lat="46.07398" lon="6.78154">
        <ele>1952.4</ele>
        <time>2026-06-26T09:33:41Z</time>
      </trkpt>
      <trkpt lat="46.07398" lon="6.78154">
        <ele>1952.5</ele>
        <time>2026-06-26T09:33:42Z</time>
      </trkpt>
      <trkpt lat="46.07398" lon="6.78154">
        <ele>1952.7</ele>
        <time>2026-06-26T09:33:43Z</time>
      </trkpt>
      <trkpt lat="46.07398" lon="6.78154">
        <ele>1952.7</ele>
        <time>2026-06-26T09:33:44Z</time>
      </trkpt>
      <trkpt lat="46.07398" lon="6.78154">
        <ele>1952.8</ele>
        <time>2026-06-26T09:33:45Z</time>
      </trkpt>
      <trkpt lat="46.07398" lon="6.78154">
        <ele>1952.9</ele>
        <time>2026-06-26T09:33:46Z</time>
      </trkpt>
      <trkpt lat="46.07398" lon="6.78154">
        <ele>1953</ele>
        <time>2026-06-26T09:33:47Z</time>
      </trkpt>
      <trkpt lat="46.07398" lon="6.78154">
        <ele>1953</ele>
        <time>2026-06-26T09:33:48Z</time>
      </trkpt>
      <trkpt lat="46.07398" lon="6.78154">
        <ele>1953.1</ele>
        <time>2026-06-26T09:33:49Z</time>
      </trkpt>
      <trkpt lat="46.07398" lon="6.78154">
        <ele>1953.2</ele>
        <time>2026-06-26T09:33:50Z</time>
      </trkpt>
      <trkpt lat="46.07398" lon="6.78154">
        <ele>1953.3</ele>
        <time>2026-06-26T09:33:51Z</time>
      </trkpt>
      <trkpt lat="46.07398" lon="6.78154">
        <ele>1953.2</ele>
        <time>2026-06-26T09:33:52Z</time>
      </trkpt>
      <trkpt lat="46.07398" lon="6.78154">
        <ele>1953.3</ele>
        <time>2026-06-26T09:33:53Z</time>
      </trkpt>
      <trkpt lat="46.07398" lon="6.78154">
        <ele>1953.3</ele>
        <time>2026-06-26T09:33:54Z</time>
      </trkpt>
      <trkpt lat="46.07398" lon="6.78154">
        <ele>1953.3</ele>
        <time>2026-06-26T09:33:55Z</time>
      </trkpt>
      <trkpt lat="46.07398" lon="6.78154">
        <ele>1953.3</ele>
        <time>2026-06-26T09:33:56Z</time>
      </trkpt>
      <trkpt lat="46.07398" lon="6.78155">
        <ele>1953.3</ele>
        <time>2026-06-26T09:33:57Z</time>
      </trkpt>
      <trkpt lat="46.07399" lon="6.78155">
        <ele>1953.3</ele>
        <time>2026-06-26T09:33:58Z</time>
      </trkpt>
      <trkpt lat="46.07399" lon="6.78156">
        <ele>1953.4</ele>
        <time>2026-06-26T09:33:59Z</time>
      </trkpt>
      <trkpt lat="46.07399" lon="6.78156">
        <ele>1953.4</ele>
        <time>2026-06-26T09:34:00Z</time>
      </trkpt>
      <trkpt lat="46.074" lon="6.78157">
        <ele>1953.5</ele>
        <time>2026-06-26T09:34:01Z</time>
      </trkpt>
      <trkpt lat="46.074" lon="6.78157">
        <ele>1953.5</ele>
        <time>2026-06-26T09:34:02Z</time>
      </trkpt>
      <trkpt lat="46.074" lon="6.78158">
        <ele>1953.6</ele>
        <time>2026-06-26T09:34:03Z</time>
      </trkpt>
      <trkpt lat="46.074" lon="6.78157">
        <ele>1953.6</ele>
        <time>2026-06-26T09:34:04Z</time>
      </trkpt>
      <trkpt lat="46.074" lon="6.78158">
        <ele>1953.7</ele>
        <time>2026-06-26T09:34:05Z</time>
      </trkpt>
      <trkpt lat="46.07401" lon="6.78158">
        <ele>1953.8</ele>
        <time>2026-06-26T09:34:06Z</time>
      </trkpt>
      <trkpt lat="46.07401" lon="6.78158">
        <ele>1953.9</ele>
        <time>2026-06-26T09:34:07Z</time>
      </trkpt>
      <trkpt lat="46.07401" lon="6.78158">
        <ele>1954.1</ele>
        <time>2026-06-26T09:34:08Z</time>
      </trkpt>
      <trkpt lat="46.07401" lon="6.78158">
        <ele>1954.2</ele>
        <time>2026-06-26T09:34:09Z</time>
      </trkpt>
      <trkpt lat="46.07401" lon="6.78158">
        <ele>1954.2</ele>
        <time>2026-06-26T09:34:10Z</time>
      </trkpt>
      <trkpt lat="46.07401" lon="6.78158">
        <ele>1954.3</ele>
        <time>2026-06-26T09:34:11Z</time>
      </trkpt>
      <trkpt lat="46.07401" lon="6.78158">
        <ele>1954.2</ele>
        <time>2026-06-26T09:34:12Z</time>
      </trkpt>
      <trkpt lat="46.07401" lon="6.78158">
        <ele>1954.2</ele>
        <time>2026-06-26T09:34:13Z</time>
      </trkpt>
      <trkpt lat="46.07401" lon="6.78159">
        <ele>1954.3</ele>
        <time>2026-06-26T09:34:14Z</time>
      </trkpt>
      <trkpt lat="46.07401" lon="6.78158">
        <ele>1954.3</ele>
        <time>2026-06-26T09:34:15Z</time>
      </trkpt>
      <trkpt lat="46.07401" lon="6.78159">
        <ele>1954.3</ele>
        <time>2026-06-26T09:34:16Z</time>
      </trkpt>
      <trkpt lat="46.07401" lon="6.78159">
        <ele>1954.4</ele>
        <time>2026-06-26T09:34:17Z</time>
      </trkpt>
      <trkpt lat="46.07401" lon="6.78159">
        <ele>1954.4</ele>
        <time>2026-06-26T09:34:18Z</time>
      </trkpt>
      <trkpt lat="46.07401" lon="6.78159">
        <ele>1954.4</ele>
        <time>2026-06-26T09:34:19Z</time>
      </trkpt>
      <trkpt lat="46.07401" lon="6.78159">
        <ele>1954.5</ele>
        <time>2026-06-26T09:34:20Z</time>
      </trkpt>
      <trkpt lat="46.07401" lon="6.78159">
        <ele>1954.6</ele>
        <time>2026-06-26T09:34:21Z</time>
      </trkpt>
      <trkpt lat="46.07401" lon="6.78159">
        <ele>1954.6</ele>
        <time>2026-06-26T09:34:22Z</time>
      </trkpt>
      <trkpt lat="46.07401" lon="6.78159">
        <ele>1954.6</ele>
        <time>2026-06-26T09:34:23Z</time>
      </trkpt>
      <trkpt lat="46.07401" lon="6.78159">
        <ele>1954.6</ele>
        <time>2026-06-26T09:34:24Z</time>
      </trkpt>
      <trkpt lat="46.07401" lon="6.78159">
        <ele>1954.6</ele>
        <time>2026-06-26T09:34:25Z</time>
      </trkpt>
      <trkpt lat="46.07401" lon="6.78159">
        <ele>1954.6</ele>
        <time>2026-06-26T09:34:26Z</time>
      </trkpt>
      <trkpt lat="46.07401" lon="6.78159">
        <ele>1954.6</ele>
        <time>2026-06-26T09:34:27Z</time>
      </trkpt>
      <trkpt lat="46.07401" lon="6.78159">
        <ele>1954.7</ele>
        <time>2026-06-26T09:34:28Z</time>
      </trkpt>
      <trkpt lat="46.07401" lon="6.78159">
        <ele>1954.7</ele>
        <time>2026-06-26T09:34:29Z</time>
      </trkpt>
      <trkpt lat="46.07401" lon="6.78159">
        <ele>1954.7</ele>
        <time>2026-06-26T09:34:30Z</time>
      </trkpt>
      <trkpt lat="46.07401" lon="6.78159">
        <ele>1954.8</ele>
        <time>2026-06-26T09:34:31Z</time>
      </trkpt>
      <trkpt lat="46.07401" lon="6.78159">
        <ele>1954.8</ele>
        <time>2026-06-26T09:34:32Z</time>
      </trkpt>
      <trkpt lat="46.07401" lon="6.78159">
        <ele>1954.8</ele>
        <time>2026-06-26T09:34:33Z</time>
      </trkpt>
      <trkpt lat="46.07401" lon="6.78159">
        <ele>1954.8</ele>
        <time>2026-06-26T09:34:34Z</time>
      </trkpt>
      <trkpt lat="46.07401" lon="6.78159">
        <ele>1954.8</ele>
        <time>2026-06-26T09:34:35Z</time>
      </trkpt>
      <trkpt lat="46.07401" lon="6.78159">
        <ele>1954.9</ele>
        <time>2026-06-26T09:34:36Z</time>
      </trkpt>
      <trkpt lat="46.07401" lon="6.78159">
        <ele>1954.9</ele>
        <time>2026-06-26T09:34:37Z</time>
      </trkpt>
      <trkpt lat="46.07401" lon="6.78159">
        <ele>1955</ele>
        <time>2026-06-26T09:34:38Z</time>
      </trkpt>
      <trkpt lat="46.07401" lon="6.78159">
        <ele>1955</ele>
        <time>2026-06-26T09:34:39Z</time>
      </trkpt>
      <trkpt lat="46.07401" lon="6.78159">
        <ele>1955</ele>
        <time>2026-06-26T09:34:40Z</time>
      </trkpt>
      <trkpt lat="46.07401" lon="6.78159">
        <ele>1955.1</ele>
        <time>2026-06-26T09:34:41Z</time>
      </trkpt>
      <trkpt lat="46.07401" lon="6.78159">
        <ele>1955.1</ele>
        <time>2026-06-26T09:34:42Z</time>
      </trkpt>
      <trkpt lat="46.07401" lon="6.78159">
        <ele>1955.2</ele>
        <time>2026-06-26T09:34:43Z</time>
      </trkpt>
      <trkpt lat="46.07401" lon="6.78159">
        <ele>1954.4</ele>
        <time>2026-06-26T09:34:44Z</time>
      </trkpt>
      <trkpt lat="46.07401" lon="6.78159">
        <ele>1954.5</ele>
        <time>2026-06-26T09:34:45Z</time>
      </trkpt>
      <trkpt lat="46.07401" lon="6.78159">
        <ele>1954.8</ele>
        <time>2026-06-26T09:34:46Z</time>
      </trkpt>
      <trkpt lat="46.07401" lon="6.78158">
        <ele>1954.9</ele>
        <time>2026-06-26T09:34:47Z</time>
      </trkpt>
      <trkpt lat="46.07401" lon="6.78158">
        <ele>1955.1</ele>
        <time>2026-06-26T09:34:48Z</time>
      </trkpt>
      <trkpt lat="46.07401" lon="6.78158">
        <ele>1955.2</ele>
        <time>2026-06-26T09:34:49Z</time>
      </trkpt>
      <trkpt lat="46.07401" lon="6.78158">
        <ele>1955.3</ele>
        <time>2026-06-26T09:34:50Z</time>
      </trkpt>
      <trkpt lat="46.07401" lon="6.78158">
        <ele>1955.4</ele>
        <time>2026-06-26T09:34:51Z</time>
      </trkpt>
      <trkpt lat="46.07401" lon="6.78158">
        <ele>1955.4</ele>
        <time>2026-06-26T09:34:52Z</time>
      </trkpt>
      <trkpt lat="46.074" lon="6.78158">
        <ele>1955.4</ele>
        <time>2026-06-26T09:34:53Z</time>
      </trkpt>
      <trkpt lat="46.074" lon="6.78158">
        <ele>1955.5</ele>
        <time>2026-06-26T09:34:54Z</time>
      </trkpt>
      <trkpt lat="46.074" lon="6.78158">
        <ele>1955.5</ele>
        <time>2026-06-26T09:34:55Z</time>
      </trkpt>
      <trkpt lat="46.07401" lon="6.78158">
        <ele>1955.6</ele>
        <time>2026-06-26T09:34:56Z</time>
      </trkpt>
      <trkpt lat="46.07401" lon="6.78158">
        <ele>1955.6</ele>
        <time>2026-06-26T09:34:57Z</time>
      </trkpt>
      <trkpt lat="46.07401" lon="6.78158">
        <ele>1955.6</ele>
        <time>2026-06-26T09:34:58Z</time>
      </trkpt>
      <trkpt lat="46.07401" lon="6.78158">
        <ele>1955.6</ele>
        <time>2026-06-26T09:34:59Z</time>
      </trkpt>
      <trkpt lat="46.07401" lon="6.78158">
        <ele>1955.7</ele>
        <time>2026-06-26T09:35:00Z</time>
      </trkpt>
      <trkpt lat="46.07401" lon="6.78158">
        <ele>1955.8</ele>
        <time>2026-06-26T09:35:01Z</time>
      </trkpt>
      <trkpt lat="46.07401" lon="6.78158">
        <ele>1955.9</ele>
        <time>2026-06-26T09:35:02Z</time>
      </trkpt>
      <trkpt lat="46.07401" lon="6.78158">
        <ele>1955.9</ele>
        <time>2026-06-26T09:35:03Z</time>
      </trkpt>
      <trkpt lat="46.07401" lon="6.78158">
        <ele>1956</ele>
        <time>2026-06-26T09:35:04Z</time>
      </trkpt>
      <trkpt lat="46.074" lon="6.78158">
        <ele>1956</ele>
        <time>2026-06-26T09:35:05Z</time>
      </trkpt>
      <trkpt lat="46.074" lon="6.78158">
        <ele>1956.1</ele>
        <time>2026-06-26T09:35:06Z</time>
      </trkpt>
      <trkpt lat="46.07401" lon="6.78158">
        <ele>1956.1</ele>
        <time>2026-06-26T09:35:07Z</time>
      </trkpt>
      <trkpt lat="46.07401" lon="6.78158">
        <ele>1956.1</ele>
        <time>2026-06-26T09:35:08Z</time>
      </trkpt>
      <trkpt lat="46.07401" lon="6.78158">
        <ele>1956.2</ele>
        <time>2026-06-26T09:35:09Z</time>
      </trkpt>
      <trkpt lat="46.07401" lon="6.78159">
        <ele>1956.3</ele>
        <time>2026-06-26T09:35:10Z</time>
      </trkpt>
      <trkpt lat="46.07401" lon="6.78159">
        <ele>1956.4</ele>
        <time>2026-06-26T09:35:11Z</time>
      </trkpt>
      <trkpt lat="46.07401" lon="6.7816">
        <ele>1956.5</ele>
        <time>2026-06-26T09:35:12Z</time>
      </trkpt>
      <trkpt lat="46.07401" lon="6.78161">
        <ele>1956.5</ele>
        <time>2026-06-26T09:35:13Z</time>
      </trkpt>
      <trkpt lat="46.07401" lon="6.78162">
        <ele>1956.8</ele>
        <time>2026-06-26T09:35:14Z</time>
      </trkpt>
      <trkpt lat="46.07401" lon="6.78162">
        <ele>1957</ele>
        <time>2026-06-26T09:35:15Z</time>
      </trkpt>
      <trkpt lat="46.07402" lon="6.78163">
        <ele>1957.2</ele>
        <time>2026-06-26T09:35:16Z</time>
      </trkpt>
      <trkpt lat="46.07402" lon="6.78164">
        <ele>1957.4</ele>
        <time>2026-06-26T09:35:17Z</time>
      </trkpt>
      <trkpt lat="46.07402" lon="6.78164">
        <ele>1957.9</ele>
        <time>2026-06-26T09:35:18Z</time>
      </trkpt>
      <trkpt lat="46.07403" lon="6.78165">
        <ele>1958</ele>
        <time>2026-06-26T09:35:19Z</time>
      </trkpt>
      <trkpt lat="46.07403" lon="6.78165">
        <ele>1958.3</ele>
        <time>2026-06-26T09:35:20Z</time>
      </trkpt>
      <trkpt lat="46.07403" lon="6.78166">
        <ele>1958.5</ele>
        <time>2026-06-26T09:35:21Z</time>
      </trkpt>
      <trkpt lat="46.07403" lon="6.78166">
        <ele>1958.8</ele>
        <time>2026-06-26T09:35:22Z</time>
      </trkpt>
      <trkpt lat="46.07403" lon="6.78166">
        <ele>1959</ele>
        <time>2026-06-26T09:35:23Z</time>
      </trkpt>
      <trkpt lat="46.07403" lon="6.78167">
        <ele>1959.2</ele>
        <time>2026-06-26T09:35:24Z</time>
      </trkpt>
      <trkpt lat="46.07404" lon="6.78168">
        <ele>1959.5</ele>
        <time>2026-06-26T09:35:25Z</time>
      </trkpt>
      <trkpt lat="46.07404" lon="6.78168">
        <ele>1959.7</ele>
        <time>2026-06-26T09:35:26Z</time>
      </trkpt>
      <trkpt lat="46.07404" lon="6.78169">
        <ele>1960.1</ele>
        <time>2026-06-26T09:35:27Z</time>
      </trkpt>
      <trkpt lat="46.07405" lon="6.78169">
        <ele>1960.4</ele>
        <time>2026-06-26T09:35:28Z</time>
      </trkpt>
      <trkpt lat="46.07405" lon="6.78169">
        <ele>1960.8</ele>
        <time>2026-06-26T09:35:29Z</time>
      </trkpt>
      <trkpt lat="46.07406" lon="6.7817">
        <ele>1961.2</ele>
        <time>2026-06-26T09:35:30Z</time>
      </trkpt>
      <trkpt lat="46.07406" lon="6.7817">
        <ele>1961.5</ele>
        <time>2026-06-26T09:35:31Z</time>
      </trkpt>
      <trkpt lat="46.07407" lon="6.7817">
        <ele>1961.8</ele>
        <time>2026-06-26T09:35:32Z</time>
      </trkpt>
      <trkpt lat="46.07407" lon="6.7817">
        <ele>1962</ele>
        <time>2026-06-26T09:35:33Z</time>
      </trkpt>
      <trkpt lat="46.07407" lon="6.78171">
        <ele>1962.2</ele>
        <time>2026-06-26T09:35:34Z</time>
      </trkpt>
      <trkpt lat="46.07407" lon="6.78171">
        <ele>1962.5</ele>
        <time>2026-06-26T09:35:35Z</time>
      </trkpt>
      <trkpt lat="46.07407" lon="6.78172">
        <ele>1962.9</ele>
        <time>2026-06-26T09:35:36Z</time>
      </trkpt>
      <trkpt lat="46.07407" lon="6.78172">
        <ele>1963.2</ele>
        <time>2026-06-26T09:35:37Z</time>
      </trkpt>
      <trkpt lat="46.07407" lon="6.78172">
        <ele>1963.5</ele>
        <time>2026-06-26T09:35:38Z</time>
      </trkpt>
      <trkpt lat="46.07407" lon="6.78172">
        <ele>1963.6</ele>
        <time>2026-06-26T09:35:39Z</time>
      </trkpt>
      <trkpt lat="46.07407" lon="6.78173">
        <ele>1963.9</ele>
        <time>2026-06-26T09:35:40Z</time>
      </trkpt>
      <trkpt lat="46.07408" lon="6.78173">
        <ele>1964</ele>
        <time>2026-06-26T09:35:41Z</time>
      </trkpt>
      <trkpt lat="46.07408" lon="6.78173">
        <ele>1964.2</ele>
        <time>2026-06-26T09:35:42Z</time>
      </trkpt>
      <trkpt lat="46.07409" lon="6.78173">
        <ele>1964.3</ele>
        <time>2026-06-26T09:35:43Z</time>
      </trkpt>
      <trkpt lat="46.07409" lon="6.78173">
        <ele>1964.5</ele>
        <time>2026-06-26T09:35:44Z</time>
      </trkpt>
      <trkpt lat="46.0741" lon="6.78173">
        <ele>1964.7</ele>
        <time>2026-06-26T09:35:45Z</time>
      </trkpt>
      <trkpt lat="46.0741" lon="6.78173">
        <ele>1964.9</ele>
        <time>2026-06-26T09:35:46Z</time>
      </trkpt>
      <trkpt lat="46.07411" lon="6.78174">
        <ele>1965.2</ele>
        <time>2026-06-26T09:35:47Z</time>
      </trkpt>
      <trkpt lat="46.0741" lon="6.78174">
        <ele>1965.6</ele>
        <time>2026-06-26T09:35:48Z</time>
      </trkpt>
      <trkpt lat="46.07411" lon="6.78175">
        <ele>1965.8</ele>
        <time>2026-06-26T09:35:49Z</time>
      </trkpt>
      <trkpt lat="46.07411" lon="6.78174">
        <ele>1966</ele>
        <time>2026-06-26T09:35:50Z</time>
      </trkpt>
      <trkpt lat="46.07411" lon="6.78174">
        <ele>1966.2</ele>
        <time>2026-06-26T09:35:51Z</time>
      </trkpt>
      <trkpt lat="46.07411" lon="6.78174">
        <ele>1966.3</ele>
        <time>2026-06-26T09:35:52Z</time>
      </trkpt>
      <trkpt lat="46.07411" lon="6.78174">
        <ele>1966.6</ele>
        <time>2026-06-26T09:35:53Z</time>
      </trkpt>
      <trkpt lat="46.07411" lon="6.78175">
        <ele>1966.7</ele>
        <time>2026-06-26T09:35:54Z</time>
      </trkpt>
      <trkpt lat="46.07412" lon="6.78175">
        <ele>1966.8</ele>
        <time>2026-06-26T09:35:55Z</time>
      </trkpt>
      <trkpt lat="46.07412" lon="6.78175">
        <ele>1966.9</ele>
        <time>2026-06-26T09:35:56Z</time>
      </trkpt>
      <trkpt lat="46.07413" lon="6.78175">
        <ele>1966.9</ele>
        <time>2026-06-26T09:35:57Z</time>
      </trkpt>
      <trkpt lat="46.07413" lon="6.78175">
        <ele>1967</ele>
        <time>2026-06-26T09:35:58Z</time>
      </trkpt>
      <trkpt lat="46.07414" lon="6.78175">
        <ele>1967.1</ele>
        <time>2026-06-26T09:35:59Z</time>
      </trkpt>
      <trkpt lat="46.07414" lon="6.78175">
        <ele>1967.2</ele>
        <time>2026-06-26T09:36:00Z</time>
      </trkpt>
      <trkpt lat="46.07415" lon="6.78175">
        <ele>1967.3</ele>
        <time>2026-06-26T09:36:01Z</time>
      </trkpt>
      <trkpt lat="46.07415" lon="6.78176">
        <ele>1967.5</ele>
        <time>2026-06-26T09:36:02Z</time>
      </trkpt>
      <trkpt lat="46.07415" lon="6.78176">
        <ele>1967.7</ele>
        <time>2026-06-26T09:36:03Z</time>
      </trkpt>
      <trkpt lat="46.07415" lon="6.78177">
        <ele>1967.8</ele>
        <time>2026-06-26T09:36:04Z</time>
      </trkpt>
      <trkpt lat="46.07415" lon="6.78177">
        <ele>1968</ele>
        <time>2026-06-26T09:36:05Z</time>
      </trkpt>
      <trkpt lat="46.07416" lon="6.78178">
        <ele>1968.2</ele>
        <time>2026-06-26T09:36:06Z</time>
      </trkpt>
      <trkpt lat="46.07416" lon="6.78178">
        <ele>1968.4</ele>
        <time>2026-06-26T09:36:07Z</time>
      </trkpt>
      <trkpt lat="46.07416" lon="6.78179">
        <ele>1968.7</ele>
        <time>2026-06-26T09:36:08Z</time>
      </trkpt>
      <trkpt lat="46.07416" lon="6.78179">
        <ele>1968.9</ele>
        <time>2026-06-26T09:36:09Z</time>
      </trkpt>
      <trkpt lat="46.07416" lon="6.78179">
        <ele>1969.2</ele>
        <time>2026-06-26T09:36:10Z</time>
      </trkpt>
      <trkpt lat="46.07416" lon="6.78179">
        <ele>1969.3</ele>
        <time>2026-06-26T09:36:11Z</time>
      </trkpt>
      <trkpt lat="46.07416" lon="6.78179">
        <ele>1969.5</ele>
        <time>2026-06-26T09:36:12Z</time>
      </trkpt>
      <trkpt lat="46.07416" lon="6.78179">
        <ele>1969.7</ele>
        <time>2026-06-26T09:36:13Z</time>
      </trkpt>
      <trkpt lat="46.07416" lon="6.7818">
        <ele>1969.9</ele>
        <time>2026-06-26T09:36:14Z</time>
      </trkpt>
      <trkpt lat="46.07417" lon="6.7818">
        <ele>1970.1</ele>
        <time>2026-06-26T09:36:15Z</time>
      </trkpt>
      <trkpt lat="46.07417" lon="6.78181">
        <ele>1970.3</ele>
        <time>2026-06-26T09:36:16Z</time>
      </trkpt>
      <trkpt lat="46.07417" lon="6.78181">
        <ele>1970.5</ele>
        <time>2026-06-26T09:36:17Z</time>
      </trkpt>
      <trkpt lat="46.07418" lon="6.78181">
        <ele>1970.9</ele>
        <time>2026-06-26T09:36:18Z</time>
      </trkpt>
      <trkpt lat="46.07418" lon="6.78181">
        <ele>1971</ele>
        <time>2026-06-26T09:36:19Z</time>
      </trkpt>
      <trkpt lat="46.07418" lon="6.78181">
        <ele>1971.2</ele>
        <time>2026-06-26T09:36:20Z</time>
      </trkpt>
      <trkpt lat="46.07418" lon="6.7818">
        <ele>1971.4</ele>
        <time>2026-06-26T09:36:21Z</time>
      </trkpt>
      <trkpt lat="46.07418" lon="6.7818">
        <ele>1971.5</ele>
        <time>2026-06-26T09:36:22Z</time>
      </trkpt>
      <trkpt lat="46.07418" lon="6.7818">
        <ele>1971.6</ele>
        <time>2026-06-26T09:36:23Z</time>
      </trkpt>
      <trkpt lat="46.07418" lon="6.7818">
        <ele>1971.7</ele>
        <time>2026-06-26T09:36:24Z</time>
      </trkpt>
      <trkpt lat="46.07418" lon="6.78181">
        <ele>1971.8</ele>
        <time>2026-06-26T09:36:25Z</time>
      </trkpt>
      <trkpt lat="46.07419" lon="6.7818">
        <ele>1971.8</ele>
        <time>2026-06-26T09:36:26Z</time>
      </trkpt>
      <trkpt lat="46.07419" lon="6.7818">
        <ele>1972</ele>
        <time>2026-06-26T09:36:27Z</time>
      </trkpt>
      <trkpt lat="46.07419" lon="6.7818">
        <ele>1972.1</ele>
        <time>2026-06-26T09:36:28Z</time>
      </trkpt>
      <trkpt lat="46.0742" lon="6.7818">
        <ele>1972.3</ele>
        <time>2026-06-26T09:36:29Z</time>
      </trkpt>
      <trkpt lat="46.0742" lon="6.7818">
        <ele>1972.4</ele>
        <time>2026-06-26T09:36:30Z</time>
      </trkpt>
      <trkpt lat="46.07421" lon="6.7818">
        <ele>1972.4</ele>
        <time>2026-06-26T09:36:31Z</time>
      </trkpt>
      <trkpt lat="46.07421" lon="6.7818">
        <ele>1972.5</ele>
        <time>2026-06-26T09:36:32Z</time>
      </trkpt>
      <trkpt lat="46.07421" lon="6.7818">
        <ele>1972.7</ele>
        <time>2026-06-26T09:36:33Z</time>
      </trkpt>
      <trkpt lat="46.07421" lon="6.7818">
        <ele>1972.8</ele>
        <time>2026-06-26T09:36:34Z</time>
      </trkpt>
      <trkpt lat="46.07421" lon="6.7818">
        <ele>1973</ele>
        <time>2026-06-26T09:36:35Z</time>
      </trkpt>
      <trkpt lat="46.07421" lon="6.78179">
        <ele>1973.1</ele>
        <time>2026-06-26T09:36:36Z</time>
      </trkpt>
      <trkpt lat="46.07422" lon="6.78179">
        <ele>1973.2</ele>
        <time>2026-06-26T09:36:37Z</time>
      </trkpt>
      <trkpt lat="46.07422" lon="6.78179">
        <ele>1973.2</ele>
        <time>2026-06-26T09:36:38Z</time>
      </trkpt>
      <trkpt lat="46.07422" lon="6.78179">
        <ele>1973.3</ele>
        <time>2026-06-26T09:36:39Z</time>
      </trkpt>
      <trkpt lat="46.07422" lon="6.78179">
        <ele>1973.3</ele>
        <time>2026-06-26T09:36:40Z</time>
      </trkpt>
      <trkpt lat="46.07422" lon="6.78178">
        <ele>1973.3</ele>
        <time>2026-06-26T09:36:41Z</time>
      </trkpt>
      <trkpt lat="46.07422" lon="6.78178">
        <ele>1973.3</ele>
        <time>2026-06-26T09:36:42Z</time>
      </trkpt>
      <trkpt lat="46.07422" lon="6.78179">
        <ele>1973.3</ele>
        <time>2026-06-26T09:36:43Z</time>
      </trkpt>
      <trkpt lat="46.07422" lon="6.78179">
        <ele>1973.3</ele>
        <time>2026-06-26T09:36:44Z</time>
      </trkpt>
      <trkpt lat="46.07422" lon="6.7818">
        <ele>1973.4</ele>
        <time>2026-06-26T09:36:45Z</time>
      </trkpt>
      <trkpt lat="46.07422" lon="6.7818">
        <ele>1973.4</ele>
        <time>2026-06-26T09:36:46Z</time>
      </trkpt>
      <trkpt lat="46.07422" lon="6.7818">
        <ele>1973.5</ele>
        <time>2026-06-26T09:36:47Z</time>
      </trkpt>
      <trkpt lat="46.07422" lon="6.7818">
        <ele>1973.6</ele>
        <time>2026-06-26T09:36:48Z</time>
      </trkpt>
      <trkpt lat="46.07423" lon="6.7818">
        <ele>1973.7</ele>
        <time>2026-06-26T09:36:49Z</time>
      </trkpt>
      <trkpt lat="46.07423" lon="6.7818">
        <ele>1973.8</ele>
        <time>2026-06-26T09:36:50Z</time>
      </trkpt>
      <trkpt lat="46.07422" lon="6.7818">
        <ele>1973.8</ele>
        <time>2026-06-26T09:36:51Z</time>
      </trkpt>
      <trkpt lat="46.07422" lon="6.78179">
        <ele>1973.8</ele>
        <time>2026-06-26T09:36:52Z</time>
      </trkpt>
      <trkpt lat="46.07422" lon="6.78179">
        <ele>1973.8</ele>
        <time>2026-06-26T09:36:53Z</time>
      </trkpt>
      <trkpt lat="46.07422" lon="6.78179">
        <ele>1973.8</ele>
        <time>2026-06-26T09:36:54Z</time>
      </trkpt>
      <trkpt lat="46.07421" lon="6.78179">
        <ele>1973.9</ele>
        <time>2026-06-26T09:36:55Z</time>
      </trkpt>
      <trkpt lat="46.07421" lon="6.7818">
        <ele>1974</ele>
        <time>2026-06-26T09:36:56Z</time>
      </trkpt>
      <trkpt lat="46.07421" lon="6.7818">
        <ele>1974.1</ele>
        <time>2026-06-26T09:36:57Z</time>
      </trkpt>
      <trkpt lat="46.07421" lon="6.78179">
        <ele>1974.2</ele>
        <time>2026-06-26T09:36:58Z</time>
      </trkpt>
      <trkpt lat="46.07421" lon="6.78179">
        <ele>1974.2</ele>
        <time>2026-06-26T09:36:59Z</time>
      </trkpt>
      <trkpt lat="46.07421" lon="6.78179">
        <ele>1974.3</ele>
        <time>2026-06-26T09:37:00Z</time>
      </trkpt>
      <trkpt lat="46.07421" lon="6.78179">
        <ele>1974.3</ele>
        <time>2026-06-26T09:37:01Z</time>
      </trkpt>
      <trkpt lat="46.0742" lon="6.78179">
        <ele>1974.4</ele>
        <time>2026-06-26T09:37:02Z</time>
      </trkpt>
      <trkpt lat="46.0742" lon="6.78179">
        <ele>1974.5</ele>
        <time>2026-06-26T09:37:03Z</time>
      </trkpt>
      <trkpt lat="46.0742" lon="6.78179">
        <ele>1974.6</ele>
        <time>2026-06-26T09:37:04Z</time>
      </trkpt>
      <trkpt lat="46.0742" lon="6.78179">
        <ele>1974.6</ele>
        <time>2026-06-26T09:37:05Z</time>
      </trkpt>
      <trkpt lat="46.0742" lon="6.78179">
        <ele>1974.7</ele>
        <time>2026-06-26T09:37:06Z</time>
      </trkpt>
      <trkpt lat="46.0742" lon="6.78179">
        <ele>1974.9</ele>
        <time>2026-06-26T09:37:07Z</time>
      </trkpt>
      <trkpt lat="46.0742" lon="6.78179">
        <ele>1975</ele>
        <time>2026-06-26T09:37:08Z</time>
      </trkpt>
      <trkpt lat="46.0742" lon="6.78179">
        <ele>1975.1</ele>
        <time>2026-06-26T09:37:09Z</time>
      </trkpt>
      <trkpt lat="46.0742" lon="6.78179">
        <ele>1975.1</ele>
        <time>2026-06-26T09:37:10Z</time>
      </trkpt>
      <trkpt lat="46.0742" lon="6.78179">
        <ele>1975.1</ele>
        <time>2026-06-26T09:37:11Z</time>
      </trkpt>
      <trkpt lat="46.0742" lon="6.78179">
        <ele>1975</ele>
        <time>2026-06-26T09:37:12Z</time>
      </trkpt>
      <trkpt lat="46.0742" lon="6.78179">
        <ele>1974.9</ele>
        <time>2026-06-26T09:37:13Z</time>
      </trkpt>
      <trkpt lat="46.0742" lon="6.78179">
        <ele>1974.9</ele>
        <time>2026-06-26T09:37:14Z</time>
      </trkpt>
      <trkpt lat="46.07421" lon="6.78179">
        <ele>1974.9</ele>
        <time>2026-06-26T09:37:15Z</time>
      </trkpt>
      <trkpt lat="46.07421" lon="6.78179">
        <ele>1974.9</ele>
        <time>2026-06-26T09:37:16Z</time>
      </trkpt>
      <trkpt lat="46.07421" lon="6.78179">
        <ele>1974.9</ele>
        <time>2026-06-26T09:37:17Z</time>
      </trkpt>
      <trkpt lat="46.07421" lon="6.78179">
        <ele>1974.9</ele>
        <time>2026-06-26T09:37:18Z</time>
      </trkpt>
      <trkpt lat="46.07421" lon="6.78179">
        <ele>1974.9</ele>
        <time>2026-06-26T09:37:19Z</time>
      </trkpt>
      <trkpt lat="46.07421" lon="6.78179">
        <ele>1974.7</ele>
        <time>2026-06-26T09:37:20Z</time>
      </trkpt>
      <trkpt lat="46.07421" lon="6.78179">
        <ele>1974.6</ele>
        <time>2026-06-26T09:37:21Z</time>
      </trkpt>
      <trkpt lat="46.0742" lon="6.78179">
        <ele>1974.6</ele>
        <time>2026-06-26T09:37:22Z</time>
      </trkpt>
      <trkpt lat="46.0742" lon="6.78179">
        <ele>1974.6</ele>
        <time>2026-06-26T09:37:23Z</time>
      </trkpt>
      <trkpt lat="46.0742" lon="6.78179">
        <ele>1974.5</ele>
        <time>2026-06-26T09:37:24Z</time>
      </trkpt>
      <trkpt lat="46.0742" lon="6.7818">
        <ele>1974.5</ele>
        <time>2026-06-26T09:37:25Z</time>
      </trkpt>
      <trkpt lat="46.0742" lon="6.78179">
        <ele>1974.6</ele>
        <time>2026-06-26T09:37:26Z</time>
      </trkpt>
      <trkpt lat="46.0742" lon="6.78179">
        <ele>1974.7</ele>
        <time>2026-06-26T09:37:27Z</time>
      </trkpt>
      <trkpt lat="46.07421" lon="6.78179">
        <ele>1974.7</ele>
        <time>2026-06-26T09:37:28Z</time>
      </trkpt>
      <trkpt lat="46.0742" lon="6.78179">
        <ele>1974.8</ele>
        <time>2026-06-26T09:37:29Z</time>
      </trkpt>
      <trkpt lat="46.07421" lon="6.78179">
        <ele>1974.9</ele>
        <time>2026-06-26T09:37:30Z</time>
      </trkpt>
      <trkpt lat="46.07421" lon="6.78179">
        <ele>1974.9</ele>
        <time>2026-06-26T09:37:31Z</time>
      </trkpt>
      <trkpt lat="46.07421" lon="6.78178">
        <ele>1974.9</ele>
        <time>2026-06-26T09:37:32Z</time>
      </trkpt>
      <trkpt lat="46.07421" lon="6.78178">
        <ele>1975</ele>
        <time>2026-06-26T09:37:33Z</time>
      </trkpt>
      <trkpt lat="46.07421" lon="6.78178">
        <ele>1975</ele>
        <time>2026-06-26T09:37:34Z</time>
      </trkpt>
      <trkpt lat="46.07421" lon="6.78178">
        <ele>1975.1</ele>
        <time>2026-06-26T09:37:35Z</time>
      </trkpt>
      <trkpt lat="46.07421" lon="6.78178">
        <ele>1975.1</ele>
        <time>2026-06-26T09:37:36Z</time>
      </trkpt>
      <trkpt lat="46.07421" lon="6.78178">
        <ele>1975.2</ele>
        <time>2026-06-26T09:37:37Z</time>
      </trkpt>
      <trkpt lat="46.07421" lon="6.78178">
        <ele>1975.3</ele>
        <time>2026-06-26T09:37:38Z</time>
      </trkpt>
      <trkpt lat="46.07421" lon="6.78178">
        <ele>1975.2</ele>
        <time>2026-06-26T09:37:39Z</time>
      </trkpt>
      <trkpt lat="46.07421" lon="6.78178">
        <ele>1975.3</ele>
        <time>2026-06-26T09:37:40Z</time>
      </trkpt>
      <trkpt lat="46.07421" lon="6.78178">
        <ele>1975.3</ele>
        <time>2026-06-26T09:37:41Z</time>
      </trkpt>
      <trkpt lat="46.07421" lon="6.78178">
        <ele>1975.4</ele>
        <time>2026-06-26T09:37:42Z</time>
      </trkpt>
      <trkpt lat="46.07421" lon="6.78178">
        <ele>1975.4</ele>
        <time>2026-06-26T09:37:43Z</time>
      </trkpt>
      <trkpt lat="46.07421" lon="6.78178">
        <ele>1975.4</ele>
        <time>2026-06-26T09:37:44Z</time>
      </trkpt>
      <trkpt lat="46.07421" lon="6.78178">
        <ele>1975.5</ele>
        <time>2026-06-26T09:37:45Z</time>
      </trkpt>
      <trkpt lat="46.07421" lon="6.78178">
        <ele>1975.6</ele>
        <time>2026-06-26T09:37:46Z</time>
      </trkpt>
      <trkpt lat="46.07421" lon="6.78178">
        <ele>1975.6</ele>
        <time>2026-06-26T09:37:47Z</time>
      </trkpt>
      <trkpt lat="46.07421" lon="6.78178">
        <ele>1975.6</ele>
        <time>2026-06-26T09:37:48Z</time>
      </trkpt>
      <trkpt lat="46.07421" lon="6.78178">
        <ele>1975.6</ele>
        <time>2026-06-26T09:37:49Z</time>
      </trkpt>
      <trkpt lat="46.07421" lon="6.78178">
        <ele>1975.6</ele>
        <time>2026-06-26T09:37:50Z</time>
      </trkpt>
      <trkpt lat="46.07421" lon="6.78178">
        <ele>1975.6</ele>
        <time>2026-06-26T09:37:51Z</time>
      </trkpt>
      <trkpt lat="46.07422" lon="6.78178">
        <ele>1975.6</ele>
        <time>2026-06-26T09:37:52Z</time>
      </trkpt>
      <trkpt lat="46.07422" lon="6.78178">
        <ele>1975.6</ele>
        <time>2026-06-26T09:37:53Z</time>
      </trkpt>
      <trkpt lat="46.07422" lon="6.78178">
        <ele>1975.6</ele>
        <time>2026-06-26T09:37:54Z</time>
      </trkpt>
      <trkpt lat="46.07422" lon="6.78178">
        <ele>1975.6</ele>
        <time>2026-06-26T09:37:55Z</time>
      </trkpt>
      <trkpt lat="46.07422" lon="6.78178">
        <ele>1975.6</ele>
        <time>2026-06-26T09:37:56Z</time>
      </trkpt>
      <trkpt lat="46.07422" lon="6.78178">
        <ele>1975.6</ele>
        <time>2026-06-26T09:37:57Z</time>
      </trkpt>
      <trkpt lat="46.07422" lon="6.78178">
        <ele>1975.6</ele>
        <time>2026-06-26T09:37:58Z</time>
      </trkpt>
      <trkpt lat="46.07422" lon="6.78178">
        <ele>1975.6</ele>
        <time>2026-06-26T09:37:59Z</time>
      </trkpt>
      <trkpt lat="46.07422" lon="6.78178">
        <ele>1975.7</ele>
        <time>2026-06-26T09:38:00Z</time>
      </trkpt>
      <trkpt lat="46.07422" lon="6.78178">
        <ele>1975.7</ele>
        <time>2026-06-26T09:38:01Z</time>
      </trkpt>
      <trkpt lat="46.07422" lon="6.78178">
        <ele>1975.7</ele>
        <time>2026-06-26T09:38:02Z</time>
      </trkpt>
      <trkpt lat="46.07423" lon="6.78178">
        <ele>1975.7</ele>
        <time>2026-06-26T09:38:03Z</time>
      </trkpt>
      <trkpt lat="46.07423" lon="6.78178">
        <ele>1975.8</ele>
        <time>2026-06-26T09:38:04Z</time>
      </trkpt>
      <trkpt lat="46.07422" lon="6.78178">
        <ele>1975.9</ele>
        <time>2026-06-26T09:38:05Z</time>
      </trkpt>
      <trkpt lat="46.07423" lon="6.78178">
        <ele>1975.9</ele>
        <time>2026-06-26T09:38:06Z</time>
      </trkpt>
      <trkpt lat="46.07423" lon="6.78178">
        <ele>1975.9</ele>
        <time>2026-06-26T09:38:07Z</time>
      </trkpt>
      <trkpt lat="46.07422" lon="6.78178">
        <ele>1975.9</ele>
        <time>2026-06-26T09:38:08Z</time>
      </trkpt>
      <trkpt lat="46.07422" lon="6.78178">
        <ele>1975.8</ele>
        <time>2026-06-26T09:38:09Z</time>
      </trkpt>
      <trkpt lat="46.07422" lon="6.78178">
        <ele>1975.9</ele>
        <time>2026-06-26T09:38:10Z</time>
      </trkpt>
      <trkpt lat="46.07422" lon="6.78178">
        <ele>1975.9</ele>
        <time>2026-06-26T09:38:11Z</time>
      </trkpt>
      <trkpt lat="46.07422" lon="6.78178">
        <ele>1975.9</ele>
        <time>2026-06-26T09:38:12Z</time>
      </trkpt>
      <trkpt lat="46.07422" lon="6.78178">
        <ele>1975.9</ele>
        <time>2026-06-26T09:38:13Z</time>
      </trkpt>
      <trkpt lat="46.07422" lon="6.78178">
        <ele>1976</ele>
        <time>2026-06-26T09:38:14Z</time>
      </trkpt>
      <trkpt lat="46.07422" lon="6.78178">
        <ele>1976.1</ele>
        <time>2026-06-26T09:38:15Z</time>
      </trkpt>
      <trkpt lat="46.07422" lon="6.78178">
        <ele>1976.1</ele>
        <time>2026-06-26T09:38:16Z</time>
      </trkpt>
      <trkpt lat="46.07422" lon="6.78178">
        <ele>1976.2</ele>
        <time>2026-06-26T09:38:17Z</time>
      </trkpt>
      <trkpt lat="46.07423" lon="6.78178">
        <ele>1976.3</ele>
        <time>2026-06-26T09:38:18Z</time>
      </trkpt>
      <trkpt lat="46.07423" lon="6.78178">
        <ele>1976.4</ele>
        <time>2026-06-26T09:38:19Z</time>
      </trkpt>
      <trkpt lat="46.07423" lon="6.78178">
        <ele>1976.4</ele>
        <time>2026-06-26T09:38:20Z</time>
      </trkpt>
      <trkpt lat="46.07423" lon="6.78178">
        <ele>1976.4</ele>
        <time>2026-06-26T09:38:21Z</time>
      </trkpt>
      <trkpt lat="46.07423" lon="6.78178">
        <ele>1976.5</ele>
        <time>2026-06-26T09:38:22Z</time>
      </trkpt>
      <trkpt lat="46.07423" lon="6.78178">
        <ele>1976.5</ele>
        <time>2026-06-26T09:38:23Z</time>
      </trkpt>
      <trkpt lat="46.07423" lon="6.78178">
        <ele>1976.6</ele>
        <time>2026-06-26T09:38:24Z</time>
      </trkpt>
      <trkpt lat="46.07423" lon="6.78178">
        <ele>1976.7</ele>
        <time>2026-06-26T09:38:25Z</time>
      </trkpt>
      <trkpt lat="46.07423" lon="6.78178">
        <ele>1976.8</ele>
        <time>2026-06-26T09:38:26Z</time>
      </trkpt>
      <trkpt lat="46.07423" lon="6.78177">
        <ele>1976.8</ele>
        <time>2026-06-26T09:38:27Z</time>
      </trkpt>
      <trkpt lat="46.07423" lon="6.78177">
        <ele>1976.9</ele>
        <time>2026-06-26T09:38:28Z</time>
      </trkpt>
      <trkpt lat="46.07423" lon="6.78177">
        <ele>1976.9</ele>
        <time>2026-06-26T09:38:29Z</time>
      </trkpt>
      <trkpt lat="46.07422" lon="6.78177">
        <ele>1977</ele>
        <time>2026-06-26T09:38:30Z</time>
      </trkpt>
      <trkpt lat="46.07422" lon="6.78177">
        <ele>1977.1</ele>
        <time>2026-06-26T09:38:31Z</time>
      </trkpt>
      <trkpt lat="46.07422" lon="6.78177">
        <ele>1977.1</ele>
        <time>2026-06-26T09:38:32Z</time>
      </trkpt>
      <trkpt lat="46.07422" lon="6.78177">
        <ele>1977.1</ele>
        <time>2026-06-26T09:38:33Z</time>
      </trkpt>
      <trkpt lat="46.07422" lon="6.78177">
        <ele>1977.1</ele>
        <time>2026-06-26T09:38:34Z</time>
      </trkpt>
      <trkpt lat="46.07422" lon="6.78177">
        <ele>1977.2</ele>
        <time>2026-06-26T09:38:35Z</time>
      </trkpt>
      <trkpt lat="46.07422" lon="6.78177">
        <ele>1977.2</ele>
        <time>2026-06-26T09:38:36Z</time>
      </trkpt>
      <trkpt lat="46.07422" lon="6.78177">
        <ele>1977.2</ele>
        <time>2026-06-26T09:38:37Z</time>
      </trkpt>
      <trkpt lat="46.07422" lon="6.78177">
        <ele>1977.3</ele>
        <time>2026-06-26T09:38:38Z</time>
      </trkpt>
      <trkpt lat="46.07422" lon="6.78177">
        <ele>1977.3</ele>
        <time>2026-06-26T09:38:39Z</time>
      </trkpt>
      <trkpt lat="46.07422" lon="6.78178">
        <ele>1977.4</ele>
        <time>2026-06-26T09:38:40Z</time>
      </trkpt>
      <trkpt lat="46.07422" lon="6.78178">
        <ele>1977.4</ele>
        <time>2026-06-26T09:38:41Z</time>
      </trkpt>
      <trkpt lat="46.07422" lon="6.78178">
        <ele>1977.4</ele>
        <time>2026-06-26T09:38:42Z</time>
      </trkpt>
      <trkpt lat="46.07422" lon="6.78178">
        <ele>1977.4</ele>
        <time>2026-06-26T09:38:43Z</time>
      </trkpt>
      <trkpt lat="46.07422" lon="6.78178">
        <ele>1977.5</ele>
        <time>2026-06-26T09:38:44Z</time>
      </trkpt>
      <trkpt lat="46.07422" lon="6.78178">
        <ele>1977.5</ele>
        <time>2026-06-26T09:38:45Z</time>
      </trkpt>
      <trkpt lat="46.07422" lon="6.78178">
        <ele>1977.5</ele>
        <time>2026-06-26T09:38:46Z</time>
      </trkpt>
      <trkpt lat="46.07422" lon="6.78177">
        <ele>1977.6</ele>
        <time>2026-06-26T09:38:47Z</time>
      </trkpt>
      <trkpt lat="46.07422" lon="6.78177">
        <ele>1977.6</ele>
        <time>2026-06-26T09:38:48Z</time>
      </trkpt>
      <trkpt lat="46.07422" lon="6.78177">
        <ele>1977.6</ele>
        <time>2026-06-26T09:38:49Z</time>
      </trkpt>
      <trkpt lat="46.07422" lon="6.78177">
        <ele>1977.7</ele>
        <time>2026-06-26T09:38:50Z</time>
      </trkpt>
      <trkpt lat="46.07422" lon="6.78177">
        <ele>1977.7</ele>
        <time>2026-06-26T09:38:51Z</time>
      </trkpt>
      <trkpt lat="46.07422" lon="6.78177">
        <ele>1977.7</ele>
        <time>2026-06-26T09:38:52Z</time>
      </trkpt>
      <trkpt lat="46.07422" lon="6.78177">
        <ele>1977.7</ele>
        <time>2026-06-26T09:38:53Z</time>
      </trkpt>
      <trkpt lat="46.07422" lon="6.78177">
        <ele>1977.8</ele>
        <time>2026-06-26T09:38:54Z</time>
      </trkpt>
      <trkpt lat="46.07422" lon="6.78177">
        <ele>1977.8</ele>
        <time>2026-06-26T09:38:55Z</time>
      </trkpt>
      <trkpt lat="46.07422" lon="6.78177">
        <ele>1977.8</ele>
        <time>2026-06-26T09:38:56Z</time>
      </trkpt>
      <trkpt lat="46.07422" lon="6.78177">
        <ele>1977.8</ele>
        <time>2026-06-26T09:38:57Z</time>
      </trkpt>
      <trkpt lat="46.07422" lon="6.78177">
        <ele>1977.9</ele>
        <time>2026-06-26T09:38:58Z</time>
      </trkpt>
      <trkpt lat="46.07422" lon="6.78177">
        <ele>1978</ele>
        <time>2026-06-26T09:38:59Z</time>
      </trkpt>
      <trkpt lat="46.07422" lon="6.78177">
        <ele>1978.1</ele>
        <time>2026-06-26T09:39:00Z</time>
      </trkpt>
      <trkpt lat="46.07422" lon="6.78177">
        <ele>1978.1</ele>
        <time>2026-06-26T09:39:01Z</time>
      </trkpt>
      <trkpt lat="46.07422" lon="6.78177">
        <ele>1978.2</ele>
        <time>2026-06-26T09:39:02Z</time>
      </trkpt>
      <trkpt lat="46.07422" lon="6.78177">
        <ele>1978.2</ele>
        <time>2026-06-26T09:39:03Z</time>
      </trkpt>
      <trkpt lat="46.07422" lon="6.78177">
        <ele>1978.2</ele>
        <time>2026-06-26T09:39:04Z</time>
      </trkpt>
      <trkpt lat="46.07422" lon="6.78177">
        <ele>1978.2</ele>
        <time>2026-06-26T09:39:05Z</time>
      </trkpt>
      <trkpt lat="46.07422" lon="6.78177">
        <ele>1978.2</ele>
        <time>2026-06-26T09:39:06Z</time>
      </trkpt>
      <trkpt lat="46.07422" lon="6.78177">
        <ele>1978.3</ele>
        <time>2026-06-26T09:39:07Z</time>
      </trkpt>
      <trkpt lat="46.07422" lon="6.78177">
        <ele>1978.3</ele>
        <time>2026-06-26T09:39:08Z</time>
      </trkpt>
      <trkpt lat="46.07422" lon="6.78177">
        <ele>1978.4</ele>
        <time>2026-06-26T09:39:09Z</time>
      </trkpt>
      <trkpt lat="46.07422" lon="6.78177">
        <ele>1978.5</ele>
        <time>2026-06-26T09:39:10Z</time>
      </trkpt>
      <trkpt lat="46.07422" lon="6.78177">
        <ele>1978.6</ele>
        <time>2026-06-26T09:39:11Z</time>
      </trkpt>
      <trkpt lat="46.07422" lon="6.78177">
        <ele>1978.7</ele>
        <time>2026-06-26T09:39:12Z</time>
      </trkpt>
      <trkpt lat="46.07422" lon="6.78177">
        <ele>1978.7</ele>
        <time>2026-06-26T09:39:13Z</time>
      </trkpt>
      <trkpt lat="46.07422" lon="6.78177">
        <ele>1978.8</ele>
        <time>2026-06-26T09:39:14Z</time>
      </trkpt>
      <trkpt lat="46.07422" lon="6.78177">
        <ele>1978.8</ele>
        <time>2026-06-26T09:39:15Z</time>
      </trkpt>
      <trkpt lat="46.07422" lon="6.78177">
        <ele>1978.8</ele>
        <time>2026-06-26T09:39:16Z</time>
      </trkpt>
      <trkpt lat="46.07422" lon="6.78177">
        <ele>1978.8</ele>
        <time>2026-06-26T09:39:17Z</time>
      </trkpt>
      <trkpt lat="46.07422" lon="6.78176">
        <ele>1978.9</ele>
        <time>2026-06-26T09:39:18Z</time>
      </trkpt>
      <trkpt lat="46.07422" lon="6.78176">
        <ele>1978.9</ele>
        <time>2026-06-26T09:39:19Z</time>
      </trkpt>
      <trkpt lat="46.07422" lon="6.78176">
        <ele>1978.9</ele>
        <time>2026-06-26T09:39:20Z</time>
      </trkpt>
      <trkpt lat="46.07422" lon="6.78176">
        <ele>1979</ele>
        <time>2026-06-26T09:39:21Z</time>
      </trkpt>
      <trkpt lat="46.07422" lon="6.78176">
        <ele>1979</ele>
        <time>2026-06-26T09:39:22Z</time>
      </trkpt>
      <trkpt lat="46.07422" lon="6.78176">
        <ele>1979.1</ele>
        <time>2026-06-26T09:39:23Z</time>
      </trkpt>
      <trkpt lat="46.07422" lon="6.78176">
        <ele>1979.1</ele>
        <time>2026-06-26T09:39:24Z</time>
      </trkpt>
      <trkpt lat="46.07422" lon="6.78176">
        <ele>1979.1</ele>
        <time>2026-06-26T09:39:25Z</time>
      </trkpt>
      <trkpt lat="46.07422" lon="6.78176">
        <ele>1979.2</ele>
        <time>2026-06-26T09:39:26Z</time>
      </trkpt>
      <trkpt lat="46.07422" lon="6.78176">
        <ele>1979.3</ele>
        <time>2026-06-26T09:39:27Z</time>
      </trkpt>
      <trkpt lat="46.07422" lon="6.78176">
        <ele>1979.4</ele>
        <time>2026-06-26T09:39:28Z</time>
      </trkpt>
      <trkpt lat="46.07422" lon="6.78176">
        <ele>1979.5</ele>
        <time>2026-06-26T09:39:29Z</time>
      </trkpt>
      <trkpt lat="46.07422" lon="6.78176">
        <ele>1979.5</ele>
        <time>2026-06-26T09:39:30Z</time>
      </trkpt>
      <trkpt lat="46.07422" lon="6.78176">
        <ele>1979.5</ele>
        <time>2026-06-26T09:39:31Z</time>
      </trkpt>
      <trkpt lat="46.07422" lon="6.78176">
        <ele>1979.5</ele>
        <time>2026-06-26T09:39:32Z</time>
      </trkpt>
      <trkpt lat="46.07422" lon="6.78176">
        <ele>1979.5</ele>
        <time>2026-06-26T09:39:33Z</time>
      </trkpt>
      <trkpt lat="46.07422" lon="6.78176">
        <ele>1979.6</ele>
        <time>2026-06-26T09:39:34Z</time>
      </trkpt>
      <trkpt lat="46.07421" lon="6.78176">
        <ele>1979.7</ele>
        <time>2026-06-26T09:39:35Z</time>
      </trkpt>
      <trkpt lat="46.07421" lon="6.78176">
        <ele>1979.7</ele>
        <time>2026-06-26T09:39:36Z</time>
      </trkpt>
      <trkpt lat="46.07421" lon="6.78176">
        <ele>1979.6</ele>
        <time>2026-06-26T09:39:37Z</time>
      </trkpt>
      <trkpt lat="46.07421" lon="6.78176">
        <ele>1979.6</ele>
        <time>2026-06-26T09:39:38Z</time>
      </trkpt>
      <trkpt lat="46.07421" lon="6.78176">
        <ele>1979.6</ele>
        <time>2026-06-26T09:39:39Z</time>
      </trkpt>
      <trkpt lat="46.07421" lon="6.78176">
        <ele>1979.6</ele>
        <time>2026-06-26T09:39:40Z</time>
      </trkpt>
      <trkpt lat="46.07421" lon="6.78176">
        <ele>1979.7</ele>
        <time>2026-06-26T09:39:41Z</time>
      </trkpt>
      <trkpt lat="46.07421" lon="6.78176">
        <ele>1979.7</ele>
        <time>2026-06-26T09:39:42Z</time>
      </trkpt>
      <trkpt lat="46.07421" lon="6.78176">
        <ele>1979.6</ele>
        <time>2026-06-26T09:39:43Z</time>
      </trkpt>
      <trkpt lat="46.07421" lon="6.78176">
        <ele>1979.6</ele>
        <time>2026-06-26T09:39:44Z</time>
      </trkpt>
      <trkpt lat="46.07421" lon="6.78176">
        <ele>1979.7</ele>
        <time>2026-06-26T09:39:45Z</time>
      </trkpt>
      <trkpt lat="46.07421" lon="6.78176">
        <ele>1979.8</ele>
        <time>2026-06-26T09:39:46Z</time>
      </trkpt>
      <trkpt lat="46.07421" lon="6.78176">
        <ele>1979.9</ele>
        <time>2026-06-26T09:39:47Z</time>
      </trkpt>
      <trkpt lat="46.07421" lon="6.78176">
        <ele>1979.9</ele>
        <time>2026-06-26T09:39:48Z</time>
      </trkpt>
      <trkpt lat="46.07421" lon="6.78176">
        <ele>1980</ele>
        <time>2026-06-26T09:39:49Z</time>
      </trkpt>
      <trkpt lat="46.07421" lon="6.78176">
        <ele>1980.1</ele>
        <time>2026-06-26T09:39:50Z</time>
      </trkpt>
      <trkpt lat="46.07421" lon="6.78176">
        <ele>1980.1</ele>
        <time>2026-06-26T09:39:51Z</time>
      </trkpt>
      <trkpt lat="46.07421" lon="6.78176">
        <ele>1980.1</ele>
        <time>2026-06-26T09:39:52Z</time>
      </trkpt>
      <trkpt lat="46.07421" lon="6.78176">
        <ele>1980</ele>
        <time>2026-06-26T09:39:53Z</time>
      </trkpt>
      <trkpt lat="46.07421" lon="6.78176">
        <ele>1980</ele>
        <time>2026-06-26T09:39:54Z</time>
      </trkpt>
      <trkpt lat="46.07421" lon="6.78176">
        <ele>1980.1</ele>
        <time>2026-06-26T09:39:55Z</time>
      </trkpt>
      <trkpt lat="46.07421" lon="6.78176">
        <ele>1980</ele>
        <time>2026-06-26T09:39:56Z</time>
      </trkpt>
      <trkpt lat="46.07421" lon="6.78176">
        <ele>1980.1</ele>
        <time>2026-06-26T09:39:57Z</time>
      </trkpt>
      <trkpt lat="46.07421" lon="6.78176">
        <ele>1980</ele>
        <time>2026-06-26T09:39:58Z</time>
      </trkpt>
      <trkpt lat="46.07421" lon="6.78176">
        <ele>1980</ele>
        <time>2026-06-26T09:39:59Z</time>
      </trkpt>
      <trkpt lat="46.07421" lon="6.78176">
        <ele>1980</ele>
        <time>2026-06-26T09:40:00Z</time>
      </trkpt>
      <trkpt lat="46.07421" lon="6.78176">
        <ele>1980</ele>
        <time>2026-06-26T09:40:01Z</time>
      </trkpt>
      <trkpt lat="46.07421" lon="6.78176">
        <ele>1980.1</ele>
        <time>2026-06-26T09:40:02Z</time>
      </trkpt>
      <trkpt lat="46.07421" lon="6.78176">
        <ele>1980.1</ele>
        <time>2026-06-26T09:40:03Z</time>
      </trkpt>
      <trkpt lat="46.07421" lon="6.78176">
        <ele>1980.1</ele>
        <time>2026-06-26T09:40:04Z</time>
      </trkpt>
      <trkpt lat="46.07421" lon="6.78176">
        <ele>1980.2</ele>
        <time>2026-06-26T09:40:05Z</time>
      </trkpt>
      <trkpt lat="46.07421" lon="6.78176">
        <ele>1980.2</ele>
        <time>2026-06-26T09:40:06Z</time>
      </trkpt>
      <trkpt lat="46.07421" lon="6.78176">
        <ele>1980.3</ele>
        <time>2026-06-26T09:40:07Z</time>
      </trkpt>
      <trkpt lat="46.07421" lon="6.78176">
        <ele>1980.3</ele>
        <time>2026-06-26T09:40:08Z</time>
      </trkpt>
      <trkpt lat="46.07421" lon="6.78176">
        <ele>1980.4</ele>
        <time>2026-06-26T09:40:09Z</time>
      </trkpt>
      <trkpt lat="46.07421" lon="6.78176">
        <ele>1980.3</ele>
        <time>2026-06-26T09:40:10Z</time>
      </trkpt>
      <trkpt lat="46.07421" lon="6.78176">
        <ele>1980.3</ele>
        <time>2026-06-26T09:40:11Z</time>
      </trkpt>
      <trkpt lat="46.07421" lon="6.78176">
        <ele>1980.3</ele>
        <time>2026-06-26T09:40:12Z</time>
      </trkpt>
      <trkpt lat="46.07421" lon="6.78176">
        <ele>1980.3</ele>
        <time>2026-06-26T09:40:13Z</time>
      </trkpt>
      <trkpt lat="46.07421" lon="6.78176">
        <ele>1980.4</ele>
        <time>2026-06-26T09:40:14Z</time>
      </trkpt>
      <trkpt lat="46.07421" lon="6.78176">
        <ele>1980.4</ele>
        <time>2026-06-26T09:40:15Z</time>
      </trkpt>
      <trkpt lat="46.07421" lon="6.78176">
        <ele>1980.5</ele>
        <time>2026-06-26T09:40:16Z</time>
      </trkpt>
      <trkpt lat="46.07421" lon="6.78176">
        <ele>1980.6</ele>
        <time>2026-06-26T09:40:17Z</time>
      </trkpt>
      <trkpt lat="46.07421" lon="6.78176">
        <ele>1980.6</ele>
        <time>2026-06-26T09:40:18Z</time>
      </trkpt>
      <trkpt lat="46.07421" lon="6.78176">
        <ele>1980.6</ele>
        <time>2026-06-26T09:40:19Z</time>
      </trkpt>
      <trkpt lat="46.07421" lon="6.78176">
        <ele>1980.7</ele>
        <time>2026-06-26T09:40:20Z</time>
      </trkpt>
      <trkpt lat="46.07421" lon="6.78176">
        <ele>1980.6</ele>
        <time>2026-06-26T09:40:21Z</time>
      </trkpt>
      <trkpt lat="46.07421" lon="6.78176">
        <ele>1980.7</ele>
        <time>2026-06-26T09:40:22Z</time>
      </trkpt>
      <trkpt lat="46.07421" lon="6.78176">
        <ele>1980.8</ele>
        <time>2026-06-26T09:40:23Z</time>
      </trkpt>
      <trkpt lat="46.07421" lon="6.78176">
        <ele>1980.8</ele>
        <time>2026-06-26T09:40:24Z</time>
      </trkpt>
      <trkpt lat="46.07421" lon="6.78176">
        <ele>1980.9</ele>
        <time>2026-06-26T09:40:25Z</time>
      </trkpt>
      <trkpt lat="46.07421" lon="6.78176">
        <ele>1980.9</ele>
        <time>2026-06-26T09:40:26Z</time>
      </trkpt>
      <trkpt lat="46.07421" lon="6.78176">
        <ele>1980.9</ele>
        <time>2026-06-26T09:40:27Z</time>
      </trkpt>
      <trkpt lat="46.07421" lon="6.78176">
        <ele>1980.9</ele>
        <time>2026-06-26T09:40:28Z</time>
      </trkpt>
      <trkpt lat="46.07421" lon="6.78176">
        <ele>1981</ele>
        <time>2026-06-26T09:40:29Z</time>
      </trkpt>
      <trkpt lat="46.07421" lon="6.78176">
        <ele>1981</ele>
        <time>2026-06-26T09:40:30Z</time>
      </trkpt>
      <trkpt lat="46.07421" lon="6.78176">
        <ele>1981</ele>
        <time>2026-06-26T09:40:31Z</time>
      </trkpt>
      <trkpt lat="46.07421" lon="6.78176">
        <ele>1981.1</ele>
        <time>2026-06-26T09:40:32Z</time>
      </trkpt>
      <trkpt lat="46.07421" lon="6.78176">
        <ele>1981.1</ele>
        <time>2026-06-26T09:40:33Z</time>
      </trkpt>
      <trkpt lat="46.07421" lon="6.78176">
        <ele>1981.2</ele>
        <time>2026-06-26T09:40:34Z</time>
      </trkpt>
      <trkpt lat="46.07421" lon="6.78176">
        <ele>1981.3</ele>
        <time>2026-06-26T09:40:35Z</time>
      </trkpt>
      <trkpt lat="46.07421" lon="6.78176">
        <ele>1981.4</ele>
        <time>2026-06-26T09:40:36Z</time>
      </trkpt>
      <trkpt lat="46.07421" lon="6.78176">
        <ele>1981.4</ele>
        <time>2026-06-26T09:40:37Z</time>
      </trkpt>
      <trkpt lat="46.07421" lon="6.78176">
        <ele>1981.4</ele>
        <time>2026-06-26T09:40:38Z</time>
      </trkpt>
      <trkpt lat="46.07421" lon="6.78176">
        <ele>1981.4</ele>
        <time>2026-06-26T09:40:39Z</time>
      </trkpt>
      <trkpt lat="46.07421" lon="6.78176">
        <ele>1981.4</ele>
        <time>2026-06-26T09:40:40Z</time>
      </trkpt>
      <trkpt lat="46.07421" lon="6.78176">
        <ele>1981.4</ele>
        <time>2026-06-26T09:40:41Z</time>
      </trkpt>
      <trkpt lat="46.07421" lon="6.78176">
        <ele>1981.4</ele>
        <time>2026-06-26T09:40:42Z</time>
      </trkpt>
      <trkpt lat="46.07421" lon="6.78176">
        <ele>1981.4</ele>
        <time>2026-06-26T09:40:43Z</time>
      </trkpt>
      <trkpt lat="46.07421" lon="6.78176">
        <ele>1981.6</ele>
        <time>2026-06-26T09:40:44Z</time>
      </trkpt>
      <trkpt lat="46.07421" lon="6.78176">
        <ele>1981.7</ele>
        <time>2026-06-26T09:40:45Z</time>
      </trkpt>
      <trkpt lat="46.07421" lon="6.78176">
        <ele>1981.7</ele>
        <time>2026-06-26T09:40:46Z</time>
      </trkpt>
      <trkpt lat="46.07421" lon="6.78176">
        <ele>1981.7</ele>
        <time>2026-06-26T09:40:47Z</time>
      </trkpt>
      <trkpt lat="46.07421" lon="6.78176">
        <ele>1981.7</ele>
        <time>2026-06-26T09:40:48Z</time>
      </trkpt>
      <trkpt lat="46.07421" lon="6.78176">
        <ele>1981.7</ele>
        <time>2026-06-26T09:40:49Z</time>
      </trkpt>
      <trkpt lat="46.07421" lon="6.78176">
        <ele>1981.7</ele>
        <time>2026-06-26T09:40:50Z</time>
      </trkpt>
      <trkpt lat="46.07421" lon="6.78176">
        <ele>1981.7</ele>
        <time>2026-06-26T09:40:51Z</time>
      </trkpt>
      <trkpt lat="46.07421" lon="6.78176">
        <ele>1981.8</ele>
        <time>2026-06-26T09:40:52Z</time>
      </trkpt>
      <trkpt lat="46.07421" lon="6.78176">
        <ele>1981.8</ele>
        <time>2026-06-26T09:40:53Z</time>
      </trkpt>
      <trkpt lat="46.07421" lon="6.78176">
        <ele>1981.8</ele>
        <time>2026-06-26T09:40:54Z</time>
      </trkpt>
      <trkpt lat="46.07421" lon="6.78176">
        <ele>1981.8</ele>
        <time>2026-06-26T09:40:55Z</time>
      </trkpt>
      <trkpt lat="46.07421" lon="6.78176">
        <ele>1981.7</ele>
        <time>2026-06-26T09:40:56Z</time>
      </trkpt>
      <trkpt lat="46.07421" lon="6.78176">
        <ele>1981.8</ele>
        <time>2026-06-26T09:40:57Z</time>
      </trkpt>
      <trkpt lat="46.07421" lon="6.78176">
        <ele>1981.9</ele>
        <time>2026-06-26T09:40:58Z</time>
      </trkpt>
      <trkpt lat="46.07421" lon="6.78176">
        <ele>1981.9</ele>
        <time>2026-06-26T09:40:59Z</time>
      </trkpt>
      <trkpt lat="46.07421" lon="6.78176">
        <ele>1981.9</ele>
        <time>2026-06-26T09:41:00Z</time>
      </trkpt>
      <trkpt lat="46.07421" lon="6.78176">
        <ele>1981.9</ele>
        <time>2026-06-26T09:41:01Z</time>
      </trkpt>
      <trkpt lat="46.07421" lon="6.78176">
        <ele>1981.9</ele>
        <time>2026-06-26T09:41:02Z</time>
      </trkpt>
      <trkpt lat="46.07421" lon="6.78176">
        <ele>1981.9</ele>
        <time>2026-06-26T09:41:03Z</time>
      </trkpt>
      <trkpt lat="46.07421" lon="6.78176">
        <ele>1981.9</ele>
        <time>2026-06-26T09:41:04Z</time>
      </trkpt>
      <trkpt lat="46.07421" lon="6.78176">
        <ele>1981.9</ele>
        <time>2026-06-26T09:41:05Z</time>
      </trkpt>
      <trkpt lat="46.07422" lon="6.78176">
        <ele>1981.9</ele>
        <time>2026-06-26T09:41:06Z</time>
      </trkpt>
      <trkpt lat="46.07422" lon="6.78175">
        <ele>1981.9</ele>
        <time>2026-06-26T09:41:07Z</time>
      </trkpt>
      <trkpt lat="46.07422" lon="6.78175">
        <ele>1981.9</ele>
        <time>2026-06-26T09:41:08Z</time>
      </trkpt>
      <trkpt lat="46.07422" lon="6.78175">
        <ele>1981.9</ele>
        <time>2026-06-26T09:41:09Z</time>
      </trkpt>
      <trkpt lat="46.07422" lon="6.78175">
        <ele>1981.9</ele>
        <time>2026-06-26T09:41:10Z</time>
      </trkpt>
      <trkpt lat="46.07422" lon="6.78175">
        <ele>1981.9</ele>
        <time>2026-06-26T09:41:11Z</time>
      </trkpt>
      <trkpt lat="46.07422" lon="6.78175">
        <ele>1981.8</ele>
        <time>2026-06-26T09:41:12Z</time>
      </trkpt>
      <trkpt lat="46.07422" lon="6.78175">
        <ele>1981.7</ele>
        <time>2026-06-26T09:41:13Z</time>
      </trkpt>
      <trkpt lat="46.07422" lon="6.78175">
        <ele>1981.7</ele>
        <time>2026-06-26T09:41:14Z</time>
      </trkpt>
      <trkpt lat="46.07422" lon="6.78175">
        <ele>1981.7</ele>
        <time>2026-06-26T09:41:15Z</time>
      </trkpt>
      <trkpt lat="46.07422" lon="6.78175">
        <ele>1981.7</ele>
        <time>2026-06-26T09:41:16Z</time>
      </trkpt>
      <trkpt lat="46.07422" lon="6.78175">
        <ele>1981.7</ele>
        <time>2026-06-26T09:41:17Z</time>
      </trkpt>
      <trkpt lat="46.07422" lon="6.78175">
        <ele>1981.6</ele>
        <time>2026-06-26T09:41:18Z</time>
      </trkpt>
      <trkpt lat="46.07422" lon="6.78175">
        <ele>1981.6</ele>
        <time>2026-06-26T09:41:19Z</time>
      </trkpt>
      <trkpt lat="46.07422" lon="6.78175">
        <ele>1981.6</ele>
        <time>2026-06-26T09:41:20Z</time>
      </trkpt>
      <trkpt lat="46.07422" lon="6.78175">
        <ele>1981.6</ele>
        <time>2026-06-26T09:41:21Z</time>
      </trkpt>
      <trkpt lat="46.07422" lon="6.78175">
        <ele>1981.5</ele>
        <time>2026-06-26T09:41:22Z</time>
      </trkpt>
      <trkpt lat="46.07422" lon="6.78175">
        <ele>1981.4</ele>
        <time>2026-06-26T09:41:23Z</time>
      </trkpt>
      <trkpt lat="46.07422" lon="6.78175">
        <ele>1981.3</ele>
        <time>2026-06-26T09:41:24Z</time>
      </trkpt>
      <trkpt lat="46.07422" lon="6.78175">
        <ele>1981.3</ele>
        <time>2026-06-26T09:41:25Z</time>
      </trkpt>
      <trkpt lat="46.07422" lon="6.78175">
        <ele>1981.3</ele>
        <time>2026-06-26T09:41:26Z</time>
      </trkpt>
      <trkpt lat="46.07422" lon="6.78175">
        <ele>1981.3</ele>
        <time>2026-06-26T09:41:27Z</time>
      </trkpt>
      <trkpt lat="46.07422" lon="6.78175">
        <ele>1981.3</ele>
        <time>2026-06-26T09:41:28Z</time>
      </trkpt>
      <trkpt lat="46.07422" lon="6.78175">
        <ele>1981.4</ele>
        <time>2026-06-26T09:41:29Z</time>
      </trkpt>
      <trkpt lat="46.07422" lon="6.78175">
        <ele>1981.4</ele>
        <time>2026-06-26T09:41:30Z</time>
      </trkpt>
      <trkpt lat="46.07422" lon="6.78175">
        <ele>1981.3</ele>
        <time>2026-06-26T09:41:31Z</time>
      </trkpt>
      <trkpt lat="46.07422" lon="6.78175">
        <ele>1981.4</ele>
        <time>2026-06-26T09:41:32Z</time>
      </trkpt>
      <trkpt lat="46.07422" lon="6.78174">
        <ele>1981.4</ele>
        <time>2026-06-26T09:41:33Z</time>
      </trkpt>
      <trkpt lat="46.07422" lon="6.78174">
        <ele>1981.4</ele>
        <time>2026-06-26T09:41:34Z</time>
      </trkpt>
      <trkpt lat="46.07422" lon="6.78174">
        <ele>1981.4</ele>
        <time>2026-06-26T09:41:35Z</time>
      </trkpt>
      <trkpt lat="46.07422" lon="6.78174">
        <ele>1981.5</ele>
        <time>2026-06-26T09:41:36Z</time>
      </trkpt>
      <trkpt lat="46.07422" lon="6.78174">
        <ele>1981.6</ele>
        <time>2026-06-26T09:41:37Z</time>
      </trkpt>
      <trkpt lat="46.07422" lon="6.78175">
        <ele>1981.6</ele>
        <time>2026-06-26T09:41:38Z</time>
      </trkpt>
      <trkpt lat="46.07422" lon="6.78175">
        <ele>1981.7</ele>
        <time>2026-06-26T09:41:39Z</time>
      </trkpt>
      <trkpt lat="46.07422" lon="6.78175">
        <ele>1981.7</ele>
        <time>2026-06-26T09:41:40Z</time>
      </trkpt>
      <trkpt lat="46.07422" lon="6.78175">
        <ele>1981.7</ele>
        <time>2026-06-26T09:41:41Z</time>
      </trkpt>
      <trkpt lat="46.07422" lon="6.78175">
        <ele>1981.7</ele>
        <time>2026-06-26T09:41:42Z</time>
      </trkpt>
      <trkpt lat="46.07422" lon="6.78175">
        <ele>1981.7</ele>
        <time>2026-06-26T09:41:43Z</time>
      </trkpt>
      <trkpt lat="46.07422" lon="6.78175">
        <ele>1981.8</ele>
        <time>2026-06-26T09:41:44Z</time>
      </trkpt>
      <trkpt lat="46.07422" lon="6.78175">
        <ele>1981.7</ele>
        <time>2026-06-26T09:41:45Z</time>
      </trkpt>
      <trkpt lat="46.07422" lon="6.78175">
        <ele>1981.6</ele>
        <time>2026-06-26T09:41:46Z</time>
      </trkpt>
      <trkpt lat="46.07422" lon="6.78175">
        <ele>1981.6</ele>
        <time>2026-06-26T09:41:47Z</time>
      </trkpt>
      <trkpt lat="46.07422" lon="6.78175">
        <ele>1981.5</ele>
        <time>2026-06-26T09:41:48Z</time>
      </trkpt>
      <trkpt lat="46.07422" lon="6.78175">
        <ele>1981.5</ele>
        <time>2026-06-26T09:41:49Z</time>
      </trkpt>
      <trkpt lat="46.07422" lon="6.78175">
        <ele>1981.4</ele>
        <time>2026-06-26T09:41:50Z</time>
      </trkpt>
      <trkpt lat="46.07422" lon="6.78175">
        <ele>1981.5</ele>
        <time>2026-06-26T09:41:51Z</time>
      </trkpt>
      <trkpt lat="46.07422" lon="6.78175">
        <ele>1981.5</ele>
        <time>2026-06-26T09:41:52Z</time>
      </trkpt>
      <trkpt lat="46.07422" lon="6.78175">
        <ele>1981.5</ele>
        <time>2026-06-26T09:41:53Z</time>
      </trkpt>
      <trkpt lat="46.07422" lon="6.78175">
        <ele>1981.5</ele>
        <time>2026-06-26T09:41:54Z</time>
      </trkpt>
      <trkpt lat="46.07422" lon="6.78175">
        <ele>1981.5</ele>
        <time>2026-06-26T09:41:55Z</time>
      </trkpt>
      <trkpt lat="46.07422" lon="6.78175">
        <ele>1981.5</ele>
        <time>2026-06-26T09:41:56Z</time>
      </trkpt>
      <trkpt lat="46.07422" lon="6.78175">
        <ele>1981.5</ele>
        <time>2026-06-26T09:41:57Z</time>
      </trkpt>
      <trkpt lat="46.07422" lon="6.78175">
        <ele>1981.5</ele>
        <time>2026-06-26T09:41:58Z</time>
      </trkpt>
      <trkpt lat="46.07422" lon="6.78175">
        <ele>1981.3</ele>
        <time>2026-06-26T09:41:59Z</time>
      </trkpt>
      <trkpt lat="46.07422" lon="6.78175">
        <ele>1981.3</ele>
        <time>2026-06-26T09:42:00Z</time>
      </trkpt>
      <trkpt lat="46.07422" lon="6.78175">
        <ele>1981.3</ele>
        <time>2026-06-26T09:42:01Z</time>
      </trkpt>
      <trkpt lat="46.07422" lon="6.78175">
        <ele>1981.2</ele>
        <time>2026-06-26T09:42:02Z</time>
      </trkpt>
      <trkpt lat="46.07422" lon="6.78175">
        <ele>1981.2</ele>
        <time>2026-06-26T09:42:03Z</time>
      </trkpt>
      <trkpt lat="46.07422" lon="6.78175">
        <ele>1981.2</ele>
        <time>2026-06-26T09:42:04Z</time>
      </trkpt>
      <trkpt lat="46.07422" lon="6.78175">
        <ele>1981.2</ele>
        <time>2026-06-26T09:42:05Z</time>
      </trkpt>
      <trkpt lat="46.07423" lon="6.78175">
        <ele>1981.2</ele>
        <time>2026-06-26T09:42:06Z</time>
      </trkpt>
      <trkpt lat="46.07423" lon="6.78175">
        <ele>1981.3</ele>
        <time>2026-06-26T09:42:07Z</time>
      </trkpt>
      <trkpt lat="46.07423" lon="6.78175">
        <ele>1981.3</ele>
        <time>2026-06-26T09:42:08Z</time>
      </trkpt>
      <trkpt lat="46.07423" lon="6.78175">
        <ele>1981.3</ele>
        <time>2026-06-26T09:42:09Z</time>
      </trkpt>
      <trkpt lat="46.07423" lon="6.78175">
        <ele>1981.3</ele>
        <time>2026-06-26T09:42:10Z</time>
      </trkpt>
      <trkpt lat="46.07423" lon="6.78175">
        <ele>1981.4</ele>
        <time>2026-06-26T09:42:11Z</time>
      </trkpt>
      <trkpt lat="46.07423" lon="6.78175">
        <ele>1981.4</ele>
        <time>2026-06-26T09:42:12Z</time>
      </trkpt>
      <trkpt lat="46.07423" lon="6.78175">
        <ele>1981.4</ele>
        <time>2026-06-26T09:42:13Z</time>
      </trkpt>
      <trkpt lat="46.07423" lon="6.78175">
        <ele>1981.5</ele>
        <time>2026-06-26T09:42:14Z</time>
      </trkpt>
      <trkpt lat="46.07423" lon="6.78175">
        <ele>1981.5</ele>
        <time>2026-06-26T09:42:15Z</time>
      </trkpt>
      <trkpt lat="46.07423" lon="6.78175">
        <ele>1981.6</ele>
        <time>2026-06-26T09:42:16Z</time>
      </trkpt>
      <trkpt lat="46.07423" lon="6.78175">
        <ele>1981.6</ele>
        <time>2026-06-26T09:42:17Z</time>
      </trkpt>
      <trkpt lat="46.07423" lon="6.78175">
        <ele>1981.6</ele>
        <time>2026-06-26T09:42:18Z</time>
      </trkpt>
      <trkpt lat="46.07423" lon="6.78175">
        <ele>1981.6</ele>
        <time>2026-06-26T09:42:19Z</time>
      </trkpt>
      <trkpt lat="46.07423" lon="6.78175">
        <ele>1981.5</ele>
        <time>2026-06-26T09:42:20Z</time>
      </trkpt>
      <trkpt lat="46.07423" lon="6.78175">
        <ele>1981.4</ele>
        <time>2026-06-26T09:42:21Z</time>
      </trkpt>
      <trkpt lat="46.07423" lon="6.78175">
        <ele>1981.4</ele>
        <time>2026-06-26T09:42:22Z</time>
      </trkpt>
      <trkpt lat="46.07423" lon="6.78175">
        <ele>1981.4</ele>
        <time>2026-06-26T09:42:23Z</time>
      </trkpt>
      <trkpt lat="46.07423" lon="6.78175">
        <ele>1981.5</ele>
        <time>2026-06-26T09:42:24Z</time>
      </trkpt>
      <trkpt lat="46.07423" lon="6.78175">
        <ele>1981.5</ele>
        <time>2026-06-26T09:42:25Z</time>
      </trkpt>
      <trkpt lat="46.07423" lon="6.78175">
        <ele>1981.5</ele>
        <time>2026-06-26T09:42:26Z</time>
      </trkpt>
      <trkpt lat="46.07423" lon="6.78175">
        <ele>1981.5</ele>
        <time>2026-06-26T09:42:27Z</time>
      </trkpt>
      <trkpt lat="46.07423" lon="6.78176">
        <ele>1981.6</ele>
        <time>2026-06-26T09:42:28Z</time>
      </trkpt>
      <trkpt lat="46.07423" lon="6.78176">
        <ele>1981.6</ele>
        <time>2026-06-26T09:42:29Z</time>
      </trkpt>
      <trkpt lat="46.07423" lon="6.78176">
        <ele>1981.5</ele>
        <time>2026-06-26T09:42:30Z</time>
      </trkpt>
      <trkpt lat="46.07423" lon="6.78176">
        <ele>1981.6</ele>
        <time>2026-06-26T09:42:31Z</time>
      </trkpt>
      <trkpt lat="46.07423" lon="6.78176">
        <ele>1981.6</ele>
        <time>2026-06-26T09:42:32Z</time>
      </trkpt>
      <trkpt lat="46.07423" lon="6.78176">
        <ele>1981.6</ele>
        <time>2026-06-26T09:42:33Z</time>
      </trkpt>
      <trkpt lat="46.07423" lon="6.78176">
        <ele>1981.6</ele>
        <time>2026-06-26T09:42:34Z</time>
      </trkpt>
      <trkpt lat="46.07423" lon="6.78176">
        <ele>1981.6</ele>
        <time>2026-06-26T09:42:35Z</time>
      </trkpt>
      <trkpt lat="46.07423" lon="6.78176">
        <ele>1981.6</ele>
        <time>2026-06-26T09:42:36Z</time>
      </trkpt>
      <trkpt lat="46.07423" lon="6.78176">
        <ele>1981.6</ele>
        <time>2026-06-26T09:42:37Z</time>
      </trkpt>
      <trkpt lat="46.07423" lon="6.78176">
        <ele>1981.6</ele>
        <time>2026-06-26T09:42:38Z</time>
      </trkpt>
      <trkpt lat="46.07423" lon="6.78176">
        <ele>1981.6</ele>
        <time>2026-06-26T09:42:39Z</time>
      </trkpt>
      <trkpt lat="46.07423" lon="6.78176">
        <ele>1981.5</ele>
        <time>2026-06-26T09:42:40Z</time>
      </trkpt>
      <trkpt lat="46.07423" lon="6.78176">
        <ele>1981.5</ele>
        <time>2026-06-26T09:42:41Z</time>
      </trkpt>
      <trkpt lat="46.07423" lon="6.78176">
        <ele>1981.5</ele>
        <time>2026-06-26T09:42:42Z</time>
      </trkpt>
      <trkpt lat="46.07423" lon="6.78176">
        <ele>1981.4</ele>
        <time>2026-06-26T09:42:43Z</time>
      </trkpt>
      <trkpt lat="46.07423" lon="6.78176">
        <ele>1981.5</ele>
        <time>2026-06-26T09:42:44Z</time>
      </trkpt>
      <trkpt lat="46.07423" lon="6.78176">
        <ele>1981.5</ele>
        <time>2026-06-26T09:42:45Z</time>
      </trkpt>
      <trkpt lat="46.07422" lon="6.78176">
        <ele>1981.5</ele>
        <time>2026-06-26T09:42:46Z</time>
      </trkpt>
      <trkpt lat="46.07423" lon="6.78176">
        <ele>1981.6</ele>
        <time>2026-06-26T09:42:47Z</time>
      </trkpt>
      <trkpt lat="46.07422" lon="6.78176">
        <ele>1981.6</ele>
        <time>2026-06-26T09:42:48Z</time>
      </trkpt>
      <trkpt lat="46.07423" lon="6.78176">
        <ele>1981.5</ele>
        <time>2026-06-26T09:42:49Z</time>
      </trkpt>
      <trkpt lat="46.07423" lon="6.78176">
        <ele>1981.5</ele>
        <time>2026-06-26T09:42:50Z</time>
      </trkpt>
      <trkpt lat="46.07423" lon="6.78176">
        <ele>1981.5</ele>
        <time>2026-06-26T09:42:51Z</time>
      </trkpt>
      <trkpt lat="46.07423" lon="6.78176">
        <ele>1981.6</ele>
        <time>2026-06-26T09:42:52Z</time>
      </trkpt>
      <trkpt lat="46.07423" lon="6.78176">
        <ele>1981.6</ele>
        <time>2026-06-26T09:42:53Z</time>
      </trkpt>
      <trkpt lat="46.07422" lon="6.78176">
        <ele>1981.6</ele>
        <time>2026-06-26T09:42:54Z</time>
      </trkpt>
      <trkpt lat="46.07422" lon="6.78176">
        <ele>1981.5</ele>
        <time>2026-06-26T09:42:55Z</time>
      </trkpt>
      <trkpt lat="46.07422" lon="6.78176">
        <ele>1981.6</ele>
        <time>2026-06-26T09:42:56Z</time>
      </trkpt>
      <trkpt lat="46.07422" lon="6.78176">
        <ele>1981.5</ele>
        <time>2026-06-26T09:42:57Z</time>
      </trkpt>
      <trkpt lat="46.07422" lon="6.78177">
        <ele>1981.5</ele>
        <time>2026-06-26T09:42:58Z</time>
      </trkpt>
      <trkpt lat="46.07422" lon="6.78177">
        <ele>1981.5</ele>
        <time>2026-06-26T09:42:59Z</time>
      </trkpt>
      <trkpt lat="46.07422" lon="6.78177">
        <ele>1981.5</ele>
        <time>2026-06-26T09:43:00Z</time>
      </trkpt>
      <trkpt lat="46.07422" lon="6.78177">
        <ele>1981.5</ele>
        <time>2026-06-26T09:43:01Z</time>
      </trkpt>
      <trkpt lat="46.07422" lon="6.78177">
        <ele>1981.4</ele>
        <time>2026-06-26T09:43:02Z</time>
      </trkpt>
      <trkpt lat="46.07422" lon="6.78177">
        <ele>1981.4</ele>
        <time>2026-06-26T09:43:03Z</time>
      </trkpt>
      <trkpt lat="46.07422" lon="6.78177">
        <ele>1981.3</ele>
        <time>2026-06-26T09:43:04Z</time>
      </trkpt>
      <trkpt lat="46.07422" lon="6.78177">
        <ele>1981.3</ele>
        <time>2026-06-26T09:43:05Z</time>
      </trkpt>
      <trkpt lat="46.07422" lon="6.78177">
        <ele>1981.3</ele>
        <time>2026-06-26T09:43:06Z</time>
      </trkpt>
      <trkpt lat="46.07422" lon="6.78177">
        <ele>1981.3</ele>
        <time>2026-06-26T09:43:07Z</time>
      </trkpt>
      <trkpt lat="46.07422" lon="6.78177">
        <ele>1981.3</ele>
        <time>2026-06-26T09:43:08Z</time>
      </trkpt>
      <trkpt lat="46.07422" lon="6.78177">
        <ele>1981.3</ele>
        <time>2026-06-26T09:43:09Z</time>
      </trkpt>
      <trkpt lat="46.07422" lon="6.78177">
        <ele>1981.3</ele>
        <time>2026-06-26T09:43:10Z</time>
      </trkpt>
      <trkpt lat="46.07422" lon="6.78177">
        <ele>1981.3</ele>
        <time>2026-06-26T09:43:11Z</time>
      </trkpt>
      <trkpt lat="46.07422" lon="6.78177">
        <ele>1981.3</ele>
        <time>2026-06-26T09:43:12Z</time>
      </trkpt>
      <trkpt lat="46.07423" lon="6.78177">
        <ele>1981.3</ele>
        <time>2026-06-26T09:43:13Z</time>
      </trkpt>
      <trkpt lat="46.07423" lon="6.78177">
        <ele>1981.4</ele>
        <time>2026-06-26T09:43:14Z</time>
      </trkpt>
      <trkpt lat="46.07423" lon="6.78177">
        <ele>1981.4</ele>
        <time>2026-06-26T09:43:15Z</time>
      </trkpt>
      <trkpt lat="46.07423" lon="6.78177">
        <ele>1981.4</ele>
        <time>2026-06-26T09:43:16Z</time>
      </trkpt>
      <trkpt lat="46.07423" lon="6.78177">
        <ele>1981.4</ele>
        <time>2026-06-26T09:43:17Z</time>
      </trkpt>
      <trkpt lat="46.07423" lon="6.78177">
        <ele>1981.5</ele>
        <time>2026-06-26T09:43:18Z</time>
      </trkpt>
      <trkpt lat="46.07423" lon="6.78177">
        <ele>1981.4</ele>
        <time>2026-06-26T09:43:19Z</time>
      </trkpt>
      <trkpt lat="46.07423" lon="6.78177">
        <ele>1981.4</ele>
        <time>2026-06-26T09:43:20Z</time>
      </trkpt>
      <trkpt lat="46.07423" lon="6.78177">
        <ele>1981.4</ele>
        <time>2026-06-26T09:43:21Z</time>
      </trkpt>
      <trkpt lat="46.07423" lon="6.78177">
        <ele>1981.5</ele>
        <time>2026-06-26T09:43:22Z</time>
      </trkpt>
      <trkpt lat="46.07423" lon="6.78177">
        <ele>1981.5</ele>
        <time>2026-06-26T09:43:23Z</time>
      </trkpt>
      <trkpt lat="46.07423" lon="6.78176">
        <ele>1981.5</ele>
        <time>2026-06-26T09:43:24Z</time>
      </trkpt>
      <trkpt lat="46.07423" lon="6.78176">
        <ele>1981.5</ele>
        <time>2026-06-26T09:43:25Z</time>
      </trkpt>
      <trkpt lat="46.07423" lon="6.78176">
        <ele>1981.7</ele>
        <time>2026-06-26T09:43:26Z</time>
      </trkpt>
      <trkpt lat="46.07423" lon="6.78176">
        <ele>1981.8</ele>
        <time>2026-06-26T09:43:27Z</time>
      </trkpt>
      <trkpt lat="46.07423" lon="6.78176">
        <ele>1981.8</ele>
        <time>2026-06-26T09:43:28Z</time>
      </trkpt>
      <trkpt lat="46.07423" lon="6.78176">
        <ele>1981.8</ele>
        <time>2026-06-26T09:43:29Z</time>
      </trkpt>
      <trkpt lat="46.07423" lon="6.78176">
        <ele>1981.8</ele>
        <time>2026-06-26T09:43:30Z</time>
      </trkpt>
      <trkpt lat="46.07423" lon="6.78176">
        <ele>1981.7</ele>
        <time>2026-06-26T09:43:31Z</time>
      </trkpt>
      <trkpt lat="46.07423" lon="6.78176">
        <ele>1981.7</ele>
        <time>2026-06-26T09:43:32Z</time>
      </trkpt>
      <trkpt lat="46.07423" lon="6.78176">
        <ele>1981.6</ele>
        <time>2026-06-26T09:43:33Z</time>
      </trkpt>
      <trkpt lat="46.07423" lon="6.78176">
        <ele>1981.6</ele>
        <time>2026-06-26T09:43:34Z</time>
      </trkpt>
      <trkpt lat="46.07423" lon="6.78176">
        <ele>1981.6</ele>
        <time>2026-06-26T09:43:35Z</time>
      </trkpt>
      <trkpt lat="46.07423" lon="6.78176">
        <ele>1981.6</ele>
        <time>2026-06-26T09:43:36Z</time>
      </trkpt>
      <trkpt lat="46.07423" lon="6.78176">
        <ele>1981.6</ele>
        <time>2026-06-26T09:43:37Z</time>
      </trkpt>
      <trkpt lat="46.07423" lon="6.78176">
        <ele>1981.6</ele>
        <time>2026-06-26T09:43:38Z</time>
      </trkpt>
      <trkpt lat="46.07423" lon="6.78176">
        <ele>1981.6</ele>
        <time>2026-06-26T09:43:39Z</time>
      </trkpt>
      <trkpt lat="46.07423" lon="6.78176">
        <ele>1981.6</ele>
        <time>2026-06-26T09:43:40Z</time>
      </trkpt>
      <trkpt lat="46.07423" lon="6.78176">
        <ele>1981.6</ele>
        <time>2026-06-26T09:43:41Z</time>
      </trkpt>
      <trkpt lat="46.07423" lon="6.78176">
        <ele>1981.7</ele>
        <time>2026-06-26T09:43:42Z</time>
      </trkpt>
      <trkpt lat="46.07423" lon="6.78176">
        <ele>1981.8</ele>
        <time>2026-06-26T09:43:43Z</time>
      </trkpt>
      <trkpt lat="46.07423" lon="6.78176">
        <ele>1981.7</ele>
        <time>2026-06-26T09:43:44Z</time>
      </trkpt>
      <trkpt lat="46.07423" lon="6.78176">
        <ele>1981.7</ele>
        <time>2026-06-26T09:43:45Z</time>
      </trkpt>
      <trkpt lat="46.07423" lon="6.78176">
        <ele>1981.7</ele>
        <time>2026-06-26T09:43:46Z</time>
      </trkpt>
      <trkpt lat="46.07423" lon="6.78176">
        <ele>1981.6</ele>
        <time>2026-06-26T09:43:47Z</time>
      </trkpt>
      <trkpt lat="46.07424" lon="6.78176">
        <ele>1981.7</ele>
        <time>2026-06-26T09:43:48Z</time>
      </trkpt>
      <trkpt lat="46.07423" lon="6.78176">
        <ele>1981.7</ele>
        <time>2026-06-26T09:43:49Z</time>
      </trkpt>
      <trkpt lat="46.07423" lon="6.78176">
        <ele>1981.8</ele>
        <time>2026-06-26T09:43:50Z</time>
      </trkpt>
      <trkpt lat="46.07423" lon="6.78176">
        <ele>1981.8</ele>
        <time>2026-06-26T09:43:51Z</time>
      </trkpt>
      <trkpt lat="46.07423" lon="6.78176">
        <ele>1981.8</ele>
        <time>2026-06-26T09:43:52Z</time>
      </trkpt>
      <trkpt lat="46.07423" lon="6.78176">
        <ele>1981.8</ele>
        <time>2026-06-26T09:43:53Z</time>
      </trkpt>
      <trkpt lat="46.07423" lon="6.78176">
        <ele>1981.9</ele>
        <time>2026-06-26T09:43:54Z</time>
      </trkpt>
      <trkpt lat="46.07423" lon="6.78176">
        <ele>1981.9</ele>
        <time>2026-06-26T09:43:55Z</time>
      </trkpt>
      <trkpt lat="46.07423" lon="6.78176">
        <ele>1981.9</ele>
        <time>2026-06-26T09:43:56Z</time>
      </trkpt>
      <trkpt lat="46.07423" lon="6.78176">
        <ele>1981.9</ele>
        <time>2026-06-26T09:43:57Z</time>
      </trkpt>
      <trkpt lat="46.07423" lon="6.78176">
        <ele>1981.8</ele>
        <time>2026-06-26T09:43:58Z</time>
      </trkpt>
      <trkpt lat="46.07423" lon="6.78176">
        <ele>1981.8</ele>
        <time>2026-06-26T09:43:59Z</time>
      </trkpt>
      <trkpt lat="46.07423" lon="6.78176">
        <ele>1981.8</ele>
        <time>2026-06-26T09:44:00Z</time>
      </trkpt>
      <trkpt lat="46.07423" lon="6.78176">
        <ele>1981.8</ele>
        <time>2026-06-26T09:44:01Z</time>
      </trkpt>
      <trkpt lat="46.07423" lon="6.78176">
        <ele>1981.8</ele>
        <time>2026-06-26T09:44:02Z</time>
      </trkpt>
      <trkpt lat="46.07423" lon="6.78176">
        <ele>1981.9</ele>
        <time>2026-06-26T09:44:03Z</time>
      </trkpt>
      <trkpt lat="46.07423" lon="6.78176">
        <ele>1981.9</ele>
        <time>2026-06-26T09:44:04Z</time>
      </trkpt>
      <trkpt lat="46.07424" lon="6.78176">
        <ele>1981.9</ele>
        <time>2026-06-26T09:44:05Z</time>
      </trkpt>
      <trkpt lat="46.07423" lon="6.78176">
        <ele>1982</ele>
        <time>2026-06-26T09:44:06Z</time>
      </trkpt>
      <trkpt lat="46.07424" lon="6.78176">
        <ele>1982</ele>
        <time>2026-06-26T09:44:07Z</time>
      </trkpt>
      <trkpt lat="46.07423" lon="6.78176">
        <ele>1982</ele>
        <time>2026-06-26T09:44:08Z</time>
      </trkpt>
      <trkpt lat="46.07424" lon="6.78176">
        <ele>1982</ele>
        <time>2026-06-26T09:44:09Z</time>
      </trkpt>
      <trkpt lat="46.07424" lon="6.78176">
        <ele>1982</ele>
        <time>2026-06-26T09:44:10Z</time>
      </trkpt>
      <trkpt lat="46.07424" lon="6.78176">
        <ele>1981.9</ele>
        <time>2026-06-26T09:44:11Z</time>
      </trkpt>
      <trkpt lat="46.07424" lon="6.78176">
        <ele>1981.9</ele>
        <time>2026-06-26T09:44:12Z</time>
      </trkpt>
      <trkpt lat="46.07424" lon="6.78176">
        <ele>1982</ele>
        <time>2026-06-26T09:44:13Z</time>
      </trkpt>
      <trkpt lat="46.07424" lon="6.78176">
        <ele>1982</ele>
        <time>2026-06-26T09:44:14Z</time>
      </trkpt>
      <trkpt lat="46.07423" lon="6.78176">
        <ele>1982.1</ele>
        <time>2026-06-26T09:44:15Z</time>
      </trkpt>
      <trkpt lat="46.07423" lon="6.78176">
        <ele>1982</ele>
        <time>2026-06-26T09:44:16Z</time>
      </trkpt>
      <trkpt lat="46.07423" lon="6.78176">
        <ele>1981.9</ele>
        <time>2026-06-26T09:44:17Z</time>
      </trkpt>
      <trkpt lat="46.07423" lon="6.78176">
        <ele>1981.9</ele>
        <time>2026-06-26T09:44:18Z</time>
      </trkpt>
      <trkpt lat="46.07423" lon="6.78176">
        <ele>1981.9</ele>
        <time>2026-06-26T09:44:19Z</time>
      </trkpt>
      <trkpt lat="46.07423" lon="6.78176">
        <ele>1981.9</ele>
        <time>2026-06-26T09:44:20Z</time>
      </trkpt>
      <trkpt lat="46.07423" lon="6.78176">
        <ele>1982</ele>
        <time>2026-06-26T09:44:21Z</time>
      </trkpt>
      <trkpt lat="46.07423" lon="6.78176">
        <ele>1982</ele>
        <time>2026-06-26T09:44:22Z</time>
      </trkpt>
      <trkpt lat="46.07423" lon="6.78176">
        <ele>1982.1</ele>
        <time>2026-06-26T09:44:23Z</time>
      </trkpt>
      <trkpt lat="46.07423" lon="6.78176">
        <ele>1982.2</ele>
        <time>2026-06-26T09:44:24Z</time>
      </trkpt>
      <trkpt lat="46.07423" lon="6.78176">
        <ele>1982.2</ele>
        <time>2026-06-26T09:44:25Z</time>
      </trkpt>
      <trkpt lat="46.07423" lon="6.78176">
        <ele>1982.3</ele>
        <time>2026-06-26T09:44:26Z</time>
      </trkpt>
      <trkpt lat="46.07423" lon="6.78176">
        <ele>1982.3</ele>
        <time>2026-06-26T09:44:27Z</time>
      </trkpt>
      <trkpt lat="46.07423" lon="6.78176">
        <ele>1982.3</ele>
        <time>2026-06-26T09:44:28Z</time>
      </trkpt>
      <trkpt lat="46.07423" lon="6.78176">
        <ele>1982.3</ele>
        <time>2026-06-26T09:44:29Z</time>
      </trkpt>
      <trkpt lat="46.07423" lon="6.78176">
        <ele>1982.3</ele>
        <time>2026-06-26T09:44:30Z</time>
      </trkpt>
      <trkpt lat="46.07423" lon="6.78176">
        <ele>1982.4</ele>
        <time>2026-06-26T09:44:31Z</time>
      </trkpt>
      <trkpt lat="46.07423" lon="6.78176">
        <ele>1982.3</ele>
        <time>2026-06-26T09:44:32Z</time>
      </trkpt>
      <trkpt lat="46.07423" lon="6.78176">
        <ele>1982.3</ele>
        <time>2026-06-26T09:44:33Z</time>
      </trkpt>
      <trkpt lat="46.07423" lon="6.78176">
        <ele>1982.2</ele>
        <time>2026-06-26T09:44:34Z</time>
      </trkpt>
      <trkpt lat="46.07423" lon="6.78176">
        <ele>1982.2</ele>
        <time>2026-06-26T09:44:35Z</time>
      </trkpt>
      <trkpt lat="46.07423" lon="6.78177">
        <ele>1982.1</ele>
        <time>2026-06-26T09:44:36Z</time>
      </trkpt>
      <trkpt lat="46.07423" lon="6.78177">
        <ele>1982.1</ele>
        <time>2026-06-26T09:44:37Z</time>
      </trkpt>
      <trkpt lat="46.07423" lon="6.78177">
        <ele>1982.1</ele>
        <time>2026-06-26T09:44:38Z</time>
      </trkpt>
      <trkpt lat="46.07423" lon="6.78177">
        <ele>1982.1</ele>
        <time>2026-06-26T09:44:39Z</time>
      </trkpt>
      <trkpt lat="46.07423" lon="6.78177">
        <ele>1982</ele>
        <time>2026-06-26T09:44:40Z</time>
      </trkpt>
      <trkpt lat="46.07423" lon="6.78177">
        <ele>1982</ele>
        <time>2026-06-26T09:44:41Z</time>
      </trkpt>
      <trkpt lat="46.07423" lon="6.78177">
        <ele>1982</ele>
        <time>2026-06-26T09:44:42Z</time>
      </trkpt>
      <trkpt lat="46.07423" lon="6.78177">
        <ele>1982</ele>
        <time>2026-06-26T09:44:43Z</time>
      </trkpt>
      <trkpt lat="46.07423" lon="6.78177">
        <ele>1982.1</ele>
        <time>2026-06-26T09:44:44Z</time>
      </trkpt>
      <trkpt lat="46.07423" lon="6.78177">
        <ele>1982.1</ele>
        <time>2026-06-26T09:44:45Z</time>
      </trkpt>
      <trkpt lat="46.07423" lon="6.78177">
        <ele>1982.1</ele>
        <time>2026-06-26T09:44:46Z</time>
      </trkpt>
      <trkpt lat="46.07423" lon="6.78177">
        <ele>1982.1</ele>
        <time>2026-06-26T09:44:47Z</time>
      </trkpt>
      <trkpt lat="46.07423" lon="6.78177">
        <ele>1982.1</ele>
        <time>2026-06-26T09:44:48Z</time>
      </trkpt>
      <trkpt lat="46.07423" lon="6.78177">
        <ele>1982.1</ele>
        <time>2026-06-26T09:44:49Z</time>
      </trkpt>
      <trkpt lat="46.07423" lon="6.78177">
        <ele>1982.2</ele>
        <time>2026-06-26T09:44:50Z</time>
      </trkpt>
      <trkpt lat="46.07423" lon="6.78177">
        <ele>1982.3</ele>
        <time>2026-06-26T09:44:51Z</time>
      </trkpt>
      <trkpt lat="46.07423" lon="6.78177">
        <ele>1982.3</ele>
        <time>2026-06-26T09:44:52Z</time>
      </trkpt>
      <trkpt lat="46.07423" lon="6.78177">
        <ele>1982.4</ele>
        <time>2026-06-26T09:44:53Z</time>
      </trkpt>
      <trkpt lat="46.07423" lon="6.78177">
        <ele>1982.4</ele>
        <time>2026-06-26T09:44:54Z</time>
      </trkpt>
      <trkpt lat="46.07423" lon="6.78177">
        <ele>1982.4</ele>
        <time>2026-06-26T09:44:55Z</time>
      </trkpt>
      <trkpt lat="46.07423" lon="6.78177">
        <ele>1982.3</ele>
        <time>2026-06-26T09:44:56Z</time>
      </trkpt>
      <trkpt lat="46.07423" lon="6.78177">
        <ele>1982.4</ele>
        <time>2026-06-26T09:44:57Z</time>
      </trkpt>
      <trkpt lat="46.07423" lon="6.78177">
        <ele>1982.4</ele>
        <time>2026-06-26T09:44:58Z</time>
      </trkpt>
      <trkpt lat="46.07423" lon="6.78177">
        <ele>1982.4</ele>
        <time>2026-06-26T09:44:59Z</time>
      </trkpt>
      <trkpt lat="46.07423" lon="6.78178">
        <ele>1982.4</ele>
        <time>2026-06-26T09:45:00Z</time>
      </trkpt>
      <trkpt lat="46.07423" lon="6.78178">
        <ele>1982.3</ele>
        <time>2026-06-26T09:45:01Z</time>
      </trkpt>
      <trkpt lat="46.07423" lon="6.78178">
        <ele>1982.4</ele>
        <time>2026-06-26T09:45:02Z</time>
      </trkpt>
      <trkpt lat="46.07423" lon="6.78178">
        <ele>1982.4</ele>
        <time>2026-06-26T09:45:03Z</time>
      </trkpt>
      <trkpt lat="46.07423" lon="6.78178">
        <ele>1982.5</ele>
        <time>2026-06-26T09:45:04Z</time>
      </trkpt>
      <trkpt lat="46.07423" lon="6.78178">
        <ele>1982.3</ele>
        <time>2026-06-26T09:45:05Z</time>
      </trkpt>
      <trkpt lat="46.07423" lon="6.78178">
        <ele>1982.2</ele>
        <time>2026-06-26T09:45:06Z</time>
      </trkpt>
      <trkpt lat="46.07423" lon="6.78178">
        <ele>1982.2</ele>
        <time>2026-06-26T09:45:07Z</time>
      </trkpt>
      <trkpt lat="46.07423" lon="6.78178">
        <ele>1982.1</ele>
        <time>2026-06-26T09:45:08Z</time>
      </trkpt>
      <trkpt lat="46.07423" lon="6.78178">
        <ele>1982</ele>
        <time>2026-06-26T09:45:09Z</time>
      </trkpt>
      <trkpt lat="46.07423" lon="6.78178">
        <ele>1982.1</ele>
        <time>2026-06-26T09:45:10Z</time>
      </trkpt>
      <trkpt lat="46.07423" lon="6.78178">
        <ele>1982.1</ele>
        <time>2026-06-26T09:45:11Z</time>
      </trkpt>
      <trkpt lat="46.07423" lon="6.78178">
        <ele>1982.2</ele>
        <time>2026-06-26T09:45:12Z</time>
      </trkpt>
      <trkpt lat="46.07423" lon="6.78178">
        <ele>1982.2</ele>
        <time>2026-06-26T09:45:13Z</time>
      </trkpt>
      <trkpt lat="46.07423" lon="6.78178">
        <ele>1982.2</ele>
        <time>2026-06-26T09:45:14Z</time>
      </trkpt>
      <trkpt lat="46.07423" lon="6.78178">
        <ele>1982.3</ele>
        <time>2026-06-26T09:45:15Z</time>
      </trkpt>
      <trkpt lat="46.07423" lon="6.78178">
        <ele>1982.3</ele>
        <time>2026-06-26T09:45:16Z</time>
      </trkpt>
      <trkpt lat="46.07423" lon="6.78178">
        <ele>1982.2</ele>
        <time>2026-06-26T09:45:17Z</time>
      </trkpt>
      <trkpt lat="46.07423" lon="6.78178">
        <ele>1982.3</ele>
        <time>2026-06-26T09:45:18Z</time>
      </trkpt>
      <trkpt lat="46.07423" lon="6.78178">
        <ele>1982.2</ele>
        <time>2026-06-26T09:45:19Z</time>
      </trkpt>
      <trkpt lat="46.07423" lon="6.78178">
        <ele>1982.2</ele>
        <time>2026-06-26T09:45:20Z</time>
      </trkpt>
      <trkpt lat="46.07423" lon="6.78178">
        <ele>1982.2</ele>
        <time>2026-06-26T09:45:21Z</time>
      </trkpt>
      <trkpt lat="46.07423" lon="6.78178">
        <ele>1982.2</ele>
        <time>2026-06-26T09:45:22Z</time>
      </trkpt>
      <trkpt lat="46.07423" lon="6.78178">
        <ele>1982.2</ele>
        <time>2026-06-26T09:45:23Z</time>
      </trkpt>
      <trkpt lat="46.07423" lon="6.78178">
        <ele>1982.1</ele>
        <time>2026-06-26T09:45:24Z</time>
      </trkpt>
      <trkpt lat="46.07423" lon="6.78178">
        <ele>1981.9</ele>
        <time>2026-06-26T09:45:25Z</time>
      </trkpt>
      <trkpt lat="46.07423" lon="6.78178">
        <ele>1981.8</ele>
        <time>2026-06-26T09:45:26Z</time>
      </trkpt>
      <trkpt lat="46.07423" lon="6.78178">
        <ele>1981.7</ele>
        <time>2026-06-26T09:45:27Z</time>
      </trkpt>
      <trkpt lat="46.07423" lon="6.78178">
        <ele>1981.9</ele>
        <time>2026-06-26T09:45:28Z</time>
      </trkpt>
      <trkpt lat="46.07423" lon="6.78178">
        <ele>1981.9</ele>
        <time>2026-06-26T09:45:29Z</time>
      </trkpt>
      <trkpt lat="46.07423" lon="6.78178">
        <ele>1981.9</ele>
        <time>2026-06-26T09:45:30Z</time>
      </trkpt>
      <trkpt lat="46.07423" lon="6.78178">
        <ele>1981.8</ele>
        <time>2026-06-26T09:45:31Z</time>
      </trkpt>
      <trkpt lat="46.07423" lon="6.78178">
        <ele>1981.7</ele>
        <time>2026-06-26T09:45:32Z</time>
      </trkpt>
      <trkpt lat="46.07423" lon="6.78178">
        <ele>1981.6</ele>
        <time>2026-06-26T09:45:33Z</time>
      </trkpt>
      <trkpt lat="46.07423" lon="6.78178">
        <ele>1981.5</ele>
        <time>2026-06-26T09:45:34Z</time>
      </trkpt>
      <trkpt lat="46.07423" lon="6.78178">
        <ele>1981.5</ele>
        <time>2026-06-26T09:45:35Z</time>
      </trkpt>
      <trkpt lat="46.07423" lon="6.78178">
        <ele>1981.4</ele>
        <time>2026-06-26T09:45:36Z</time>
      </trkpt>
      <trkpt lat="46.07423" lon="6.78178">
        <ele>1981.4</ele>
        <time>2026-06-26T09:45:37Z</time>
      </trkpt>
      <trkpt lat="46.07423" lon="6.78178">
        <ele>1981.5</ele>
        <time>2026-06-26T09:45:38Z</time>
      </trkpt>
      <trkpt lat="46.07423" lon="6.78178">
        <ele>1981.6</ele>
        <time>2026-06-26T09:45:39Z</time>
      </trkpt>
      <trkpt lat="46.07423" lon="6.78178">
        <ele>1981.6</ele>
        <time>2026-06-26T09:45:40Z</time>
      </trkpt>
      <trkpt lat="46.07423" lon="6.78178">
        <ele>1981.6</ele>
        <time>2026-06-26T09:45:41Z</time>
      </trkpt>
      <trkpt lat="46.07423" lon="6.78178">
        <ele>1981.7</ele>
        <time>2026-06-26T09:45:42Z</time>
      </trkpt>
      <trkpt lat="46.07423" lon="6.78178">
        <ele>1981.7</ele>
        <time>2026-06-26T09:45:43Z</time>
      </trkpt>
      <trkpt lat="46.07423" lon="6.78178">
        <ele>1981.7</ele>
        <time>2026-06-26T09:45:44Z</time>
      </trkpt>
      <trkpt lat="46.07423" lon="6.78178">
        <ele>1981.7</ele>
        <time>2026-06-26T09:45:45Z</time>
      </trkpt>
      <trkpt lat="46.07423" lon="6.78178">
        <ele>1981.7</ele>
        <time>2026-06-26T09:45:46Z</time>
      </trkpt>
      <trkpt lat="46.07423" lon="6.78178">
        <ele>1981.7</ele>
        <time>2026-06-26T09:45:47Z</time>
      </trkpt>
      <trkpt lat="46.07423" lon="6.78178">
        <ele>1981.7</ele>
        <time>2026-06-26T09:45:48Z</time>
      </trkpt>
      <trkpt lat="46.07423" lon="6.78178">
        <ele>1981.7</ele>
        <time>2026-06-26T09:45:49Z</time>
      </trkpt>
      <trkpt lat="46.07423" lon="6.78178">
        <ele>1981.7</ele>
        <time>2026-06-26T09:45:50Z</time>
      </trkpt>
      <trkpt lat="46.07423" lon="6.78178">
        <ele>1981.7</ele>
        <time>2026-06-26T09:45:51Z</time>
      </trkpt>
      <trkpt lat="46.07423" lon="6.78178">
        <ele>1981.9</ele>
        <time>2026-06-26T09:45:52Z</time>
      </trkpt>
      <trkpt lat="46.07423" lon="6.78178">
        <ele>1981.9</ele>
        <time>2026-06-26T09:45:53Z</time>
      </trkpt>
      <trkpt lat="46.07423" lon="6.78178">
        <ele>1982</ele>
        <time>2026-06-26T09:45:54Z</time>
      </trkpt>
      <trkpt lat="46.07423" lon="6.78178">
        <ele>1982</ele>
        <time>2026-06-26T09:45:55Z</time>
      </trkpt>
      <trkpt lat="46.07423" lon="6.78178">
        <ele>1981.9</ele>
        <time>2026-06-26T09:45:56Z</time>
      </trkpt>
      <trkpt lat="46.07423" lon="6.78178">
        <ele>1981.9</ele>
        <time>2026-06-26T09:45:57Z</time>
      </trkpt>
      <trkpt lat="46.07423" lon="6.78178">
        <ele>1981.9</ele>
        <time>2026-06-26T09:45:58Z</time>
      </trkpt>
      <trkpt lat="46.07423" lon="6.78178">
        <ele>1981.9</ele>
        <time>2026-06-26T09:45:59Z</time>
      </trkpt>
      <trkpt lat="46.07423" lon="6.78178">
        <ele>1981.7</ele>
        <time>2026-06-26T09:46:00Z</time>
      </trkpt>
      <trkpt lat="46.07423" lon="6.78178">
        <ele>1981.7</ele>
        <time>2026-06-26T09:46:01Z</time>
      </trkpt>
      <trkpt lat="46.07423" lon="6.78178">
        <ele>1981.7</ele>
        <time>2026-06-26T09:46:02Z</time>
      </trkpt>
      <trkpt lat="46.07423" lon="6.78178">
        <ele>1981.6</ele>
        <time>2026-06-26T09:46:03Z</time>
      </trkpt>
      <trkpt lat="46.07423" lon="6.78178">
        <ele>1981.6</ele>
        <time>2026-06-26T09:46:04Z</time>
      </trkpt>
      <trkpt lat="46.07423" lon="6.78178">
        <ele>1981.7</ele>
        <time>2026-06-26T09:46:05Z</time>
      </trkpt>
      <trkpt lat="46.07423" lon="6.78178">
        <ele>1981.7</ele>
        <time>2026-06-26T09:46:06Z</time>
      </trkpt>
      <trkpt lat="46.07423" lon="6.78178">
        <ele>1981.7</ele>
        <time>2026-06-26T09:46:07Z</time>
      </trkpt>
      <trkpt lat="46.07423" lon="6.78178">
        <ele>1981.7</ele>
        <time>2026-06-26T09:46:08Z</time>
      </trkpt>
      <trkpt lat="46.07424" lon="6.78178">
        <ele>1981.6</ele>
        <time>2026-06-26T09:46:09Z</time>
      </trkpt>
      <trkpt lat="46.07424" lon="6.78178">
        <ele>1981.6</ele>
        <time>2026-06-26T09:46:10Z</time>
      </trkpt>
      <trkpt lat="46.07424" lon="6.78178">
        <ele>1981.6</ele>
        <time>2026-06-26T09:46:11Z</time>
      </trkpt>
      <trkpt lat="46.07424" lon="6.78178">
        <ele>1981.5</ele>
        <time>2026-06-26T09:46:12Z</time>
      </trkpt>
      <trkpt lat="46.07424" lon="6.78178">
        <ele>1981.6</ele>
        <time>2026-06-26T09:46:13Z</time>
      </trkpt>
      <trkpt lat="46.07424" lon="6.78178">
        <ele>1981.6</ele>
        <time>2026-06-26T09:46:14Z</time>
      </trkpt>
      <trkpt lat="46.07423" lon="6.78178">
        <ele>1981.5</ele>
        <time>2026-06-26T09:46:15Z</time>
      </trkpt>
      <trkpt lat="46.07423" lon="6.78178">
        <ele>1981.5</ele>
        <time>2026-06-26T09:46:16Z</time>
      </trkpt>
      <trkpt lat="46.07423" lon="6.78178">
        <ele>1981.6</ele>
        <time>2026-06-26T09:46:17Z</time>
      </trkpt>
      <trkpt lat="46.07423" lon="6.78178">
        <ele>1981.6</ele>
        <time>2026-06-26T09:46:18Z</time>
      </trkpt>
      <trkpt lat="46.07423" lon="6.78178">
        <ele>1981.7</ele>
        <time>2026-06-26T09:46:19Z</time>
      </trkpt>
      <trkpt lat="46.07423" lon="6.78178">
        <ele>1981.7</ele>
        <time>2026-06-26T09:46:20Z</time>
      </trkpt>
      <trkpt lat="46.07423" lon="6.78178">
        <ele>1981.7</ele>
        <time>2026-06-26T09:46:21Z</time>
      </trkpt>
      <trkpt lat="46.07423" lon="6.78178">
        <ele>1981.7</ele>
        <time>2026-06-26T09:46:22Z</time>
      </trkpt>
      <trkpt lat="46.07423" lon="6.78178">
        <ele>1981.6</ele>
        <time>2026-06-26T09:46:23Z</time>
      </trkpt>
      <trkpt lat="46.07423" lon="6.78178">
        <ele>1981.7</ele>
        <time>2026-06-26T09:46:24Z</time>
      </trkpt>
      <trkpt lat="46.07423" lon="6.78178">
        <ele>1981.7</ele>
        <time>2026-06-26T09:46:25Z</time>
      </trkpt>
      <trkpt lat="46.07423" lon="6.78178">
        <ele>1981.7</ele>
        <time>2026-06-26T09:46:26Z</time>
      </trkpt>
      <trkpt lat="46.07423" lon="6.78178">
        <ele>1981.7</ele>
        <time>2026-06-26T09:46:27Z</time>
      </trkpt>
      <trkpt lat="46.07423" lon="6.78178">
        <ele>1981.8</ele>
        <time>2026-06-26T09:46:28Z</time>
      </trkpt>
      <trkpt lat="46.07423" lon="6.78179">
        <ele>1981.7</ele>
        <time>2026-06-26T09:46:29Z</time>
      </trkpt>
      <trkpt lat="46.07423" lon="6.78179">
        <ele>1981.6</ele>
        <time>2026-06-26T09:46:30Z</time>
      </trkpt>
      <trkpt lat="46.07423" lon="6.78179">
        <ele>1981.5</ele>
        <time>2026-06-26T09:46:31Z</time>
      </trkpt>
      <trkpt lat="46.07423" lon="6.78179">
        <ele>1981.5</ele>
        <time>2026-06-26T09:46:32Z</time>
      </trkpt>
      <trkpt lat="46.07423" lon="6.78179">
        <ele>1981.5</ele>
        <time>2026-06-26T09:46:33Z</time>
      </trkpt>
      <trkpt lat="46.07423" lon="6.78179">
        <ele>1981.5</ele>
        <time>2026-06-26T09:46:34Z</time>
      </trkpt>
      <trkpt lat="46.07423" lon="6.78179">
        <ele>1981.4</ele>
        <time>2026-06-26T09:46:35Z</time>
      </trkpt>
      <trkpt lat="46.07423" lon="6.78179">
        <ele>1981.5</ele>
        <time>2026-06-26T09:46:36Z</time>
      </trkpt>
      <trkpt lat="46.07423" lon="6.78179">
        <ele>1981.5</ele>
        <time>2026-06-26T09:46:37Z</time>
      </trkpt>
      <trkpt lat="46.07423" lon="6.78179">
        <ele>1981.5</ele>
        <time>2026-06-26T09:46:38Z</time>
      </trkpt>
      <trkpt lat="46.07423" lon="6.78179">
        <ele>1981.5</ele>
        <time>2026-06-26T09:46:39Z</time>
      </trkpt>
      <trkpt lat="46.07423" lon="6.78179">
        <ele>1981.5</ele>
        <time>2026-06-26T09:46:40Z</time>
      </trkpt>
      <trkpt lat="46.07423" lon="6.78179">
        <ele>1981.6</ele>
        <time>2026-06-26T09:46:41Z</time>
      </trkpt>
      <trkpt lat="46.07423" lon="6.78179">
        <ele>1981.5</ele>
        <time>2026-06-26T09:46:42Z</time>
      </trkpt>
      <trkpt lat="46.07423" lon="6.78179">
        <ele>1981.5</ele>
        <time>2026-06-26T09:46:43Z</time>
      </trkpt>
      <trkpt lat="46.07423" lon="6.78179">
        <ele>1981.6</ele>
        <time>2026-06-26T09:46:44Z</time>
      </trkpt>
      <trkpt lat="46.07423" lon="6.78179">
        <ele>1981.6</ele>
        <time>2026-06-26T09:46:45Z</time>
      </trkpt>
      <trkpt lat="46.07423" lon="6.78179">
        <ele>1981.7</ele>
        <time>2026-06-26T09:46:46Z</time>
      </trkpt>
      <trkpt lat="46.07423" lon="6.78179">
        <ele>1981.7</ele>
        <time>2026-06-26T09:46:47Z</time>
      </trkpt>
      <trkpt lat="46.07423" lon="6.78179">
        <ele>1981.7</ele>
        <time>2026-06-26T09:46:48Z</time>
      </trkpt>
      <trkpt lat="46.07423" lon="6.78179">
        <ele>1981.6</ele>
        <time>2026-06-26T09:46:49Z</time>
      </trkpt>
      <trkpt lat="46.07423" lon="6.78179">
        <ele>1981.6</ele>
        <time>2026-06-26T09:46:50Z</time>
      </trkpt>
      <trkpt lat="46.07423" lon="6.78178">
        <ele>1981.6</ele>
        <time>2026-06-26T09:46:51Z</time>
      </trkpt>
      <trkpt lat="46.07424" lon="6.78178">
        <ele>1981.6</ele>
        <time>2026-06-26T09:46:52Z</time>
      </trkpt>
      <trkpt lat="46.07424" lon="6.78178">
        <ele>1981.6</ele>
        <time>2026-06-26T09:46:53Z</time>
      </trkpt>
      <trkpt lat="46.07424" lon="6.78178">
        <ele>1981.7</ele>
        <time>2026-06-26T09:46:54Z</time>
      </trkpt>
      <trkpt lat="46.07424" lon="6.78178">
        <ele>1981.7</ele>
        <time>2026-06-26T09:46:55Z</time>
      </trkpt>
      <trkpt lat="46.07424" lon="6.78178">
        <ele>1981.7</ele>
        <time>2026-06-26T09:46:56Z</time>
      </trkpt>
      <trkpt lat="46.07424" lon="6.78178">
        <ele>1981.6</ele>
        <time>2026-06-26T09:46:57Z</time>
      </trkpt>
      <trkpt lat="46.07424" lon="6.78178">
        <ele>1981.6</ele>
        <time>2026-06-26T09:46:58Z</time>
      </trkpt>
      <trkpt lat="46.07424" lon="6.78178">
        <ele>1981.6</ele>
        <time>2026-06-26T09:46:59Z</time>
      </trkpt>
      <trkpt lat="46.07424" lon="6.78178">
        <ele>1981.6</ele>
        <time>2026-06-26T09:47:00Z</time>
      </trkpt>
      <trkpt lat="46.07424" lon="6.78178">
        <ele>1981.7</ele>
        <time>2026-06-26T09:47:01Z</time>
      </trkpt>
      <trkpt lat="46.07424" lon="6.78178">
        <ele>1981.7</ele>
        <time>2026-06-26T09:47:02Z</time>
      </trkpt>
      <trkpt lat="46.07424" lon="6.78178">
        <ele>1981.8</ele>
        <time>2026-06-26T09:47:03Z</time>
      </trkpt>
      <trkpt lat="46.07424" lon="6.78178">
        <ele>1981.8</ele>
        <time>2026-06-26T09:47:04Z</time>
      </trkpt>
      <trkpt lat="46.07424" lon="6.78178">
        <ele>1981.8</ele>
        <time>2026-06-26T09:47:05Z</time>
      </trkpt>
      <trkpt lat="46.07424" lon="6.78178">
        <ele>1981.8</ele>
        <time>2026-06-26T09:47:06Z</time>
      </trkpt>
      <trkpt lat="46.07424" lon="6.78178">
        <ele>1981.8</ele>
        <time>2026-06-26T09:47:07Z</time>
      </trkpt>
      <trkpt lat="46.07424" lon="6.78178">
        <ele>1981.8</ele>
        <time>2026-06-26T09:47:08Z</time>
      </trkpt>
      <trkpt lat="46.07424" lon="6.78178">
        <ele>1981.8</ele>
        <time>2026-06-26T09:47:09Z</time>
      </trkpt>
      <trkpt lat="46.07423" lon="6.78178">
        <ele>1981.8</ele>
        <time>2026-06-26T09:47:10Z</time>
      </trkpt>
      <trkpt lat="46.07423" lon="6.78178">
        <ele>1981.7</ele>
        <time>2026-06-26T09:47:11Z</time>
      </trkpt>
      <trkpt lat="46.07424" lon="6.78178">
        <ele>1981.7</ele>
        <time>2026-06-26T09:47:12Z</time>
      </trkpt>
      <trkpt lat="46.07424" lon="6.78178">
        <ele>1981.7</ele>
        <time>2026-06-26T09:47:13Z</time>
      </trkpt>
      <trkpt lat="46.07423" lon="6.78178">
        <ele>1981.7</ele>
        <time>2026-06-26T09:47:14Z</time>
      </trkpt>
      <trkpt lat="46.07423" lon="6.78178">
        <ele>1981.7</ele>
        <time>2026-06-26T09:47:15Z</time>
      </trkpt>
      <trkpt lat="46.07423" lon="6.78178">
        <ele>1981.7</ele>
        <time>2026-06-26T09:47:16Z</time>
      </trkpt>
      <trkpt lat="46.07423" lon="6.78178">
        <ele>1981.7</ele>
        <time>2026-06-26T09:47:17Z</time>
      </trkpt>
      <trkpt lat="46.07423" lon="6.78178">
        <ele>1981.7</ele>
        <time>2026-06-26T09:47:18Z</time>
      </trkpt>
      <trkpt lat="46.07423" lon="6.78178">
        <ele>1981.6</ele>
        <time>2026-06-26T09:47:19Z</time>
      </trkpt>
      <trkpt lat="46.07423" lon="6.78178">
        <ele>1981.5</ele>
        <time>2026-06-26T09:47:20Z</time>
      </trkpt>
      <trkpt lat="46.07423" lon="6.78178">
        <ele>1981.5</ele>
        <time>2026-06-26T09:47:21Z</time>
      </trkpt>
      <trkpt lat="46.07423" lon="6.78178">
        <ele>1981.5</ele>
        <time>2026-06-26T09:47:22Z</time>
      </trkpt>
      <trkpt lat="46.07423" lon="6.78178">
        <ele>1981.5</ele>
        <time>2026-06-26T09:47:23Z</time>
      </trkpt>
      <trkpt lat="46.07423" lon="6.78178">
        <ele>1981.5</ele>
        <time>2026-06-26T09:47:24Z</time>
      </trkpt>
      <trkpt lat="46.07423" lon="6.78178">
        <ele>1981.5</ele>
        <time>2026-06-26T09:47:25Z</time>
      </trkpt>
      <trkpt lat="46.07423" lon="6.78178">
        <ele>1981.6</ele>
        <time>2026-06-26T09:47:26Z</time>
      </trkpt>
      <trkpt lat="46.07423" lon="6.78178">
        <ele>1981.6</ele>
        <time>2026-06-26T09:47:27Z</time>
      </trkpt>
      <trkpt lat="46.07423" lon="6.78178">
        <ele>1981.6</ele>
        <time>2026-06-26T09:47:28Z</time>
      </trkpt>
      <trkpt lat="46.07423" lon="6.78178">
        <ele>1981.6</ele>
        <time>2026-06-26T09:47:29Z</time>
      </trkpt>
      <trkpt lat="46.07423" lon="6.78178">
        <ele>1981.6</ele>
        <time>2026-06-26T09:47:30Z</time>
      </trkpt>
      <trkpt lat="46.07423" lon="6.78178">
        <ele>1981.5</ele>
        <time>2026-06-26T09:47:31Z</time>
      </trkpt>
      <trkpt lat="46.07423" lon="6.78177">
        <ele>1981.5</ele>
        <time>2026-06-26T09:47:32Z</time>
      </trkpt>
      <trkpt lat="46.07423" lon="6.78177">
        <ele>1981.4</ele>
        <time>2026-06-26T09:47:33Z</time>
      </trkpt>
      <trkpt lat="46.07424" lon="6.78177">
        <ele>1981.3</ele>
        <time>2026-06-26T09:47:34Z</time>
      </trkpt>
      <trkpt lat="46.07424" lon="6.78177">
        <ele>1981.3</ele>
        <time>2026-06-26T09:47:35Z</time>
      </trkpt>
      <trkpt lat="46.07424" lon="6.78177">
        <ele>1981.4</ele>
        <time>2026-06-26T09:47:36Z</time>
      </trkpt>
      <trkpt lat="46.07424" lon="6.78177">
        <ele>1981.4</ele>
        <time>2026-06-26T09:47:37Z</time>
      </trkpt>
      <trkpt lat="46.07424" lon="6.78178">
        <ele>1981.4</ele>
        <time>2026-06-26T09:47:38Z</time>
      </trkpt>
      <trkpt lat="46.07424" lon="6.78177">
        <ele>1981.4</ele>
        <time>2026-06-26T09:47:39Z</time>
      </trkpt>
      <trkpt lat="46.07424" lon="6.78177">
        <ele>1981.4</ele>
        <time>2026-06-26T09:47:40Z</time>
      </trkpt>
      <trkpt lat="46.07424" lon="6.78178">
        <ele>1981.4</ele>
        <time>2026-06-26T09:47:41Z</time>
      </trkpt>
      <trkpt lat="46.07424" lon="6.78178">
        <ele>1981.3</ele>
        <time>2026-06-26T09:47:42Z</time>
      </trkpt>
      <trkpt lat="46.07424" lon="6.78178">
        <ele>1981.3</ele>
        <time>2026-06-26T09:47:43Z</time>
      </trkpt>
      <trkpt lat="46.07424" lon="6.78178">
        <ele>1981.3</ele>
        <time>2026-06-26T09:47:44Z</time>
      </trkpt>
      <trkpt lat="46.07424" lon="6.78178">
        <ele>1981.3</ele>
        <time>2026-06-26T09:47:45Z</time>
      </trkpt>
      <trkpt lat="46.07424" lon="6.78178">
        <ele>1981.3</ele>
        <time>2026-06-26T09:47:46Z</time>
      </trkpt>
      <trkpt lat="46.07424" lon="6.78178">
        <ele>1981.3</ele>
        <time>2026-06-26T09:47:47Z</time>
      </trkpt>
      <trkpt lat="46.07424" lon="6.78178">
        <ele>1981.3</ele>
        <time>2026-06-26T09:47:48Z</time>
      </trkpt>
      <trkpt lat="46.07424" lon="6.78178">
        <ele>1981.3</ele>
        <time>2026-06-26T09:47:49Z</time>
      </trkpt>
      <trkpt lat="46.07424" lon="6.78178">
        <ele>1981.3</ele>
        <time>2026-06-26T09:47:50Z</time>
      </trkpt>
      <trkpt lat="46.07424" lon="6.78178">
        <ele>1981.3</ele>
        <time>2026-06-26T09:47:51Z</time>
      </trkpt>
      <trkpt lat="46.07424" lon="6.78178">
        <ele>1981.2</ele>
        <time>2026-06-26T09:47:52Z</time>
      </trkpt>
      <trkpt lat="46.07424" lon="6.78178">
        <ele>1981.2</ele>
        <time>2026-06-26T09:47:53Z</time>
      </trkpt>
      <trkpt lat="46.07424" lon="6.78178">
        <ele>1981.2</ele>
        <time>2026-06-26T09:47:54Z</time>
      </trkpt>
      <trkpt lat="46.07424" lon="6.78178">
        <ele>1981.2</ele>
        <time>2026-06-26T09:47:55Z</time>
      </trkpt>
      <trkpt lat="46.07424" lon="6.78178">
        <ele>1981.2</ele>
        <time>2026-06-26T09:47:56Z</time>
      </trkpt>
      <trkpt lat="46.07424" lon="6.78178">
        <ele>1981.2</ele>
        <time>2026-06-26T09:47:57Z</time>
      </trkpt>
      <trkpt lat="46.07424" lon="6.78178">
        <ele>1981.2</ele>
        <time>2026-06-26T09:47:58Z</time>
      </trkpt>
      <trkpt lat="46.07424" lon="6.78178">
        <ele>1981.3</ele>
        <time>2026-06-26T09:47:59Z</time>
      </trkpt>
      <trkpt lat="46.07424" lon="6.78178">
        <ele>1981.3</ele>
        <time>2026-06-26T09:48:00Z</time>
      </trkpt>
      <trkpt lat="46.07424" lon="6.78178">
        <ele>1981.4</ele>
        <time>2026-06-26T09:48:01Z</time>
      </trkpt>
      <trkpt lat="46.07424" lon="6.78178">
        <ele>1981.4</ele>
        <time>2026-06-26T09:48:02Z</time>
      </trkpt>
      <trkpt lat="46.07424" lon="6.78178">
        <ele>1981.5</ele>
        <time>2026-06-26T09:48:03Z</time>
      </trkpt>
      <trkpt lat="46.07424" lon="6.78178">
        <ele>1981.5</ele>
        <time>2026-06-26T09:48:04Z</time>
      </trkpt>
      <trkpt lat="46.07424" lon="6.78178">
        <ele>1981.5</ele>
        <time>2026-06-26T09:48:05Z</time>
      </trkpt>
      <trkpt lat="46.07424" lon="6.78178">
        <ele>1981.5</ele>
        <time>2026-06-26T09:48:06Z</time>
      </trkpt>
      <trkpt lat="46.07424" lon="6.78178">
        <ele>1981.6</ele>
        <time>2026-06-26T09:48:07Z</time>
      </trkpt>
      <trkpt lat="46.07424" lon="6.78178">
        <ele>1981.6</ele>
        <time>2026-06-26T09:48:08Z</time>
      </trkpt>
      <trkpt lat="46.07424" lon="6.78178">
        <ele>1981.7</ele>
        <time>2026-06-26T09:48:09Z</time>
      </trkpt>
      <trkpt lat="46.07424" lon="6.78178">
        <ele>1981.6</ele>
        <time>2026-06-26T09:48:10Z</time>
      </trkpt>
      <trkpt lat="46.07424" lon="6.78178">
        <ele>1981.6</ele>
        <time>2026-06-26T09:48:11Z</time>
      </trkpt>
      <trkpt lat="46.07424" lon="6.78178">
        <ele>1981.5</ele>
        <time>2026-06-26T09:48:12Z</time>
      </trkpt>
      <trkpt lat="46.07424" lon="6.78178">
        <ele>1981.5</ele>
        <time>2026-06-26T09:48:13Z</time>
      </trkpt>
      <trkpt lat="46.07424" lon="6.78178">
        <ele>1981.4</ele>
        <time>2026-06-26T09:48:14Z</time>
      </trkpt>
      <trkpt lat="46.07424" lon="6.78177">
        <ele>1981.4</ele>
        <time>2026-06-26T09:48:15Z</time>
      </trkpt>
      <trkpt lat="46.07424" lon="6.78177">
        <ele>1981.4</ele>
        <time>2026-06-26T09:48:16Z</time>
      </trkpt>
      <trkpt lat="46.07424" lon="6.78177">
        <ele>1981.4</ele>
        <time>2026-06-26T09:48:17Z</time>
      </trkpt>
      <trkpt lat="46.07424" lon="6.78177">
        <ele>1981.4</ele>
        <time>2026-06-26T09:48:18Z</time>
      </trkpt>
      <trkpt lat="46.07424" lon="6.78177">
        <ele>1981.4</ele>
        <time>2026-06-26T09:48:19Z</time>
      </trkpt>
      <trkpt lat="46.07424" lon="6.78177">
        <ele>1981.4</ele>
        <time>2026-06-26T09:48:20Z</time>
      </trkpt>
      <trkpt lat="46.07424" lon="6.78177">
        <ele>1981.4</ele>
        <time>2026-06-26T09:48:21Z</time>
      </trkpt>
      <trkpt lat="46.07424" lon="6.78177">
        <ele>1981.5</ele>
        <time>2026-06-26T09:48:22Z</time>
      </trkpt>
      <trkpt lat="46.07424" lon="6.78177">
        <ele>1981.5</ele>
        <time>2026-06-26T09:48:23Z</time>
      </trkpt>
      <trkpt lat="46.07424" lon="6.78177">
        <ele>1981.6</ele>
        <time>2026-06-26T09:48:24Z</time>
      </trkpt>
      <trkpt lat="46.07424" lon="6.78177">
        <ele>1981.7</ele>
        <time>2026-06-26T09:48:25Z</time>
      </trkpt>
      <trkpt lat="46.07424" lon="6.78177">
        <ele>1981.7</ele>
        <time>2026-06-26T09:48:26Z</time>
      </trkpt>
      <trkpt lat="46.07424" lon="6.78178">
        <ele>1981.7</ele>
        <time>2026-06-26T09:48:27Z</time>
      </trkpt>
      <trkpt lat="46.07424" lon="6.78178">
        <ele>1981.7</ele>
        <time>2026-06-26T09:48:28Z</time>
      </trkpt>
      <trkpt lat="46.07424" lon="6.78178">
        <ele>1981.7</ele>
        <time>2026-06-26T09:48:29Z</time>
      </trkpt>
      <trkpt lat="46.07424" lon="6.78178">
        <ele>1981.7</ele>
        <time>2026-06-26T09:48:30Z</time>
      </trkpt>
      <trkpt lat="46.07424" lon="6.78178">
        <ele>1981.6</ele>
        <time>2026-06-26T09:48:31Z</time>
      </trkpt>
      <trkpt lat="46.07424" lon="6.78178">
        <ele>1981.6</ele>
        <time>2026-06-26T09:48:32Z</time>
      </trkpt>
      <trkpt lat="46.07424" lon="6.78178">
        <ele>1981.6</ele>
        <time>2026-06-26T09:48:33Z</time>
      </trkpt>
      <trkpt lat="46.07424" lon="6.78178">
        <ele>1981.6</ele>
        <time>2026-06-26T09:48:34Z</time>
      </trkpt>
      <trkpt lat="46.07424" lon="6.78178">
        <ele>1981.7</ele>
        <time>2026-06-26T09:48:35Z</time>
      </trkpt>
      <trkpt lat="46.07424" lon="6.78178">
        <ele>1981.7</ele>
        <time>2026-06-26T09:48:36Z</time>
      </trkpt>
      <trkpt lat="46.07424" lon="6.78178">
        <ele>1981.7</ele>
        <time>2026-06-26T09:48:37Z</time>
      </trkpt>
      <trkpt lat="46.07424" lon="6.78178">
        <ele>1981.6</ele>
        <time>2026-06-26T09:48:38Z</time>
      </trkpt>
      <trkpt lat="46.07424" lon="6.78178">
        <ele>1981.5</ele>
        <time>2026-06-26T09:48:39Z</time>
      </trkpt>
      <trkpt lat="46.07424" lon="6.78178">
        <ele>1981.5</ele>
        <time>2026-06-26T09:48:40Z</time>
      </trkpt>
      <trkpt lat="46.07424" lon="6.78178">
        <ele>1981.5</ele>
        <time>2026-06-26T09:48:41Z</time>
      </trkpt>
      <trkpt lat="46.07424" lon="6.78178">
        <ele>1981.4</ele>
        <time>2026-06-26T09:48:42Z</time>
      </trkpt>
      <trkpt lat="46.07423" lon="6.78178">
        <ele>1981.5</ele>
        <time>2026-06-26T09:48:43Z</time>
      </trkpt>
      <trkpt lat="46.07423" lon="6.78178">
        <ele>1981.6</ele>
        <time>2026-06-26T09:48:44Z</time>
      </trkpt>
      <trkpt lat="46.07423" lon="6.78178">
        <ele>1981.7</ele>
        <time>2026-06-26T09:48:45Z</time>
      </trkpt>
      <trkpt lat="46.07423" lon="6.78178">
        <ele>1981.8</ele>
        <time>2026-06-26T09:48:46Z</time>
      </trkpt>
      <trkpt lat="46.07423" lon="6.78178">
        <ele>1981.7</ele>
        <time>2026-06-26T09:48:47Z</time>
      </trkpt>
      <trkpt lat="46.07423" lon="6.78178">
        <ele>1981.6</ele>
        <time>2026-06-26T09:48:48Z</time>
      </trkpt>
      <trkpt lat="46.07423" lon="6.78178">
        <ele>1981.6</ele>
        <time>2026-06-26T09:48:49Z</time>
      </trkpt>
      <trkpt lat="46.07423" lon="6.78178">
        <ele>1981.6</ele>
        <time>2026-06-26T09:48:50Z</time>
      </trkpt>
      <trkpt lat="46.07423" lon="6.78178">
        <ele>1981.5</ele>
        <time>2026-06-26T09:48:51Z</time>
      </trkpt>
      <trkpt lat="46.07423" lon="6.78178">
        <ele>1981.5</ele>
        <time>2026-06-26T09:48:52Z</time>
      </trkpt>
      <trkpt lat="46.07423" lon="6.78178">
        <ele>1981.5</ele>
        <time>2026-06-26T09:48:53Z</time>
      </trkpt>
      <trkpt lat="46.07423" lon="6.78178">
        <ele>1981.4</ele>
        <time>2026-06-26T09:48:54Z</time>
      </trkpt>
      <trkpt lat="46.07423" lon="6.78178">
        <ele>1981.4</ele>
        <time>2026-06-26T09:48:55Z</time>
      </trkpt>
      <trkpt lat="46.07423" lon="6.78178">
        <ele>1981.4</ele>
        <time>2026-06-26T09:48:56Z</time>
      </trkpt>
      <trkpt lat="46.07423" lon="6.78178">
        <ele>1981.4</ele>
        <time>2026-06-26T09:48:57Z</time>
      </trkpt>
      <trkpt lat="46.07423" lon="6.78178">
        <ele>1981.4</ele>
        <time>2026-06-26T09:48:58Z</time>
      </trkpt>
      <trkpt lat="46.07423" lon="6.78178">
        <ele>1981.4</ele>
        <time>2026-06-26T09:48:59Z</time>
      </trkpt>
      <trkpt lat="46.07423" lon="6.78178">
        <ele>1981.5</ele>
        <time>2026-06-26T09:49:00Z</time>
      </trkpt>
      <trkpt lat="46.07423" lon="6.78179">
        <ele>1981.5</ele>
        <time>2026-06-26T09:49:01Z</time>
      </trkpt>
      <trkpt lat="46.07423" lon="6.78179">
        <ele>1981.5</ele>
        <time>2026-06-26T09:49:02Z</time>
      </trkpt>
      <trkpt lat="46.07423" lon="6.78179">
        <ele>1981.4</ele>
        <time>2026-06-26T09:49:03Z</time>
      </trkpt>
      <trkpt lat="46.07423" lon="6.78179">
        <ele>1981.4</ele>
        <time>2026-06-26T09:49:04Z</time>
      </trkpt>
      <trkpt lat="46.07423" lon="6.78178">
        <ele>1981.4</ele>
        <time>2026-06-26T09:49:05Z</time>
      </trkpt>
      <trkpt lat="46.07423" lon="6.78178">
        <ele>1981.5</ele>
        <time>2026-06-26T09:49:06Z</time>
      </trkpt>
      <trkpt lat="46.07423" lon="6.78178">
        <ele>1981.5</ele>
        <time>2026-06-26T09:49:07Z</time>
      </trkpt>
      <trkpt lat="46.07423" lon="6.78178">
        <ele>1981.5</ele>
        <time>2026-06-26T09:49:08Z</time>
      </trkpt>
      <trkpt lat="46.07423" lon="6.78178">
        <ele>1981.5</ele>
        <time>2026-06-26T09:49:09Z</time>
      </trkpt>
      <trkpt lat="46.07422" lon="6.78178">
        <ele>1981.5</ele>
        <time>2026-06-26T09:49:10Z</time>
      </trkpt>
      <trkpt lat="46.07422" lon="6.78179">
        <ele>1981.5</ele>
        <time>2026-06-26T09:49:11Z</time>
      </trkpt>
      <trkpt lat="46.07422" lon="6.78179">
        <ele>1981.5</ele>
        <time>2026-06-26T09:49:12Z</time>
      </trkpt>
      <trkpt lat="46.07422" lon="6.78179">
        <ele>1981.5</ele>
        <time>2026-06-26T09:49:13Z</time>
      </trkpt>
      <trkpt lat="46.07422" lon="6.78178">
        <ele>1981.5</ele>
        <time>2026-06-26T09:49:14Z</time>
      </trkpt>
      <trkpt lat="46.07422" lon="6.78178">
        <ele>1981.5</ele>
        <time>2026-06-26T09:49:15Z</time>
      </trkpt>
      <trkpt lat="46.07422" lon="6.78178">
        <ele>1981.5</ele>
        <time>2026-06-26T09:49:16Z</time>
      </trkpt>
      <trkpt lat="46.07422" lon="6.78178">
        <ele>1981.5</ele>
        <time>2026-06-26T09:49:17Z</time>
      </trkpt>
      <trkpt lat="46.07421" lon="6.78178">
        <ele>1981.5</ele>
        <time>2026-06-26T09:49:18Z</time>
      </trkpt>
      <trkpt lat="46.07421" lon="6.78178">
        <ele>1981.5</ele>
        <time>2026-06-26T09:49:19Z</time>
      </trkpt>
      <trkpt lat="46.07421" lon="6.78179">
        <ele>1981.6</ele>
        <time>2026-06-26T09:49:20Z</time>
      </trkpt>
      <trkpt lat="46.07421" lon="6.78179">
        <ele>1981.6</ele>
        <time>2026-06-26T09:49:21Z</time>
      </trkpt>
      <trkpt lat="46.07421" lon="6.78179">
        <ele>1981.6</ele>
        <time>2026-06-26T09:49:22Z</time>
      </trkpt>
      <trkpt lat="46.07421" lon="6.78179">
        <ele>1981.6</ele>
        <time>2026-06-26T09:49:23Z</time>
      </trkpt>
      <trkpt lat="46.07421" lon="6.78179">
        <ele>1981.6</ele>
        <time>2026-06-26T09:49:24Z</time>
      </trkpt>
      <trkpt lat="46.07421" lon="6.78178">
        <ele>1981.6</ele>
        <time>2026-06-26T09:49:25Z</time>
      </trkpt>
      <trkpt lat="46.07421" lon="6.78178">
        <ele>1981.7</ele>
        <time>2026-06-26T09:49:26Z</time>
      </trkpt>
      <trkpt lat="46.07421" lon="6.78178">
        <ele>1981.7</ele>
        <time>2026-06-26T09:49:27Z</time>
      </trkpt>
      <trkpt lat="46.07421" lon="6.78178">
        <ele>1981.7</ele>
        <time>2026-06-26T09:49:28Z</time>
      </trkpt>
      <trkpt lat="46.07421" lon="6.78178">
        <ele>1981.7</ele>
        <time>2026-06-26T09:49:29Z</time>
      </trkpt>
      <trkpt lat="46.07421" lon="6.78178">
        <ele>1981.7</ele>
        <time>2026-06-26T09:49:30Z</time>
      </trkpt>
      <trkpt lat="46.07421" lon="6.78178">
        <ele>1981.7</ele>
        <time>2026-06-26T09:49:31Z</time>
      </trkpt>
      <trkpt lat="46.07421" lon="6.78178">
        <ele>1981.7</ele>
        <time>2026-06-26T09:49:32Z</time>
      </trkpt>
      <trkpt lat="46.07421" lon="6.78178">
        <ele>1981.8</ele>
        <time>2026-06-26T09:49:33Z</time>
      </trkpt>
      <trkpt lat="46.07421" lon="6.78178">
        <ele>1981.7</ele>
        <time>2026-06-26T09:49:34Z</time>
      </trkpt>
      <trkpt lat="46.07422" lon="6.78178">
        <ele>1981.7</ele>
        <time>2026-06-26T09:49:35Z</time>
      </trkpt>
      <trkpt lat="46.07422" lon="6.78178">
        <ele>1981.6</ele>
        <time>2026-06-26T09:49:36Z</time>
      </trkpt>
      <trkpt lat="46.07422" lon="6.78178">
        <ele>1981.6</ele>
        <time>2026-06-26T09:49:37Z</time>
      </trkpt>
      <trkpt lat="46.07422" lon="6.78178">
        <ele>1981.7</ele>
        <time>2026-06-26T09:49:38Z</time>
      </trkpt>
      <trkpt lat="46.07422" lon="6.78178">
        <ele>1981.7</ele>
        <time>2026-06-26T09:49:39Z</time>
      </trkpt>
      <trkpt lat="46.07422" lon="6.78178">
        <ele>1981.7</ele>
        <time>2026-06-26T09:49:40Z</time>
      </trkpt>
      <trkpt lat="46.07422" lon="6.78178">
        <ele>1981.7</ele>
        <time>2026-06-26T09:49:41Z</time>
      </trkpt>
      <trkpt lat="46.07422" lon="6.78178">
        <ele>1981.7</ele>
        <time>2026-06-26T09:49:42Z</time>
      </trkpt>
      <trkpt lat="46.07422" lon="6.78178">
        <ele>1981.7</ele>
        <time>2026-06-26T09:49:43Z</time>
      </trkpt>
      <trkpt lat="46.07422" lon="6.78178">
        <ele>1981.7</ele>
        <time>2026-06-26T09:49:44Z</time>
      </trkpt>
      <trkpt lat="46.07422" lon="6.78178">
        <ele>1981.7</ele>
        <time>2026-06-26T09:49:45Z</time>
      </trkpt>
      <trkpt lat="46.07422" lon="6.78178">
        <ele>1981.8</ele>
        <time>2026-06-26T09:49:46Z</time>
      </trkpt>
      <trkpt lat="46.07422" lon="6.78178">
        <ele>1981.7</ele>
        <time>2026-06-26T09:49:47Z</time>
      </trkpt>
      <trkpt lat="46.07422" lon="6.78178">
        <ele>1981.7</ele>
        <time>2026-06-26T09:49:48Z</time>
      </trkpt>
      <trkpt lat="46.07423" lon="6.78178">
        <ele>1981.7</ele>
        <time>2026-06-26T09:49:49Z</time>
      </trkpt>
      <trkpt lat="46.07423" lon="6.78178">
        <ele>1981.8</ele>
        <time>2026-06-26T09:49:50Z</time>
      </trkpt>
      <trkpt lat="46.07423" lon="6.78178">
        <ele>1981.8</ele>
        <time>2026-06-26T09:49:51Z</time>
      </trkpt>
      <trkpt lat="46.07423" lon="6.78178">
        <ele>1981.8</ele>
        <time>2026-06-26T09:49:52Z</time>
      </trkpt>
      <trkpt lat="46.07423" lon="6.78178">
        <ele>1981.8</ele>
        <time>2026-06-26T09:49:53Z</time>
      </trkpt>
      <trkpt lat="46.07423" lon="6.78178">
        <ele>1981.8</ele>
        <time>2026-06-26T09:49:54Z</time>
      </trkpt>
      <trkpt lat="46.07423" lon="6.78178">
        <ele>1981.8</ele>
        <time>2026-06-26T09:49:55Z</time>
      </trkpt>
      <trkpt lat="46.07423" lon="6.78178">
        <ele>1981.8</ele>
        <time>2026-06-26T09:49:56Z</time>
      </trkpt>
      <trkpt lat="46.07423" lon="6.78178">
        <ele>1981.9</ele>
        <time>2026-06-26T09:49:57Z</time>
      </trkpt>
      <trkpt lat="46.07423" lon="6.78178">
        <ele>1981.9</ele>
        <time>2026-06-26T09:49:58Z</time>
      </trkpt>
      <trkpt lat="46.07423" lon="6.78178">
        <ele>1981.9</ele>
        <time>2026-06-26T09:49:59Z</time>
      </trkpt>
      <trkpt lat="46.07423" lon="6.78178">
        <ele>1981.9</ele>
        <time>2026-06-26T09:50:00Z</time>
      </trkpt>
      <trkpt lat="46.07423" lon="6.78178">
        <ele>1981.9</ele>
        <time>2026-06-26T09:50:01Z</time>
      </trkpt>
      <trkpt lat="46.07423" lon="6.78178">
        <ele>1981.9</ele>
        <time>2026-06-26T09:50:02Z</time>
      </trkpt>
      <trkpt lat="46.07423" lon="6.78178">
        <ele>1981.9</ele>
        <time>2026-06-26T09:50:03Z</time>
      </trkpt>
      <trkpt lat="46.07423" lon="6.78178">
        <ele>1982</ele>
        <time>2026-06-26T09:50:04Z</time>
      </trkpt>
      <trkpt lat="46.07423" lon="6.78178">
        <ele>1982</ele>
        <time>2026-06-26T09:50:05Z</time>
      </trkpt>
      <trkpt lat="46.07423" lon="6.78178">
        <ele>1981.9</ele>
        <time>2026-06-26T09:50:06Z</time>
      </trkpt>
      <trkpt lat="46.07423" lon="6.78178">
        <ele>1981.9</ele>
        <time>2026-06-26T09:50:07Z</time>
      </trkpt>
      <trkpt lat="46.07423" lon="6.78178">
        <ele>1982</ele>
        <time>2026-06-26T09:50:08Z</time>
      </trkpt>
      <trkpt lat="46.07423" lon="6.78178">
        <ele>1982</ele>
        <time>2026-06-26T09:50:09Z</time>
      </trkpt>
      <trkpt lat="46.07423" lon="6.78178">
        <ele>1982</ele>
        <time>2026-06-26T09:50:10Z</time>
      </trkpt>
      <trkpt lat="46.07423" lon="6.78178">
        <ele>1982</ele>
        <time>2026-06-26T09:50:11Z</time>
      </trkpt>
      <trkpt lat="46.07423" lon="6.78178">
        <ele>1982</ele>
        <time>2026-06-26T09:50:12Z</time>
      </trkpt>
      <trkpt lat="46.07423" lon="6.78178">
        <ele>1982</ele>
        <time>2026-06-26T09:50:13Z</time>
      </trkpt>
      <trkpt lat="46.07423" lon="6.78178">
        <ele>1982</ele>
        <time>2026-06-26T09:50:14Z</time>
      </trkpt>
      <trkpt lat="46.07423" lon="6.78178">
        <ele>1982</ele>
        <time>2026-06-26T09:50:15Z</time>
      </trkpt>
      <trkpt lat="46.07423" lon="6.78178">
        <ele>1982</ele>
        <time>2026-06-26T09:50:16Z</time>
      </trkpt>
      <trkpt lat="46.07423" lon="6.78178">
        <ele>1982.1</ele>
        <time>2026-06-26T09:50:17Z</time>
      </trkpt>
      <trkpt lat="46.07423" lon="6.78178">
        <ele>1982.1</ele>
        <time>2026-06-26T09:50:18Z</time>
      </trkpt>
      <trkpt lat="46.07423" lon="6.78178">
        <ele>1982.1</ele>
        <time>2026-06-26T09:50:19Z</time>
      </trkpt>
      <trkpt lat="46.07423" lon="6.78178">
        <ele>1982.2</ele>
        <time>2026-06-26T09:50:20Z</time>
      </trkpt>
      <trkpt lat="46.07423" lon="6.78178">
        <ele>1982.3</ele>
        <time>2026-06-26T09:50:21Z</time>
      </trkpt>
      <trkpt lat="46.07423" lon="6.78178">
        <ele>1982.4</ele>
        <time>2026-06-26T09:50:22Z</time>
      </trkpt>
      <trkpt lat="46.07423" lon="6.78178">
        <ele>1982.5</ele>
        <time>2026-06-26T09:50:23Z</time>
      </trkpt>
      <trkpt lat="46.07423" lon="6.78178">
        <ele>1982.4</ele>
        <time>2026-06-26T09:50:24Z</time>
      </trkpt>
      <trkpt lat="46.07423" lon="6.78178">
        <ele>1982.5</ele>
        <time>2026-06-26T09:50:25Z</time>
      </trkpt>
      <trkpt lat="46.07423" lon="6.78178">
        <ele>1982.4</ele>
        <time>2026-06-26T09:50:26Z</time>
      </trkpt>
      <trkpt lat="46.07423" lon="6.78177">
        <ele>1982.3</ele>
        <time>2026-06-26T09:50:27Z</time>
      </trkpt>
      <trkpt lat="46.07423" lon="6.78178">
        <ele>1982.2</ele>
        <time>2026-06-26T09:50:28Z</time>
      </trkpt>
      <trkpt lat="46.07423" lon="6.78178">
        <ele>1982.2</ele>
        <time>2026-06-26T09:50:29Z</time>
      </trkpt>
      <trkpt lat="46.07423" lon="6.78178">
        <ele>1982.2</ele>
        <time>2026-06-26T09:50:30Z</time>
      </trkpt>
      <trkpt lat="46.07423" lon="6.78178">
        <ele>1982.2</ele>
        <time>2026-06-26T09:50:31Z</time>
      </trkpt>
      <trkpt lat="46.07423" lon="6.78178">
        <ele>1982.1</ele>
        <time>2026-06-26T09:50:32Z</time>
      </trkpt>
      <trkpt lat="46.07423" lon="6.78178">
        <ele>1982.1</ele>
        <time>2026-06-26T09:50:33Z</time>
      </trkpt>
      <trkpt lat="46.07423" lon="6.78178">
        <ele>1982.2</ele>
        <time>2026-06-26T09:50:34Z</time>
      </trkpt>
      <trkpt lat="46.07423" lon="6.78178">
        <ele>1982.2</ele>
        <time>2026-06-26T09:50:35Z</time>
      </trkpt>
      <trkpt lat="46.07423" lon="6.78178">
        <ele>1982.2</ele>
        <time>2026-06-26T09:50:36Z</time>
      </trkpt>
      <trkpt lat="46.07423" lon="6.78178">
        <ele>1982.2</ele>
        <time>2026-06-26T09:50:37Z</time>
      </trkpt>
      <trkpt lat="46.07423" lon="6.78178">
        <ele>1982.2</ele>
        <time>2026-06-26T09:50:38Z</time>
      </trkpt>
      <trkpt lat="46.07423" lon="6.78178">
        <ele>1982.2</ele>
        <time>2026-06-26T09:50:39Z</time>
      </trkpt>
      <trkpt lat="46.07423" lon="6.78178">
        <ele>1982.2</ele>
        <time>2026-06-26T09:50:40Z</time>
      </trkpt>
      <trkpt lat="46.07423" lon="6.78178">
        <ele>1982.2</ele>
        <time>2026-06-26T09:50:41Z</time>
      </trkpt>
      <trkpt lat="46.07423" lon="6.78178">
        <ele>1982.1</ele>
        <time>2026-06-26T09:50:42Z</time>
      </trkpt>
      <trkpt lat="46.07423" lon="6.78178">
        <ele>1982.1</ele>
        <time>2026-06-26T09:50:43Z</time>
      </trkpt>
      <trkpt lat="46.07423" lon="6.78178">
        <ele>1982.1</ele>
        <time>2026-06-26T09:50:44Z</time>
      </trkpt>
      <trkpt lat="46.07423" lon="6.78178">
        <ele>1982</ele>
        <time>2026-06-26T09:50:45Z</time>
      </trkpt>
      <trkpt lat="46.07423" lon="6.78178">
        <ele>1981.9</ele>
        <time>2026-06-26T09:50:46Z</time>
      </trkpt>
      <trkpt lat="46.07423" lon="6.78178">
        <ele>1981.8</ele>
        <time>2026-06-26T09:50:47Z</time>
      </trkpt>
      <trkpt lat="46.07423" lon="6.78178">
        <ele>1981.7</ele>
        <time>2026-06-26T09:50:48Z</time>
      </trkpt>
      <trkpt lat="46.07423" lon="6.78178">
        <ele>1981.7</ele>
        <time>2026-06-26T09:50:49Z</time>
      </trkpt>
      <trkpt lat="46.07423" lon="6.78178">
        <ele>1981.6</ele>
        <time>2026-06-26T09:50:50Z</time>
      </trkpt>
      <trkpt lat="46.07423" lon="6.78178">
        <ele>1981.6</ele>
        <time>2026-06-26T09:50:51Z</time>
      </trkpt>
      <trkpt lat="46.07423" lon="6.78178">
        <ele>1981.5</ele>
        <time>2026-06-26T09:50:52Z</time>
      </trkpt>
      <trkpt lat="46.07423" lon="6.78178">
        <ele>1981.5</ele>
        <time>2026-06-26T09:50:53Z</time>
      </trkpt>
      <trkpt lat="46.07423" lon="6.78178">
        <ele>1981.5</ele>
        <time>2026-06-26T09:50:54Z</time>
      </trkpt>
      <trkpt lat="46.07424" lon="6.78178">
        <ele>1981.5</ele>
        <time>2026-06-26T09:50:55Z</time>
      </trkpt>
      <trkpt lat="46.07424" lon="6.78177">
        <ele>1981.5</ele>
        <time>2026-06-26T09:50:56Z</time>
      </trkpt>
      <trkpt lat="46.07423" lon="6.78177">
        <ele>1981.4</ele>
        <time>2026-06-26T09:50:57Z</time>
      </trkpt>
      <trkpt lat="46.07424" lon="6.78177">
        <ele>1981.4</ele>
        <time>2026-06-26T09:50:58Z</time>
      </trkpt>
      <trkpt lat="46.07424" lon="6.78177">
        <ele>1981.4</ele>
        <time>2026-06-26T09:50:59Z</time>
      </trkpt>
      <trkpt lat="46.07424" lon="6.78177">
        <ele>1981.4</ele>
        <time>2026-06-26T09:51:00Z</time>
      </trkpt>
      <trkpt lat="46.07424" lon="6.78177">
        <ele>1981.4</ele>
        <time>2026-06-26T09:51:01Z</time>
      </trkpt>
      <trkpt lat="46.07424" lon="6.78177">
        <ele>1981.4</ele>
        <time>2026-06-26T09:51:02Z</time>
      </trkpt>
      <trkpt lat="46.07424" lon="6.78177">
        <ele>1981.4</ele>
        <time>2026-06-26T09:51:03Z</time>
      </trkpt>
      <trkpt lat="46.07424" lon="6.78177">
        <ele>1981.4</ele>
        <time>2026-06-26T09:51:04Z</time>
      </trkpt>
      <trkpt lat="46.07424" lon="6.78177">
        <ele>1981.4</ele>
        <time>2026-06-26T09:51:05Z</time>
      </trkpt>
      <trkpt lat="46.07424" lon="6.78177">
        <ele>1981.5</ele>
        <time>2026-06-26T09:51:06Z</time>
      </trkpt>
      <trkpt lat="46.07424" lon="6.78177">
        <ele>1981.5</ele>
        <time>2026-06-26T09:51:07Z</time>
      </trkpt>
      <trkpt lat="46.07424" lon="6.78177">
        <ele>1981.5</ele>
        <time>2026-06-26T09:51:08Z</time>
      </trkpt>
      <trkpt lat="46.07424" lon="6.78177">
        <ele>1981.5</ele>
        <time>2026-06-26T09:51:09Z</time>
      </trkpt>
      <trkpt lat="46.07424" lon="6.78177">
        <ele>1981.5</ele>
        <time>2026-06-26T09:51:10Z</time>
      </trkpt>
      <trkpt lat="46.07424" lon="6.78177">
        <ele>1981.5</ele>
        <time>2026-06-26T09:51:11Z</time>
      </trkpt>
      <trkpt lat="46.07424" lon="6.78177">
        <ele>1981.6</ele>
        <time>2026-06-26T09:51:12Z</time>
      </trkpt>
      <trkpt lat="46.07424" lon="6.78177">
        <ele>1981.6</ele>
        <time>2026-06-26T09:51:13Z</time>
      </trkpt>
      <trkpt lat="46.07424" lon="6.78177">
        <ele>1981.6</ele>
        <time>2026-06-26T09:51:14Z</time>
      </trkpt>
      <trkpt lat="46.07424" lon="6.78177">
        <ele>1981.7</ele>
        <time>2026-06-26T09:51:15Z</time>
      </trkpt>
      <trkpt lat="46.07424" lon="6.78177">
        <ele>1981.7</ele>
        <time>2026-06-26T09:51:16Z</time>
      </trkpt>
      <trkpt lat="46.07424" lon="6.78177">
        <ele>1981.7</ele>
        <time>2026-06-26T09:51:17Z</time>
      </trkpt>
      <trkpt lat="46.07424" lon="6.78177">
        <ele>1981.8</ele>
        <time>2026-06-26T09:51:18Z</time>
      </trkpt>
      <trkpt lat="46.07424" lon="6.78177">
        <ele>1981.7</ele>
        <time>2026-06-26T09:51:19Z</time>
      </trkpt>
      <trkpt lat="46.07424" lon="6.78177">
        <ele>1981.7</ele>
        <time>2026-06-26T09:51:20Z</time>
      </trkpt>
      <trkpt lat="46.07424" lon="6.78177">
        <ele>1981.7</ele>
        <time>2026-06-26T09:51:21Z</time>
      </trkpt>
      <trkpt lat="46.07424" lon="6.78177">
        <ele>1981.7</ele>
        <time>2026-06-26T09:51:22Z</time>
      </trkpt>
      <trkpt lat="46.07424" lon="6.78177">
        <ele>1981.7</ele>
        <time>2026-06-26T09:51:23Z</time>
      </trkpt>
      <trkpt lat="46.07424" lon="6.78177">
        <ele>1981.7</ele>
        <time>2026-06-26T09:51:24Z</time>
      </trkpt>
      <trkpt lat="46.07424" lon="6.78177">
        <ele>1981.8</ele>
        <time>2026-06-26T09:51:25Z</time>
      </trkpt>
      <trkpt lat="46.07424" lon="6.78177">
        <ele>1981.9</ele>
        <time>2026-06-26T09:51:26Z</time>
      </trkpt>
      <trkpt lat="46.07424" lon="6.78177">
        <ele>1981.8</ele>
        <time>2026-06-26T09:51:27Z</time>
      </trkpt>
      <trkpt lat="46.07424" lon="6.78177">
        <ele>1981.8</ele>
        <time>2026-06-26T09:51:28Z</time>
      </trkpt>
      <trkpt lat="46.07424" lon="6.78177">
        <ele>1981.8</ele>
        <time>2026-06-26T09:51:29Z</time>
      </trkpt>
      <trkpt lat="46.07424" lon="6.78177">
        <ele>1981.8</ele>
        <time>2026-06-26T09:51:30Z</time>
      </trkpt>
      <trkpt lat="46.07424" lon="6.78177">
        <ele>1981.8</ele>
        <time>2026-06-26T09:51:31Z</time>
      </trkpt>
      <trkpt lat="46.07424" lon="6.78177">
        <ele>1981.9</ele>
        <time>2026-06-26T09:51:32Z</time>
      </trkpt>
      <trkpt lat="46.07424" lon="6.78177">
        <ele>1981.8</ele>
        <time>2026-06-26T09:51:33Z</time>
      </trkpt>
      <trkpt lat="46.07424" lon="6.78177">
        <ele>1981.8</ele>
        <time>2026-06-26T09:51:34Z</time>
      </trkpt>
      <trkpt lat="46.07424" lon="6.78177">
        <ele>1981.8</ele>
        <time>2026-06-26T09:51:35Z</time>
      </trkpt>
      <trkpt lat="46.07424" lon="6.78177">
        <ele>1981.6</ele>
        <time>2026-06-26T09:51:36Z</time>
      </trkpt>
      <trkpt lat="46.07424" lon="6.78177">
        <ele>1981.5</ele>
        <time>2026-06-26T09:51:37Z</time>
      </trkpt>
      <trkpt lat="46.07424" lon="6.78177">
        <ele>1981.6</ele>
        <time>2026-06-26T09:51:38Z</time>
      </trkpt>
      <trkpt lat="46.07424" lon="6.78177">
        <ele>1981.6</ele>
        <time>2026-06-26T09:51:39Z</time>
      </trkpt>
      <trkpt lat="46.07424" lon="6.78177">
        <ele>1981.6</ele>
        <time>2026-06-26T09:51:40Z</time>
      </trkpt>
      <trkpt lat="46.07424" lon="6.78177">
        <ele>1981.6</ele>
        <time>2026-06-26T09:51:41Z</time>
      </trkpt>
      <trkpt lat="46.07424" lon="6.78177">
        <ele>1981.6</ele>
        <time>2026-06-26T09:51:42Z</time>
      </trkpt>
      <trkpt lat="46.07424" lon="6.78177">
        <ele>1981.6</ele>
        <time>2026-06-26T09:51:43Z</time>
      </trkpt>
      <trkpt lat="46.07424" lon="6.78177">
        <ele>1981.6</ele>
        <time>2026-06-26T09:51:44Z</time>
      </trkpt>
      <trkpt lat="46.07424" lon="6.78177">
        <ele>1981.6</ele>
        <time>2026-06-26T09:51:45Z</time>
      </trkpt>
      <trkpt lat="46.07424" lon="6.78177">
        <ele>1981.6</ele>
        <time>2026-06-26T09:51:46Z</time>
      </trkpt>
      <trkpt lat="46.07424" lon="6.78177">
        <ele>1981.6</ele>
        <time>2026-06-26T09:51:47Z</time>
      </trkpt>
      <trkpt lat="46.07424" lon="6.78177">
        <ele>1981.5</ele>
        <time>2026-06-26T09:51:48Z</time>
      </trkpt>
      <trkpt lat="46.07424" lon="6.78177">
        <ele>1981.5</ele>
        <time>2026-06-26T09:51:49Z</time>
      </trkpt>
      <trkpt lat="46.07424" lon="6.78177">
        <ele>1981.5</ele>
        <time>2026-06-26T09:51:50Z</time>
      </trkpt>
      <trkpt lat="46.07424" lon="6.78177">
        <ele>1981.5</ele>
        <time>2026-06-26T09:51:51Z</time>
      </trkpt>
      <trkpt lat="46.07424" lon="6.78177">
        <ele>1981.6</ele>
        <time>2026-06-26T09:51:52Z</time>
      </trkpt>
      <trkpt lat="46.07424" lon="6.78177">
        <ele>1981.7</ele>
        <time>2026-06-26T09:51:53Z</time>
      </trkpt>
      <trkpt lat="46.07424" lon="6.78177">
        <ele>1981.7</ele>
        <time>2026-06-26T09:51:54Z</time>
      </trkpt>
      <trkpt lat="46.07424" lon="6.78177">
        <ele>1981.7</ele>
        <time>2026-06-26T09:51:55Z</time>
      </trkpt>
      <trkpt lat="46.07424" lon="6.78177">
        <ele>1981.8</ele>
        <time>2026-06-26T09:51:56Z</time>
      </trkpt>
      <trkpt lat="46.07424" lon="6.78177">
        <ele>1981.8</ele>
        <time>2026-06-26T09:51:57Z</time>
      </trkpt>
      <trkpt lat="46.07424" lon="6.78177">
        <ele>1981.8</ele>
        <time>2026-06-26T09:51:58Z</time>
      </trkpt>
      <trkpt lat="46.07424" lon="6.78177">
        <ele>1981.8</ele>
        <time>2026-06-26T09:51:59Z</time>
      </trkpt>
      <trkpt lat="46.07424" lon="6.78177">
        <ele>1981.8</ele>
        <time>2026-06-26T09:52:00Z</time>
      </trkpt>
      <trkpt lat="46.07424" lon="6.78177">
        <ele>1981.8</ele>
        <time>2026-06-26T09:52:01Z</time>
      </trkpt>
      <trkpt lat="46.07424" lon="6.78177">
        <ele>1981.8</ele>
        <time>2026-06-26T09:52:02Z</time>
      </trkpt>
      <trkpt lat="46.07424" lon="6.78177">
        <ele>1981.7</ele>
        <time>2026-06-26T09:52:03Z</time>
      </trkpt>
      <trkpt lat="46.07424" lon="6.78177">
        <ele>1981.7</ele>
        <time>2026-06-26T09:52:04Z</time>
      </trkpt>
      <trkpt lat="46.07424" lon="6.78177">
        <ele>1981.7</ele>
        <time>2026-06-26T09:52:05Z</time>
      </trkpt>
      <trkpt lat="46.07424" lon="6.78177">
        <ele>1981.7</ele>
        <time>2026-06-26T09:52:06Z</time>
      </trkpt>
      <trkpt lat="46.07425" lon="6.78177">
        <ele>1981.7</ele>
        <time>2026-06-26T09:52:07Z</time>
      </trkpt>
      <trkpt lat="46.07424" lon="6.78177">
        <ele>1981.7</ele>
        <time>2026-06-26T09:52:08Z</time>
      </trkpt>
      <trkpt lat="46.07425" lon="6.78177">
        <ele>1981.6</ele>
        <time>2026-06-26T09:52:09Z</time>
      </trkpt>
      <trkpt lat="46.07425" lon="6.78177">
        <ele>1981.5</ele>
        <time>2026-06-26T09:52:10Z</time>
      </trkpt>
      <trkpt lat="46.07424" lon="6.78177">
        <ele>1981.5</ele>
        <time>2026-06-26T09:52:11Z</time>
      </trkpt>
      <trkpt lat="46.07424" lon="6.78177">
        <ele>1981.4</ele>
        <time>2026-06-26T09:52:12Z</time>
      </trkpt>
      <trkpt lat="46.07424" lon="6.78177">
        <ele>1981.4</ele>
        <time>2026-06-26T09:52:13Z</time>
      </trkpt>
      <trkpt lat="46.07424" lon="6.78177">
        <ele>1981.4</ele>
        <time>2026-06-26T09:52:14Z</time>
      </trkpt>
      <trkpt lat="46.07424" lon="6.78177">
        <ele>1981.4</ele>
        <time>2026-06-26T09:52:15Z</time>
      </trkpt>
      <trkpt lat="46.07424" lon="6.78177">
        <ele>1981.4</ele>
        <time>2026-06-26T09:52:16Z</time>
      </trkpt>
      <trkpt lat="46.07424" lon="6.78177">
        <ele>1981.4</ele>
        <time>2026-06-26T09:52:17Z</time>
      </trkpt>
      <trkpt lat="46.07424" lon="6.78177">
        <ele>1981.4</ele>
        <time>2026-06-26T09:52:18Z</time>
      </trkpt>
      <trkpt lat="46.07424" lon="6.78177">
        <ele>1981.5</ele>
        <time>2026-06-26T09:52:19Z</time>
      </trkpt>
      <trkpt lat="46.07424" lon="6.78177">
        <ele>1981.5</ele>
        <time>2026-06-26T09:52:20Z</time>
      </trkpt>
      <trkpt lat="46.07424" lon="6.78177">
        <ele>1981.6</ele>
        <time>2026-06-26T09:52:21Z</time>
      </trkpt>
      <trkpt lat="46.07424" lon="6.78177">
        <ele>1981.5</ele>
        <time>2026-06-26T09:52:22Z</time>
      </trkpt>
      <trkpt lat="46.07424" lon="6.78177">
        <ele>1981.5</ele>
        <time>2026-06-26T09:52:23Z</time>
      </trkpt>
      <trkpt lat="46.07424" lon="6.78177">
        <ele>1981.5</ele>
        <time>2026-06-26T09:52:24Z</time>
      </trkpt>
      <trkpt lat="46.07424" lon="6.78177">
        <ele>1981.5</ele>
        <time>2026-06-26T09:52:25Z</time>
      </trkpt>
      <trkpt lat="46.07424" lon="6.78177">
        <ele>1981.7</ele>
        <time>2026-06-26T09:52:26Z</time>
      </trkpt>
      <trkpt lat="46.07424" lon="6.78177">
        <ele>1981.8</ele>
        <time>2026-06-26T09:52:27Z</time>
      </trkpt>
      <trkpt lat="46.07424" lon="6.78177">
        <ele>1981.8</ele>
        <time>2026-06-26T09:52:28Z</time>
      </trkpt>
      <trkpt lat="46.07424" lon="6.78177">
        <ele>1981.9</ele>
        <time>2026-06-26T09:52:29Z</time>
      </trkpt>
      <trkpt lat="46.07424" lon="6.78177">
        <ele>1982</ele>
        <time>2026-06-26T09:52:30Z</time>
      </trkpt>
      <trkpt lat="46.07424" lon="6.78177">
        <ele>1981.9</ele>
        <time>2026-06-26T09:52:31Z</time>
      </trkpt>
      <trkpt lat="46.07424" lon="6.78177">
        <ele>1981.9</ele>
        <time>2026-06-26T09:52:32Z</time>
      </trkpt>
      <trkpt lat="46.07424" lon="6.78177">
        <ele>1981.9</ele>
        <time>2026-06-26T09:52:33Z</time>
      </trkpt>
      <trkpt lat="46.07424" lon="6.78177">
        <ele>1981.9</ele>
        <time>2026-06-26T09:52:34Z</time>
      </trkpt>
      <trkpt lat="46.07424" lon="6.78177">
        <ele>1982</ele>
        <time>2026-06-26T09:52:35Z</time>
      </trkpt>
      <trkpt lat="46.07424" lon="6.78177">
        <ele>1982</ele>
        <time>2026-06-26T09:52:36Z</time>
      </trkpt>
      <trkpt lat="46.07424" lon="6.78177">
        <ele>1982</ele>
        <time>2026-06-26T09:52:37Z</time>
      </trkpt>
      <trkpt lat="46.07424" lon="6.78177">
        <ele>1982</ele>
        <time>2026-06-26T09:52:38Z</time>
      </trkpt>
      <trkpt lat="46.07424" lon="6.78177">
        <ele>1982</ele>
        <time>2026-06-26T09:52:39Z</time>
      </trkpt>
      <trkpt lat="46.07424" lon="6.78177">
        <ele>1982</ele>
        <time>2026-06-26T09:52:40Z</time>
      </trkpt>
      <trkpt lat="46.07424" lon="6.78177">
        <ele>1982</ele>
        <time>2026-06-26T09:52:41Z</time>
      </trkpt>
      <trkpt lat="46.07424" lon="6.78177">
        <ele>1982.1</ele>
        <time>2026-06-26T09:52:42Z</time>
      </trkpt>
      <trkpt lat="46.07424" lon="6.78177">
        <ele>1982.1</ele>
        <time>2026-06-26T09:52:43Z</time>
      </trkpt>
      <trkpt lat="46.07424" lon="6.78177">
        <ele>1982</ele>
        <time>2026-06-26T09:52:44Z</time>
      </trkpt>
      <trkpt lat="46.07424" lon="6.78177">
        <ele>1981.9</ele>
        <time>2026-06-26T09:52:45Z</time>
      </trkpt>
      <trkpt lat="46.07424" lon="6.78177">
        <ele>1981.9</ele>
        <time>2026-06-26T09:52:46Z</time>
      </trkpt>
      <trkpt lat="46.07424" lon="6.78177">
        <ele>1981.9</ele>
        <time>2026-06-26T09:52:47Z</time>
      </trkpt>
      <trkpt lat="46.07424" lon="6.78177">
        <ele>1981.9</ele>
        <time>2026-06-26T09:52:48Z</time>
      </trkpt>
      <trkpt lat="46.07424" lon="6.78177">
        <ele>1981.9</ele>
        <time>2026-06-26T09:52:49Z</time>
      </trkpt>
      <trkpt lat="46.07424" lon="6.78177">
        <ele>1981.9</ele>
        <time>2026-06-26T09:52:50Z</time>
      </trkpt>
      <trkpt lat="46.07424" lon="6.78177">
        <ele>1981.9</ele>
        <time>2026-06-26T09:52:51Z</time>
      </trkpt>
      <trkpt lat="46.07425" lon="6.78177">
        <ele>1981.9</ele>
        <time>2026-06-26T09:52:52Z</time>
      </trkpt>
      <trkpt lat="46.07425" lon="6.78177">
        <ele>1981.9</ele>
        <time>2026-06-26T09:52:53Z</time>
      </trkpt>
      <trkpt lat="46.07424" lon="6.78177">
        <ele>1981.8</ele>
        <time>2026-06-26T09:52:54Z</time>
      </trkpt>
      <trkpt lat="46.07425" lon="6.78177">
        <ele>1981.8</ele>
        <time>2026-06-26T09:52:55Z</time>
      </trkpt>
      <trkpt lat="46.07424" lon="6.78177">
        <ele>1981.8</ele>
        <time>2026-06-26T09:52:56Z</time>
      </trkpt>
      <trkpt lat="46.07424" lon="6.78177">
        <ele>1981.8</ele>
        <time>2026-06-26T09:52:57Z</time>
      </trkpt>
      <trkpt lat="46.07425" lon="6.78176">
        <ele>1981.8</ele>
        <time>2026-06-26T09:52:58Z</time>
      </trkpt>
      <trkpt lat="46.07425" lon="6.78176">
        <ele>1981.8</ele>
        <time>2026-06-26T09:52:59Z</time>
      </trkpt>
      <trkpt lat="46.07425" lon="6.78176">
        <ele>1981.8</ele>
        <time>2026-06-26T09:53:00Z</time>
      </trkpt>
      <trkpt lat="46.07425" lon="6.78176">
        <ele>1981.7</ele>
        <time>2026-06-26T09:53:01Z</time>
      </trkpt>
      <trkpt lat="46.07425" lon="6.78176">
        <ele>1981.7</ele>
        <time>2026-06-26T09:53:02Z</time>
      </trkpt>
      <trkpt lat="46.07425" lon="6.78176">
        <ele>1981.6</ele>
        <time>2026-06-26T09:53:03Z</time>
      </trkpt>
      <trkpt lat="46.07425" lon="6.78176">
        <ele>1981.6</ele>
        <time>2026-06-26T09:53:04Z</time>
      </trkpt>
      <trkpt lat="46.07425" lon="6.78176">
        <ele>1981.6</ele>
        <time>2026-06-26T09:53:05Z</time>
      </trkpt>
      <trkpt lat="46.07425" lon="6.78176">
        <ele>1981.5</ele>
        <time>2026-06-26T09:53:06Z</time>
      </trkpt>
      <trkpt lat="46.07425" lon="6.78176">
        <ele>1981.5</ele>
        <time>2026-06-26T09:53:07Z</time>
      </trkpt>
      <trkpt lat="46.07425" lon="6.78176">
        <ele>1981.5</ele>
        <time>2026-06-26T09:53:08Z</time>
      </trkpt>
      <trkpt lat="46.07425" lon="6.78176">
        <ele>1981.6</ele>
        <time>2026-06-26T09:53:09Z</time>
      </trkpt>
      <trkpt lat="46.07425" lon="6.78176">
        <ele>1981.6</ele>
        <time>2026-06-26T09:53:10Z</time>
      </trkpt>
      <trkpt lat="46.07425" lon="6.78176">
        <ele>1981.5</ele>
        <time>2026-06-26T09:53:11Z</time>
      </trkpt>
      <trkpt lat="46.07425" lon="6.78176">
        <ele>1981.4</ele>
        <time>2026-06-26T09:53:12Z</time>
      </trkpt>
      <trkpt lat="46.07425" lon="6.78176">
        <ele>1981.3</ele>
        <time>2026-06-26T09:53:13Z</time>
      </trkpt>
      <trkpt lat="46.07425" lon="6.78176">
        <ele>1981.4</ele>
        <time>2026-06-26T09:53:14Z</time>
      </trkpt>
      <trkpt lat="46.07425" lon="6.78176">
        <ele>1981.4</ele>
        <time>2026-06-26T09:53:15Z</time>
      </trkpt>
      <trkpt lat="46.07425" lon="6.78176">
        <ele>1981.4</ele>
        <time>2026-06-26T09:53:16Z</time>
      </trkpt>
      <trkpt lat="46.07425" lon="6.78176">
        <ele>1981.4</ele>
        <time>2026-06-26T09:53:17Z</time>
      </trkpt>
      <trkpt lat="46.07425" lon="6.78176">
        <ele>1981.4</ele>
        <time>2026-06-26T09:53:18Z</time>
      </trkpt>
      <trkpt lat="46.07425" lon="6.78176">
        <ele>1981.4</ele>
        <time>2026-06-26T09:53:19Z</time>
      </trkpt>
      <trkpt lat="46.07425" lon="6.78176">
        <ele>1981.4</ele>
        <time>2026-06-26T09:53:20Z</time>
      </trkpt>
      <trkpt lat="46.07425" lon="6.78176">
        <ele>1981.4</ele>
        <time>2026-06-26T09:53:21Z</time>
      </trkpt>
      <trkpt lat="46.07425" lon="6.78176">
        <ele>1981.4</ele>
        <time>2026-06-26T09:53:22Z</time>
      </trkpt>
      <trkpt lat="46.07425" lon="6.78176">
        <ele>1981.4</ele>
        <time>2026-06-26T09:53:23Z</time>
      </trkpt>
      <trkpt lat="46.07425" lon="6.78176">
        <ele>1981.4</ele>
        <time>2026-06-26T09:53:24Z</time>
      </trkpt>
      <trkpt lat="46.07425" lon="6.78176">
        <ele>1981.4</ele>
        <time>2026-06-26T09:53:25Z</time>
      </trkpt>
      <trkpt lat="46.07425" lon="6.78176">
        <ele>1981.4</ele>
        <time>2026-06-26T09:53:26Z</time>
      </trkpt>
      <trkpt lat="46.07425" lon="6.78176">
        <ele>1981.5</ele>
        <time>2026-06-26T09:53:27Z</time>
      </trkpt>
      <trkpt lat="46.07424" lon="6.78176">
        <ele>1981.5</ele>
        <time>2026-06-26T09:53:28Z</time>
      </trkpt>
      <trkpt lat="46.07424" lon="6.78176">
        <ele>1981.5</ele>
        <time>2026-06-26T09:53:29Z</time>
      </trkpt>
      <trkpt lat="46.07424" lon="6.78176">
        <ele>1981.5</ele>
        <time>2026-06-26T09:53:30Z</time>
      </trkpt>
      <trkpt lat="46.07424" lon="6.78176">
        <ele>1981.5</ele>
        <time>2026-06-26T09:53:31Z</time>
      </trkpt>
      <trkpt lat="46.07424" lon="6.78176">
        <ele>1981.5</ele>
        <time>2026-06-26T09:53:32Z</time>
      </trkpt>
      <trkpt lat="46.07424" lon="6.78176">
        <ele>1981.6</ele>
        <time>2026-06-26T09:53:33Z</time>
      </trkpt>
      <trkpt lat="46.07424" lon="6.78176">
        <ele>1981.6</ele>
        <time>2026-06-26T09:53:34Z</time>
      </trkpt>
      <trkpt lat="46.07425" lon="6.78176">
        <ele>1981.6</ele>
        <time>2026-06-26T09:53:35Z</time>
      </trkpt>
      <trkpt lat="46.07425" lon="6.78176">
        <ele>1981.6</ele>
        <time>2026-06-26T09:53:36Z</time>
      </trkpt>
      <trkpt lat="46.07425" lon="6.78176">
        <ele>1981.5</ele>
        <time>2026-06-26T09:53:37Z</time>
      </trkpt>
      <trkpt lat="46.07425" lon="6.78176">
        <ele>1981.5</ele>
        <time>2026-06-26T09:53:38Z</time>
      </trkpt>
      <trkpt lat="46.07425" lon="6.78176">
        <ele>1981.6</ele>
        <time>2026-06-26T09:53:39Z</time>
      </trkpt>
      <trkpt lat="46.07425" lon="6.78176">
        <ele>1981.6</ele>
        <time>2026-06-26T09:53:40Z</time>
      </trkpt>
      <trkpt lat="46.07425" lon="6.78176">
        <ele>1981.6</ele>
        <time>2026-06-26T09:53:41Z</time>
      </trkpt>
      <trkpt lat="46.07425" lon="6.78176">
        <ele>1981.6</ele>
        <time>2026-06-26T09:53:42Z</time>
      </trkpt>
      <trkpt lat="46.07425" lon="6.78176">
        <ele>1981.6</ele>
        <time>2026-06-26T09:53:43Z</time>
      </trkpt>
      <trkpt lat="46.07425" lon="6.78176">
        <ele>1981.6</ele>
        <time>2026-06-26T09:53:44Z</time>
      </trkpt>
      <trkpt lat="46.07425" lon="6.78176">
        <ele>1981.5</ele>
        <time>2026-06-26T09:53:45Z</time>
      </trkpt>
      <trkpt lat="46.07425" lon="6.78176">
        <ele>1981.5</ele>
        <time>2026-06-26T09:53:46Z</time>
      </trkpt>
      <trkpt lat="46.07425" lon="6.78176">
        <ele>1981.5</ele>
        <time>2026-06-26T09:53:47Z</time>
      </trkpt>
      <trkpt lat="46.07425" lon="6.78176">
        <ele>1981.4</ele>
        <time>2026-06-26T09:53:48Z</time>
      </trkpt>
      <trkpt lat="46.07425" lon="6.78176">
        <ele>1981.5</ele>
        <time>2026-06-26T09:53:49Z</time>
      </trkpt>
      <trkpt lat="46.07425" lon="6.78176">
        <ele>1981.6</ele>
        <time>2026-06-26T09:53:50Z</time>
      </trkpt>
      <trkpt lat="46.07425" lon="6.78176">
        <ele>1981.6</ele>
        <time>2026-06-26T09:53:51Z</time>
      </trkpt>
      <trkpt lat="46.07425" lon="6.78176">
        <ele>1981.5</ele>
        <time>2026-06-26T09:53:52Z</time>
      </trkpt>
      <trkpt lat="46.07425" lon="6.78176">
        <ele>1981.5</ele>
        <time>2026-06-26T09:53:53Z</time>
      </trkpt>
      <trkpt lat="46.07425" lon="6.78176">
        <ele>1981.5</ele>
        <time>2026-06-26T09:53:54Z</time>
      </trkpt>
      <trkpt lat="46.07425" lon="6.78176">
        <ele>1981.5</ele>
        <time>2026-06-26T09:53:55Z</time>
      </trkpt>
      <trkpt lat="46.07425" lon="6.78176">
        <ele>1981.6</ele>
        <time>2026-06-26T09:53:56Z</time>
      </trkpt>
      <trkpt lat="46.07425" lon="6.78176">
        <ele>1981.7</ele>
        <time>2026-06-26T09:53:57Z</time>
      </trkpt>
      <trkpt lat="46.07425" lon="6.78176">
        <ele>1981.7</ele>
        <time>2026-06-26T09:53:58Z</time>
      </trkpt>
      <trkpt lat="46.07425" lon="6.78176">
        <ele>1981.7</ele>
        <time>2026-06-26T09:53:59Z</time>
      </trkpt>
      <trkpt lat="46.07425" lon="6.78176">
        <ele>1981.7</ele>
        <time>2026-06-26T09:54:00Z</time>
      </trkpt>
      <trkpt lat="46.07425" lon="6.78176">
        <ele>1981.6</ele>
        <time>2026-06-26T09:54:01Z</time>
      </trkpt>
      <trkpt lat="46.07426" lon="6.78176">
        <ele>1981.6</ele>
        <time>2026-06-26T09:54:02Z</time>
      </trkpt>
      <trkpt lat="46.07426" lon="6.78176">
        <ele>1981.6</ele>
        <time>2026-06-26T09:54:03Z</time>
      </trkpt>
      <trkpt lat="46.07426" lon="6.78176">
        <ele>1981.7</ele>
        <time>2026-06-26T09:54:04Z</time>
      </trkpt>
      <trkpt lat="46.07426" lon="6.78176">
        <ele>1981.7</ele>
        <time>2026-06-26T09:54:05Z</time>
      </trkpt>
      <trkpt lat="46.07426" lon="6.78176">
        <ele>1981.7</ele>
        <time>2026-06-26T09:54:06Z</time>
      </trkpt>
      <trkpt lat="46.07426" lon="6.78176">
        <ele>1981.7</ele>
        <time>2026-06-26T09:54:07Z</time>
      </trkpt>
      <trkpt lat="46.07426" lon="6.78176">
        <ele>1981.8</ele>
        <time>2026-06-26T09:54:08Z</time>
      </trkpt>
      <trkpt lat="46.07426" lon="6.78176">
        <ele>1981.8</ele>
        <time>2026-06-26T09:54:09Z</time>
      </trkpt>
      <trkpt lat="46.07426" lon="6.78176">
        <ele>1981.8</ele>
        <time>2026-06-26T09:54:10Z</time>
      </trkpt>
      <trkpt lat="46.07426" lon="6.78176">
        <ele>1981.8</ele>
        <time>2026-06-26T09:54:11Z</time>
      </trkpt>
      <trkpt lat="46.07426" lon="6.78176">
        <ele>1981.8</ele>
        <time>2026-06-26T09:54:12Z</time>
      </trkpt>
      <trkpt lat="46.07425" lon="6.78176">
        <ele>1981.8</ele>
        <time>2026-06-26T09:54:13Z</time>
      </trkpt>
      <trkpt lat="46.07425" lon="6.78176">
        <ele>1981.7</ele>
        <time>2026-06-26T09:54:14Z</time>
      </trkpt>
      <trkpt lat="46.07425" lon="6.78176">
        <ele>1981.6</ele>
        <time>2026-06-26T09:54:15Z</time>
      </trkpt>
      <trkpt lat="46.07425" lon="6.78176">
        <ele>1981.6</ele>
        <time>2026-06-26T09:54:16Z</time>
      </trkpt>
      <trkpt lat="46.07425" lon="6.78176">
        <ele>1981.6</ele>
        <time>2026-06-26T09:54:17Z</time>
      </trkpt>
      <trkpt lat="46.07425" lon="6.78176">
        <ele>1981.5</ele>
        <time>2026-06-26T09:54:18Z</time>
      </trkpt>
      <trkpt lat="46.07425" lon="6.78176">
        <ele>1981.5</ele>
        <time>2026-06-26T09:54:19Z</time>
      </trkpt>
      <trkpt lat="46.07425" lon="6.78176">
        <ele>1981.5</ele>
        <time>2026-06-26T09:54:20Z</time>
      </trkpt>
      <trkpt lat="46.07425" lon="6.78176">
        <ele>1981.5</ele>
        <time>2026-06-26T09:54:21Z</time>
      </trkpt>
      <trkpt lat="46.07425" lon="6.78176">
        <ele>1981.6</ele>
        <time>2026-06-26T09:54:22Z</time>
      </trkpt>
      <trkpt lat="46.07425" lon="6.78176">
        <ele>1981.6</ele>
        <time>2026-06-26T09:54:23Z</time>
      </trkpt>
      <trkpt lat="46.07425" lon="6.78176">
        <ele>1981.6</ele>
        <time>2026-06-26T09:54:24Z</time>
      </trkpt>
      <trkpt lat="46.07426" lon="6.78176">
        <ele>1981.6</ele>
        <time>2026-06-26T09:54:25Z</time>
      </trkpt>
      <trkpt lat="46.07426" lon="6.78175">
        <ele>1981.7</ele>
        <time>2026-06-26T09:54:26Z</time>
      </trkpt>
      <trkpt lat="46.07426" lon="6.78175">
        <ele>1981.8</ele>
        <time>2026-06-26T09:54:27Z</time>
      </trkpt>
      <trkpt lat="46.07426" lon="6.78175">
        <ele>1981.7</ele>
        <time>2026-06-26T09:54:28Z</time>
      </trkpt>
      <trkpt lat="46.07426" lon="6.78175">
        <ele>1981.7</ele>
        <time>2026-06-26T09:54:29Z</time>
      </trkpt>
      <trkpt lat="46.07425" lon="6.78175">
        <ele>1981.6</ele>
        <time>2026-06-26T09:54:30Z</time>
      </trkpt>
      <trkpt lat="46.07425" lon="6.78176">
        <ele>1981.6</ele>
        <time>2026-06-26T09:54:31Z</time>
      </trkpt>
      <trkpt lat="46.07425" lon="6.78176">
        <ele>1981.7</ele>
        <time>2026-06-26T09:54:32Z</time>
      </trkpt>
      <trkpt lat="46.07425" lon="6.78176">
        <ele>1981.6</ele>
        <time>2026-06-26T09:54:33Z</time>
      </trkpt>
      <trkpt lat="46.07425" lon="6.78176">
        <ele>1981.6</ele>
        <time>2026-06-26T09:54:34Z</time>
      </trkpt>
      <trkpt lat="46.07425" lon="6.78176">
        <ele>1981.6</ele>
        <time>2026-06-26T09:54:35Z</time>
      </trkpt>
      <trkpt lat="46.07425" lon="6.78176">
        <ele>1981.6</ele>
        <time>2026-06-26T09:54:36Z</time>
      </trkpt>
      <trkpt lat="46.07425" lon="6.78176">
        <ele>1981.5</ele>
        <time>2026-06-26T09:54:37Z</time>
      </trkpt>
      <trkpt lat="46.07425" lon="6.78176">
        <ele>1981.4</ele>
        <time>2026-06-26T09:54:38Z</time>
      </trkpt>
      <trkpt lat="46.07425" lon="6.78176">
        <ele>1981.3</ele>
        <time>2026-06-26T09:54:39Z</time>
      </trkpt>
      <trkpt lat="46.07425" lon="6.78176">
        <ele>1981.3</ele>
        <time>2026-06-26T09:54:40Z</time>
      </trkpt>
      <trkpt lat="46.07425" lon="6.78176">
        <ele>1981.2</ele>
        <time>2026-06-26T09:54:41Z</time>
      </trkpt>
      <trkpt lat="46.07425" lon="6.78176">
        <ele>1981.2</ele>
        <time>2026-06-26T09:54:42Z</time>
      </trkpt>
      <trkpt lat="46.07425" lon="6.78176">
        <ele>1981.2</ele>
        <time>2026-06-26T09:54:43Z</time>
      </trkpt>
      <trkpt lat="46.07425" lon="6.78176">
        <ele>1981.1</ele>
        <time>2026-06-26T09:54:44Z</time>
      </trkpt>
      <trkpt lat="46.07425" lon="6.78176">
        <ele>1981.2</ele>
        <time>2026-06-26T09:54:45Z</time>
      </trkpt>
      <trkpt lat="46.07425" lon="6.78176">
        <ele>1981.1</ele>
        <time>2026-06-26T09:54:46Z</time>
      </trkpt>
      <trkpt lat="46.07425" lon="6.78176">
        <ele>1981.2</ele>
        <time>2026-06-26T09:54:47Z</time>
      </trkpt>
      <trkpt lat="46.07425" lon="6.78176">
        <ele>1981.2</ele>
        <time>2026-06-26T09:54:48Z</time>
      </trkpt>
      <trkpt lat="46.07425" lon="6.78176">
        <ele>1981.3</ele>
        <time>2026-06-26T09:54:49Z</time>
      </trkpt>
      <trkpt lat="46.07425" lon="6.78176">
        <ele>1981.4</ele>
        <time>2026-06-26T09:54:50Z</time>
      </trkpt>
      <trkpt lat="46.07425" lon="6.78176">
        <ele>1981.3</ele>
        <time>2026-06-26T09:54:51Z</time>
      </trkpt>
      <trkpt lat="46.07425" lon="6.78176">
        <ele>1981.4</ele>
        <time>2026-06-26T09:54:52Z</time>
      </trkpt>
      <trkpt lat="46.07425" lon="6.78176">
        <ele>1981.4</ele>
        <time>2026-06-26T09:54:53Z</time>
      </trkpt>
      <trkpt lat="46.07425" lon="6.78176">
        <ele>1981.4</ele>
        <time>2026-06-26T09:54:54Z</time>
      </trkpt>
      <trkpt lat="46.07425" lon="6.78176">
        <ele>1981.4</ele>
        <time>2026-06-26T09:54:55Z</time>
      </trkpt>
      <trkpt lat="46.07425" lon="6.78176">
        <ele>1981.3</ele>
        <time>2026-06-26T09:54:56Z</time>
      </trkpt>
      <trkpt lat="46.07425" lon="6.78176">
        <ele>1981.3</ele>
        <time>2026-06-26T09:54:57Z</time>
      </trkpt>
      <trkpt lat="46.07425" lon="6.78176">
        <ele>1981.2</ele>
        <time>2026-06-26T09:54:58Z</time>
      </trkpt>
      <trkpt lat="46.07425" lon="6.78176">
        <ele>1981.2</ele>
        <time>2026-06-26T09:54:59Z</time>
      </trkpt>
      <trkpt lat="46.07425" lon="6.78176">
        <ele>1981.2</ele>
        <time>2026-06-26T09:55:00Z</time>
      </trkpt>
      <trkpt lat="46.07425" lon="6.78176">
        <ele>1981.2</ele>
        <time>2026-06-26T09:55:01Z</time>
      </trkpt>
      <trkpt lat="46.07425" lon="6.78176">
        <ele>1981.2</ele>
        <time>2026-06-26T09:55:02Z</time>
      </trkpt>
      <trkpt lat="46.07425" lon="6.78176">
        <ele>1981.3</ele>
        <time>2026-06-26T09:55:03Z</time>
      </trkpt>
      <trkpt lat="46.07425" lon="6.78177">
        <ele>1981.3</ele>
        <time>2026-06-26T09:55:04Z</time>
      </trkpt>
      <trkpt lat="46.07425" lon="6.78176">
        <ele>1981.3</ele>
        <time>2026-06-26T09:55:05Z</time>
      </trkpt>
      <trkpt lat="46.07425" lon="6.78177">
        <ele>1981.3</ele>
        <time>2026-06-26T09:55:06Z</time>
      </trkpt>
      <trkpt lat="46.07425" lon="6.78177">
        <ele>1981.2</ele>
        <time>2026-06-26T09:55:07Z</time>
      </trkpt>
      <trkpt lat="46.07425" lon="6.78177">
        <ele>1981.2</ele>
        <time>2026-06-26T09:55:08Z</time>
      </trkpt>
      <trkpt lat="46.07425" lon="6.78177">
        <ele>1981.2</ele>
        <time>2026-06-26T09:55:09Z</time>
      </trkpt>
      <trkpt lat="46.07425" lon="6.78177">
        <ele>1981.2</ele>
        <time>2026-06-26T09:55:10Z</time>
      </trkpt>
      <trkpt lat="46.07425" lon="6.78177">
        <ele>1981.2</ele>
        <time>2026-06-26T09:55:11Z</time>
      </trkpt>
      <trkpt lat="46.07425" lon="6.78176">
        <ele>1981.2</ele>
        <time>2026-06-26T09:55:12Z</time>
      </trkpt>
      <trkpt lat="46.07425" lon="6.78176">
        <ele>1981.4</ele>
        <time>2026-06-26T09:55:13Z</time>
      </trkpt>
      <trkpt lat="46.07425" lon="6.78176">
        <ele>1981.5</ele>
        <time>2026-06-26T09:55:14Z</time>
      </trkpt>
      <trkpt lat="46.07425" lon="6.78177">
        <ele>1981.7</ele>
        <time>2026-06-26T09:55:15Z</time>
      </trkpt>
      <trkpt lat="46.07425" lon="6.78177">
        <ele>1981.8</ele>
        <time>2026-06-26T09:55:16Z</time>
      </trkpt>
      <trkpt lat="46.07425" lon="6.78177">
        <ele>1981.8</ele>
        <time>2026-06-26T09:55:17Z</time>
      </trkpt>
      <trkpt lat="46.07425" lon="6.78177">
        <ele>1981.8</ele>
        <time>2026-06-26T09:55:18Z</time>
      </trkpt>
      <trkpt lat="46.07425" lon="6.78177">
        <ele>1981.9</ele>
        <time>2026-06-26T09:55:19Z</time>
      </trkpt>
      <trkpt lat="46.07425" lon="6.78177">
        <ele>1982</ele>
        <time>2026-06-26T09:55:20Z</time>
      </trkpt>
      <trkpt lat="46.07425" lon="6.78177">
        <ele>1982</ele>
        <time>2026-06-26T09:55:21Z</time>
      </trkpt>
      <trkpt lat="46.07425" lon="6.78177">
        <ele>1982</ele>
        <time>2026-06-26T09:55:22Z</time>
      </trkpt>
      <trkpt lat="46.07424" lon="6.78177">
        <ele>1982</ele>
        <time>2026-06-26T09:55:23Z</time>
      </trkpt>
      <trkpt lat="46.07424" lon="6.78177">
        <ele>1981.9</ele>
        <time>2026-06-26T09:55:24Z</time>
      </trkpt>
      <trkpt lat="46.07424" lon="6.78178">
        <ele>1981.9</ele>
        <time>2026-06-26T09:55:25Z</time>
      </trkpt>
      <trkpt lat="46.07424" lon="6.78178">
        <ele>1981.9</ele>
        <time>2026-06-26T09:55:26Z</time>
      </trkpt>
      <trkpt lat="46.07424" lon="6.78178">
        <ele>1981.9</ele>
        <time>2026-06-26T09:55:27Z</time>
      </trkpt>
      <trkpt lat="46.07424" lon="6.78178">
        <ele>1981.9</ele>
        <time>2026-06-26T09:55:28Z</time>
      </trkpt>
      <trkpt lat="46.07424" lon="6.78178">
        <ele>1981.9</ele>
        <time>2026-06-26T09:55:29Z</time>
      </trkpt>
      <trkpt lat="46.07424" lon="6.78178">
        <ele>1982</ele>
        <time>2026-06-26T09:55:30Z</time>
      </trkpt>
      <trkpt lat="46.07424" lon="6.78177">
        <ele>1982</ele>
        <time>2026-06-26T09:55:31Z</time>
      </trkpt>
      <trkpt lat="46.07424" lon="6.78177">
        <ele>1982</ele>
        <time>2026-06-26T09:55:32Z</time>
      </trkpt>
      <trkpt lat="46.07424" lon="6.78177">
        <ele>1982</ele>
        <time>2026-06-26T09:55:33Z</time>
      </trkpt>
      <trkpt lat="46.07423" lon="6.78177">
        <ele>1982.1</ele>
        <time>2026-06-26T09:55:34Z</time>
      </trkpt>
      <trkpt lat="46.07423" lon="6.78177">
        <ele>1982.1</ele>
        <time>2026-06-26T09:55:35Z</time>
      </trkpt>
      <trkpt lat="46.07423" lon="6.78178">
        <ele>1982.1</ele>
        <time>2026-06-26T09:55:36Z</time>
      </trkpt>
      <trkpt lat="46.07423" lon="6.78178">
        <ele>1982.1</ele>
        <time>2026-06-26T09:55:37Z</time>
      </trkpt>
      <trkpt lat="46.07423" lon="6.78178">
        <ele>1982.1</ele>
        <time>2026-06-26T09:55:38Z</time>
      </trkpt>
      <trkpt lat="46.07423" lon="6.78178">
        <ele>1982.1</ele>
        <time>2026-06-26T09:55:39Z</time>
      </trkpt>
      <trkpt lat="46.07423" lon="6.78178">
        <ele>1982.1</ele>
        <time>2026-06-26T09:55:40Z</time>
      </trkpt>
      <trkpt lat="46.07423" lon="6.78178">
        <ele>1982.1</ele>
        <time>2026-06-26T09:55:41Z</time>
      </trkpt>
      <trkpt lat="46.07422" lon="6.78178">
        <ele>1982.1</ele>
        <time>2026-06-26T09:55:42Z</time>
      </trkpt>
      <trkpt lat="46.07422" lon="6.78178">
        <ele>1982</ele>
        <time>2026-06-26T09:55:43Z</time>
      </trkpt>
      <trkpt lat="46.07422" lon="6.78178">
        <ele>1982</ele>
        <time>2026-06-26T09:55:44Z</time>
      </trkpt>
      <trkpt lat="46.07422" lon="6.78178">
        <ele>1982</ele>
        <time>2026-06-26T09:55:45Z</time>
      </trkpt>
      <trkpt lat="46.07422" lon="6.78178">
        <ele>1982</ele>
        <time>2026-06-26T09:55:46Z</time>
      </trkpt>
      <trkpt lat="46.07422" lon="6.78179">
        <ele>1982</ele>
        <time>2026-06-26T09:55:47Z</time>
      </trkpt>
      <trkpt lat="46.07422" lon="6.78179">
        <ele>1982</ele>
        <time>2026-06-26T09:55:48Z</time>
      </trkpt>
      <trkpt lat="46.07422" lon="6.78179">
        <ele>1981.9</ele>
        <time>2026-06-26T09:55:49Z</time>
      </trkpt>
      <trkpt lat="46.07422" lon="6.78179">
        <ele>1981.9</ele>
        <time>2026-06-26T09:55:50Z</time>
      </trkpt>
      <trkpt lat="46.07422" lon="6.78179">
        <ele>1981.8</ele>
        <time>2026-06-26T09:55:51Z</time>
      </trkpt>
      <trkpt lat="46.07422" lon="6.78179">
        <ele>1981.8</ele>
        <time>2026-06-26T09:55:52Z</time>
      </trkpt>
      <trkpt lat="46.07421" lon="6.7818">
        <ele>1981.8</ele>
        <time>2026-06-26T09:55:53Z</time>
      </trkpt>
      <trkpt lat="46.07421" lon="6.7818">
        <ele>1975.4</ele>
        <time>2026-06-26T09:55:54Z</time>
      </trkpt>
      <trkpt lat="46.07422" lon="6.78179">
        <ele>1976.5</ele>
        <time>2026-06-26T09:55:55Z</time>
      </trkpt>
      <trkpt lat="46.07422" lon="6.78179">
        <ele>1977.5</ele>
        <time>2026-06-26T09:55:56Z</time>
      </trkpt>
      <trkpt lat="46.07422" lon="6.78179">
        <ele>1978.2</ele>
        <time>2026-06-26T09:55:57Z</time>
      </trkpt>
      <trkpt lat="46.07422" lon="6.78179">
        <ele>1978.8</ele>
        <time>2026-06-26T09:55:58Z</time>
      </trkpt>
      <trkpt lat="46.07422" lon="6.78179">
        <ele>1979.4</ele>
        <time>2026-06-26T09:55:59Z</time>
      </trkpt>
      <trkpt lat="46.07422" lon="6.78179">
        <ele>1979.8</ele>
        <time>2026-06-26T09:56:00Z</time>
      </trkpt>
      <trkpt lat="46.07422" lon="6.78179">
        <ele>1980.1</ele>
        <time>2026-06-26T09:56:01Z</time>
      </trkpt>
      <trkpt lat="46.07423" lon="6.78179">
        <ele>1980.5</ele>
        <time>2026-06-26T09:56:02Z</time>
      </trkpt>
      <trkpt lat="46.07423" lon="6.78179">
        <ele>1980.7</ele>
        <time>2026-06-26T09:56:03Z</time>
      </trkpt>
      <trkpt lat="46.07423" lon="6.78179">
        <ele>1980.9</ele>
        <time>2026-06-26T09:56:04Z</time>
      </trkpt>
      <trkpt lat="46.07423" lon="6.78178">
        <ele>1980.9</ele>
        <time>2026-06-26T09:56:05Z</time>
      </trkpt>
      <trkpt lat="46.07423" lon="6.78178">
        <ele>1981</ele>
        <time>2026-06-26T09:56:06Z</time>
      </trkpt>
      <trkpt lat="46.07423" lon="6.78178">
        <ele>1981.1</ele>
        <time>2026-06-26T09:56:07Z</time>
      </trkpt>
      <trkpt lat="46.07423" lon="6.78178">
        <ele>1981.2</ele>
        <time>2026-06-26T09:56:08Z</time>
      </trkpt>
      <trkpt lat="46.07423" lon="6.78178">
        <ele>1981.2</ele>
        <time>2026-06-26T09:56:09Z</time>
      </trkpt>
      <trkpt lat="46.07423" lon="6.78178">
        <ele>1981.2</ele>
        <time>2026-06-26T09:56:10Z</time>
      </trkpt>
      <trkpt lat="46.07423" lon="6.78178">
        <ele>1981.3</ele>
        <time>2026-06-26T09:56:11Z</time>
      </trkpt>
      <trkpt lat="46.07423" lon="6.78178">
        <ele>1981.3</ele>
        <time>2026-06-26T09:56:12Z</time>
      </trkpt>
      <trkpt lat="46.07423" lon="6.78178">
        <ele>1981.4</ele>
        <time>2026-06-26T09:56:13Z</time>
      </trkpt>
      <trkpt lat="46.07423" lon="6.78178">
        <ele>1981.4</ele>
        <time>2026-06-26T09:56:14Z</time>
      </trkpt>
      <trkpt lat="46.07423" lon="6.78178">
        <ele>1981.4</ele>
        <time>2026-06-26T09:56:15Z</time>
      </trkpt>
      <trkpt lat="46.07423" lon="6.78178">
        <ele>1981.4</ele>
        <time>2026-06-26T09:56:16Z</time>
      </trkpt>
      <trkpt lat="46.07423" lon="6.78177">
        <ele>1981.4</ele>
        <time>2026-06-26T09:56:17Z</time>
      </trkpt>
      <trkpt lat="46.07424" lon="6.78177">
        <ele>1981.4</ele>
        <time>2026-06-26T09:56:18Z</time>
      </trkpt>
      <trkpt lat="46.07424" lon="6.78177">
        <ele>1981.5</ele>
        <time>2026-06-26T09:56:19Z</time>
      </trkpt>
      <trkpt lat="46.07424" lon="6.78177">
        <ele>1981.5</ele>
        <time>2026-06-26T09:56:20Z</time>
      </trkpt>
      <trkpt lat="46.07424" lon="6.78177">
        <ele>1981.5</ele>
        <time>2026-06-26T09:56:21Z</time>
      </trkpt>
      <trkpt lat="46.07424" lon="6.78177">
        <ele>1981.5</ele>
        <time>2026-06-26T09:56:22Z</time>
      </trkpt>
      <trkpt lat="46.07424" lon="6.78177">
        <ele>1981.5</ele>
        <time>2026-06-26T09:56:23Z</time>
      </trkpt>
      <trkpt lat="46.07424" lon="6.78177">
        <ele>1981.5</ele>
        <time>2026-06-26T09:56:24Z</time>
      </trkpt>
      <trkpt lat="46.07424" lon="6.78177">
        <ele>1981.5</ele>
        <time>2026-06-26T09:56:25Z</time>
      </trkpt>
      <trkpt lat="46.07424" lon="6.78177">
        <ele>1981.6</ele>
        <time>2026-06-26T09:56:26Z</time>
      </trkpt>
      <trkpt lat="46.07424" lon="6.78177">
        <ele>1981.6</ele>
        <time>2026-06-26T09:56:27Z</time>
      </trkpt>
      <trkpt lat="46.07424" lon="6.78177">
        <ele>1981.7</ele>
        <time>2026-06-26T09:56:28Z</time>
      </trkpt>
      <trkpt lat="46.07424" lon="6.78177">
        <ele>1981.7</ele>
        <time>2026-06-26T09:56:29Z</time>
      </trkpt>
      <trkpt lat="46.07424" lon="6.78177">
        <ele>1981.7</ele>
        <time>2026-06-26T09:56:30Z</time>
      </trkpt>
      <trkpt lat="46.07424" lon="6.78177">
        <ele>1981.7</ele>
        <time>2026-06-26T09:56:31Z</time>
      </trkpt>
      <trkpt lat="46.07424" lon="6.78177">
        <ele>1981.6</ele>
        <time>2026-06-26T09:56:32Z</time>
      </trkpt>
      <trkpt lat="46.07424" lon="6.78177">
        <ele>1981.6</ele>
        <time>2026-06-26T09:56:33Z</time>
      </trkpt>
      <trkpt lat="46.07424" lon="6.78177">
        <ele>1981.6</ele>
        <time>2026-06-26T09:56:34Z</time>
      </trkpt>
      <trkpt lat="46.07424" lon="6.78177">
        <ele>1981.7</ele>
        <time>2026-06-26T09:56:35Z</time>
      </trkpt>
      <trkpt lat="46.07424" lon="6.78177">
        <ele>1981.7</ele>
        <time>2026-06-26T09:56:36Z</time>
      </trkpt>
      <trkpt lat="46.07424" lon="6.78177">
        <ele>1981.6</ele>
        <time>2026-06-26T09:56:37Z</time>
      </trkpt>
      <trkpt lat="46.07424" lon="6.78176">
        <ele>1981.6</ele>
        <time>2026-06-26T09:56:38Z</time>
      </trkpt>
      <trkpt lat="46.07424" lon="6.78176">
        <ele>1981.6</ele>
        <time>2026-06-26T09:56:39Z</time>
      </trkpt>
      <trkpt lat="46.07424" lon="6.78176">
        <ele>1981.6</ele>
        <time>2026-06-26T09:56:40Z</time>
      </trkpt>
      <trkpt lat="46.07424" lon="6.78176">
        <ele>1981.6</ele>
        <time>2026-06-26T09:56:41Z</time>
      </trkpt>
      <trkpt lat="46.07424" lon="6.78176">
        <ele>1981.5</ele>
        <time>2026-06-26T09:56:42Z</time>
      </trkpt>
      <trkpt lat="46.07424" lon="6.78176">
        <ele>1981.5</ele>
        <time>2026-06-26T09:56:43Z</time>
      </trkpt>
      <trkpt lat="46.07424" lon="6.78176">
        <ele>1981.6</ele>
        <time>2026-06-26T09:56:44Z</time>
      </trkpt>
      <trkpt lat="46.07424" lon="6.78176">
        <ele>1981.6</ele>
        <time>2026-06-26T09:56:45Z</time>
      </trkpt>
      <trkpt lat="46.07424" lon="6.78176">
        <ele>1981.7</ele>
        <time>2026-06-26T09:56:46Z</time>
      </trkpt>
      <trkpt lat="46.07424" lon="6.78176">
        <ele>1981.7</ele>
        <time>2026-06-26T09:56:47Z</time>
      </trkpt>
      <trkpt lat="46.07424" lon="6.78176">
        <ele>1981.7</ele>
        <time>2026-06-26T09:56:48Z</time>
      </trkpt>
      <trkpt lat="46.07424" lon="6.78176">
        <ele>1981.8</ele>
        <time>2026-06-26T09:56:49Z</time>
      </trkpt>
      <trkpt lat="46.07424" lon="6.78176">
        <ele>1981.7</ele>
        <time>2026-06-26T09:56:50Z</time>
      </trkpt>
      <trkpt lat="46.07424" lon="6.78176">
        <ele>1981.7</ele>
        <time>2026-06-26T09:56:51Z</time>
      </trkpt>
      <trkpt lat="46.07424" lon="6.78176">
        <ele>1981.7</ele>
        <time>2026-06-26T09:56:52Z</time>
      </trkpt>
      <trkpt lat="46.07424" lon="6.78176">
        <ele>1981.7</ele>
        <time>2026-06-26T09:56:53Z</time>
      </trkpt>
      <trkpt lat="46.07424" lon="6.78176">
        <ele>1981.7</ele>
        <time>2026-06-26T09:56:54Z</time>
      </trkpt>
      <trkpt lat="46.07424" lon="6.78176">
        <ele>1981.8</ele>
        <time>2026-06-26T09:56:55Z</time>
      </trkpt>
      <trkpt lat="46.07424" lon="6.78176">
        <ele>1981.9</ele>
        <time>2026-06-26T09:56:56Z</time>
      </trkpt>
      <trkpt lat="46.07424" lon="6.78176">
        <ele>1981.9</ele>
        <time>2026-06-26T09:56:57Z</time>
      </trkpt>
      <trkpt lat="46.07424" lon="6.78176">
        <ele>1981.9</ele>
        <time>2026-06-26T09:56:58Z</time>
      </trkpt>
      <trkpt lat="46.07424" lon="6.78176">
        <ele>1982</ele>
        <time>2026-06-26T09:56:59Z</time>
      </trkpt>
      <trkpt lat="46.07425" lon="6.78176">
        <ele>1981.8</ele>
        <time>2026-06-26T09:57:00Z</time>
      </trkpt>
      <trkpt lat="46.07425" lon="6.78176">
        <ele>1981.8</ele>
        <time>2026-06-26T09:57:01Z</time>
      </trkpt>
      <trkpt lat="46.07425" lon="6.78176">
        <ele>1981.8</ele>
        <time>2026-06-26T09:57:02Z</time>
      </trkpt>
      <trkpt lat="46.07425" lon="6.78176">
        <ele>1981.9</ele>
        <time>2026-06-26T09:57:03Z</time>
      </trkpt>
      <trkpt lat="46.07425" lon="6.78176">
        <ele>1981.8</ele>
        <time>2026-06-26T09:57:04Z</time>
      </trkpt>
      <trkpt lat="46.07425" lon="6.78176">
        <ele>1981.8</ele>
        <time>2026-06-26T09:57:05Z</time>
      </trkpt>
      <trkpt lat="46.07425" lon="6.78176">
        <ele>1981.7</ele>
        <time>2026-06-26T09:57:06Z</time>
      </trkpt>
      <trkpt lat="46.07425" lon="6.78176">
        <ele>1981.7</ele>
        <time>2026-06-26T09:57:07Z</time>
      </trkpt>
      <trkpt lat="46.07425" lon="6.78176">
        <ele>1981.7</ele>
        <time>2026-06-26T09:57:08Z</time>
      </trkpt>
      <trkpt lat="46.07425" lon="6.78176">
        <ele>1981.7</ele>
        <time>2026-06-26T09:57:09Z</time>
      </trkpt>
      <trkpt lat="46.07425" lon="6.78176">
        <ele>1981.6</ele>
        <time>2026-06-26T09:57:10Z</time>
      </trkpt>
      <trkpt lat="46.07425" lon="6.78176">
        <ele>1981.6</ele>
        <time>2026-06-26T09:57:11Z</time>
      </trkpt>
      <trkpt lat="46.07425" lon="6.78176">
        <ele>1981.6</ele>
        <time>2026-06-26T09:57:12Z</time>
      </trkpt>
      <trkpt lat="46.07425" lon="6.78176">
        <ele>1981.6</ele>
        <time>2026-06-26T09:57:13Z</time>
      </trkpt>
      <trkpt lat="46.07425" lon="6.78176">
        <ele>1981.6</ele>
        <time>2026-06-26T09:57:14Z</time>
      </trkpt>
      <trkpt lat="46.07425" lon="6.78176">
        <ele>1981.5</ele>
        <time>2026-06-26T09:57:15Z</time>
      </trkpt>
      <trkpt lat="46.07425" lon="6.78176">
        <ele>1981.5</ele>
        <time>2026-06-26T09:57:16Z</time>
      </trkpt>
      <trkpt lat="46.07425" lon="6.78176">
        <ele>1981.4</ele>
        <time>2026-06-26T09:57:17Z</time>
      </trkpt>
      <trkpt lat="46.07425" lon="6.78176">
        <ele>1981.5</ele>
        <time>2026-06-26T09:57:18Z</time>
      </trkpt>
      <trkpt lat="46.07425" lon="6.78176">
        <ele>1981.5</ele>
        <time>2026-06-26T09:57:19Z</time>
      </trkpt>
      <trkpt lat="46.07425" lon="6.78176">
        <ele>1981.5</ele>
        <time>2026-06-26T09:57:20Z</time>
      </trkpt>
      <trkpt lat="46.07425" lon="6.78176">
        <ele>1981.5</ele>
        <time>2026-06-26T09:57:21Z</time>
      </trkpt>
      <trkpt lat="46.07425" lon="6.78175">
        <ele>1981.4</ele>
        <time>2026-06-26T09:57:22Z</time>
      </trkpt>
      <trkpt lat="46.07425" lon="6.78175">
        <ele>1981.5</ele>
        <time>2026-06-26T09:57:23Z</time>
      </trkpt>
      <trkpt lat="46.07425" lon="6.78175">
        <ele>1981.5</ele>
        <time>2026-06-26T09:57:24Z</time>
      </trkpt>
      <trkpt lat="46.07425" lon="6.78175">
        <ele>1981.5</ele>
        <time>2026-06-26T09:57:25Z</time>
      </trkpt>
      <trkpt lat="46.07425" lon="6.78175">
        <ele>1981.4</ele>
        <time>2026-06-26T09:57:26Z</time>
      </trkpt>
      <trkpt lat="46.07425" lon="6.78175">
        <ele>1981.4</ele>
        <time>2026-06-26T09:57:27Z</time>
      </trkpt>
      <trkpt lat="46.07425" lon="6.78175">
        <ele>1981.6</ele>
        <time>2026-06-26T09:57:28Z</time>
      </trkpt>
      <trkpt lat="46.07425" lon="6.78175">
        <ele>1981.5</ele>
        <time>2026-06-26T09:57:29Z</time>
      </trkpt>
      <trkpt lat="46.07425" lon="6.78175">
        <ele>1981.5</ele>
        <time>2026-06-26T09:57:30Z</time>
      </trkpt>
      <trkpt lat="46.07425" lon="6.78175">
        <ele>1981.5</ele>
        <time>2026-06-26T09:57:31Z</time>
      </trkpt>
      <trkpt lat="46.07425" lon="6.78175">
        <ele>1981.4</ele>
        <time>2026-06-26T09:57:32Z</time>
      </trkpt>
      <trkpt lat="46.07425" lon="6.78175">
        <ele>1981.4</ele>
        <time>2026-06-26T09:57:33Z</time>
      </trkpt>
      <trkpt lat="46.07425" lon="6.78175">
        <ele>1981.3</ele>
        <time>2026-06-26T09:57:34Z</time>
      </trkpt>
      <trkpt lat="46.07425" lon="6.78175">
        <ele>1981.4</ele>
        <time>2026-06-26T09:57:35Z</time>
      </trkpt>
      <trkpt lat="46.07425" lon="6.78176">
        <ele>1981.5</ele>
        <time>2026-06-26T09:57:36Z</time>
      </trkpt>
      <trkpt lat="46.07425" lon="6.78176">
        <ele>1981.5</ele>
        <time>2026-06-26T09:57:37Z</time>
      </trkpt>
      <trkpt lat="46.07425" lon="6.78175">
        <ele>1981.5</ele>
        <time>2026-06-26T09:57:38Z</time>
      </trkpt>
      <trkpt lat="46.07425" lon="6.78175">
        <ele>1981.5</ele>
        <time>2026-06-26T09:57:39Z</time>
      </trkpt>
      <trkpt lat="46.07425" lon="6.78176">
        <ele>1981.5</ele>
        <time>2026-06-26T09:57:40Z</time>
      </trkpt>
      <trkpt lat="46.07425" lon="6.78175">
        <ele>1981.5</ele>
        <time>2026-06-26T09:57:41Z</time>
      </trkpt>
      <trkpt lat="46.07425" lon="6.78175">
        <ele>1981.5</ele>
        <time>2026-06-26T09:57:42Z</time>
      </trkpt>
      <trkpt lat="46.07425" lon="6.78175">
        <ele>1981.5</ele>
        <time>2026-06-26T09:57:43Z</time>
      </trkpt>
      <trkpt lat="46.07425" lon="6.78175">
        <ele>1981.5</ele>
        <time>2026-06-26T09:57:44Z</time>
      </trkpt>
      <trkpt lat="46.07425" lon="6.78175">
        <ele>1981.6</ele>
        <time>2026-06-26T09:57:45Z</time>
      </trkpt>
      <trkpt lat="46.07425" lon="6.78175">
        <ele>1981.6</ele>
        <time>2026-06-26T09:57:46Z</time>
      </trkpt>
      <trkpt lat="46.07425" lon="6.78175">
        <ele>1981.6</ele>
        <time>2026-06-26T09:57:47Z</time>
      </trkpt>
      <trkpt lat="46.07425" lon="6.78175">
        <ele>1981.6</ele>
        <time>2026-06-26T09:57:48Z</time>
      </trkpt>
      <trkpt lat="46.07425" lon="6.78175">
        <ele>1981.6</ele>
        <time>2026-06-26T09:57:49Z</time>
      </trkpt>
      <trkpt lat="46.07425" lon="6.78175">
        <ele>1981.6</ele>
        <time>2026-06-26T09:57:50Z</time>
      </trkpt>
      <trkpt lat="46.07425" lon="6.78175">
        <ele>1981.6</ele>
        <time>2026-06-26T09:57:51Z</time>
      </trkpt>
      <trkpt lat="46.07425" lon="6.78175">
        <ele>1981.6</ele>
        <time>2026-06-26T09:57:52Z</time>
      </trkpt>
      <trkpt lat="46.07425" lon="6.78175">
        <ele>1981.6</ele>
        <time>2026-06-26T09:57:53Z</time>
      </trkpt>
      <trkpt lat="46.07425" lon="6.78175">
        <ele>1981.6</ele>
        <time>2026-06-26T09:57:54Z</time>
      </trkpt>
      <trkpt lat="46.07425" lon="6.78175">
        <ele>1981.6</ele>
        <time>2026-06-26T09:57:55Z</time>
      </trkpt>
      <trkpt lat="46.07425" lon="6.78175">
        <ele>1981.6</ele>
        <time>2026-06-26T09:57:56Z</time>
      </trkpt>
      <trkpt lat="46.07425" lon="6.78175">
        <ele>1981.6</ele>
        <time>2026-06-26T09:57:57Z</time>
      </trkpt>
      <trkpt lat="46.07425" lon="6.78175">
        <ele>1981.6</ele>
        <time>2026-06-26T09:57:58Z</time>
      </trkpt>
      <trkpt lat="46.07425" lon="6.78175">
        <ele>1981.6</ele>
        <time>2026-06-26T09:57:59Z</time>
      </trkpt>
      <trkpt lat="46.07425" lon="6.78175">
        <ele>1981.6</ele>
        <time>2026-06-26T09:58:00Z</time>
      </trkpt>
      <trkpt lat="46.07425" lon="6.78175">
        <ele>1981.6</ele>
        <time>2026-06-26T09:58:01Z</time>
      </trkpt>
      <trkpt lat="46.07425" lon="6.78175">
        <ele>1981.5</ele>
        <time>2026-06-26T09:58:02Z</time>
      </trkpt>
      <trkpt lat="46.07425" lon="6.78175">
        <ele>1981.5</ele>
        <time>2026-06-26T09:58:03Z</time>
      </trkpt>
      <trkpt lat="46.07425" lon="6.78175">
        <ele>1981.4</ele>
        <time>2026-06-26T09:58:04Z</time>
      </trkpt>
      <trkpt lat="46.07426" lon="6.78175">
        <ele>1981.4</ele>
        <time>2026-06-26T09:58:05Z</time>
      </trkpt>
      <trkpt lat="46.07426" lon="6.78175">
        <ele>1981.5</ele>
        <time>2026-06-26T09:58:06Z</time>
      </trkpt>
      <trkpt lat="46.07426" lon="6.78175">
        <ele>1981.5</ele>
        <time>2026-06-26T09:58:07Z</time>
      </trkpt>
      <trkpt lat="46.07426" lon="6.78175">
        <ele>1981.4</ele>
        <time>2026-06-26T09:58:08Z</time>
      </trkpt>
      <trkpt lat="46.07426" lon="6.78175">
        <ele>1981.5</ele>
        <time>2026-06-26T09:58:09Z</time>
      </trkpt>
      <trkpt lat="46.07426" lon="6.78175">
        <ele>1981.4</ele>
        <time>2026-06-26T09:58:10Z</time>
      </trkpt>
      <trkpt lat="46.07426" lon="6.78175">
        <ele>1981.4</ele>
        <time>2026-06-26T09:58:11Z</time>
      </trkpt>
      <trkpt lat="46.07426" lon="6.78175">
        <ele>1981.4</ele>
        <time>2026-06-26T09:58:12Z</time>
      </trkpt>
      <trkpt lat="46.07426" lon="6.78175">
        <ele>1981.5</ele>
        <time>2026-06-26T09:58:13Z</time>
      </trkpt>
      <trkpt lat="46.07426" lon="6.78175">
        <ele>1981.5</ele>
        <time>2026-06-26T09:58:14Z</time>
      </trkpt>
      <trkpt lat="46.07426" lon="6.78175">
        <ele>1981.5</ele>
        <time>2026-06-26T09:58:15Z</time>
      </trkpt>
      <trkpt lat="46.07426" lon="6.78175">
        <ele>1981.5</ele>
        <time>2026-06-26T09:58:16Z</time>
      </trkpt>
      <trkpt lat="46.07426" lon="6.78175">
        <ele>1981.5</ele>
        <time>2026-06-26T09:58:17Z</time>
      </trkpt>
      <trkpt lat="46.07426" lon="6.78176">
        <ele>1981.5</ele>
        <time>2026-06-26T09:58:18Z</time>
      </trkpt>
      <trkpt lat="46.07426" lon="6.78176">
        <ele>1981.5</ele>
        <time>2026-06-26T09:58:19Z</time>
      </trkpt>
      <trkpt lat="46.07425" lon="6.78176">
        <ele>1981.5</ele>
        <time>2026-06-26T09:58:20Z</time>
      </trkpt>
      <trkpt lat="46.07425" lon="6.78176">
        <ele>1981.5</ele>
        <time>2026-06-26T09:58:21Z</time>
      </trkpt>
      <trkpt lat="46.07425" lon="6.78176">
        <ele>1981.5</ele>
        <time>2026-06-26T09:58:22Z</time>
      </trkpt>
      <trkpt lat="46.07425" lon="6.78176">
        <ele>1981.4</ele>
        <time>2026-06-26T09:58:23Z</time>
      </trkpt>
      <trkpt lat="46.07425" lon="6.78176">
        <ele>1981.4</ele>
        <time>2026-06-26T09:58:24Z</time>
      </trkpt>
      <trkpt lat="46.07425" lon="6.78176">
        <ele>1981.5</ele>
        <time>2026-06-26T09:58:25Z</time>
      </trkpt>
      <trkpt lat="46.07425" lon="6.78176">
        <ele>1981.5</ele>
        <time>2026-06-26T09:58:26Z</time>
      </trkpt>
      <trkpt lat="46.07425" lon="6.78176">
        <ele>1981.6</ele>
        <time>2026-06-26T09:58:27Z</time>
      </trkpt>
      <trkpt lat="46.07425" lon="6.78176">
        <ele>1981.6</ele>
        <time>2026-06-26T09:58:28Z</time>
      </trkpt>
      <trkpt lat="46.07425" lon="6.78176">
        <ele>1981.7</ele>
        <time>2026-06-26T09:58:29Z</time>
      </trkpt>
      <trkpt lat="46.07425" lon="6.78176">
        <ele>1981.7</ele>
        <time>2026-06-26T09:58:30Z</time>
      </trkpt>
      <trkpt lat="46.07425" lon="6.78176">
        <ele>1981.7</ele>
        <time>2026-06-26T09:58:31Z</time>
      </trkpt>
      <trkpt lat="46.07425" lon="6.78176">
        <ele>1981.7</ele>
        <time>2026-06-26T09:58:32Z</time>
      </trkpt>
      <trkpt lat="46.07424" lon="6.78176">
        <ele>1981.7</ele>
        <time>2026-06-26T09:58:33Z</time>
      </trkpt>
      <trkpt lat="46.07424" lon="6.78176">
        <ele>1981.7</ele>
        <time>2026-06-26T09:58:34Z</time>
      </trkpt>
      <trkpt lat="46.07425" lon="6.78176">
        <ele>1981.7</ele>
        <time>2026-06-26T09:58:35Z</time>
      </trkpt>
      <trkpt lat="46.07424" lon="6.78176">
        <ele>1981.7</ele>
        <time>2026-06-26T09:58:36Z</time>
      </trkpt>
      <trkpt lat="46.07424" lon="6.78176">
        <ele>1981.7</ele>
        <time>2026-06-26T09:58:37Z</time>
      </trkpt>
      <trkpt lat="46.07424" lon="6.78176">
        <ele>1981.7</ele>
        <time>2026-06-26T09:58:38Z</time>
      </trkpt>
      <trkpt lat="46.07424" lon="6.78176">
        <ele>1981.6</ele>
        <time>2026-06-26T09:58:39Z</time>
      </trkpt>
      <trkpt lat="46.07424" lon="6.78176">
        <ele>1981.6</ele>
        <time>2026-06-26T09:58:40Z</time>
      </trkpt>
      <trkpt lat="46.07424" lon="6.78176">
        <ele>1981.6</ele>
        <time>2026-06-26T09:58:41Z</time>
      </trkpt>
      <trkpt lat="46.07424" lon="6.78176">
        <ele>1981.6</ele>
        <time>2026-06-26T09:58:42Z</time>
      </trkpt>
      <trkpt lat="46.07424" lon="6.78176">
        <ele>1981.6</ele>
        <time>2026-06-26T09:58:43Z</time>
      </trkpt>
      <trkpt lat="46.07424" lon="6.78176">
        <ele>1981.6</ele>
        <time>2026-06-26T09:58:44Z</time>
      </trkpt>
      <trkpt lat="46.07424" lon="6.78177">
        <ele>1981.6</ele>
        <time>2026-06-26T09:58:45Z</time>
      </trkpt>
      <trkpt lat="46.07424" lon="6.78177">
        <ele>1981.6</ele>
        <time>2026-06-26T09:58:46Z</time>
      </trkpt>
      <trkpt lat="46.07424" lon="6.78177">
        <ele>1981.6</ele>
        <time>2026-06-26T09:58:47Z</time>
      </trkpt>
      <trkpt lat="46.07423" lon="6.78177">
        <ele>1981.6</ele>
        <time>2026-06-26T09:58:48Z</time>
      </trkpt>
      <trkpt lat="46.07423" lon="6.78177">
        <ele>1981.6</ele>
        <time>2026-06-26T09:58:49Z</time>
      </trkpt>
      <trkpt lat="46.07423" lon="6.78177">
        <ele>1981.6</ele>
        <time>2026-06-26T09:58:50Z</time>
      </trkpt>
      <trkpt lat="46.07423" lon="6.78177">
        <ele>1981.6</ele>
        <time>2026-06-26T09:58:51Z</time>
      </trkpt>
      <trkpt lat="46.07423" lon="6.78177">
        <ele>1981.7</ele>
        <time>2026-06-26T09:58:52Z</time>
      </trkpt>
      <trkpt lat="46.07423" lon="6.78177">
        <ele>1981.6</ele>
        <time>2026-06-26T09:58:53Z</time>
      </trkpt>
      <trkpt lat="46.07423" lon="6.78177">
        <ele>1981.6</ele>
        <time>2026-06-26T09:58:54Z</time>
      </trkpt>
      <trkpt lat="46.07423" lon="6.78177">
        <ele>1981.6</ele>
        <time>2026-06-26T09:58:55Z</time>
      </trkpt>
      <trkpt lat="46.07423" lon="6.78177">
        <ele>1981.6</ele>
        <time>2026-06-26T09:58:56Z</time>
      </trkpt>
      <trkpt lat="46.07423" lon="6.78177">
        <ele>1981.6</ele>
        <time>2026-06-26T09:58:57Z</time>
      </trkpt>
      <trkpt lat="46.07423" lon="6.78177">
        <ele>1981.5</ele>
        <time>2026-06-26T09:58:58Z</time>
      </trkpt>
      <trkpt lat="46.07423" lon="6.78177">
        <ele>1981.5</ele>
        <time>2026-06-26T09:58:59Z</time>
      </trkpt>
      <trkpt lat="46.07423" lon="6.78177">
        <ele>1981.5</ele>
        <time>2026-06-26T09:59:00Z</time>
      </trkpt>
      <trkpt lat="46.07423" lon="6.78177">
        <ele>1981.5</ele>
        <time>2026-06-26T09:59:01Z</time>
      </trkpt>
      <trkpt lat="46.07423" lon="6.78177">
        <ele>1981.5</ele>
        <time>2026-06-26T09:59:02Z</time>
      </trkpt>
      <trkpt lat="46.07423" lon="6.78177">
        <ele>1981.5</ele>
        <time>2026-06-26T09:59:03Z</time>
      </trkpt>
      <trkpt lat="46.07423" lon="6.78177">
        <ele>1981.5</ele>
        <time>2026-06-26T09:59:04Z</time>
      </trkpt>
      <trkpt lat="46.07423" lon="6.78177">
        <ele>1981.5</ele>
        <time>2026-06-26T09:59:05Z</time>
      </trkpt>
      <trkpt lat="46.07423" lon="6.78177">
        <ele>1981.4</ele>
        <time>2026-06-26T09:59:06Z</time>
      </trkpt>
      <trkpt lat="46.07423" lon="6.78177">
        <ele>1981.4</ele>
        <time>2026-06-26T09:59:07Z</time>
      </trkpt>
      <trkpt lat="46.07423" lon="6.78177">
        <ele>1981.4</ele>
        <time>2026-06-26T09:59:08Z</time>
      </trkpt>
      <trkpt lat="46.07423" lon="6.78177">
        <ele>1981.4</ele>
        <time>2026-06-26T09:59:09Z</time>
      </trkpt>
      <trkpt lat="46.07423" lon="6.78177">
        <ele>1981.4</ele>
        <time>2026-06-26T09:59:10Z</time>
      </trkpt>
      <trkpt lat="46.07423" lon="6.78177">
        <ele>1981.3</ele>
        <time>2026-06-26T09:59:11Z</time>
      </trkpt>
      <trkpt lat="46.07423" lon="6.78177">
        <ele>1981.4</ele>
        <time>2026-06-26T09:59:12Z</time>
      </trkpt>
      <trkpt lat="46.07423" lon="6.78177">
        <ele>1981.4</ele>
        <time>2026-06-26T09:59:13Z</time>
      </trkpt>
      <trkpt lat="46.07423" lon="6.78177">
        <ele>1981.4</ele>
        <time>2026-06-26T09:59:14Z</time>
      </trkpt>
      <trkpt lat="46.07423" lon="6.78177">
        <ele>1981.3</ele>
        <time>2026-06-26T09:59:15Z</time>
      </trkpt>
      <trkpt lat="46.07423" lon="6.78177">
        <ele>1981.3</ele>
        <time>2026-06-26T09:59:16Z</time>
      </trkpt>
      <trkpt lat="46.07423" lon="6.78177">
        <ele>1981.3</ele>
        <time>2026-06-26T09:59:17Z</time>
      </trkpt>
      <trkpt lat="46.07423" lon="6.78177">
        <ele>1981.3</ele>
        <time>2026-06-26T09:59:18Z</time>
      </trkpt>
      <trkpt lat="46.07423" lon="6.78177">
        <ele>1981.3</ele>
        <time>2026-06-26T09:59:19Z</time>
      </trkpt>
      <trkpt lat="46.07423" lon="6.78177">
        <ele>1981.3</ele>
        <time>2026-06-26T09:59:20Z</time>
      </trkpt>
      <trkpt lat="46.07423" lon="6.78177">
        <ele>1981.3</ele>
        <time>2026-06-26T09:59:21Z</time>
      </trkpt>
      <trkpt lat="46.07423" lon="6.78177">
        <ele>1981.3</ele>
        <time>2026-06-26T09:59:22Z</time>
      </trkpt>
      <trkpt lat="46.07422" lon="6.78177">
        <ele>1981.4</ele>
        <time>2026-06-26T09:59:23Z</time>
      </trkpt>
      <trkpt lat="46.07422" lon="6.78177">
        <ele>1981.4</ele>
        <time>2026-06-26T09:59:24Z</time>
      </trkpt>
      <trkpt lat="46.07422" lon="6.78177">
        <ele>1981.4</ele>
        <time>2026-06-26T09:59:25Z</time>
      </trkpt>
      <trkpt lat="46.07422" lon="6.78177">
        <ele>1981.4</ele>
        <time>2026-06-26T09:59:26Z</time>
      </trkpt>
      <trkpt lat="46.07422" lon="6.78177">
        <ele>1981.4</ele>
        <time>2026-06-26T09:59:27Z</time>
      </trkpt>
      <trkpt lat="46.07422" lon="6.78177">
        <ele>1981.4</ele>
        <time>2026-06-26T09:59:28Z</time>
      </trkpt>
      <trkpt lat="46.07422" lon="6.78177">
        <ele>1981.4</ele>
        <time>2026-06-26T09:59:29Z</time>
      </trkpt>
      <trkpt lat="46.07422" lon="6.78177">
        <ele>1981.4</ele>
        <time>2026-06-26T09:59:30Z</time>
      </trkpt>
      <trkpt lat="46.07422" lon="6.78177">
        <ele>1981.4</ele>
        <time>2026-06-26T09:59:31Z</time>
      </trkpt>
      <trkpt lat="46.07422" lon="6.78177">
        <ele>1981.4</ele>
        <time>2026-06-26T09:59:32Z</time>
      </trkpt>
      <trkpt lat="46.07422" lon="6.78177">
        <ele>1981.5</ele>
        <time>2026-06-26T09:59:33Z</time>
      </trkpt>
      <trkpt lat="46.07422" lon="6.78177">
        <ele>1981.5</ele>
        <time>2026-06-26T09:59:34Z</time>
      </trkpt>
      <trkpt lat="46.07422" lon="6.78177">
        <ele>1981.6</ele>
        <time>2026-06-26T09:59:35Z</time>
      </trkpt>
      <trkpt lat="46.07422" lon="6.78177">
        <ele>1981.7</ele>
        <time>2026-06-26T09:59:36Z</time>
      </trkpt>
      <trkpt lat="46.07422" lon="6.78177">
        <ele>1981.8</ele>
        <time>2026-06-26T09:59:37Z</time>
      </trkpt>
      <trkpt lat="46.07422" lon="6.78177">
        <ele>1981.8</ele>
        <time>2026-06-26T09:59:38Z</time>
      </trkpt>
      <trkpt lat="46.07422" lon="6.78177">
        <ele>1981.8</ele>
        <time>2026-06-26T09:59:39Z</time>
      </trkpt>
      <trkpt lat="46.07422" lon="6.78177">
        <ele>1981.9</ele>
        <time>2026-06-26T09:59:40Z</time>
      </trkpt>
      <trkpt lat="46.07422" lon="6.78177">
        <ele>1981.9</ele>
        <time>2026-06-26T09:59:41Z</time>
      </trkpt>
      <trkpt lat="46.07422" lon="6.78177">
        <ele>1982</ele>
        <time>2026-06-26T09:59:42Z</time>
      </trkpt>
      <trkpt lat="46.07422" lon="6.78177">
        <ele>1982</ele>
        <time>2026-06-26T09:59:43Z</time>
      </trkpt>
      <trkpt lat="46.07421" lon="6.78177">
        <ele>1982.1</ele>
        <time>2026-06-26T09:59:44Z</time>
      </trkpt>
      <trkpt lat="46.07421" lon="6.78177">
        <ele>1982</ele>
        <time>2026-06-26T09:59:45Z</time>
      </trkpt>
      <trkpt lat="46.07421" lon="6.78177">
        <ele>1982</ele>
        <time>2026-06-26T09:59:46Z</time>
      </trkpt>
      <trkpt lat="46.07421" lon="6.78177">
        <ele>1981.9</ele>
        <time>2026-06-26T09:59:47Z</time>
      </trkpt>
      <trkpt lat="46.07421" lon="6.78177">
        <ele>1982</ele>
        <time>2026-06-26T09:59:48Z</time>
      </trkpt>
      <trkpt lat="46.07422" lon="6.78177">
        <ele>1982.1</ele>
        <time>2026-06-26T09:59:49Z</time>
      </trkpt>
      <trkpt lat="46.07422" lon="6.78177">
        <ele>1982.1</ele>
        <time>2026-06-26T09:59:50Z</time>
      </trkpt>
      <trkpt lat="46.07422" lon="6.78177">
        <ele>1982.2</ele>
        <time>2026-06-26T09:59:51Z</time>
      </trkpt>
      <trkpt lat="46.07422" lon="6.78178">
        <ele>1982.2</ele>
        <time>2026-06-26T09:59:52Z</time>
      </trkpt>
      <trkpt lat="46.07422" lon="6.78178">
        <ele>1982.2</ele>
        <time>2026-06-26T09:59:53Z</time>
      </trkpt>
      <trkpt lat="46.07422" lon="6.78178">
        <ele>1982.1</ele>
        <time>2026-06-26T09:59:54Z</time>
      </trkpt>
      <trkpt lat="46.07422" lon="6.78178">
        <ele>1982.1</ele>
        <time>2026-06-26T09:59:55Z</time>
      </trkpt>
      <trkpt lat="46.07422" lon="6.78178">
        <ele>1982.1</ele>
        <time>2026-06-26T09:59:56Z</time>
      </trkpt>
      <trkpt lat="46.07422" lon="6.78178">
        <ele>1982.1</ele>
        <time>2026-06-26T09:59:57Z</time>
      </trkpt>
      <trkpt lat="46.07422" lon="6.78178">
        <ele>1982.1</ele>
        <time>2026-06-26T09:59:58Z</time>
      </trkpt>
      <trkpt lat="46.07422" lon="6.78178">
        <ele>1982.1</ele>
        <time>2026-06-26T09:59:59Z</time>
      </trkpt>
      <trkpt lat="46.07422" lon="6.78178">
        <ele>1982.2</ele>
        <time>2026-06-26T10:00:00Z</time>
      </trkpt>
      <trkpt lat="46.07422" lon="6.78178">
        <ele>1982.2</ele>
        <time>2026-06-26T10:00:01Z</time>
      </trkpt>
      <trkpt lat="46.07422" lon="6.78178">
        <ele>1982.1</ele>
        <time>2026-06-26T10:00:02Z</time>
      </trkpt>
      <trkpt lat="46.07422" lon="6.78178">
        <ele>1982.2</ele>
        <time>2026-06-26T10:00:03Z</time>
      </trkpt>
      <trkpt lat="46.07422" lon="6.78178">
        <ele>1982.2</ele>
        <time>2026-06-26T10:00:04Z</time>
      </trkpt>
      <trkpt lat="46.07423" lon="6.78178">
        <ele>1982.2</ele>
        <time>2026-06-26T10:00:05Z</time>
      </trkpt>
      <trkpt lat="46.07423" lon="6.78178">
        <ele>1982.3</ele>
        <time>2026-06-26T10:00:06Z</time>
      </trkpt>
      <trkpt lat="46.07423" lon="6.78178">
        <ele>1982.3</ele>
        <time>2026-06-26T10:00:07Z</time>
      </trkpt>
      <trkpt lat="46.07423" lon="6.78177">
        <ele>1982.3</ele>
        <time>2026-06-26T10:00:08Z</time>
      </trkpt>
      <trkpt lat="46.07423" lon="6.78177">
        <ele>1982.2</ele>
        <time>2026-06-26T10:00:09Z</time>
      </trkpt>
      <trkpt lat="46.07423" lon="6.78177">
        <ele>1982.2</ele>
        <time>2026-06-26T10:00:10Z</time>
      </trkpt>
      <trkpt lat="46.07423" lon="6.78177">
        <ele>1982.2</ele>
        <time>2026-06-26T10:00:11Z</time>
      </trkpt>
      <trkpt lat="46.07423" lon="6.78177">
        <ele>1982.1</ele>
        <time>2026-06-26T10:00:12Z</time>
      </trkpt>
      <trkpt lat="46.07423" lon="6.78177">
        <ele>1982.1</ele>
        <time>2026-06-26T10:00:13Z</time>
      </trkpt>
      <trkpt lat="46.07423" lon="6.78177">
        <ele>1982.1</ele>
        <time>2026-06-26T10:00:14Z</time>
      </trkpt>
      <trkpt lat="46.07423" lon="6.78177">
        <ele>1982.2</ele>
        <time>2026-06-26T10:00:15Z</time>
      </trkpt>
      <trkpt lat="46.07423" lon="6.78177">
        <ele>1982.2</ele>
        <time>2026-06-26T10:00:16Z</time>
      </trkpt>
      <trkpt lat="46.07423" lon="6.78177">
        <ele>1982.3</ele>
        <time>2026-06-26T10:00:17Z</time>
      </trkpt>
      <trkpt lat="46.07423" lon="6.78177">
        <ele>1982.3</ele>
        <time>2026-06-26T10:00:18Z</time>
      </trkpt>
      <trkpt lat="46.07422" lon="6.78177">
        <ele>1982.3</ele>
        <time>2026-06-26T10:00:19Z</time>
      </trkpt>
      <trkpt lat="46.07423" lon="6.78177">
        <ele>1982.3</ele>
        <time>2026-06-26T10:00:20Z</time>
      </trkpt>
      <trkpt lat="46.07423" lon="6.78177">
        <ele>1982.3</ele>
        <time>2026-06-26T10:00:21Z</time>
      </trkpt>
      <trkpt lat="46.07422" lon="6.78177">
        <ele>1982.3</ele>
        <time>2026-06-26T10:00:22Z</time>
      </trkpt>
      <trkpt lat="46.07422" lon="6.78177">
        <ele>1982.3</ele>
        <time>2026-06-26T10:00:23Z</time>
      </trkpt>
      <trkpt lat="46.07422" lon="6.78177">
        <ele>1982.3</ele>
        <time>2026-06-26T10:00:24Z</time>
      </trkpt>
      <trkpt lat="46.07422" lon="6.78177">
        <ele>1982.2</ele>
        <time>2026-06-26T10:00:25Z</time>
      </trkpt>
      <trkpt lat="46.07422" lon="6.78178">
        <ele>1982.1</ele>
        <time>2026-06-26T10:00:26Z</time>
      </trkpt>
      <trkpt lat="46.07422" lon="6.78178">
        <ele>1982.1</ele>
        <time>2026-06-26T10:00:27Z</time>
      </trkpt>
      <trkpt lat="46.07422" lon="6.78178">
        <ele>1982</ele>
        <time>2026-06-26T10:00:28Z</time>
      </trkpt>
      <trkpt lat="46.07422" lon="6.78178">
        <ele>1982</ele>
        <time>2026-06-26T10:00:29Z</time>
      </trkpt>
      <trkpt lat="46.07422" lon="6.78178">
        <ele>1981.9</ele>
        <time>2026-06-26T10:00:30Z</time>
      </trkpt>
      <trkpt lat="46.07422" lon="6.78178">
        <ele>1981.9</ele>
        <time>2026-06-26T10:00:31Z</time>
      </trkpt>
      <trkpt lat="46.07422" lon="6.78178">
        <ele>1981.9</ele>
        <time>2026-06-26T10:00:32Z</time>
      </trkpt>
      <trkpt lat="46.07422" lon="6.78178">
        <ele>1981.9</ele>
        <time>2026-06-26T10:00:33Z</time>
      </trkpt>
      <trkpt lat="46.07422" lon="6.78178">
        <ele>1982.1</ele>
        <time>2026-06-26T10:00:34Z</time>
      </trkpt>
      <trkpt lat="46.07422" lon="6.78177">
        <ele>1982.1</ele>
        <time>2026-06-26T10:00:35Z</time>
      </trkpt>
      <trkpt lat="46.07422" lon="6.78177">
        <ele>1982</ele>
        <time>2026-06-26T10:00:36Z</time>
      </trkpt>
      <trkpt lat="46.07422" lon="6.78177">
        <ele>1982</ele>
        <time>2026-06-26T10:00:37Z</time>
      </trkpt>
      <trkpt lat="46.07422" lon="6.78177">
        <ele>1982</ele>
        <time>2026-06-26T10:00:38Z</time>
      </trkpt>
      <trkpt lat="46.07422" lon="6.78177">
        <ele>1981.9</ele>
        <time>2026-06-26T10:00:39Z</time>
      </trkpt>
      <trkpt lat="46.07422" lon="6.78177">
        <ele>1981.9</ele>
        <time>2026-06-26T10:00:40Z</time>
      </trkpt>
      <trkpt lat="46.07422" lon="6.78177">
        <ele>1981.9</ele>
        <time>2026-06-26T10:00:41Z</time>
      </trkpt>
      <trkpt lat="46.07422" lon="6.78177">
        <ele>1981.9</ele>
        <time>2026-06-26T10:00:42Z</time>
      </trkpt>
      <trkpt lat="46.07422" lon="6.78178">
        <ele>1981.9</ele>
        <time>2026-06-26T10:00:43Z</time>
      </trkpt>
      <trkpt lat="46.07422" lon="6.78178">
        <ele>1981.9</ele>
        <time>2026-06-26T10:00:44Z</time>
      </trkpt>
      <trkpt lat="46.07422" lon="6.78178">
        <ele>1981.9</ele>
        <time>2026-06-26T10:00:45Z</time>
      </trkpt>
      <trkpt lat="46.07422" lon="6.78178">
        <ele>1981.9</ele>
        <time>2026-06-26T10:00:46Z</time>
      </trkpt>
      <trkpt lat="46.07422" lon="6.78178">
        <ele>1982</ele>
        <time>2026-06-26T10:00:47Z</time>
      </trkpt>
      <trkpt lat="46.07422" lon="6.78178">
        <ele>1982.1</ele>
        <time>2026-06-26T10:00:48Z</time>
      </trkpt>
      <trkpt lat="46.07422" lon="6.78178">
        <ele>1981.9</ele>
        <time>2026-06-26T10:00:49Z</time>
      </trkpt>
      <trkpt lat="46.07422" lon="6.78178">
        <ele>1981.8</ele>
        <time>2026-06-26T10:00:50Z</time>
      </trkpt>
      <trkpt lat="46.07422" lon="6.78178">
        <ele>1981.8</ele>
        <time>2026-06-26T10:00:51Z</time>
      </trkpt>
      <trkpt lat="46.07422" lon="6.78178">
        <ele>1981.8</ele>
        <time>2026-06-26T10:00:52Z</time>
      </trkpt>
      <trkpt lat="46.07422" lon="6.78178">
        <ele>1981.7</ele>
        <time>2026-06-26T10:00:53Z</time>
      </trkpt>
      <trkpt lat="46.07422" lon="6.78178">
        <ele>1981.7</ele>
        <time>2026-06-26T10:00:54Z</time>
      </trkpt>
      <trkpt lat="46.07422" lon="6.78178">
        <ele>1981.8</ele>
        <time>2026-06-26T10:00:55Z</time>
      </trkpt>
      <trkpt lat="46.07423" lon="6.78178">
        <ele>1981.7</ele>
        <time>2026-06-26T10:00:56Z</time>
      </trkpt>
      <trkpt lat="46.07423" lon="6.78178">
        <ele>1981.6</ele>
        <time>2026-06-26T10:00:57Z</time>
      </trkpt>
      <trkpt lat="46.07423" lon="6.78178">
        <ele>1981.6</ele>
        <time>2026-06-26T10:00:58Z</time>
      </trkpt>
      <trkpt lat="46.07423" lon="6.78178">
        <ele>1981.6</ele>
        <time>2026-06-26T10:00:59Z</time>
      </trkpt>
      <trkpt lat="46.07423" lon="6.78178">
        <ele>1981.5</ele>
        <time>2026-06-26T10:01:00Z</time>
      </trkpt>
      <trkpt lat="46.07423" lon="6.78178">
        <ele>1981.7</ele>
        <time>2026-06-26T10:01:01Z</time>
      </trkpt>
      <trkpt lat="46.07423" lon="6.78178">
        <ele>1981.7</ele>
        <time>2026-06-26T10:01:02Z</time>
      </trkpt>
      <trkpt lat="46.07423" lon="6.78178">
        <ele>1981.7</ele>
        <time>2026-06-26T10:01:03Z</time>
      </trkpt>
      <trkpt lat="46.07423" lon="6.78178">
        <ele>1981.6</ele>
        <time>2026-06-26T10:01:04Z</time>
      </trkpt>
      <trkpt lat="46.07423" lon="6.78178">
        <ele>1981.6</ele>
        <time>2026-06-26T10:01:05Z</time>
      </trkpt>
      <trkpt lat="46.07423" lon="6.78179">
        <ele>1981.5</ele>
        <time>2026-06-26T10:01:06Z</time>
      </trkpt>
      <trkpt lat="46.07423" lon="6.78179">
        <ele>1981.5</ele>
        <time>2026-06-26T10:01:07Z</time>
      </trkpt>
      <trkpt lat="46.07423" lon="6.78179">
        <ele>1981.5</ele>
        <time>2026-06-26T10:01:08Z</time>
      </trkpt>
      <trkpt lat="46.07423" lon="6.78179">
        <ele>1981.5</ele>
        <time>2026-06-26T10:01:09Z</time>
      </trkpt>
      <trkpt lat="46.07423" lon="6.78179">
        <ele>1981.5</ele>
        <time>2026-06-26T10:01:10Z</time>
      </trkpt>
      <trkpt lat="46.07423" lon="6.78179">
        <ele>1981.5</ele>
        <time>2026-06-26T10:01:11Z</time>
      </trkpt>
      <trkpt lat="46.07423" lon="6.78179">
        <ele>1981.4</ele>
        <time>2026-06-26T10:01:12Z</time>
      </trkpt>
      <trkpt lat="46.07423" lon="6.78179">
        <ele>1981.5</ele>
        <time>2026-06-26T10:01:13Z</time>
      </trkpt>
      <trkpt lat="46.07422" lon="6.78179">
        <ele>1981.5</ele>
        <time>2026-06-26T10:01:14Z</time>
      </trkpt>
      <trkpt lat="46.07422" lon="6.78179">
        <ele>1981.5</ele>
        <time>2026-06-26T10:01:15Z</time>
      </trkpt>
      <trkpt lat="46.07422" lon="6.78179">
        <ele>1981.5</ele>
        <time>2026-06-26T10:01:16Z</time>
      </trkpt>
      <trkpt lat="46.07422" lon="6.78179">
        <ele>1981.6</ele>
        <time>2026-06-26T10:01:17Z</time>
      </trkpt>
      <trkpt lat="46.07422" lon="6.78179">
        <ele>1981.6</ele>
        <time>2026-06-26T10:01:18Z</time>
      </trkpt>
      <trkpt lat="46.07422" lon="6.78179">
        <ele>1981.5</ele>
        <time>2026-06-26T10:01:19Z</time>
      </trkpt>
      <trkpt lat="46.07422" lon="6.78179">
        <ele>1981.5</ele>
        <time>2026-06-26T10:01:20Z</time>
      </trkpt>
      <trkpt lat="46.07422" lon="6.78179">
        <ele>1981.5</ele>
        <time>2026-06-26T10:01:21Z</time>
      </trkpt>
      <trkpt lat="46.07423" lon="6.78179">
        <ele>1981.5</ele>
        <time>2026-06-26T10:01:22Z</time>
      </trkpt>
      <trkpt lat="46.07423" lon="6.78179">
        <ele>1981.5</ele>
        <time>2026-06-26T10:01:23Z</time>
      </trkpt>
      <trkpt lat="46.07423" lon="6.78179">
        <ele>1981.4</ele>
        <time>2026-06-26T10:01:24Z</time>
      </trkpt>
      <trkpt lat="46.07423" lon="6.78179">
        <ele>1981.4</ele>
        <time>2026-06-26T10:01:25Z</time>
      </trkpt>
      <trkpt lat="46.07423" lon="6.78179">
        <ele>1981.5</ele>
        <time>2026-06-26T10:01:26Z</time>
      </trkpt>
      <trkpt lat="46.07423" lon="6.78179">
        <ele>1981.5</ele>
        <time>2026-06-26T10:01:27Z</time>
      </trkpt>
      <trkpt lat="46.07422" lon="6.78179">
        <ele>1981.5</ele>
        <time>2026-06-26T10:01:28Z</time>
      </trkpt>
      <trkpt lat="46.07422" lon="6.78179">
        <ele>1981.5</ele>
        <time>2026-06-26T10:01:29Z</time>
      </trkpt>
      <trkpt lat="46.07422" lon="6.78179">
        <ele>1981.5</ele>
        <time>2026-06-26T10:01:30Z</time>
      </trkpt>
      <trkpt lat="46.07422" lon="6.78179">
        <ele>1981.5</ele>
        <time>2026-06-26T10:01:31Z</time>
      </trkpt>
      <trkpt lat="46.07422" lon="6.78179">
        <ele>1981.5</ele>
        <time>2026-06-26T10:01:32Z</time>
      </trkpt>
      <trkpt lat="46.07422" lon="6.78179">
        <ele>1981.4</ele>
        <time>2026-06-26T10:01:33Z</time>
      </trkpt>
      <trkpt lat="46.07422" lon="6.78179">
        <ele>1981.4</ele>
        <time>2026-06-26T10:01:34Z</time>
      </trkpt>
      <trkpt lat="46.07422" lon="6.78179">
        <ele>1981.4</ele>
        <time>2026-06-26T10:01:35Z</time>
      </trkpt>
      <trkpt lat="46.07422" lon="6.78179">
        <ele>1981.4</ele>
        <time>2026-06-26T10:01:36Z</time>
      </trkpt>
      <trkpt lat="46.07422" lon="6.78179">
        <ele>1981.5</ele>
        <time>2026-06-26T10:01:37Z</time>
      </trkpt>
      <trkpt lat="46.07422" lon="6.78179">
        <ele>1981.5</ele>
        <time>2026-06-26T10:01:38Z</time>
      </trkpt>
      <trkpt lat="46.07422" lon="6.78179">
        <ele>1981.6</ele>
        <time>2026-06-26T10:01:39Z</time>
      </trkpt>
      <trkpt lat="46.07422" lon="6.78179">
        <ele>1981.5</ele>
        <time>2026-06-26T10:01:40Z</time>
      </trkpt>
      <trkpt lat="46.07422" lon="6.78179">
        <ele>1981.5</ele>
        <time>2026-06-26T10:01:41Z</time>
      </trkpt>
      <trkpt lat="46.07422" lon="6.78179">
        <ele>1981.5</ele>
        <time>2026-06-26T10:01:42Z</time>
      </trkpt>
      <trkpt lat="46.07422" lon="6.78179">
        <ele>1981.5</ele>
        <time>2026-06-26T10:01:43Z</time>
      </trkpt>
      <trkpt lat="46.07422" lon="6.78179">
        <ele>1981.4</ele>
        <time>2026-06-26T10:01:44Z</time>
      </trkpt>
      <trkpt lat="46.07422" lon="6.78179">
        <ele>1981.4</ele>
        <time>2026-06-26T10:01:45Z</time>
      </trkpt>
      <trkpt lat="46.07422" lon="6.78179">
        <ele>1981.4</ele>
        <time>2026-06-26T10:01:46Z</time>
      </trkpt>
      <trkpt lat="46.07422" lon="6.78179">
        <ele>1981.4</ele>
        <time>2026-06-26T10:01:47Z</time>
      </trkpt>
      <trkpt lat="46.07422" lon="6.78179">
        <ele>1981.4</ele>
        <time>2026-06-26T10:01:48Z</time>
      </trkpt>
      <trkpt lat="46.07422" lon="6.78179">
        <ele>1981.4</ele>
        <time>2026-06-26T10:01:49Z</time>
      </trkpt>
      <trkpt lat="46.07422" lon="6.78179">
        <ele>1981.3</ele>
        <time>2026-06-26T10:01:50Z</time>
      </trkpt>
      <trkpt lat="46.07422" lon="6.78179">
        <ele>1981.3</ele>
        <time>2026-06-26T10:01:51Z</time>
      </trkpt>
      <trkpt lat="46.07422" lon="6.78179">
        <ele>1981.3</ele>
        <time>2026-06-26T10:01:52Z</time>
      </trkpt>
      <trkpt lat="46.07422" lon="6.78179">
        <ele>1981.3</ele>
        <time>2026-06-26T10:01:53Z</time>
      </trkpt>
      <trkpt lat="46.07422" lon="6.78179">
        <ele>1981.3</ele>
        <time>2026-06-26T10:01:54Z</time>
      </trkpt>
      <trkpt lat="46.07422" lon="6.78179">
        <ele>1981.2</ele>
        <time>2026-06-26T10:01:55Z</time>
      </trkpt>
      <trkpt lat="46.07422" lon="6.78179">
        <ele>1981.2</ele>
        <time>2026-06-26T10:01:56Z</time>
      </trkpt>
      <trkpt lat="46.07422" lon="6.78179">
        <ele>1981.3</ele>
        <time>2026-06-26T10:01:57Z</time>
      </trkpt>
      <trkpt lat="46.07422" lon="6.78179">
        <ele>1981.3</ele>
        <time>2026-06-26T10:01:58Z</time>
      </trkpt>
      <trkpt lat="46.07422" lon="6.78179">
        <ele>1981.3</ele>
        <time>2026-06-26T10:01:59Z</time>
      </trkpt>
      <trkpt lat="46.07422" lon="6.78179">
        <ele>1981.2</ele>
        <time>2026-06-26T10:02:00Z</time>
      </trkpt>
      <trkpt lat="46.07422" lon="6.78179">
        <ele>1981.2</ele>
        <time>2026-06-26T10:02:01Z</time>
      </trkpt>
      <trkpt lat="46.07422" lon="6.78179">
        <ele>1981.1</ele>
        <time>2026-06-26T10:02:02Z</time>
      </trkpt>
      <trkpt lat="46.07422" lon="6.78179">
        <ele>1981</ele>
        <time>2026-06-26T10:02:03Z</time>
      </trkpt>
      <trkpt lat="46.07422" lon="6.78179">
        <ele>1981</ele>
        <time>2026-06-26T10:02:04Z</time>
      </trkpt>
      <trkpt lat="46.07422" lon="6.78179">
        <ele>1981.1</ele>
        <time>2026-06-26T10:02:05Z</time>
      </trkpt>
      <trkpt lat="46.07422" lon="6.78178">
        <ele>1981</ele>
        <time>2026-06-26T10:02:06Z</time>
      </trkpt>
      <trkpt lat="46.07422" lon="6.78178">
        <ele>1980.9</ele>
        <time>2026-06-26T10:02:07Z</time>
      </trkpt>
      <trkpt lat="46.07422" lon="6.78179">
        <ele>1980.9</ele>
        <time>2026-06-26T10:02:08Z</time>
      </trkpt>
      <trkpt lat="46.07422" lon="6.78179">
        <ele>1980.9</ele>
        <time>2026-06-26T10:02:09Z</time>
      </trkpt>
      <trkpt lat="46.07422" lon="6.78179">
        <ele>1980.9</ele>
        <time>2026-06-26T10:02:10Z</time>
      </trkpt>
      <trkpt lat="46.07422" lon="6.78179">
        <ele>1980.9</ele>
        <time>2026-06-26T10:02:11Z</time>
      </trkpt>
      <trkpt lat="46.07422" lon="6.78179">
        <ele>1980.8</ele>
        <time>2026-06-26T10:02:12Z</time>
      </trkpt>
      <trkpt lat="46.07422" lon="6.78179">
        <ele>1980.9</ele>
        <time>2026-06-26T10:02:13Z</time>
      </trkpt>
      <trkpt lat="46.07422" lon="6.78179">
        <ele>1980.9</ele>
        <time>2026-06-26T10:02:14Z</time>
      </trkpt>
      <trkpt lat="46.07422" lon="6.78179">
        <ele>1981</ele>
        <time>2026-06-26T10:02:15Z</time>
      </trkpt>
      <trkpt lat="46.07422" lon="6.78179">
        <ele>1981.1</ele>
        <time>2026-06-26T10:02:16Z</time>
      </trkpt>
      <trkpt lat="46.07422" lon="6.78179">
        <ele>1981.1</ele>
        <time>2026-06-26T10:02:17Z</time>
      </trkpt>
      <trkpt lat="46.07422" lon="6.78179">
        <ele>1981.1</ele>
        <time>2026-06-26T10:02:18Z</time>
      </trkpt>
      <trkpt lat="46.07422" lon="6.78179">
        <ele>1981.1</ele>
        <time>2026-06-26T10:02:19Z</time>
      </trkpt>
      <trkpt lat="46.07422" lon="6.78179">
        <ele>1981.1</ele>
        <time>2026-06-26T10:02:20Z</time>
      </trkpt>
      <trkpt lat="46.07422" lon="6.78179">
        <ele>1981.2</ele>
        <time>2026-06-26T10:02:21Z</time>
      </trkpt>
      <trkpt lat="46.07422" lon="6.78179">
        <ele>1981.2</ele>
        <time>2026-06-26T10:02:22Z</time>
      </trkpt>
      <trkpt lat="46.07422" lon="6.78179">
        <ele>1981.2</ele>
        <time>2026-06-26T10:02:23Z</time>
      </trkpt>
      <trkpt lat="46.07422" lon="6.78179">
        <ele>1981.2</ele>
        <time>2026-06-26T10:02:24Z</time>
      </trkpt>
      <trkpt lat="46.07422" lon="6.78179">
        <ele>1981.2</ele>
        <time>2026-06-26T10:02:25Z</time>
      </trkpt>
      <trkpt lat="46.07422" lon="6.78179">
        <ele>1981.2</ele>
        <time>2026-06-26T10:02:26Z</time>
      </trkpt>
      <trkpt lat="46.07422" lon="6.78179">
        <ele>1981.1</ele>
        <time>2026-06-26T10:02:27Z</time>
      </trkpt>
      <trkpt lat="46.07422" lon="6.78179">
        <ele>1981.1</ele>
        <time>2026-06-26T10:02:28Z</time>
      </trkpt>
      <trkpt lat="46.07422" lon="6.78179">
        <ele>1981.1</ele>
        <time>2026-06-26T10:02:29Z</time>
      </trkpt>
      <trkpt lat="46.07422" lon="6.78179">
        <ele>1981.1</ele>
        <time>2026-06-26T10:02:30Z</time>
      </trkpt>
      <trkpt lat="46.07422" lon="6.78179">
        <ele>1981</ele>
        <time>2026-06-26T10:02:31Z</time>
      </trkpt>
      <trkpt lat="46.07422" lon="6.78179">
        <ele>1981</ele>
        <time>2026-06-26T10:02:32Z</time>
      </trkpt>
      <trkpt lat="46.07422" lon="6.78179">
        <ele>1981</ele>
        <time>2026-06-26T10:02:33Z</time>
      </trkpt>
      <trkpt lat="46.07422" lon="6.78179">
        <ele>1981</ele>
        <time>2026-06-26T10:02:34Z</time>
      </trkpt>
      <trkpt lat="46.07422" lon="6.78179">
        <ele>1981</ele>
        <time>2026-06-26T10:02:35Z</time>
      </trkpt>
      <trkpt lat="46.07422" lon="6.78179">
        <ele>1980.9</ele>
        <time>2026-06-26T10:02:36Z</time>
      </trkpt>
      <trkpt lat="46.07423" lon="6.78179">
        <ele>1980.9</ele>
        <time>2026-06-26T10:02:37Z</time>
      </trkpt>
      <trkpt lat="46.07423" lon="6.78179">
        <ele>1980.9</ele>
        <time>2026-06-26T10:02:38Z</time>
      </trkpt>
      <trkpt lat="46.07423" lon="6.78179">
        <ele>1980.9</ele>
        <time>2026-06-26T10:02:39Z</time>
      </trkpt>
      <trkpt lat="46.07423" lon="6.78179">
        <ele>1981</ele>
        <time>2026-06-26T10:02:40Z</time>
      </trkpt>
      <trkpt lat="46.07423" lon="6.78179">
        <ele>1981</ele>
        <time>2026-06-26T10:02:41Z</time>
      </trkpt>
      <trkpt lat="46.07423" lon="6.7818">
        <ele>1981.1</ele>
        <time>2026-06-26T10:02:42Z</time>
      </trkpt>
      <trkpt lat="46.07422" lon="6.7818">
        <ele>1981.1</ele>
        <time>2026-06-26T10:02:43Z</time>
      </trkpt>
      <trkpt lat="46.07422" lon="6.7818">
        <ele>1981</ele>
        <time>2026-06-26T10:02:44Z</time>
      </trkpt>
      <trkpt lat="46.07422" lon="6.7818">
        <ele>1981</ele>
        <time>2026-06-26T10:02:45Z</time>
      </trkpt>
      <trkpt lat="46.07422" lon="6.7818">
        <ele>1981.1</ele>
        <time>2026-06-26T10:02:46Z</time>
      </trkpt>
      <trkpt lat="46.07422" lon="6.7818">
        <ele>1981.1</ele>
        <time>2026-06-26T10:02:47Z</time>
      </trkpt>
      <trkpt lat="46.07422" lon="6.7818">
        <ele>1981.1</ele>
        <time>2026-06-26T10:02:48Z</time>
      </trkpt>
      <trkpt lat="46.07423" lon="6.7818">
        <ele>1981.1</ele>
        <time>2026-06-26T10:02:49Z</time>
      </trkpt>
      <trkpt lat="46.07423" lon="6.7818">
        <ele>1981.1</ele>
        <time>2026-06-26T10:02:50Z</time>
      </trkpt>
      <trkpt lat="46.07423" lon="6.7818">
        <ele>1981.1</ele>
        <time>2026-06-26T10:02:51Z</time>
      </trkpt>
      <trkpt lat="46.07423" lon="6.7818">
        <ele>1981.1</ele>
        <time>2026-06-26T10:02:52Z</time>
      </trkpt>
      <trkpt lat="46.07423" lon="6.7818">
        <ele>1981.1</ele>
        <time>2026-06-26T10:02:53Z</time>
      </trkpt>
      <trkpt lat="46.07423" lon="6.78179">
        <ele>1981.1</ele>
        <time>2026-06-26T10:02:54Z</time>
      </trkpt>
      <trkpt lat="46.07423" lon="6.78179">
        <ele>1981.1</ele>
        <time>2026-06-26T10:02:55Z</time>
      </trkpt>
      <trkpt lat="46.07423" lon="6.7818">
        <ele>1981.1</ele>
        <time>2026-06-26T10:02:56Z</time>
      </trkpt>
      <trkpt lat="46.07423" lon="6.7818">
        <ele>1981.1</ele>
        <time>2026-06-26T10:02:57Z</time>
      </trkpt>
      <trkpt lat="46.07423" lon="6.7818">
        <ele>1981.1</ele>
        <time>2026-06-26T10:02:58Z</time>
      </trkpt>
      <trkpt lat="46.07423" lon="6.7818">
        <ele>1981.1</ele>
        <time>2026-06-26T10:02:59Z</time>
      </trkpt>
      <trkpt lat="46.07423" lon="6.78179">
        <ele>1981.1</ele>
        <time>2026-06-26T10:03:00Z</time>
      </trkpt>
      <trkpt lat="46.07423" lon="6.7818">
        <ele>1981.2</ele>
        <time>2026-06-26T10:03:01Z</time>
      </trkpt>
      <trkpt lat="46.07423" lon="6.78179">
        <ele>1981.3</ele>
        <time>2026-06-26T10:03:02Z</time>
      </trkpt>
      <trkpt lat="46.07423" lon="6.78179">
        <ele>1981.3</ele>
        <time>2026-06-26T10:03:03Z</time>
      </trkpt>
      <trkpt lat="46.07423" lon="6.78179">
        <ele>1981.4</ele>
        <time>2026-06-26T10:03:04Z</time>
      </trkpt>
      <trkpt lat="46.07422" lon="6.7818">
        <ele>1981.4</ele>
        <time>2026-06-26T10:03:05Z</time>
      </trkpt>
      <trkpt lat="46.07422" lon="6.7818">
        <ele>1981.5</ele>
        <time>2026-06-26T10:03:06Z</time>
      </trkpt>
      <trkpt lat="46.07422" lon="6.78179">
        <ele>1981.5</ele>
        <time>2026-06-26T10:03:07Z</time>
      </trkpt>
      <trkpt lat="46.07422" lon="6.78179">
        <ele>1981.6</ele>
        <time>2026-06-26T10:03:08Z</time>
      </trkpt>
      <trkpt lat="46.07422" lon="6.78179">
        <ele>1981.8</ele>
        <time>2026-06-26T10:03:09Z</time>
      </trkpt>
      <trkpt lat="46.07422" lon="6.78179">
        <ele>1981.8</ele>
        <time>2026-06-26T10:03:10Z</time>
      </trkpt>
      <trkpt lat="46.07421" lon="6.78179">
        <ele>1981.8</ele>
        <time>2026-06-26T10:03:11Z</time>
      </trkpt>
      <trkpt lat="46.07421" lon="6.78179">
        <ele>1981.8</ele>
        <time>2026-06-26T10:03:12Z</time>
      </trkpt>
      <trkpt lat="46.07421" lon="6.78179">
        <ele>1981.8</ele>
        <time>2026-06-26T10:03:13Z</time>
      </trkpt>
      <trkpt lat="46.07421" lon="6.78179">
        <ele>1981.8</ele>
        <time>2026-06-26T10:03:14Z</time>
      </trkpt>
      <trkpt lat="46.07421" lon="6.78179">
        <ele>1981.8</ele>
        <time>2026-06-26T10:03:15Z</time>
      </trkpt>
      <trkpt lat="46.07421" lon="6.78179">
        <ele>1981.8</ele>
        <time>2026-06-26T10:03:16Z</time>
      </trkpt>
      <trkpt lat="46.07421" lon="6.78179">
        <ele>1981.9</ele>
        <time>2026-06-26T10:03:17Z</time>
      </trkpt>
      <trkpt lat="46.07421" lon="6.78179">
        <ele>1981.9</ele>
        <time>2026-06-26T10:03:18Z</time>
      </trkpt>
      <trkpt lat="46.07421" lon="6.78179">
        <ele>1982</ele>
        <time>2026-06-26T10:03:19Z</time>
      </trkpt>
      <trkpt lat="46.07421" lon="6.78178">
        <ele>1982</ele>
        <time>2026-06-26T10:03:20Z</time>
      </trkpt>
      <trkpt lat="46.07421" lon="6.78178">
        <ele>1981.9</ele>
        <time>2026-06-26T10:03:21Z</time>
      </trkpt>
      <trkpt lat="46.07421" lon="6.78178">
        <ele>1981.9</ele>
        <time>2026-06-26T10:03:22Z</time>
      </trkpt>
      <trkpt lat="46.07421" lon="6.78178">
        <ele>1981.7</ele>
        <time>2026-06-26T10:03:23Z</time>
      </trkpt>
      <trkpt lat="46.07421" lon="6.78178">
        <ele>1981.6</ele>
        <time>2026-06-26T10:03:24Z</time>
      </trkpt>
      <trkpt lat="46.07421" lon="6.78178">
        <ele>1981.5</ele>
        <time>2026-06-26T10:03:25Z</time>
      </trkpt>
      <trkpt lat="46.07421" lon="6.78178">
        <ele>1981.4</ele>
        <time>2026-06-26T10:03:26Z</time>
      </trkpt>
      <trkpt lat="46.07421" lon="6.78178">
        <ele>1981.4</ele>
        <time>2026-06-26T10:03:27Z</time>
      </trkpt>
      <trkpt lat="46.07422" lon="6.78178">
        <ele>1981.4</ele>
        <time>2026-06-26T10:03:28Z</time>
      </trkpt>
      <trkpt lat="46.07422" lon="6.78178">
        <ele>1981.3</ele>
        <time>2026-06-26T10:03:29Z</time>
      </trkpt>
      <trkpt lat="46.07421" lon="6.78178">
        <ele>1981.3</ele>
        <time>2026-06-26T10:03:30Z</time>
      </trkpt>
      <trkpt lat="46.07421" lon="6.78178">
        <ele>1981.3</ele>
        <time>2026-06-26T10:03:31Z</time>
      </trkpt>
      <trkpt lat="46.07422" lon="6.78178">
        <ele>1981.4</ele>
        <time>2026-06-26T10:03:32Z</time>
      </trkpt>
      <trkpt lat="46.07421" lon="6.78178">
        <ele>1981.5</ele>
        <time>2026-06-26T10:03:33Z</time>
      </trkpt>
      <trkpt lat="46.07422" lon="6.78179">
        <ele>1981.6</ele>
        <time>2026-06-26T10:03:34Z</time>
      </trkpt>
      <trkpt lat="46.07422" lon="6.78179">
        <ele>1981.6</ele>
        <time>2026-06-26T10:03:35Z</time>
      </trkpt>
      <trkpt lat="46.07422" lon="6.78179">
        <ele>1981.6</ele>
        <time>2026-06-26T10:03:36Z</time>
      </trkpt>
      <trkpt lat="46.07423" lon="6.78179">
        <ele>1981.6</ele>
        <time>2026-06-26T10:03:37Z</time>
      </trkpt>
      <trkpt lat="46.07423" lon="6.78179">
        <ele>1981.5</ele>
        <time>2026-06-26T10:03:38Z</time>
      </trkpt>
      <trkpt lat="46.07424" lon="6.7818">
        <ele>1981.4</ele>
        <time>2026-06-26T10:03:39Z</time>
      </trkpt>
      <trkpt lat="46.07424" lon="6.7818">
        <ele>1981.3</ele>
        <time>2026-06-26T10:03:40Z</time>
      </trkpt>
      <trkpt lat="46.07425" lon="6.78181">
        <ele>1981.3</ele>
        <time>2026-06-26T10:03:41Z</time>
      </trkpt>
      <trkpt lat="46.07425" lon="6.78181">
        <ele>1981.2</ele>
        <time>2026-06-26T10:03:42Z</time>
      </trkpt>
      <trkpt lat="46.07426" lon="6.78181">
        <ele>1981.1</ele>
        <time>2026-06-26T10:03:43Z</time>
      </trkpt>
      <trkpt lat="46.07426" lon="6.78182">
        <ele>1981</ele>
        <time>2026-06-26T10:03:44Z</time>
      </trkpt>
      <trkpt lat="46.07426" lon="6.78182">
        <ele>1981</ele>
        <time>2026-06-26T10:03:45Z</time>
      </trkpt>
      <trkpt lat="46.07427" lon="6.78183">
        <ele>1980.8</ele>
        <time>2026-06-26T10:03:46Z</time>
      </trkpt>
      <trkpt lat="46.07427" lon="6.78184">
        <ele>1980.7</ele>
        <time>2026-06-26T10:03:47Z</time>
      </trkpt>
      <trkpt lat="46.07427" lon="6.78185">
        <ele>1980.6</ele>
        <time>2026-06-26T10:03:48Z</time>
      </trkpt>
      <trkpt lat="46.07428" lon="6.78186">
        <ele>1980.5</ele>
        <time>2026-06-26T10:03:49Z</time>
      </trkpt>
      <trkpt lat="46.07428" lon="6.78186">
        <ele>1980.4</ele>
        <time>2026-06-26T10:03:50Z</time>
      </trkpt>
      <trkpt lat="46.07429" lon="6.78187">
        <ele>1980.4</ele>
        <time>2026-06-26T10:03:51Z</time>
      </trkpt>
      <trkpt lat="46.0743" lon="6.78187">
        <ele>1980.3</ele>
        <time>2026-06-26T10:03:52Z</time>
      </trkpt>
      <trkpt lat="46.07431" lon="6.78187">
        <ele>1980.3</ele>
        <time>2026-06-26T10:03:53Z</time>
      </trkpt>
      <trkpt lat="46.07432" lon="6.78187">
        <ele>1980.4</ele>
        <time>2026-06-26T10:03:54Z</time>
      </trkpt>
      <trkpt lat="46.07432" lon="6.78188">
        <ele>1980.5</ele>
        <time>2026-06-26T10:03:55Z</time>
      </trkpt>
      <trkpt lat="46.07433" lon="6.78189">
        <ele>1980.4</ele>
        <time>2026-06-26T10:03:56Z</time>
      </trkpt>
      <trkpt lat="46.07434" lon="6.78189">
        <ele>1980.4</ele>
        <time>2026-06-26T10:03:57Z</time>
      </trkpt>
      <trkpt lat="46.07435" lon="6.78189">
        <ele>1980.3</ele>
        <time>2026-06-26T10:03:58Z</time>
      </trkpt>
      <trkpt lat="46.07436" lon="6.78189">
        <ele>1980.3</ele>
        <time>2026-06-26T10:03:59Z</time>
      </trkpt>
      <trkpt lat="46.07436" lon="6.78189">
        <ele>1980.3</ele>
        <time>2026-06-26T10:04:00Z</time>
      </trkpt>
      <trkpt lat="46.07437" lon="6.78189">
        <ele>1980.3</ele>
        <time>2026-06-26T10:04:01Z</time>
      </trkpt>
      <trkpt lat="46.07437" lon="6.7819">
        <ele>1980.4</ele>
        <time>2026-06-26T10:04:02Z</time>
      </trkpt>
      <trkpt lat="46.07438" lon="6.7819">
        <ele>1980.5</ele>
        <time>2026-06-26T10:04:03Z</time>
      </trkpt>
      <trkpt lat="46.07439" lon="6.7819">
        <ele>1980.6</ele>
        <time>2026-06-26T10:04:04Z</time>
      </trkpt>
      <trkpt lat="46.07439" lon="6.7819">
        <ele>1980.7</ele>
        <time>2026-06-26T10:04:05Z</time>
      </trkpt>
      <trkpt lat="46.0744" lon="6.7819">
        <ele>1980.9</ele>
        <time>2026-06-26T10:04:06Z</time>
      </trkpt>
      <trkpt lat="46.0744" lon="6.7819">
        <ele>1981.1</ele>
        <time>2026-06-26T10:04:07Z</time>
      </trkpt>
      <trkpt lat="46.07441" lon="6.7819">
        <ele>1981.2</ele>
        <time>2026-06-26T10:04:08Z</time>
      </trkpt>
      <trkpt lat="46.07441" lon="6.7819">
        <ele>1981.3</ele>
        <time>2026-06-26T10:04:09Z</time>
      </trkpt>
      <trkpt lat="46.07441" lon="6.7819">
        <ele>1981.4</ele>
        <time>2026-06-26T10:04:10Z</time>
      </trkpt>
      <trkpt lat="46.07442" lon="6.7819">
        <ele>1981.5</ele>
        <time>2026-06-26T10:04:11Z</time>
      </trkpt>
      <trkpt lat="46.07442" lon="6.7819">
        <ele>1981.6</ele>
        <time>2026-06-26T10:04:12Z</time>
      </trkpt>
      <trkpt lat="46.07443" lon="6.78191">
        <ele>1981.8</ele>
        <time>2026-06-26T10:04:13Z</time>
      </trkpt>
      <trkpt lat="46.07444" lon="6.78191">
        <ele>1981.9</ele>
        <time>2026-06-26T10:04:14Z</time>
      </trkpt>
      <trkpt lat="46.07444" lon="6.78191">
        <ele>1982</ele>
        <time>2026-06-26T10:04:15Z</time>
      </trkpt>
      <trkpt lat="46.07445" lon="6.78191">
        <ele>1982.1</ele>
        <time>2026-06-26T10:04:16Z</time>
      </trkpt>
      <trkpt lat="46.07446" lon="6.78191">
        <ele>1982.3</ele>
        <time>2026-06-26T10:04:17Z</time>
      </trkpt>
      <trkpt lat="46.07447" lon="6.78192">
        <ele>1982.4</ele>
        <time>2026-06-26T10:04:18Z</time>
      </trkpt>
      <trkpt lat="46.07447" lon="6.78193">
        <ele>1982.5</ele>
        <time>2026-06-26T10:04:19Z</time>
      </trkpt>
      <trkpt lat="46.07448" lon="6.78193">
        <ele>1982.5</ele>
        <time>2026-06-26T10:04:20Z</time>
      </trkpt>
      <trkpt lat="46.07448" lon="6.78194">
        <ele>1982.5</ele>
        <time>2026-06-26T10:04:21Z</time>
      </trkpt>
      <trkpt lat="46.07449" lon="6.78194">
        <ele>1982.5</ele>
        <time>2026-06-26T10:04:22Z</time>
      </trkpt>
      <trkpt lat="46.0745" lon="6.78195">
        <ele>1982.5</ele>
        <time>2026-06-26T10:04:23Z</time>
      </trkpt>
      <trkpt lat="46.0745" lon="6.78196">
        <ele>1982.3</ele>
        <time>2026-06-26T10:04:24Z</time>
      </trkpt>
      <trkpt lat="46.07451" lon="6.78197">
        <ele>1982.3</ele>
        <time>2026-06-26T10:04:25Z</time>
      </trkpt>
      <trkpt lat="46.07452" lon="6.78197">
        <ele>1982.2</ele>
        <time>2026-06-26T10:04:26Z</time>
      </trkpt>
      <trkpt lat="46.07452" lon="6.78198">
        <ele>1982.3</ele>
        <time>2026-06-26T10:04:27Z</time>
      </trkpt>
      <trkpt lat="46.07453" lon="6.78199">
        <ele>1982.3</ele>
        <time>2026-06-26T10:04:28Z</time>
      </trkpt>
      <trkpt lat="46.07454" lon="6.782">
        <ele>1982.4</ele>
        <time>2026-06-26T10:04:29Z</time>
      </trkpt>
      <trkpt lat="46.07454" lon="6.78201">
        <ele>1982.6</ele>
        <time>2026-06-26T10:04:30Z</time>
      </trkpt>
      <trkpt lat="46.07455" lon="6.78201">
        <ele>1982.7</ele>
        <time>2026-06-26T10:04:31Z</time>
      </trkpt>
      <trkpt lat="46.07456" lon="6.78202">
        <ele>1982.8</ele>
        <time>2026-06-26T10:04:32Z</time>
      </trkpt>
      <trkpt lat="46.07456" lon="6.78202">
        <ele>1982.9</ele>
        <time>2026-06-26T10:04:33Z</time>
      </trkpt>
      <trkpt lat="46.07457" lon="6.78203">
        <ele>1983.1</ele>
        <time>2026-06-26T10:04:34Z</time>
      </trkpt>
      <trkpt lat="46.07457" lon="6.78203">
        <ele>1983.2</ele>
        <time>2026-06-26T10:04:35Z</time>
      </trkpt>
      <trkpt lat="46.07458" lon="6.78203">
        <ele>1983.3</ele>
        <time>2026-06-26T10:04:36Z</time>
      </trkpt>
      <trkpt lat="46.07458" lon="6.78204">
        <ele>1983.5</ele>
        <time>2026-06-26T10:04:37Z</time>
      </trkpt>
      <trkpt lat="46.07459" lon="6.78205">
        <ele>1983.7</ele>
        <time>2026-06-26T10:04:38Z</time>
      </trkpt>
      <trkpt lat="46.0746" lon="6.78205">
        <ele>1983.9</ele>
        <time>2026-06-26T10:04:39Z</time>
      </trkpt>
      <trkpt lat="46.0746" lon="6.78206">
        <ele>1984.2</ele>
        <time>2026-06-26T10:04:40Z</time>
      </trkpt>
      <trkpt lat="46.07461" lon="6.78206">
        <ele>1984.4</ele>
        <time>2026-06-26T10:04:41Z</time>
      </trkpt>
      <trkpt lat="46.07462" lon="6.78206">
        <ele>1984.7</ele>
        <time>2026-06-26T10:04:42Z</time>
      </trkpt>
      <trkpt lat="46.07462" lon="6.78207">
        <ele>1985</ele>
        <time>2026-06-26T10:04:43Z</time>
      </trkpt>
      <trkpt lat="46.07463" lon="6.78208">
        <ele>1985.3</ele>
        <time>2026-06-26T10:04:44Z</time>
      </trkpt>
      <trkpt lat="46.07464" lon="6.78208">
        <ele>1985.6</ele>
        <time>2026-06-26T10:04:45Z</time>
      </trkpt>
      <trkpt lat="46.07464" lon="6.78208">
        <ele>1985.8</ele>
        <time>2026-06-26T10:04:46Z</time>
      </trkpt>
      <trkpt lat="46.07465" lon="6.78209">
        <ele>1986</ele>
        <time>2026-06-26T10:04:47Z</time>
      </trkpt>
      <trkpt lat="46.07465" lon="6.7821">
        <ele>1986.2</ele>
        <time>2026-06-26T10:04:48Z</time>
      </trkpt>
      <trkpt lat="46.07466" lon="6.7821">
        <ele>1986.6</ele>
        <time>2026-06-26T10:04:49Z</time>
      </trkpt>
      <trkpt lat="46.07466" lon="6.78211">
        <ele>1986.8</ele>
        <time>2026-06-26T10:04:50Z</time>
      </trkpt>
      <trkpt lat="46.07467" lon="6.78212">
        <ele>1987</ele>
        <time>2026-06-26T10:04:51Z</time>
      </trkpt>
      <trkpt lat="46.07468" lon="6.78212">
        <ele>1987.3</ele>
        <time>2026-06-26T10:04:52Z</time>
      </trkpt>
      <trkpt lat="46.07468" lon="6.78213">
        <ele>1987.4</ele>
        <time>2026-06-26T10:04:53Z</time>
      </trkpt>
      <trkpt lat="46.07469" lon="6.78213">
        <ele>1987.6</ele>
        <time>2026-06-26T10:04:54Z</time>
      </trkpt>
      <trkpt lat="46.07469" lon="6.78213">
        <ele>1987.9</ele>
        <time>2026-06-26T10:04:55Z</time>
      </trkpt>
      <trkpt lat="46.0747" lon="6.78214">
        <ele>1988.1</ele>
        <time>2026-06-26T10:04:56Z</time>
      </trkpt>
      <trkpt lat="46.07471" lon="6.78214">
        <ele>1988.4</ele>
        <time>2026-06-26T10:04:57Z</time>
      </trkpt>
      <trkpt lat="46.07471" lon="6.78215">
        <ele>1988.6</ele>
        <time>2026-06-26T10:04:58Z</time>
      </trkpt>
      <trkpt lat="46.07471" lon="6.78216">
        <ele>1988.9</ele>
        <time>2026-06-26T10:04:59Z</time>
      </trkpt>
      <trkpt lat="46.07472" lon="6.78216">
        <ele>1989.1</ele>
        <time>2026-06-26T10:05:00Z</time>
      </trkpt>
      <trkpt lat="46.07472" lon="6.78217">
        <ele>1989.4</ele>
        <time>2026-06-26T10:05:01Z</time>
      </trkpt>
      <trkpt lat="46.07473" lon="6.78217">
        <ele>1989.6</ele>
        <time>2026-06-26T10:05:02Z</time>
      </trkpt>
      <trkpt lat="46.07473" lon="6.78218">
        <ele>1989.8</ele>
        <time>2026-06-26T10:05:03Z</time>
      </trkpt>
      <trkpt lat="46.07474" lon="6.78218">
        <ele>1990</ele>
        <time>2026-06-26T10:05:04Z</time>
      </trkpt>
      <trkpt lat="46.07474" lon="6.78219">
        <ele>1990.1</ele>
        <time>2026-06-26T10:05:05Z</time>
      </trkpt>
      <trkpt lat="46.07475" lon="6.78219">
        <ele>1990.3</ele>
        <time>2026-06-26T10:05:06Z</time>
      </trkpt>
      <trkpt lat="46.07476" lon="6.78219">
        <ele>1990.6</ele>
        <time>2026-06-26T10:05:07Z</time>
      </trkpt>
      <trkpt lat="46.07477" lon="6.7822">
        <ele>1990.8</ele>
        <time>2026-06-26T10:05:08Z</time>
      </trkpt>
      <trkpt lat="46.07478" lon="6.7822">
        <ele>1991</ele>
        <time>2026-06-26T10:05:09Z</time>
      </trkpt>
      <trkpt lat="46.07479" lon="6.78221">
        <ele>1991.3</ele>
        <time>2026-06-26T10:05:10Z</time>
      </trkpt>
      <trkpt lat="46.07479" lon="6.78221">
        <ele>1991.5</ele>
        <time>2026-06-26T10:05:11Z</time>
      </trkpt>
      <trkpt lat="46.0748" lon="6.78222">
        <ele>1991.8</ele>
        <time>2026-06-26T10:05:12Z</time>
      </trkpt>
      <trkpt lat="46.07481" lon="6.78222">
        <ele>1992</ele>
        <time>2026-06-26T10:05:13Z</time>
      </trkpt>
      <trkpt lat="46.07482" lon="6.78223">
        <ele>1992.3</ele>
        <time>2026-06-26T10:05:14Z</time>
      </trkpt>
      <trkpt lat="46.07483" lon="6.78223">
        <ele>1992.5</ele>
        <time>2026-06-26T10:05:15Z</time>
      </trkpt>
      <trkpt lat="46.07483" lon="6.78224">
        <ele>1992.6</ele>
        <time>2026-06-26T10:05:16Z</time>
      </trkpt>
      <trkpt lat="46.07484" lon="6.78224">
        <ele>1992.8</ele>
        <time>2026-06-26T10:05:17Z</time>
      </trkpt>
      <trkpt lat="46.07485" lon="6.78225">
        <ele>1993</ele>
        <time>2026-06-26T10:05:18Z</time>
      </trkpt>
      <trkpt lat="46.07486" lon="6.78225">
        <ele>1993.2</ele>
        <time>2026-06-26T10:05:19Z</time>
      </trkpt>
      <trkpt lat="46.07487" lon="6.78226">
        <ele>1993.3</ele>
        <time>2026-06-26T10:05:20Z</time>
      </trkpt>
      <trkpt lat="46.07488" lon="6.78227">
        <ele>1993.4</ele>
        <time>2026-06-26T10:05:21Z</time>
      </trkpt>
      <trkpt lat="46.07489" lon="6.78227">
        <ele>1993.6</ele>
        <time>2026-06-26T10:05:22Z</time>
      </trkpt>
      <trkpt lat="46.07489" lon="6.78228">
        <ele>1993.8</ele>
        <time>2026-06-26T10:05:23Z</time>
      </trkpt>
      <trkpt lat="46.0749" lon="6.78228">
        <ele>1993.8</ele>
        <time>2026-06-26T10:05:24Z</time>
      </trkpt>
      <trkpt lat="46.07491" lon="6.78229">
        <ele>1993.9</ele>
        <time>2026-06-26T10:05:25Z</time>
      </trkpt>
      <trkpt lat="46.07491" lon="6.78229">
        <ele>1994</ele>
        <time>2026-06-26T10:05:26Z</time>
      </trkpt>
      <trkpt lat="46.07492" lon="6.78229">
        <ele>1994.2</ele>
        <time>2026-06-26T10:05:27Z</time>
      </trkpt>
      <trkpt lat="46.07493" lon="6.7823">
        <ele>1994.3</ele>
        <time>2026-06-26T10:05:28Z</time>
      </trkpt>
      <trkpt lat="46.07494" lon="6.7823">
        <ele>1994.4</ele>
        <time>2026-06-26T10:05:29Z</time>
      </trkpt>
      <trkpt lat="46.07495" lon="6.78231">
        <ele>1994.7</ele>
        <time>2026-06-26T10:05:30Z</time>
      </trkpt>
      <trkpt lat="46.07495" lon="6.78231">
        <ele>1994.9</ele>
        <time>2026-06-26T10:05:31Z</time>
      </trkpt>
      <trkpt lat="46.07496" lon="6.78232">
        <ele>1995.1</ele>
        <time>2026-06-26T10:05:32Z</time>
      </trkpt>
      <trkpt lat="46.07497" lon="6.78233">
        <ele>1995.3</ele>
        <time>2026-06-26T10:05:33Z</time>
      </trkpt>
      <trkpt lat="46.07499" lon="6.78233">
        <ele>1995.4</ele>
        <time>2026-06-26T10:05:34Z</time>
      </trkpt>
      <trkpt lat="46.07499" lon="6.78233">
        <ele>1995.6</ele>
        <time>2026-06-26T10:05:35Z</time>
      </trkpt>
      <trkpt lat="46.075" lon="6.78233">
        <ele>1995.7</ele>
        <time>2026-06-26T10:05:36Z</time>
      </trkpt>
      <trkpt lat="46.07501" lon="6.78234">
        <ele>1995.9</ele>
        <time>2026-06-26T10:05:37Z</time>
      </trkpt>
      <trkpt lat="46.07502" lon="6.78234">
        <ele>1996</ele>
        <time>2026-06-26T10:05:38Z</time>
      </trkpt>
      <trkpt lat="46.07503" lon="6.78234">
        <ele>1996.1</ele>
        <time>2026-06-26T10:05:39Z</time>
      </trkpt>
      <trkpt lat="46.07504" lon="6.78234">
        <ele>1996.4</ele>
        <time>2026-06-26T10:05:40Z</time>
      </trkpt>
      <trkpt lat="46.07505" lon="6.78235">
        <ele>1996.5</ele>
        <time>2026-06-26T10:05:41Z</time>
      </trkpt>
      <trkpt lat="46.07506" lon="6.78236">
        <ele>1996.6</ele>
        <time>2026-06-26T10:05:42Z</time>
      </trkpt>
      <trkpt lat="46.07507" lon="6.78236">
        <ele>1996.8</ele>
        <time>2026-06-26T10:05:43Z</time>
      </trkpt>
      <trkpt lat="46.07508" lon="6.78237">
        <ele>1996.9</ele>
        <time>2026-06-26T10:05:44Z</time>
      </trkpt>
      <trkpt lat="46.07509" lon="6.78237">
        <ele>1997</ele>
        <time>2026-06-26T10:05:45Z</time>
      </trkpt>
      <trkpt lat="46.07511" lon="6.78238">
        <ele>1997.2</ele>
        <time>2026-06-26T10:05:46Z</time>
      </trkpt>
      <trkpt lat="46.07512" lon="6.78238">
        <ele>1997.3</ele>
        <time>2026-06-26T10:05:47Z</time>
      </trkpt>
      <trkpt lat="46.07513" lon="6.78238">
        <ele>1997.4</ele>
        <time>2026-06-26T10:05:48Z</time>
      </trkpt>
      <trkpt lat="46.07514" lon="6.78239">
        <ele>1997.5</ele>
        <time>2026-06-26T10:05:49Z</time>
      </trkpt>
      <trkpt lat="46.07514" lon="6.78239">
        <ele>1997.7</ele>
        <time>2026-06-26T10:05:50Z</time>
      </trkpt>
      <trkpt lat="46.07515" lon="6.78239">
        <ele>1997.7</ele>
        <time>2026-06-26T10:05:51Z</time>
      </trkpt>
      <trkpt lat="46.07516" lon="6.7824">
        <ele>1997.7</ele>
        <time>2026-06-26T10:05:52Z</time>
      </trkpt>
      <trkpt lat="46.07517" lon="6.7824">
        <ele>1997.7</ele>
        <time>2026-06-26T10:05:53Z</time>
      </trkpt>
      <trkpt lat="46.07518" lon="6.78241">
        <ele>1997.8</ele>
        <time>2026-06-26T10:05:54Z</time>
      </trkpt>
      <trkpt lat="46.07519" lon="6.78241">
        <ele>1997.9</ele>
        <time>2026-06-26T10:05:55Z</time>
      </trkpt>
      <trkpt lat="46.07521" lon="6.78241">
        <ele>1998</ele>
        <time>2026-06-26T10:05:56Z</time>
      </trkpt>
      <trkpt lat="46.07522" lon="6.78241">
        <ele>1998</ele>
        <time>2026-06-26T10:05:57Z</time>
      </trkpt>
      <trkpt lat="46.07523" lon="6.78241">
        <ele>1998.1</ele>
        <time>2026-06-26T10:05:58Z</time>
      </trkpt>
      <trkpt lat="46.07524" lon="6.78242">
        <ele>1998.1</ele>
        <time>2026-06-26T10:05:59Z</time>
      </trkpt>
      <trkpt lat="46.07525" lon="6.78242">
        <ele>1998.3</ele>
        <time>2026-06-26T10:06:00Z</time>
      </trkpt>
      <trkpt lat="46.07525" lon="6.78242">
        <ele>1998.3</ele>
        <time>2026-06-26T10:06:01Z</time>
      </trkpt>
      <trkpt lat="46.07526" lon="6.78243">
        <ele>1998.4</ele>
        <time>2026-06-26T10:06:02Z</time>
      </trkpt>
      <trkpt lat="46.07527" lon="6.78244">
        <ele>1998.4</ele>
        <time>2026-06-26T10:06:03Z</time>
      </trkpt>
      <trkpt lat="46.07528" lon="6.78244">
        <ele>1998.5</ele>
        <time>2026-06-26T10:06:04Z</time>
      </trkpt>
      <trkpt lat="46.07529" lon="6.78244">
        <ele>1998.5</ele>
        <time>2026-06-26T10:06:05Z</time>
      </trkpt>
      <trkpt lat="46.0753" lon="6.78244">
        <ele>1998.5</ele>
        <time>2026-06-26T10:06:06Z</time>
      </trkpt>
      <trkpt lat="46.07531" lon="6.78245">
        <ele>1998.5</ele>
        <time>2026-06-26T10:06:07Z</time>
      </trkpt>
      <trkpt lat="46.07531" lon="6.78245">
        <ele>1998.5</ele>
        <time>2026-06-26T10:06:08Z</time>
      </trkpt>
      <trkpt lat="46.07531" lon="6.78245">
        <ele>1998.5</ele>
        <time>2026-06-26T10:06:09Z</time>
      </trkpt>
      <trkpt lat="46.07532" lon="6.78244">
        <ele>1998.5</ele>
        <time>2026-06-26T10:06:10Z</time>
      </trkpt>
      <trkpt lat="46.07532" lon="6.78245">
        <ele>1998.6</ele>
        <time>2026-06-26T10:06:11Z</time>
      </trkpt>
      <trkpt lat="46.07533" lon="6.78245">
        <ele>1998.6</ele>
        <time>2026-06-26T10:06:12Z</time>
      </trkpt>
      <trkpt lat="46.07534" lon="6.78245">
        <ele>1998.6</ele>
        <time>2026-06-26T10:06:13Z</time>
      </trkpt>
      <trkpt lat="46.07535" lon="6.78245">
        <ele>1998.6</ele>
        <time>2026-06-26T10:06:14Z</time>
      </trkpt>
      <trkpt lat="46.07537" lon="6.78246">
        <ele>1998.6</ele>
        <time>2026-06-26T10:06:15Z</time>
      </trkpt>
      <trkpt lat="46.07537" lon="6.78247">
        <ele>1998.5</ele>
        <time>2026-06-26T10:06:16Z</time>
      </trkpt>
      <trkpt lat="46.07538" lon="6.78247">
        <ele>1998.5</ele>
        <time>2026-06-26T10:06:17Z</time>
      </trkpt>
      <trkpt lat="46.07539" lon="6.78248">
        <ele>1998.5</ele>
        <time>2026-06-26T10:06:18Z</time>
      </trkpt>
      <trkpt lat="46.0754" lon="6.78249">
        <ele>1998.5</ele>
        <time>2026-06-26T10:06:19Z</time>
      </trkpt>
      <trkpt lat="46.0754" lon="6.78249">
        <ele>1998.4</ele>
        <time>2026-06-26T10:06:20Z</time>
      </trkpt>
      <trkpt lat="46.0754" lon="6.78249">
        <ele>1998.4</ele>
        <time>2026-06-26T10:06:21Z</time>
      </trkpt>
      <trkpt lat="46.0754" lon="6.78249">
        <ele>1998.4</ele>
        <time>2026-06-26T10:06:22Z</time>
      </trkpt>
      <trkpt lat="46.07539" lon="6.78249">
        <ele>1998.4</ele>
        <time>2026-06-26T10:06:23Z</time>
      </trkpt>
      <trkpt lat="46.07539" lon="6.78249">
        <ele>1998.4</ele>
        <time>2026-06-26T10:06:24Z</time>
      </trkpt>
      <trkpt lat="46.07539" lon="6.78249">
        <ele>1998.5</ele>
        <time>2026-06-26T10:06:25Z</time>
      </trkpt>
      <trkpt lat="46.07539" lon="6.78249">
        <ele>1998.6</ele>
        <time>2026-06-26T10:06:26Z</time>
      </trkpt>
      <trkpt lat="46.07539" lon="6.78249">
        <ele>1998.6</ele>
        <time>2026-06-26T10:06:27Z</time>
      </trkpt>
      <trkpt lat="46.07539" lon="6.78248">
        <ele>1998.7</ele>
        <time>2026-06-26T10:06:28Z</time>
      </trkpt>
      <trkpt lat="46.07539" lon="6.78248">
        <ele>1998.7</ele>
        <time>2026-06-26T10:06:29Z</time>
      </trkpt>
      <trkpt lat="46.07539" lon="6.78248">
        <ele>1998.8</ele>
        <time>2026-06-26T10:06:30Z</time>
      </trkpt>
      <trkpt lat="46.07539" lon="6.78248">
        <ele>1998.8</ele>
        <time>2026-06-26T10:06:31Z</time>
      </trkpt>
      <trkpt lat="46.0754" lon="6.78248">
        <ele>1998.8</ele>
        <time>2026-06-26T10:06:32Z</time>
      </trkpt>
      <trkpt lat="46.0754" lon="6.78247">
        <ele>1998.9</ele>
        <time>2026-06-26T10:06:33Z</time>
      </trkpt>
      <trkpt lat="46.0754" lon="6.78247">
        <ele>1998.9</ele>
        <time>2026-06-26T10:06:34Z</time>
      </trkpt>
      <trkpt lat="46.0754" lon="6.78247">
        <ele>1998.9</ele>
        <time>2026-06-26T10:06:35Z</time>
      </trkpt>
      <trkpt lat="46.0754" lon="6.78246">
        <ele>1999</ele>
        <time>2026-06-26T10:06:36Z</time>
      </trkpt>
      <trkpt lat="46.0754" lon="6.78246">
        <ele>1999</ele>
        <time>2026-06-26T10:06:37Z</time>
      </trkpt>
      <trkpt lat="46.0754" lon="6.78246">
        <ele>1999.1</ele>
        <time>2026-06-26T10:06:38Z</time>
      </trkpt>
      <trkpt lat="46.0754" lon="6.78246">
        <ele>1999.1</ele>
        <time>2026-06-26T10:06:39Z</time>
      </trkpt>
      <trkpt lat="46.0754" lon="6.78247">
        <ele>1999.1</ele>
        <time>2026-06-26T10:06:40Z</time>
      </trkpt>
      <trkpt lat="46.07541" lon="6.78249">
        <ele>1999.2</ele>
        <time>2026-06-26T10:06:41Z</time>
      </trkpt>
      <trkpt lat="46.07542" lon="6.7825">
        <ele>1999.2</ele>
        <time>2026-06-26T10:06:42Z</time>
      </trkpt>
      <trkpt lat="46.07543" lon="6.7825">
        <ele>1999.2</ele>
        <time>2026-06-26T10:06:43Z</time>
      </trkpt>
      <trkpt lat="46.07544" lon="6.7825">
        <ele>1999.3</ele>
        <time>2026-06-26T10:06:44Z</time>
      </trkpt>
      <trkpt lat="46.07546" lon="6.7825">
        <ele>1999.4</ele>
        <time>2026-06-26T10:06:45Z</time>
      </trkpt>
      <trkpt lat="46.07547" lon="6.78251">
        <ele>1999.2</ele>
        <time>2026-06-26T10:06:46Z</time>
      </trkpt>
      <trkpt lat="46.07548" lon="6.78251">
        <ele>1999.5</ele>
        <time>2026-06-26T10:06:47Z</time>
      </trkpt>
      <trkpt lat="46.07549" lon="6.78251">
        <ele>1999.8</ele>
        <time>2026-06-26T10:06:48Z</time>
      </trkpt>
      <trkpt lat="46.0755" lon="6.78251">
        <ele>2000</ele>
        <time>2026-06-26T10:06:49Z</time>
      </trkpt>
      <trkpt lat="46.07551" lon="6.78251">
        <ele>2000.3</ele>
        <time>2026-06-26T10:06:50Z</time>
      </trkpt>
      <trkpt lat="46.07552" lon="6.78252">
        <ele>2000.6</ele>
        <time>2026-06-26T10:06:51Z</time>
      </trkpt>
      <trkpt lat="46.07553" lon="6.78252">
        <ele>2000.6</ele>
        <time>2026-06-26T10:06:52Z</time>
      </trkpt>
      <trkpt lat="46.07554" lon="6.78253">
        <ele>2000.9</ele>
        <time>2026-06-26T10:06:53Z</time>
      </trkpt>
      <trkpt lat="46.07555" lon="6.78253">
        <ele>2001</ele>
        <time>2026-06-26T10:06:54Z</time>
      </trkpt>
      <trkpt lat="46.07556" lon="6.78254">
        <ele>2001.2</ele>
        <time>2026-06-26T10:06:55Z</time>
      </trkpt>
      <trkpt lat="46.07558" lon="6.78254">
        <ele>2001.5</ele>
        <time>2026-06-26T10:06:56Z</time>
      </trkpt>
      <trkpt lat="46.07559" lon="6.78255">
        <ele>2001.7</ele>
        <time>2026-06-26T10:06:57Z</time>
      </trkpt>
      <trkpt lat="46.0756" lon="6.78255">
        <ele>2001.9</ele>
        <time>2026-06-26T10:06:58Z</time>
      </trkpt>
      <trkpt lat="46.07561" lon="6.78255">
        <ele>2002</ele>
        <time>2026-06-26T10:06:59Z</time>
      </trkpt>
      <trkpt lat="46.07562" lon="6.78255">
        <ele>2002.2</ele>
        <time>2026-06-26T10:07:00Z</time>
      </trkpt>
      <trkpt lat="46.07562" lon="6.78256">
        <ele>2002.4</ele>
        <time>2026-06-26T10:07:01Z</time>
      </trkpt>
      <trkpt lat="46.07563" lon="6.78257">
        <ele>2002.9</ele>
        <time>2026-06-26T10:07:02Z</time>
      </trkpt>
      <trkpt lat="46.07564" lon="6.78257">
        <ele>2003</ele>
        <time>2026-06-26T10:07:03Z</time>
      </trkpt>
      <trkpt lat="46.07565" lon="6.78258">
        <ele>2003</ele>
        <time>2026-06-26T10:07:04Z</time>
      </trkpt>
      <trkpt lat="46.07566" lon="6.78258">
        <ele>2003.1</ele>
        <time>2026-06-26T10:07:05Z</time>
      </trkpt>
      <trkpt lat="46.07567" lon="6.78259">
        <ele>2003.3</ele>
        <time>2026-06-26T10:07:06Z</time>
      </trkpt>
      <trkpt lat="46.07569" lon="6.78259">
        <ele>2003.3</ele>
        <time>2026-06-26T10:07:07Z</time>
      </trkpt>
      <trkpt lat="46.07569" lon="6.7826">
        <ele>2003.5</ele>
        <time>2026-06-26T10:07:08Z</time>
      </trkpt>
      <trkpt lat="46.0757" lon="6.7826">
        <ele>2003.6</ele>
        <time>2026-06-26T10:07:09Z</time>
      </trkpt>
      <trkpt lat="46.07571" lon="6.78261">
        <ele>2003.7</ele>
        <time>2026-06-26T10:07:10Z</time>
      </trkpt>
      <trkpt lat="46.07572" lon="6.78261">
        <ele>2003.9</ele>
        <time>2026-06-26T10:07:11Z</time>
      </trkpt>
      <trkpt lat="46.07572" lon="6.78262">
        <ele>2004</ele>
        <time>2026-06-26T10:07:12Z</time>
      </trkpt>
      <trkpt lat="46.07573" lon="6.78263">
        <ele>2004.1</ele>
        <time>2026-06-26T10:07:13Z</time>
      </trkpt>
      <trkpt lat="46.07573" lon="6.78264">
        <ele>2004.3</ele>
        <time>2026-06-26T10:07:14Z</time>
      </trkpt>
      <trkpt lat="46.07574" lon="6.78264">
        <ele>2004.5</ele>
        <time>2026-06-26T10:07:15Z</time>
      </trkpt>
      <trkpt lat="46.07574" lon="6.78265">
        <ele>2004.8</ele>
        <time>2026-06-26T10:07:16Z</time>
      </trkpt>
      <trkpt lat="46.07574" lon="6.78266">
        <ele>2005</ele>
        <time>2026-06-26T10:07:17Z</time>
      </trkpt>
      <trkpt lat="46.07575" lon="6.78267">
        <ele>2005.2</ele>
        <time>2026-06-26T10:07:18Z</time>
      </trkpt>
      <trkpt lat="46.07575" lon="6.78267">
        <ele>2005.4</ele>
        <time>2026-06-26T10:07:19Z</time>
      </trkpt>
      <trkpt lat="46.07575" lon="6.78268">
        <ele>2005.6</ele>
        <time>2026-06-26T10:07:20Z</time>
      </trkpt>
      <trkpt lat="46.07576" lon="6.78268">
        <ele>2005.7</ele>
        <time>2026-06-26T10:07:21Z</time>
      </trkpt>
      <trkpt lat="46.07576" lon="6.78269">
        <ele>2005.9</ele>
        <time>2026-06-26T10:07:22Z</time>
      </trkpt>
      <trkpt lat="46.07576" lon="6.78269">
        <ele>2006.1</ele>
        <time>2026-06-26T10:07:23Z</time>
      </trkpt>
      <trkpt lat="46.07576" lon="6.7827">
        <ele>2006.3</ele>
        <time>2026-06-26T10:07:24Z</time>
      </trkpt>
      <trkpt lat="46.07577" lon="6.78271">
        <ele>2006.5</ele>
        <time>2026-06-26T10:07:25Z</time>
      </trkpt>
      <trkpt lat="46.07577" lon="6.78272">
        <ele>2006.7</ele>
        <time>2026-06-26T10:07:26Z</time>
      </trkpt>
      <trkpt lat="46.07577" lon="6.78273">
        <ele>2006.8</ele>
        <time>2026-06-26T10:07:27Z</time>
      </trkpt>
      <trkpt lat="46.07578" lon="6.78273">
        <ele>2007</ele>
        <time>2026-06-26T10:07:28Z</time>
      </trkpt>
      <trkpt lat="46.07578" lon="6.78273">
        <ele>2007.2</ele>
        <time>2026-06-26T10:07:29Z</time>
      </trkpt>
      <trkpt lat="46.07578" lon="6.78274">
        <ele>2007.4</ele>
        <time>2026-06-26T10:07:30Z</time>
      </trkpt>
      <trkpt lat="46.07578" lon="6.78273">
        <ele>2007.6</ele>
        <time>2026-06-26T10:07:31Z</time>
      </trkpt>
      <trkpt lat="46.07578" lon="6.78273">
        <ele>2007.7</ele>
        <time>2026-06-26T10:07:32Z</time>
      </trkpt>
      <trkpt lat="46.07578" lon="6.78273">
        <ele>2007.9</ele>
        <time>2026-06-26T10:07:33Z</time>
      </trkpt>
      <trkpt lat="46.07578" lon="6.78273">
        <ele>2008</ele>
        <time>2026-06-26T10:07:34Z</time>
      </trkpt>
      <trkpt lat="46.07578" lon="6.78273">
        <ele>2008.1</ele>
        <time>2026-06-26T10:07:35Z</time>
      </trkpt>
      <trkpt lat="46.07578" lon="6.78273">
        <ele>2008.2</ele>
        <time>2026-06-26T10:07:36Z</time>
      </trkpt>
      <trkpt lat="46.07578" lon="6.78273">
        <ele>2008.2</ele>
        <time>2026-06-26T10:07:37Z</time>
      </trkpt>
      <trkpt lat="46.07578" lon="6.78273">
        <ele>2008.3</ele>
        <time>2026-06-26T10:07:38Z</time>
      </trkpt>
      <trkpt lat="46.07578" lon="6.78274">
        <ele>2008.4</ele>
        <time>2026-06-26T10:07:39Z</time>
      </trkpt>
      <trkpt lat="46.07578" lon="6.78274">
        <ele>2008.5</ele>
        <time>2026-06-26T10:07:40Z</time>
      </trkpt>
      <trkpt lat="46.07578" lon="6.78274">
        <ele>2008.6</ele>
        <time>2026-06-26T10:07:41Z</time>
      </trkpt>
      <trkpt lat="46.07579" lon="6.78275">
        <ele>2008.7</ele>
        <time>2026-06-26T10:07:42Z</time>
      </trkpt>
      <trkpt lat="46.07579" lon="6.78275">
        <ele>2008.8</ele>
        <time>2026-06-26T10:07:43Z</time>
      </trkpt>
      <trkpt lat="46.07579" lon="6.78276">
        <ele>2008.8</ele>
        <time>2026-06-26T10:07:44Z</time>
      </trkpt>
      <trkpt lat="46.0758" lon="6.78277">
        <ele>2008.9</ele>
        <time>2026-06-26T10:07:45Z</time>
      </trkpt>
      <trkpt lat="46.0758" lon="6.78277">
        <ele>2009.2</ele>
        <time>2026-06-26T10:07:46Z</time>
      </trkpt>
      <trkpt lat="46.0758" lon="6.78278">
        <ele>2009.4</ele>
        <time>2026-06-26T10:07:47Z</time>
      </trkpt>
      <trkpt lat="46.07581" lon="6.78278">
        <ele>2009.5</ele>
        <time>2026-06-26T10:07:48Z</time>
      </trkpt>
      <trkpt lat="46.07581" lon="6.78279">
        <ele>2009.6</ele>
        <time>2026-06-26T10:07:49Z</time>
      </trkpt>
      <trkpt lat="46.07581" lon="6.78279">
        <ele>2009.8</ele>
        <time>2026-06-26T10:07:50Z</time>
      </trkpt>
      <trkpt lat="46.07582" lon="6.7828">
        <ele>2010</ele>
        <time>2026-06-26T10:07:51Z</time>
      </trkpt>
      <trkpt lat="46.07582" lon="6.7828">
        <ele>2010.1</ele>
        <time>2026-06-26T10:07:52Z</time>
      </trkpt>
      <trkpt lat="46.07583" lon="6.78281">
        <ele>2010.3</ele>
        <time>2026-06-26T10:07:53Z</time>
      </trkpt>
      <trkpt lat="46.07583" lon="6.78281">
        <ele>2010.4</ele>
        <time>2026-06-26T10:07:54Z</time>
      </trkpt>
      <trkpt lat="46.07583" lon="6.78282">
        <ele>2010.6</ele>
        <time>2026-06-26T10:07:55Z</time>
      </trkpt>
      <trkpt lat="46.07584" lon="6.78283">
        <ele>2010.8</ele>
        <time>2026-06-26T10:07:56Z</time>
      </trkpt>
      <trkpt lat="46.07585" lon="6.78283">
        <ele>2011</ele>
        <time>2026-06-26T10:07:57Z</time>
      </trkpt>
      <trkpt lat="46.07585" lon="6.78284">
        <ele>2011.3</ele>
        <time>2026-06-26T10:07:58Z</time>
      </trkpt>
      <trkpt lat="46.07585" lon="6.78285">
        <ele>2011.6</ele>
        <time>2026-06-26T10:07:59Z</time>
      </trkpt>
      <trkpt lat="46.07586" lon="6.78285">
        <ele>2011.9</ele>
        <time>2026-06-26T10:08:00Z</time>
      </trkpt>
      <trkpt lat="46.07587" lon="6.78286">
        <ele>2012.2</ele>
        <time>2026-06-26T10:08:01Z</time>
      </trkpt>
      <trkpt lat="46.07587" lon="6.78287">
        <ele>2012.5</ele>
        <time>2026-06-26T10:08:02Z</time>
      </trkpt>
      <trkpt lat="46.07588" lon="6.78287">
        <ele>2012.7</ele>
        <time>2026-06-26T10:08:03Z</time>
      </trkpt>
      <trkpt lat="46.07589" lon="6.78288">
        <ele>2013</ele>
        <time>2026-06-26T10:08:04Z</time>
      </trkpt>
      <trkpt lat="46.07589" lon="6.78288">
        <ele>2013.2</ele>
        <time>2026-06-26T10:08:05Z</time>
      </trkpt>
      <trkpt lat="46.0759" lon="6.78289">
        <ele>2013.4</ele>
        <time>2026-06-26T10:08:06Z</time>
      </trkpt>
      <trkpt lat="46.0759" lon="6.78289">
        <ele>2013.6</ele>
        <time>2026-06-26T10:08:07Z</time>
      </trkpt>
      <trkpt lat="46.0759" lon="6.7829">
        <ele>2013.7</ele>
        <time>2026-06-26T10:08:08Z</time>
      </trkpt>
      <trkpt lat="46.07591" lon="6.78291">
        <ele>2014</ele>
        <time>2026-06-26T10:08:09Z</time>
      </trkpt>
      <trkpt lat="46.07592" lon="6.78291">
        <ele>2014.2</ele>
        <time>2026-06-26T10:08:10Z</time>
      </trkpt>
      <trkpt lat="46.07592" lon="6.78292">
        <ele>2014.4</ele>
        <time>2026-06-26T10:08:11Z</time>
      </trkpt>
      <trkpt lat="46.07593" lon="6.78292">
        <ele>2014.6</ele>
        <time>2026-06-26T10:08:12Z</time>
      </trkpt>
      <trkpt lat="46.07593" lon="6.78293">
        <ele>2014.8</ele>
        <time>2026-06-26T10:08:13Z</time>
      </trkpt>
      <trkpt lat="46.07593" lon="6.78294">
        <ele>2015.1</ele>
        <time>2026-06-26T10:08:14Z</time>
      </trkpt>
      <trkpt lat="46.07594" lon="6.78294">
        <ele>2015.3</ele>
        <time>2026-06-26T10:08:15Z</time>
      </trkpt>
      <trkpt lat="46.07594" lon="6.78295">
        <ele>2015.5</ele>
        <time>2026-06-26T10:08:16Z</time>
      </trkpt>
      <trkpt lat="46.07595" lon="6.78296">
        <ele>2015.8</ele>
        <time>2026-06-26T10:08:17Z</time>
      </trkpt>
      <trkpt lat="46.07595" lon="6.78296">
        <ele>2016</ele>
        <time>2026-06-26T10:08:18Z</time>
      </trkpt>
      <trkpt lat="46.07596" lon="6.78297">
        <ele>2016.3</ele>
        <time>2026-06-26T10:08:19Z</time>
      </trkpt>
      <trkpt lat="46.07596" lon="6.78297">
        <ele>2016.5</ele>
        <time>2026-06-26T10:08:20Z</time>
      </trkpt>
      <trkpt lat="46.07596" lon="6.78298">
        <ele>2016.7</ele>
        <time>2026-06-26T10:08:21Z</time>
      </trkpt>
      <trkpt lat="46.07597" lon="6.78298">
        <ele>2016.9</ele>
        <time>2026-06-26T10:08:22Z</time>
      </trkpt>
      <trkpt lat="46.07598" lon="6.78299">
        <ele>2017.1</ele>
        <time>2026-06-26T10:08:23Z</time>
      </trkpt>
      <trkpt lat="46.07598" lon="6.783">
        <ele>2017.3</ele>
        <time>2026-06-26T10:08:24Z</time>
      </trkpt>
      <trkpt lat="46.07599" lon="6.78301">
        <ele>2017.5</ele>
        <time>2026-06-26T10:08:25Z</time>
      </trkpt>
      <trkpt lat="46.07599" lon="6.78301">
        <ele>2017.6</ele>
        <time>2026-06-26T10:08:26Z</time>
      </trkpt>
      <trkpt lat="46.076" lon="6.78302">
        <ele>2017.8</ele>
        <time>2026-06-26T10:08:27Z</time>
      </trkpt>
      <trkpt lat="46.076" lon="6.78303">
        <ele>2018</ele>
        <time>2026-06-26T10:08:28Z</time>
      </trkpt>
      <trkpt lat="46.07601" lon="6.78303">
        <ele>2018.2</ele>
        <time>2026-06-26T10:08:29Z</time>
      </trkpt>
      <trkpt lat="46.07602" lon="6.78304">
        <ele>2018.4</ele>
        <time>2026-06-26T10:08:30Z</time>
      </trkpt>
      <trkpt lat="46.07603" lon="6.78305">
        <ele>2018.6</ele>
        <time>2026-06-26T10:08:31Z</time>
      </trkpt>
      <trkpt lat="46.07603" lon="6.78306">
        <ele>2018.8</ele>
        <time>2026-06-26T10:08:32Z</time>
      </trkpt>
      <trkpt lat="46.07604" lon="6.78307">
        <ele>2019.2</ele>
        <time>2026-06-26T10:08:33Z</time>
      </trkpt>
      <trkpt lat="46.07605" lon="6.78307">
        <ele>2019.4</ele>
        <time>2026-06-26T10:08:34Z</time>
      </trkpt>
      <trkpt lat="46.07605" lon="6.78308">
        <ele>2019.6</ele>
        <time>2026-06-26T10:08:35Z</time>
      </trkpt>
      <trkpt lat="46.07606" lon="6.78309">
        <ele>2019.8</ele>
        <time>2026-06-26T10:08:36Z</time>
      </trkpt>
      <trkpt lat="46.07607" lon="6.7831">
        <ele>2020</ele>
        <time>2026-06-26T10:08:37Z</time>
      </trkpt>
      <trkpt lat="46.07608" lon="6.78311">
        <ele>2020.3</ele>
        <time>2026-06-26T10:08:38Z</time>
      </trkpt>
      <trkpt lat="46.07608" lon="6.78311">
        <ele>2020.4</ele>
        <time>2026-06-26T10:08:39Z</time>
      </trkpt>
      <trkpt lat="46.07609" lon="6.78312">
        <ele>2020.6</ele>
        <time>2026-06-26T10:08:40Z</time>
      </trkpt>
      <trkpt lat="46.0761" lon="6.78313">
        <ele>2020.8</ele>
        <time>2026-06-26T10:08:41Z</time>
      </trkpt>
      <trkpt lat="46.0761" lon="6.78313">
        <ele>2020.9</ele>
        <time>2026-06-26T10:08:42Z</time>
      </trkpt>
      <trkpt lat="46.07611" lon="6.78314">
        <ele>2021.1</ele>
        <time>2026-06-26T10:08:43Z</time>
      </trkpt>
      <trkpt lat="46.07611" lon="6.78315">
        <ele>2021.1</ele>
        <time>2026-06-26T10:08:44Z</time>
      </trkpt>
      <trkpt lat="46.07612" lon="6.78315">
        <ele>2021.3</ele>
        <time>2026-06-26T10:08:45Z</time>
      </trkpt>
      <trkpt lat="46.07613" lon="6.78316">
        <ele>2021.5</ele>
        <time>2026-06-26T10:08:46Z</time>
      </trkpt>
      <trkpt lat="46.07613" lon="6.78316">
        <ele>2021.6</ele>
        <time>2026-06-26T10:08:47Z</time>
      </trkpt>
      <trkpt lat="46.07614" lon="6.78317">
        <ele>2021.9</ele>
        <time>2026-06-26T10:08:48Z</time>
      </trkpt>
      <trkpt lat="46.07615" lon="6.78318">
        <ele>2022.2</ele>
        <time>2026-06-26T10:08:49Z</time>
      </trkpt>
      <trkpt lat="46.07615" lon="6.78318">
        <ele>2022.4</ele>
        <time>2026-06-26T10:08:50Z</time>
      </trkpt>
      <trkpt lat="46.07616" lon="6.78319">
        <ele>2022.7</ele>
        <time>2026-06-26T10:08:51Z</time>
      </trkpt>
      <trkpt lat="46.07617" lon="6.78319">
        <ele>2022.9</ele>
        <time>2026-06-26T10:08:52Z</time>
      </trkpt>
      <trkpt lat="46.07618" lon="6.78319">
        <ele>2023</ele>
        <time>2026-06-26T10:08:53Z</time>
      </trkpt>
      <trkpt lat="46.07618" lon="6.7832">
        <ele>2023.2</ele>
        <time>2026-06-26T10:08:54Z</time>
      </trkpt>
      <trkpt lat="46.07619" lon="6.7832">
        <ele>2023.4</ele>
        <time>2026-06-26T10:08:55Z</time>
      </trkpt>
      <trkpt lat="46.07619" lon="6.7832">
        <ele>2023.5</ele>
        <time>2026-06-26T10:08:56Z</time>
      </trkpt>
      <trkpt lat="46.0762" lon="6.78321">
        <ele>2023.8</ele>
        <time>2026-06-26T10:08:57Z</time>
      </trkpt>
      <trkpt lat="46.0762" lon="6.78321">
        <ele>2024</ele>
        <time>2026-06-26T10:08:58Z</time>
      </trkpt>
      <trkpt lat="46.07621" lon="6.78321">
        <ele>2024.1</ele>
        <time>2026-06-26T10:08:59Z</time>
      </trkpt>
      <trkpt lat="46.07621" lon="6.78322">
        <ele>2024.2</ele>
        <time>2026-06-26T10:09:00Z</time>
      </trkpt>
      <trkpt lat="46.07622" lon="6.78322">
        <ele>2024.2</ele>
        <time>2026-06-26T10:09:01Z</time>
      </trkpt>
      <trkpt lat="46.07623" lon="6.78323">
        <ele>2024.4</ele>
        <time>2026-06-26T10:09:02Z</time>
      </trkpt>
      <trkpt lat="46.07623" lon="6.78323">
        <ele>2024.6</ele>
        <time>2026-06-26T10:09:03Z</time>
      </trkpt>
      <trkpt lat="46.07624" lon="6.78324">
        <ele>2024.7</ele>
        <time>2026-06-26T10:09:04Z</time>
      </trkpt>
      <trkpt lat="46.07625" lon="6.78324">
        <ele>2024.9</ele>
        <time>2026-06-26T10:09:05Z</time>
      </trkpt>
      <trkpt lat="46.07625" lon="6.78325">
        <ele>2025</ele>
        <time>2026-06-26T10:09:06Z</time>
      </trkpt>
      <trkpt lat="46.07626" lon="6.78326">
        <ele>2025</ele>
        <time>2026-06-26T10:09:07Z</time>
      </trkpt>
      <trkpt lat="46.07627" lon="6.78326">
        <ele>2025.1</ele>
        <time>2026-06-26T10:09:08Z</time>
      </trkpt>
      <trkpt lat="46.07628" lon="6.78327">
        <ele>2025.1</ele>
        <time>2026-06-26T10:09:09Z</time>
      </trkpt>
      <trkpt lat="46.07629" lon="6.78328">
        <ele>2025.2</ele>
        <time>2026-06-26T10:09:10Z</time>
      </trkpt>
      <trkpt lat="46.07629" lon="6.78328">
        <ele>2025.2</ele>
        <time>2026-06-26T10:09:11Z</time>
      </trkpt>
      <trkpt lat="46.0763" lon="6.78329">
        <ele>2025.2</ele>
        <time>2026-06-26T10:09:12Z</time>
      </trkpt>
      <trkpt lat="46.07631" lon="6.78329">
        <ele>2025.3</ele>
        <time>2026-06-26T10:09:13Z</time>
      </trkpt>
      <trkpt lat="46.07631" lon="6.7833">
        <ele>2025.3</ele>
        <time>2026-06-26T10:09:14Z</time>
      </trkpt>
      <trkpt lat="46.07632" lon="6.78331">
        <ele>2025.4</ele>
        <time>2026-06-26T10:09:15Z</time>
      </trkpt>
      <trkpt lat="46.07633" lon="6.78332">
        <ele>2025.5</ele>
        <time>2026-06-26T10:09:16Z</time>
      </trkpt>
      <trkpt lat="46.07633" lon="6.78333">
        <ele>2025.6</ele>
        <time>2026-06-26T10:09:17Z</time>
      </trkpt>
      <trkpt lat="46.07634" lon="6.78333">
        <ele>2025.6</ele>
        <time>2026-06-26T10:09:18Z</time>
      </trkpt>
      <trkpt lat="46.07634" lon="6.78334">
        <ele>2025.7</ele>
        <time>2026-06-26T10:09:19Z</time>
      </trkpt>
      <trkpt lat="46.07635" lon="6.78335">
        <ele>2025.8</ele>
        <time>2026-06-26T10:09:20Z</time>
      </trkpt>
      <trkpt lat="46.07635" lon="6.78335">
        <ele>2025.8</ele>
        <time>2026-06-26T10:09:21Z</time>
      </trkpt>
      <trkpt lat="46.07636" lon="6.78336">
        <ele>2025.9</ele>
        <time>2026-06-26T10:09:22Z</time>
      </trkpt>
      <trkpt lat="46.07636" lon="6.78337">
        <ele>2025.9</ele>
        <time>2026-06-26T10:09:23Z</time>
      </trkpt>
      <trkpt lat="46.07636" lon="6.78337">
        <ele>2026</ele>
        <time>2026-06-26T10:09:24Z</time>
      </trkpt>
      <trkpt lat="46.07636" lon="6.78338">
        <ele>2026.2</ele>
        <time>2026-06-26T10:09:25Z</time>
      </trkpt>
      <trkpt lat="46.07637" lon="6.78338">
        <ele>2026.3</ele>
        <time>2026-06-26T10:09:26Z</time>
      </trkpt>
      <trkpt lat="46.07637" lon="6.78338">
        <ele>2026.4</ele>
        <time>2026-06-26T10:09:27Z</time>
      </trkpt>
      <trkpt lat="46.07637" lon="6.78338">
        <ele>2026.5</ele>
        <time>2026-06-26T10:09:28Z</time>
      </trkpt>
      <trkpt lat="46.07637" lon="6.78338">
        <ele>2026.5</ele>
        <time>2026-06-26T10:09:29Z</time>
      </trkpt>
      <trkpt lat="46.07637" lon="6.78338">
        <ele>2026.5</ele>
        <time>2026-06-26T10:09:30Z</time>
      </trkpt>
      <trkpt lat="46.07637" lon="6.78338">
        <ele>2026.5</ele>
        <time>2026-06-26T10:09:31Z</time>
      </trkpt>
      <trkpt lat="46.07637" lon="6.78338">
        <ele>2026.6</ele>
        <time>2026-06-26T10:09:32Z</time>
      </trkpt>
      <trkpt lat="46.07637" lon="6.78339">
        <ele>2026.6</ele>
        <time>2026-06-26T10:09:33Z</time>
      </trkpt>
      <trkpt lat="46.07637" lon="6.78339">
        <ele>2026.5</ele>
        <time>2026-06-26T10:09:34Z</time>
      </trkpt>
      <trkpt lat="46.07637" lon="6.78339">
        <ele>2026.5</ele>
        <time>2026-06-26T10:09:35Z</time>
      </trkpt>
      <trkpt lat="46.07637" lon="6.78339">
        <ele>2026.7</ele>
        <time>2026-06-26T10:09:36Z</time>
      </trkpt>
      <trkpt lat="46.07637" lon="6.7834">
        <ele>2026.7</ele>
        <time>2026-06-26T10:09:37Z</time>
      </trkpt>
      <trkpt lat="46.07638" lon="6.7834">
        <ele>2026.8</ele>
        <time>2026-06-26T10:09:38Z</time>
      </trkpt>
      <trkpt lat="46.07638" lon="6.78341">
        <ele>2026.9</ele>
        <time>2026-06-26T10:09:39Z</time>
      </trkpt>
      <trkpt lat="46.07639" lon="6.78341">
        <ele>2026.9</ele>
        <time>2026-06-26T10:09:40Z</time>
      </trkpt>
      <trkpt lat="46.0764" lon="6.78342">
        <ele>2026.9</ele>
        <time>2026-06-26T10:09:41Z</time>
      </trkpt>
      <trkpt lat="46.0764" lon="6.78342">
        <ele>2026.8</ele>
        <time>2026-06-26T10:09:42Z</time>
      </trkpt>
      <trkpt lat="46.0764" lon="6.78342">
        <ele>2026.8</ele>
        <time>2026-06-26T10:09:43Z</time>
      </trkpt>
      <trkpt lat="46.07641" lon="6.78343">
        <ele>2026.8</ele>
        <time>2026-06-26T10:09:44Z</time>
      </trkpt>
      <trkpt lat="46.07641" lon="6.78343">
        <ele>2026.8</ele>
        <time>2026-06-26T10:09:45Z</time>
      </trkpt>
      <trkpt lat="46.07642" lon="6.78343">
        <ele>2026.8</ele>
        <time>2026-06-26T10:09:46Z</time>
      </trkpt>
      <trkpt lat="46.07642" lon="6.78344">
        <ele>2026.9</ele>
        <time>2026-06-26T10:09:47Z</time>
      </trkpt>
      <trkpt lat="46.07643" lon="6.78344">
        <ele>2027</ele>
        <time>2026-06-26T10:09:48Z</time>
      </trkpt>
      <trkpt lat="46.07643" lon="6.78345">
        <ele>2027.1</ele>
        <time>2026-06-26T10:09:49Z</time>
      </trkpt>
      <trkpt lat="46.07644" lon="6.78345">
        <ele>2027.1</ele>
        <time>2026-06-26T10:09:50Z</time>
      </trkpt>
      <trkpt lat="46.07644" lon="6.78346">
        <ele>2027.2</ele>
        <time>2026-06-26T10:09:51Z</time>
      </trkpt>
      <trkpt lat="46.07643" lon="6.78346">
        <ele>2027.2</ele>
        <time>2026-06-26T10:09:52Z</time>
      </trkpt>
      <trkpt lat="46.07644" lon="6.78346">
        <ele>2027.2</ele>
        <time>2026-06-26T10:09:53Z</time>
      </trkpt>
      <trkpt lat="46.07644" lon="6.78346">
        <ele>2027.2</ele>
        <time>2026-06-26T10:09:54Z</time>
      </trkpt>
      <trkpt lat="46.07644" lon="6.78346">
        <ele>2027.2</ele>
        <time>2026-06-26T10:09:55Z</time>
      </trkpt>
      <trkpt lat="46.07644" lon="6.78346">
        <ele>2027.3</ele>
        <time>2026-06-26T10:09:56Z</time>
      </trkpt>
      <trkpt lat="46.07644" lon="6.78347">
        <ele>2027.3</ele>
        <time>2026-06-26T10:09:57Z</time>
      </trkpt>
      <trkpt lat="46.07645" lon="6.78348">
        <ele>2027.4</ele>
        <time>2026-06-26T10:09:58Z</time>
      </trkpt>
      <trkpt lat="46.07645" lon="6.78348">
        <ele>2027.4</ele>
        <time>2026-06-26T10:09:59Z</time>
      </trkpt>
      <trkpt lat="46.07646" lon="6.78349">
        <ele>2027.5</ele>
        <time>2026-06-26T10:10:00Z</time>
      </trkpt>
      <trkpt lat="46.07646" lon="6.78349">
        <ele>2027.6</ele>
        <time>2026-06-26T10:10:01Z</time>
      </trkpt>
      <trkpt lat="46.07646" lon="6.7835">
        <ele>2027.7</ele>
        <time>2026-06-26T10:10:02Z</time>
      </trkpt>
      <trkpt lat="46.07647" lon="6.7835">
        <ele>2027.8</ele>
        <time>2026-06-26T10:10:03Z</time>
      </trkpt>
      <trkpt lat="46.07647" lon="6.78351">
        <ele>2027.9</ele>
        <time>2026-06-26T10:10:04Z</time>
      </trkpt>
      <trkpt lat="46.07648" lon="6.78352">
        <ele>2028</ele>
        <time>2026-06-26T10:10:05Z</time>
      </trkpt>
      <trkpt lat="46.07648" lon="6.78352">
        <ele>2028.1</ele>
        <time>2026-06-26T10:10:06Z</time>
      </trkpt>
      <trkpt lat="46.07648" lon="6.78353">
        <ele>2028.4</ele>
        <time>2026-06-26T10:10:07Z</time>
      </trkpt>
      <trkpt lat="46.07649" lon="6.78353">
        <ele>2028.6</ele>
        <time>2026-06-26T10:10:08Z</time>
      </trkpt>
      <trkpt lat="46.07649" lon="6.78354">
        <ele>2028.9</ele>
        <time>2026-06-26T10:10:09Z</time>
      </trkpt>
      <trkpt lat="46.07649" lon="6.78355">
        <ele>2029.1</ele>
        <time>2026-06-26T10:10:10Z</time>
      </trkpt>
      <trkpt lat="46.07649" lon="6.78355">
        <ele>2029.4</ele>
        <time>2026-06-26T10:10:11Z</time>
      </trkpt>
      <trkpt lat="46.0765" lon="6.78355">
        <ele>2029.7</ele>
        <time>2026-06-26T10:10:12Z</time>
      </trkpt>
      <trkpt lat="46.0765" lon="6.78356">
        <ele>2029.9</ele>
        <time>2026-06-26T10:10:13Z</time>
      </trkpt>
      <trkpt lat="46.0765" lon="6.78357">
        <ele>2030.3</ele>
        <time>2026-06-26T10:10:14Z</time>
      </trkpt>
      <trkpt lat="46.07651" lon="6.78358">
        <ele>2030.6</ele>
        <time>2026-06-26T10:10:15Z</time>
      </trkpt>
      <trkpt lat="46.07651" lon="6.78358">
        <ele>2030.9</ele>
        <time>2026-06-26T10:10:16Z</time>
      </trkpt>
      <trkpt lat="46.07651" lon="6.78359">
        <ele>2031.2</ele>
        <time>2026-06-26T10:10:17Z</time>
      </trkpt>
      <trkpt lat="46.07652" lon="6.78359">
        <ele>2031.4</ele>
        <time>2026-06-26T10:10:18Z</time>
      </trkpt>
      <trkpt lat="46.07652" lon="6.7836">
        <ele>2031.6</ele>
        <time>2026-06-26T10:10:19Z</time>
      </trkpt>
      <trkpt lat="46.07652" lon="6.78361">
        <ele>2031.9</ele>
        <time>2026-06-26T10:10:20Z</time>
      </trkpt>
      <trkpt lat="46.07652" lon="6.78361">
        <ele>2032.3</ele>
        <time>2026-06-26T10:10:21Z</time>
      </trkpt>
      <trkpt lat="46.07652" lon="6.78362">
        <ele>2032.5</ele>
        <time>2026-06-26T10:10:22Z</time>
      </trkpt>
      <trkpt lat="46.07653" lon="6.78363">
        <ele>2032.7</ele>
        <time>2026-06-26T10:10:23Z</time>
      </trkpt>
      <trkpt lat="46.07653" lon="6.78363">
        <ele>2032.8</ele>
        <time>2026-06-26T10:10:24Z</time>
      </trkpt>
      <trkpt lat="46.07653" lon="6.78363">
        <ele>2033</ele>
        <time>2026-06-26T10:10:25Z</time>
      </trkpt>
      <trkpt lat="46.07653" lon="6.78363">
        <ele>2033.2</ele>
        <time>2026-06-26T10:10:26Z</time>
      </trkpt>
      <trkpt lat="46.07653" lon="6.78363">
        <ele>2033.4</ele>
        <time>2026-06-26T10:10:27Z</time>
      </trkpt>
      <trkpt lat="46.07653" lon="6.78363">
        <ele>2033.5</ele>
        <time>2026-06-26T10:10:28Z</time>
      </trkpt>
      <trkpt lat="46.07653" lon="6.78364">
        <ele>2033.8</ele>
        <time>2026-06-26T10:10:29Z</time>
      </trkpt>
      <trkpt lat="46.07654" lon="6.78364">
        <ele>2034</ele>
        <time>2026-06-26T10:10:30Z</time>
      </trkpt>
      <trkpt lat="46.07654" lon="6.78364">
        <ele>2034.2</ele>
        <time>2026-06-26T10:10:31Z</time>
      </trkpt>
      <trkpt lat="46.07654" lon="6.78365">
        <ele>2034.3</ele>
        <time>2026-06-26T10:10:32Z</time>
      </trkpt>
      <trkpt lat="46.07654" lon="6.78365">
        <ele>2034.4</ele>
        <time>2026-06-26T10:10:33Z</time>
      </trkpt>
      <trkpt lat="46.07655" lon="6.78366">
        <ele>2034.5</ele>
        <time>2026-06-26T10:10:34Z</time>
      </trkpt>
      <trkpt lat="46.07655" lon="6.78366">
        <ele>2034.7</ele>
        <time>2026-06-26T10:10:35Z</time>
      </trkpt>
      <trkpt lat="46.07655" lon="6.78367">
        <ele>2034.9</ele>
        <time>2026-06-26T10:10:36Z</time>
      </trkpt>
      <trkpt lat="46.07655" lon="6.78367">
        <ele>2035.1</ele>
        <time>2026-06-26T10:10:37Z</time>
      </trkpt>
      <trkpt lat="46.07655" lon="6.78368">
        <ele>2035.4</ele>
        <time>2026-06-26T10:10:38Z</time>
      </trkpt>
      <trkpt lat="46.07656" lon="6.78369">
        <ele>2035.6</ele>
        <time>2026-06-26T10:10:39Z</time>
      </trkpt>
      <trkpt lat="46.07656" lon="6.78369">
        <ele>2035.9</ele>
        <time>2026-06-26T10:10:40Z</time>
      </trkpt>
      <trkpt lat="46.07656" lon="6.7837">
        <ele>2036.1</ele>
        <time>2026-06-26T10:10:41Z</time>
      </trkpt>
      <trkpt lat="46.07657" lon="6.78371">
        <ele>2036.4</ele>
        <time>2026-06-26T10:10:42Z</time>
      </trkpt>
      <trkpt lat="46.07657" lon="6.78371">
        <ele>2036.7</ele>
        <time>2026-06-26T10:10:43Z</time>
      </trkpt>
      <trkpt lat="46.07657" lon="6.78372">
        <ele>2036.9</ele>
        <time>2026-06-26T10:10:44Z</time>
      </trkpt>
      <trkpt lat="46.07657" lon="6.78372">
        <ele>2037.2</ele>
        <time>2026-06-26T10:10:45Z</time>
      </trkpt>
      <trkpt lat="46.07658" lon="6.78373">
        <ele>2037.4</ele>
        <time>2026-06-26T10:10:46Z</time>
      </trkpt>
      <trkpt lat="46.07658" lon="6.78373">
        <ele>2037.6</ele>
        <time>2026-06-26T10:10:47Z</time>
      </trkpt>
      <trkpt lat="46.07658" lon="6.78374">
        <ele>2037.8</ele>
        <time>2026-06-26T10:10:48Z</time>
      </trkpt>
      <trkpt lat="46.07658" lon="6.78374">
        <ele>2038.1</ele>
        <time>2026-06-26T10:10:49Z</time>
      </trkpt>
      <trkpt lat="46.07659" lon="6.78374">
        <ele>2038.3</ele>
        <time>2026-06-26T10:10:50Z</time>
      </trkpt>
      <trkpt lat="46.07659" lon="6.78375">
        <ele>2038.5</ele>
        <time>2026-06-26T10:10:51Z</time>
      </trkpt>
      <trkpt lat="46.07659" lon="6.78376">
        <ele>2038.8</ele>
        <time>2026-06-26T10:10:52Z</time>
      </trkpt>
      <trkpt lat="46.07659" lon="6.78376">
        <ele>2039</ele>
        <time>2026-06-26T10:10:53Z</time>
      </trkpt>
      <trkpt lat="46.0766" lon="6.78377">
        <ele>2039.3</ele>
        <time>2026-06-26T10:10:54Z</time>
      </trkpt>
      <trkpt lat="46.0766" lon="6.78377">
        <ele>2039.6</ele>
        <time>2026-06-26T10:10:55Z</time>
      </trkpt>
      <trkpt lat="46.0766" lon="6.78378">
        <ele>2039.9</ele>
        <time>2026-06-26T10:10:56Z</time>
      </trkpt>
      <trkpt lat="46.0766" lon="6.78378">
        <ele>2040.1</ele>
        <time>2026-06-26T10:10:57Z</time>
      </trkpt>
      <trkpt lat="46.0766" lon="6.78378">
        <ele>2040.4</ele>
        <time>2026-06-26T10:10:58Z</time>
      </trkpt>
      <trkpt lat="46.07661" lon="6.78379">
        <ele>2040.7</ele>
        <time>2026-06-26T10:10:59Z</time>
      </trkpt>
      <trkpt lat="46.07661" lon="6.78379">
        <ele>2040.9</ele>
        <time>2026-06-26T10:11:00Z</time>
      </trkpt>
      <trkpt lat="46.07661" lon="6.78379">
        <ele>2041.1</ele>
        <time>2026-06-26T10:11:01Z</time>
      </trkpt>
      <trkpt lat="46.07661" lon="6.7838">
        <ele>2041.3</ele>
        <time>2026-06-26T10:11:02Z</time>
      </trkpt>
      <trkpt lat="46.07661" lon="6.78381">
        <ele>2041.5</ele>
        <time>2026-06-26T10:11:03Z</time>
      </trkpt>
      <trkpt lat="46.07661" lon="6.78381">
        <ele>2041.7</ele>
        <time>2026-06-26T10:11:04Z</time>
      </trkpt>
      <trkpt lat="46.07661" lon="6.78381">
        <ele>2041.8</ele>
        <time>2026-06-26T10:11:05Z</time>
      </trkpt>
      <trkpt lat="46.07662" lon="6.78382">
        <ele>2042</ele>
        <time>2026-06-26T10:11:06Z</time>
      </trkpt>
      <trkpt lat="46.07662" lon="6.78382">
        <ele>2042.1</ele>
        <time>2026-06-26T10:11:07Z</time>
      </trkpt>
      <trkpt lat="46.07662" lon="6.78383">
        <ele>2042.2</ele>
        <time>2026-06-26T10:11:08Z</time>
      </trkpt>
      <trkpt lat="46.07662" lon="6.78383">
        <ele>2042.4</ele>
        <time>2026-06-26T10:11:09Z</time>
      </trkpt>
      <trkpt lat="46.07662" lon="6.78383">
        <ele>2042.6</ele>
        <time>2026-06-26T10:11:10Z</time>
      </trkpt>
      <trkpt lat="46.07662" lon="6.78384">
        <ele>2042.8</ele>
        <time>2026-06-26T10:11:11Z</time>
      </trkpt>
      <trkpt lat="46.07663" lon="6.78385">
        <ele>2043.1</ele>
        <time>2026-06-26T10:11:12Z</time>
      </trkpt>
      <trkpt lat="46.07663" lon="6.78385">
        <ele>2043.3</ele>
        <time>2026-06-26T10:11:13Z</time>
      </trkpt>
      <trkpt lat="46.07663" lon="6.78386">
        <ele>2043.5</ele>
        <time>2026-06-26T10:11:14Z</time>
      </trkpt>
      <trkpt lat="46.07664" lon="6.78386">
        <ele>2043.7</ele>
        <time>2026-06-26T10:11:15Z</time>
      </trkpt>
      <trkpt lat="46.07664" lon="6.78387">
        <ele>2044</ele>
        <time>2026-06-26T10:11:16Z</time>
      </trkpt>
      <trkpt lat="46.07664" lon="6.78387">
        <ele>2044.2</ele>
        <time>2026-06-26T10:11:17Z</time>
      </trkpt>
      <trkpt lat="46.07664" lon="6.78387">
        <ele>2044.3</ele>
        <time>2026-06-26T10:11:18Z</time>
      </trkpt>
      <trkpt lat="46.07664" lon="6.78388">
        <ele>2044.5</ele>
        <time>2026-06-26T10:11:19Z</time>
      </trkpt>
      <trkpt lat="46.07664" lon="6.78388">
        <ele>2044.8</ele>
        <time>2026-06-26T10:11:20Z</time>
      </trkpt>
      <trkpt lat="46.07664" lon="6.78389">
        <ele>2044.9</ele>
        <time>2026-06-26T10:11:21Z</time>
      </trkpt>
      <trkpt lat="46.07665" lon="6.7839">
        <ele>2045.2</ele>
        <time>2026-06-26T10:11:22Z</time>
      </trkpt>
      <trkpt lat="46.07665" lon="6.7839">
        <ele>2045.5</ele>
        <time>2026-06-26T10:11:23Z</time>
      </trkpt>
      <trkpt lat="46.07665" lon="6.78391">
        <ele>2045.8</ele>
        <time>2026-06-26T10:11:24Z</time>
      </trkpt>
      <trkpt lat="46.07665" lon="6.78391">
        <ele>2046</ele>
        <time>2026-06-26T10:11:25Z</time>
      </trkpt>
      <trkpt lat="46.07665" lon="6.78391">
        <ele>2046.2</ele>
        <time>2026-06-26T10:11:26Z</time>
      </trkpt>
      <trkpt lat="46.07665" lon="6.78392">
        <ele>2046.3</ele>
        <time>2026-06-26T10:11:27Z</time>
      </trkpt>
      <trkpt lat="46.07666" lon="6.78393">
        <ele>2046.5</ele>
        <time>2026-06-26T10:11:28Z</time>
      </trkpt>
      <trkpt lat="46.07666" lon="6.78394">
        <ele>2046.6</ele>
        <time>2026-06-26T10:11:29Z</time>
      </trkpt>
      <trkpt lat="46.07667" lon="6.78394">
        <ele>2046.8</ele>
        <time>2026-06-26T10:11:30Z</time>
      </trkpt>
      <trkpt lat="46.07667" lon="6.78395">
        <ele>2046.9</ele>
        <time>2026-06-26T10:11:31Z</time>
      </trkpt>
      <trkpt lat="46.07668" lon="6.78395">
        <ele>2047.2</ele>
        <time>2026-06-26T10:11:32Z</time>
      </trkpt>
      <trkpt lat="46.07668" lon="6.78396">
        <ele>2047.4</ele>
        <time>2026-06-26T10:11:33Z</time>
      </trkpt>
      <trkpt lat="46.07668" lon="6.78397">
        <ele>2047.6</ele>
        <time>2026-06-26T10:11:34Z</time>
      </trkpt>
      <trkpt lat="46.07668" lon="6.78397">
        <ele>2047.8</ele>
        <time>2026-06-26T10:11:35Z</time>
      </trkpt>
      <trkpt lat="46.07669" lon="6.78398">
        <ele>2048.1</ele>
        <time>2026-06-26T10:11:36Z</time>
      </trkpt>
      <trkpt lat="46.07669" lon="6.78399">
        <ele>2048.3</ele>
        <time>2026-06-26T10:11:37Z</time>
      </trkpt>
      <trkpt lat="46.07669" lon="6.784">
        <ele>2048.7</ele>
        <time>2026-06-26T10:11:38Z</time>
      </trkpt>
      <trkpt lat="46.0767" lon="6.784">
        <ele>2048.9</ele>
        <time>2026-06-26T10:11:39Z</time>
      </trkpt>
      <trkpt lat="46.0767" lon="6.78401">
        <ele>2049.2</ele>
        <time>2026-06-26T10:11:40Z</time>
      </trkpt>
      <trkpt lat="46.07671" lon="6.78402">
        <ele>2049.4</ele>
        <time>2026-06-26T10:11:41Z</time>
      </trkpt>
      <trkpt lat="46.07671" lon="6.78402">
        <ele>2049.7</ele>
        <time>2026-06-26T10:11:42Z</time>
      </trkpt>
      <trkpt lat="46.07671" lon="6.78403">
        <ele>2049.8</ele>
        <time>2026-06-26T10:11:43Z</time>
      </trkpt>
      <trkpt lat="46.07671" lon="6.78403">
        <ele>2050</ele>
        <time>2026-06-26T10:11:44Z</time>
      </trkpt>
      <trkpt lat="46.07672" lon="6.78404">
        <ele>2050.1</ele>
        <time>2026-06-26T10:11:45Z</time>
      </trkpt>
      <trkpt lat="46.07672" lon="6.78404">
        <ele>2050.3</ele>
        <time>2026-06-26T10:11:46Z</time>
      </trkpt>
      <trkpt lat="46.07672" lon="6.78404">
        <ele>2050.6</ele>
        <time>2026-06-26T10:11:47Z</time>
      </trkpt>
      <trkpt lat="46.07672" lon="6.78405">
        <ele>2050.7</ele>
        <time>2026-06-26T10:11:48Z</time>
      </trkpt>
      <trkpt lat="46.07673" lon="6.78406">
        <ele>2050.8</ele>
        <time>2026-06-26T10:11:49Z</time>
      </trkpt>
      <trkpt lat="46.07673" lon="6.78406">
        <ele>2051</ele>
        <time>2026-06-26T10:11:50Z</time>
      </trkpt>
      <trkpt lat="46.07673" lon="6.78407">
        <ele>2051.1</ele>
        <time>2026-06-26T10:11:51Z</time>
      </trkpt>
      <trkpt lat="46.07673" lon="6.78407">
        <ele>2051.2</ele>
        <time>2026-06-26T10:11:52Z</time>
      </trkpt>
      <trkpt lat="46.07674" lon="6.78408">
        <ele>2051.4</ele>
        <time>2026-06-26T10:11:53Z</time>
      </trkpt>
      <trkpt lat="46.07674" lon="6.78409">
        <ele>2051.7</ele>
        <time>2026-06-26T10:11:54Z</time>
      </trkpt>
      <trkpt lat="46.07674" lon="6.7841">
        <ele>2051.9</ele>
        <time>2026-06-26T10:11:55Z</time>
      </trkpt>
      <trkpt lat="46.07675" lon="6.78411">
        <ele>2052.2</ele>
        <time>2026-06-26T10:11:56Z</time>
      </trkpt>
      <trkpt lat="46.07675" lon="6.78412">
        <ele>2052.5</ele>
        <time>2026-06-26T10:11:57Z</time>
      </trkpt>
      <trkpt lat="46.07676" lon="6.78413">
        <ele>2052.7</ele>
        <time>2026-06-26T10:11:58Z</time>
      </trkpt>
      <trkpt lat="46.07676" lon="6.78413">
        <ele>2053</ele>
        <time>2026-06-26T10:11:59Z</time>
      </trkpt>
      <trkpt lat="46.07676" lon="6.78414">
        <ele>2053.3</ele>
        <time>2026-06-26T10:12:00Z</time>
      </trkpt>
      <trkpt lat="46.07676" lon="6.78413">
        <ele>2053.4</ele>
        <time>2026-06-26T10:12:01Z</time>
      </trkpt>
      <trkpt lat="46.07676" lon="6.78413">
        <ele>2053.6</ele>
        <time>2026-06-26T10:12:02Z</time>
      </trkpt>
      <trkpt lat="46.07676" lon="6.78413">
        <ele>2053.8</ele>
        <time>2026-06-26T10:12:03Z</time>
      </trkpt>
      <trkpt lat="46.07676" lon="6.78413">
        <ele>2053.9</ele>
        <time>2026-06-26T10:12:04Z</time>
      </trkpt>
      <trkpt lat="46.07676" lon="6.78413">
        <ele>2054</ele>
        <time>2026-06-26T10:12:05Z</time>
      </trkpt>
      <trkpt lat="46.07677" lon="6.78412">
        <ele>2054.1</ele>
        <time>2026-06-26T10:12:06Z</time>
      </trkpt>
      <trkpt lat="46.07677" lon="6.78412">
        <ele>2054.1</ele>
        <time>2026-06-26T10:12:07Z</time>
      </trkpt>
      <trkpt lat="46.07677" lon="6.78412">
        <ele>2054.2</ele>
        <time>2026-06-26T10:12:08Z</time>
      </trkpt>
      <trkpt lat="46.07677" lon="6.78412">
        <ele>2054.2</ele>
        <time>2026-06-26T10:12:09Z</time>
      </trkpt>
      <trkpt lat="46.07677" lon="6.78412">
        <ele>2054.2</ele>
        <time>2026-06-26T10:12:10Z</time>
      </trkpt>
      <trkpt lat="46.07677" lon="6.78412">
        <ele>2054.1</ele>
        <time>2026-06-26T10:12:11Z</time>
      </trkpt>
      <trkpt lat="46.07678" lon="6.78412">
        <ele>2054.1</ele>
        <time>2026-06-26T10:12:12Z</time>
      </trkpt>
      <trkpt lat="46.07678" lon="6.78412">
        <ele>2054.1</ele>
        <time>2026-06-26T10:12:13Z</time>
      </trkpt>
      <trkpt lat="46.07678" lon="6.78412">
        <ele>2054.1</ele>
        <time>2026-06-26T10:12:14Z</time>
      </trkpt>
      <trkpt lat="46.07678" lon="6.78413">
        <ele>2054.1</ele>
        <time>2026-06-26T10:12:15Z</time>
      </trkpt>
      <trkpt lat="46.07678" lon="6.78413">
        <ele>2054.1</ele>
        <time>2026-06-26T10:12:16Z</time>
      </trkpt>
      <trkpt lat="46.07678" lon="6.78413">
        <ele>2054.1</ele>
        <time>2026-06-26T10:12:17Z</time>
      </trkpt>
      <trkpt lat="46.07678" lon="6.78414">
        <ele>2054.2</ele>
        <time>2026-06-26T10:12:18Z</time>
      </trkpt>
      <trkpt lat="46.07678" lon="6.78414">
        <ele>2054.3</ele>
        <time>2026-06-26T10:12:19Z</time>
      </trkpt>
      <trkpt lat="46.07678" lon="6.78414">
        <ele>2054.3</ele>
        <time>2026-06-26T10:12:20Z</time>
      </trkpt>
      <trkpt lat="46.07679" lon="6.78414">
        <ele>2054.4</ele>
        <time>2026-06-26T10:12:21Z</time>
      </trkpt>
      <trkpt lat="46.07679" lon="6.78414">
        <ele>2054.4</ele>
        <time>2026-06-26T10:12:22Z</time>
      </trkpt>
      <trkpt lat="46.07679" lon="6.78414">
        <ele>2054.4</ele>
        <time>2026-06-26T10:12:23Z</time>
      </trkpt>
      <trkpt lat="46.07679" lon="6.78414">
        <ele>2054.4</ele>
        <time>2026-06-26T10:12:24Z</time>
      </trkpt>
      <trkpt lat="46.07679" lon="6.78414">
        <ele>2054.4</ele>
        <time>2026-06-26T10:12:25Z</time>
      </trkpt>
      <trkpt lat="46.07679" lon="6.78414">
        <ele>2054.4</ele>
        <time>2026-06-26T10:12:26Z</time>
      </trkpt>
      <trkpt lat="46.07679" lon="6.78414">
        <ele>2054.4</ele>
        <time>2026-06-26T10:12:27Z</time>
      </trkpt>
      <trkpt lat="46.07679" lon="6.78414">
        <ele>2054.4</ele>
        <time>2026-06-26T10:12:28Z</time>
      </trkpt>
      <trkpt lat="46.07679" lon="6.78415">
        <ele>2054.5</ele>
        <time>2026-06-26T10:12:29Z</time>
      </trkpt>
      <trkpt lat="46.0768" lon="6.78414">
        <ele>2054.5</ele>
        <time>2026-06-26T10:12:30Z</time>
      </trkpt>
      <trkpt lat="46.0768" lon="6.78414">
        <ele>2054.5</ele>
        <time>2026-06-26T10:12:31Z</time>
      </trkpt>
      <trkpt lat="46.0768" lon="6.78414">
        <ele>2054.5</ele>
        <time>2026-06-26T10:12:32Z</time>
      </trkpt>
      <trkpt lat="46.0768" lon="6.78414">
        <ele>2054.5</ele>
        <time>2026-06-26T10:12:33Z</time>
      </trkpt>
      <trkpt lat="46.0768" lon="6.78414">
        <ele>2054.5</ele>
        <time>2026-06-26T10:12:34Z</time>
      </trkpt>
      <trkpt lat="46.0768" lon="6.78414">
        <ele>2054.6</ele>
        <time>2026-06-26T10:12:35Z</time>
      </trkpt>
      <trkpt lat="46.0768" lon="6.78414">
        <ele>2054.8</ele>
        <time>2026-06-26T10:12:36Z</time>
      </trkpt>
      <trkpt lat="46.0768" lon="6.78414">
        <ele>2054.8</ele>
        <time>2026-06-26T10:12:37Z</time>
      </trkpt>
      <trkpt lat="46.0768" lon="6.78415">
        <ele>2054.8</ele>
        <time>2026-06-26T10:12:38Z</time>
      </trkpt>
      <trkpt lat="46.0768" lon="6.78415">
        <ele>2054.8</ele>
        <time>2026-06-26T10:12:39Z</time>
      </trkpt>
      <trkpt lat="46.0768" lon="6.78415">
        <ele>2054.8</ele>
        <time>2026-06-26T10:12:40Z</time>
      </trkpt>
      <trkpt lat="46.0768" lon="6.78415">
        <ele>2054.9</ele>
        <time>2026-06-26T10:12:41Z</time>
      </trkpt>
      <trkpt lat="46.0768" lon="6.78415">
        <ele>2054.9</ele>
        <time>2026-06-26T10:12:42Z</time>
      </trkpt>
      <trkpt lat="46.0768" lon="6.78415">
        <ele>2054.9</ele>
        <time>2026-06-26T10:12:43Z</time>
      </trkpt>
      <trkpt lat="46.0768" lon="6.78415">
        <ele>2054.9</ele>
        <time>2026-06-26T10:12:44Z</time>
      </trkpt>
      <trkpt lat="46.0768" lon="6.78415">
        <ele>2055</ele>
        <time>2026-06-26T10:12:45Z</time>
      </trkpt>
      <trkpt lat="46.07681" lon="6.78415">
        <ele>2055</ele>
        <time>2026-06-26T10:12:46Z</time>
      </trkpt>
      <trkpt lat="46.07681" lon="6.78415">
        <ele>2055</ele>
        <time>2026-06-26T10:12:47Z</time>
      </trkpt>
      <trkpt lat="46.07681" lon="6.78416">
        <ele>2055</ele>
        <time>2026-06-26T10:12:48Z</time>
      </trkpt>
      <trkpt lat="46.07681" lon="6.78416">
        <ele>2054.9</ele>
        <time>2026-06-26T10:12:49Z</time>
      </trkpt>
      <trkpt lat="46.07681" lon="6.78416">
        <ele>2054.9</ele>
        <time>2026-06-26T10:12:50Z</time>
      </trkpt>
      <trkpt lat="46.07681" lon="6.78416">
        <ele>2054.9</ele>
        <time>2026-06-26T10:12:51Z</time>
      </trkpt>
      <trkpt lat="46.07681" lon="6.78417">
        <ele>2054.9</ele>
        <time>2026-06-26T10:12:52Z</time>
      </trkpt>
      <trkpt lat="46.07681" lon="6.78417">
        <ele>2054.9</ele>
        <time>2026-06-26T10:12:53Z</time>
      </trkpt>
      <trkpt lat="46.07681" lon="6.78417">
        <ele>2054.8</ele>
        <time>2026-06-26T10:12:54Z</time>
      </trkpt>
      <trkpt lat="46.07681" lon="6.78417">
        <ele>2054.8</ele>
        <time>2026-06-26T10:12:55Z</time>
      </trkpt>
      <trkpt lat="46.07681" lon="6.78417">
        <ele>2054.7</ele>
        <time>2026-06-26T10:12:56Z</time>
      </trkpt>
      <trkpt lat="46.07681" lon="6.78417">
        <ele>2054.7</ele>
        <time>2026-06-26T10:12:57Z</time>
      </trkpt>
      <trkpt lat="46.07681" lon="6.78417">
        <ele>2054.7</ele>
        <time>2026-06-26T10:12:58Z</time>
      </trkpt>
      <trkpt lat="46.07681" lon="6.78417">
        <ele>2054.7</ele>
        <time>2026-06-26T10:12:59Z</time>
      </trkpt>
      <trkpt lat="46.07681" lon="6.78417">
        <ele>2054.7</ele>
        <time>2026-06-26T10:13:00Z</time>
      </trkpt>
      <trkpt lat="46.07681" lon="6.78417">
        <ele>2054.7</ele>
        <time>2026-06-26T10:13:01Z</time>
      </trkpt>
      <trkpt lat="46.07681" lon="6.78417">
        <ele>2054.7</ele>
        <time>2026-06-26T10:13:02Z</time>
      </trkpt>
      <trkpt lat="46.07681" lon="6.78418">
        <ele>2054.7</ele>
        <time>2026-06-26T10:13:03Z</time>
      </trkpt>
      <trkpt lat="46.07681" lon="6.78418">
        <ele>2054.8</ele>
        <time>2026-06-26T10:13:04Z</time>
      </trkpt>
      <trkpt lat="46.07681" lon="6.78418">
        <ele>2054.8</ele>
        <time>2026-06-26T10:13:05Z</time>
      </trkpt>
      <trkpt lat="46.07681" lon="6.78418">
        <ele>2054.8</ele>
        <time>2026-06-26T10:13:06Z</time>
      </trkpt>
      <trkpt lat="46.07681" lon="6.78418">
        <ele>2054.7</ele>
        <time>2026-06-26T10:13:07Z</time>
      </trkpt>
      <trkpt lat="46.0768" lon="6.78418">
        <ele>2054.7</ele>
        <time>2026-06-26T10:13:08Z</time>
      </trkpt>
      <trkpt lat="46.0768" lon="6.78417">
        <ele>2054.7</ele>
        <time>2026-06-26T10:13:09Z</time>
      </trkpt>
      <trkpt lat="46.07681" lon="6.78417">
        <ele>2054.6</ele>
        <time>2026-06-26T10:13:10Z</time>
      </trkpt>
      <trkpt lat="46.07681" lon="6.78417">
        <ele>2054.6</ele>
        <time>2026-06-26T10:13:11Z</time>
      </trkpt>
      <trkpt lat="46.07681" lon="6.78417">
        <ele>2054.7</ele>
        <time>2026-06-26T10:13:12Z</time>
      </trkpt>
      <trkpt lat="46.07681" lon="6.78416">
        <ele>2054.7</ele>
        <time>2026-06-26T10:13:13Z</time>
      </trkpt>
      <trkpt lat="46.07681" lon="6.78415">
        <ele>2054.6</ele>
        <time>2026-06-26T10:13:14Z</time>
      </trkpt>
      <trkpt lat="46.0768" lon="6.78414">
        <ele>2054.5</ele>
        <time>2026-06-26T10:13:15Z</time>
      </trkpt>
      <trkpt lat="46.0768" lon="6.78413">
        <ele>2054.3</ele>
        <time>2026-06-26T10:13:16Z</time>
      </trkpt>
      <trkpt lat="46.07679" lon="6.78412">
        <ele>2053.8</ele>
        <time>2026-06-26T10:13:17Z</time>
      </trkpt>
      <trkpt lat="46.07679" lon="6.78411">
        <ele>2053.5</ele>
        <time>2026-06-26T10:13:18Z</time>
      </trkpt>
      <trkpt lat="46.07678" lon="6.7841">
        <ele>2053.3</ele>
        <time>2026-06-26T10:13:19Z</time>
      </trkpt>
      <trkpt lat="46.07677" lon="6.78409">
        <ele>2053.1</ele>
        <time>2026-06-26T10:13:20Z</time>
      </trkpt>
      <trkpt lat="46.07677" lon="6.78407">
        <ele>2052.9</ele>
        <time>2026-06-26T10:13:21Z</time>
      </trkpt>
      <trkpt lat="46.07676" lon="6.78407">
        <ele>2052.6</ele>
        <time>2026-06-26T10:13:22Z</time>
      </trkpt>
      <trkpt lat="46.07676" lon="6.78406">
        <ele>2052.4</ele>
        <time>2026-06-26T10:13:23Z</time>
      </trkpt>
      <trkpt lat="46.07675" lon="6.78404">
        <ele>2052.2</ele>
        <time>2026-06-26T10:13:24Z</time>
      </trkpt>
      <trkpt lat="46.07675" lon="6.78404">
        <ele>2051.9</ele>
        <time>2026-06-26T10:13:25Z</time>
      </trkpt>
      <trkpt lat="46.07674" lon="6.78403">
        <ele>2051.5</ele>
        <time>2026-06-26T10:13:26Z</time>
      </trkpt>
      <trkpt lat="46.07674" lon="6.78402">
        <ele>2051.3</ele>
        <time>2026-06-26T10:13:27Z</time>
      </trkpt>
      <trkpt lat="46.07674" lon="6.78401">
        <ele>2051</ele>
        <time>2026-06-26T10:13:28Z</time>
      </trkpt>
      <trkpt lat="46.07673" lon="6.784">
        <ele>2050.6</ele>
        <time>2026-06-26T10:13:29Z</time>
      </trkpt>
      <trkpt lat="46.07673" lon="6.78399">
        <ele>2050.4</ele>
        <time>2026-06-26T10:13:30Z</time>
      </trkpt>
      <trkpt lat="46.07672" lon="6.78398">
        <ele>2050.1</ele>
        <time>2026-06-26T10:13:31Z</time>
      </trkpt>
      <trkpt lat="46.07672" lon="6.78397">
        <ele>2049.9</ele>
        <time>2026-06-26T10:13:32Z</time>
      </trkpt>
      <trkpt lat="46.07671" lon="6.78397">
        <ele>2049.7</ele>
        <time>2026-06-26T10:13:33Z</time>
      </trkpt>
      <trkpt lat="46.07671" lon="6.78396">
        <ele>2049.4</ele>
        <time>2026-06-26T10:13:34Z</time>
      </trkpt>
      <trkpt lat="46.07671" lon="6.78395">
        <ele>2049</ele>
        <time>2026-06-26T10:13:35Z</time>
      </trkpt>
      <trkpt lat="46.0767" lon="6.78395">
        <ele>2048.8</ele>
        <time>2026-06-26T10:13:36Z</time>
      </trkpt>
      <trkpt lat="46.0767" lon="6.78394">
        <ele>2048.7</ele>
        <time>2026-06-26T10:13:37Z</time>
      </trkpt>
      <trkpt lat="46.0767" lon="6.78394">
        <ele>2048.6</ele>
        <time>2026-06-26T10:13:38Z</time>
      </trkpt>
      <trkpt lat="46.0767" lon="6.78394">
        <ele>2048.4</ele>
        <time>2026-06-26T10:13:39Z</time>
      </trkpt>
      <trkpt lat="46.0767" lon="6.78393">
        <ele>2048.2</ele>
        <time>2026-06-26T10:13:40Z</time>
      </trkpt>
      <trkpt lat="46.0767" lon="6.78393">
        <ele>2047.9</ele>
        <time>2026-06-26T10:13:41Z</time>
      </trkpt>
      <trkpt lat="46.07669" lon="6.78392">
        <ele>2047.7</ele>
        <time>2026-06-26T10:13:42Z</time>
      </trkpt>
      <trkpt lat="46.07669" lon="6.78392">
        <ele>2047.4</ele>
        <time>2026-06-26T10:13:43Z</time>
      </trkpt>
      <trkpt lat="46.07669" lon="6.78392">
        <ele>2047.3</ele>
        <time>2026-06-26T10:13:44Z</time>
      </trkpt>
      <trkpt lat="46.07669" lon="6.78392">
        <ele>2047.1</ele>
        <time>2026-06-26T10:13:45Z</time>
      </trkpt>
      <trkpt lat="46.07669" lon="6.78392">
        <ele>2047</ele>
        <time>2026-06-26T10:13:46Z</time>
      </trkpt>
      <trkpt lat="46.07668" lon="6.78392">
        <ele>2047</ele>
        <time>2026-06-26T10:13:47Z</time>
      </trkpt>
      <trkpt lat="46.07669" lon="6.78392">
        <ele>2046.9</ele>
        <time>2026-06-26T10:13:48Z</time>
      </trkpt>
      <trkpt lat="46.07669" lon="6.78391">
        <ele>2046.8</ele>
        <time>2026-06-26T10:13:49Z</time>
      </trkpt>
      <trkpt lat="46.07669" lon="6.7839">
        <ele>2046.7</ele>
        <time>2026-06-26T10:13:50Z</time>
      </trkpt>
      <trkpt lat="46.07669" lon="6.7839">
        <ele>2046.6</ele>
        <time>2026-06-26T10:13:51Z</time>
      </trkpt>
      <trkpt lat="46.07668" lon="6.78389">
        <ele>2046.4</ele>
        <time>2026-06-26T10:13:52Z</time>
      </trkpt>
      <trkpt lat="46.07668" lon="6.78389">
        <ele>2046.2</ele>
        <time>2026-06-26T10:13:53Z</time>
      </trkpt>
      <trkpt lat="46.07668" lon="6.78388">
        <ele>2046</ele>
        <time>2026-06-26T10:13:54Z</time>
      </trkpt>
      <trkpt lat="46.07668" lon="6.78387">
        <ele>2045.6</ele>
        <time>2026-06-26T10:13:55Z</time>
      </trkpt>
      <trkpt lat="46.07668" lon="6.78387">
        <ele>2045.3</ele>
        <time>2026-06-26T10:13:56Z</time>
      </trkpt>
      <trkpt lat="46.07668" lon="6.78386">
        <ele>2044.9</ele>
        <time>2026-06-26T10:13:57Z</time>
      </trkpt>
      <trkpt lat="46.07667" lon="6.78385">
        <ele>2044.4</ele>
        <time>2026-06-26T10:13:58Z</time>
      </trkpt>
      <trkpt lat="46.07667" lon="6.78384">
        <ele>2044.1</ele>
        <time>2026-06-26T10:13:59Z</time>
      </trkpt>
      <trkpt lat="46.07666" lon="6.78383">
        <ele>2043.8</ele>
        <time>2026-06-26T10:14:00Z</time>
      </trkpt>
      <trkpt lat="46.07666" lon="6.78382">
        <ele>2043.4</ele>
        <time>2026-06-26T10:14:01Z</time>
      </trkpt>
      <trkpt lat="46.07665" lon="6.78381">
        <ele>2043</ele>
        <time>2026-06-26T10:14:02Z</time>
      </trkpt>
      <trkpt lat="46.07665" lon="6.7838">
        <ele>2042.6</ele>
        <time>2026-06-26T10:14:03Z</time>
      </trkpt>
      <trkpt lat="46.07664" lon="6.78379">
        <ele>2042.3</ele>
        <time>2026-06-26T10:14:04Z</time>
      </trkpt>
      <trkpt lat="46.07664" lon="6.78378">
        <ele>2042</ele>
        <time>2026-06-26T10:14:05Z</time>
      </trkpt>
      <trkpt lat="46.07664" lon="6.78377">
        <ele>2041.7</ele>
        <time>2026-06-26T10:14:06Z</time>
      </trkpt>
      <trkpt lat="46.07664" lon="6.78376">
        <ele>2041.3</ele>
        <time>2026-06-26T10:14:07Z</time>
      </trkpt>
      <trkpt lat="46.07663" lon="6.78376">
        <ele>2041</ele>
        <time>2026-06-26T10:14:08Z</time>
      </trkpt>
      <trkpt lat="46.07663" lon="6.78375">
        <ele>2040.7</ele>
        <time>2026-06-26T10:14:09Z</time>
      </trkpt>
      <trkpt lat="46.07662" lon="6.78375">
        <ele>2040.4</ele>
        <time>2026-06-26T10:14:10Z</time>
      </trkpt>
      <trkpt lat="46.07662" lon="6.78374">
        <ele>2040</ele>
        <time>2026-06-26T10:14:11Z</time>
      </trkpt>
      <trkpt lat="46.07661" lon="6.78373">
        <ele>2039.8</ele>
        <time>2026-06-26T10:14:12Z</time>
      </trkpt>
      <trkpt lat="46.07661" lon="6.78372">
        <ele>2039.5</ele>
        <time>2026-06-26T10:14:13Z</time>
      </trkpt>
      <trkpt lat="46.0766" lon="6.78371">
        <ele>2039.1</ele>
        <time>2026-06-26T10:14:14Z</time>
      </trkpt>
      <trkpt lat="46.0766" lon="6.78371">
        <ele>2038.8</ele>
        <time>2026-06-26T10:14:15Z</time>
      </trkpt>
      <trkpt lat="46.0766" lon="6.78371">
        <ele>2038.5</ele>
        <time>2026-06-26T10:14:16Z</time>
      </trkpt>
      <trkpt lat="46.0766" lon="6.7837">
        <ele>2038.3</ele>
        <time>2026-06-26T10:14:17Z</time>
      </trkpt>
      <trkpt lat="46.0766" lon="6.78369">
        <ele>2038.1</ele>
        <time>2026-06-26T10:14:18Z</time>
      </trkpt>
      <trkpt lat="46.07659" lon="6.78368">
        <ele>2037.9</ele>
        <time>2026-06-26T10:14:19Z</time>
      </trkpt>
      <trkpt lat="46.07659" lon="6.78368">
        <ele>2037.6</ele>
        <time>2026-06-26T10:14:20Z</time>
      </trkpt>
      <trkpt lat="46.07659" lon="6.78367">
        <ele>2037.4</ele>
        <time>2026-06-26T10:14:21Z</time>
      </trkpt>
      <trkpt lat="46.07659" lon="6.78367">
        <ele>2037.1</ele>
        <time>2026-06-26T10:14:22Z</time>
      </trkpt>
      <trkpt lat="46.07659" lon="6.78367">
        <ele>2036.8</ele>
        <time>2026-06-26T10:14:23Z</time>
      </trkpt>
      <trkpt lat="46.0766" lon="6.78367">
        <ele>2036.7</ele>
        <time>2026-06-26T10:14:24Z</time>
      </trkpt>
      <trkpt lat="46.07659" lon="6.78367">
        <ele>2036.5</ele>
        <time>2026-06-26T10:14:25Z</time>
      </trkpt>
      <trkpt lat="46.07659" lon="6.78366">
        <ele>2036.4</ele>
        <time>2026-06-26T10:14:26Z</time>
      </trkpt>
      <trkpt lat="46.07659" lon="6.78366">
        <ele>2036.4</ele>
        <time>2026-06-26T10:14:27Z</time>
      </trkpt>
      <trkpt lat="46.07659" lon="6.78365">
        <ele>2036.1</ele>
        <time>2026-06-26T10:14:28Z</time>
      </trkpt>
      <trkpt lat="46.07658" lon="6.78364">
        <ele>2036</ele>
        <time>2026-06-26T10:14:29Z</time>
      </trkpt>
      <trkpt lat="46.07658" lon="6.78364">
        <ele>2035.7</ele>
        <time>2026-06-26T10:14:30Z</time>
      </trkpt>
      <trkpt lat="46.07658" lon="6.78363">
        <ele>2035.5</ele>
        <time>2026-06-26T10:14:31Z</time>
      </trkpt>
      <trkpt lat="46.07658" lon="6.78363">
        <ele>2035.3</ele>
        <time>2026-06-26T10:14:32Z</time>
      </trkpt>
      <trkpt lat="46.07657" lon="6.78362">
        <ele>2035</ele>
        <time>2026-06-26T10:14:33Z</time>
      </trkpt>
      <trkpt lat="46.07657" lon="6.78361">
        <ele>2034.8</ele>
        <time>2026-06-26T10:14:34Z</time>
      </trkpt>
      <trkpt lat="46.07657" lon="6.78361">
        <ele>2034.5</ele>
        <time>2026-06-26T10:14:35Z</time>
      </trkpt>
      <trkpt lat="46.07657" lon="6.7836">
        <ele>2034.3</ele>
        <time>2026-06-26T10:14:36Z</time>
      </trkpt>
      <trkpt lat="46.07656" lon="6.78359">
        <ele>2034</ele>
        <time>2026-06-26T10:14:37Z</time>
      </trkpt>
      <trkpt lat="46.07656" lon="6.78358">
        <ele>2033.6</ele>
        <time>2026-06-26T10:14:38Z</time>
      </trkpt>
      <trkpt lat="46.07656" lon="6.78358">
        <ele>2033.4</ele>
        <time>2026-06-26T10:14:39Z</time>
      </trkpt>
      <trkpt lat="46.07655" lon="6.78357">
        <ele>2033.1</ele>
        <time>2026-06-26T10:14:40Z</time>
      </trkpt>
      <trkpt lat="46.07655" lon="6.78357">
        <ele>2032.7</ele>
        <time>2026-06-26T10:14:41Z</time>
      </trkpt>
      <trkpt lat="46.07654" lon="6.78356">
        <ele>2032.6</ele>
        <time>2026-06-26T10:14:42Z</time>
      </trkpt>
      <trkpt lat="46.07654" lon="6.78356">
        <ele>2032.3</ele>
        <time>2026-06-26T10:14:43Z</time>
      </trkpt>
      <trkpt lat="46.07654" lon="6.78355">
        <ele>2032</ele>
        <time>2026-06-26T10:14:44Z</time>
      </trkpt>
      <trkpt lat="46.07654" lon="6.78355">
        <ele>2031.8</ele>
        <time>2026-06-26T10:14:45Z</time>
      </trkpt>
      <trkpt lat="46.07653" lon="6.78354">
        <ele>2031.5</ele>
        <time>2026-06-26T10:14:46Z</time>
      </trkpt>
      <trkpt lat="46.07653" lon="6.78354">
        <ele>2031.3</ele>
        <time>2026-06-26T10:14:47Z</time>
      </trkpt>
      <trkpt lat="46.07653" lon="6.78353">
        <ele>2031.1</ele>
        <time>2026-06-26T10:14:48Z</time>
      </trkpt>
      <trkpt lat="46.07653" lon="6.78352">
        <ele>2030.8</ele>
        <time>2026-06-26T10:14:49Z</time>
      </trkpt>
      <trkpt lat="46.07652" lon="6.78351">
        <ele>2030.5</ele>
        <time>2026-06-26T10:14:50Z</time>
      </trkpt>
      <trkpt lat="46.07652" lon="6.78351">
        <ele>2030.3</ele>
        <time>2026-06-26T10:14:51Z</time>
      </trkpt>
      <trkpt lat="46.07651" lon="6.78351">
        <ele>2030.1</ele>
        <time>2026-06-26T10:14:52Z</time>
      </trkpt>
      <trkpt lat="46.07651" lon="6.7835">
        <ele>2029.8</ele>
        <time>2026-06-26T10:14:53Z</time>
      </trkpt>
      <trkpt lat="46.0765" lon="6.7835">
        <ele>2029.6</ele>
        <time>2026-06-26T10:14:54Z</time>
      </trkpt>
      <trkpt lat="46.0765" lon="6.7835">
        <ele>2029.4</ele>
        <time>2026-06-26T10:14:55Z</time>
      </trkpt>
      <trkpt lat="46.07649" lon="6.7835">
        <ele>2029.3</ele>
        <time>2026-06-26T10:14:56Z</time>
      </trkpt>
      <trkpt lat="46.07649" lon="6.78349">
        <ele>2029.1</ele>
        <time>2026-06-26T10:14:57Z</time>
      </trkpt>
      <trkpt lat="46.07649" lon="6.78349">
        <ele>2028.9</ele>
        <time>2026-06-26T10:14:58Z</time>
      </trkpt>
      <trkpt lat="46.07649" lon="6.78349">
        <ele>2028.8</ele>
        <time>2026-06-26T10:14:59Z</time>
      </trkpt>
      <trkpt lat="46.07649" lon="6.78349">
        <ele>2028.7</ele>
        <time>2026-06-26T10:15:00Z</time>
      </trkpt>
      <trkpt lat="46.07649" lon="6.78349">
        <ele>2028.6</ele>
        <time>2026-06-26T10:15:01Z</time>
      </trkpt>
      <trkpt lat="46.07649" lon="6.78349">
        <ele>2028.5</ele>
        <time>2026-06-26T10:15:02Z</time>
      </trkpt>
      <trkpt lat="46.07649" lon="6.78348">
        <ele>2028.5</ele>
        <time>2026-06-26T10:15:03Z</time>
      </trkpt>
      <trkpt lat="46.07649" lon="6.78348">
        <ele>2028.5</ele>
        <time>2026-06-26T10:15:04Z</time>
      </trkpt>
      <trkpt lat="46.07649" lon="6.78348">
        <ele>2028.5</ele>
        <time>2026-06-26T10:15:05Z</time>
      </trkpt>
      <trkpt lat="46.07649" lon="6.78348">
        <ele>2028.5</ele>
        <time>2026-06-26T10:15:06Z</time>
      </trkpt>
      <trkpt lat="46.07649" lon="6.78347">
        <ele>2028.3</ele>
        <time>2026-06-26T10:15:07Z</time>
      </trkpt>
      <trkpt lat="46.07649" lon="6.78347">
        <ele>2028.2</ele>
        <time>2026-06-26T10:15:08Z</time>
      </trkpt>
      <trkpt lat="46.07649" lon="6.78347">
        <ele>2028.1</ele>
        <time>2026-06-26T10:15:09Z</time>
      </trkpt>
      <trkpt lat="46.07649" lon="6.78347">
        <ele>2028.2</ele>
        <time>2026-06-26T10:15:10Z</time>
      </trkpt>
      <trkpt lat="46.07649" lon="6.78347">
        <ele>2028.3</ele>
        <time>2026-06-26T10:15:11Z</time>
      </trkpt>
      <trkpt lat="46.07649" lon="6.78346">
        <ele>2028.4</ele>
        <time>2026-06-26T10:15:12Z</time>
      </trkpt>
      <trkpt lat="46.07649" lon="6.78346">
        <ele>2028.3</ele>
        <time>2026-06-26T10:15:13Z</time>
      </trkpt>
      <trkpt lat="46.07649" lon="6.78345">
        <ele>2028.3</ele>
        <time>2026-06-26T10:15:14Z</time>
      </trkpt>
      <trkpt lat="46.07649" lon="6.78345">
        <ele>2028.3</ele>
        <time>2026-06-26T10:15:15Z</time>
      </trkpt>
      <trkpt lat="46.07649" lon="6.78345">
        <ele>2028.3</ele>
        <time>2026-06-26T10:15:16Z</time>
      </trkpt>
      <trkpt lat="46.07649" lon="6.78345">
        <ele>2028.3</ele>
        <time>2026-06-26T10:15:17Z</time>
      </trkpt>
      <trkpt lat="46.07649" lon="6.78345">
        <ele>2028.3</ele>
        <time>2026-06-26T10:15:18Z</time>
      </trkpt>
      <trkpt lat="46.07649" lon="6.78345">
        <ele>2028.3</ele>
        <time>2026-06-26T10:15:19Z</time>
      </trkpt>
      <trkpt lat="46.07649" lon="6.78345">
        <ele>2028.3</ele>
        <time>2026-06-26T10:15:20Z</time>
      </trkpt>
      <trkpt lat="46.07649" lon="6.78345">
        <ele>2028.2</ele>
        <time>2026-06-26T10:15:21Z</time>
      </trkpt>
      <trkpt lat="46.0765" lon="6.78345">
        <ele>2028.3</ele>
        <time>2026-06-26T10:15:22Z</time>
      </trkpt>
      <trkpt lat="46.0765" lon="6.78344">
        <ele>2028.3</ele>
        <time>2026-06-26T10:15:23Z</time>
      </trkpt>
      <trkpt lat="46.07649" lon="6.78343">
        <ele>2028.3</ele>
        <time>2026-06-26T10:15:24Z</time>
      </trkpt>
      <trkpt lat="46.07648" lon="6.78342">
        <ele>2028.2</ele>
        <time>2026-06-26T10:15:25Z</time>
      </trkpt>
      <trkpt lat="46.07647" lon="6.78341">
        <ele>2028.1</ele>
        <time>2026-06-26T10:15:26Z</time>
      </trkpt>
      <trkpt lat="46.07647" lon="6.7834">
        <ele>2028.2</ele>
        <time>2026-06-26T10:15:27Z</time>
      </trkpt>
      <trkpt lat="46.07646" lon="6.78339">
        <ele>2028.1</ele>
        <time>2026-06-26T10:15:28Z</time>
      </trkpt>
      <trkpt lat="46.07645" lon="6.78339">
        <ele>2027.9</ele>
        <time>2026-06-26T10:15:29Z</time>
      </trkpt>
      <trkpt lat="46.07644" lon="6.78338">
        <ele>2027.8</ele>
        <time>2026-06-26T10:15:30Z</time>
      </trkpt>
      <trkpt lat="46.07642" lon="6.78337">
        <ele>2027.8</ele>
        <time>2026-06-26T10:15:31Z</time>
      </trkpt>
      <trkpt lat="46.07641" lon="6.78336">
        <ele>2027.7</ele>
        <time>2026-06-26T10:15:32Z</time>
      </trkpt>
      <trkpt lat="46.0764" lon="6.78335">
        <ele>2027.5</ele>
        <time>2026-06-26T10:15:33Z</time>
      </trkpt>
      <trkpt lat="46.07639" lon="6.78334">
        <ele>2027.4</ele>
        <time>2026-06-26T10:15:34Z</time>
      </trkpt>
      <trkpt lat="46.07638" lon="6.78333">
        <ele>2027.2</ele>
        <time>2026-06-26T10:15:35Z</time>
      </trkpt>
      <trkpt lat="46.07637" lon="6.78332">
        <ele>2027.1</ele>
        <time>2026-06-26T10:15:36Z</time>
      </trkpt>
      <trkpt lat="46.07637" lon="6.78331">
        <ele>2027</ele>
        <time>2026-06-26T10:15:37Z</time>
      </trkpt>
      <trkpt lat="46.07636" lon="6.7833">
        <ele>2027</ele>
        <time>2026-06-26T10:15:38Z</time>
      </trkpt>
      <trkpt lat="46.07636" lon="6.78329">
        <ele>2026.9</ele>
        <time>2026-06-26T10:15:39Z</time>
      </trkpt>
      <trkpt lat="46.07635" lon="6.78329">
        <ele>2026.9</ele>
        <time>2026-06-26T10:15:40Z</time>
      </trkpt>
      <trkpt lat="46.07634" lon="6.78329">
        <ele>2026.9</ele>
        <time>2026-06-26T10:15:41Z</time>
      </trkpt>
      <trkpt lat="46.07633" lon="6.78329">
        <ele>2026.8</ele>
        <time>2026-06-26T10:15:42Z</time>
      </trkpt>
      <trkpt lat="46.07632" lon="6.7833">
        <ele>2026.8</ele>
        <time>2026-06-26T10:15:43Z</time>
      </trkpt>
      <trkpt lat="46.07631" lon="6.7833">
        <ele>2026.8</ele>
        <time>2026-06-26T10:15:44Z</time>
      </trkpt>
      <trkpt lat="46.0763" lon="6.7833">
        <ele>2026.9</ele>
        <time>2026-06-26T10:15:45Z</time>
      </trkpt>
      <trkpt lat="46.07629" lon="6.7833">
        <ele>2027</ele>
        <time>2026-06-26T10:15:46Z</time>
      </trkpt>
      <trkpt lat="46.07628" lon="6.78331">
        <ele>2027</ele>
        <time>2026-06-26T10:15:47Z</time>
      </trkpt>
      <trkpt lat="46.07627" lon="6.78332">
        <ele>2027.3</ele>
        <time>2026-06-26T10:15:48Z</time>
      </trkpt>
      <trkpt lat="46.07626" lon="6.78333">
        <ele>2027.5</ele>
        <time>2026-06-26T10:15:49Z</time>
      </trkpt>
      <trkpt lat="46.07625" lon="6.78333">
        <ele>2027.8</ele>
        <time>2026-06-26T10:15:50Z</time>
      </trkpt>
      <trkpt lat="46.07625" lon="6.78334">
        <ele>2028</ele>
        <time>2026-06-26T10:15:51Z</time>
      </trkpt>
      <trkpt lat="46.07624" lon="6.78334">
        <ele>2028.3</ele>
        <time>2026-06-26T10:15:52Z</time>
      </trkpt>
      <trkpt lat="46.07623" lon="6.78335">
        <ele>2028.4</ele>
        <time>2026-06-26T10:15:53Z</time>
      </trkpt>
      <trkpt lat="46.07622" lon="6.78335">
        <ele>2028.6</ele>
        <time>2026-06-26T10:15:54Z</time>
      </trkpt>
      <trkpt lat="46.07621" lon="6.78336">
        <ele>2028.8</ele>
        <time>2026-06-26T10:15:55Z</time>
      </trkpt>
      <trkpt lat="46.07621" lon="6.78336">
        <ele>2029</ele>
        <time>2026-06-26T10:15:56Z</time>
      </trkpt>
      <trkpt lat="46.0762" lon="6.78336">
        <ele>2029.4</ele>
        <time>2026-06-26T10:15:57Z</time>
      </trkpt>
      <trkpt lat="46.07619" lon="6.78337">
        <ele>2029.7</ele>
        <time>2026-06-26T10:15:58Z</time>
      </trkpt>
      <trkpt lat="46.07618" lon="6.78337">
        <ele>2029.9</ele>
        <time>2026-06-26T10:15:59Z</time>
      </trkpt>
      <trkpt lat="46.07617" lon="6.78337">
        <ele>2030</ele>
        <time>2026-06-26T10:16:00Z</time>
      </trkpt>
      <trkpt lat="46.07616" lon="6.78338">
        <ele>2030.2</ele>
        <time>2026-06-26T10:16:01Z</time>
      </trkpt>
      <trkpt lat="46.07616" lon="6.78339">
        <ele>2030.4</ele>
        <time>2026-06-26T10:16:02Z</time>
      </trkpt>
      <trkpt lat="46.07615" lon="6.78339">
        <ele>2030.6</ele>
        <time>2026-06-26T10:16:03Z</time>
      </trkpt>
      <trkpt lat="46.07614" lon="6.78339">
        <ele>2030.8</ele>
        <time>2026-06-26T10:16:04Z</time>
      </trkpt>
      <trkpt lat="46.07613" lon="6.7834">
        <ele>2030.9</ele>
        <time>2026-06-26T10:16:05Z</time>
      </trkpt>
      <trkpt lat="46.07613" lon="6.7834">
        <ele>2031.1</ele>
        <time>2026-06-26T10:16:06Z</time>
      </trkpt>
      <trkpt lat="46.07612" lon="6.7834">
        <ele>2031.2</ele>
        <time>2026-06-26T10:16:07Z</time>
      </trkpt>
      <trkpt lat="46.07611" lon="6.7834">
        <ele>2031.4</ele>
        <time>2026-06-26T10:16:08Z</time>
      </trkpt>
      <trkpt lat="46.0761" lon="6.78341">
        <ele>2031.6</ele>
        <time>2026-06-26T10:16:09Z</time>
      </trkpt>
      <trkpt lat="46.07609" lon="6.78341">
        <ele>2031.8</ele>
        <time>2026-06-26T10:16:10Z</time>
      </trkpt>
      <trkpt lat="46.07608" lon="6.78342">
        <ele>2032</ele>
        <time>2026-06-26T10:16:11Z</time>
      </trkpt>
      <trkpt lat="46.07607" lon="6.78342">
        <ele>2032.1</ele>
        <time>2026-06-26T10:16:12Z</time>
      </trkpt>
      <trkpt lat="46.07606" lon="6.78342">
        <ele>2032.2</ele>
        <time>2026-06-26T10:16:13Z</time>
      </trkpt>
      <trkpt lat="46.07605" lon="6.78343">
        <ele>2032.3</ele>
        <time>2026-06-26T10:16:14Z</time>
      </trkpt>
      <trkpt lat="46.07604" lon="6.78343">
        <ele>2032.4</ele>
        <time>2026-06-26T10:16:15Z</time>
      </trkpt>
      <trkpt lat="46.07603" lon="6.78343">
        <ele>2032.4</ele>
        <time>2026-06-26T10:16:16Z</time>
      </trkpt>
      <trkpt lat="46.07602" lon="6.78343">
        <ele>2032.6</ele>
        <time>2026-06-26T10:16:17Z</time>
      </trkpt>
      <trkpt lat="46.07601" lon="6.78343">
        <ele>2032.7</ele>
        <time>2026-06-26T10:16:18Z</time>
      </trkpt>
      <trkpt lat="46.076" lon="6.78343">
        <ele>2032.8</ele>
        <time>2026-06-26T10:16:19Z</time>
      </trkpt>
      <trkpt lat="46.076" lon="6.78344">
        <ele>2032.9</ele>
        <time>2026-06-26T10:16:20Z</time>
      </trkpt>
      <trkpt lat="46.07599" lon="6.78344">
        <ele>2033</ele>
        <time>2026-06-26T10:16:21Z</time>
      </trkpt>
      <trkpt lat="46.07598" lon="6.78345">
        <ele>2033.2</ele>
        <time>2026-06-26T10:16:22Z</time>
      </trkpt>
      <trkpt lat="46.07597" lon="6.78345">
        <ele>2033.3</ele>
        <time>2026-06-26T10:16:23Z</time>
      </trkpt>
      <trkpt lat="46.07597" lon="6.78345">
        <ele>2033.4</ele>
        <time>2026-06-26T10:16:24Z</time>
      </trkpt>
      <trkpt lat="46.07596" lon="6.78346">
        <ele>2033.6</ele>
        <time>2026-06-26T10:16:25Z</time>
      </trkpt>
      <trkpt lat="46.07596" lon="6.78346">
        <ele>2033.7</ele>
        <time>2026-06-26T10:16:26Z</time>
      </trkpt>
      <trkpt lat="46.07595" lon="6.78347">
        <ele>2033.9</ele>
        <time>2026-06-26T10:16:27Z</time>
      </trkpt>
      <trkpt lat="46.07594" lon="6.78347">
        <ele>2034.1</ele>
        <time>2026-06-26T10:16:28Z</time>
      </trkpt>
      <trkpt lat="46.07593" lon="6.78348">
        <ele>2034.4</ele>
        <time>2026-06-26T10:16:29Z</time>
      </trkpt>
      <trkpt lat="46.07593" lon="6.78348">
        <ele>2034.8</ele>
        <time>2026-06-26T10:16:30Z</time>
      </trkpt>
      <trkpt lat="46.07592" lon="6.78348">
        <ele>2035</ele>
        <time>2026-06-26T10:16:31Z</time>
      </trkpt>
      <trkpt lat="46.07591" lon="6.78348">
        <ele>2035.2</ele>
        <time>2026-06-26T10:16:32Z</time>
      </trkpt>
      <trkpt lat="46.07591" lon="6.78349">
        <ele>2035.3</ele>
        <time>2026-06-26T10:16:33Z</time>
      </trkpt>
      <trkpt lat="46.0759" lon="6.78349">
        <ele>2035.6</ele>
        <time>2026-06-26T10:16:34Z</time>
      </trkpt>
      <trkpt lat="46.0759" lon="6.78349">
        <ele>2035.8</ele>
        <time>2026-06-26T10:16:35Z</time>
      </trkpt>
      <trkpt lat="46.07589" lon="6.78349">
        <ele>2036</ele>
        <time>2026-06-26T10:16:36Z</time>
      </trkpt>
      <trkpt lat="46.07589" lon="6.78349">
        <ele>2036.1</ele>
        <time>2026-06-26T10:16:37Z</time>
      </trkpt>
      <trkpt lat="46.07588" lon="6.78349">
        <ele>2036.3</ele>
        <time>2026-06-26T10:16:38Z</time>
      </trkpt>
      <trkpt lat="46.07588" lon="6.78349">
        <ele>2036.4</ele>
        <time>2026-06-26T10:16:39Z</time>
      </trkpt>
      <trkpt lat="46.07588" lon="6.78349">
        <ele>2036.5</ele>
        <time>2026-06-26T10:16:40Z</time>
      </trkpt>
      <trkpt lat="46.07588" lon="6.78349">
        <ele>2036.5</ele>
        <time>2026-06-26T10:16:41Z</time>
      </trkpt>
      <trkpt lat="46.07588" lon="6.78349">
        <ele>2036.5</ele>
        <time>2026-06-26T10:16:42Z</time>
      </trkpt>
      <trkpt lat="46.07588" lon="6.78349">
        <ele>2036.5</ele>
        <time>2026-06-26T10:16:43Z</time>
      </trkpt>
      <trkpt lat="46.07588" lon="6.78349">
        <ele>2036.6</ele>
        <time>2026-06-26T10:16:44Z</time>
      </trkpt>
      <trkpt lat="46.07588" lon="6.78349">
        <ele>2036.6</ele>
        <time>2026-06-26T10:16:45Z</time>
      </trkpt>
      <trkpt lat="46.07588" lon="6.78349">
        <ele>2036.6</ele>
        <time>2026-06-26T10:16:46Z</time>
      </trkpt>
      <trkpt lat="46.07588" lon="6.78349">
        <ele>2036.6</ele>
        <time>2026-06-26T10:16:47Z</time>
      </trkpt>
      <trkpt lat="46.07588" lon="6.78349">
        <ele>2036.6</ele>
        <time>2026-06-26T10:16:48Z</time>
      </trkpt>
      <trkpt lat="46.07588" lon="6.78349">
        <ele>2036.5</ele>
        <time>2026-06-26T10:16:49Z</time>
      </trkpt>
      <trkpt lat="46.07588" lon="6.78349">
        <ele>2036.5</ele>
        <time>2026-06-26T10:16:50Z</time>
      </trkpt>
      <trkpt lat="46.07588" lon="6.78349">
        <ele>2036.5</ele>
        <time>2026-06-26T10:16:51Z</time>
      </trkpt>
      <trkpt lat="46.07587" lon="6.78349">
        <ele>2036.7</ele>
        <time>2026-06-26T10:16:52Z</time>
      </trkpt>
      <trkpt lat="46.07587" lon="6.78349">
        <ele>2036.7</ele>
        <time>2026-06-26T10:16:53Z</time>
      </trkpt>
      <trkpt lat="46.07587" lon="6.78349">
        <ele>2036.8</ele>
        <time>2026-06-26T10:16:54Z</time>
      </trkpt>
      <trkpt lat="46.07587" lon="6.78349">
        <ele>2036.8</ele>
        <time>2026-06-26T10:16:55Z</time>
      </trkpt>
      <trkpt lat="46.07587" lon="6.78349">
        <ele>2036.8</ele>
        <time>2026-06-26T10:16:56Z</time>
      </trkpt>
      <trkpt lat="46.07587" lon="6.78349">
        <ele>2036.9</ele>
        <time>2026-06-26T10:16:57Z</time>
      </trkpt>
      <trkpt lat="46.07587" lon="6.78349">
        <ele>2037</ele>
        <time>2026-06-26T10:16:58Z</time>
      </trkpt>
      <trkpt lat="46.07587" lon="6.78349">
        <ele>2036.9</ele>
        <time>2026-06-26T10:16:59Z</time>
      </trkpt>
      <trkpt lat="46.07587" lon="6.78349">
        <ele>2036.9</ele>
        <time>2026-06-26T10:17:00Z</time>
      </trkpt>
      <trkpt lat="46.07587" lon="6.7835">
        <ele>2036.8</ele>
        <time>2026-06-26T10:17:01Z</time>
      </trkpt>
      <trkpt lat="46.07587" lon="6.7835">
        <ele>2036.9</ele>
        <time>2026-06-26T10:17:02Z</time>
      </trkpt>
      <trkpt lat="46.07587" lon="6.7835">
        <ele>2037</ele>
        <time>2026-06-26T10:17:03Z</time>
      </trkpt>
      <trkpt lat="46.07587" lon="6.7835">
        <ele>2037</ele>
        <time>2026-06-26T10:17:04Z</time>
      </trkpt>
      <trkpt lat="46.07587" lon="6.7835">
        <ele>2037</ele>
        <time>2026-06-26T10:17:05Z</time>
      </trkpt>
      <trkpt lat="46.07587" lon="6.7835">
        <ele>2037</ele>
        <time>2026-06-26T10:17:06Z</time>
      </trkpt>
      <trkpt lat="46.07587" lon="6.78351">
        <ele>2036.9</ele>
        <time>2026-06-26T10:17:07Z</time>
      </trkpt>
      <trkpt lat="46.07587" lon="6.78351">
        <ele>2036.9</ele>
        <time>2026-06-26T10:17:08Z</time>
      </trkpt>
      <trkpt lat="46.07586" lon="6.78352">
        <ele>2036.8</ele>
        <time>2026-06-26T10:17:09Z</time>
      </trkpt>
      <trkpt lat="46.07586" lon="6.78352">
        <ele>2036.8</ele>
        <time>2026-06-26T10:17:10Z</time>
      </trkpt>
      <trkpt lat="46.07586" lon="6.78352">
        <ele>2036.8</ele>
        <time>2026-06-26T10:17:11Z</time>
      </trkpt>
      <trkpt lat="46.07586" lon="6.78352">
        <ele>2036.8</ele>
        <time>2026-06-26T10:17:12Z</time>
      </trkpt>
      <trkpt lat="46.07586" lon="6.78352">
        <ele>2036.7</ele>
        <time>2026-06-26T10:17:13Z</time>
      </trkpt>
      <trkpt lat="46.07586" lon="6.78352">
        <ele>2036.6</ele>
        <time>2026-06-26T10:17:14Z</time>
      </trkpt>
      <trkpt lat="46.07586" lon="6.78352">
        <ele>2036.6</ele>
        <time>2026-06-26T10:17:15Z</time>
      </trkpt>
      <trkpt lat="46.07586" lon="6.78352">
        <ele>2036.5</ele>
        <time>2026-06-26T10:17:16Z</time>
      </trkpt>
      <trkpt lat="46.07586" lon="6.78352">
        <ele>2036.5</ele>
        <time>2026-06-26T10:17:17Z</time>
      </trkpt>
      <trkpt lat="46.07585" lon="6.78352">
        <ele>2036.4</ele>
        <time>2026-06-26T10:17:18Z</time>
      </trkpt>
      <trkpt lat="46.07585" lon="6.78352">
        <ele>2036.5</ele>
        <time>2026-06-26T10:17:19Z</time>
      </trkpt>
      <trkpt lat="46.07585" lon="6.78352">
        <ele>2036.6</ele>
        <time>2026-06-26T10:17:20Z</time>
      </trkpt>
      <trkpt lat="46.07586" lon="6.78352">
        <ele>2036.6</ele>
        <time>2026-06-26T10:17:21Z</time>
      </trkpt>
      <trkpt lat="46.07586" lon="6.78351">
        <ele>2036.7</ele>
        <time>2026-06-26T10:17:22Z</time>
      </trkpt>
      <trkpt lat="46.07586" lon="6.78351">
        <ele>2036.7</ele>
        <time>2026-06-26T10:17:23Z</time>
      </trkpt>
      <trkpt lat="46.07586" lon="6.78351">
        <ele>2036.7</ele>
        <time>2026-06-26T10:17:24Z</time>
      </trkpt>
      <trkpt lat="46.07586" lon="6.78351">
        <ele>2036.7</ele>
        <time>2026-06-26T10:17:25Z</time>
      </trkpt>
      <trkpt lat="46.07586" lon="6.78351">
        <ele>2036.7</ele>
        <time>2026-06-26T10:17:26Z</time>
      </trkpt>
      <trkpt lat="46.07586" lon="6.78351">
        <ele>2036.6</ele>
        <time>2026-06-26T10:17:27Z</time>
      </trkpt>
      <trkpt lat="46.07586" lon="6.78351">
        <ele>2036.5</ele>
        <time>2026-06-26T10:17:28Z</time>
      </trkpt>
      <trkpt lat="46.07586" lon="6.78351">
        <ele>2036.5</ele>
        <time>2026-06-26T10:17:29Z</time>
      </trkpt>
      <trkpt lat="46.07587" lon="6.78351">
        <ele>2036.4</ele>
        <time>2026-06-26T10:17:30Z</time>
      </trkpt>
      <trkpt lat="46.07587" lon="6.78351">
        <ele>2036.3</ele>
        <time>2026-06-26T10:17:31Z</time>
      </trkpt>
      <trkpt lat="46.07587" lon="6.78351">
        <ele>2036.3</ele>
        <time>2026-06-26T10:17:32Z</time>
      </trkpt>
      <trkpt lat="46.07586" lon="6.7835">
        <ele>2036.3</ele>
        <time>2026-06-26T10:17:33Z</time>
      </trkpt>
      <trkpt lat="46.07587" lon="6.7835">
        <ele>2036.2</ele>
        <time>2026-06-26T10:17:34Z</time>
      </trkpt>
      <trkpt lat="46.07587" lon="6.7835">
        <ele>2036.2</ele>
        <time>2026-06-26T10:17:35Z</time>
      </trkpt>
      <trkpt lat="46.07587" lon="6.78349">
        <ele>2036.2</ele>
        <time>2026-06-26T10:17:36Z</time>
      </trkpt>
      <trkpt lat="46.07587" lon="6.78349">
        <ele>2036.2</ele>
        <time>2026-06-26T10:17:37Z</time>
      </trkpt>
      <trkpt lat="46.07587" lon="6.78348">
        <ele>2036.1</ele>
        <time>2026-06-26T10:17:38Z</time>
      </trkpt>
      <trkpt lat="46.07588" lon="6.78348">
        <ele>2036</ele>
        <time>2026-06-26T10:17:39Z</time>
      </trkpt>
      <trkpt lat="46.07588" lon="6.78347">
        <ele>2035.9</ele>
        <time>2026-06-26T10:17:40Z</time>
      </trkpt>
      <trkpt lat="46.07588" lon="6.78346">
        <ele>2035.8</ele>
        <time>2026-06-26T10:17:41Z</time>
      </trkpt>
      <trkpt lat="46.07588" lon="6.78345">
        <ele>2035.7</ele>
        <time>2026-06-26T10:17:42Z</time>
      </trkpt>
      <trkpt lat="46.07587" lon="6.78344">
        <ele>2035.4</ele>
        <time>2026-06-26T10:17:43Z</time>
      </trkpt>
      <trkpt lat="46.07587" lon="6.78344">
        <ele>2035.2</ele>
        <time>2026-06-26T10:17:44Z</time>
      </trkpt>
      <trkpt lat="46.07587" lon="6.78343">
        <ele>2035</ele>
        <time>2026-06-26T10:17:45Z</time>
      </trkpt>
      <trkpt lat="46.07587" lon="6.78343">
        <ele>2034.8</ele>
        <time>2026-06-26T10:17:46Z</time>
      </trkpt>
      <trkpt lat="46.07587" lon="6.78342">
        <ele>2034.6</ele>
        <time>2026-06-26T10:17:47Z</time>
      </trkpt>
      <trkpt lat="46.07587" lon="6.78341">
        <ele>2034.4</ele>
        <time>2026-06-26T10:17:48Z</time>
      </trkpt>
      <trkpt lat="46.07587" lon="6.78341">
        <ele>2034</ele>
        <time>2026-06-26T10:17:49Z</time>
      </trkpt>
      <trkpt lat="46.07587" lon="6.7834">
        <ele>2033.7</ele>
        <time>2026-06-26T10:17:50Z</time>
      </trkpt>
      <trkpt lat="46.07587" lon="6.7834">
        <ele>2033.7</ele>
        <time>2026-06-26T10:17:51Z</time>
      </trkpt>
      <trkpt lat="46.07587" lon="6.78338">
        <ele>2033.4</ele>
        <time>2026-06-26T10:17:52Z</time>
      </trkpt>
      <trkpt lat="46.07586" lon="6.78337">
        <ele>2033.1</ele>
        <time>2026-06-26T10:17:53Z</time>
      </trkpt>
      <trkpt lat="46.07586" lon="6.78337">
        <ele>2032.7</ele>
        <time>2026-06-26T10:17:54Z</time>
      </trkpt>
      <trkpt lat="46.07586" lon="6.78336">
        <ele>2032.3</ele>
        <time>2026-06-26T10:17:55Z</time>
      </trkpt>
      <trkpt lat="46.07585" lon="6.78335">
        <ele>2032</ele>
        <time>2026-06-26T10:17:56Z</time>
      </trkpt>
      <trkpt lat="46.07585" lon="6.78334">
        <ele>2031.8</ele>
        <time>2026-06-26T10:17:57Z</time>
      </trkpt>
      <trkpt lat="46.07584" lon="6.78334">
        <ele>2031.5</ele>
        <time>2026-06-26T10:17:58Z</time>
      </trkpt>
      <trkpt lat="46.07584" lon="6.78333">
        <ele>2031.3</ele>
        <time>2026-06-26T10:17:59Z</time>
      </trkpt>
      <trkpt lat="46.07583" lon="6.78333">
        <ele>2031</ele>
        <time>2026-06-26T10:18:00Z</time>
      </trkpt>
      <trkpt lat="46.07582" lon="6.78332">
        <ele>2030.7</ele>
        <time>2026-06-26T10:18:01Z</time>
      </trkpt>
      <trkpt lat="46.07582" lon="6.78331">
        <ele>2030.5</ele>
        <time>2026-06-26T10:18:02Z</time>
      </trkpt>
      <trkpt lat="46.07582" lon="6.7833">
        <ele>2030.3</ele>
        <time>2026-06-26T10:18:03Z</time>
      </trkpt>
      <trkpt lat="46.07582" lon="6.7833">
        <ele>2030.1</ele>
        <time>2026-06-26T10:18:04Z</time>
      </trkpt>
      <trkpt lat="46.07581" lon="6.78329">
        <ele>2029.9</ele>
        <time>2026-06-26T10:18:05Z</time>
      </trkpt>
      <trkpt lat="46.07581" lon="6.78329">
        <ele>2029.7</ele>
        <time>2026-06-26T10:18:06Z</time>
      </trkpt>
      <trkpt lat="46.07581" lon="6.78329">
        <ele>2029.6</ele>
        <time>2026-06-26T10:18:07Z</time>
      </trkpt>
      <trkpt lat="46.07581" lon="6.78329">
        <ele>2029.5</ele>
        <time>2026-06-26T10:18:08Z</time>
      </trkpt>
      <trkpt lat="46.07582" lon="6.78329">
        <ele>2029.4</ele>
        <time>2026-06-26T10:18:09Z</time>
      </trkpt>
      <trkpt lat="46.07582" lon="6.78329">
        <ele>2029.3</ele>
        <time>2026-06-26T10:18:10Z</time>
      </trkpt>
      <trkpt lat="46.07582" lon="6.78329">
        <ele>2029.2</ele>
        <time>2026-06-26T10:18:11Z</time>
      </trkpt>
      <trkpt lat="46.07582" lon="6.78329">
        <ele>2029.2</ele>
        <time>2026-06-26T10:18:12Z</time>
      </trkpt>
      <trkpt lat="46.07582" lon="6.78329">
        <ele>2029.1</ele>
        <time>2026-06-26T10:18:13Z</time>
      </trkpt>
      <trkpt lat="46.07582" lon="6.78329">
        <ele>2029.1</ele>
        <time>2026-06-26T10:18:14Z</time>
      </trkpt>
      <trkpt lat="46.07582" lon="6.78329">
        <ele>2029</ele>
        <time>2026-06-26T10:18:15Z</time>
      </trkpt>
      <trkpt lat="46.07582" lon="6.78329">
        <ele>2028.9</ele>
        <time>2026-06-26T10:18:16Z</time>
      </trkpt>
      <trkpt lat="46.07582" lon="6.78329">
        <ele>2028.8</ele>
        <time>2026-06-26T10:18:17Z</time>
      </trkpt>
      <trkpt lat="46.07582" lon="6.7833">
        <ele>2028.8</ele>
        <time>2026-06-26T10:18:18Z</time>
      </trkpt>
      <trkpt lat="46.07582" lon="6.78329">
        <ele>2028.7</ele>
        <time>2026-06-26T10:18:19Z</time>
      </trkpt>
      <trkpt lat="46.07582" lon="6.78329">
        <ele>2028.7</ele>
        <time>2026-06-26T10:18:20Z</time>
      </trkpt>
      <trkpt lat="46.07582" lon="6.78328">
        <ele>2028.6</ele>
        <time>2026-06-26T10:18:21Z</time>
      </trkpt>
      <trkpt lat="46.07583" lon="6.78327">
        <ele>2028.4</ele>
        <time>2026-06-26T10:18:22Z</time>
      </trkpt>
      <trkpt lat="46.07583" lon="6.78326">
        <ele>2028.2</ele>
        <time>2026-06-26T10:18:23Z</time>
      </trkpt>
      <trkpt lat="46.07583" lon="6.78324">
        <ele>2028.1</ele>
        <time>2026-06-26T10:18:24Z</time>
      </trkpt>
      <trkpt lat="46.07583" lon="6.78323">
        <ele>2027.9</ele>
        <time>2026-06-26T10:18:25Z</time>
      </trkpt>
      <trkpt lat="46.07582" lon="6.78322">
        <ele>2027.7</ele>
        <time>2026-06-26T10:18:26Z</time>
      </trkpt>
      <trkpt lat="46.07582" lon="6.78321">
        <ele>2027.3</ele>
        <time>2026-06-26T10:18:27Z</time>
      </trkpt>
      <trkpt lat="46.07582" lon="6.7832">
        <ele>2026.9</ele>
        <time>2026-06-26T10:18:28Z</time>
      </trkpt>
      <trkpt lat="46.07581" lon="6.78318">
        <ele>2026.5</ele>
        <time>2026-06-26T10:18:29Z</time>
      </trkpt>
      <trkpt lat="46.07581" lon="6.78317">
        <ele>2026.2</ele>
        <time>2026-06-26T10:18:30Z</time>
      </trkpt>
      <trkpt lat="46.07581" lon="6.78316">
        <ele>2025.8</ele>
        <time>2026-06-26T10:18:31Z</time>
      </trkpt>
      <trkpt lat="46.07581" lon="6.78315">
        <ele>2025.4</ele>
        <time>2026-06-26T10:18:32Z</time>
      </trkpt>
      <trkpt lat="46.07581" lon="6.78315">
        <ele>2025.1</ele>
        <time>2026-06-26T10:18:33Z</time>
      </trkpt>
      <trkpt lat="46.07581" lon="6.78314">
        <ele>2024.8</ele>
        <time>2026-06-26T10:18:34Z</time>
      </trkpt>
      <trkpt lat="46.07581" lon="6.78313">
        <ele>2024.5</ele>
        <time>2026-06-26T10:18:35Z</time>
      </trkpt>
      <trkpt lat="46.07582" lon="6.78312">
        <ele>2024.2</ele>
        <time>2026-06-26T10:18:36Z</time>
      </trkpt>
      <trkpt lat="46.07582" lon="6.78311">
        <ele>2023.9</ele>
        <time>2026-06-26T10:18:37Z</time>
      </trkpt>
      <trkpt lat="46.07581" lon="6.78311">
        <ele>2023.4</ele>
        <time>2026-06-26T10:18:38Z</time>
      </trkpt>
      <trkpt lat="46.07581" lon="6.7831">
        <ele>2023</ele>
        <time>2026-06-26T10:18:39Z</time>
      </trkpt>
      <trkpt lat="46.07581" lon="6.78309">
        <ele>2022.8</ele>
        <time>2026-06-26T10:18:40Z</time>
      </trkpt>
      <trkpt lat="46.07581" lon="6.78308">
        <ele>2022.5</ele>
        <time>2026-06-26T10:18:41Z</time>
      </trkpt>
      <trkpt lat="46.07581" lon="6.78307">
        <ele>2022.1</ele>
        <time>2026-06-26T10:18:42Z</time>
      </trkpt>
      <trkpt lat="46.07582" lon="6.78306">
        <ele>2021.8</ele>
        <time>2026-06-26T10:18:43Z</time>
      </trkpt>
      <trkpt lat="46.07582" lon="6.78305">
        <ele>2021.5</ele>
        <time>2026-06-26T10:18:44Z</time>
      </trkpt>
      <trkpt lat="46.07582" lon="6.78304">
        <ele>2021.1</ele>
        <time>2026-06-26T10:18:45Z</time>
      </trkpt>
      <trkpt lat="46.07581" lon="6.78303">
        <ele>2020.9</ele>
        <time>2026-06-26T10:18:46Z</time>
      </trkpt>
      <trkpt lat="46.07581" lon="6.78303">
        <ele>2020.6</ele>
        <time>2026-06-26T10:18:47Z</time>
      </trkpt>
      <trkpt lat="46.07581" lon="6.78302">
        <ele>2020.3</ele>
        <time>2026-06-26T10:18:48Z</time>
      </trkpt>
      <trkpt lat="46.0758" lon="6.78301">
        <ele>2019.9</ele>
        <time>2026-06-26T10:18:49Z</time>
      </trkpt>
      <trkpt lat="46.0758" lon="6.783">
        <ele>2019.6</ele>
        <time>2026-06-26T10:18:50Z</time>
      </trkpt>
      <trkpt lat="46.0758" lon="6.783">
        <ele>2019.2</ele>
        <time>2026-06-26T10:18:51Z</time>
      </trkpt>
      <trkpt lat="46.0758" lon="6.78299">
        <ele>2018.9</ele>
        <time>2026-06-26T10:18:52Z</time>
      </trkpt>
      <trkpt lat="46.0758" lon="6.78298">
        <ele>2018.7</ele>
        <time>2026-06-26T10:18:53Z</time>
      </trkpt>
      <trkpt lat="46.07579" lon="6.78297">
        <ele>2018.4</ele>
        <time>2026-06-26T10:18:54Z</time>
      </trkpt>
      <trkpt lat="46.07579" lon="6.78297">
        <ele>2018.1</ele>
        <time>2026-06-26T10:18:55Z</time>
      </trkpt>
      <trkpt lat="46.07579" lon="6.78296">
        <ele>2017.7</ele>
        <time>2026-06-26T10:18:56Z</time>
      </trkpt>
      <trkpt lat="46.07579" lon="6.78295">
        <ele>2017.4</ele>
        <time>2026-06-26T10:18:57Z</time>
      </trkpt>
      <trkpt lat="46.07578" lon="6.78294">
        <ele>2017</ele>
        <time>2026-06-26T10:18:58Z</time>
      </trkpt>
      <trkpt lat="46.07578" lon="6.78293">
        <ele>2016.6</ele>
        <time>2026-06-26T10:18:59Z</time>
      </trkpt>
      <trkpt lat="46.07578" lon="6.78292">
        <ele>2016.3</ele>
        <time>2026-06-26T10:19:00Z</time>
      </trkpt>
      <trkpt lat="46.07579" lon="6.78291">
        <ele>2016</ele>
        <time>2026-06-26T10:19:01Z</time>
      </trkpt>
      <trkpt lat="46.07579" lon="6.78291">
        <ele>2015.7</ele>
        <time>2026-06-26T10:19:02Z</time>
      </trkpt>
      <trkpt lat="46.07579" lon="6.7829">
        <ele>2015.5</ele>
        <time>2026-06-26T10:19:03Z</time>
      </trkpt>
      <trkpt lat="46.07579" lon="6.78289">
        <ele>2015.2</ele>
        <time>2026-06-26T10:19:04Z</time>
      </trkpt>
      <trkpt lat="46.07579" lon="6.78289">
        <ele>2014.9</ele>
        <time>2026-06-26T10:19:05Z</time>
      </trkpt>
      <trkpt lat="46.07579" lon="6.78288">
        <ele>2014.6</ele>
        <time>2026-06-26T10:19:06Z</time>
      </trkpt>
      <trkpt lat="46.07579" lon="6.78287">
        <ele>2014.3</ele>
        <time>2026-06-26T10:19:07Z</time>
      </trkpt>
      <trkpt lat="46.07579" lon="6.78286">
        <ele>2014</ele>
        <time>2026-06-26T10:19:08Z</time>
      </trkpt>
      <trkpt lat="46.07579" lon="6.78285">
        <ele>2013.7</ele>
        <time>2026-06-26T10:19:09Z</time>
      </trkpt>
      <trkpt lat="46.07579" lon="6.78284">
        <ele>2013.5</ele>
        <time>2026-06-26T10:19:10Z</time>
      </trkpt>
      <trkpt lat="46.07579" lon="6.78283">
        <ele>2013.3</ele>
        <time>2026-06-26T10:19:11Z</time>
      </trkpt>
      <trkpt lat="46.07579" lon="6.78282">
        <ele>2013.1</ele>
        <time>2026-06-26T10:19:12Z</time>
      </trkpt>
      <trkpt lat="46.07578" lon="6.78282">
        <ele>2012.8</ele>
        <time>2026-06-26T10:19:13Z</time>
      </trkpt>
      <trkpt lat="46.07578" lon="6.78281">
        <ele>2012.7</ele>
        <time>2026-06-26T10:19:14Z</time>
      </trkpt>
      <trkpt lat="46.07578" lon="6.7828">
        <ele>2012.6</ele>
        <time>2026-06-26T10:19:15Z</time>
      </trkpt>
      <trkpt lat="46.07577" lon="6.7828">
        <ele>2012.4</ele>
        <time>2026-06-26T10:19:16Z</time>
      </trkpt>
      <trkpt lat="46.07577" lon="6.78279">
        <ele>2012.1</ele>
        <time>2026-06-26T10:19:17Z</time>
      </trkpt>
      <trkpt lat="46.07577" lon="6.78278">
        <ele>2011.6</ele>
        <time>2026-06-26T10:19:18Z</time>
      </trkpt>
      <trkpt lat="46.07577" lon="6.78277">
        <ele>2011.3</ele>
        <time>2026-06-26T10:19:19Z</time>
      </trkpt>
      <trkpt lat="46.07577" lon="6.78276">
        <ele>2011.2</ele>
        <time>2026-06-26T10:19:20Z</time>
      </trkpt>
      <trkpt lat="46.07576" lon="6.78276">
        <ele>2010.9</ele>
        <time>2026-06-26T10:19:21Z</time>
      </trkpt>
      <trkpt lat="46.07577" lon="6.78275">
        <ele>2010.7</ele>
        <time>2026-06-26T10:19:22Z</time>
      </trkpt>
      <trkpt lat="46.07577" lon="6.78274">
        <ele>2010.4</ele>
        <time>2026-06-26T10:19:23Z</time>
      </trkpt>
      <trkpt lat="46.07577" lon="6.78273">
        <ele>2010</ele>
        <time>2026-06-26T10:19:24Z</time>
      </trkpt>
      <trkpt lat="46.07577" lon="6.78272">
        <ele>2009.6</ele>
        <time>2026-06-26T10:19:25Z</time>
      </trkpt>
      <trkpt lat="46.07577" lon="6.78271">
        <ele>2009.3</ele>
        <time>2026-06-26T10:19:26Z</time>
      </trkpt>
      <trkpt lat="46.07577" lon="6.7827">
        <ele>2009.1</ele>
        <time>2026-06-26T10:19:27Z</time>
      </trkpt>
      <trkpt lat="46.07577" lon="6.78269">
        <ele>2008.8</ele>
        <time>2026-06-26T10:19:28Z</time>
      </trkpt>
      <trkpt lat="46.07577" lon="6.78268">
        <ele>2008.5</ele>
        <time>2026-06-26T10:19:29Z</time>
      </trkpt>
      <trkpt lat="46.07577" lon="6.78267">
        <ele>2008</ele>
        <time>2026-06-26T10:19:30Z</time>
      </trkpt>
      <trkpt lat="46.07577" lon="6.78266">
        <ele>2007.6</ele>
        <time>2026-06-26T10:19:31Z</time>
      </trkpt>
      <trkpt lat="46.07576" lon="6.78265">
        <ele>2007.2</ele>
        <time>2026-06-26T10:19:32Z</time>
      </trkpt>
      <trkpt lat="46.07575" lon="6.78264">
        <ele>2006.9</ele>
        <time>2026-06-26T10:19:33Z</time>
      </trkpt>
      <trkpt lat="46.07575" lon="6.78263">
        <ele>2006.5</ele>
        <time>2026-06-26T10:19:34Z</time>
      </trkpt>
      <trkpt lat="46.07574" lon="6.78262">
        <ele>2006.1</ele>
        <time>2026-06-26T10:19:35Z</time>
      </trkpt>
      <trkpt lat="46.07573" lon="6.78261">
        <ele>2005.9</ele>
        <time>2026-06-26T10:19:36Z</time>
      </trkpt>
      <trkpt lat="46.07572" lon="6.7826">
        <ele>2005.7</ele>
        <time>2026-06-26T10:19:37Z</time>
      </trkpt>
      <trkpt lat="46.0757" lon="6.7826">
        <ele>2005.5</ele>
        <time>2026-06-26T10:19:38Z</time>
      </trkpt>
      <trkpt lat="46.07569" lon="6.78259">
        <ele>2005.1</ele>
        <time>2026-06-26T10:19:39Z</time>
      </trkpt>
      <trkpt lat="46.07568" lon="6.78258">
        <ele>2004.9</ele>
        <time>2026-06-26T10:19:40Z</time>
      </trkpt>
      <trkpt lat="46.07568" lon="6.78257">
        <ele>2004.8</ele>
        <time>2026-06-26T10:19:41Z</time>
      </trkpt>
      <trkpt lat="46.07567" lon="6.78257">
        <ele>2004.7</ele>
        <time>2026-06-26T10:19:42Z</time>
      </trkpt>
      <trkpt lat="46.07565" lon="6.78256">
        <ele>2004.5</ele>
        <time>2026-06-26T10:19:43Z</time>
      </trkpt>
      <trkpt lat="46.07564" lon="6.78256">
        <ele>2004.4</ele>
        <time>2026-06-26T10:19:44Z</time>
      </trkpt>
      <trkpt lat="46.07563" lon="6.78255">
        <ele>2004.2</ele>
        <time>2026-06-26T10:19:45Z</time>
      </trkpt>
      <trkpt lat="46.07561" lon="6.78255">
        <ele>2004</ele>
        <time>2026-06-26T10:19:46Z</time>
      </trkpt>
      <trkpt lat="46.0756" lon="6.78255">
        <ele>2003.8</ele>
        <time>2026-06-26T10:19:47Z</time>
      </trkpt>
      <trkpt lat="46.07559" lon="6.78254">
        <ele>2003.6</ele>
        <time>2026-06-26T10:19:48Z</time>
      </trkpt>
      <trkpt lat="46.07558" lon="6.78253">
        <ele>2003.4</ele>
        <time>2026-06-26T10:19:49Z</time>
      </trkpt>
      <trkpt lat="46.07557" lon="6.78253">
        <ele>2003.3</ele>
        <time>2026-06-26T10:19:50Z</time>
      </trkpt>
      <trkpt lat="46.07556" lon="6.78252">
        <ele>2003</ele>
        <time>2026-06-26T10:19:51Z</time>
      </trkpt>
      <trkpt lat="46.07555" lon="6.78252">
        <ele>2002.8</ele>
        <time>2026-06-26T10:19:52Z</time>
      </trkpt>
      <trkpt lat="46.07554" lon="6.78251">
        <ele>2002.6</ele>
        <time>2026-06-26T10:19:53Z</time>
      </trkpt>
      <trkpt lat="46.07552" lon="6.78251">
        <ele>2002.4</ele>
        <time>2026-06-26T10:19:54Z</time>
      </trkpt>
      <trkpt lat="46.07551" lon="6.78251">
        <ele>2002.3</ele>
        <time>2026-06-26T10:19:55Z</time>
      </trkpt>
      <trkpt lat="46.0755" lon="6.78251">
        <ele>2002</ele>
        <time>2026-06-26T10:19:56Z</time>
      </trkpt>
      <trkpt lat="46.07548" lon="6.7825">
        <ele>2001.8</ele>
        <time>2026-06-26T10:19:57Z</time>
      </trkpt>
      <trkpt lat="46.07547" lon="6.7825">
        <ele>2001.5</ele>
        <time>2026-06-26T10:19:58Z</time>
      </trkpt>
      <trkpt lat="46.07546" lon="6.7825">
        <ele>2001.2</ele>
        <time>2026-06-26T10:19:59Z</time>
      </trkpt>
      <trkpt lat="46.07545" lon="6.78249">
        <ele>2001.3</ele>
        <time>2026-06-26T10:20:00Z</time>
      </trkpt>
      <trkpt lat="46.07543" lon="6.78248">
        <ele>2001.1</ele>
        <time>2026-06-26T10:20:01Z</time>
      </trkpt>
      <trkpt lat="46.07542" lon="6.78246">
        <ele>2000.8</ele>
        <time>2026-06-26T10:20:02Z</time>
      </trkpt>
      <trkpt lat="46.07541" lon="6.78245">
        <ele>2000.5</ele>
        <time>2026-06-26T10:20:03Z</time>
      </trkpt>
      <trkpt lat="46.0754" lon="6.78244">
        <ele>2000.3</ele>
        <time>2026-06-26T10:20:04Z</time>
      </trkpt>
      <trkpt lat="46.07539" lon="6.78243">
        <ele>2000.1</ele>
        <time>2026-06-26T10:20:05Z</time>
      </trkpt>
      <trkpt lat="46.07538" lon="6.78243">
        <ele>2000</ele>
        <time>2026-06-26T10:20:06Z</time>
      </trkpt>
      <trkpt lat="46.07536" lon="6.78242">
        <ele>1999.8</ele>
        <time>2026-06-26T10:20:07Z</time>
      </trkpt>
      <trkpt lat="46.07535" lon="6.78242">
        <ele>1999.6</ele>
        <time>2026-06-26T10:20:08Z</time>
      </trkpt>
      <trkpt lat="46.07533" lon="6.78242">
        <ele>1999.5</ele>
        <time>2026-06-26T10:20:09Z</time>
      </trkpt>
      <trkpt lat="46.07532" lon="6.78242">
        <ele>1999.4</ele>
        <time>2026-06-26T10:20:10Z</time>
      </trkpt>
      <trkpt lat="46.07531" lon="6.78242">
        <ele>1999.4</ele>
        <time>2026-06-26T10:20:11Z</time>
      </trkpt>
      <trkpt lat="46.07529" lon="6.78241">
        <ele>1999.1</ele>
        <time>2026-06-26T10:20:12Z</time>
      </trkpt>
      <trkpt lat="46.07528" lon="6.7824">
        <ele>1999</ele>
        <time>2026-06-26T10:20:13Z</time>
      </trkpt>
      <trkpt lat="46.07527" lon="6.7824">
        <ele>1998.9</ele>
        <time>2026-06-26T10:20:14Z</time>
      </trkpt>
      <trkpt lat="46.07525" lon="6.78239">
        <ele>1998.9</ele>
        <time>2026-06-26T10:20:15Z</time>
      </trkpt>
      <trkpt lat="46.07524" lon="6.78239">
        <ele>1998.9</ele>
        <time>2026-06-26T10:20:16Z</time>
      </trkpt>
      <trkpt lat="46.07523" lon="6.78238">
        <ele>1999</ele>
        <time>2026-06-26T10:20:17Z</time>
      </trkpt>
      <trkpt lat="46.07521" lon="6.78238">
        <ele>1998.9</ele>
        <time>2026-06-26T10:20:18Z</time>
      </trkpt>
      <trkpt lat="46.0752" lon="6.78238">
        <ele>1998.9</ele>
        <time>2026-06-26T10:20:19Z</time>
      </trkpt>
      <trkpt lat="46.07519" lon="6.78237">
        <ele>1998.8</ele>
        <time>2026-06-26T10:20:20Z</time>
      </trkpt>
      <trkpt lat="46.07517" lon="6.78237">
        <ele>1998.7</ele>
        <time>2026-06-26T10:20:21Z</time>
      </trkpt>
      <trkpt lat="46.07516" lon="6.78236">
        <ele>1998.6</ele>
        <time>2026-06-26T10:20:22Z</time>
      </trkpt>
      <trkpt lat="46.07515" lon="6.78236">
        <ele>1998.5</ele>
        <time>2026-06-26T10:20:23Z</time>
      </trkpt>
      <trkpt lat="46.07514" lon="6.78236">
        <ele>1998.5</ele>
        <time>2026-06-26T10:20:24Z</time>
      </trkpt>
      <trkpt lat="46.07513" lon="6.78235">
        <ele>1998.5</ele>
        <time>2026-06-26T10:20:25Z</time>
      </trkpt>
      <trkpt lat="46.07512" lon="6.78235">
        <ele>1998.5</ele>
        <time>2026-06-26T10:20:26Z</time>
      </trkpt>
      <trkpt lat="46.07511" lon="6.78235">
        <ele>1998.4</ele>
        <time>2026-06-26T10:20:27Z</time>
      </trkpt>
      <trkpt lat="46.0751" lon="6.78234">
        <ele>1998.3</ele>
        <time>2026-06-26T10:20:28Z</time>
      </trkpt>
      <trkpt lat="46.07508" lon="6.78234">
        <ele>1998.2</ele>
        <time>2026-06-26T10:20:29Z</time>
      </trkpt>
      <trkpt lat="46.07507" lon="6.78233">
        <ele>1998.1</ele>
        <time>2026-06-26T10:20:30Z</time>
      </trkpt>
      <trkpt lat="46.07506" lon="6.78233">
        <ele>1998.1</ele>
        <time>2026-06-26T10:20:31Z</time>
      </trkpt>
      <trkpt lat="46.07505" lon="6.78232">
        <ele>1997.9</ele>
        <time>2026-06-26T10:20:32Z</time>
      </trkpt>
      <trkpt lat="46.07504" lon="6.78232">
        <ele>1997.8</ele>
        <time>2026-06-26T10:20:33Z</time>
      </trkpt>
      <trkpt lat="46.07503" lon="6.78231">
        <ele>1997.7</ele>
        <time>2026-06-26T10:20:34Z</time>
      </trkpt>
      <trkpt lat="46.07502" lon="6.78231">
        <ele>1997.6</ele>
        <time>2026-06-26T10:20:35Z</time>
      </trkpt>
      <trkpt lat="46.07501" lon="6.78231">
        <ele>1997.4</ele>
        <time>2026-06-26T10:20:36Z</time>
      </trkpt>
      <trkpt lat="46.075" lon="6.7823">
        <ele>1997.2</ele>
        <time>2026-06-26T10:20:37Z</time>
      </trkpt>
      <trkpt lat="46.07499" lon="6.78229">
        <ele>1997</ele>
        <time>2026-06-26T10:20:38Z</time>
      </trkpt>
      <trkpt lat="46.07498" lon="6.78229">
        <ele>1996.9</ele>
        <time>2026-06-26T10:20:39Z</time>
      </trkpt>
      <trkpt lat="46.07498" lon="6.78228">
        <ele>1996.7</ele>
        <time>2026-06-26T10:20:40Z</time>
      </trkpt>
      <trkpt lat="46.07497" lon="6.78228">
        <ele>1996.4</ele>
        <time>2026-06-26T10:20:41Z</time>
      </trkpt>
      <trkpt lat="46.07496" lon="6.78227">
        <ele>1996.1</ele>
        <time>2026-06-26T10:20:42Z</time>
      </trkpt>
      <trkpt lat="46.07495" lon="6.78227">
        <ele>1995.9</ele>
        <time>2026-06-26T10:20:43Z</time>
      </trkpt>
      <trkpt lat="46.07494" lon="6.78226">
        <ele>1995.6</ele>
        <time>2026-06-26T10:20:44Z</time>
      </trkpt>
      <trkpt lat="46.07492" lon="6.78225">
        <ele>1995.4</ele>
        <time>2026-06-26T10:20:45Z</time>
      </trkpt>
      <trkpt lat="46.07491" lon="6.78225">
        <ele>1995.3</ele>
        <time>2026-06-26T10:20:46Z</time>
      </trkpt>
      <trkpt lat="46.0749" lon="6.78224">
        <ele>1995.2</ele>
        <time>2026-06-26T10:20:47Z</time>
      </trkpt>
      <trkpt lat="46.07489" lon="6.78223">
        <ele>1995</ele>
        <time>2026-06-26T10:20:48Z</time>
      </trkpt>
      <trkpt lat="46.07488" lon="6.78223">
        <ele>1994.8</ele>
        <time>2026-06-26T10:20:49Z</time>
      </trkpt>
      <trkpt lat="46.07487" lon="6.78222">
        <ele>1994.6</ele>
        <time>2026-06-26T10:20:50Z</time>
      </trkpt>
      <trkpt lat="46.07486" lon="6.78221">
        <ele>1994.4</ele>
        <time>2026-06-26T10:20:51Z</time>
      </trkpt>
      <trkpt lat="46.07485" lon="6.78221">
        <ele>1994.2</ele>
        <time>2026-06-26T10:20:52Z</time>
      </trkpt>
      <trkpt lat="46.07484" lon="6.7822">
        <ele>1994.1</ele>
        <time>2026-06-26T10:20:53Z</time>
      </trkpt>
      <trkpt lat="46.07483" lon="6.78219">
        <ele>1993.9</ele>
        <time>2026-06-26T10:20:54Z</time>
      </trkpt>
      <trkpt lat="46.07482" lon="6.78219">
        <ele>1993.8</ele>
        <time>2026-06-26T10:20:55Z</time>
      </trkpt>
      <trkpt lat="46.07481" lon="6.78218">
        <ele>1993.6</ele>
        <time>2026-06-26T10:20:56Z</time>
      </trkpt>
      <trkpt lat="46.0748" lon="6.78218">
        <ele>1993.5</ele>
        <time>2026-06-26T10:20:57Z</time>
      </trkpt>
      <trkpt lat="46.0748" lon="6.78217">
        <ele>1993.2</ele>
        <time>2026-06-26T10:20:58Z</time>
      </trkpt>
      <trkpt lat="46.07479" lon="6.78217">
        <ele>1992.9</ele>
        <time>2026-06-26T10:20:59Z</time>
      </trkpt>
      <trkpt lat="46.07478" lon="6.78217">
        <ele>1992.7</ele>
        <time>2026-06-26T10:21:00Z</time>
      </trkpt>
      <trkpt lat="46.07478" lon="6.78216">
        <ele>1992.5</ele>
        <time>2026-06-26T10:21:01Z</time>
      </trkpt>
      <trkpt lat="46.07477" lon="6.78215">
        <ele>1992.2</ele>
        <time>2026-06-26T10:21:02Z</time>
      </trkpt>
      <trkpt lat="46.07476" lon="6.78214">
        <ele>1991.8</ele>
        <time>2026-06-26T10:21:03Z</time>
      </trkpt>
      <trkpt lat="46.07476" lon="6.78213">
        <ele>1991.5</ele>
        <time>2026-06-26T10:21:04Z</time>
      </trkpt>
      <trkpt lat="46.07475" lon="6.78212">
        <ele>1991</ele>
        <time>2026-06-26T10:21:05Z</time>
      </trkpt>
      <trkpt lat="46.07474" lon="6.78211">
        <ele>1990.5</ele>
        <time>2026-06-26T10:21:06Z</time>
      </trkpt>
      <trkpt lat="46.07472" lon="6.7821">
        <ele>1990.3</ele>
        <time>2026-06-26T10:21:07Z</time>
      </trkpt>
      <trkpt lat="46.07471" lon="6.78209">
        <ele>1990</ele>
        <time>2026-06-26T10:21:08Z</time>
      </trkpt>
      <trkpt lat="46.07471" lon="6.78209">
        <ele>1989.8</ele>
        <time>2026-06-26T10:21:09Z</time>
      </trkpt>
      <trkpt lat="46.0747" lon="6.78208">
        <ele>1989.3</ele>
        <time>2026-06-26T10:21:10Z</time>
      </trkpt>
      <trkpt lat="46.07469" lon="6.78207">
        <ele>1989</ele>
        <time>2026-06-26T10:21:11Z</time>
      </trkpt>
      <trkpt lat="46.07468" lon="6.78207">
        <ele>1988.5</ele>
        <time>2026-06-26T10:21:12Z</time>
      </trkpt>
      <trkpt lat="46.07468" lon="6.78206">
        <ele>1988.2</ele>
        <time>2026-06-26T10:21:13Z</time>
      </trkpt>
      <trkpt lat="46.07467" lon="6.78205">
        <ele>1987.9</ele>
        <time>2026-06-26T10:21:14Z</time>
      </trkpt>
      <trkpt lat="46.07466" lon="6.78205">
        <ele>1987.6</ele>
        <time>2026-06-26T10:21:15Z</time>
      </trkpt>
      <trkpt lat="46.07465" lon="6.78204">
        <ele>1987.2</ele>
        <time>2026-06-26T10:21:16Z</time>
      </trkpt>
      <trkpt lat="46.07464" lon="6.78203">
        <ele>1986.8</ele>
        <time>2026-06-26T10:21:17Z</time>
      </trkpt>
      <trkpt lat="46.07463" lon="6.78202">
        <ele>1986.5</ele>
        <time>2026-06-26T10:21:18Z</time>
      </trkpt>
      <trkpt lat="46.07463" lon="6.78202">
        <ele>1986.2</ele>
        <time>2026-06-26T10:21:19Z</time>
      </trkpt>
      <trkpt lat="46.07462" lon="6.78201">
        <ele>1985.9</ele>
        <time>2026-06-26T10:21:20Z</time>
      </trkpt>
      <trkpt lat="46.07461" lon="6.782">
        <ele>1985.7</ele>
        <time>2026-06-26T10:21:21Z</time>
      </trkpt>
      <trkpt lat="46.0746" lon="6.782">
        <ele>1985.5</ele>
        <time>2026-06-26T10:21:22Z</time>
      </trkpt>
      <trkpt lat="46.07459" lon="6.78199">
        <ele>1985.3</ele>
        <time>2026-06-26T10:21:23Z</time>
      </trkpt>
      <trkpt lat="46.07458" lon="6.78198">
        <ele>1984.9</ele>
        <time>2026-06-26T10:21:24Z</time>
      </trkpt>
      <trkpt lat="46.07457" lon="6.78197">
        <ele>1984.4</ele>
        <time>2026-06-26T10:21:25Z</time>
      </trkpt>
      <trkpt lat="46.07456" lon="6.78196">
        <ele>1984.1</ele>
        <time>2026-06-26T10:21:26Z</time>
      </trkpt>
      <trkpt lat="46.07455" lon="6.78195">
        <ele>1983.8</ele>
        <time>2026-06-26T10:21:27Z</time>
      </trkpt>
      <trkpt lat="46.07454" lon="6.78194">
        <ele>1983.5</ele>
        <time>2026-06-26T10:21:28Z</time>
      </trkpt>
      <trkpt lat="46.07453" lon="6.78192">
        <ele>1983.3</ele>
        <time>2026-06-26T10:21:29Z</time>
      </trkpt>
      <trkpt lat="46.07452" lon="6.78191">
        <ele>1983.3</ele>
        <time>2026-06-26T10:21:30Z</time>
      </trkpt>
      <trkpt lat="46.07451" lon="6.7819">
        <ele>1983.3</ele>
        <time>2026-06-26T10:21:31Z</time>
      </trkpt>
      <trkpt lat="46.0745" lon="6.78189">
        <ele>1983.3</ele>
        <time>2026-06-26T10:21:32Z</time>
      </trkpt>
      <trkpt lat="46.07449" lon="6.78189">
        <ele>1983.5</ele>
        <time>2026-06-26T10:21:33Z</time>
      </trkpt>
      <trkpt lat="46.07448" lon="6.78188">
        <ele>1983.5</ele>
        <time>2026-06-26T10:21:34Z</time>
      </trkpt>
      <trkpt lat="46.07447" lon="6.78188">
        <ele>1983.6</ele>
        <time>2026-06-26T10:21:35Z</time>
      </trkpt>
      <trkpt lat="46.07447" lon="6.78188">
        <ele>1983.6</ele>
        <time>2026-06-26T10:21:36Z</time>
      </trkpt>
      <trkpt lat="46.07447" lon="6.78188">
        <ele>1983.7</ele>
        <time>2026-06-26T10:21:37Z</time>
      </trkpt>
      <trkpt lat="46.07447" lon="6.78188">
        <ele>1983.7</ele>
        <time>2026-06-26T10:21:38Z</time>
      </trkpt>
      <trkpt lat="46.07447" lon="6.78188">
        <ele>1983.7</ele>
        <time>2026-06-26T10:21:39Z</time>
      </trkpt>
      <trkpt lat="46.07446" lon="6.78188">
        <ele>1983.7</ele>
        <time>2026-06-26T10:21:40Z</time>
      </trkpt>
      <trkpt lat="46.07446" lon="6.78188">
        <ele>1983.7</ele>
        <time>2026-06-26T10:21:41Z</time>
      </trkpt>
      <trkpt lat="46.07445" lon="6.78188">
        <ele>1983.6</ele>
        <time>2026-06-26T10:21:42Z</time>
      </trkpt>
      <trkpt lat="46.07444" lon="6.78188">
        <ele>1983.5</ele>
        <time>2026-06-26T10:21:43Z</time>
      </trkpt>
      <trkpt lat="46.07444" lon="6.78188">
        <ele>1983.5</ele>
        <time>2026-06-26T10:21:44Z</time>
      </trkpt>
      <trkpt lat="46.07443" lon="6.78188">
        <ele>1983.4</ele>
        <time>2026-06-26T10:21:45Z</time>
      </trkpt>
      <trkpt lat="46.07443" lon="6.78188">
        <ele>1983.4</ele>
        <time>2026-06-26T10:21:46Z</time>
      </trkpt>
      <trkpt lat="46.07442" lon="6.78187">
        <ele>1983.3</ele>
        <time>2026-06-26T10:21:47Z</time>
      </trkpt>
      <trkpt lat="46.07441" lon="6.78188">
        <ele>1983.1</ele>
        <time>2026-06-26T10:21:48Z</time>
      </trkpt>
      <trkpt lat="46.07441" lon="6.78188">
        <ele>1983</ele>
        <time>2026-06-26T10:21:49Z</time>
      </trkpt>
      <trkpt lat="46.0744" lon="6.78187">
        <ele>1982.8</ele>
        <time>2026-06-26T10:21:50Z</time>
      </trkpt>
      <trkpt lat="46.07439" lon="6.78188">
        <ele>1982.5</ele>
        <time>2026-06-26T10:21:51Z</time>
      </trkpt>
      <trkpt lat="46.07439" lon="6.78187">
        <ele>1982.2</ele>
        <time>2026-06-26T10:21:52Z</time>
      </trkpt>
      <trkpt lat="46.07438" lon="6.78188">
        <ele>1982</ele>
        <time>2026-06-26T10:21:53Z</time>
      </trkpt>
      <trkpt lat="46.07437" lon="6.78188">
        <ele>1981.8</ele>
        <time>2026-06-26T10:21:54Z</time>
      </trkpt>
      <trkpt lat="46.07436" lon="6.78188">
        <ele>1981.6</ele>
        <time>2026-06-26T10:21:55Z</time>
      </trkpt>
      <trkpt lat="46.07435" lon="6.78188">
        <ele>1981.6</ele>
        <time>2026-06-26T10:21:56Z</time>
      </trkpt>
      <trkpt lat="46.07434" lon="6.78188">
        <ele>1981.6</ele>
        <time>2026-06-26T10:21:57Z</time>
      </trkpt>
      <trkpt lat="46.07433" lon="6.78188">
        <ele>1981.6</ele>
        <time>2026-06-26T10:21:58Z</time>
      </trkpt>
      <trkpt lat="46.07432" lon="6.78188">
        <ele>1981.5</ele>
        <time>2026-06-26T10:21:59Z</time>
      </trkpt>
      <trkpt lat="46.07431" lon="6.78189">
        <ele>1981.5</ele>
        <time>2026-06-26T10:22:00Z</time>
      </trkpt>
      <trkpt lat="46.0743" lon="6.78189">
        <ele>1981.5</ele>
        <time>2026-06-26T10:22:01Z</time>
      </trkpt>
      <trkpt lat="46.07429" lon="6.7819">
        <ele>1981.5</ele>
        <time>2026-06-26T10:22:02Z</time>
      </trkpt>
      <trkpt lat="46.07428" lon="6.7819">
        <ele>1981.5</ele>
        <time>2026-06-26T10:22:03Z</time>
      </trkpt>
      <trkpt lat="46.07428" lon="6.7819">
        <ele>1981.5</ele>
        <time>2026-06-26T10:22:04Z</time>
      </trkpt>
      <trkpt lat="46.07427" lon="6.7819">
        <ele>1981.6</ele>
        <time>2026-06-26T10:22:05Z</time>
      </trkpt>
      <trkpt lat="46.07426" lon="6.7819">
        <ele>1981.6</ele>
        <time>2026-06-26T10:22:06Z</time>
      </trkpt>
      <trkpt lat="46.07426" lon="6.78191">
        <ele>1981.6</ele>
        <time>2026-06-26T10:22:07Z</time>
      </trkpt>
      <trkpt lat="46.07426" lon="6.78191">
        <ele>1981.7</ele>
        <time>2026-06-26T10:22:08Z</time>
      </trkpt>
      <trkpt lat="46.07426" lon="6.78191">
        <ele>1981.8</ele>
        <time>2026-06-26T10:22:09Z</time>
      </trkpt>
      <trkpt lat="46.07426" lon="6.78191">
        <ele>1981.9</ele>
        <time>2026-06-26T10:22:10Z</time>
      </trkpt>
      <trkpt lat="46.07426" lon="6.78192">
        <ele>1981.9</ele>
        <time>2026-06-26T10:22:11Z</time>
      </trkpt>
      <trkpt lat="46.07426" lon="6.78191">
        <ele>1981.9</ele>
        <time>2026-06-26T10:22:12Z</time>
      </trkpt>
      <trkpt lat="46.07426" lon="6.78191">
        <ele>1982</ele>
        <time>2026-06-26T10:22:13Z</time>
      </trkpt>
      <trkpt lat="46.07426" lon="6.78191">
        <ele>1982</ele>
        <time>2026-06-26T10:22:14Z</time>
      </trkpt>
      <trkpt lat="46.07426" lon="6.78191">
        <ele>1981.9</ele>
        <time>2026-06-26T10:22:15Z</time>
      </trkpt>
      <trkpt lat="46.07426" lon="6.7819">
        <ele>1981.9</ele>
        <time>2026-06-26T10:22:16Z</time>
      </trkpt>
      <trkpt lat="46.07427" lon="6.78189">
        <ele>1981.6</ele>
        <time>2026-06-26T10:22:17Z</time>
      </trkpt>
      <trkpt lat="46.07427" lon="6.78189">
        <ele>1981.4</ele>
        <time>2026-06-26T10:22:18Z</time>
      </trkpt>
      <trkpt lat="46.07427" lon="6.78189">
        <ele>1981.1</ele>
        <time>2026-06-26T10:22:19Z</time>
      </trkpt>
      <trkpt lat="46.07427" lon="6.78188">
        <ele>1980.9</ele>
        <time>2026-06-26T10:22:20Z</time>
      </trkpt>
      <trkpt lat="46.07427" lon="6.78188">
        <ele>1980.8</ele>
        <time>2026-06-26T10:22:21Z</time>
      </trkpt>
      <trkpt lat="46.07428" lon="6.78187">
        <ele>1980.7</ele>
        <time>2026-06-26T10:22:22Z</time>
      </trkpt>
      <trkpt lat="46.07428" lon="6.78186">
        <ele>1980.8</ele>
        <time>2026-06-26T10:22:23Z</time>
      </trkpt>
      <trkpt lat="46.07428" lon="6.78186">
        <ele>1980.8</ele>
        <time>2026-06-26T10:22:24Z</time>
      </trkpt>
      <trkpt lat="46.07427" lon="6.78185">
        <ele>1980.8</ele>
        <time>2026-06-26T10:22:25Z</time>
      </trkpt>
      <trkpt lat="46.07427" lon="6.78185">
        <ele>1980.9</ele>
        <time>2026-06-26T10:22:26Z</time>
      </trkpt>
      <trkpt lat="46.07427" lon="6.78185">
        <ele>1980.9</ele>
        <time>2026-06-26T10:22:27Z</time>
      </trkpt>
      <trkpt lat="46.07427" lon="6.78185">
        <ele>1980.9</ele>
        <time>2026-06-26T10:22:28Z</time>
      </trkpt>
      <trkpt lat="46.07427" lon="6.78184">
        <ele>1981</ele>
        <time>2026-06-26T10:22:29Z</time>
      </trkpt>
      <trkpt lat="46.07426" lon="6.78184">
        <ele>1981.1</ele>
        <time>2026-06-26T10:22:30Z</time>
      </trkpt>
      <trkpt lat="46.07426" lon="6.78183">
        <ele>1981.1</ele>
        <time>2026-06-26T10:22:31Z</time>
      </trkpt>
      <trkpt lat="46.07426" lon="6.78183">
        <ele>1981.1</ele>
        <time>2026-06-26T10:22:32Z</time>
      </trkpt>
      <trkpt lat="46.07425" lon="6.78183">
        <ele>1981.2</ele>
        <time>2026-06-26T10:22:33Z</time>
      </trkpt>
      <trkpt lat="46.07425" lon="6.78182">
        <ele>1981.2</ele>
        <time>2026-06-26T10:22:34Z</time>
      </trkpt>
      <trkpt lat="46.07425" lon="6.78182">
        <ele>1981.2</ele>
        <time>2026-06-26T10:22:35Z</time>
      </trkpt>
      <trkpt lat="46.07425" lon="6.78182">
        <ele>1981.3</ele>
        <time>2026-06-26T10:22:36Z</time>
      </trkpt>
      <trkpt lat="46.07425" lon="6.78181">
        <ele>1981.3</ele>
        <time>2026-06-26T10:22:37Z</time>
      </trkpt>
      <trkpt lat="46.07425" lon="6.78181">
        <ele>1981.3</ele>
        <time>2026-06-26T10:22:38Z</time>
      </trkpt>
      <trkpt lat="46.07425" lon="6.78181">
        <ele>1981.3</ele>
        <time>2026-06-26T10:22:39Z</time>
      </trkpt>
      <trkpt lat="46.07425" lon="6.78181">
        <ele>1981.3</ele>
        <time>2026-06-26T10:22:40Z</time>
      </trkpt>
      <trkpt lat="46.07425" lon="6.78181">
        <ele>1981.3</ele>
        <time>2026-06-26T10:22:41Z</time>
      </trkpt>
      <trkpt lat="46.07424" lon="6.78181">
        <ele>1981.4</ele>
        <time>2026-06-26T10:22:42Z</time>
      </trkpt>
      <trkpt lat="46.07424" lon="6.78181">
        <ele>1981.4</ele>
        <time>2026-06-26T10:22:43Z</time>
      </trkpt>
      <trkpt lat="46.07424" lon="6.78182">
        <ele>1981.5</ele>
        <time>2026-06-26T10:22:44Z</time>
      </trkpt>
      <trkpt lat="46.07424" lon="6.78182">
        <ele>1981.5</ele>
        <time>2026-06-26T10:22:45Z</time>
      </trkpt>
      <trkpt lat="46.07424" lon="6.78182">
        <ele>1981.4</ele>
        <time>2026-06-26T10:22:46Z</time>
      </trkpt>
      <trkpt lat="46.07424" lon="6.78182">
        <ele>1981.3</ele>
        <time>2026-06-26T10:22:47Z</time>
      </trkpt>
      <trkpt lat="46.07424" lon="6.78182">
        <ele>1981.5</ele>
        <time>2026-06-26T10:22:48Z</time>
      </trkpt>
      <trkpt lat="46.07424" lon="6.78182">
        <ele>1981.6</ele>
        <time>2026-06-26T10:22:49Z</time>
      </trkpt>
      <trkpt lat="46.07424" lon="6.78182">
        <ele>1981.6</ele>
        <time>2026-06-26T10:22:50Z</time>
      </trkpt>
      <trkpt lat="46.07424" lon="6.78182">
        <ele>1981.7</ele>
        <time>2026-06-26T10:22:51Z</time>
      </trkpt>
      <trkpt lat="46.07424" lon="6.78182">
        <ele>1981.7</ele>
        <time>2026-06-26T10:22:52Z</time>
      </trkpt>
      <trkpt lat="46.07424" lon="6.78182">
        <ele>1981.7</ele>
        <time>2026-06-26T10:22:53Z</time>
      </trkpt>
      <trkpt lat="46.07424" lon="6.78182">
        <ele>1981.8</ele>
        <time>2026-06-26T10:22:54Z</time>
      </trkpt>
      <trkpt lat="46.07424" lon="6.78182">
        <ele>1981.8</ele>
        <time>2026-06-26T10:22:55Z</time>
      </trkpt>
      <trkpt lat="46.07424" lon="6.78182">
        <ele>1981.8</ele>
        <time>2026-06-26T10:22:56Z</time>
      </trkpt>
      <trkpt lat="46.07424" lon="6.78183">
        <ele>1981.8</ele>
        <time>2026-06-26T10:22:57Z</time>
      </trkpt>
      <trkpt lat="46.07424" lon="6.78183">
        <ele>1981.8</ele>
        <time>2026-06-26T10:22:58Z</time>
      </trkpt>
      <trkpt lat="46.07424" lon="6.78183">
        <ele>1981.8</ele>
        <time>2026-06-26T10:22:59Z</time>
      </trkpt>
      <trkpt lat="46.07424" lon="6.78183">
        <ele>1981.8</ele>
        <time>2026-06-26T10:23:00Z</time>
      </trkpt>
      <trkpt lat="46.07424" lon="6.78183">
        <ele>1981.8</ele>
        <time>2026-06-26T10:23:01Z</time>
      </trkpt>
      <trkpt lat="46.07424" lon="6.78183">
        <ele>1981.8</ele>
        <time>2026-06-26T10:23:02Z</time>
      </trkpt>
      <trkpt lat="46.07424" lon="6.78183">
        <ele>1981.7</ele>
        <time>2026-06-26T10:23:03Z</time>
      </trkpt>
      <trkpt lat="46.07424" lon="6.78183">
        <ele>1981.9</ele>
        <time>2026-06-26T10:23:04Z</time>
      </trkpt>
      <trkpt lat="46.07424" lon="6.78183">
        <ele>1981.8</ele>
        <time>2026-06-26T10:23:05Z</time>
      </trkpt>
      <trkpt lat="46.07424" lon="6.78183">
        <ele>1981.8</ele>
        <time>2026-06-26T10:23:06Z</time>
      </trkpt>
      <trkpt lat="46.07424" lon="6.78183">
        <ele>1981.7</ele>
        <time>2026-06-26T10:23:07Z</time>
      </trkpt>
      <trkpt lat="46.07424" lon="6.78183">
        <ele>1981.7</ele>
        <time>2026-06-26T10:23:08Z</time>
      </trkpt>
      <trkpt lat="46.07424" lon="6.78183">
        <ele>1981.7</ele>
        <time>2026-06-26T10:23:09Z</time>
      </trkpt>
      <trkpt lat="46.07424" lon="6.78183">
        <ele>1981.7</ele>
        <time>2026-06-26T10:23:10Z</time>
      </trkpt>
      <trkpt lat="46.07424" lon="6.78183">
        <ele>1981.7</ele>
        <time>2026-06-26T10:23:11Z</time>
      </trkpt>
      <trkpt lat="46.07424" lon="6.78183">
        <ele>1981.8</ele>
        <time>2026-06-26T10:23:12Z</time>
      </trkpt>
      <trkpt lat="46.07424" lon="6.78183">
        <ele>1981.8</ele>
        <time>2026-06-26T10:23:13Z</time>
      </trkpt>
      <trkpt lat="46.07424" lon="6.78183">
        <ele>1981.9</ele>
        <time>2026-06-26T10:23:14Z</time>
      </trkpt>
      <trkpt lat="46.07424" lon="6.78183">
        <ele>1981.8</ele>
        <time>2026-06-26T10:23:15Z</time>
      </trkpt>
      <trkpt lat="46.07424" lon="6.78183">
        <ele>1981.9</ele>
        <time>2026-06-26T10:23:16Z</time>
      </trkpt>
      <trkpt lat="46.07424" lon="6.78183">
        <ele>1981.8</ele>
        <time>2026-06-26T10:23:17Z</time>
      </trkpt>
      <trkpt lat="46.07424" lon="6.78183">
        <ele>1981.7</ele>
        <time>2026-06-26T10:23:18Z</time>
      </trkpt>
      <trkpt lat="46.07424" lon="6.78183">
        <ele>1981.7</ele>
        <time>2026-06-26T10:23:19Z</time>
      </trkpt>
      <trkpt lat="46.07424" lon="6.78183">
        <ele>1981.7</ele>
        <time>2026-06-26T10:23:20Z</time>
      </trkpt>
      <trkpt lat="46.07424" lon="6.78183">
        <ele>1981.8</ele>
        <time>2026-06-26T10:23:21Z</time>
      </trkpt>
      <trkpt lat="46.07424" lon="6.78183">
        <ele>1981.8</ele>
        <time>2026-06-26T10:23:22Z</time>
      </trkpt>
      <trkpt lat="46.07424" lon="6.78183">
        <ele>1981.8</ele>
        <time>2026-06-26T10:23:23Z</time>
      </trkpt>
      <trkpt lat="46.07424" lon="6.78183">
        <ele>1981.9</ele>
        <time>2026-06-26T10:23:24Z</time>
      </trkpt>
      <trkpt lat="46.07424" lon="6.78183">
        <ele>1981.9</ele>
        <time>2026-06-26T10:23:25Z</time>
      </trkpt>
      <trkpt lat="46.07425" lon="6.78183">
        <ele>1981.9</ele>
        <time>2026-06-26T10:23:26Z</time>
      </trkpt>
      <trkpt lat="46.07425" lon="6.78183">
        <ele>1981.9</ele>
        <time>2026-06-26T10:23:27Z</time>
      </trkpt>
      <trkpt lat="46.07425" lon="6.78184">
        <ele>1981.8</ele>
        <time>2026-06-26T10:23:28Z</time>
      </trkpt>
      <trkpt lat="46.07425" lon="6.78184">
        <ele>1981.7</ele>
        <time>2026-06-26T10:23:29Z</time>
      </trkpt>
      <trkpt lat="46.07425" lon="6.78184">
        <ele>1981.8</ele>
        <time>2026-06-26T10:23:30Z</time>
      </trkpt>
      <trkpt lat="46.07425" lon="6.78184">
        <ele>1981.8</ele>
        <time>2026-06-26T10:23:31Z</time>
      </trkpt>
      <trkpt lat="46.07425" lon="6.78184">
        <ele>1981.8</ele>
        <time>2026-06-26T10:23:32Z</time>
      </trkpt>
      <trkpt lat="46.07425" lon="6.78184">
        <ele>1981.8</ele>
        <time>2026-06-26T10:23:33Z</time>
      </trkpt>
      <trkpt lat="46.07425" lon="6.78184">
        <ele>1981.8</ele>
        <time>2026-06-26T10:23:34Z</time>
      </trkpt>
      <trkpt lat="46.07425" lon="6.78184">
        <ele>1981.8</ele>
        <time>2026-06-26T10:23:35Z</time>
      </trkpt>
      <trkpt lat="46.07425" lon="6.78184">
        <ele>1981.8</ele>
        <time>2026-06-26T10:23:36Z</time>
      </trkpt>
      <trkpt lat="46.07425" lon="6.78184">
        <ele>1981.7</ele>
        <time>2026-06-26T10:23:37Z</time>
      </trkpt>
      <trkpt lat="46.07425" lon="6.78184">
        <ele>1981.7</ele>
        <time>2026-06-26T10:23:38Z</time>
      </trkpt>
      <trkpt lat="46.07425" lon="6.78184">
        <ele>1981.7</ele>
        <time>2026-06-26T10:23:39Z</time>
      </trkpt>
      <trkpt lat="46.07425" lon="6.78184">
        <ele>1981.6</ele>
        <time>2026-06-26T10:23:40Z</time>
      </trkpt>
      <trkpt lat="46.07425" lon="6.78184">
        <ele>1981.6</ele>
        <time>2026-06-26T10:23:41Z</time>
      </trkpt>
      <trkpt lat="46.07424" lon="6.78184">
        <ele>1981.5</ele>
        <time>2026-06-26T10:23:42Z</time>
      </trkpt>
      <trkpt lat="46.07424" lon="6.78184">
        <ele>1981.5</ele>
        <time>2026-06-26T10:23:43Z</time>
      </trkpt>
      <trkpt lat="46.07424" lon="6.78184">
        <ele>1981.4</ele>
        <time>2026-06-26T10:23:44Z</time>
      </trkpt>
      <trkpt lat="46.07424" lon="6.78184">
        <ele>1981.5</ele>
        <time>2026-06-26T10:23:45Z</time>
      </trkpt>
      <trkpt lat="46.07424" lon="6.78184">
        <ele>1981.5</ele>
        <time>2026-06-26T10:23:46Z</time>
      </trkpt>
      <trkpt lat="46.07424" lon="6.78184">
        <ele>1981.5</ele>
        <time>2026-06-26T10:23:47Z</time>
      </trkpt>
      <trkpt lat="46.07424" lon="6.78184">
        <ele>1981.6</ele>
        <time>2026-06-26T10:23:48Z</time>
      </trkpt>
      <trkpt lat="46.07424" lon="6.78184">
        <ele>1981.6</ele>
        <time>2026-06-26T10:23:49Z</time>
      </trkpt>
      <trkpt lat="46.07424" lon="6.78184">
        <ele>1981.5</ele>
        <time>2026-06-26T10:23:50Z</time>
      </trkpt>
      <trkpt lat="46.07424" lon="6.78184">
        <ele>1981.5</ele>
        <time>2026-06-26T10:23:51Z</time>
      </trkpt>
      <trkpt lat="46.07424" lon="6.78184">
        <ele>1981.5</ele>
        <time>2026-06-26T10:23:52Z</time>
      </trkpt>
      <trkpt lat="46.07424" lon="6.78184">
        <ele>1981.5</ele>
        <time>2026-06-26T10:23:53Z</time>
      </trkpt>
      <trkpt lat="46.07424" lon="6.78183">
        <ele>1981.5</ele>
        <time>2026-06-26T10:23:54Z</time>
      </trkpt>
      <trkpt lat="46.07424" lon="6.78183">
        <ele>1981.5</ele>
        <time>2026-06-26T10:23:55Z</time>
      </trkpt>
      <trkpt lat="46.07425" lon="6.78184">
        <ele>1981.5</ele>
        <time>2026-06-26T10:23:56Z</time>
      </trkpt>
      <trkpt lat="46.07425" lon="6.78184">
        <ele>1981.5</ele>
        <time>2026-06-26T10:23:57Z</time>
      </trkpt>
      <trkpt lat="46.07425" lon="6.78184">
        <ele>1981.4</ele>
        <time>2026-06-26T10:23:58Z</time>
      </trkpt>
      <trkpt lat="46.07425" lon="6.78184">
        <ele>1981.5</ele>
        <time>2026-06-26T10:23:59Z</time>
      </trkpt>
      <trkpt lat="46.07425" lon="6.78183">
        <ele>1981.6</ele>
        <time>2026-06-26T10:24:00Z</time>
      </trkpt>
      <trkpt lat="46.07425" lon="6.78183">
        <ele>1981.7</ele>
        <time>2026-06-26T10:24:01Z</time>
      </trkpt>
      <trkpt lat="46.07425" lon="6.78183">
        <ele>1981.8</ele>
        <time>2026-06-26T10:24:02Z</time>
      </trkpt>
      <trkpt lat="46.07425" lon="6.78183">
        <ele>1981.8</ele>
        <time>2026-06-26T10:24:03Z</time>
      </trkpt>
      <trkpt lat="46.07425" lon="6.78184">
        <ele>1981.8</ele>
        <time>2026-06-26T10:24:04Z</time>
      </trkpt>
      <trkpt lat="46.07425" lon="6.78184">
        <ele>1981.9</ele>
        <time>2026-06-26T10:24:05Z</time>
      </trkpt>
      <trkpt lat="46.07425" lon="6.78183">
        <ele>1981.8</ele>
        <time>2026-06-26T10:24:06Z</time>
      </trkpt>
      <trkpt lat="46.07425" lon="6.78183">
        <ele>1981.8</ele>
        <time>2026-06-26T10:24:07Z</time>
      </trkpt>
      <trkpt lat="46.07425" lon="6.78183">
        <ele>1981.7</ele>
        <time>2026-06-26T10:24:08Z</time>
      </trkpt>
      <trkpt lat="46.07425" lon="6.78183">
        <ele>1981.6</ele>
        <time>2026-06-26T10:24:09Z</time>
      </trkpt>
      <trkpt lat="46.07425" lon="6.78183">
        <ele>1981.5</ele>
        <time>2026-06-26T10:24:10Z</time>
      </trkpt>
      <trkpt lat="46.07425" lon="6.78183">
        <ele>1981.4</ele>
        <time>2026-06-26T10:24:11Z</time>
      </trkpt>
      <trkpt lat="46.07425" lon="6.78183">
        <ele>1981.4</ele>
        <time>2026-06-26T10:24:12Z</time>
      </trkpt>
      <trkpt lat="46.07425" lon="6.78183">
        <ele>1981.3</ele>
        <time>2026-06-26T10:24:13Z</time>
      </trkpt>
      <trkpt lat="46.07425" lon="6.78183">
        <ele>1981.4</ele>
        <time>2026-06-26T10:24:14Z</time>
      </trkpt>
      <trkpt lat="46.07425" lon="6.78183">
        <ele>1981.5</ele>
        <time>2026-06-26T10:24:15Z</time>
      </trkpt>
      <trkpt lat="46.07424" lon="6.78183">
        <ele>1981.6</ele>
        <time>2026-06-26T10:24:16Z</time>
      </trkpt>
      <trkpt lat="46.07424" lon="6.78183">
        <ele>1981.6</ele>
        <time>2026-06-26T10:24:17Z</time>
      </trkpt>
      <trkpt lat="46.07424" lon="6.78183">
        <ele>1981.6</ele>
        <time>2026-06-26T10:24:18Z</time>
      </trkpt>
      <trkpt lat="46.07424" lon="6.78183">
        <ele>1981.6</ele>
        <time>2026-06-26T10:24:19Z</time>
      </trkpt>
      <trkpt lat="46.07424" lon="6.78183">
        <ele>1981.6</ele>
        <time>2026-06-26T10:24:20Z</time>
      </trkpt>
      <trkpt lat="46.07424" lon="6.78183">
        <ele>1981.6</ele>
        <time>2026-06-26T10:24:21Z</time>
      </trkpt>
      <trkpt lat="46.07425" lon="6.78183">
        <ele>1981.6</ele>
        <time>2026-06-26T10:24:22Z</time>
      </trkpt>
      <trkpt lat="46.07424" lon="6.78183">
        <ele>1981.6</ele>
        <time>2026-06-26T10:24:23Z</time>
      </trkpt>
      <trkpt lat="46.07425" lon="6.78183">
        <ele>1981.7</ele>
        <time>2026-06-26T10:24:24Z</time>
      </trkpt>
      <trkpt lat="46.07425" lon="6.78183">
        <ele>1981.7</ele>
        <time>2026-06-26T10:24:25Z</time>
      </trkpt>
      <trkpt lat="46.07425" lon="6.78183">
        <ele>1981.7</ele>
        <time>2026-06-26T10:24:26Z</time>
      </trkpt>
      <trkpt lat="46.07425" lon="6.78184">
        <ele>1981.6</ele>
        <time>2026-06-26T10:24:27Z</time>
      </trkpt>
      <trkpt lat="46.07425" lon="6.78184">
        <ele>1981.6</ele>
        <time>2026-06-26T10:24:28Z</time>
      </trkpt>
      <trkpt lat="46.07425" lon="6.78184">
        <ele>1981.6</ele>
        <time>2026-06-26T10:24:29Z</time>
      </trkpt>
      <trkpt lat="46.07425" lon="6.78184">
        <ele>1981.6</ele>
        <time>2026-06-26T10:24:30Z</time>
      </trkpt>
      <trkpt lat="46.07425" lon="6.78184">
        <ele>1981.5</ele>
        <time>2026-06-26T10:24:31Z</time>
      </trkpt>
      <trkpt lat="46.07425" lon="6.78184">
        <ele>1981.6</ele>
        <time>2026-06-26T10:24:32Z</time>
      </trkpt>
      <trkpt lat="46.07425" lon="6.78184">
        <ele>1981.6</ele>
        <time>2026-06-26T10:24:33Z</time>
      </trkpt>
      <trkpt lat="46.07425" lon="6.78184">
        <ele>1981.7</ele>
        <time>2026-06-26T10:24:34Z</time>
      </trkpt>
      <trkpt lat="46.07425" lon="6.78184">
        <ele>1981.7</ele>
        <time>2026-06-26T10:24:35Z</time>
      </trkpt>
      <trkpt lat="46.07425" lon="6.78184">
        <ele>1981.7</ele>
        <time>2026-06-26T10:24:36Z</time>
      </trkpt>
      <trkpt lat="46.07425" lon="6.78184">
        <ele>1981.8</ele>
        <time>2026-06-26T10:24:37Z</time>
      </trkpt>
      <trkpt lat="46.07425" lon="6.78184">
        <ele>1981.7</ele>
        <time>2026-06-26T10:24:38Z</time>
      </trkpt>
      <trkpt lat="46.07425" lon="6.78184">
        <ele>1981.7</ele>
        <time>2026-06-26T10:24:39Z</time>
      </trkpt>
      <trkpt lat="46.07425" lon="6.78184">
        <ele>1981.8</ele>
        <time>2026-06-26T10:24:40Z</time>
      </trkpt>
      <trkpt lat="46.07425" lon="6.78184">
        <ele>1981.9</ele>
        <time>2026-06-26T10:24:41Z</time>
      </trkpt>
      <trkpt lat="46.07425" lon="6.78184">
        <ele>1981.9</ele>
        <time>2026-06-26T10:24:42Z</time>
      </trkpt>
      <trkpt lat="46.07425" lon="6.78184">
        <ele>1981.9</ele>
        <time>2026-06-26T10:24:43Z</time>
      </trkpt>
      <trkpt lat="46.07425" lon="6.78184">
        <ele>1981.9</ele>
        <time>2026-06-26T10:24:44Z</time>
      </trkpt>
      <trkpt lat="46.07425" lon="6.78184">
        <ele>1981.9</ele>
        <time>2026-06-26T10:24:45Z</time>
      </trkpt>
      <trkpt lat="46.07424" lon="6.78184">
        <ele>1981.8</ele>
        <time>2026-06-26T10:24:46Z</time>
      </trkpt>
      <trkpt lat="46.07424" lon="6.78184">
        <ele>1981.8</ele>
        <time>2026-06-26T10:24:47Z</time>
      </trkpt>
      <trkpt lat="46.07424" lon="6.78184">
        <ele>1981.8</ele>
        <time>2026-06-26T10:24:48Z</time>
      </trkpt>
      <trkpt lat="46.07424" lon="6.78184">
        <ele>1981.7</ele>
        <time>2026-06-26T10:24:49Z</time>
      </trkpt>
      <trkpt lat="46.07424" lon="6.78184">
        <ele>1981.7</ele>
        <time>2026-06-26T10:24:50Z</time>
      </trkpt>
      <trkpt lat="46.07424" lon="6.78184">
        <ele>1981.7</ele>
        <time>2026-06-26T10:24:51Z</time>
      </trkpt>
      <trkpt lat="46.07424" lon="6.78184">
        <ele>1981.6</ele>
        <time>2026-06-26T10:24:52Z</time>
      </trkpt>
      <trkpt lat="46.07424" lon="6.78184">
        <ele>1981.6</ele>
        <time>2026-06-26T10:24:53Z</time>
      </trkpt>
      <trkpt lat="46.07424" lon="6.78184">
        <ele>1981.7</ele>
        <time>2026-06-26T10:24:54Z</time>
      </trkpt>
      <trkpt lat="46.07424" lon="6.78184">
        <ele>1981.8</ele>
        <time>2026-06-26T10:24:55Z</time>
      </trkpt>
      <trkpt lat="46.07424" lon="6.78184">
        <ele>1981.8</ele>
        <time>2026-06-26T10:24:56Z</time>
      </trkpt>
      <trkpt lat="46.07425" lon="6.78184">
        <ele>1981.8</ele>
        <time>2026-06-26T10:24:57Z</time>
      </trkpt>
      <trkpt lat="46.07425" lon="6.78184">
        <ele>1981.9</ele>
        <time>2026-06-26T10:24:58Z</time>
      </trkpt>
      <trkpt lat="46.07425" lon="6.78184">
        <ele>1981.8</ele>
        <time>2026-06-26T10:24:59Z</time>
      </trkpt>
      <trkpt lat="46.07424" lon="6.78184">
        <ele>1981.8</ele>
        <time>2026-06-26T10:25:00Z</time>
      </trkpt>
      <trkpt lat="46.07424" lon="6.78184">
        <ele>1981.7</ele>
        <time>2026-06-26T10:25:01Z</time>
      </trkpt>
      <trkpt lat="46.07424" lon="6.78184">
        <ele>1981.7</ele>
        <time>2026-06-26T10:25:02Z</time>
      </trkpt>
      <trkpt lat="46.07424" lon="6.78184">
        <ele>1981.6</ele>
        <time>2026-06-26T10:25:03Z</time>
      </trkpt>
      <trkpt lat="46.07424" lon="6.78184">
        <ele>1981.6</ele>
        <time>2026-06-26T10:25:04Z</time>
      </trkpt>
      <trkpt lat="46.07424" lon="6.78184">
        <ele>1981.6</ele>
        <time>2026-06-26T10:25:05Z</time>
      </trkpt>
      <trkpt lat="46.07424" lon="6.78184">
        <ele>1981.5</ele>
        <time>2026-06-26T10:25:06Z</time>
      </trkpt>
      <trkpt lat="46.07424" lon="6.78184">
        <ele>1981.4</ele>
        <time>2026-06-26T10:25:07Z</time>
      </trkpt>
      <trkpt lat="46.07424" lon="6.78184">
        <ele>1981.4</ele>
        <time>2026-06-26T10:25:08Z</time>
      </trkpt>
      <trkpt lat="46.07424" lon="6.78184">
        <ele>1981.4</ele>
        <time>2026-06-26T10:25:09Z</time>
      </trkpt>
      <trkpt lat="46.07424" lon="6.78184">
        <ele>1981.4</ele>
        <time>2026-06-26T10:25:10Z</time>
      </trkpt>
      <trkpt lat="46.07424" lon="6.78184">
        <ele>1981.4</ele>
        <time>2026-06-26T10:25:11Z</time>
      </trkpt>
      <trkpt lat="46.07424" lon="6.78184">
        <ele>1981.3</ele>
        <time>2026-06-26T10:25:12Z</time>
      </trkpt>
      <trkpt lat="46.07424" lon="6.78184">
        <ele>1981.3</ele>
        <time>2026-06-26T10:25:13Z</time>
      </trkpt>
      <trkpt lat="46.07424" lon="6.78184">
        <ele>1981.3</ele>
        <time>2026-06-26T10:25:14Z</time>
      </trkpt>
      <trkpt lat="46.07424" lon="6.78183">
        <ele>1981.4</ele>
        <time>2026-06-26T10:25:15Z</time>
      </trkpt>
      <trkpt lat="46.07424" lon="6.78183">
        <ele>1981.5</ele>
        <time>2026-06-26T10:25:16Z</time>
      </trkpt>
      <trkpt lat="46.07424" lon="6.78183">
        <ele>1981.6</ele>
        <time>2026-06-26T10:25:17Z</time>
      </trkpt>
      <trkpt lat="46.07424" lon="6.78183">
        <ele>1981.7</ele>
        <time>2026-06-26T10:25:18Z</time>
      </trkpt>
      <trkpt lat="46.07424" lon="6.78183">
        <ele>1981.7</ele>
        <time>2026-06-26T10:25:19Z</time>
      </trkpt>
      <trkpt lat="46.07424" lon="6.78183">
        <ele>1981.7</ele>
        <time>2026-06-26T10:25:20Z</time>
      </trkpt>
      <trkpt lat="46.07424" lon="6.78183">
        <ele>1981.7</ele>
        <time>2026-06-26T10:25:21Z</time>
      </trkpt>
      <trkpt lat="46.07424" lon="6.78183">
        <ele>1981.8</ele>
        <time>2026-06-26T10:25:22Z</time>
      </trkpt>
      <trkpt lat="46.07424" lon="6.78183">
        <ele>1981.8</ele>
        <time>2026-06-26T10:25:23Z</time>
      </trkpt>
      <trkpt lat="46.07424" lon="6.78183">
        <ele>1981.8</ele>
        <time>2026-06-26T10:25:24Z</time>
      </trkpt>
      <trkpt lat="46.07424" lon="6.78183">
        <ele>1981.8</ele>
        <time>2026-06-26T10:25:25Z</time>
      </trkpt>
      <trkpt lat="46.07424" lon="6.78183">
        <ele>1981.8</ele>
        <time>2026-06-26T10:25:26Z</time>
      </trkpt>
      <trkpt lat="46.07424" lon="6.78183">
        <ele>1981.8</ele>
        <time>2026-06-26T10:25:27Z</time>
      </trkpt>
      <trkpt lat="46.07424" lon="6.78183">
        <ele>1981.8</ele>
        <time>2026-06-26T10:25:28Z</time>
      </trkpt>
      <trkpt lat="46.07424" lon="6.78184">
        <ele>1981.9</ele>
        <time>2026-06-26T10:25:29Z</time>
      </trkpt>
      <trkpt lat="46.07424" lon="6.78184">
        <ele>1981.9</ele>
        <time>2026-06-26T10:25:30Z</time>
      </trkpt>
      <trkpt lat="46.07424" lon="6.78184">
        <ele>1981.9</ele>
        <time>2026-06-26T10:25:31Z</time>
      </trkpt>
      <trkpt lat="46.07424" lon="6.78184">
        <ele>1981.9</ele>
        <time>2026-06-26T10:25:32Z</time>
      </trkpt>
      <trkpt lat="46.07424" lon="6.78184">
        <ele>1981.9</ele>
        <time>2026-06-26T10:25:33Z</time>
      </trkpt>
      <trkpt lat="46.07424" lon="6.78184">
        <ele>1981.9</ele>
        <time>2026-06-26T10:25:34Z</time>
      </trkpt>
      <trkpt lat="46.07424" lon="6.78184">
        <ele>1981.9</ele>
        <time>2026-06-26T10:25:35Z</time>
      </trkpt>
      <trkpt lat="46.07424" lon="6.78184">
        <ele>1981.9</ele>
        <time>2026-06-26T10:25:36Z</time>
      </trkpt>
      <trkpt lat="46.07424" lon="6.78184">
        <ele>1981.9</ele>
        <time>2026-06-26T10:25:37Z</time>
      </trkpt>
      <trkpt lat="46.07424" lon="6.78184">
        <ele>1981.9</ele>
        <time>2026-06-26T10:25:38Z</time>
      </trkpt>
      <trkpt lat="46.07424" lon="6.78185">
        <ele>1981.9</ele>
        <time>2026-06-26T10:25:39Z</time>
      </trkpt>
      <trkpt lat="46.07424" lon="6.78185">
        <ele>1981.8</ele>
        <time>2026-06-26T10:25:40Z</time>
      </trkpt>
      <trkpt lat="46.07424" lon="6.78185">
        <ele>1981.7</ele>
        <time>2026-06-26T10:25:41Z</time>
      </trkpt>
      <trkpt lat="46.07424" lon="6.78185">
        <ele>1981.8</ele>
        <time>2026-06-26T10:25:42Z</time>
      </trkpt>
      <trkpt lat="46.07424" lon="6.78185">
        <ele>1981.8</ele>
        <time>2026-06-26T10:25:43Z</time>
      </trkpt>
      <trkpt lat="46.07424" lon="6.78185">
        <ele>1981.7</ele>
        <time>2026-06-26T10:25:44Z</time>
      </trkpt>
      <trkpt lat="46.07425" lon="6.78185">
        <ele>1981.6</ele>
        <time>2026-06-26T10:25:45Z</time>
      </trkpt>
      <trkpt lat="46.07424" lon="6.78185">
        <ele>1981.6</ele>
        <time>2026-06-26T10:25:46Z</time>
      </trkpt>
      <trkpt lat="46.07424" lon="6.78185">
        <ele>1981.6</ele>
        <time>2026-06-26T10:25:47Z</time>
      </trkpt>
      <trkpt lat="46.07424" lon="6.78185">
        <ele>1981.5</ele>
        <time>2026-06-26T10:25:48Z</time>
      </trkpt>
      <trkpt lat="46.07424" lon="6.78185">
        <ele>1981.5</ele>
        <time>2026-06-26T10:25:49Z</time>
      </trkpt>
      <trkpt lat="46.07424" lon="6.78185">
        <ele>1981.5</ele>
        <time>2026-06-26T10:25:50Z</time>
      </trkpt>
      <trkpt lat="46.07424" lon="6.78185">
        <ele>1981.5</ele>
        <time>2026-06-26T10:25:51Z</time>
      </trkpt>
      <trkpt lat="46.07424" lon="6.78185">
        <ele>1981.4</ele>
        <time>2026-06-26T10:25:52Z</time>
      </trkpt>
      <trkpt lat="46.07424" lon="6.78185">
        <ele>1981.4</ele>
        <time>2026-06-26T10:25:53Z</time>
      </trkpt>
      <trkpt lat="46.07424" lon="6.78185">
        <ele>1981.4</ele>
        <time>2026-06-26T10:25:54Z</time>
      </trkpt>
      <trkpt lat="46.07424" lon="6.78185">
        <ele>1981.4</ele>
        <time>2026-06-26T10:25:55Z</time>
      </trkpt>
      <trkpt lat="46.07424" lon="6.78185">
        <ele>1981.4</ele>
        <time>2026-06-26T10:25:56Z</time>
      </trkpt>
      <trkpt lat="46.07424" lon="6.78185">
        <ele>1981.5</ele>
        <time>2026-06-26T10:25:57Z</time>
      </trkpt>
      <trkpt lat="46.07424" lon="6.78185">
        <ele>1981.5</ele>
        <time>2026-06-26T10:25:58Z</time>
      </trkpt>
      <trkpt lat="46.07424" lon="6.78185">
        <ele>1981.5</ele>
        <time>2026-06-26T10:25:59Z</time>
      </trkpt>
      <trkpt lat="46.07424" lon="6.78185">
        <ele>1981.5</ele>
        <time>2026-06-26T10:26:00Z</time>
      </trkpt>
      <trkpt lat="46.07424" lon="6.78185">
        <ele>1981.6</ele>
        <time>2026-06-26T10:26:01Z</time>
      </trkpt>
      <trkpt lat="46.07424" lon="6.78185">
        <ele>1981.6</ele>
        <time>2026-06-26T10:26:02Z</time>
      </trkpt>
      <trkpt lat="46.07425" lon="6.78185">
        <ele>1981.6</ele>
        <time>2026-06-26T10:26:03Z</time>
      </trkpt>
      <trkpt lat="46.07425" lon="6.78185">
        <ele>1981.6</ele>
        <time>2026-06-26T10:26:04Z</time>
      </trkpt>
      <trkpt lat="46.07425" lon="6.78185">
        <ele>1981.6</ele>
        <time>2026-06-26T10:26:05Z</time>
      </trkpt>
      <trkpt lat="46.07425" lon="6.78185">
        <ele>1981.6</ele>
        <time>2026-06-26T10:26:06Z</time>
      </trkpt>
      <trkpt lat="46.07425" lon="6.78185">
        <ele>1981.6</ele>
        <time>2026-06-26T10:26:07Z</time>
      </trkpt>
      <trkpt lat="46.07425" lon="6.78184">
        <ele>1981.7</ele>
        <time>2026-06-26T10:26:08Z</time>
      </trkpt>
      <trkpt lat="46.07425" lon="6.78184">
        <ele>1981.7</ele>
        <time>2026-06-26T10:26:09Z</time>
      </trkpt>
      <trkpt lat="46.07425" lon="6.78184">
        <ele>1981.8</ele>
        <time>2026-06-26T10:26:10Z</time>
      </trkpt>
      <trkpt lat="46.07425" lon="6.78184">
        <ele>1981.8</ele>
        <time>2026-06-26T10:26:11Z</time>
      </trkpt>
      <trkpt lat="46.07425" lon="6.78184">
        <ele>1981.9</ele>
        <time>2026-06-26T10:26:12Z</time>
      </trkpt>
      <trkpt lat="46.07425" lon="6.78184">
        <ele>1982</ele>
        <time>2026-06-26T10:26:13Z</time>
      </trkpt>
      <trkpt lat="46.07425" lon="6.78184">
        <ele>1982</ele>
        <time>2026-06-26T10:26:14Z</time>
      </trkpt>
      <trkpt lat="46.07425" lon="6.78184">
        <ele>1981.9</ele>
        <time>2026-06-26T10:26:15Z</time>
      </trkpt>
      <trkpt lat="46.07425" lon="6.78185">
        <ele>1982</ele>
        <time>2026-06-26T10:26:16Z</time>
      </trkpt>
      <trkpt lat="46.07425" lon="6.78185">
        <ele>1982</ele>
        <time>2026-06-26T10:26:17Z</time>
      </trkpt>
      <trkpt lat="46.07425" lon="6.78185">
        <ele>1982.1</ele>
        <time>2026-06-26T10:26:18Z</time>
      </trkpt>
      <trkpt lat="46.07425" lon="6.78185">
        <ele>1982.2</ele>
        <time>2026-06-26T10:26:19Z</time>
      </trkpt>
      <trkpt lat="46.07425" lon="6.78185">
        <ele>1982.2</ele>
        <time>2026-06-26T10:26:20Z</time>
      </trkpt>
      <trkpt lat="46.07425" lon="6.78185">
        <ele>1982.3</ele>
        <time>2026-06-26T10:26:21Z</time>
      </trkpt>
      <trkpt lat="46.07425" lon="6.78185">
        <ele>1982.2</ele>
        <time>2026-06-26T10:26:22Z</time>
      </trkpt>
      <trkpt lat="46.07425" lon="6.78185">
        <ele>1982.1</ele>
        <time>2026-06-26T10:26:23Z</time>
      </trkpt>
      <trkpt lat="46.07425" lon="6.78184">
        <ele>1982.2</ele>
        <time>2026-06-26T10:26:24Z</time>
      </trkpt>
      <trkpt lat="46.07425" lon="6.78184">
        <ele>1982.3</ele>
        <time>2026-06-26T10:26:25Z</time>
      </trkpt>
      <trkpt lat="46.07425" lon="6.78184">
        <ele>1982.3</ele>
        <time>2026-06-26T10:26:26Z</time>
      </trkpt>
      <trkpt lat="46.07425" lon="6.78184">
        <ele>1982.3</ele>
        <time>2026-06-26T10:26:27Z</time>
      </trkpt>
      <trkpt lat="46.07425" lon="6.78184">
        <ele>1982.3</ele>
        <time>2026-06-26T10:26:28Z</time>
      </trkpt>
      <trkpt lat="46.07425" lon="6.78184">
        <ele>1982.3</ele>
        <time>2026-06-26T10:26:29Z</time>
      </trkpt>
      <trkpt lat="46.07424" lon="6.78184">
        <ele>1982.2</ele>
        <time>2026-06-26T10:26:30Z</time>
      </trkpt>
      <trkpt lat="46.07425" lon="6.78184">
        <ele>1982.2</ele>
        <time>2026-06-26T10:26:31Z</time>
      </trkpt>
      <trkpt lat="46.07425" lon="6.78184">
        <ele>1982.2</ele>
        <time>2026-06-26T10:26:32Z</time>
      </trkpt>
      <trkpt lat="46.07425" lon="6.78184">
        <ele>1982.2</ele>
        <time>2026-06-26T10:26:33Z</time>
      </trkpt>
      <trkpt lat="46.07425" lon="6.78184">
        <ele>1982.2</ele>
        <time>2026-06-26T10:26:34Z</time>
      </trkpt>
      <trkpt lat="46.07425" lon="6.78184">
        <ele>1982</ele>
        <time>2026-06-26T10:26:35Z</time>
      </trkpt>
      <trkpt lat="46.07425" lon="6.78184">
        <ele>1981.9</ele>
        <time>2026-06-26T10:26:36Z</time>
      </trkpt>
      <trkpt lat="46.07425" lon="6.78184">
        <ele>1981.8</ele>
        <time>2026-06-26T10:26:37Z</time>
      </trkpt>
      <trkpt lat="46.07425" lon="6.78184">
        <ele>1981.9</ele>
        <time>2026-06-26T10:26:38Z</time>
      </trkpt>
      <trkpt lat="46.07425" lon="6.78184">
        <ele>1981.9</ele>
        <time>2026-06-26T10:26:39Z</time>
      </trkpt>
      <trkpt lat="46.07425" lon="6.78184">
        <ele>1981.9</ele>
        <time>2026-06-26T10:26:40Z</time>
      </trkpt>
      <trkpt lat="46.07425" lon="6.78184">
        <ele>1981.9</ele>
        <time>2026-06-26T10:26:41Z</time>
      </trkpt>
      <trkpt lat="46.07425" lon="6.78184">
        <ele>1981.9</ele>
        <time>2026-06-26T10:26:42Z</time>
      </trkpt>
      <trkpt lat="46.07425" lon="6.78184">
        <ele>1981.8</ele>
        <time>2026-06-26T10:26:43Z</time>
      </trkpt>
      <trkpt lat="46.07425" lon="6.78184">
        <ele>1981.9</ele>
        <time>2026-06-26T10:26:44Z</time>
      </trkpt>
      <trkpt lat="46.07425" lon="6.78184">
        <ele>1981.9</ele>
        <time>2026-06-26T10:26:45Z</time>
      </trkpt>
      <trkpt lat="46.07425" lon="6.78183">
        <ele>1981.8</ele>
        <time>2026-06-26T10:26:46Z</time>
      </trkpt>
      <trkpt lat="46.07425" lon="6.78183">
        <ele>1981.8</ele>
        <time>2026-06-26T10:26:47Z</time>
      </trkpt>
      <trkpt lat="46.07425" lon="6.78183">
        <ele>1981.8</ele>
        <time>2026-06-26T10:26:48Z</time>
      </trkpt>
      <trkpt lat="46.07425" lon="6.78183">
        <ele>1981.8</ele>
        <time>2026-06-26T10:26:49Z</time>
      </trkpt>
      <trkpt lat="46.07425" lon="6.78183">
        <ele>1981.8</ele>
        <time>2026-06-26T10:26:50Z</time>
      </trkpt>
      <trkpt lat="46.07425" lon="6.78183">
        <ele>1981.8</ele>
        <time>2026-06-26T10:26:51Z</time>
      </trkpt>
      <trkpt lat="46.07425" lon="6.78183">
        <ele>1981.7</ele>
        <time>2026-06-26T10:26:52Z</time>
      </trkpt>
      <trkpt lat="46.07425" lon="6.78183">
        <ele>1981.7</ele>
        <time>2026-06-26T10:26:53Z</time>
      </trkpt>
      <trkpt lat="46.07425" lon="6.78183">
        <ele>1981.8</ele>
        <time>2026-06-26T10:26:54Z</time>
      </trkpt>
      <trkpt lat="46.07425" lon="6.78183">
        <ele>1981.9</ele>
        <time>2026-06-26T10:26:55Z</time>
      </trkpt>
      <trkpt lat="46.07425" lon="6.78183">
        <ele>1981.9</ele>
        <time>2026-06-26T10:26:56Z</time>
      </trkpt>
      <trkpt lat="46.07425" lon="6.78183">
        <ele>1981.9</ele>
        <time>2026-06-26T10:26:57Z</time>
      </trkpt>
      <trkpt lat="46.07425" lon="6.78183">
        <ele>1981.8</ele>
        <time>2026-06-26T10:26:58Z</time>
      </trkpt>
      <trkpt lat="46.07425" lon="6.78183">
        <ele>1981.8</ele>
        <time>2026-06-26T10:26:59Z</time>
      </trkpt>
      <trkpt lat="46.07425" lon="6.78183">
        <ele>1981.7</ele>
        <time>2026-06-26T10:27:00Z</time>
      </trkpt>
      <trkpt lat="46.07425" lon="6.78183">
        <ele>1981.7</ele>
        <time>2026-06-26T10:27:01Z</time>
      </trkpt>
      <trkpt lat="46.07425" lon="6.78183">
        <ele>1981.7</ele>
        <time>2026-06-26T10:27:02Z</time>
      </trkpt>
      <trkpt lat="46.07425" lon="6.78183">
        <ele>1981.7</ele>
        <time>2026-06-26T10:27:03Z</time>
      </trkpt>
      <trkpt lat="46.07425" lon="6.78183">
        <ele>1981.8</ele>
        <time>2026-06-26T10:27:04Z</time>
      </trkpt>
      <trkpt lat="46.07425" lon="6.78183">
        <ele>1981.8</ele>
        <time>2026-06-26T10:27:05Z</time>
      </trkpt>
      <trkpt lat="46.07425" lon="6.78183">
        <ele>1981.8</ele>
        <time>2026-06-26T10:27:06Z</time>
      </trkpt>
      <trkpt lat="46.07425" lon="6.78184">
        <ele>1981.8</ele>
        <time>2026-06-26T10:27:07Z</time>
      </trkpt>
      <trkpt lat="46.07425" lon="6.78184">
        <ele>1981.8</ele>
        <time>2026-06-26T10:27:08Z</time>
      </trkpt>
      <trkpt lat="46.07425" lon="6.78184">
        <ele>1981.8</ele>
        <time>2026-06-26T10:27:09Z</time>
      </trkpt>
      <trkpt lat="46.07426" lon="6.78184">
        <ele>1981.8</ele>
        <time>2026-06-26T10:27:10Z</time>
      </trkpt>
      <trkpt lat="46.07426" lon="6.78183">
        <ele>1981.8</ele>
        <time>2026-06-26T10:27:11Z</time>
      </trkpt>
      <trkpt lat="46.07426" lon="6.78183">
        <ele>1981.7</ele>
        <time>2026-06-26T10:27:12Z</time>
      </trkpt>
      <trkpt lat="46.07426" lon="6.78182">
        <ele>1981.8</ele>
        <time>2026-06-26T10:27:13Z</time>
      </trkpt>
      <trkpt lat="46.07426" lon="6.78182">
        <ele>1981.8</ele>
        <time>2026-06-26T10:27:14Z</time>
      </trkpt>
      <trkpt lat="46.07426" lon="6.78182">
        <ele>1981.8</ele>
        <time>2026-06-26T10:27:15Z</time>
      </trkpt>
      <trkpt lat="46.07426" lon="6.78182">
        <ele>1981.8</ele>
        <time>2026-06-26T10:27:16Z</time>
      </trkpt>
      <trkpt lat="46.07427" lon="6.78182">
        <ele>1981.9</ele>
        <time>2026-06-26T10:27:17Z</time>
      </trkpt>
      <trkpt lat="46.07426" lon="6.78182">
        <ele>1981.8</ele>
        <time>2026-06-26T10:27:18Z</time>
      </trkpt>
      <trkpt lat="46.07426" lon="6.78182">
        <ele>1981.8</ele>
        <time>2026-06-26T10:27:19Z</time>
      </trkpt>
      <trkpt lat="46.07426" lon="6.78182">
        <ele>1981.9</ele>
        <time>2026-06-26T10:27:20Z</time>
      </trkpt>
      <trkpt lat="46.07426" lon="6.78182">
        <ele>1981.9</ele>
        <time>2026-06-26T10:27:21Z</time>
      </trkpt>
      <trkpt lat="46.07426" lon="6.78182">
        <ele>1981.8</ele>
        <time>2026-06-26T10:27:22Z</time>
      </trkpt>
      <trkpt lat="46.07426" lon="6.78182">
        <ele>1981.8</ele>
        <time>2026-06-26T10:27:23Z</time>
      </trkpt>
      <trkpt lat="46.07426" lon="6.78182">
        <ele>1981.8</ele>
        <time>2026-06-26T10:27:24Z</time>
      </trkpt>
      <trkpt lat="46.07426" lon="6.78182">
        <ele>1981.8</ele>
        <time>2026-06-26T10:27:25Z</time>
      </trkpt>
      <trkpt lat="46.07426" lon="6.78182">
        <ele>1981.8</ele>
        <time>2026-06-26T10:27:26Z</time>
      </trkpt>
      <trkpt lat="46.07426" lon="6.78182">
        <ele>1981.8</ele>
        <time>2026-06-26T10:27:27Z</time>
      </trkpt>
      <trkpt lat="46.07426" lon="6.78182">
        <ele>1981.7</ele>
        <time>2026-06-26T10:27:28Z</time>
      </trkpt>
      <trkpt lat="46.07426" lon="6.78182">
        <ele>1981.5</ele>
        <time>2026-06-26T10:27:29Z</time>
      </trkpt>
      <trkpt lat="46.07427" lon="6.78182">
        <ele>1981.4</ele>
        <time>2026-06-26T10:27:30Z</time>
      </trkpt>
      <trkpt lat="46.07427" lon="6.78181">
        <ele>1981.3</ele>
        <time>2026-06-26T10:27:31Z</time>
      </trkpt>
      <trkpt lat="46.07427" lon="6.7818">
        <ele>1981.3</ele>
        <time>2026-06-26T10:27:32Z</time>
      </trkpt>
      <trkpt lat="46.07427" lon="6.7818">
        <ele>1981.3</ele>
        <time>2026-06-26T10:27:33Z</time>
      </trkpt>
      <trkpt lat="46.07427" lon="6.7818">
        <ele>1981.3</ele>
        <time>2026-06-26T10:27:34Z</time>
      </trkpt>
      <trkpt lat="46.07427" lon="6.7818">
        <ele>1981.2</ele>
        <time>2026-06-26T10:27:35Z</time>
      </trkpt>
      <trkpt lat="46.07427" lon="6.78179">
        <ele>1981.1</ele>
        <time>2026-06-26T10:27:36Z</time>
      </trkpt>
      <trkpt lat="46.07427" lon="6.78179">
        <ele>1981.1</ele>
        <time>2026-06-26T10:27:37Z</time>
      </trkpt>
      <trkpt lat="46.07427" lon="6.78179">
        <ele>1981</ele>
        <time>2026-06-26T10:27:38Z</time>
      </trkpt>
      <trkpt lat="46.07427" lon="6.78179">
        <ele>1981</ele>
        <time>2026-06-26T10:27:39Z</time>
      </trkpt>
      <trkpt lat="46.07427" lon="6.78179">
        <ele>1981</ele>
        <time>2026-06-26T10:27:40Z</time>
      </trkpt>
      <trkpt lat="46.07427" lon="6.78179">
        <ele>1980.9</ele>
        <time>2026-06-26T10:27:41Z</time>
      </trkpt>
      <trkpt lat="46.07427" lon="6.78179">
        <ele>1980.9</ele>
        <time>2026-06-26T10:27:42Z</time>
      </trkpt>
      <trkpt lat="46.07427" lon="6.78179">
        <ele>1980.9</ele>
        <time>2026-06-26T10:27:43Z</time>
      </trkpt>
      <trkpt lat="46.07427" lon="6.78179">
        <ele>1980.9</ele>
        <time>2026-06-26T10:27:44Z</time>
      </trkpt>
      <trkpt lat="46.07427" lon="6.78179">
        <ele>1980.8</ele>
        <time>2026-06-26T10:27:45Z</time>
      </trkpt>
      <trkpt lat="46.07427" lon="6.78179">
        <ele>1980.8</ele>
        <time>2026-06-26T10:27:46Z</time>
      </trkpt>
      <trkpt lat="46.07427" lon="6.78179">
        <ele>1980.7</ele>
        <time>2026-06-26T10:27:47Z</time>
      </trkpt>
      <trkpt lat="46.07427" lon="6.78178">
        <ele>1980.7</ele>
        <time>2026-06-26T10:27:48Z</time>
      </trkpt>
      <trkpt lat="46.07427" lon="6.78178">
        <ele>1980.7</ele>
        <time>2026-06-26T10:27:49Z</time>
      </trkpt>
      <trkpt lat="46.07427" lon="6.78178">
        <ele>1980.8</ele>
        <time>2026-06-26T10:27:50Z</time>
      </trkpt>
      <trkpt lat="46.07427" lon="6.78178">
        <ele>1980.8</ele>
        <time>2026-06-26T10:27:51Z</time>
      </trkpt>
      <trkpt lat="46.07427" lon="6.78178">
        <ele>1980.9</ele>
        <time>2026-06-26T10:27:52Z</time>
      </trkpt>
      <trkpt lat="46.07427" lon="6.78177">
        <ele>1981</ele>
        <time>2026-06-26T10:27:53Z</time>
      </trkpt>
      <trkpt lat="46.07427" lon="6.78177">
        <ele>1981.1</ele>
        <time>2026-06-26T10:27:54Z</time>
      </trkpt>
      <trkpt lat="46.07427" lon="6.78177">
        <ele>1981</ele>
        <time>2026-06-26T10:27:55Z</time>
      </trkpt>
      <trkpt lat="46.07426" lon="6.78177">
        <ele>1981</ele>
        <time>2026-06-26T10:27:56Z</time>
      </trkpt>
      <trkpt lat="46.07426" lon="6.78177">
        <ele>1980.9</ele>
        <time>2026-06-26T10:27:57Z</time>
      </trkpt>
      <trkpt lat="46.07426" lon="6.78177">
        <ele>1980.9</ele>
        <time>2026-06-26T10:27:58Z</time>
      </trkpt>
      <trkpt lat="46.07426" lon="6.78177">
        <ele>1980.9</ele>
        <time>2026-06-26T10:27:59Z</time>
      </trkpt>
      <trkpt lat="46.07426" lon="6.78177">
        <ele>1980.8</ele>
        <time>2026-06-26T10:28:00Z</time>
      </trkpt>
      <trkpt lat="46.07426" lon="6.78177">
        <ele>1980.8</ele>
        <time>2026-06-26T10:28:01Z</time>
      </trkpt>
      <trkpt lat="46.07426" lon="6.78177">
        <ele>1980.8</ele>
        <time>2026-06-26T10:28:02Z</time>
      </trkpt>
      <trkpt lat="46.07426" lon="6.78177">
        <ele>1980.9</ele>
        <time>2026-06-26T10:28:03Z</time>
      </trkpt>
      <trkpt lat="46.07426" lon="6.78177">
        <ele>1980.9</ele>
        <time>2026-06-26T10:28:04Z</time>
      </trkpt>
      <trkpt lat="46.07426" lon="6.78177">
        <ele>1980.9</ele>
        <time>2026-06-26T10:28:05Z</time>
      </trkpt>
      <trkpt lat="46.07426" lon="6.78176">
        <ele>1981</ele>
        <time>2026-06-26T10:28:06Z</time>
      </trkpt>
      <trkpt lat="46.07426" lon="6.78176">
        <ele>1981</ele>
        <time>2026-06-26T10:28:07Z</time>
      </trkpt>
      <trkpt lat="46.07426" lon="6.78176">
        <ele>1980.9</ele>
        <time>2026-06-26T10:28:08Z</time>
      </trkpt>
      <trkpt lat="46.07426" lon="6.78176">
        <ele>1980.8</ele>
        <time>2026-06-26T10:28:09Z</time>
      </trkpt>
      <trkpt lat="46.07426" lon="6.78176">
        <ele>1980.9</ele>
        <time>2026-06-26T10:28:10Z</time>
      </trkpt>
      <trkpt lat="46.07426" lon="6.78176">
        <ele>1980.9</ele>
        <time>2026-06-26T10:28:11Z</time>
      </trkpt>
      <trkpt lat="46.07426" lon="6.78176">
        <ele>1980.9</ele>
        <time>2026-06-26T10:28:12Z</time>
      </trkpt>
      <trkpt lat="46.07426" lon="6.78175">
        <ele>1980.9</ele>
        <time>2026-06-26T10:28:13Z</time>
      </trkpt>
      <trkpt lat="46.07426" lon="6.78175">
        <ele>1980.9</ele>
        <time>2026-06-26T10:28:14Z</time>
      </trkpt>
      <trkpt lat="46.07426" lon="6.78175">
        <ele>1981</ele>
        <time>2026-06-26T10:28:15Z</time>
      </trkpt>
      <trkpt lat="46.07426" lon="6.78175">
        <ele>1981</ele>
        <time>2026-06-26T10:28:16Z</time>
      </trkpt>
      <trkpt lat="46.07426" lon="6.78175">
        <ele>1981</ele>
        <time>2026-06-26T10:28:17Z</time>
      </trkpt>
      <trkpt lat="46.07426" lon="6.78175">
        <ele>1981</ele>
        <time>2026-06-26T10:28:18Z</time>
      </trkpt>
      <trkpt lat="46.07426" lon="6.78175">
        <ele>1981.1</ele>
        <time>2026-06-26T10:28:19Z</time>
      </trkpt>
      <trkpt lat="46.07426" lon="6.78175">
        <ele>1981.1</ele>
        <time>2026-06-26T10:28:20Z</time>
      </trkpt>
      <trkpt lat="46.07426" lon="6.78174">
        <ele>1981.2</ele>
        <time>2026-06-26T10:28:21Z</time>
      </trkpt>
      <trkpt lat="46.07426" lon="6.78174">
        <ele>1981.2</ele>
        <time>2026-06-26T10:28:22Z</time>
      </trkpt>
      <trkpt lat="46.07426" lon="6.78174">
        <ele>1981.3</ele>
        <time>2026-06-26T10:28:23Z</time>
      </trkpt>
      <trkpt lat="46.07426" lon="6.78174">
        <ele>1981.3</ele>
        <time>2026-06-26T10:28:24Z</time>
      </trkpt>
      <trkpt lat="46.07426" lon="6.78174">
        <ele>1981.4</ele>
        <time>2026-06-26T10:28:25Z</time>
      </trkpt>
      <trkpt lat="46.07426" lon="6.78174">
        <ele>1981.4</ele>
        <time>2026-06-26T10:28:26Z</time>
      </trkpt>
      <trkpt lat="46.07426" lon="6.78175">
        <ele>1981.4</ele>
        <time>2026-06-26T10:28:27Z</time>
      </trkpt>
      <trkpt lat="46.07425" lon="6.78174">
        <ele>1981.3</ele>
        <time>2026-06-26T10:28:28Z</time>
      </trkpt>
      <trkpt lat="46.07425" lon="6.78175">
        <ele>1981.3</ele>
        <time>2026-06-26T10:28:29Z</time>
      </trkpt>
      <trkpt lat="46.07425" lon="6.78175">
        <ele>1981.3</ele>
        <time>2026-06-26T10:28:30Z</time>
      </trkpt>
      <trkpt lat="46.07425" lon="6.78175">
        <ele>1981.3</ele>
        <time>2026-06-26T10:28:31Z</time>
      </trkpt>
      <trkpt lat="46.07424" lon="6.78175">
        <ele>1981.3</ele>
        <time>2026-06-26T10:28:32Z</time>
      </trkpt>
      <trkpt lat="46.07424" lon="6.78175">
        <ele>1981.5</ele>
        <time>2026-06-26T10:28:33Z</time>
      </trkpt>
      <trkpt lat="46.07424" lon="6.78175">
        <ele>1981.5</ele>
        <time>2026-06-26T10:28:34Z</time>
      </trkpt>
      <trkpt lat="46.07425" lon="6.78175">
        <ele>1981.4</ele>
        <time>2026-06-26T10:28:35Z</time>
      </trkpt>
      <trkpt lat="46.07424" lon="6.78175">
        <ele>1981.3</ele>
        <time>2026-06-26T10:28:36Z</time>
      </trkpt>
      <trkpt lat="46.07425" lon="6.78175">
        <ele>1981.4</ele>
        <time>2026-06-26T10:28:37Z</time>
      </trkpt>
      <trkpt lat="46.07425" lon="6.78176">
        <ele>1981.5</ele>
        <time>2026-06-26T10:28:38Z</time>
      </trkpt>
      <trkpt lat="46.07425" lon="6.78176">
        <ele>1981.6</ele>
        <time>2026-06-26T10:28:39Z</time>
      </trkpt>
      <trkpt lat="46.07424" lon="6.78176">
        <ele>1981.7</ele>
        <time>2026-06-26T10:28:40Z</time>
      </trkpt>
      <trkpt lat="46.07425" lon="6.78176">
        <ele>1981.7</ele>
        <time>2026-06-26T10:28:41Z</time>
      </trkpt>
      <trkpt lat="46.07425" lon="6.78176">
        <ele>1981.8</ele>
        <time>2026-06-26T10:28:42Z</time>
      </trkpt>
      <trkpt lat="46.07424" lon="6.78176">
        <ele>1981.8</ele>
        <time>2026-06-26T10:28:43Z</time>
      </trkpt>
      <trkpt lat="46.07424" lon="6.78176">
        <ele>1981.8</ele>
        <time>2026-06-26T10:28:44Z</time>
      </trkpt>
      <trkpt lat="46.07425" lon="6.78177">
        <ele>1981.7</ele>
        <time>2026-06-26T10:28:45Z</time>
      </trkpt>
      <trkpt lat="46.07425" lon="6.78177">
        <ele>1981.7</ele>
        <time>2026-06-26T10:28:46Z</time>
      </trkpt>
      <trkpt lat="46.07425" lon="6.78177">
        <ele>1981.7</ele>
        <time>2026-06-26T10:28:47Z</time>
      </trkpt>
      <trkpt lat="46.07425" lon="6.78177">
        <ele>1981.8</ele>
        <time>2026-06-26T10:28:48Z</time>
      </trkpt>
      <trkpt lat="46.07425" lon="6.78176">
        <ele>1981.8</ele>
        <time>2026-06-26T10:28:49Z</time>
      </trkpt>
      <trkpt lat="46.07425" lon="6.78177">
        <ele>1981.9</ele>
        <time>2026-06-26T10:28:50Z</time>
      </trkpt>
      <trkpt lat="46.07425" lon="6.78176">
        <ele>1981.9</ele>
        <time>2026-06-26T10:28:51Z</time>
      </trkpt>
      <trkpt lat="46.07425" lon="6.78176">
        <ele>1981.9</ele>
        <time>2026-06-26T10:28:52Z</time>
      </trkpt>
      <trkpt lat="46.07424" lon="6.78176">
        <ele>1981.9</ele>
        <time>2026-06-26T10:28:53Z</time>
      </trkpt>
      <trkpt lat="46.07425" lon="6.78177">
        <ele>1981.9</ele>
        <time>2026-06-26T10:28:54Z</time>
      </trkpt>
      <trkpt lat="46.07425" lon="6.78176">
        <ele>1981.9</ele>
        <time>2026-06-26T10:28:55Z</time>
      </trkpt>
      <trkpt lat="46.07425" lon="6.78176">
        <ele>1982</ele>
        <time>2026-06-26T10:28:56Z</time>
      </trkpt>
      <trkpt lat="46.07424" lon="6.78176">
        <ele>1981.9</ele>
        <time>2026-06-26T10:28:57Z</time>
      </trkpt>
      <trkpt lat="46.07424" lon="6.78176">
        <ele>1981.8</ele>
        <time>2026-06-26T10:28:58Z</time>
      </trkpt>
      <trkpt lat="46.07424" lon="6.78176">
        <ele>1981.7</ele>
        <time>2026-06-26T10:28:59Z</time>
      </trkpt>
      <trkpt lat="46.07423" lon="6.78176">
        <ele>1981.6</ele>
        <time>2026-06-26T10:29:00Z</time>
      </trkpt>
      <trkpt lat="46.07423" lon="6.78176">
        <ele>1981.6</ele>
        <time>2026-06-26T10:29:01Z</time>
      </trkpt>
      <trkpt lat="46.07423" lon="6.78176">
        <ele>1981.5</ele>
        <time>2026-06-26T10:29:02Z</time>
      </trkpt>
      <trkpt lat="46.07423" lon="6.78176">
        <ele>1981.4</ele>
        <time>2026-06-26T10:29:03Z</time>
      </trkpt>
      <trkpt lat="46.07423" lon="6.78176">
        <ele>1981.3</ele>
        <time>2026-06-26T10:29:04Z</time>
      </trkpt>
      <trkpt lat="46.07423" lon="6.78176">
        <ele>1981.3</ele>
        <time>2026-06-26T10:29:05Z</time>
      </trkpt>
      <trkpt lat="46.07423" lon="6.78176">
        <ele>1981.1</ele>
        <time>2026-06-26T10:29:06Z</time>
      </trkpt>
      <trkpt lat="46.07423" lon="6.78176">
        <ele>1981</ele>
        <time>2026-06-26T10:29:07Z</time>
      </trkpt>
      <trkpt lat="46.07423" lon="6.78177">
        <ele>1980.9</ele>
        <time>2026-06-26T10:29:08Z</time>
      </trkpt>
      <trkpt lat="46.07423" lon="6.78177">
        <ele>1980.8</ele>
        <time>2026-06-26T10:29:09Z</time>
      </trkpt>
      <trkpt lat="46.07424" lon="6.78176">
        <ele>1980.7</ele>
        <time>2026-06-26T10:29:10Z</time>
      </trkpt>
      <trkpt lat="46.07424" lon="6.78176">
        <ele>1980.7</ele>
        <time>2026-06-26T10:29:11Z</time>
      </trkpt>
      <trkpt lat="46.07424" lon="6.78176">
        <ele>1980.6</ele>
        <time>2026-06-26T10:29:12Z</time>
      </trkpt>
      <trkpt lat="46.07424" lon="6.78175">
        <ele>1980.5</ele>
        <time>2026-06-26T10:29:13Z</time>
      </trkpt>
      <trkpt lat="46.07423" lon="6.78175">
        <ele>1980.4</ele>
        <time>2026-06-26T10:29:14Z</time>
      </trkpt>
      <trkpt lat="46.07423" lon="6.78175">
        <ele>1980.4</ele>
        <time>2026-06-26T10:29:15Z</time>
      </trkpt>
      <trkpt lat="46.07423" lon="6.78175">
        <ele>1980.3</ele>
        <time>2026-06-26T10:29:16Z</time>
      </trkpt>
      <trkpt lat="46.07423" lon="6.78175">
        <ele>1980.3</ele>
        <time>2026-06-26T10:29:17Z</time>
      </trkpt>
      <trkpt lat="46.07423" lon="6.78175">
        <ele>1980.2</ele>
        <time>2026-06-26T10:29:18Z</time>
      </trkpt>
      <trkpt lat="46.07423" lon="6.78174">
        <ele>1980</ele>
        <time>2026-06-26T10:29:19Z</time>
      </trkpt>
      <trkpt lat="46.07423" lon="6.78174">
        <ele>1979.9</ele>
        <time>2026-06-26T10:29:20Z</time>
      </trkpt>
      <trkpt lat="46.07423" lon="6.78174">
        <ele>1979.8</ele>
        <time>2026-06-26T10:29:21Z</time>
      </trkpt>
      <trkpt lat="46.07423" lon="6.78174">
        <ele>1979.8</ele>
        <time>2026-06-26T10:29:22Z</time>
      </trkpt>
      <trkpt lat="46.07423" lon="6.78173">
        <ele>1979.7</ele>
        <time>2026-06-26T10:29:23Z</time>
      </trkpt>
      <trkpt lat="46.07423" lon="6.78174">
        <ele>1979.6</ele>
        <time>2026-06-26T10:29:24Z</time>
      </trkpt>
      <trkpt lat="46.07423" lon="6.78173">
        <ele>1979.5</ele>
        <time>2026-06-26T10:29:25Z</time>
      </trkpt>
      <trkpt lat="46.07423" lon="6.78173">
        <ele>1979.5</ele>
        <time>2026-06-26T10:29:26Z</time>
      </trkpt>
      <trkpt lat="46.07423" lon="6.78173">
        <ele>1979.4</ele>
        <time>2026-06-26T10:29:27Z</time>
      </trkpt>
      <trkpt lat="46.07423" lon="6.78173">
        <ele>1979.4</ele>
        <time>2026-06-26T10:29:28Z</time>
      </trkpt>
      <trkpt lat="46.07423" lon="6.78173">
        <ele>1979.4</ele>
        <time>2026-06-26T10:29:29Z</time>
      </trkpt>
      <trkpt lat="46.07423" lon="6.78173">
        <ele>1979.4</ele>
        <time>2026-06-26T10:29:30Z</time>
      </trkpt>
      <trkpt lat="46.07423" lon="6.78172">
        <ele>1979.3</ele>
        <time>2026-06-26T10:29:31Z</time>
      </trkpt>
      <trkpt lat="46.07423" lon="6.78171">
        <ele>1979.2</ele>
        <time>2026-06-26T10:29:32Z</time>
      </trkpt>
      <trkpt lat="46.07423" lon="6.78171">
        <ele>1979.2</ele>
        <time>2026-06-26T10:29:33Z</time>
      </trkpt>
      <trkpt lat="46.07422" lon="6.7817">
        <ele>1979.1</ele>
        <time>2026-06-26T10:29:34Z</time>
      </trkpt>
      <trkpt lat="46.07422" lon="6.78171">
        <ele>1979</ele>
        <time>2026-06-26T10:29:35Z</time>
      </trkpt>
      <trkpt lat="46.07422" lon="6.78171">
        <ele>1978.9</ele>
        <time>2026-06-26T10:29:36Z</time>
      </trkpt>
      <trkpt lat="46.07422" lon="6.7817">
        <ele>1978.9</ele>
        <time>2026-06-26T10:29:37Z</time>
      </trkpt>
      <trkpt lat="46.07421" lon="6.7817">
        <ele>1978.9</ele>
        <time>2026-06-26T10:29:38Z</time>
      </trkpt>
      <trkpt lat="46.07421" lon="6.7817">
        <ele>1978.8</ele>
        <time>2026-06-26T10:29:39Z</time>
      </trkpt>
      <trkpt lat="46.07421" lon="6.7817">
        <ele>1978.7</ele>
        <time>2026-06-26T10:29:40Z</time>
      </trkpt>
      <trkpt lat="46.07421" lon="6.78169">
        <ele>1978.6</ele>
        <time>2026-06-26T10:29:41Z</time>
      </trkpt>
      <trkpt lat="46.07421" lon="6.78169">
        <ele>1978.6</ele>
        <time>2026-06-26T10:29:42Z</time>
      </trkpt>
      <trkpt lat="46.07421" lon="6.78169">
        <ele>1978.6</ele>
        <time>2026-06-26T10:29:43Z</time>
      </trkpt>
      <trkpt lat="46.07421" lon="6.78169">
        <ele>1978.6</ele>
        <time>2026-06-26T10:29:44Z</time>
      </trkpt>
      <trkpt lat="46.07421" lon="6.78169">
        <ele>1978.6</ele>
        <time>2026-06-26T10:29:45Z</time>
      </trkpt>
      <trkpt lat="46.07421" lon="6.78169">
        <ele>1978.6</ele>
        <time>2026-06-26T10:29:46Z</time>
      </trkpt>
      <trkpt lat="46.07421" lon="6.78169">
        <ele>1978.6</ele>
        <time>2026-06-26T10:29:47Z</time>
      </trkpt>
      <trkpt lat="46.07421" lon="6.78169">
        <ele>1978.5</ele>
        <time>2026-06-26T10:29:48Z</time>
      </trkpt>
      <trkpt lat="46.0742" lon="6.78168">
        <ele>1978.5</ele>
        <time>2026-06-26T10:29:49Z</time>
      </trkpt>
      <trkpt lat="46.0742" lon="6.78168">
        <ele>1978.4</ele>
        <time>2026-06-26T10:29:50Z</time>
      </trkpt>
      <trkpt lat="46.0742" lon="6.78168">
        <ele>1978.4</ele>
        <time>2026-06-26T10:29:51Z</time>
      </trkpt>
      <trkpt lat="46.0742" lon="6.78168">
        <ele>1978.4</ele>
        <time>2026-06-26T10:29:52Z</time>
      </trkpt>
      <trkpt lat="46.0742" lon="6.78168">
        <ele>1978.4</ele>
        <time>2026-06-26T10:29:53Z</time>
      </trkpt>
      <trkpt lat="46.0742" lon="6.78168">
        <ele>1978.4</ele>
        <time>2026-06-26T10:29:54Z</time>
      </trkpt>
      <trkpt lat="46.0742" lon="6.78168">
        <ele>1978.4</ele>
        <time>2026-06-26T10:29:55Z</time>
      </trkpt>
      <trkpt lat="46.0742" lon="6.78168">
        <ele>1978.3</ele>
        <time>2026-06-26T10:29:56Z</time>
      </trkpt>
      <trkpt lat="46.0742" lon="6.78168">
        <ele>1978.3</ele>
        <time>2026-06-26T10:29:57Z</time>
      </trkpt>
      <trkpt lat="46.0742" lon="6.78168">
        <ele>1978.3</ele>
        <time>2026-06-26T10:29:58Z</time>
      </trkpt>
      <trkpt lat="46.0742" lon="6.78168">
        <ele>1978.3</ele>
        <time>2026-06-26T10:29:59Z</time>
      </trkpt>
      <trkpt lat="46.07419" lon="6.78167">
        <ele>1978.3</ele>
        <time>2026-06-26T10:30:00Z</time>
      </trkpt>
      <trkpt lat="46.07419" lon="6.78167">
        <ele>1978.3</ele>
        <time>2026-06-26T10:30:01Z</time>
      </trkpt>
      <trkpt lat="46.07419" lon="6.78167">
        <ele>1978.3</ele>
        <time>2026-06-26T10:30:02Z</time>
      </trkpt>
      <trkpt lat="46.07419" lon="6.78168">
        <ele>1978.3</ele>
        <time>2026-06-26T10:30:03Z</time>
      </trkpt>
      <trkpt lat="46.07418" lon="6.78168">
        <ele>1978.3</ele>
        <time>2026-06-26T10:30:04Z</time>
      </trkpt>
      <trkpt lat="46.07418" lon="6.78169">
        <ele>1978.3</ele>
        <time>2026-06-26T10:30:05Z</time>
      </trkpt>
      <trkpt lat="46.07418" lon="6.78169">
        <ele>1978.2</ele>
        <time>2026-06-26T10:30:06Z</time>
      </trkpt>
      <trkpt lat="46.07418" lon="6.7817">
        <ele>1978.2</ele>
        <time>2026-06-26T10:30:07Z</time>
      </trkpt>
      <trkpt lat="46.07418" lon="6.7817">
        <ele>1978.2</ele>
        <time>2026-06-26T10:30:08Z</time>
      </trkpt>
      <trkpt lat="46.07418" lon="6.78171">
        <ele>1978.1</ele>
        <time>2026-06-26T10:30:09Z</time>
      </trkpt>
      <trkpt lat="46.07418" lon="6.78172">
        <ele>1978</ele>
        <time>2026-06-26T10:30:10Z</time>
      </trkpt>
      <trkpt lat="46.07418" lon="6.78172">
        <ele>1977.9</ele>
        <time>2026-06-26T10:30:11Z</time>
      </trkpt>
      <trkpt lat="46.07418" lon="6.78172">
        <ele>1977.8</ele>
        <time>2026-06-26T10:30:12Z</time>
      </trkpt>
      <trkpt lat="46.07418" lon="6.78172">
        <ele>1977.8</ele>
        <time>2026-06-26T10:30:13Z</time>
      </trkpt>
      <trkpt lat="46.07418" lon="6.78173">
        <ele>1977.8</ele>
        <time>2026-06-26T10:30:14Z</time>
      </trkpt>
      <trkpt lat="46.07418" lon="6.78173">
        <ele>1977.8</ele>
        <time>2026-06-26T10:30:15Z</time>
      </trkpt>
      <trkpt lat="46.07418" lon="6.78173">
        <ele>1977.8</ele>
        <time>2026-06-26T10:30:16Z</time>
      </trkpt>
      <trkpt lat="46.07418" lon="6.78173">
        <ele>1977.9</ele>
        <time>2026-06-26T10:30:17Z</time>
      </trkpt>
      <trkpt lat="46.07418" lon="6.78172">
        <ele>1977.9</ele>
        <time>2026-06-26T10:30:18Z</time>
      </trkpt>
      <trkpt lat="46.07418" lon="6.78172">
        <ele>1977.8</ele>
        <time>2026-06-26T10:30:19Z</time>
      </trkpt>
      <trkpt lat="46.07418" lon="6.78172">
        <ele>1977.7</ele>
        <time>2026-06-26T10:30:20Z</time>
      </trkpt>
      <trkpt lat="46.07418" lon="6.78172">
        <ele>1977.7</ele>
        <time>2026-06-26T10:30:21Z</time>
      </trkpt>
      <trkpt lat="46.07418" lon="6.78172">
        <ele>1977.6</ele>
        <time>2026-06-26T10:30:22Z</time>
      </trkpt>
      <trkpt lat="46.07418" lon="6.78172">
        <ele>1977.7</ele>
        <time>2026-06-26T10:30:23Z</time>
      </trkpt>
      <trkpt lat="46.07418" lon="6.78172">
        <ele>1977.7</ele>
        <time>2026-06-26T10:30:24Z</time>
      </trkpt>
      <trkpt lat="46.07418" lon="6.78172">
        <ele>1977.7</ele>
        <time>2026-06-26T10:30:25Z</time>
      </trkpt>
      <trkpt lat="46.07419" lon="6.78172">
        <ele>1977.6</ele>
        <time>2026-06-26T10:30:26Z</time>
      </trkpt>
      <trkpt lat="46.07419" lon="6.78172">
        <ele>1977.5</ele>
        <time>2026-06-26T10:30:27Z</time>
      </trkpt>
      <trkpt lat="46.07419" lon="6.78171">
        <ele>1977.6</ele>
        <time>2026-06-26T10:30:28Z</time>
      </trkpt>
      <trkpt lat="46.07419" lon="6.78171">
        <ele>1977.6</ele>
        <time>2026-06-26T10:30:29Z</time>
      </trkpt>
      <trkpt lat="46.07419" lon="6.78171">
        <ele>1977.6</ele>
        <time>2026-06-26T10:30:30Z</time>
      </trkpt>
      <trkpt lat="46.07419" lon="6.78171">
        <ele>1977.7</ele>
        <time>2026-06-26T10:30:31Z</time>
      </trkpt>
      <trkpt lat="46.07419" lon="6.78171">
        <ele>1977.7</ele>
        <time>2026-06-26T10:30:32Z</time>
      </trkpt>
      <trkpt lat="46.07418" lon="6.78171">
        <ele>1977.7</ele>
        <time>2026-06-26T10:30:33Z</time>
      </trkpt>
      <trkpt lat="46.07418" lon="6.78171">
        <ele>1977.8</ele>
        <time>2026-06-26T10:30:34Z</time>
      </trkpt>
      <trkpt lat="46.07417" lon="6.78171">
        <ele>1977.8</ele>
        <time>2026-06-26T10:30:35Z</time>
      </trkpt>
      <trkpt lat="46.07417" lon="6.78171">
        <ele>1977.7</ele>
        <time>2026-06-26T10:30:36Z</time>
      </trkpt>
      <trkpt lat="46.07417" lon="6.78171">
        <ele>1977.6</ele>
        <time>2026-06-26T10:30:37Z</time>
      </trkpt>
      <trkpt lat="46.07416" lon="6.78171">
        <ele>1977.3</ele>
        <time>2026-06-26T10:30:38Z</time>
      </trkpt>
      <trkpt lat="46.07416" lon="6.78171">
        <ele>1977.2</ele>
        <time>2026-06-26T10:30:39Z</time>
      </trkpt>
      <trkpt lat="46.07415" lon="6.78171">
        <ele>1977</ele>
        <time>2026-06-26T10:30:40Z</time>
      </trkpt>
      <trkpt lat="46.07415" lon="6.78171">
        <ele>1976.8</ele>
        <time>2026-06-26T10:30:41Z</time>
      </trkpt>
      <trkpt lat="46.07415" lon="6.7817">
        <ele>1976.8</ele>
        <time>2026-06-26T10:30:42Z</time>
      </trkpt>
      <trkpt lat="46.07415" lon="6.7817">
        <ele>1976.8</ele>
        <time>2026-06-26T10:30:43Z</time>
      </trkpt>
      <trkpt lat="46.07414" lon="6.78169">
        <ele>1976.8</ele>
        <time>2026-06-26T10:30:44Z</time>
      </trkpt>
      <trkpt lat="46.07414" lon="6.78169">
        <ele>1976.6</ele>
        <time>2026-06-26T10:30:45Z</time>
      </trkpt>
      <trkpt lat="46.07413" lon="6.78169">
        <ele>1976.4</ele>
        <time>2026-06-26T10:30:46Z</time>
      </trkpt>
      <trkpt lat="46.07413" lon="6.78169">
        <ele>1976.1</ele>
        <time>2026-06-26T10:30:47Z</time>
      </trkpt>
      <trkpt lat="46.07413" lon="6.78169">
        <ele>1975.9</ele>
        <time>2026-06-26T10:30:48Z</time>
      </trkpt>
      <trkpt lat="46.07413" lon="6.78169">
        <ele>1975.8</ele>
        <time>2026-06-26T10:30:49Z</time>
      </trkpt>
      <trkpt lat="46.07412" lon="6.78168">
        <ele>1975.6</ele>
        <time>2026-06-26T10:30:50Z</time>
      </trkpt>
      <trkpt lat="46.07412" lon="6.78168">
        <ele>1975.4</ele>
        <time>2026-06-26T10:30:51Z</time>
      </trkpt>
      <trkpt lat="46.07412" lon="6.78168">
        <ele>1975.2</ele>
        <time>2026-06-26T10:30:52Z</time>
      </trkpt>
      <trkpt lat="46.07411" lon="6.78168">
        <ele>1975.1</ele>
        <time>2026-06-26T10:30:53Z</time>
      </trkpt>
      <trkpt lat="46.0741" lon="6.78168">
        <ele>1975</ele>
        <time>2026-06-26T10:30:54Z</time>
      </trkpt>
      <trkpt lat="46.0741" lon="6.78168">
        <ele>1974.8</ele>
        <time>2026-06-26T10:30:55Z</time>
      </trkpt>
      <trkpt lat="46.07409" lon="6.78167">
        <ele>1974.7</ele>
        <time>2026-06-26T10:30:56Z</time>
      </trkpt>
      <trkpt lat="46.07409" lon="6.78167">
        <ele>1974.6</ele>
        <time>2026-06-26T10:30:57Z</time>
      </trkpt>
      <trkpt lat="46.07408" lon="6.78167">
        <ele>1974.5</ele>
        <time>2026-06-26T10:30:58Z</time>
      </trkpt>
      <trkpt lat="46.07408" lon="6.78167">
        <ele>1974.3</ele>
        <time>2026-06-26T10:30:59Z</time>
      </trkpt>
      <trkpt lat="46.07408" lon="6.78167">
        <ele>1974.1</ele>
        <time>2026-06-26T10:31:00Z</time>
      </trkpt>
      <trkpt lat="46.07407" lon="6.78167">
        <ele>1973.9</ele>
        <time>2026-06-26T10:31:01Z</time>
      </trkpt>
      <trkpt lat="46.07407" lon="6.78166">
        <ele>1973.7</ele>
        <time>2026-06-26T10:31:02Z</time>
      </trkpt>
      <trkpt lat="46.07407" lon="6.78166">
        <ele>1973.5</ele>
        <time>2026-06-26T10:31:03Z</time>
      </trkpt>
      <trkpt lat="46.07406" lon="6.78165">
        <ele>1973.3</ele>
        <time>2026-06-26T10:31:04Z</time>
      </trkpt>
      <trkpt lat="46.07405" lon="6.78165">
        <ele>1972.9</ele>
        <time>2026-06-26T10:31:05Z</time>
      </trkpt>
      <trkpt lat="46.07405" lon="6.78165">
        <ele>1972.8</ele>
        <time>2026-06-26T10:31:06Z</time>
      </trkpt>
      <trkpt lat="46.07405" lon="6.78165">
        <ele>1972.7</ele>
        <time>2026-06-26T10:31:07Z</time>
      </trkpt>
      <trkpt lat="46.07405" lon="6.78164">
        <ele>1972.4</ele>
        <time>2026-06-26T10:31:08Z</time>
      </trkpt>
      <trkpt lat="46.07405" lon="6.78164">
        <ele>1972.2</ele>
        <time>2026-06-26T10:31:09Z</time>
      </trkpt>
      <trkpt lat="46.07405" lon="6.78164">
        <ele>1972</ele>
        <time>2026-06-26T10:31:10Z</time>
      </trkpt>
      <trkpt lat="46.07405" lon="6.78163">
        <ele>1971.8</ele>
        <time>2026-06-26T10:31:11Z</time>
      </trkpt>
      <trkpt lat="46.07405" lon="6.78163">
        <ele>1971.5</ele>
        <time>2026-06-26T10:31:12Z</time>
      </trkpt>
      <trkpt lat="46.07405" lon="6.78162">
        <ele>1971.3</ele>
        <time>2026-06-26T10:31:13Z</time>
      </trkpt>
      <trkpt lat="46.07405" lon="6.78162">
        <ele>1971</ele>
        <time>2026-06-26T10:31:14Z</time>
      </trkpt>
      <trkpt lat="46.07405" lon="6.78162">
        <ele>1970.8</ele>
        <time>2026-06-26T10:31:15Z</time>
      </trkpt>
      <trkpt lat="46.07405" lon="6.78161">
        <ele>1970.6</ele>
        <time>2026-06-26T10:31:16Z</time>
      </trkpt>
      <trkpt lat="46.07405" lon="6.78161">
        <ele>1970.3</ele>
        <time>2026-06-26T10:31:17Z</time>
      </trkpt>
      <trkpt lat="46.07405" lon="6.7816">
        <ele>1970.2</ele>
        <time>2026-06-26T10:31:18Z</time>
      </trkpt>
      <trkpt lat="46.07405" lon="6.78159">
        <ele>1970</ele>
        <time>2026-06-26T10:31:19Z</time>
      </trkpt>
      <trkpt lat="46.07405" lon="6.78159">
        <ele>1969.7</ele>
        <time>2026-06-26T10:31:20Z</time>
      </trkpt>
      <trkpt lat="46.07405" lon="6.78158">
        <ele>1969.4</ele>
        <time>2026-06-26T10:31:21Z</time>
      </trkpt>
      <trkpt lat="46.07405" lon="6.78158">
        <ele>1969.3</ele>
        <time>2026-06-26T10:31:22Z</time>
      </trkpt>
      <trkpt lat="46.07405" lon="6.78157">
        <ele>1969.1</ele>
        <time>2026-06-26T10:31:23Z</time>
      </trkpt>
      <trkpt lat="46.07405" lon="6.78157">
        <ele>1968.8</ele>
        <time>2026-06-26T10:31:24Z</time>
      </trkpt>
      <trkpt lat="46.07406" lon="6.78156">
        <ele>1968.6</ele>
        <time>2026-06-26T10:31:25Z</time>
      </trkpt>
      <trkpt lat="46.07406" lon="6.78155">
        <ele>1968.3</ele>
        <time>2026-06-26T10:31:26Z</time>
      </trkpt>
      <trkpt lat="46.07406" lon="6.78155">
        <ele>1968</ele>
        <time>2026-06-26T10:31:27Z</time>
      </trkpt>
      <trkpt lat="46.07405" lon="6.78155">
        <ele>1967.8</ele>
        <time>2026-06-26T10:31:28Z</time>
      </trkpt>
      <trkpt lat="46.07405" lon="6.78154">
        <ele>1967.7</ele>
        <time>2026-06-26T10:31:29Z</time>
      </trkpt>
      <trkpt lat="46.07405" lon="6.78154">
        <ele>1967.5</ele>
        <time>2026-06-26T10:31:30Z</time>
      </trkpt>
      <trkpt lat="46.07404" lon="6.78153">
        <ele>1967.3</ele>
        <time>2026-06-26T10:31:31Z</time>
      </trkpt>
      <trkpt lat="46.07404" lon="6.78152">
        <ele>1967.2</ele>
        <time>2026-06-26T10:31:32Z</time>
      </trkpt>
      <trkpt lat="46.07403" lon="6.78152">
        <ele>1966.9</ele>
        <time>2026-06-26T10:31:33Z</time>
      </trkpt>
      <trkpt lat="46.07403" lon="6.78151">
        <ele>1966.7</ele>
        <time>2026-06-26T10:31:34Z</time>
      </trkpt>
      <trkpt lat="46.07402" lon="6.78151">
        <ele>1966.5</ele>
        <time>2026-06-26T10:31:35Z</time>
      </trkpt>
      <trkpt lat="46.07402" lon="6.7815">
        <ele>1966.3</ele>
        <time>2026-06-26T10:31:36Z</time>
      </trkpt>
      <trkpt lat="46.07402" lon="6.7815">
        <ele>1965.9</ele>
        <time>2026-06-26T10:31:37Z</time>
      </trkpt>
      <trkpt lat="46.07401" lon="6.78149">
        <ele>1965.7</ele>
        <time>2026-06-26T10:31:38Z</time>
      </trkpt>
      <trkpt lat="46.07401" lon="6.78149">
        <ele>1965.4</ele>
        <time>2026-06-26T10:31:39Z</time>
      </trkpt>
      <trkpt lat="46.074" lon="6.78148">
        <ele>1965.2</ele>
        <time>2026-06-26T10:31:40Z</time>
      </trkpt>
      <trkpt lat="46.07401" lon="6.78148">
        <ele>1964.9</ele>
        <time>2026-06-26T10:31:41Z</time>
      </trkpt>
      <trkpt lat="46.07401" lon="6.78147">
        <ele>1964.7</ele>
        <time>2026-06-26T10:31:42Z</time>
      </trkpt>
      <trkpt lat="46.07401" lon="6.78146">
        <ele>1964.6</ele>
        <time>2026-06-26T10:31:43Z</time>
      </trkpt>
      <trkpt lat="46.07402" lon="6.78146">
        <ele>1964.4</ele>
        <time>2026-06-26T10:31:44Z</time>
      </trkpt>
      <trkpt lat="46.07402" lon="6.78145">
        <ele>1964.2</ele>
        <time>2026-06-26T10:31:45Z</time>
      </trkpt>
      <trkpt lat="46.07402" lon="6.78145">
        <ele>1963.9</ele>
        <time>2026-06-26T10:31:46Z</time>
      </trkpt>
      <trkpt lat="46.07403" lon="6.78144">
        <ele>1963.7</ele>
        <time>2026-06-26T10:31:47Z</time>
      </trkpt>
      <trkpt lat="46.07403" lon="6.78143">
        <ele>1963.6</ele>
        <time>2026-06-26T10:31:48Z</time>
      </trkpt>
      <trkpt lat="46.07403" lon="6.78143">
        <ele>1963.4</ele>
        <time>2026-06-26T10:31:49Z</time>
      </trkpt>
      <trkpt lat="46.07403" lon="6.78142">
        <ele>1963.1</ele>
        <time>2026-06-26T10:31:50Z</time>
      </trkpt>
      <trkpt lat="46.07403" lon="6.78142">
        <ele>1963</ele>
        <time>2026-06-26T10:31:51Z</time>
      </trkpt>
      <trkpt lat="46.07403" lon="6.78141">
        <ele>1962.8</ele>
        <time>2026-06-26T10:31:52Z</time>
      </trkpt>
      <trkpt lat="46.07403" lon="6.78141">
        <ele>1962.6</ele>
        <time>2026-06-26T10:31:53Z</time>
      </trkpt>
      <trkpt lat="46.07403" lon="6.78141">
        <ele>1962.4</ele>
        <time>2026-06-26T10:31:54Z</time>
      </trkpt>
      <trkpt lat="46.07403" lon="6.7814">
        <ele>1962.3</ele>
        <time>2026-06-26T10:31:55Z</time>
      </trkpt>
      <trkpt lat="46.07403" lon="6.7814">
        <ele>1962.1</ele>
        <time>2026-06-26T10:31:56Z</time>
      </trkpt>
      <trkpt lat="46.07403" lon="6.78139">
        <ele>1961.9</ele>
        <time>2026-06-26T10:31:57Z</time>
      </trkpt>
      <trkpt lat="46.07403" lon="6.78139">
        <ele>1961.7</ele>
        <time>2026-06-26T10:31:58Z</time>
      </trkpt>
      <trkpt lat="46.07404" lon="6.78138">
        <ele>1961.4</ele>
        <time>2026-06-26T10:31:59Z</time>
      </trkpt>
      <trkpt lat="46.07404" lon="6.78138">
        <ele>1961.2</ele>
        <time>2026-06-26T10:32:00Z</time>
      </trkpt>
      <trkpt lat="46.07404" lon="6.78137">
        <ele>1961</ele>
        <time>2026-06-26T10:32:01Z</time>
      </trkpt>
      <trkpt lat="46.07405" lon="6.78137">
        <ele>1960.9</ele>
        <time>2026-06-26T10:32:02Z</time>
      </trkpt>
      <trkpt lat="46.07405" lon="6.78137">
        <ele>1960.7</ele>
        <time>2026-06-26T10:32:03Z</time>
      </trkpt>
      <trkpt lat="46.07405" lon="6.78136">
        <ele>1960.5</ele>
        <time>2026-06-26T10:32:04Z</time>
      </trkpt>
      <trkpt lat="46.07405" lon="6.78136">
        <ele>1960.4</ele>
        <time>2026-06-26T10:32:05Z</time>
      </trkpt>
      <trkpt lat="46.07405" lon="6.78136">
        <ele>1960.2</ele>
        <time>2026-06-26T10:32:06Z</time>
      </trkpt>
      <trkpt lat="46.07405" lon="6.78135">
        <ele>1960</ele>
        <time>2026-06-26T10:32:07Z</time>
      </trkpt>
      <trkpt lat="46.07405" lon="6.78135">
        <ele>1959.9</ele>
        <time>2026-06-26T10:32:08Z</time>
      </trkpt>
      <trkpt lat="46.07404" lon="6.78134">
        <ele>1959.7</ele>
        <time>2026-06-26T10:32:09Z</time>
      </trkpt>
      <trkpt lat="46.07404" lon="6.78133">
        <ele>1959.4</ele>
        <time>2026-06-26T10:32:10Z</time>
      </trkpt>
      <trkpt lat="46.07404" lon="6.78132">
        <ele>1959.3</ele>
        <time>2026-06-26T10:32:11Z</time>
      </trkpt>
      <trkpt lat="46.07404" lon="6.78132">
        <ele>1959</ele>
        <time>2026-06-26T10:32:12Z</time>
      </trkpt>
      <trkpt lat="46.07404" lon="6.78132">
        <ele>1958.8</ele>
        <time>2026-06-26T10:32:13Z</time>
      </trkpt>
      <trkpt lat="46.07404" lon="6.78131">
        <ele>1958.7</ele>
        <time>2026-06-26T10:32:14Z</time>
      </trkpt>
      <trkpt lat="46.07404" lon="6.78131">
        <ele>1958.5</ele>
        <time>2026-06-26T10:32:15Z</time>
      </trkpt>
      <trkpt lat="46.07403" lon="6.7813">
        <ele>1958.5</ele>
        <time>2026-06-26T10:32:16Z</time>
      </trkpt>
      <trkpt lat="46.07403" lon="6.78129">
        <ele>1958.3</ele>
        <time>2026-06-26T10:32:17Z</time>
      </trkpt>
      <trkpt lat="46.07403" lon="6.78128">
        <ele>1958.1</ele>
        <time>2026-06-26T10:32:18Z</time>
      </trkpt>
      <trkpt lat="46.07403" lon="6.78127">
        <ele>1957.9</ele>
        <time>2026-06-26T10:32:19Z</time>
      </trkpt>
      <trkpt lat="46.07403" lon="6.78127">
        <ele>1957.6</ele>
        <time>2026-06-26T10:32:20Z</time>
      </trkpt>
      <trkpt lat="46.07402" lon="6.78127">
        <ele>1957.2</ele>
        <time>2026-06-26T10:32:21Z</time>
      </trkpt>
      <trkpt lat="46.07402" lon="6.78127">
        <ele>1957</ele>
        <time>2026-06-26T10:32:22Z</time>
      </trkpt>
      <trkpt lat="46.07402" lon="6.78127">
        <ele>1956.8</ele>
        <time>2026-06-26T10:32:23Z</time>
      </trkpt>
      <trkpt lat="46.07402" lon="6.78126">
        <ele>1956.7</ele>
        <time>2026-06-26T10:32:24Z</time>
      </trkpt>
      <trkpt lat="46.07403" lon="6.78126">
        <ele>1956.6</ele>
        <time>2026-06-26T10:32:25Z</time>
      </trkpt>
      <trkpt lat="46.07403" lon="6.78125">
        <ele>1956.4</ele>
        <time>2026-06-26T10:32:26Z</time>
      </trkpt>
      <trkpt lat="46.07403" lon="6.78125">
        <ele>1956.1</ele>
        <time>2026-06-26T10:32:27Z</time>
      </trkpt>
      <trkpt lat="46.07403" lon="6.78124">
        <ele>1956</ele>
        <time>2026-06-26T10:32:28Z</time>
      </trkpt>
      <trkpt lat="46.07403" lon="6.78124">
        <ele>1955.8</ele>
        <time>2026-06-26T10:32:29Z</time>
      </trkpt>
      <trkpt lat="46.07403" lon="6.78124">
        <ele>1955.7</ele>
        <time>2026-06-26T10:32:30Z</time>
      </trkpt>
      <trkpt lat="46.07403" lon="6.78123">
        <ele>1955.6</ele>
        <time>2026-06-26T10:32:31Z</time>
      </trkpt>
      <trkpt lat="46.07403" lon="6.78122">
        <ele>1955.4</ele>
        <time>2026-06-26T10:32:32Z</time>
      </trkpt>
      <trkpt lat="46.07403" lon="6.78122">
        <ele>1955</ele>
        <time>2026-06-26T10:32:33Z</time>
      </trkpt>
      <trkpt lat="46.07403" lon="6.78121">
        <ele>1954.8</ele>
        <time>2026-06-26T10:32:34Z</time>
      </trkpt>
      <trkpt lat="46.07403" lon="6.78121">
        <ele>1954.6</ele>
        <time>2026-06-26T10:32:35Z</time>
      </trkpt>
      <trkpt lat="46.07403" lon="6.7812">
        <ele>1954.5</ele>
        <time>2026-06-26T10:32:36Z</time>
      </trkpt>
      <trkpt lat="46.07403" lon="6.78119">
        <ele>1954.3</ele>
        <time>2026-06-26T10:32:37Z</time>
      </trkpt>
      <trkpt lat="46.07403" lon="6.78119">
        <ele>1953.9</ele>
        <time>2026-06-26T10:32:38Z</time>
      </trkpt>
      <trkpt lat="46.07403" lon="6.78118">
        <ele>1953.5</ele>
        <time>2026-06-26T10:32:39Z</time>
      </trkpt>
      <trkpt lat="46.07403" lon="6.78117">
        <ele>1953.4</ele>
        <time>2026-06-26T10:32:40Z</time>
      </trkpt>
      <trkpt lat="46.07403" lon="6.78117">
        <ele>1953.2</ele>
        <time>2026-06-26T10:32:41Z</time>
      </trkpt>
      <trkpt lat="46.07403" lon="6.78116">
        <ele>1953</ele>
        <time>2026-06-26T10:32:42Z</time>
      </trkpt>
      <trkpt lat="46.07403" lon="6.78116">
        <ele>1952.9</ele>
        <time>2026-06-26T10:32:43Z</time>
      </trkpt>
      <trkpt lat="46.07403" lon="6.78115">
        <ele>1952.8</ele>
        <time>2026-06-26T10:32:44Z</time>
      </trkpt>
      <trkpt lat="46.07403" lon="6.78114">
        <ele>1952.5</ele>
        <time>2026-06-26T10:32:45Z</time>
      </trkpt>
      <trkpt lat="46.07403" lon="6.78113">
        <ele>1952.3</ele>
        <time>2026-06-26T10:32:46Z</time>
      </trkpt>
      <trkpt lat="46.07402" lon="6.78113">
        <ele>1952.1</ele>
        <time>2026-06-26T10:32:47Z</time>
      </trkpt>
      <trkpt lat="46.07402" lon="6.78112">
        <ele>1951.6</ele>
        <time>2026-06-26T10:32:48Z</time>
      </trkpt>
      <trkpt lat="46.07401" lon="6.78112">
        <ele>1951.3</ele>
        <time>2026-06-26T10:32:49Z</time>
      </trkpt>
      <trkpt lat="46.07401" lon="6.78111">
        <ele>1951.1</ele>
        <time>2026-06-26T10:32:50Z</time>
      </trkpt>
      <trkpt lat="46.074" lon="6.78111">
        <ele>1951</ele>
        <time>2026-06-26T10:32:51Z</time>
      </trkpt>
      <trkpt lat="46.074" lon="6.7811">
        <ele>1950.8</ele>
        <time>2026-06-26T10:32:52Z</time>
      </trkpt>
      <trkpt lat="46.07399" lon="6.7811">
        <ele>1950.6</ele>
        <time>2026-06-26T10:32:53Z</time>
      </trkpt>
      <trkpt lat="46.07399" lon="6.7811">
        <ele>1950.4</ele>
        <time>2026-06-26T10:32:54Z</time>
      </trkpt>
      <trkpt lat="46.07399" lon="6.7811">
        <ele>1950.3</ele>
        <time>2026-06-26T10:32:55Z</time>
      </trkpt>
      <trkpt lat="46.07399" lon="6.78109">
        <ele>1950.1</ele>
        <time>2026-06-26T10:32:56Z</time>
      </trkpt>
      <trkpt lat="46.07398" lon="6.78109">
        <ele>1949.9</ele>
        <time>2026-06-26T10:32:57Z</time>
      </trkpt>
      <trkpt lat="46.07398" lon="6.78108">
        <ele>1949.7</ele>
        <time>2026-06-26T10:32:58Z</time>
      </trkpt>
      <trkpt lat="46.07397" lon="6.78108">
        <ele>1949.6</ele>
        <time>2026-06-26T10:32:59Z</time>
      </trkpt>
      <trkpt lat="46.07397" lon="6.78108">
        <ele>1949.4</ele>
        <time>2026-06-26T10:33:00Z</time>
      </trkpt>
      <trkpt lat="46.07396" lon="6.78108">
        <ele>1949.3</ele>
        <time>2026-06-26T10:33:01Z</time>
      </trkpt>
      <trkpt lat="46.07396" lon="6.78107">
        <ele>1949.1</ele>
        <time>2026-06-26T10:33:02Z</time>
      </trkpt>
      <trkpt lat="46.07396" lon="6.78107">
        <ele>1948.9</ele>
        <time>2026-06-26T10:33:03Z</time>
      </trkpt>
      <trkpt lat="46.07395" lon="6.78106">
        <ele>1948.8</ele>
        <time>2026-06-26T10:33:04Z</time>
      </trkpt>
      <trkpt lat="46.07395" lon="6.78106">
        <ele>1948.7</ele>
        <time>2026-06-26T10:33:05Z</time>
      </trkpt>
      <trkpt lat="46.07395" lon="6.78106">
        <ele>1948.6</ele>
        <time>2026-06-26T10:33:06Z</time>
      </trkpt>
      <trkpt lat="46.07395" lon="6.78106">
        <ele>1948.5</ele>
        <time>2026-06-26T10:33:07Z</time>
      </trkpt>
      <trkpt lat="46.07396" lon="6.78106">
        <ele>1948.5</ele>
        <time>2026-06-26T10:33:08Z</time>
      </trkpt>
      <trkpt lat="46.07396" lon="6.78105">
        <ele>1948.3</ele>
        <time>2026-06-26T10:33:09Z</time>
      </trkpt>
      <trkpt lat="46.07396" lon="6.78104">
        <ele>1948.2</ele>
        <time>2026-06-26T10:33:10Z</time>
      </trkpt>
      <trkpt lat="46.07396" lon="6.78104">
        <ele>1948.1</ele>
        <time>2026-06-26T10:33:11Z</time>
      </trkpt>
      <trkpt lat="46.07396" lon="6.78103">
        <ele>1947.9</ele>
        <time>2026-06-26T10:33:12Z</time>
      </trkpt>
      <trkpt lat="46.07396" lon="6.78103">
        <ele>1947.6</ele>
        <time>2026-06-26T10:33:13Z</time>
      </trkpt>
      <trkpt lat="46.07396" lon="6.78102">
        <ele>1947.4</ele>
        <time>2026-06-26T10:33:14Z</time>
      </trkpt>
      <trkpt lat="46.07396" lon="6.78102">
        <ele>1947.1</ele>
        <time>2026-06-26T10:33:15Z</time>
      </trkpt>
      <trkpt lat="46.07396" lon="6.78101">
        <ele>1946.9</ele>
        <time>2026-06-26T10:33:16Z</time>
      </trkpt>
      <trkpt lat="46.07396" lon="6.781">
        <ele>1946.6</ele>
        <time>2026-06-26T10:33:17Z</time>
      </trkpt>
      <trkpt lat="46.07397" lon="6.781">
        <ele>1946.3</ele>
        <time>2026-06-26T10:33:18Z</time>
      </trkpt>
      <trkpt lat="46.07397" lon="6.78099">
        <ele>1946</ele>
        <time>2026-06-26T10:33:19Z</time>
      </trkpt>
      <trkpt lat="46.07398" lon="6.78099">
        <ele>1945.7</ele>
        <time>2026-06-26T10:33:20Z</time>
      </trkpt>
      <trkpt lat="46.07398" lon="6.78099">
        <ele>1945.5</ele>
        <time>2026-06-26T10:33:21Z</time>
      </trkpt>
      <trkpt lat="46.07399" lon="6.78098">
        <ele>1945.2</ele>
        <time>2026-06-26T10:33:22Z</time>
      </trkpt>
      <trkpt lat="46.07399" lon="6.78097">
        <ele>1945</ele>
        <time>2026-06-26T10:33:23Z</time>
      </trkpt>
      <trkpt lat="46.07398" lon="6.78097">
        <ele>1944.8</ele>
        <time>2026-06-26T10:33:24Z</time>
      </trkpt>
      <trkpt lat="46.07398" lon="6.78096">
        <ele>1944.6</ele>
        <time>2026-06-26T10:33:25Z</time>
      </trkpt>
      <trkpt lat="46.07398" lon="6.78097">
        <ele>1944.4</ele>
        <time>2026-06-26T10:33:26Z</time>
      </trkpt>
      <trkpt lat="46.07398" lon="6.78097">
        <ele>1944.3</ele>
        <time>2026-06-26T10:33:27Z</time>
      </trkpt>
      <trkpt lat="46.07398" lon="6.78097">
        <ele>1944.2</ele>
        <time>2026-06-26T10:33:28Z</time>
      </trkpt>
      <trkpt lat="46.07398" lon="6.78097">
        <ele>1944.1</ele>
        <time>2026-06-26T10:33:29Z</time>
      </trkpt>
      <trkpt lat="46.07398" lon="6.78096">
        <ele>1944</ele>
        <time>2026-06-26T10:33:30Z</time>
      </trkpt>
      <trkpt lat="46.07398" lon="6.78096">
        <ele>1944</ele>
        <time>2026-06-26T10:33:31Z</time>
      </trkpt>
      <trkpt lat="46.07398" lon="6.78096">
        <ele>1943.9</ele>
        <time>2026-06-26T10:33:32Z</time>
      </trkpt>
      <trkpt lat="46.07397" lon="6.78095">
        <ele>1943.8</ele>
        <time>2026-06-26T10:33:33Z</time>
      </trkpt>
      <trkpt lat="46.07397" lon="6.78095">
        <ele>1943.6</ele>
        <time>2026-06-26T10:33:34Z</time>
      </trkpt>
      <trkpt lat="46.07397" lon="6.78095">
        <ele>1943.4</ele>
        <time>2026-06-26T10:33:35Z</time>
      </trkpt>
      <trkpt lat="46.07397" lon="6.78095">
        <ele>1943.2</ele>
        <time>2026-06-26T10:33:36Z</time>
      </trkpt>
      <trkpt lat="46.07397" lon="6.78094">
        <ele>1943.1</ele>
        <time>2026-06-26T10:33:37Z</time>
      </trkpt>
      <trkpt lat="46.07398" lon="6.78094">
        <ele>1943</ele>
        <time>2026-06-26T10:33:38Z</time>
      </trkpt>
      <trkpt lat="46.07398" lon="6.78093">
        <ele>1942.9</ele>
        <time>2026-06-26T10:33:39Z</time>
      </trkpt>
      <trkpt lat="46.07399" lon="6.78093">
        <ele>1942.8</ele>
        <time>2026-06-26T10:33:40Z</time>
      </trkpt>
      <trkpt lat="46.07399" lon="6.78093">
        <ele>1942.6</ele>
        <time>2026-06-26T10:33:41Z</time>
      </trkpt>
      <trkpt lat="46.07399" lon="6.78092">
        <ele>1942.4</ele>
        <time>2026-06-26T10:33:42Z</time>
      </trkpt>
      <trkpt lat="46.07399" lon="6.78092">
        <ele>1942.2</ele>
        <time>2026-06-26T10:33:43Z</time>
      </trkpt>
      <trkpt lat="46.074" lon="6.78091">
        <ele>1942.1</ele>
        <time>2026-06-26T10:33:44Z</time>
      </trkpt>
      <trkpt lat="46.074" lon="6.78091">
        <ele>1942</ele>
        <time>2026-06-26T10:33:45Z</time>
      </trkpt>
      <trkpt lat="46.074" lon="6.78091">
        <ele>1941.9</ele>
        <time>2026-06-26T10:33:46Z</time>
      </trkpt>
      <trkpt lat="46.07401" lon="6.7809">
        <ele>1941.8</ele>
        <time>2026-06-26T10:33:47Z</time>
      </trkpt>
      <trkpt lat="46.07401" lon="6.78089">
        <ele>1941.7</ele>
        <time>2026-06-26T10:33:48Z</time>
      </trkpt>
      <trkpt lat="46.074" lon="6.78088">
        <ele>1941.6</ele>
        <time>2026-06-26T10:33:49Z</time>
      </trkpt>
      <trkpt lat="46.074" lon="6.78088">
        <ele>1941.5</ele>
        <time>2026-06-26T10:33:50Z</time>
      </trkpt>
      <trkpt lat="46.07399" lon="6.78088">
        <ele>1941.3</ele>
        <time>2026-06-26T10:33:51Z</time>
      </trkpt>
      <trkpt lat="46.07399" lon="6.78087">
        <ele>1941.2</ele>
        <time>2026-06-26T10:33:52Z</time>
      </trkpt>
      <trkpt lat="46.07398" lon="6.78087">
        <ele>1941</ele>
        <time>2026-06-26T10:33:53Z</time>
      </trkpt>
      <trkpt lat="46.07398" lon="6.78086">
        <ele>1940.8</ele>
        <time>2026-06-26T10:33:54Z</time>
      </trkpt>
      <trkpt lat="46.07397" lon="6.78086">
        <ele>1940.5</ele>
        <time>2026-06-26T10:33:55Z</time>
      </trkpt>
      <trkpt lat="46.07397" lon="6.78086">
        <ele>1940.3</ele>
        <time>2026-06-26T10:33:56Z</time>
      </trkpt>
      <trkpt lat="46.07397" lon="6.78086">
        <ele>1940</ele>
        <time>2026-06-26T10:33:57Z</time>
      </trkpt>
      <trkpt lat="46.07397" lon="6.78085">
        <ele>1939.8</ele>
        <time>2026-06-26T10:33:58Z</time>
      </trkpt>
      <trkpt lat="46.07397" lon="6.78085">
        <ele>1939.6</ele>
        <time>2026-06-26T10:33:59Z</time>
      </trkpt>
      <trkpt lat="46.07396" lon="6.78085">
        <ele>1939.4</ele>
        <time>2026-06-26T10:34:00Z</time>
      </trkpt>
      <trkpt lat="46.07396" lon="6.78085">
        <ele>1939.4</ele>
        <time>2026-06-26T10:34:01Z</time>
      </trkpt>
      <trkpt lat="46.07396" lon="6.78085">
        <ele>1939.3</ele>
        <time>2026-06-26T10:34:02Z</time>
      </trkpt>
      <trkpt lat="46.07396" lon="6.78085">
        <ele>1939.3</ele>
        <time>2026-06-26T10:34:03Z</time>
      </trkpt>
      <trkpt lat="46.07396" lon="6.78085">
        <ele>1939.2</ele>
        <time>2026-06-26T10:34:04Z</time>
      </trkpt>
      <trkpt lat="46.07396" lon="6.78084">
        <ele>1939.2</ele>
        <time>2026-06-26T10:34:05Z</time>
      </trkpt>
      <trkpt lat="46.07397" lon="6.78084">
        <ele>1939.3</ele>
        <time>2026-06-26T10:34:06Z</time>
      </trkpt>
      <trkpt lat="46.07397" lon="6.78084">
        <ele>1939.2</ele>
        <time>2026-06-26T10:34:07Z</time>
      </trkpt>
      <trkpt lat="46.07397" lon="6.78083">
        <ele>1939.1</ele>
        <time>2026-06-26T10:34:08Z</time>
      </trkpt>
      <trkpt lat="46.07396" lon="6.78083">
        <ele>1939.1</ele>
        <time>2026-06-26T10:34:09Z</time>
      </trkpt>
      <trkpt lat="46.07396" lon="6.78082">
        <ele>1939.1</ele>
        <time>2026-06-26T10:34:10Z</time>
      </trkpt>
      <trkpt lat="46.07396" lon="6.78083">
        <ele>1939</ele>
        <time>2026-06-26T10:34:11Z</time>
      </trkpt>
      <trkpt lat="46.07395" lon="6.78083">
        <ele>1939</ele>
        <time>2026-06-26T10:34:12Z</time>
      </trkpt>
      <trkpt lat="46.07395" lon="6.78083">
        <ele>1938.9</ele>
        <time>2026-06-26T10:34:13Z</time>
      </trkpt>
      <trkpt lat="46.07395" lon="6.78083">
        <ele>1938.9</ele>
        <time>2026-06-26T10:34:14Z</time>
      </trkpt>
      <trkpt lat="46.07395" lon="6.78083">
        <ele>1938.9</ele>
        <time>2026-06-26T10:34:15Z</time>
      </trkpt>
      <trkpt lat="46.07395" lon="6.78083">
        <ele>1938.8</ele>
        <time>2026-06-26T10:34:16Z</time>
      </trkpt>
      <trkpt lat="46.07394" lon="6.78083">
        <ele>1938.6</ele>
        <time>2026-06-26T10:34:17Z</time>
      </trkpt>
      <trkpt lat="46.07395" lon="6.78083">
        <ele>1938.5</ele>
        <time>2026-06-26T10:34:18Z</time>
      </trkpt>
      <trkpt lat="46.07395" lon="6.78083">
        <ele>1938.5</ele>
        <time>2026-06-26T10:34:19Z</time>
      </trkpt>
      <trkpt lat="46.07395" lon="6.78082">
        <ele>1938.5</ele>
        <time>2026-06-26T10:34:20Z</time>
      </trkpt>
      <trkpt lat="46.07395" lon="6.78081">
        <ele>1938.5</ele>
        <time>2026-06-26T10:34:21Z</time>
      </trkpt>
      <trkpt lat="46.07395" lon="6.7808">
        <ele>1938.3</ele>
        <time>2026-06-26T10:34:22Z</time>
      </trkpt>
      <trkpt lat="46.07394" lon="6.7808">
        <ele>1938.2</ele>
        <time>2026-06-26T10:34:23Z</time>
      </trkpt>
      <trkpt lat="46.07394" lon="6.7808">
        <ele>1938.1</ele>
        <time>2026-06-26T10:34:24Z</time>
      </trkpt>
      <trkpt lat="46.07394" lon="6.78079">
        <ele>1938</ele>
        <time>2026-06-26T10:34:25Z</time>
      </trkpt>
      <trkpt lat="46.07394" lon="6.78079">
        <ele>1937.9</ele>
        <time>2026-06-26T10:34:26Z</time>
      </trkpt>
      <trkpt lat="46.07394" lon="6.78078">
        <ele>1937.6</ele>
        <time>2026-06-26T10:34:27Z</time>
      </trkpt>
      <trkpt lat="46.07394" lon="6.78077">
        <ele>1937.3</ele>
        <time>2026-06-26T10:34:28Z</time>
      </trkpt>
      <trkpt lat="46.07394" lon="6.78077">
        <ele>1937.1</ele>
        <time>2026-06-26T10:34:29Z</time>
      </trkpt>
      <trkpt lat="46.07394" lon="6.78076">
        <ele>1936.9</ele>
        <time>2026-06-26T10:34:30Z</time>
      </trkpt>
      <trkpt lat="46.07395" lon="6.78075">
        <ele>1936.7</ele>
        <time>2026-06-26T10:34:31Z</time>
      </trkpt>
      <trkpt lat="46.07395" lon="6.78075">
        <ele>1936.4</ele>
        <time>2026-06-26T10:34:32Z</time>
      </trkpt>
      <trkpt lat="46.07395" lon="6.78074">
        <ele>1936.2</ele>
        <time>2026-06-26T10:34:33Z</time>
      </trkpt>
      <trkpt lat="46.07395" lon="6.78073">
        <ele>1936</ele>
        <time>2026-06-26T10:34:34Z</time>
      </trkpt>
      <trkpt lat="46.07395" lon="6.78073">
        <ele>1935.7</ele>
        <time>2026-06-26T10:34:35Z</time>
      </trkpt>
      <trkpt lat="46.07395" lon="6.78072">
        <ele>1935.6</ele>
        <time>2026-06-26T10:34:36Z</time>
      </trkpt>
      <trkpt lat="46.07395" lon="6.78072">
        <ele>1935.4</ele>
        <time>2026-06-26T10:34:37Z</time>
      </trkpt>
      <trkpt lat="46.07395" lon="6.78071">
        <ele>1935.2</ele>
        <time>2026-06-26T10:34:38Z</time>
      </trkpt>
      <trkpt lat="46.07395" lon="6.7807">
        <ele>1935.1</ele>
        <time>2026-06-26T10:34:39Z</time>
      </trkpt>
      <trkpt lat="46.07395" lon="6.7807">
        <ele>1935</ele>
        <time>2026-06-26T10:34:40Z</time>
      </trkpt>
      <trkpt lat="46.07395" lon="6.7807">
        <ele>1934.8</ele>
        <time>2026-06-26T10:34:41Z</time>
      </trkpt>
      <trkpt lat="46.07395" lon="6.78069">
        <ele>1934.6</ele>
        <time>2026-06-26T10:34:42Z</time>
      </trkpt>
      <trkpt lat="46.07395" lon="6.78069">
        <ele>1934.3</ele>
        <time>2026-06-26T10:34:43Z</time>
      </trkpt>
      <trkpt lat="46.07394" lon="6.78068">
        <ele>1934.2</ele>
        <time>2026-06-26T10:34:44Z</time>
      </trkpt>
      <trkpt lat="46.07394" lon="6.78067">
        <ele>1934.1</ele>
        <time>2026-06-26T10:34:45Z</time>
      </trkpt>
      <trkpt lat="46.07394" lon="6.78067">
        <ele>1934</ele>
        <time>2026-06-26T10:34:46Z</time>
      </trkpt>
      <trkpt lat="46.07394" lon="6.78067">
        <ele>1933.9</ele>
        <time>2026-06-26T10:34:47Z</time>
      </trkpt>
      <trkpt lat="46.07394" lon="6.78067">
        <ele>1933.7</ele>
        <time>2026-06-26T10:34:48Z</time>
      </trkpt>
      <trkpt lat="46.07395" lon="6.78066">
        <ele>1933.5</ele>
        <time>2026-06-26T10:34:49Z</time>
      </trkpt>
      <trkpt lat="46.07395" lon="6.78065">
        <ele>1933.4</ele>
        <time>2026-06-26T10:34:50Z</time>
      </trkpt>
      <trkpt lat="46.07394" lon="6.78065">
        <ele>1933.2</ele>
        <time>2026-06-26T10:34:51Z</time>
      </trkpt>
      <trkpt lat="46.07394" lon="6.78064">
        <ele>1932.8</ele>
        <time>2026-06-26T10:34:52Z</time>
      </trkpt>
      <trkpt lat="46.07394" lon="6.78064">
        <ele>1932.6</ele>
        <time>2026-06-26T10:34:53Z</time>
      </trkpt>
      <trkpt lat="46.07394" lon="6.78063">
        <ele>1932.4</ele>
        <time>2026-06-26T10:34:54Z</time>
      </trkpt>
      <trkpt lat="46.07394" lon="6.78063">
        <ele>1932.2</ele>
        <time>2026-06-26T10:34:55Z</time>
      </trkpt>
      <trkpt lat="46.07394" lon="6.78062">
        <ele>1932</ele>
        <time>2026-06-26T10:34:56Z</time>
      </trkpt>
      <trkpt lat="46.07393" lon="6.78061">
        <ele>1931.8</ele>
        <time>2026-06-26T10:34:57Z</time>
      </trkpt>
      <trkpt lat="46.07393" lon="6.78061">
        <ele>1931.5</ele>
        <time>2026-06-26T10:34:58Z</time>
      </trkpt>
      <trkpt lat="46.07393" lon="6.78061">
        <ele>1931.3</ele>
        <time>2026-06-26T10:34:59Z</time>
      </trkpt>
      <trkpt lat="46.07393" lon="6.78061">
        <ele>1931.1</ele>
        <time>2026-06-26T10:35:00Z</time>
      </trkpt>
      <trkpt lat="46.07393" lon="6.78061">
        <ele>1930.9</ele>
        <time>2026-06-26T10:35:01Z</time>
      </trkpt>
      <trkpt lat="46.07393" lon="6.78061">
        <ele>1930.8</ele>
        <time>2026-06-26T10:35:02Z</time>
      </trkpt>
      <trkpt lat="46.07393" lon="6.78061">
        <ele>1930.8</ele>
        <time>2026-06-26T10:35:03Z</time>
      </trkpt>
      <trkpt lat="46.07393" lon="6.78061">
        <ele>1930.7</ele>
        <time>2026-06-26T10:35:04Z</time>
      </trkpt>
      <trkpt lat="46.07393" lon="6.7806">
        <ele>1930.6</ele>
        <time>2026-06-26T10:35:05Z</time>
      </trkpt>
      <trkpt lat="46.07393" lon="6.78059">
        <ele>1930.5</ele>
        <time>2026-06-26T10:35:06Z</time>
      </trkpt>
      <trkpt lat="46.07393" lon="6.78059">
        <ele>1930.4</ele>
        <time>2026-06-26T10:35:07Z</time>
      </trkpt>
      <trkpt lat="46.07393" lon="6.78058">
        <ele>1930.2</ele>
        <time>2026-06-26T10:35:08Z</time>
      </trkpt>
      <trkpt lat="46.07393" lon="6.78057">
        <ele>1930</ele>
        <time>2026-06-26T10:35:09Z</time>
      </trkpt>
      <trkpt lat="46.07393" lon="6.78057">
        <ele>1929.9</ele>
        <time>2026-06-26T10:35:10Z</time>
      </trkpt>
      <trkpt lat="46.07393" lon="6.78056">
        <ele>1929.5</ele>
        <time>2026-06-26T10:35:11Z</time>
      </trkpt>
      <trkpt lat="46.07392" lon="6.78055">
        <ele>1929.2</ele>
        <time>2026-06-26T10:35:12Z</time>
      </trkpt>
      <trkpt lat="46.07392" lon="6.78054">
        <ele>1929</ele>
        <time>2026-06-26T10:35:13Z</time>
      </trkpt>
      <trkpt lat="46.07391" lon="6.78053">
        <ele>1928.8</ele>
        <time>2026-06-26T10:35:14Z</time>
      </trkpt>
      <trkpt lat="46.0739" lon="6.78052">
        <ele>1928.4</ele>
        <time>2026-06-26T10:35:15Z</time>
      </trkpt>
      <trkpt lat="46.0739" lon="6.78052">
        <ele>1928.3</ele>
        <time>2026-06-26T10:35:16Z</time>
      </trkpt>
      <trkpt lat="46.07389" lon="6.78052">
        <ele>1928.1</ele>
        <time>2026-06-26T10:35:17Z</time>
      </trkpt>
      <trkpt lat="46.07389" lon="6.78051">
        <ele>1928</ele>
        <time>2026-06-26T10:35:18Z</time>
      </trkpt>
      <trkpt lat="46.07389" lon="6.78051">
        <ele>1928</ele>
        <time>2026-06-26T10:35:19Z</time>
      </trkpt>
      <trkpt lat="46.07389" lon="6.7805">
        <ele>1927.9</ele>
        <time>2026-06-26T10:35:20Z</time>
      </trkpt>
      <trkpt lat="46.07389" lon="6.7805">
        <ele>1927.8</ele>
        <time>2026-06-26T10:35:21Z</time>
      </trkpt>
      <trkpt lat="46.07389" lon="6.7805">
        <ele>1927.6</ele>
        <time>2026-06-26T10:35:22Z</time>
      </trkpt>
      <trkpt lat="46.07389" lon="6.7805">
        <ele>1927.5</ele>
        <time>2026-06-26T10:35:23Z</time>
      </trkpt>
      <trkpt lat="46.07389" lon="6.7805">
        <ele>1927.4</ele>
        <time>2026-06-26T10:35:24Z</time>
      </trkpt>
      <trkpt lat="46.07389" lon="6.7805">
        <ele>1927.3</ele>
        <time>2026-06-26T10:35:25Z</time>
      </trkpt>
      <trkpt lat="46.07389" lon="6.7805">
        <ele>1927.3</ele>
        <time>2026-06-26T10:35:26Z</time>
      </trkpt>
      <trkpt lat="46.07389" lon="6.7805">
        <ele>1927.2</ele>
        <time>2026-06-26T10:35:27Z</time>
      </trkpt>
      <trkpt lat="46.07388" lon="6.7805">
        <ele>1927.2</ele>
        <time>2026-06-26T10:35:28Z</time>
      </trkpt>
      <trkpt lat="46.07388" lon="6.78051">
        <ele>1927.2</ele>
        <time>2026-06-26T10:35:29Z</time>
      </trkpt>
      <trkpt lat="46.07388" lon="6.78051">
        <ele>1927.2</ele>
        <time>2026-06-26T10:35:30Z</time>
      </trkpt>
      <trkpt lat="46.07388" lon="6.78051">
        <ele>1927.2</ele>
        <time>2026-06-26T10:35:31Z</time>
      </trkpt>
      <trkpt lat="46.07388" lon="6.78051">
        <ele>1927.2</ele>
        <time>2026-06-26T10:35:32Z</time>
      </trkpt>
      <trkpt lat="46.07388" lon="6.78051">
        <ele>1927.2</ele>
        <time>2026-06-26T10:35:33Z</time>
      </trkpt>
      <trkpt lat="46.07388" lon="6.78051">
        <ele>1927.1</ele>
        <time>2026-06-26T10:35:34Z</time>
      </trkpt>
      <trkpt lat="46.07388" lon="6.78051">
        <ele>1927.2</ele>
        <time>2026-06-26T10:35:35Z</time>
      </trkpt>
      <trkpt lat="46.07388" lon="6.78051">
        <ele>1927.3</ele>
        <time>2026-06-26T10:35:36Z</time>
      </trkpt>
      <trkpt lat="46.07388" lon="6.78051">
        <ele>1927.3</ele>
        <time>2026-06-26T10:35:37Z</time>
      </trkpt>
      <trkpt lat="46.07388" lon="6.78051">
        <ele>1927.3</ele>
        <time>2026-06-26T10:35:38Z</time>
      </trkpt>
      <trkpt lat="46.07388" lon="6.78051">
        <ele>1927.3</ele>
        <time>2026-06-26T10:35:39Z</time>
      </trkpt>
      <trkpt lat="46.07388" lon="6.78051">
        <ele>1927.2</ele>
        <time>2026-06-26T10:35:40Z</time>
      </trkpt>
      <trkpt lat="46.07388" lon="6.78051">
        <ele>1927.1</ele>
        <time>2026-06-26T10:35:41Z</time>
      </trkpt>
      <trkpt lat="46.07388" lon="6.78051">
        <ele>1927</ele>
        <time>2026-06-26T10:35:42Z</time>
      </trkpt>
      <trkpt lat="46.07388" lon="6.78051">
        <ele>1927</ele>
        <time>2026-06-26T10:35:43Z</time>
      </trkpt>
      <trkpt lat="46.07388" lon="6.78051">
        <ele>1927</ele>
        <time>2026-06-26T10:35:44Z</time>
      </trkpt>
      <trkpt lat="46.07388" lon="6.78051">
        <ele>1926.9</ele>
        <time>2026-06-26T10:35:45Z</time>
      </trkpt>
      <trkpt lat="46.07388" lon="6.78052">
        <ele>1926.9</ele>
        <time>2026-06-26T10:35:46Z</time>
      </trkpt>
      <trkpt lat="46.07388" lon="6.78052">
        <ele>1926.9</ele>
        <time>2026-06-26T10:35:47Z</time>
      </trkpt>
      <trkpt lat="46.07388" lon="6.78052">
        <ele>1926.9</ele>
        <time>2026-06-26T10:35:48Z</time>
      </trkpt>
      <trkpt lat="46.07388" lon="6.78052">
        <ele>1926.9</ele>
        <time>2026-06-26T10:35:49Z</time>
      </trkpt>
      <trkpt lat="46.07387" lon="6.78051">
        <ele>1926.8</ele>
        <time>2026-06-26T10:35:50Z</time>
      </trkpt>
      <trkpt lat="46.07387" lon="6.78052">
        <ele>1926.8</ele>
        <time>2026-06-26T10:35:51Z</time>
      </trkpt>
      <trkpt lat="46.07387" lon="6.78051">
        <ele>1926.8</ele>
        <time>2026-06-26T10:35:52Z</time>
      </trkpt>
      <trkpt lat="46.07388" lon="6.78051">
        <ele>1926.9</ele>
        <time>2026-06-26T10:35:53Z</time>
      </trkpt>
      <trkpt lat="46.07388" lon="6.78051">
        <ele>1926.9</ele>
        <time>2026-06-26T10:35:54Z</time>
      </trkpt>
      <trkpt lat="46.07388" lon="6.78051">
        <ele>1926.9</ele>
        <time>2026-06-26T10:35:55Z</time>
      </trkpt>
      <trkpt lat="46.07388" lon="6.78051">
        <ele>1927</ele>
        <time>2026-06-26T10:35:56Z</time>
      </trkpt>
      <trkpt lat="46.07388" lon="6.78051">
        <ele>1926.9</ele>
        <time>2026-06-26T10:35:57Z</time>
      </trkpt>
      <trkpt lat="46.07388" lon="6.78051">
        <ele>1926.9</ele>
        <time>2026-06-26T10:35:58Z</time>
      </trkpt>
      <trkpt lat="46.07388" lon="6.78051">
        <ele>1926.9</ele>
        <time>2026-06-26T10:35:59Z</time>
      </trkpt>
      <trkpt lat="46.07388" lon="6.78051">
        <ele>1926.9</ele>
        <time>2026-06-26T10:36:00Z</time>
      </trkpt>
      <trkpt lat="46.07388" lon="6.7805">
        <ele>1926.9</ele>
        <time>2026-06-26T10:36:01Z</time>
      </trkpt>
      <trkpt lat="46.07388" lon="6.7805">
        <ele>1926.9</ele>
        <time>2026-06-26T10:36:02Z</time>
      </trkpt>
      <trkpt lat="46.07388" lon="6.7805">
        <ele>1926.9</ele>
        <time>2026-06-26T10:36:03Z</time>
      </trkpt>
      <trkpt lat="46.07388" lon="6.7805">
        <ele>1926.9</ele>
        <time>2026-06-26T10:36:04Z</time>
      </trkpt>
      <trkpt lat="46.07388" lon="6.78049">
        <ele>1926.8</ele>
        <time>2026-06-26T10:36:05Z</time>
      </trkpt>
      <trkpt lat="46.07388" lon="6.78049">
        <ele>1926.7</ele>
        <time>2026-06-26T10:36:06Z</time>
      </trkpt>
      <trkpt lat="46.07387" lon="6.78049">
        <ele>1926.7</ele>
        <time>2026-06-26T10:36:07Z</time>
      </trkpt>
      <trkpt lat="46.07387" lon="6.78049">
        <ele>1926.6</ele>
        <time>2026-06-26T10:36:08Z</time>
      </trkpt>
      <trkpt lat="46.07387" lon="6.78049">
        <ele>1926.5</ele>
        <time>2026-06-26T10:36:09Z</time>
      </trkpt>
      <trkpt lat="46.07387" lon="6.78049">
        <ele>1926.4</ele>
        <time>2026-06-26T10:36:10Z</time>
      </trkpt>
      <trkpt lat="46.07386" lon="6.78049">
        <ele>1926.4</ele>
        <time>2026-06-26T10:36:11Z</time>
      </trkpt>
      <trkpt lat="46.07386" lon="6.78049">
        <ele>1926.3</ele>
        <time>2026-06-26T10:36:12Z</time>
      </trkpt>
      <trkpt lat="46.07386" lon="6.78048">
        <ele>1926.1</ele>
        <time>2026-06-26T10:36:13Z</time>
      </trkpt>
      <trkpt lat="46.07386" lon="6.78048">
        <ele>1926.1</ele>
        <time>2026-06-26T10:36:14Z</time>
      </trkpt>
      <trkpt lat="46.07386" lon="6.78048">
        <ele>1926.1</ele>
        <time>2026-06-26T10:36:15Z</time>
      </trkpt>
      <trkpt lat="46.07386" lon="6.78048">
        <ele>1926.1</ele>
        <time>2026-06-26T10:36:16Z</time>
      </trkpt>
      <trkpt lat="46.07386" lon="6.78047">
        <ele>1926</ele>
        <time>2026-06-26T10:36:17Z</time>
      </trkpt>
      <trkpt lat="46.07386" lon="6.78047">
        <ele>1925.8</ele>
        <time>2026-06-26T10:36:18Z</time>
      </trkpt>
      <trkpt lat="46.07386" lon="6.78046">
        <ele>1925.7</ele>
        <time>2026-06-26T10:36:19Z</time>
      </trkpt>
      <trkpt lat="46.07386" lon="6.78046">
        <ele>1925.5</ele>
        <time>2026-06-26T10:36:20Z</time>
      </trkpt>
      <trkpt lat="46.07386" lon="6.78045">
        <ele>1925.3</ele>
        <time>2026-06-26T10:36:21Z</time>
      </trkpt>
      <trkpt lat="46.07386" lon="6.78045">
        <ele>1925.1</ele>
        <time>2026-06-26T10:36:22Z</time>
      </trkpt>
      <trkpt lat="46.07385" lon="6.78045">
        <ele>1925</ele>
        <time>2026-06-26T10:36:23Z</time>
      </trkpt>
      <trkpt lat="46.07385" lon="6.78044">
        <ele>1924.9</ele>
        <time>2026-06-26T10:36:24Z</time>
      </trkpt>
      <trkpt lat="46.07385" lon="6.78044">
        <ele>1924.8</ele>
        <time>2026-06-26T10:36:25Z</time>
      </trkpt>
      <trkpt lat="46.07384" lon="6.78043">
        <ele>1924.7</ele>
        <time>2026-06-26T10:36:26Z</time>
      </trkpt>
      <trkpt lat="46.07384" lon="6.78043">
        <ele>1924.6</ele>
        <time>2026-06-26T10:36:27Z</time>
      </trkpt>
      <trkpt lat="46.07384" lon="6.78043">
        <ele>1924.5</ele>
        <time>2026-06-26T10:36:28Z</time>
      </trkpt>
      <trkpt lat="46.07384" lon="6.78043">
        <ele>1924.3</ele>
        <time>2026-06-26T10:36:29Z</time>
      </trkpt>
      <trkpt lat="46.07384" lon="6.78042">
        <ele>1924.2</ele>
        <time>2026-06-26T10:36:30Z</time>
      </trkpt>
      <trkpt lat="46.07384" lon="6.78042">
        <ele>1924.1</ele>
        <time>2026-06-26T10:36:31Z</time>
      </trkpt>
      <trkpt lat="46.07384" lon="6.78041">
        <ele>1924</ele>
        <time>2026-06-26T10:36:32Z</time>
      </trkpt>
      <trkpt lat="46.07384" lon="6.78041">
        <ele>1923.7</ele>
        <time>2026-06-26T10:36:33Z</time>
      </trkpt>
      <trkpt lat="46.07384" lon="6.7804">
        <ele>1923.5</ele>
        <time>2026-06-26T10:36:34Z</time>
      </trkpt>
      <trkpt lat="46.07384" lon="6.7804">
        <ele>1923.3</ele>
        <time>2026-06-26T10:36:35Z</time>
      </trkpt>
      <trkpt lat="46.07384" lon="6.78039">
        <ele>1923</ele>
        <time>2026-06-26T10:36:36Z</time>
      </trkpt>
      <trkpt lat="46.07384" lon="6.78038">
        <ele>1922.8</ele>
        <time>2026-06-26T10:36:37Z</time>
      </trkpt>
      <trkpt lat="46.07383" lon="6.78038">
        <ele>1922.6</ele>
        <time>2026-06-26T10:36:38Z</time>
      </trkpt>
      <trkpt lat="46.07383" lon="6.78037">
        <ele>1922.4</ele>
        <time>2026-06-26T10:36:39Z</time>
      </trkpt>
      <trkpt lat="46.07383" lon="6.78037">
        <ele>1922.2</ele>
        <time>2026-06-26T10:36:40Z</time>
      </trkpt>
      <trkpt lat="46.07383" lon="6.78036">
        <ele>1922</ele>
        <time>2026-06-26T10:36:41Z</time>
      </trkpt>
      <trkpt lat="46.07383" lon="6.78036">
        <ele>1921.9</ele>
        <time>2026-06-26T10:36:42Z</time>
      </trkpt>
      <trkpt lat="46.07383" lon="6.78035">
        <ele>1921.7</ele>
        <time>2026-06-26T10:36:43Z</time>
      </trkpt>
      <trkpt lat="46.07383" lon="6.78034">
        <ele>1921.6</ele>
        <time>2026-06-26T10:36:44Z</time>
      </trkpt>
      <trkpt lat="46.07383" lon="6.78034">
        <ele>1921.4</ele>
        <time>2026-06-26T10:36:45Z</time>
      </trkpt>
      <trkpt lat="46.07382" lon="6.78034">
        <ele>1921.2</ele>
        <time>2026-06-26T10:36:46Z</time>
      </trkpt>
      <trkpt lat="46.07382" lon="6.78033">
        <ele>1921.1</ele>
        <time>2026-06-26T10:36:47Z</time>
      </trkpt>
      <trkpt lat="46.07382" lon="6.78033">
        <ele>1920.9</ele>
        <time>2026-06-26T10:36:48Z</time>
      </trkpt>
      <trkpt lat="46.07381" lon="6.78033">
        <ele>1920.8</ele>
        <time>2026-06-26T10:36:49Z</time>
      </trkpt>
      <trkpt lat="46.07381" lon="6.78032">
        <ele>1920.6</ele>
        <time>2026-06-26T10:36:50Z</time>
      </trkpt>
      <trkpt lat="46.07381" lon="6.78032">
        <ele>1920.5</ele>
        <time>2026-06-26T10:36:51Z</time>
      </trkpt>
      <trkpt lat="46.07381" lon="6.78032">
        <ele>1920.3</ele>
        <time>2026-06-26T10:36:52Z</time>
      </trkpt>
      <trkpt lat="46.07381" lon="6.78032">
        <ele>1920.1</ele>
        <time>2026-06-26T10:36:53Z</time>
      </trkpt>
      <trkpt lat="46.07381" lon="6.78031">
        <ele>1919.9</ele>
        <time>2026-06-26T10:36:54Z</time>
      </trkpt>
      <trkpt lat="46.07382" lon="6.78029">
        <ele>1919.8</ele>
        <time>2026-06-26T10:36:55Z</time>
      </trkpt>
      <trkpt lat="46.07382" lon="6.78029">
        <ele>1919.6</ele>
        <time>2026-06-26T10:36:56Z</time>
      </trkpt>
      <trkpt lat="46.07381" lon="6.78028">
        <ele>1919.3</ele>
        <time>2026-06-26T10:36:57Z</time>
      </trkpt>
      <trkpt lat="46.07381" lon="6.78028">
        <ele>1919</ele>
        <time>2026-06-26T10:36:58Z</time>
      </trkpt>
      <trkpt lat="46.07381" lon="6.78028">
        <ele>1918.9</ele>
        <time>2026-06-26T10:36:59Z</time>
      </trkpt>
      <trkpt lat="46.07381" lon="6.78028">
        <ele>1918.7</ele>
        <time>2026-06-26T10:37:00Z</time>
      </trkpt>
      <trkpt lat="46.07381" lon="6.78027">
        <ele>1918.6</ele>
        <time>2026-06-26T10:37:01Z</time>
      </trkpt>
      <trkpt lat="46.07381" lon="6.78027">
        <ele>1918.5</ele>
        <time>2026-06-26T10:37:02Z</time>
      </trkpt>
      <trkpt lat="46.07381" lon="6.78027">
        <ele>1918.4</ele>
        <time>2026-06-26T10:37:03Z</time>
      </trkpt>
      <trkpt lat="46.07381" lon="6.78026">
        <ele>1918.1</ele>
        <time>2026-06-26T10:37:04Z</time>
      </trkpt>
      <trkpt lat="46.07381" lon="6.78025">
        <ele>1917.8</ele>
        <time>2026-06-26T10:37:05Z</time>
      </trkpt>
      <trkpt lat="46.07382" lon="6.78025">
        <ele>1917.6</ele>
        <time>2026-06-26T10:37:06Z</time>
      </trkpt>
      <trkpt lat="46.07381" lon="6.78025">
        <ele>1917.5</ele>
        <time>2026-06-26T10:37:07Z</time>
      </trkpt>
      <trkpt lat="46.07381" lon="6.78025">
        <ele>1917.2</ele>
        <time>2026-06-26T10:37:08Z</time>
      </trkpt>
      <trkpt lat="46.07381" lon="6.78024">
        <ele>1917.1</ele>
        <time>2026-06-26T10:37:09Z</time>
      </trkpt>
      <trkpt lat="46.07382" lon="6.78024">
        <ele>1916.9</ele>
        <time>2026-06-26T10:37:10Z</time>
      </trkpt>
      <trkpt lat="46.07382" lon="6.78023">
        <ele>1916.8</ele>
        <time>2026-06-26T10:37:11Z</time>
      </trkpt>
      <trkpt lat="46.07382" lon="6.78023">
        <ele>1916.7</ele>
        <time>2026-06-26T10:37:12Z</time>
      </trkpt>
      <trkpt lat="46.07381" lon="6.78022">
        <ele>1916.6</ele>
        <time>2026-06-26T10:37:13Z</time>
      </trkpt>
      <trkpt lat="46.07381" lon="6.78021">
        <ele>1916.4</ele>
        <time>2026-06-26T10:37:14Z</time>
      </trkpt>
      <trkpt lat="46.07381" lon="6.78021">
        <ele>1916.3</ele>
        <time>2026-06-26T10:37:15Z</time>
      </trkpt>
      <trkpt lat="46.07381" lon="6.78021">
        <ele>1916.1</ele>
        <time>2026-06-26T10:37:16Z</time>
      </trkpt>
      <trkpt lat="46.0738" lon="6.78021">
        <ele>1916</ele>
        <time>2026-06-26T10:37:17Z</time>
      </trkpt>
      <trkpt lat="46.0738" lon="6.78021">
        <ele>1915.9</ele>
        <time>2026-06-26T10:37:18Z</time>
      </trkpt>
      <trkpt lat="46.0738" lon="6.78021">
        <ele>1915.8</ele>
        <time>2026-06-26T10:37:19Z</time>
      </trkpt>
      <trkpt lat="46.0738" lon="6.78021">
        <ele>1915.6</ele>
        <time>2026-06-26T10:37:20Z</time>
      </trkpt>
      <trkpt lat="46.0738" lon="6.78021">
        <ele>1915.4</ele>
        <time>2026-06-26T10:37:21Z</time>
      </trkpt>
      <trkpt lat="46.0738" lon="6.78021">
        <ele>1915.4</ele>
        <time>2026-06-26T10:37:22Z</time>
      </trkpt>
      <trkpt lat="46.07379" lon="6.78021">
        <ele>1915.4</ele>
        <time>2026-06-26T10:37:23Z</time>
      </trkpt>
      <trkpt lat="46.07379" lon="6.7802">
        <ele>1915.4</ele>
        <time>2026-06-26T10:37:24Z</time>
      </trkpt>
      <trkpt lat="46.07379" lon="6.78021">
        <ele>1915.3</ele>
        <time>2026-06-26T10:37:25Z</time>
      </trkpt>
      <trkpt lat="46.07379" lon="6.78021">
        <ele>1915.3</ele>
        <time>2026-06-26T10:37:26Z</time>
      </trkpt>
      <trkpt lat="46.07379" lon="6.78021">
        <ele>1915.3</ele>
        <time>2026-06-26T10:37:27Z</time>
      </trkpt>
      <trkpt lat="46.07379" lon="6.7802">
        <ele>1915.2</ele>
        <time>2026-06-26T10:37:28Z</time>
      </trkpt>
      <trkpt lat="46.07379" lon="6.7802">
        <ele>1915.3</ele>
        <time>2026-06-26T10:37:29Z</time>
      </trkpt>
      <trkpt lat="46.07378" lon="6.7802">
        <ele>1915.3</ele>
        <time>2026-06-26T10:37:30Z</time>
      </trkpt>
      <trkpt lat="46.07378" lon="6.7802">
        <ele>1915.3</ele>
        <time>2026-06-26T10:37:31Z</time>
      </trkpt>
      <trkpt lat="46.07379" lon="6.78019">
        <ele>1915.2</ele>
        <time>2026-06-26T10:37:32Z</time>
      </trkpt>
      <trkpt lat="46.07379" lon="6.78019">
        <ele>1915.1</ele>
        <time>2026-06-26T10:37:33Z</time>
      </trkpt>
      <trkpt lat="46.07379" lon="6.78018">
        <ele>1915</ele>
        <time>2026-06-26T10:37:34Z</time>
      </trkpt>
      <trkpt lat="46.07379" lon="6.78017">
        <ele>1914.8</ele>
        <time>2026-06-26T10:37:35Z</time>
      </trkpt>
      <trkpt lat="46.0738" lon="6.78017">
        <ele>1914.6</ele>
        <time>2026-06-26T10:37:36Z</time>
      </trkpt>
      <trkpt lat="46.0738" lon="6.78017">
        <ele>1914.4</ele>
        <time>2026-06-26T10:37:37Z</time>
      </trkpt>
      <trkpt lat="46.0738" lon="6.78017">
        <ele>1914.3</ele>
        <time>2026-06-26T10:37:38Z</time>
      </trkpt>
      <trkpt lat="46.07381" lon="6.78017">
        <ele>1914.1</ele>
        <time>2026-06-26T10:37:39Z</time>
      </trkpt>
      <trkpt lat="46.0738" lon="6.78017">
        <ele>1914</ele>
        <time>2026-06-26T10:37:40Z</time>
      </trkpt>
      <trkpt lat="46.0738" lon="6.78016">
        <ele>1914</ele>
        <time>2026-06-26T10:37:41Z</time>
      </trkpt>
      <trkpt lat="46.0738" lon="6.78016">
        <ele>1913.8</ele>
        <time>2026-06-26T10:37:42Z</time>
      </trkpt>
      <trkpt lat="46.07379" lon="6.78015">
        <ele>1913.7</ele>
        <time>2026-06-26T10:37:43Z</time>
      </trkpt>
      <trkpt lat="46.07379" lon="6.78015">
        <ele>1913.5</ele>
        <time>2026-06-26T10:37:44Z</time>
      </trkpt>
      <trkpt lat="46.07379" lon="6.78014">
        <ele>1913.4</ele>
        <time>2026-06-26T10:37:45Z</time>
      </trkpt>
      <trkpt lat="46.07379" lon="6.78014">
        <ele>1913.3</ele>
        <time>2026-06-26T10:37:46Z</time>
      </trkpt>
      <trkpt lat="46.07379" lon="6.78013">
        <ele>1913.1</ele>
        <time>2026-06-26T10:37:47Z</time>
      </trkpt>
      <trkpt lat="46.07379" lon="6.78013">
        <ele>1912.9</ele>
        <time>2026-06-26T10:37:48Z</time>
      </trkpt>
      <trkpt lat="46.07379" lon="6.78012">
        <ele>1912.8</ele>
        <time>2026-06-26T10:37:49Z</time>
      </trkpt>
      <trkpt lat="46.07379" lon="6.78012">
        <ele>1912.7</ele>
        <time>2026-06-26T10:37:50Z</time>
      </trkpt>
      <trkpt lat="46.07379" lon="6.78012">
        <ele>1912.7</ele>
        <time>2026-06-26T10:37:51Z</time>
      </trkpt>
      <trkpt lat="46.07379" lon="6.78012">
        <ele>1912.7</ele>
        <time>2026-06-26T10:37:52Z</time>
      </trkpt>
      <trkpt lat="46.07379" lon="6.78011">
        <ele>1912.7</ele>
        <time>2026-06-26T10:37:53Z</time>
      </trkpt>
      <trkpt lat="46.07379" lon="6.78011">
        <ele>1912.5</ele>
        <time>2026-06-26T10:37:54Z</time>
      </trkpt>
      <trkpt lat="46.07378" lon="6.78011">
        <ele>1912.4</ele>
        <time>2026-06-26T10:37:55Z</time>
      </trkpt>
      <trkpt lat="46.07378" lon="6.7801">
        <ele>1912.2</ele>
        <time>2026-06-26T10:37:56Z</time>
      </trkpt>
      <trkpt lat="46.07378" lon="6.7801">
        <ele>1912.2</ele>
        <time>2026-06-26T10:37:57Z</time>
      </trkpt>
      <trkpt lat="46.07378" lon="6.7801">
        <ele>1912.1</ele>
        <time>2026-06-26T10:37:58Z</time>
      </trkpt>
      <trkpt lat="46.07378" lon="6.7801">
        <ele>1912.1</ele>
        <time>2026-06-26T10:37:59Z</time>
      </trkpt>
      <trkpt lat="46.07378" lon="6.7801">
        <ele>1912.1</ele>
        <time>2026-06-26T10:38:00Z</time>
      </trkpt>
      <trkpt lat="46.07378" lon="6.78009">
        <ele>1912</ele>
        <time>2026-06-26T10:38:01Z</time>
      </trkpt>
      <trkpt lat="46.07378" lon="6.78009">
        <ele>1912</ele>
        <time>2026-06-26T10:38:02Z</time>
      </trkpt>
      <trkpt lat="46.07377" lon="6.78008">
        <ele>1911.9</ele>
        <time>2026-06-26T10:38:03Z</time>
      </trkpt>
      <trkpt lat="46.07377" lon="6.78008">
        <ele>1911.8</ele>
        <time>2026-06-26T10:38:04Z</time>
      </trkpt>
      <trkpt lat="46.07377" lon="6.78007">
        <ele>1911.8</ele>
        <time>2026-06-26T10:38:05Z</time>
      </trkpt>
      <trkpt lat="46.07376" lon="6.78007">
        <ele>1911.7</ele>
        <time>2026-06-26T10:38:06Z</time>
      </trkpt>
      <trkpt lat="46.07376" lon="6.78006">
        <ele>1911.5</ele>
        <time>2026-06-26T10:38:07Z</time>
      </trkpt>
      <trkpt lat="46.07376" lon="6.78006">
        <ele>1911.4</ele>
        <time>2026-06-26T10:38:08Z</time>
      </trkpt>
      <trkpt lat="46.07376" lon="6.78005">
        <ele>1911.3</ele>
        <time>2026-06-26T10:38:09Z</time>
      </trkpt>
      <trkpt lat="46.07376" lon="6.78005">
        <ele>1911.2</ele>
        <time>2026-06-26T10:38:10Z</time>
      </trkpt>
      <trkpt lat="46.07375" lon="6.78004">
        <ele>1911.2</ele>
        <time>2026-06-26T10:38:11Z</time>
      </trkpt>
      <trkpt lat="46.07375" lon="6.78004">
        <ele>1911</ele>
        <time>2026-06-26T10:38:12Z</time>
      </trkpt>
      <trkpt lat="46.07374" lon="6.78004">
        <ele>1910.9</ele>
        <time>2026-06-26T10:38:13Z</time>
      </trkpt>
      <trkpt lat="46.07374" lon="6.78003">
        <ele>1910.8</ele>
        <time>2026-06-26T10:38:14Z</time>
      </trkpt>
      <trkpt lat="46.07374" lon="6.78003">
        <ele>1910.8</ele>
        <time>2026-06-26T10:38:15Z</time>
      </trkpt>
      <trkpt lat="46.07374" lon="6.78002">
        <ele>1910.6</ele>
        <time>2026-06-26T10:38:16Z</time>
      </trkpt>
      <trkpt lat="46.07373" lon="6.78001">
        <ele>1910.5</ele>
        <time>2026-06-26T10:38:17Z</time>
      </trkpt>
      <trkpt lat="46.07373" lon="6.78001">
        <ele>1910.4</ele>
        <time>2026-06-26T10:38:18Z</time>
      </trkpt>
      <trkpt lat="46.07373" lon="6.78001">
        <ele>1910.3</ele>
        <time>2026-06-26T10:38:19Z</time>
      </trkpt>
      <trkpt lat="46.07373" lon="6.78001">
        <ele>1910.2</ele>
        <time>2026-06-26T10:38:20Z</time>
      </trkpt>
      <trkpt lat="46.07373" lon="6.78001">
        <ele>1910.2</ele>
        <time>2026-06-26T10:38:21Z</time>
      </trkpt>
      <trkpt lat="46.07373" lon="6.78001">
        <ele>1910.1</ele>
        <time>2026-06-26T10:38:22Z</time>
      </trkpt>
      <trkpt lat="46.07373" lon="6.78001">
        <ele>1910.1</ele>
        <time>2026-06-26T10:38:23Z</time>
      </trkpt>
      <trkpt lat="46.07373" lon="6.78">
        <ele>1910</ele>
        <time>2026-06-26T10:38:24Z</time>
      </trkpt>
      <trkpt lat="46.07373" lon="6.78">
        <ele>1909.9</ele>
        <time>2026-06-26T10:38:25Z</time>
      </trkpt>
      <trkpt lat="46.07373" lon="6.78">
        <ele>1909.8</ele>
        <time>2026-06-26T10:38:26Z</time>
      </trkpt>
      <trkpt lat="46.07373" lon="6.78">
        <ele>1909.8</ele>
        <time>2026-06-26T10:38:27Z</time>
      </trkpt>
      <trkpt lat="46.07373" lon="6.77999">
        <ele>1909.6</ele>
        <time>2026-06-26T10:38:28Z</time>
      </trkpt>
      <trkpt lat="46.07373" lon="6.77998">
        <ele>1909.5</ele>
        <time>2026-06-26T10:38:29Z</time>
      </trkpt>
      <trkpt lat="46.07372" lon="6.77998">
        <ele>1909.4</ele>
        <time>2026-06-26T10:38:30Z</time>
      </trkpt>
      <trkpt lat="46.07372" lon="6.77997">
        <ele>1909.2</ele>
        <time>2026-06-26T10:38:31Z</time>
      </trkpt>
      <trkpt lat="46.07372" lon="6.77997">
        <ele>1909.1</ele>
        <time>2026-06-26T10:38:32Z</time>
      </trkpt>
      <trkpt lat="46.07371" lon="6.77996">
        <ele>1908.9</ele>
        <time>2026-06-26T10:38:33Z</time>
      </trkpt>
      <trkpt lat="46.07371" lon="6.77996">
        <ele>1908.7</ele>
        <time>2026-06-26T10:38:34Z</time>
      </trkpt>
      <trkpt lat="46.07371" lon="6.77996">
        <ele>1908.6</ele>
        <time>2026-06-26T10:38:35Z</time>
      </trkpt>
      <trkpt lat="46.07371" lon="6.77996">
        <ele>1908.5</ele>
        <time>2026-06-26T10:38:36Z</time>
      </trkpt>
      <trkpt lat="46.07371" lon="6.77995">
        <ele>1908.4</ele>
        <time>2026-06-26T10:38:37Z</time>
      </trkpt>
      <trkpt lat="46.0737" lon="6.77995">
        <ele>1908.3</ele>
        <time>2026-06-26T10:38:38Z</time>
      </trkpt>
      <trkpt lat="46.07369" lon="6.77995">
        <ele>1908.2</ele>
        <time>2026-06-26T10:38:39Z</time>
      </trkpt>
      <trkpt lat="46.07369" lon="6.77994">
        <ele>1908.1</ele>
        <time>2026-06-26T10:38:40Z</time>
      </trkpt>
      <trkpt lat="46.07369" lon="6.77994">
        <ele>1908</ele>
        <time>2026-06-26T10:38:41Z</time>
      </trkpt>
      <trkpt lat="46.07368" lon="6.77994">
        <ele>1907.9</ele>
        <time>2026-06-26T10:38:42Z</time>
      </trkpt>
      <trkpt lat="46.07368" lon="6.77994">
        <ele>1907.8</ele>
        <time>2026-06-26T10:38:43Z</time>
      </trkpt>
      <trkpt lat="46.07368" lon="6.77993">
        <ele>1907.7</ele>
        <time>2026-06-26T10:38:44Z</time>
      </trkpt>
      <trkpt lat="46.07368" lon="6.77994">
        <ele>1907.4</ele>
        <time>2026-06-26T10:38:45Z</time>
      </trkpt>
      <trkpt lat="46.07368" lon="6.77993">
        <ele>1907.3</ele>
        <time>2026-06-26T10:38:46Z</time>
      </trkpt>
      <trkpt lat="46.07367" lon="6.77994">
        <ele>1907.2</ele>
        <time>2026-06-26T10:38:47Z</time>
      </trkpt>
      <trkpt lat="46.07367" lon="6.77993">
        <ele>1907.1</ele>
        <time>2026-06-26T10:38:48Z</time>
      </trkpt>
      <trkpt lat="46.07366" lon="6.77993">
        <ele>1906.9</ele>
        <time>2026-06-26T10:38:49Z</time>
      </trkpt>
      <trkpt lat="46.07366" lon="6.77992">
        <ele>1906.9</ele>
        <time>2026-06-26T10:38:50Z</time>
      </trkpt>
      <trkpt lat="46.07365" lon="6.77991">
        <ele>1906.8</ele>
        <time>2026-06-26T10:38:51Z</time>
      </trkpt>
      <trkpt lat="46.07365" lon="6.77991">
        <ele>1906.8</ele>
        <time>2026-06-26T10:38:52Z</time>
      </trkpt>
      <trkpt lat="46.07364" lon="6.77991">
        <ele>1906.7</ele>
        <time>2026-06-26T10:38:53Z</time>
      </trkpt>
      <trkpt lat="46.07364" lon="6.7799">
        <ele>1906.7</ele>
        <time>2026-06-26T10:38:54Z</time>
      </trkpt>
      <trkpt lat="46.07364" lon="6.7799">
        <ele>1906.6</ele>
        <time>2026-06-26T10:38:55Z</time>
      </trkpt>
      <trkpt lat="46.07363" lon="6.7799">
        <ele>1906.5</ele>
        <time>2026-06-26T10:38:56Z</time>
      </trkpt>
      <trkpt lat="46.07363" lon="6.7799">
        <ele>1906.4</ele>
        <time>2026-06-26T10:38:57Z</time>
      </trkpt>
      <trkpt lat="46.07363" lon="6.77989">
        <ele>1906.3</ele>
        <time>2026-06-26T10:38:58Z</time>
      </trkpt>
      <trkpt lat="46.07362" lon="6.77989">
        <ele>1906.1</ele>
        <time>2026-06-26T10:38:59Z</time>
      </trkpt>
      <trkpt lat="46.07362" lon="6.77989">
        <ele>1906</ele>
        <time>2026-06-26T10:39:00Z</time>
      </trkpt>
      <trkpt lat="46.07362" lon="6.77989">
        <ele>1905.9</ele>
        <time>2026-06-26T10:39:01Z</time>
      </trkpt>
      <trkpt lat="46.07362" lon="6.77989">
        <ele>1905.7</ele>
        <time>2026-06-26T10:39:02Z</time>
      </trkpt>
      <trkpt lat="46.07362" lon="6.77988">
        <ele>1905.7</ele>
        <time>2026-06-26T10:39:03Z</time>
      </trkpt>
      <trkpt lat="46.07361" lon="6.77987">
        <ele>1905.7</ele>
        <time>2026-06-26T10:39:04Z</time>
      </trkpt>
      <trkpt lat="46.07361" lon="6.77987">
        <ele>1905.6</ele>
        <time>2026-06-26T10:39:05Z</time>
      </trkpt>
      <trkpt lat="46.07361" lon="6.77986">
        <ele>1905.3</ele>
        <time>2026-06-26T10:39:06Z</time>
      </trkpt>
      <trkpt lat="46.0736" lon="6.77985">
        <ele>1905.3</ele>
        <time>2026-06-26T10:39:07Z</time>
      </trkpt>
      <trkpt lat="46.0736" lon="6.77985">
        <ele>1905.3</ele>
        <time>2026-06-26T10:39:08Z</time>
      </trkpt>
      <trkpt lat="46.0736" lon="6.77985">
        <ele>1905.1</ele>
        <time>2026-06-26T10:39:09Z</time>
      </trkpt>
      <trkpt lat="46.0736" lon="6.77985">
        <ele>1905</ele>
        <time>2026-06-26T10:39:10Z</time>
      </trkpt>
      <trkpt lat="46.0736" lon="6.77984">
        <ele>1904.9</ele>
        <time>2026-06-26T10:39:11Z</time>
      </trkpt>
      <trkpt lat="46.07359" lon="6.77984">
        <ele>1904.8</ele>
        <time>2026-06-26T10:39:12Z</time>
      </trkpt>
      <trkpt lat="46.07359" lon="6.77983">
        <ele>1904.7</ele>
        <time>2026-06-26T10:39:13Z</time>
      </trkpt>
      <trkpt lat="46.07359" lon="6.77983">
        <ele>1904.6</ele>
        <time>2026-06-26T10:39:14Z</time>
      </trkpt>
      <trkpt lat="46.07359" lon="6.77982">
        <ele>1904.6</ele>
        <time>2026-06-26T10:39:15Z</time>
      </trkpt>
      <trkpt lat="46.07359" lon="6.77982">
        <ele>1904.5</ele>
        <time>2026-06-26T10:39:16Z</time>
      </trkpt>
      <trkpt lat="46.07359" lon="6.77982">
        <ele>1904.4</ele>
        <time>2026-06-26T10:39:17Z</time>
      </trkpt>
      <trkpt lat="46.07358" lon="6.77982">
        <ele>1904.4</ele>
        <time>2026-06-26T10:39:18Z</time>
      </trkpt>
      <trkpt lat="46.07358" lon="6.77982">
        <ele>1904.3</ele>
        <time>2026-06-26T10:39:19Z</time>
      </trkpt>
      <trkpt lat="46.07357" lon="6.77982">
        <ele>1904.3</ele>
        <time>2026-06-26T10:39:20Z</time>
      </trkpt>
      <trkpt lat="46.07357" lon="6.77981">
        <ele>1904.3</ele>
        <time>2026-06-26T10:39:21Z</time>
      </trkpt>
      <trkpt lat="46.07357" lon="6.77981">
        <ele>1904.3</ele>
        <time>2026-06-26T10:39:22Z</time>
      </trkpt>
      <trkpt lat="46.07357" lon="6.77981">
        <ele>1904.3</ele>
        <time>2026-06-26T10:39:23Z</time>
      </trkpt>
      <trkpt lat="46.07356" lon="6.77981">
        <ele>1904.2</ele>
        <time>2026-06-26T10:39:24Z</time>
      </trkpt>
      <trkpt lat="46.07356" lon="6.77981">
        <ele>1904.1</ele>
        <time>2026-06-26T10:39:25Z</time>
      </trkpt>
      <trkpt lat="46.07356" lon="6.77981">
        <ele>1904</ele>
        <time>2026-06-26T10:39:26Z</time>
      </trkpt>
      <trkpt lat="46.07356" lon="6.77981">
        <ele>1904</ele>
        <time>2026-06-26T10:39:27Z</time>
      </trkpt>
      <trkpt lat="46.07356" lon="6.77981">
        <ele>1904</ele>
        <time>2026-06-26T10:39:28Z</time>
      </trkpt>
      <trkpt lat="46.07356" lon="6.77981">
        <ele>1904</ele>
        <time>2026-06-26T10:39:29Z</time>
      </trkpt>
      <trkpt lat="46.07356" lon="6.77981">
        <ele>1903.9</ele>
        <time>2026-06-26T10:39:30Z</time>
      </trkpt>
      <trkpt lat="46.07356" lon="6.77981">
        <ele>1903.8</ele>
        <time>2026-06-26T10:39:31Z</time>
      </trkpt>
      <trkpt lat="46.07356" lon="6.77981">
        <ele>1903.7</ele>
        <time>2026-06-26T10:39:32Z</time>
      </trkpt>
      <trkpt lat="46.07356" lon="6.77981">
        <ele>1903.7</ele>
        <time>2026-06-26T10:39:33Z</time>
      </trkpt>
      <trkpt lat="46.07355" lon="6.77981">
        <ele>1903.6</ele>
        <time>2026-06-26T10:39:34Z</time>
      </trkpt>
      <trkpt lat="46.07355" lon="6.7798">
        <ele>1903.6</ele>
        <time>2026-06-26T10:39:35Z</time>
      </trkpt>
      <trkpt lat="46.07354" lon="6.7798">
        <ele>1903.6</ele>
        <time>2026-06-26T10:39:36Z</time>
      </trkpt>
      <trkpt lat="46.07354" lon="6.7798">
        <ele>1903.5</ele>
        <time>2026-06-26T10:39:37Z</time>
      </trkpt>
      <trkpt lat="46.07355" lon="6.7798">
        <ele>1903.5</ele>
        <time>2026-06-26T10:39:38Z</time>
      </trkpt>
      <trkpt lat="46.07355" lon="6.7798">
        <ele>1903.5</ele>
        <time>2026-06-26T10:39:39Z</time>
      </trkpt>
      <trkpt lat="46.07355" lon="6.7798">
        <ele>1903.4</ele>
        <time>2026-06-26T10:39:40Z</time>
      </trkpt>
      <trkpt lat="46.07354" lon="6.7798">
        <ele>1903.3</ele>
        <time>2026-06-26T10:39:41Z</time>
      </trkpt>
      <trkpt lat="46.07354" lon="6.7798">
        <ele>1903.4</ele>
        <time>2026-06-26T10:39:42Z</time>
      </trkpt>
      <trkpt lat="46.07354" lon="6.7798">
        <ele>1903.4</ele>
        <time>2026-06-26T10:39:43Z</time>
      </trkpt>
      <trkpt lat="46.07353" lon="6.7798">
        <ele>1903.3</ele>
        <time>2026-06-26T10:39:44Z</time>
      </trkpt>
      <trkpt lat="46.07353" lon="6.7798">
        <ele>1903.2</ele>
        <time>2026-06-26T10:39:45Z</time>
      </trkpt>
      <trkpt lat="46.07352" lon="6.77979">
        <ele>1903.1</ele>
        <time>2026-06-26T10:39:46Z</time>
      </trkpt>
      <trkpt lat="46.07352" lon="6.77979">
        <ele>1903</ele>
        <time>2026-06-26T10:39:47Z</time>
      </trkpt>
      <trkpt lat="46.07351" lon="6.77978">
        <ele>1902.9</ele>
        <time>2026-06-26T10:39:48Z</time>
      </trkpt>
      <trkpt lat="46.07351" lon="6.77978">
        <ele>1902.8</ele>
        <time>2026-06-26T10:39:49Z</time>
      </trkpt>
      <trkpt lat="46.0735" lon="6.77978">
        <ele>1902.8</ele>
        <time>2026-06-26T10:39:50Z</time>
      </trkpt>
      <trkpt lat="46.0735" lon="6.77977">
        <ele>1902.8</ele>
        <time>2026-06-26T10:39:51Z</time>
      </trkpt>
      <trkpt lat="46.07349" lon="6.77977">
        <ele>1902.7</ele>
        <time>2026-06-26T10:39:52Z</time>
      </trkpt>
      <trkpt lat="46.07349" lon="6.77977">
        <ele>1902.6</ele>
        <time>2026-06-26T10:39:53Z</time>
      </trkpt>
      <trkpt lat="46.07349" lon="6.77977">
        <ele>1902.5</ele>
        <time>2026-06-26T10:39:54Z</time>
      </trkpt>
      <trkpt lat="46.07349" lon="6.77977">
        <ele>1902.4</ele>
        <time>2026-06-26T10:39:55Z</time>
      </trkpt>
      <trkpt lat="46.07348" lon="6.77977">
        <ele>1902.3</ele>
        <time>2026-06-26T10:39:56Z</time>
      </trkpt>
      <trkpt lat="46.07348" lon="6.77977">
        <ele>1902.3</ele>
        <time>2026-06-26T10:39:57Z</time>
      </trkpt>
      <trkpt lat="46.07347" lon="6.77977">
        <ele>1902.4</ele>
        <time>2026-06-26T10:39:58Z</time>
      </trkpt>
      <trkpt lat="46.07347" lon="6.77977">
        <ele>1902.4</ele>
        <time>2026-06-26T10:39:59Z</time>
      </trkpt>
      <trkpt lat="46.07347" lon="6.77976">
        <ele>1902.5</ele>
        <time>2026-06-26T10:40:00Z</time>
      </trkpt>
      <trkpt lat="46.07347" lon="6.77976">
        <ele>1902.5</ele>
        <time>2026-06-26T10:40:01Z</time>
      </trkpt>
      <trkpt lat="46.07346" lon="6.77975">
        <ele>1902.5</ele>
        <time>2026-06-26T10:40:02Z</time>
      </trkpt>
      <trkpt lat="46.07346" lon="6.77975">
        <ele>1902.5</ele>
        <time>2026-06-26T10:40:03Z</time>
      </trkpt>
      <trkpt lat="46.07346" lon="6.77975">
        <ele>1902.5</ele>
        <time>2026-06-26T10:40:04Z</time>
      </trkpt>
      <trkpt lat="46.07346" lon="6.77974">
        <ele>1902.4</ele>
        <time>2026-06-26T10:40:05Z</time>
      </trkpt>
      <trkpt lat="46.07345" lon="6.77973">
        <ele>1902.3</ele>
        <time>2026-06-26T10:40:06Z</time>
      </trkpt>
      <trkpt lat="46.07344" lon="6.77973">
        <ele>1902.1</ele>
        <time>2026-06-26T10:40:07Z</time>
      </trkpt>
      <trkpt lat="46.07344" lon="6.77972">
        <ele>1902.1</ele>
        <time>2026-06-26T10:40:08Z</time>
      </trkpt>
      <trkpt lat="46.07343" lon="6.77972">
        <ele>1902.1</ele>
        <time>2026-06-26T10:40:09Z</time>
      </trkpt>
      <trkpt lat="46.07342" lon="6.77972">
        <ele>1902.1</ele>
        <time>2026-06-26T10:40:10Z</time>
      </trkpt>
      <trkpt lat="46.07342" lon="6.77971">
        <ele>1902.1</ele>
        <time>2026-06-26T10:40:11Z</time>
      </trkpt>
      <trkpt lat="46.07342" lon="6.77971">
        <ele>1902.2</ele>
        <time>2026-06-26T10:40:12Z</time>
      </trkpt>
      <trkpt lat="46.07342" lon="6.77971">
        <ele>1902.2</ele>
        <time>2026-06-26T10:40:13Z</time>
      </trkpt>
      <trkpt lat="46.07341" lon="6.7797">
        <ele>1902.2</ele>
        <time>2026-06-26T10:40:14Z</time>
      </trkpt>
      <trkpt lat="46.07341" lon="6.7797">
        <ele>1902.2</ele>
        <time>2026-06-26T10:40:15Z</time>
      </trkpt>
      <trkpt lat="46.07341" lon="6.7797">
        <ele>1902.3</ele>
        <time>2026-06-26T10:40:16Z</time>
      </trkpt>
      <trkpt lat="46.07341" lon="6.77971">
        <ele>1902.3</ele>
        <time>2026-06-26T10:40:17Z</time>
      </trkpt>
      <trkpt lat="46.07341" lon="6.77971">
        <ele>1902.2</ele>
        <time>2026-06-26T10:40:18Z</time>
      </trkpt>
      <trkpt lat="46.07341" lon="6.77971">
        <ele>1902.2</ele>
        <time>2026-06-26T10:40:19Z</time>
      </trkpt>
      <trkpt lat="46.07341" lon="6.77971">
        <ele>1902.2</ele>
        <time>2026-06-26T10:40:20Z</time>
      </trkpt>
      <trkpt lat="46.07341" lon="6.77971">
        <ele>1902.1</ele>
        <time>2026-06-26T10:40:21Z</time>
      </trkpt>
      <trkpt lat="46.07341" lon="6.77972">
        <ele>1902.1</ele>
        <time>2026-06-26T10:40:22Z</time>
      </trkpt>
      <trkpt lat="46.0734" lon="6.77972">
        <ele>1902.1</ele>
        <time>2026-06-26T10:40:23Z</time>
      </trkpt>
      <trkpt lat="46.07341" lon="6.77972">
        <ele>1901.9</ele>
        <time>2026-06-26T10:40:24Z</time>
      </trkpt>
      <trkpt lat="46.0734" lon="6.77972">
        <ele>1901.9</ele>
        <time>2026-06-26T10:40:25Z</time>
      </trkpt>
      <trkpt lat="46.0734" lon="6.77972">
        <ele>1901.8</ele>
        <time>2026-06-26T10:40:26Z</time>
      </trkpt>
      <trkpt lat="46.0734" lon="6.77972">
        <ele>1901.8</ele>
        <time>2026-06-26T10:40:27Z</time>
      </trkpt>
      <trkpt lat="46.0734" lon="6.77973">
        <ele>1901.8</ele>
        <time>2026-06-26T10:40:28Z</time>
      </trkpt>
      <trkpt lat="46.0734" lon="6.77973">
        <ele>1901.8</ele>
        <time>2026-06-26T10:40:29Z</time>
      </trkpt>
      <trkpt lat="46.0734" lon="6.77973">
        <ele>1901.8</ele>
        <time>2026-06-26T10:40:30Z</time>
      </trkpt>
      <trkpt lat="46.0734" lon="6.77973">
        <ele>1901.8</ele>
        <time>2026-06-26T10:40:31Z</time>
      </trkpt>
      <trkpt lat="46.0734" lon="6.77973">
        <ele>1901.8</ele>
        <time>2026-06-26T10:40:32Z</time>
      </trkpt>
      <trkpt lat="46.0734" lon="6.77973">
        <ele>1901.9</ele>
        <time>2026-06-26T10:40:33Z</time>
      </trkpt>
      <trkpt lat="46.0734" lon="6.77973">
        <ele>1901.9</ele>
        <time>2026-06-26T10:40:34Z</time>
      </trkpt>
      <trkpt lat="46.0734" lon="6.77973">
        <ele>1902.1</ele>
        <time>2026-06-26T10:40:35Z</time>
      </trkpt>
      <trkpt lat="46.0734" lon="6.77973">
        <ele>1902</ele>
        <time>2026-06-26T10:40:36Z</time>
      </trkpt>
      <trkpt lat="46.0734" lon="6.77973">
        <ele>1902</ele>
        <time>2026-06-26T10:40:37Z</time>
      </trkpt>
      <trkpt lat="46.0734" lon="6.77973">
        <ele>1902.1</ele>
        <time>2026-06-26T10:40:38Z</time>
      </trkpt>
      <trkpt lat="46.0734" lon="6.77973">
        <ele>1902.1</ele>
        <time>2026-06-26T10:40:39Z</time>
      </trkpt>
      <trkpt lat="46.0734" lon="6.77973">
        <ele>1902.1</ele>
        <time>2026-06-26T10:40:40Z</time>
      </trkpt>
      <trkpt lat="46.0734" lon="6.77973">
        <ele>1902</ele>
        <time>2026-06-26T10:40:41Z</time>
      </trkpt>
      <trkpt lat="46.0734" lon="6.77973">
        <ele>1902</ele>
        <time>2026-06-26T10:40:42Z</time>
      </trkpt>
      <trkpt lat="46.0734" lon="6.77973">
        <ele>1902</ele>
        <time>2026-06-26T10:40:43Z</time>
      </trkpt>
      <trkpt lat="46.0734" lon="6.77973">
        <ele>1902</ele>
        <time>2026-06-26T10:40:44Z</time>
      </trkpt>
      <trkpt lat="46.0734" lon="6.77973">
        <ele>1902</ele>
        <time>2026-06-26T10:40:45Z</time>
      </trkpt>
      <trkpt lat="46.07341" lon="6.77973">
        <ele>1901.9</ele>
        <time>2026-06-26T10:40:46Z</time>
      </trkpt>
      <trkpt lat="46.07341" lon="6.77973">
        <ele>1901.9</ele>
        <time>2026-06-26T10:40:47Z</time>
      </trkpt>
      <trkpt lat="46.07341" lon="6.77973">
        <ele>1901.9</ele>
        <time>2026-06-26T10:40:48Z</time>
      </trkpt>
      <trkpt lat="46.07341" lon="6.77973">
        <ele>1901.9</ele>
        <time>2026-06-26T10:40:49Z</time>
      </trkpt>
      <trkpt lat="46.07341" lon="6.77973">
        <ele>1901.9</ele>
        <time>2026-06-26T10:40:50Z</time>
      </trkpt>
      <trkpt lat="46.07341" lon="6.77973">
        <ele>1901.9</ele>
        <time>2026-06-26T10:40:51Z</time>
      </trkpt>
      <trkpt lat="46.07341" lon="6.77973">
        <ele>1901.9</ele>
        <time>2026-06-26T10:40:52Z</time>
      </trkpt>
      <trkpt lat="46.07341" lon="6.77973">
        <ele>1901.9</ele>
        <time>2026-06-26T10:40:53Z</time>
      </trkpt>
      <trkpt lat="46.07341" lon="6.77973">
        <ele>1901.9</ele>
        <time>2026-06-26T10:40:54Z</time>
      </trkpt>
      <trkpt lat="46.07341" lon="6.77973">
        <ele>1902.1</ele>
        <time>2026-06-26T10:40:55Z</time>
      </trkpt>
      <trkpt lat="46.07342" lon="6.77974">
        <ele>1902.1</ele>
        <time>2026-06-26T10:40:56Z</time>
      </trkpt>
      <trkpt lat="46.07342" lon="6.77974">
        <ele>1902.1</ele>
        <time>2026-06-26T10:40:57Z</time>
      </trkpt>
      <trkpt lat="46.07342" lon="6.77974">
        <ele>1902.1</ele>
        <time>2026-06-26T10:40:58Z</time>
      </trkpt>
      <trkpt lat="46.07342" lon="6.77974">
        <ele>1902.2</ele>
        <time>2026-06-26T10:40:59Z</time>
      </trkpt>
      <trkpt lat="46.07343" lon="6.77974">
        <ele>1902.2</ele>
        <time>2026-06-26T10:41:00Z</time>
      </trkpt>
      <trkpt lat="46.07343" lon="6.77974">
        <ele>1902.2</ele>
        <time>2026-06-26T10:41:01Z</time>
      </trkpt>
      <trkpt lat="46.07343" lon="6.77974">
        <ele>1902.3</ele>
        <time>2026-06-26T10:41:02Z</time>
      </trkpt>
      <trkpt lat="46.07343" lon="6.77974">
        <ele>1902.3</ele>
        <time>2026-06-26T10:41:03Z</time>
      </trkpt>
      <trkpt lat="46.07343" lon="6.77974">
        <ele>1902.3</ele>
        <time>2026-06-26T10:41:04Z</time>
      </trkpt>
      <trkpt lat="46.07343" lon="6.77974">
        <ele>1902.2</ele>
        <time>2026-06-26T10:41:05Z</time>
      </trkpt>
      <trkpt lat="46.07343" lon="6.77974">
        <ele>1902.2</ele>
        <time>2026-06-26T10:41:06Z</time>
      </trkpt>
      <trkpt lat="46.07343" lon="6.77974">
        <ele>1902.2</ele>
        <time>2026-06-26T10:41:07Z</time>
      </trkpt>
      <trkpt lat="46.07343" lon="6.77974">
        <ele>1902.2</ele>
        <time>2026-06-26T10:41:08Z</time>
      </trkpt>
      <trkpt lat="46.07343" lon="6.77974">
        <ele>1902.3</ele>
        <time>2026-06-26T10:41:09Z</time>
      </trkpt>
      <trkpt lat="46.07343" lon="6.77974">
        <ele>1902.3</ele>
        <time>2026-06-26T10:41:10Z</time>
      </trkpt>
      <trkpt lat="46.07343" lon="6.77974">
        <ele>1902.4</ele>
        <time>2026-06-26T10:41:11Z</time>
      </trkpt>
      <trkpt lat="46.07343" lon="6.77974">
        <ele>1902.4</ele>
        <time>2026-06-26T10:41:12Z</time>
      </trkpt>
      <trkpt lat="46.07342" lon="6.77974">
        <ele>1902.4</ele>
        <time>2026-06-26T10:41:13Z</time>
      </trkpt>
      <trkpt lat="46.07342" lon="6.77974">
        <ele>1902.3</ele>
        <time>2026-06-26T10:41:14Z</time>
      </trkpt>
      <trkpt lat="46.07342" lon="6.77974">
        <ele>1902.3</ele>
        <time>2026-06-26T10:41:15Z</time>
      </trkpt>
      <trkpt lat="46.07342" lon="6.77974">
        <ele>1902.3</ele>
        <time>2026-06-26T10:41:16Z</time>
      </trkpt>
      <trkpt lat="46.07342" lon="6.77974">
        <ele>1902.3</ele>
        <time>2026-06-26T10:41:17Z</time>
      </trkpt>
      <trkpt lat="46.07342" lon="6.77974">
        <ele>1902.3</ele>
        <time>2026-06-26T10:41:18Z</time>
      </trkpt>
      <trkpt lat="46.07342" lon="6.77974">
        <ele>1902.3</ele>
        <time>2026-06-26T10:41:19Z</time>
      </trkpt>
      <trkpt lat="46.07342" lon="6.77974">
        <ele>1902.3</ele>
        <time>2026-06-26T10:41:20Z</time>
      </trkpt>
      <trkpt lat="46.07342" lon="6.77974">
        <ele>1902.3</ele>
        <time>2026-06-26T10:41:21Z</time>
      </trkpt>
      <trkpt lat="46.07342" lon="6.77974">
        <ele>1902.4</ele>
        <time>2026-06-26T10:41:22Z</time>
      </trkpt>
      <trkpt lat="46.07342" lon="6.77974">
        <ele>1902.4</ele>
        <time>2026-06-26T10:41:23Z</time>
      </trkpt>
      <trkpt lat="46.07342" lon="6.77974">
        <ele>1902.4</ele>
        <time>2026-06-26T10:41:24Z</time>
      </trkpt>
      <trkpt lat="46.07342" lon="6.77974">
        <ele>1902.4</ele>
        <time>2026-06-26T10:41:25Z</time>
      </trkpt>
      <trkpt lat="46.07342" lon="6.77974">
        <ele>1902.4</ele>
        <time>2026-06-26T10:41:26Z</time>
      </trkpt>
      <trkpt lat="46.07342" lon="6.77974">
        <ele>1902.3</ele>
        <time>2026-06-26T10:41:27Z</time>
      </trkpt>
      <trkpt lat="46.07342" lon="6.77973">
        <ele>1902.3</ele>
        <time>2026-06-26T10:41:28Z</time>
      </trkpt>
      <trkpt lat="46.07342" lon="6.77973">
        <ele>1902.2</ele>
        <time>2026-06-26T10:41:29Z</time>
      </trkpt>
      <trkpt lat="46.07341" lon="6.77973">
        <ele>1902.1</ele>
        <time>2026-06-26T10:41:30Z</time>
      </trkpt>
      <trkpt lat="46.07341" lon="6.77972">
        <ele>1902</ele>
        <time>2026-06-26T10:41:31Z</time>
      </trkpt>
      <trkpt lat="46.07341" lon="6.77973">
        <ele>1902</ele>
        <time>2026-06-26T10:41:32Z</time>
      </trkpt>
      <trkpt lat="46.0734" lon="6.77972">
        <ele>1902.1</ele>
        <time>2026-06-26T10:41:33Z</time>
      </trkpt>
      <trkpt lat="46.0734" lon="6.77972">
        <ele>1902.1</ele>
        <time>2026-06-26T10:41:34Z</time>
      </trkpt>
      <trkpt lat="46.0734" lon="6.77972">
        <ele>1902.1</ele>
        <time>2026-06-26T10:41:35Z</time>
      </trkpt>
      <trkpt lat="46.0734" lon="6.77972">
        <ele>1902</ele>
        <time>2026-06-26T10:41:36Z</time>
      </trkpt>
      <trkpt lat="46.0734" lon="6.77971">
        <ele>1901.9</ele>
        <time>2026-06-26T10:41:37Z</time>
      </trkpt>
      <trkpt lat="46.0734" lon="6.77971">
        <ele>1901.8</ele>
        <time>2026-06-26T10:41:38Z</time>
      </trkpt>
      <trkpt lat="46.0734" lon="6.77971">
        <ele>1901.7</ele>
        <time>2026-06-26T10:41:39Z</time>
      </trkpt>
      <trkpt lat="46.0734" lon="6.7797">
        <ele>1901.5</ele>
        <time>2026-06-26T10:41:40Z</time>
      </trkpt>
      <trkpt lat="46.0734" lon="6.7797">
        <ele>1901.1</ele>
        <time>2026-06-26T10:41:41Z</time>
      </trkpt>
      <trkpt lat="46.07341" lon="6.7797">
        <ele>1900.9</ele>
        <time>2026-06-26T10:41:42Z</time>
      </trkpt>
      <trkpt lat="46.07341" lon="6.77969">
        <ele>1900.8</ele>
        <time>2026-06-26T10:41:43Z</time>
      </trkpt>
      <trkpt lat="46.0734" lon="6.77969">
        <ele>1900.7</ele>
        <time>2026-06-26T10:41:44Z</time>
      </trkpt>
      <trkpt lat="46.0734" lon="6.77968">
        <ele>1900.6</ele>
        <time>2026-06-26T10:41:45Z</time>
      </trkpt>
      <trkpt lat="46.0734" lon="6.77968">
        <ele>1900.5</ele>
        <time>2026-06-26T10:41:46Z</time>
      </trkpt>
      <trkpt lat="46.07339" lon="6.77968">
        <ele>1900.4</ele>
        <time>2026-06-26T10:41:47Z</time>
      </trkpt>
      <trkpt lat="46.07339" lon="6.77967">
        <ele>1900.3</ele>
        <time>2026-06-26T10:41:48Z</time>
      </trkpt>
      <trkpt lat="46.07339" lon="6.77967">
        <ele>1900.2</ele>
        <time>2026-06-26T10:41:49Z</time>
      </trkpt>
      <trkpt lat="46.07339" lon="6.77967">
        <ele>1900.2</ele>
        <time>2026-06-26T10:41:50Z</time>
      </trkpt>
      <trkpt lat="46.0734" lon="6.77967">
        <ele>1900</ele>
        <time>2026-06-26T10:41:51Z</time>
      </trkpt>
      <trkpt lat="46.07339" lon="6.77966">
        <ele>1899.8</ele>
        <time>2026-06-26T10:41:52Z</time>
      </trkpt>
      <trkpt lat="46.07339" lon="6.77965">
        <ele>1899.6</ele>
        <time>2026-06-26T10:41:53Z</time>
      </trkpt>
      <trkpt lat="46.07339" lon="6.77965">
        <ele>1899.5</ele>
        <time>2026-06-26T10:41:54Z</time>
      </trkpt>
      <trkpt lat="46.07339" lon="6.77965">
        <ele>1899.5</ele>
        <time>2026-06-26T10:41:55Z</time>
      </trkpt>
      <trkpt lat="46.07339" lon="6.77966">
        <ele>1899.5</ele>
        <time>2026-06-26T10:41:56Z</time>
      </trkpt>
      <trkpt lat="46.07339" lon="6.77966">
        <ele>1899.4</ele>
        <time>2026-06-26T10:41:57Z</time>
      </trkpt>
      <trkpt lat="46.07339" lon="6.77965">
        <ele>1899.2</ele>
        <time>2026-06-26T10:41:58Z</time>
      </trkpt>
      <trkpt lat="46.07339" lon="6.77965">
        <ele>1899.2</ele>
        <time>2026-06-26T10:41:59Z</time>
      </trkpt>
      <trkpt lat="46.07339" lon="6.77965">
        <ele>1899.2</ele>
        <time>2026-06-26T10:42:00Z</time>
      </trkpt>
      <trkpt lat="46.07339" lon="6.77964">
        <ele>1899.2</ele>
        <time>2026-06-26T10:42:01Z</time>
      </trkpt>
      <trkpt lat="46.07339" lon="6.77964">
        <ele>1899.2</ele>
        <time>2026-06-26T10:42:02Z</time>
      </trkpt>
      <trkpt lat="46.07339" lon="6.77964">
        <ele>1899</ele>
        <time>2026-06-26T10:42:03Z</time>
      </trkpt>
      <trkpt lat="46.07339" lon="6.77963">
        <ele>1898.8</ele>
        <time>2026-06-26T10:42:04Z</time>
      </trkpt>
      <trkpt lat="46.07339" lon="6.77963">
        <ele>1898.7</ele>
        <time>2026-06-26T10:42:05Z</time>
      </trkpt>
      <trkpt lat="46.07339" lon="6.77962">
        <ele>1898.6</ele>
        <time>2026-06-26T10:42:06Z</time>
      </trkpt>
      <trkpt lat="46.07339" lon="6.77962">
        <ele>1898.5</ele>
        <time>2026-06-26T10:42:07Z</time>
      </trkpt>
      <trkpt lat="46.07339" lon="6.77961">
        <ele>1898.4</ele>
        <time>2026-06-26T10:42:08Z</time>
      </trkpt>
      <trkpt lat="46.07339" lon="6.77961">
        <ele>1898.3</ele>
        <time>2026-06-26T10:42:09Z</time>
      </trkpt>
      <trkpt lat="46.07339" lon="6.77961">
        <ele>1898</ele>
        <time>2026-06-26T10:42:10Z</time>
      </trkpt>
      <trkpt lat="46.07339" lon="6.7796">
        <ele>1897.7</ele>
        <time>2026-06-26T10:42:11Z</time>
      </trkpt>
      <trkpt lat="46.07339" lon="6.7796">
        <ele>1897.4</ele>
        <time>2026-06-26T10:42:12Z</time>
      </trkpt>
      <trkpt lat="46.07339" lon="6.7796">
        <ele>1897.3</ele>
        <time>2026-06-26T10:42:13Z</time>
      </trkpt>
      <trkpt lat="46.07339" lon="6.7796">
        <ele>1897.2</ele>
        <time>2026-06-26T10:42:14Z</time>
      </trkpt>
      <trkpt lat="46.07339" lon="6.77959">
        <ele>1897</ele>
        <time>2026-06-26T10:42:15Z</time>
      </trkpt>
      <trkpt lat="46.07339" lon="6.77959">
        <ele>1896.7</ele>
        <time>2026-06-26T10:42:16Z</time>
      </trkpt>
      <trkpt lat="46.07339" lon="6.77958">
        <ele>1896.5</ele>
        <time>2026-06-26T10:42:17Z</time>
      </trkpt>
      <trkpt lat="46.07339" lon="6.77957">
        <ele>1896.5</ele>
        <time>2026-06-26T10:42:18Z</time>
      </trkpt>
      <trkpt lat="46.07339" lon="6.77957">
        <ele>1896.3</ele>
        <time>2026-06-26T10:42:19Z</time>
      </trkpt>
      <trkpt lat="46.07339" lon="6.77956">
        <ele>1896.1</ele>
        <time>2026-06-26T10:42:20Z</time>
      </trkpt>
      <trkpt lat="46.07339" lon="6.77956">
        <ele>1895.9</ele>
        <time>2026-06-26T10:42:21Z</time>
      </trkpt>
      <trkpt lat="46.07339" lon="6.77955">
        <ele>1895.7</ele>
        <time>2026-06-26T10:42:22Z</time>
      </trkpt>
      <trkpt lat="46.07338" lon="6.77954">
        <ele>1895.4</ele>
        <time>2026-06-26T10:42:23Z</time>
      </trkpt>
      <trkpt lat="46.07338" lon="6.77954">
        <ele>1895.2</ele>
        <time>2026-06-26T10:42:24Z</time>
      </trkpt>
      <trkpt lat="46.07338" lon="6.77954">
        <ele>1894.9</ele>
        <time>2026-06-26T10:42:25Z</time>
      </trkpt>
      <trkpt lat="46.07338" lon="6.77953">
        <ele>1894.8</ele>
        <time>2026-06-26T10:42:26Z</time>
      </trkpt>
      <trkpt lat="46.07338" lon="6.77953">
        <ele>1894.6</ele>
        <time>2026-06-26T10:42:27Z</time>
      </trkpt>
      <trkpt lat="46.07338" lon="6.77953">
        <ele>1894.4</ele>
        <time>2026-06-26T10:42:28Z</time>
      </trkpt>
      <trkpt lat="46.07338" lon="6.77952">
        <ele>1894.3</ele>
        <time>2026-06-26T10:42:29Z</time>
      </trkpt>
      <trkpt lat="46.07338" lon="6.77952">
        <ele>1894</ele>
        <time>2026-06-26T10:42:30Z</time>
      </trkpt>
      <trkpt lat="46.07338" lon="6.77952">
        <ele>1893.9</ele>
        <time>2026-06-26T10:42:31Z</time>
      </trkpt>
      <trkpt lat="46.07338" lon="6.77951">
        <ele>1893.8</ele>
        <time>2026-06-26T10:42:32Z</time>
      </trkpt>
      <trkpt lat="46.07338" lon="6.77951">
        <ele>1893.7</ele>
        <time>2026-06-26T10:42:33Z</time>
      </trkpt>
      <trkpt lat="46.07338" lon="6.77951">
        <ele>1893.5</ele>
        <time>2026-06-26T10:42:34Z</time>
      </trkpt>
      <trkpt lat="46.07337" lon="6.77951">
        <ele>1893.4</ele>
        <time>2026-06-26T10:42:35Z</time>
      </trkpt>
      <trkpt lat="46.07337" lon="6.77951">
        <ele>1893.3</ele>
        <time>2026-06-26T10:42:36Z</time>
      </trkpt>
      <trkpt lat="46.07337" lon="6.7795">
        <ele>1893.2</ele>
        <time>2026-06-26T10:42:37Z</time>
      </trkpt>
      <trkpt lat="46.07336" lon="6.7795">
        <ele>1893</ele>
        <time>2026-06-26T10:42:38Z</time>
      </trkpt>
      <trkpt lat="46.07336" lon="6.7795">
        <ele>1892.8</ele>
        <time>2026-06-26T10:42:39Z</time>
      </trkpt>
      <trkpt lat="46.07335" lon="6.7795">
        <ele>1892.7</ele>
        <time>2026-06-26T10:42:40Z</time>
      </trkpt>
      <trkpt lat="46.07335" lon="6.7795">
        <ele>1892.6</ele>
        <time>2026-06-26T10:42:41Z</time>
      </trkpt>
      <trkpt lat="46.07334" lon="6.7795">
        <ele>1892.6</ele>
        <time>2026-06-26T10:42:42Z</time>
      </trkpt>
      <trkpt lat="46.07334" lon="6.77949">
        <ele>1892.6</ele>
        <time>2026-06-26T10:42:43Z</time>
      </trkpt>
      <trkpt lat="46.07334" lon="6.77949">
        <ele>1892.5</ele>
        <time>2026-06-26T10:42:44Z</time>
      </trkpt>
      <trkpt lat="46.07335" lon="6.77949">
        <ele>1892.4</ele>
        <time>2026-06-26T10:42:45Z</time>
      </trkpt>
      <trkpt lat="46.07335" lon="6.77949">
        <ele>1892.3</ele>
        <time>2026-06-26T10:42:46Z</time>
      </trkpt>
      <trkpt lat="46.07335" lon="6.77948">
        <ele>1892.3</ele>
        <time>2026-06-26T10:42:47Z</time>
      </trkpt>
      <trkpt lat="46.07334" lon="6.77948">
        <ele>1892.3</ele>
        <time>2026-06-26T10:42:48Z</time>
      </trkpt>
      <trkpt lat="46.07334" lon="6.77948">
        <ele>1892.3</ele>
        <time>2026-06-26T10:42:49Z</time>
      </trkpt>
      <trkpt lat="46.07333" lon="6.77948">
        <ele>1892.2</ele>
        <time>2026-06-26T10:42:50Z</time>
      </trkpt>
      <trkpt lat="46.07333" lon="6.77948">
        <ele>1892.1</ele>
        <time>2026-06-26T10:42:51Z</time>
      </trkpt>
      <trkpt lat="46.07333" lon="6.77948">
        <ele>1892</ele>
        <time>2026-06-26T10:42:52Z</time>
      </trkpt>
      <trkpt lat="46.07333" lon="6.77948">
        <ele>1891.8</ele>
        <time>2026-06-26T10:42:53Z</time>
      </trkpt>
      <trkpt lat="46.07333" lon="6.77947">
        <ele>1891.8</ele>
        <time>2026-06-26T10:42:54Z</time>
      </trkpt>
      <trkpt lat="46.07333" lon="6.77947">
        <ele>1891.7</ele>
        <time>2026-06-26T10:42:55Z</time>
      </trkpt>
      <trkpt lat="46.07333" lon="6.77947">
        <ele>1891.6</ele>
        <time>2026-06-26T10:42:56Z</time>
      </trkpt>
      <trkpt lat="46.07333" lon="6.77947">
        <ele>1891.5</ele>
        <time>2026-06-26T10:42:57Z</time>
      </trkpt>
      <trkpt lat="46.07333" lon="6.77948">
        <ele>1891.5</ele>
        <time>2026-06-26T10:42:58Z</time>
      </trkpt>
      <trkpt lat="46.07333" lon="6.77948">
        <ele>1891.5</ele>
        <time>2026-06-26T10:42:59Z</time>
      </trkpt>
      <trkpt lat="46.07333" lon="6.77947">
        <ele>1891.5</ele>
        <time>2026-06-26T10:43:00Z</time>
      </trkpt>
      <trkpt lat="46.07333" lon="6.77946">
        <ele>1891.4</ele>
        <time>2026-06-26T10:43:01Z</time>
      </trkpt>
      <trkpt lat="46.07333" lon="6.77946">
        <ele>1891.3</ele>
        <time>2026-06-26T10:43:02Z</time>
      </trkpt>
      <trkpt lat="46.07334" lon="6.77946">
        <ele>1891.2</ele>
        <time>2026-06-26T10:43:03Z</time>
      </trkpt>
      <trkpt lat="46.07333" lon="6.77945">
        <ele>1891.1</ele>
        <time>2026-06-26T10:43:04Z</time>
      </trkpt>
      <trkpt lat="46.07333" lon="6.77944">
        <ele>1891</ele>
        <time>2026-06-26T10:43:05Z</time>
      </trkpt>
      <trkpt lat="46.07333" lon="6.77943">
        <ele>1890.8</ele>
        <time>2026-06-26T10:43:06Z</time>
      </trkpt>
      <trkpt lat="46.07333" lon="6.77943">
        <ele>1890.6</ele>
        <time>2026-06-26T10:43:07Z</time>
      </trkpt>
      <trkpt lat="46.07332" lon="6.77942">
        <ele>1890.5</ele>
        <time>2026-06-26T10:43:08Z</time>
      </trkpt>
      <trkpt lat="46.07332" lon="6.77942">
        <ele>1890.3</ele>
        <time>2026-06-26T10:43:09Z</time>
      </trkpt>
      <trkpt lat="46.07331" lon="6.77942">
        <ele>1890.2</ele>
        <time>2026-06-26T10:43:10Z</time>
      </trkpt>
      <trkpt lat="46.07331" lon="6.77941">
        <ele>1890</ele>
        <time>2026-06-26T10:43:11Z</time>
      </trkpt>
      <trkpt lat="46.07331" lon="6.7794">
        <ele>1889.8</ele>
        <time>2026-06-26T10:43:12Z</time>
      </trkpt>
      <trkpt lat="46.07331" lon="6.7794">
        <ele>1889.6</ele>
        <time>2026-06-26T10:43:13Z</time>
      </trkpt>
      <trkpt lat="46.07331" lon="6.77939">
        <ele>1889.5</ele>
        <time>2026-06-26T10:43:14Z</time>
      </trkpt>
      <trkpt lat="46.0733" lon="6.77939">
        <ele>1889.4</ele>
        <time>2026-06-26T10:43:15Z</time>
      </trkpt>
      <trkpt lat="46.0733" lon="6.77938">
        <ele>1889.2</ele>
        <time>2026-06-26T10:43:16Z</time>
      </trkpt>
      <trkpt lat="46.0733" lon="6.77938">
        <ele>1889.1</ele>
        <time>2026-06-26T10:43:17Z</time>
      </trkpt>
      <trkpt lat="46.07329" lon="6.77938">
        <ele>1888.9</ele>
        <time>2026-06-26T10:43:18Z</time>
      </trkpt>
      <trkpt lat="46.07329" lon="6.77937">
        <ele>1888.8</ele>
        <time>2026-06-26T10:43:19Z</time>
      </trkpt>
      <trkpt lat="46.07329" lon="6.77936">
        <ele>1888.6</ele>
        <time>2026-06-26T10:43:20Z</time>
      </trkpt>
      <trkpt lat="46.07329" lon="6.77936">
        <ele>1888.4</ele>
        <time>2026-06-26T10:43:21Z</time>
      </trkpt>
      <trkpt lat="46.07328" lon="6.77935">
        <ele>1888.3</ele>
        <time>2026-06-26T10:43:22Z</time>
      </trkpt>
      <trkpt lat="46.07328" lon="6.77934">
        <ele>1888.2</ele>
        <time>2026-06-26T10:43:23Z</time>
      </trkpt>
      <trkpt lat="46.07328" lon="6.77934">
        <ele>1888.1</ele>
        <time>2026-06-26T10:43:24Z</time>
      </trkpt>
      <trkpt lat="46.07327" lon="6.77933">
        <ele>1888</ele>
        <time>2026-06-26T10:43:25Z</time>
      </trkpt>
      <trkpt lat="46.07327" lon="6.77933">
        <ele>1887.9</ele>
        <time>2026-06-26T10:43:26Z</time>
      </trkpt>
      <trkpt lat="46.07327" lon="6.77933">
        <ele>1887.9</ele>
        <time>2026-06-26T10:43:27Z</time>
      </trkpt>
      <trkpt lat="46.07327" lon="6.77933">
        <ele>1887.9</ele>
        <time>2026-06-26T10:43:28Z</time>
      </trkpt>
      <trkpt lat="46.07327" lon="6.77933">
        <ele>1887.8</ele>
        <time>2026-06-26T10:43:29Z</time>
      </trkpt>
      <trkpt lat="46.07327" lon="6.77933">
        <ele>1887.7</ele>
        <time>2026-06-26T10:43:30Z</time>
      </trkpt>
      <trkpt lat="46.07327" lon="6.77932">
        <ele>1887.6</ele>
        <time>2026-06-26T10:43:31Z</time>
      </trkpt>
      <trkpt lat="46.07327" lon="6.77933">
        <ele>1887.6</ele>
        <time>2026-06-26T10:43:32Z</time>
      </trkpt>
      <trkpt lat="46.07327" lon="6.77932">
        <ele>1887.6</ele>
        <time>2026-06-26T10:43:33Z</time>
      </trkpt>
      <trkpt lat="46.07327" lon="6.77931">
        <ele>1887.5</ele>
        <time>2026-06-26T10:43:34Z</time>
      </trkpt>
      <trkpt lat="46.07328" lon="6.7793">
        <ele>1887.5</ele>
        <time>2026-06-26T10:43:35Z</time>
      </trkpt>
      <trkpt lat="46.07328" lon="6.7793">
        <ele>1887.3</ele>
        <time>2026-06-26T10:43:36Z</time>
      </trkpt>
      <trkpt lat="46.07327" lon="6.77929">
        <ele>1887.1</ele>
        <time>2026-06-26T10:43:37Z</time>
      </trkpt>
      <trkpt lat="46.07327" lon="6.77929">
        <ele>1887</ele>
        <time>2026-06-26T10:43:38Z</time>
      </trkpt>
      <trkpt lat="46.07327" lon="6.77929">
        <ele>1886.9</ele>
        <time>2026-06-26T10:43:39Z</time>
      </trkpt>
      <trkpt lat="46.07326" lon="6.77929">
        <ele>1886.8</ele>
        <time>2026-06-26T10:43:40Z</time>
      </trkpt>
      <trkpt lat="46.07326" lon="6.77929">
        <ele>1886.6</ele>
        <time>2026-06-26T10:43:41Z</time>
      </trkpt>
      <trkpt lat="46.07326" lon="6.77929">
        <ele>1886.4</ele>
        <time>2026-06-26T10:43:42Z</time>
      </trkpt>
      <trkpt lat="46.07326" lon="6.77929">
        <ele>1886.3</ele>
        <time>2026-06-26T10:43:43Z</time>
      </trkpt>
      <trkpt lat="46.07326" lon="6.77929">
        <ele>1886.2</ele>
        <time>2026-06-26T10:43:44Z</time>
      </trkpt>
      <trkpt lat="46.07326" lon="6.77929">
        <ele>1886</ele>
        <time>2026-06-26T10:43:45Z</time>
      </trkpt>
      <trkpt lat="46.07326" lon="6.77928">
        <ele>1885.9</ele>
        <time>2026-06-26T10:43:46Z</time>
      </trkpt>
      <trkpt lat="46.07326" lon="6.77928">
        <ele>1885.9</ele>
        <time>2026-06-26T10:43:47Z</time>
      </trkpt>
      <trkpt lat="46.07325" lon="6.77928">
        <ele>1885.8</ele>
        <time>2026-06-26T10:43:48Z</time>
      </trkpt>
      <trkpt lat="46.07325" lon="6.77927">
        <ele>1885.7</ele>
        <time>2026-06-26T10:43:49Z</time>
      </trkpt>
      <trkpt lat="46.07325" lon="6.77927">
        <ele>1885.6</ele>
        <time>2026-06-26T10:43:50Z</time>
      </trkpt>
      <trkpt lat="46.07325" lon="6.77926">
        <ele>1885.4</ele>
        <time>2026-06-26T10:43:51Z</time>
      </trkpt>
      <trkpt lat="46.07325" lon="6.77926">
        <ele>1885.2</ele>
        <time>2026-06-26T10:43:52Z</time>
      </trkpt>
      <trkpt lat="46.07325" lon="6.77925">
        <ele>1885</ele>
        <time>2026-06-26T10:43:53Z</time>
      </trkpt>
      <trkpt lat="46.07325" lon="6.77924">
        <ele>1884.8</ele>
        <time>2026-06-26T10:43:54Z</time>
      </trkpt>
      <trkpt lat="46.07325" lon="6.77924">
        <ele>1884.6</ele>
        <time>2026-06-26T10:43:55Z</time>
      </trkpt>
      <trkpt lat="46.07325" lon="6.77924">
        <ele>1884.5</ele>
        <time>2026-06-26T10:43:56Z</time>
      </trkpt>
      <trkpt lat="46.07325" lon="6.77924">
        <ele>1884.4</ele>
        <time>2026-06-26T10:43:57Z</time>
      </trkpt>
      <trkpt lat="46.07325" lon="6.77923">
        <ele>1884.1</ele>
        <time>2026-06-26T10:43:58Z</time>
      </trkpt>
      <trkpt lat="46.07324" lon="6.77923">
        <ele>1884</ele>
        <time>2026-06-26T10:43:59Z</time>
      </trkpt>
      <trkpt lat="46.07324" lon="6.77922">
        <ele>1883.8</ele>
        <time>2026-06-26T10:44:00Z</time>
      </trkpt>
      <trkpt lat="46.07324" lon="6.77921">
        <ele>1883.7</ele>
        <time>2026-06-26T10:44:01Z</time>
      </trkpt>
      <trkpt lat="46.07323" lon="6.7792">
        <ele>1883.6</ele>
        <time>2026-06-26T10:44:02Z</time>
      </trkpt>
      <trkpt lat="46.07323" lon="6.77918">
        <ele>1883.5</ele>
        <time>2026-06-26T10:44:03Z</time>
      </trkpt>
      <trkpt lat="46.07322" lon="6.77917">
        <ele>1883.4</ele>
        <time>2026-06-26T10:44:04Z</time>
      </trkpt>
      <trkpt lat="46.07322" lon="6.77917">
        <ele>1883.4</ele>
        <time>2026-06-26T10:44:05Z</time>
      </trkpt>
      <trkpt lat="46.07322" lon="6.77916">
        <ele>1883.3</ele>
        <time>2026-06-26T10:44:06Z</time>
      </trkpt>
      <trkpt lat="46.07322" lon="6.77915">
        <ele>1883.3</ele>
        <time>2026-06-26T10:44:07Z</time>
      </trkpt>
      <trkpt lat="46.07322" lon="6.77915">
        <ele>1883.4</ele>
        <time>2026-06-26T10:44:08Z</time>
      </trkpt>
      <trkpt lat="46.07322" lon="6.77914">
        <ele>1883.5</ele>
        <time>2026-06-26T10:44:09Z</time>
      </trkpt>
      <trkpt lat="46.07322" lon="6.77914">
        <ele>1883.7</ele>
        <time>2026-06-26T10:44:10Z</time>
      </trkpt>
      <trkpt lat="46.07322" lon="6.77914">
        <ele>1883.8</ele>
        <time>2026-06-26T10:44:11Z</time>
      </trkpt>
      <trkpt lat="46.07322" lon="6.77914">
        <ele>1883.8</ele>
        <time>2026-06-26T10:44:12Z</time>
      </trkpt>
      <trkpt lat="46.07322" lon="6.77914">
        <ele>1883.9</ele>
        <time>2026-06-26T10:44:13Z</time>
      </trkpt>
      <trkpt lat="46.07322" lon="6.77914">
        <ele>1884</ele>
        <time>2026-06-26T10:44:14Z</time>
      </trkpt>
      <trkpt lat="46.07322" lon="6.77914">
        <ele>1884</ele>
        <time>2026-06-26T10:44:15Z</time>
      </trkpt>
      <trkpt lat="46.07322" lon="6.77914">
        <ele>1884.1</ele>
        <time>2026-06-26T10:44:16Z</time>
      </trkpt>
      <trkpt lat="46.07322" lon="6.77914">
        <ele>1884.1</ele>
        <time>2026-06-26T10:44:17Z</time>
      </trkpt>
      <trkpt lat="46.07322" lon="6.77914">
        <ele>1884.2</ele>
        <time>2026-06-26T10:44:18Z</time>
      </trkpt>
      <trkpt lat="46.07321" lon="6.77914">
        <ele>1884.1</ele>
        <time>2026-06-26T10:44:19Z</time>
      </trkpt>
      <trkpt lat="46.07321" lon="6.77914">
        <ele>1884.1</ele>
        <time>2026-06-26T10:44:20Z</time>
      </trkpt>
      <trkpt lat="46.07321" lon="6.77914">
        <ele>1884.1</ele>
        <time>2026-06-26T10:44:21Z</time>
      </trkpt>
      <trkpt lat="46.07321" lon="6.77914">
        <ele>1884</ele>
        <time>2026-06-26T10:44:22Z</time>
      </trkpt>
      <trkpt lat="46.07321" lon="6.77914">
        <ele>1884</ele>
        <time>2026-06-26T10:44:23Z</time>
      </trkpt>
      <trkpt lat="46.07321" lon="6.77914">
        <ele>1883.9</ele>
        <time>2026-06-26T10:44:24Z</time>
      </trkpt>
      <trkpt lat="46.0732" lon="6.77914">
        <ele>1883.9</ele>
        <time>2026-06-26T10:44:25Z</time>
      </trkpt>
      <trkpt lat="46.0732" lon="6.77914">
        <ele>1883.8</ele>
        <time>2026-06-26T10:44:26Z</time>
      </trkpt>
      <trkpt lat="46.0732" lon="6.77914">
        <ele>1883.7</ele>
        <time>2026-06-26T10:44:27Z</time>
      </trkpt>
      <trkpt lat="46.07319" lon="6.77913">
        <ele>1883.7</ele>
        <time>2026-06-26T10:44:28Z</time>
      </trkpt>
      <trkpt lat="46.0732" lon="6.77913">
        <ele>1883.7</ele>
        <time>2026-06-26T10:44:29Z</time>
      </trkpt>
      <trkpt lat="46.0732" lon="6.77913">
        <ele>1883.8</ele>
        <time>2026-06-26T10:44:30Z</time>
      </trkpt>
      <trkpt lat="46.0732" lon="6.77913">
        <ele>1883.6</ele>
        <time>2026-06-26T10:44:31Z</time>
      </trkpt>
      <trkpt lat="46.07319" lon="6.77913">
        <ele>1883.8</ele>
        <time>2026-06-26T10:44:32Z</time>
      </trkpt>
      <trkpt lat="46.07319" lon="6.77913">
        <ele>1883.9</ele>
        <time>2026-06-26T10:44:33Z</time>
      </trkpt>
      <trkpt lat="46.0732" lon="6.77913">
        <ele>1883.9</ele>
        <time>2026-06-26T10:44:34Z</time>
      </trkpt>
      <trkpt lat="46.07319" lon="6.77913">
        <ele>1883.9</ele>
        <time>2026-06-26T10:44:35Z</time>
      </trkpt>
      <trkpt lat="46.07319" lon="6.77913">
        <ele>1883.9</ele>
        <time>2026-06-26T10:44:36Z</time>
      </trkpt>
      <trkpt lat="46.07319" lon="6.77913">
        <ele>1883.8</ele>
        <time>2026-06-26T10:44:37Z</time>
      </trkpt>
      <trkpt lat="46.07319" lon="6.77913">
        <ele>1883.7</ele>
        <time>2026-06-26T10:44:38Z</time>
      </trkpt>
      <trkpt lat="46.07319" lon="6.77912">
        <ele>1883.7</ele>
        <time>2026-06-26T10:44:39Z</time>
      </trkpt>
      <trkpt lat="46.07318" lon="6.77912">
        <ele>1883.7</ele>
        <time>2026-06-26T10:44:40Z</time>
      </trkpt>
      <trkpt lat="46.07319" lon="6.77912">
        <ele>1883.6</ele>
        <time>2026-06-26T10:44:41Z</time>
      </trkpt>
      <trkpt lat="46.07318" lon="6.77912">
        <ele>1883.6</ele>
        <time>2026-06-26T10:44:42Z</time>
      </trkpt>
      <trkpt lat="46.07318" lon="6.77913">
        <ele>1883.4</ele>
        <time>2026-06-26T10:44:43Z</time>
      </trkpt>
      <trkpt lat="46.07318" lon="6.77913">
        <ele>1883.3</ele>
        <time>2026-06-26T10:44:44Z</time>
      </trkpt>
      <trkpt lat="46.07318" lon="6.77913">
        <ele>1883.2</ele>
        <time>2026-06-26T10:44:45Z</time>
      </trkpt>
      <trkpt lat="46.07317" lon="6.77913">
        <ele>1883.2</ele>
        <time>2026-06-26T10:44:46Z</time>
      </trkpt>
      <trkpt lat="46.07316" lon="6.77913">
        <ele>1883.1</ele>
        <time>2026-06-26T10:44:47Z</time>
      </trkpt>
      <trkpt lat="46.07315" lon="6.77913">
        <ele>1883.2</ele>
        <time>2026-06-26T10:44:48Z</time>
      </trkpt>
      <trkpt lat="46.07315" lon="6.77913">
        <ele>1883.3</ele>
        <time>2026-06-26T10:44:49Z</time>
      </trkpt>
      <trkpt lat="46.07314" lon="6.77914">
        <ele>1883.3</ele>
        <time>2026-06-26T10:44:50Z</time>
      </trkpt>
      <trkpt lat="46.07313" lon="6.77914">
        <ele>1883.4</ele>
        <time>2026-06-26T10:44:51Z</time>
      </trkpt>
      <trkpt lat="46.07313" lon="6.77914">
        <ele>1883.4</ele>
        <time>2026-06-26T10:44:52Z</time>
      </trkpt>
      <trkpt lat="46.07313" lon="6.77914">
        <ele>1883.4</ele>
        <time>2026-06-26T10:44:53Z</time>
      </trkpt>
      <trkpt lat="46.07313" lon="6.77915">
        <ele>1883.4</ele>
        <time>2026-06-26T10:44:54Z</time>
      </trkpt>
      <trkpt lat="46.07312" lon="6.77915">
        <ele>1883.3</ele>
        <time>2026-06-26T10:44:55Z</time>
      </trkpt>
      <trkpt lat="46.07312" lon="6.77915">
        <ele>1883.3</ele>
        <time>2026-06-26T10:44:56Z</time>
      </trkpt>
      <trkpt lat="46.07312" lon="6.77915">
        <ele>1883.3</ele>
        <time>2026-06-26T10:44:57Z</time>
      </trkpt>
      <trkpt lat="46.07312" lon="6.77916">
        <ele>1883.3</ele>
        <time>2026-06-26T10:44:58Z</time>
      </trkpt>
      <trkpt lat="46.07312" lon="6.77916">
        <ele>1883.3</ele>
        <time>2026-06-26T10:44:59Z</time>
      </trkpt>
      <trkpt lat="46.07312" lon="6.77916">
        <ele>1883.3</ele>
        <time>2026-06-26T10:45:00Z</time>
      </trkpt>
      <trkpt lat="46.07312" lon="6.77916">
        <ele>1883.4</ele>
        <time>2026-06-26T10:45:01Z</time>
      </trkpt>
      <trkpt lat="46.07313" lon="6.77915">
        <ele>1883.4</ele>
        <time>2026-06-26T10:45:02Z</time>
      </trkpt>
      <trkpt lat="46.07313" lon="6.77915">
        <ele>1883.4</ele>
        <time>2026-06-26T10:45:03Z</time>
      </trkpt>
      <trkpt lat="46.07312" lon="6.77916">
        <ele>1883.5</ele>
        <time>2026-06-26T10:45:04Z</time>
      </trkpt>
      <trkpt lat="46.0731" lon="6.77917">
        <ele>1883.5</ele>
        <time>2026-06-26T10:45:05Z</time>
      </trkpt>
      <trkpt lat="46.07308" lon="6.77918">
        <ele>1883.5</ele>
        <time>2026-06-26T10:45:06Z</time>
      </trkpt>
      <trkpt lat="46.07308" lon="6.77919">
        <ele>1883.5</ele>
        <time>2026-06-26T10:45:07Z</time>
      </trkpt>
      <trkpt lat="46.07308" lon="6.77919">
        <ele>1883.5</ele>
        <time>2026-06-26T10:45:08Z</time>
      </trkpt>
      <trkpt lat="46.07308" lon="6.77919">
        <ele>1883.6</ele>
        <time>2026-06-26T10:45:09Z</time>
      </trkpt>
      <trkpt lat="46.07308" lon="6.77919">
        <ele>1883.5</ele>
        <time>2026-06-26T10:45:10Z</time>
      </trkpt>
      <trkpt lat="46.07308" lon="6.77919">
        <ele>1883.5</ele>
        <time>2026-06-26T10:45:11Z</time>
      </trkpt>
      <trkpt lat="46.07308" lon="6.77919">
        <ele>1883.5</ele>
        <time>2026-06-26T10:45:12Z</time>
      </trkpt>
      <trkpt lat="46.07308" lon="6.77919">
        <ele>1883.5</ele>
        <time>2026-06-26T10:45:13Z</time>
      </trkpt>
      <trkpt lat="46.07309" lon="6.77919">
        <ele>1883.5</ele>
        <time>2026-06-26T10:45:14Z</time>
      </trkpt>
      <trkpt lat="46.07309" lon="6.77919">
        <ele>1883.5</ele>
        <time>2026-06-26T10:45:15Z</time>
      </trkpt>
      <trkpt lat="46.07309" lon="6.77919">
        <ele>1883.4</ele>
        <time>2026-06-26T10:45:16Z</time>
      </trkpt>
      <trkpt lat="46.0731" lon="6.77918">
        <ele>1883.4</ele>
        <time>2026-06-26T10:45:17Z</time>
      </trkpt>
      <trkpt lat="46.0731" lon="6.77918">
        <ele>1883.4</ele>
        <time>2026-06-26T10:45:18Z</time>
      </trkpt>
      <trkpt lat="46.0731" lon="6.77918">
        <ele>1883.4</ele>
        <time>2026-06-26T10:45:19Z</time>
      </trkpt>
      <trkpt lat="46.0731" lon="6.77918">
        <ele>1883.4</ele>
        <time>2026-06-26T10:45:20Z</time>
      </trkpt>
      <trkpt lat="46.07311" lon="6.77918">
        <ele>1883.4</ele>
        <time>2026-06-26T10:45:21Z</time>
      </trkpt>
      <trkpt lat="46.07311" lon="6.77918">
        <ele>1883.4</ele>
        <time>2026-06-26T10:45:22Z</time>
      </trkpt>
      <trkpt lat="46.07312" lon="6.77918">
        <ele>1883.5</ele>
        <time>2026-06-26T10:45:23Z</time>
      </trkpt>
      <trkpt lat="46.07312" lon="6.77918">
        <ele>1883.5</ele>
        <time>2026-06-26T10:45:24Z</time>
      </trkpt>
      <trkpt lat="46.07312" lon="6.77917">
        <ele>1883.5</ele>
        <time>2026-06-26T10:45:25Z</time>
      </trkpt>
      <trkpt lat="46.07312" lon="6.77917">
        <ele>1883.5</ele>
        <time>2026-06-26T10:45:26Z</time>
      </trkpt>
      <trkpt lat="46.07313" lon="6.77917">
        <ele>1883.4</ele>
        <time>2026-06-26T10:45:27Z</time>
      </trkpt>
      <trkpt lat="46.07314" lon="6.77917">
        <ele>1883.4</ele>
        <time>2026-06-26T10:45:28Z</time>
      </trkpt>
      <trkpt lat="46.07314" lon="6.77917">
        <ele>1883.5</ele>
        <time>2026-06-26T10:45:29Z</time>
      </trkpt>
      <trkpt lat="46.07315" lon="6.77917">
        <ele>1883.5</ele>
        <time>2026-06-26T10:45:30Z</time>
      </trkpt>
      <trkpt lat="46.07315" lon="6.77917">
        <ele>1883.4</ele>
        <time>2026-06-26T10:45:31Z</time>
      </trkpt>
      <trkpt lat="46.07314" lon="6.77918">
        <ele>1883.3</ele>
        <time>2026-06-26T10:45:32Z</time>
      </trkpt>
      <trkpt lat="46.07314" lon="6.77918">
        <ele>1883.3</ele>
        <time>2026-06-26T10:45:33Z</time>
      </trkpt>
      <trkpt lat="46.07314" lon="6.77918">
        <ele>1883.3</ele>
        <time>2026-06-26T10:45:34Z</time>
      </trkpt>
      <trkpt lat="46.07314" lon="6.77918">
        <ele>1883.3</ele>
        <time>2026-06-26T10:45:35Z</time>
      </trkpt>
      <trkpt lat="46.07313" lon="6.77918">
        <ele>1883.4</ele>
        <time>2026-06-26T10:45:36Z</time>
      </trkpt>
      <trkpt lat="46.07313" lon="6.77919">
        <ele>1883.4</ele>
        <time>2026-06-26T10:45:37Z</time>
      </trkpt>
      <trkpt lat="46.07313" lon="6.77919">
        <ele>1883.4</ele>
        <time>2026-06-26T10:45:38Z</time>
      </trkpt>
      <trkpt lat="46.07312" lon="6.77919">
        <ele>1883.4</ele>
        <time>2026-06-26T10:45:39Z</time>
      </trkpt>
      <trkpt lat="46.07313" lon="6.77919">
        <ele>1883.4</ele>
        <time>2026-06-26T10:45:40Z</time>
      </trkpt>
      <trkpt lat="46.07313" lon="6.77918">
        <ele>1883.4</ele>
        <time>2026-06-26T10:45:41Z</time>
      </trkpt>
      <trkpt lat="46.07314" lon="6.77918">
        <ele>1883.4</ele>
        <time>2026-06-26T10:45:42Z</time>
      </trkpt>
      <trkpt lat="46.07314" lon="6.77918">
        <ele>1883.4</ele>
        <time>2026-06-26T10:45:43Z</time>
      </trkpt>
      <trkpt lat="46.07314" lon="6.77918">
        <ele>1883.4</ele>
        <time>2026-06-26T10:45:44Z</time>
      </trkpt>
      <trkpt lat="46.07314" lon="6.77918">
        <ele>1883.4</ele>
        <time>2026-06-26T10:45:45Z</time>
      </trkpt>
      <trkpt lat="46.07314" lon="6.77917">
        <ele>1883.3</ele>
        <time>2026-06-26T10:45:46Z</time>
      </trkpt>
      <trkpt lat="46.07314" lon="6.77918">
        <ele>1883.3</ele>
        <time>2026-06-26T10:45:47Z</time>
      </trkpt>
      <trkpt lat="46.07314" lon="6.77917">
        <ele>1883.3</ele>
        <time>2026-06-26T10:45:48Z</time>
      </trkpt>
      <trkpt lat="46.07314" lon="6.77918">
        <ele>1883.4</ele>
        <time>2026-06-26T10:45:49Z</time>
      </trkpt>
      <trkpt lat="46.07314" lon="6.77918">
        <ele>1883.4</ele>
        <time>2026-06-26T10:45:50Z</time>
      </trkpt>
      <trkpt lat="46.07314" lon="6.77918">
        <ele>1883.4</ele>
        <time>2026-06-26T10:45:51Z</time>
      </trkpt>
      <trkpt lat="46.07314" lon="6.77918">
        <ele>1883.4</ele>
        <time>2026-06-26T10:45:52Z</time>
      </trkpt>
      <trkpt lat="46.07314" lon="6.77918">
        <ele>1883.4</ele>
        <time>2026-06-26T10:45:53Z</time>
      </trkpt>
      <trkpt lat="46.07314" lon="6.77918">
        <ele>1883.4</ele>
        <time>2026-06-26T10:45:54Z</time>
      </trkpt>
      <trkpt lat="46.07314" lon="6.77918">
        <ele>1883.5</ele>
        <time>2026-06-26T10:45:55Z</time>
      </trkpt>
      <trkpt lat="46.07315" lon="6.77918">
        <ele>1883.5</ele>
        <time>2026-06-26T10:45:56Z</time>
      </trkpt>
      <trkpt lat="46.07315" lon="6.77918">
        <ele>1883.5</ele>
        <time>2026-06-26T10:45:57Z</time>
      </trkpt>
      <trkpt lat="46.07315" lon="6.77918">
        <ele>1883.5</ele>
        <time>2026-06-26T10:45:58Z</time>
      </trkpt>
      <trkpt lat="46.07315" lon="6.77918">
        <ele>1883.5</ele>
        <time>2026-06-26T10:45:59Z</time>
      </trkpt>
      <trkpt lat="46.07315" lon="6.77918">
        <ele>1883.5</ele>
        <time>2026-06-26T10:46:00Z</time>
      </trkpt>
      <trkpt lat="46.07316" lon="6.77918">
        <ele>1883.4</ele>
        <time>2026-06-26T10:46:01Z</time>
      </trkpt>
      <trkpt lat="46.07316" lon="6.77917">
        <ele>1883.4</ele>
        <time>2026-06-26T10:46:02Z</time>
      </trkpt>
      <trkpt lat="46.07316" lon="6.77917">
        <ele>1883.4</ele>
        <time>2026-06-26T10:46:03Z</time>
      </trkpt>
      <trkpt lat="46.07316" lon="6.77917">
        <ele>1883.3</ele>
        <time>2026-06-26T10:46:04Z</time>
      </trkpt>
      <trkpt lat="46.07316" lon="6.77917">
        <ele>1883.3</ele>
        <time>2026-06-26T10:46:05Z</time>
      </trkpt>
      <trkpt lat="46.07316" lon="6.77917">
        <ele>1883.2</ele>
        <time>2026-06-26T10:46:06Z</time>
      </trkpt>
      <trkpt lat="46.07316" lon="6.77917">
        <ele>1883.2</ele>
        <time>2026-06-26T10:46:07Z</time>
      </trkpt>
      <trkpt lat="46.07316" lon="6.77917">
        <ele>1883.2</ele>
        <time>2026-06-26T10:46:08Z</time>
      </trkpt>
      <trkpt lat="46.07316" lon="6.77917">
        <ele>1883.3</ele>
        <time>2026-06-26T10:46:09Z</time>
      </trkpt>
      <trkpt lat="46.07316" lon="6.77916">
        <ele>1883.3</ele>
        <time>2026-06-26T10:46:10Z</time>
      </trkpt>
      <trkpt lat="46.07316" lon="6.77916">
        <ele>1883.3</ele>
        <time>2026-06-26T10:46:11Z</time>
      </trkpt>
      <trkpt lat="46.07315" lon="6.77915">
        <ele>1883.3</ele>
        <time>2026-06-26T10:46:12Z</time>
      </trkpt>
      <trkpt lat="46.07315" lon="6.77915">
        <ele>1883.3</ele>
        <time>2026-06-26T10:46:13Z</time>
      </trkpt>
      <trkpt lat="46.07315" lon="6.77915">
        <ele>1883.2</ele>
        <time>2026-06-26T10:46:14Z</time>
      </trkpt>
      <trkpt lat="46.07314" lon="6.77914">
        <ele>1883.2</ele>
        <time>2026-06-26T10:46:15Z</time>
      </trkpt>
      <trkpt lat="46.07314" lon="6.77913">
        <ele>1882.9</ele>
        <time>2026-06-26T10:46:16Z</time>
      </trkpt>
      <trkpt lat="46.07313" lon="6.77912">
        <ele>1882.7</ele>
        <time>2026-06-26T10:46:17Z</time>
      </trkpt>
      <trkpt lat="46.07313" lon="6.77912">
        <ele>1882.4</ele>
        <time>2026-06-26T10:46:18Z</time>
      </trkpt>
      <trkpt lat="46.07313" lon="6.77911">
        <ele>1882.2</ele>
        <time>2026-06-26T10:46:19Z</time>
      </trkpt>
      <trkpt lat="46.07313" lon="6.7791">
        <ele>1882</ele>
        <time>2026-06-26T10:46:20Z</time>
      </trkpt>
      <trkpt lat="46.07313" lon="6.7791">
        <ele>1881.9</ele>
        <time>2026-06-26T10:46:21Z</time>
      </trkpt>
      <trkpt lat="46.07313" lon="6.77908">
        <ele>1881.9</ele>
        <time>2026-06-26T10:46:22Z</time>
      </trkpt>
      <trkpt lat="46.07312" lon="6.77907">
        <ele>1881.7</ele>
        <time>2026-06-26T10:46:23Z</time>
      </trkpt>
      <trkpt lat="46.07312" lon="6.77907">
        <ele>1881.6</ele>
        <time>2026-06-26T10:46:24Z</time>
      </trkpt>
      <trkpt lat="46.07312" lon="6.77906">
        <ele>1881.4</ele>
        <time>2026-06-26T10:46:25Z</time>
      </trkpt>
      <trkpt lat="46.07312" lon="6.77906">
        <ele>1881.3</ele>
        <time>2026-06-26T10:46:26Z</time>
      </trkpt>
      <trkpt lat="46.07312" lon="6.77906">
        <ele>1881.1</ele>
        <time>2026-06-26T10:46:27Z</time>
      </trkpt>
      <trkpt lat="46.07312" lon="6.77905">
        <ele>1881</ele>
        <time>2026-06-26T10:46:28Z</time>
      </trkpt>
      <trkpt lat="46.07312" lon="6.77905">
        <ele>1880.9</ele>
        <time>2026-06-26T10:46:29Z</time>
      </trkpt>
      <trkpt lat="46.07312" lon="6.77905">
        <ele>1880.9</ele>
        <time>2026-06-26T10:46:30Z</time>
      </trkpt>
      <trkpt lat="46.07312" lon="6.77904">
        <ele>1880.9</ele>
        <time>2026-06-26T10:46:31Z</time>
      </trkpt>
      <trkpt lat="46.07312" lon="6.77904">
        <ele>1880.9</ele>
        <time>2026-06-26T10:46:32Z</time>
      </trkpt>
      <trkpt lat="46.07312" lon="6.77904">
        <ele>1880.8</ele>
        <time>2026-06-26T10:46:33Z</time>
      </trkpt>
      <trkpt lat="46.07312" lon="6.77903">
        <ele>1880.7</ele>
        <time>2026-06-26T10:46:34Z</time>
      </trkpt>
      <trkpt lat="46.07312" lon="6.77903">
        <ele>1880.7</ele>
        <time>2026-06-26T10:46:35Z</time>
      </trkpt>
      <trkpt lat="46.07312" lon="6.77902">
        <ele>1880.6</ele>
        <time>2026-06-26T10:46:36Z</time>
      </trkpt>
      <trkpt lat="46.07312" lon="6.77901">
        <ele>1880.5</ele>
        <time>2026-06-26T10:46:37Z</time>
      </trkpt>
      <trkpt lat="46.07312" lon="6.77901">
        <ele>1880.4</ele>
        <time>2026-06-26T10:46:38Z</time>
      </trkpt>
      <trkpt lat="46.07312" lon="6.779">
        <ele>1880.4</ele>
        <time>2026-06-26T10:46:39Z</time>
      </trkpt>
      <trkpt lat="46.07312" lon="6.77899">
        <ele>1880.3</ele>
        <time>2026-06-26T10:46:40Z</time>
      </trkpt>
      <trkpt lat="46.07312" lon="6.77898">
        <ele>1880.2</ele>
        <time>2026-06-26T10:46:41Z</time>
      </trkpt>
      <trkpt lat="46.07311" lon="6.77898">
        <ele>1880</ele>
        <time>2026-06-26T10:46:42Z</time>
      </trkpt>
      <trkpt lat="46.07311" lon="6.77896">
        <ele>1879.8</ele>
        <time>2026-06-26T10:46:43Z</time>
      </trkpt>
      <trkpt lat="46.07311" lon="6.77896">
        <ele>1879.6</ele>
        <time>2026-06-26T10:46:44Z</time>
      </trkpt>
      <trkpt lat="46.0731" lon="6.77895">
        <ele>1879.5</ele>
        <time>2026-06-26T10:46:45Z</time>
      </trkpt>
      <trkpt lat="46.0731" lon="6.77895">
        <ele>1879.4</ele>
        <time>2026-06-26T10:46:46Z</time>
      </trkpt>
      <trkpt lat="46.0731" lon="6.77894">
        <ele>1879.3</ele>
        <time>2026-06-26T10:46:47Z</time>
      </trkpt>
      <trkpt lat="46.07311" lon="6.77893">
        <ele>1879.3</ele>
        <time>2026-06-26T10:46:48Z</time>
      </trkpt>
      <trkpt lat="46.0731" lon="6.77892">
        <ele>1879.2</ele>
        <time>2026-06-26T10:46:49Z</time>
      </trkpt>
      <trkpt lat="46.0731" lon="6.77891">
        <ele>1879.1</ele>
        <time>2026-06-26T10:46:50Z</time>
      </trkpt>
      <trkpt lat="46.0731" lon="6.77891">
        <ele>1878.7</ele>
        <time>2026-06-26T10:46:51Z</time>
      </trkpt>
      <trkpt lat="46.0731" lon="6.7789">
        <ele>1878.5</ele>
        <time>2026-06-26T10:46:52Z</time>
      </trkpt>
      <trkpt lat="46.0731" lon="6.77889">
        <ele>1878.4</ele>
        <time>2026-06-26T10:46:53Z</time>
      </trkpt>
      <trkpt lat="46.07309" lon="6.77889">
        <ele>1878.2</ele>
        <time>2026-06-26T10:46:54Z</time>
      </trkpt>
      <trkpt lat="46.07309" lon="6.77888">
        <ele>1878</ele>
        <time>2026-06-26T10:46:55Z</time>
      </trkpt>
      <trkpt lat="46.07309" lon="6.77887">
        <ele>1877.9</ele>
        <time>2026-06-26T10:46:56Z</time>
      </trkpt>
      <trkpt lat="46.07309" lon="6.77886">
        <ele>1877.7</ele>
        <time>2026-06-26T10:46:57Z</time>
      </trkpt>
      <trkpt lat="46.07309" lon="6.77885">
        <ele>1877.5</ele>
        <time>2026-06-26T10:46:58Z</time>
      </trkpt>
      <trkpt lat="46.07309" lon="6.77884">
        <ele>1877.4</ele>
        <time>2026-06-26T10:46:59Z</time>
      </trkpt>
      <trkpt lat="46.07308" lon="6.77882">
        <ele>1877.3</ele>
        <time>2026-06-26T10:47:00Z</time>
      </trkpt>
      <trkpt lat="46.07309" lon="6.77882">
        <ele>1877.1</ele>
        <time>2026-06-26T10:47:01Z</time>
      </trkpt>
      <trkpt lat="46.07308" lon="6.77881">
        <ele>1877</ele>
        <time>2026-06-26T10:47:02Z</time>
      </trkpt>
      <trkpt lat="46.07308" lon="6.77881">
        <ele>1876.9</ele>
        <time>2026-06-26T10:47:03Z</time>
      </trkpt>
      <trkpt lat="46.07308" lon="6.7788">
        <ele>1876.7</ele>
        <time>2026-06-26T10:47:04Z</time>
      </trkpt>
      <trkpt lat="46.07309" lon="6.77879">
        <ele>1876.6</ele>
        <time>2026-06-26T10:47:05Z</time>
      </trkpt>
      <trkpt lat="46.07308" lon="6.77878">
        <ele>1876.7</ele>
        <time>2026-06-26T10:47:06Z</time>
      </trkpt>
      <trkpt lat="46.07308" lon="6.77878">
        <ele>1876.7</ele>
        <time>2026-06-26T10:47:07Z</time>
      </trkpt>
      <trkpt lat="46.07308" lon="6.77877">
        <ele>1876.7</ele>
        <time>2026-06-26T10:47:08Z</time>
      </trkpt>
      <trkpt lat="46.07308" lon="6.77876">
        <ele>1876.8</ele>
        <time>2026-06-26T10:47:09Z</time>
      </trkpt>
      <trkpt lat="46.07308" lon="6.77875">
        <ele>1876.8</ele>
        <time>2026-06-26T10:47:10Z</time>
      </trkpt>
      <trkpt lat="46.07308" lon="6.77873">
        <ele>1876.8</ele>
        <time>2026-06-26T10:47:11Z</time>
      </trkpt>
      <trkpt lat="46.07307" lon="6.77873">
        <ele>1876.8</ele>
        <time>2026-06-26T10:47:12Z</time>
      </trkpt>
      <trkpt lat="46.07308" lon="6.77872">
        <ele>1876.8</ele>
        <time>2026-06-26T10:47:13Z</time>
      </trkpt>
      <trkpt lat="46.07308" lon="6.77871">
        <ele>1876.8</ele>
        <time>2026-06-26T10:47:14Z</time>
      </trkpt>
      <trkpt lat="46.07308" lon="6.7787">
        <ele>1876.8</ele>
        <time>2026-06-26T10:47:15Z</time>
      </trkpt>
      <trkpt lat="46.07308" lon="6.77869">
        <ele>1876.7</ele>
        <time>2026-06-26T10:47:16Z</time>
      </trkpt>
      <trkpt lat="46.07307" lon="6.77868">
        <ele>1876.7</ele>
        <time>2026-06-26T10:47:17Z</time>
      </trkpt>
      <trkpt lat="46.07307" lon="6.77868">
        <ele>1876.6</ele>
        <time>2026-06-26T10:47:18Z</time>
      </trkpt>
      <trkpt lat="46.07306" lon="6.77867">
        <ele>1876.7</ele>
        <time>2026-06-26T10:47:19Z</time>
      </trkpt>
      <trkpt lat="46.07306" lon="6.77867">
        <ele>1876.7</ele>
        <time>2026-06-26T10:47:20Z</time>
      </trkpt>
      <trkpt lat="46.07305" lon="6.77866">
        <ele>1876.8</ele>
        <time>2026-06-26T10:47:21Z</time>
      </trkpt>
      <trkpt lat="46.07305" lon="6.77865">
        <ele>1876.9</ele>
        <time>2026-06-26T10:47:22Z</time>
      </trkpt>
      <trkpt lat="46.07305" lon="6.77865">
        <ele>1876.9</ele>
        <time>2026-06-26T10:47:23Z</time>
      </trkpt>
      <trkpt lat="46.07305" lon="6.77864">
        <ele>1876.9</ele>
        <time>2026-06-26T10:47:24Z</time>
      </trkpt>
      <trkpt lat="46.07305" lon="6.77863">
        <ele>1877</ele>
        <time>2026-06-26T10:47:25Z</time>
      </trkpt>
      <trkpt lat="46.07305" lon="6.77862">
        <ele>1877</ele>
        <time>2026-06-26T10:47:26Z</time>
      </trkpt>
      <trkpt lat="46.07305" lon="6.77861">
        <ele>1877</ele>
        <time>2026-06-26T10:47:27Z</time>
      </trkpt>
      <trkpt lat="46.07305" lon="6.77861">
        <ele>1876.8</ele>
        <time>2026-06-26T10:47:28Z</time>
      </trkpt>
      <trkpt lat="46.07305" lon="6.7786">
        <ele>1876.7</ele>
        <time>2026-06-26T10:47:29Z</time>
      </trkpt>
      <trkpt lat="46.07304" lon="6.7786">
        <ele>1876.6</ele>
        <time>2026-06-26T10:47:30Z</time>
      </trkpt>
      <trkpt lat="46.07304" lon="6.7786">
        <ele>1876.6</ele>
        <time>2026-06-26T10:47:31Z</time>
      </trkpt>
      <trkpt lat="46.07304" lon="6.77861">
        <ele>1876.5</ele>
        <time>2026-06-26T10:47:32Z</time>
      </trkpt>
      <trkpt lat="46.07304" lon="6.77861">
        <ele>1876.4</ele>
        <time>2026-06-26T10:47:33Z</time>
      </trkpt>
      <trkpt lat="46.07304" lon="6.77861">
        <ele>1876.4</ele>
        <time>2026-06-26T10:47:34Z</time>
      </trkpt>
      <trkpt lat="46.07304" lon="6.77861">
        <ele>1876.3</ele>
        <time>2026-06-26T10:47:35Z</time>
      </trkpt>
      <trkpt lat="46.07304" lon="6.77861">
        <ele>1876.3</ele>
        <time>2026-06-26T10:47:36Z</time>
      </trkpt>
      <trkpt lat="46.07303" lon="6.77861">
        <ele>1876.3</ele>
        <time>2026-06-26T10:47:37Z</time>
      </trkpt>
      <trkpt lat="46.07303" lon="6.77861">
        <ele>1876.3</ele>
        <time>2026-06-26T10:47:38Z</time>
      </trkpt>
      <trkpt lat="46.07304" lon="6.77861">
        <ele>1876.3</ele>
        <time>2026-06-26T10:47:39Z</time>
      </trkpt>
      <trkpt lat="46.07304" lon="6.77861">
        <ele>1876.4</ele>
        <time>2026-06-26T10:47:40Z</time>
      </trkpt>
      <trkpt lat="46.07304" lon="6.77861">
        <ele>1876.4</ele>
        <time>2026-06-26T10:47:41Z</time>
      </trkpt>
      <trkpt lat="46.07304" lon="6.7786">
        <ele>1876.4</ele>
        <time>2026-06-26T10:47:42Z</time>
      </trkpt>
      <trkpt lat="46.07304" lon="6.7786">
        <ele>1876.3</ele>
        <time>2026-06-26T10:47:43Z</time>
      </trkpt>
      <trkpt lat="46.07305" lon="6.7786">
        <ele>1876.3</ele>
        <time>2026-06-26T10:47:44Z</time>
      </trkpt>
      <trkpt lat="46.07305" lon="6.7786">
        <ele>1876.3</ele>
        <time>2026-06-26T10:47:45Z</time>
      </trkpt>
      <trkpt lat="46.07305" lon="6.7786">
        <ele>1876.3</ele>
        <time>2026-06-26T10:47:46Z</time>
      </trkpt>
      <trkpt lat="46.07305" lon="6.7786">
        <ele>1876.3</ele>
        <time>2026-06-26T10:47:47Z</time>
      </trkpt>
      <trkpt lat="46.07304" lon="6.7786">
        <ele>1876.4</ele>
        <time>2026-06-26T10:47:48Z</time>
      </trkpt>
      <trkpt lat="46.07305" lon="6.7786">
        <ele>1876.4</ele>
        <time>2026-06-26T10:47:49Z</time>
      </trkpt>
      <trkpt lat="46.07304" lon="6.77859">
        <ele>1876.3</ele>
        <time>2026-06-26T10:47:50Z</time>
      </trkpt>
      <trkpt lat="46.07304" lon="6.77858">
        <ele>1876.1</ele>
        <time>2026-06-26T10:47:51Z</time>
      </trkpt>
      <trkpt lat="46.07304" lon="6.77857">
        <ele>1875.9</ele>
        <time>2026-06-26T10:47:52Z</time>
      </trkpt>
      <trkpt lat="46.07304" lon="6.77856">
        <ele>1875.9</ele>
        <time>2026-06-26T10:47:53Z</time>
      </trkpt>
      <trkpt lat="46.07304" lon="6.77855">
        <ele>1876</ele>
        <time>2026-06-26T10:47:54Z</time>
      </trkpt>
      <trkpt lat="46.07304" lon="6.77854">
        <ele>1876.1</ele>
        <time>2026-06-26T10:47:55Z</time>
      </trkpt>
      <trkpt lat="46.07304" lon="6.77853">
        <ele>1876.2</ele>
        <time>2026-06-26T10:47:56Z</time>
      </trkpt>
      <trkpt lat="46.07304" lon="6.77852">
        <ele>1876.4</ele>
        <time>2026-06-26T10:47:57Z</time>
      </trkpt>
      <trkpt lat="46.07303" lon="6.77851">
        <ele>1876.4</ele>
        <time>2026-06-26T10:47:58Z</time>
      </trkpt>
      <trkpt lat="46.07303" lon="6.77851">
        <ele>1876.6</ele>
        <time>2026-06-26T10:47:59Z</time>
      </trkpt>
      <trkpt lat="46.07302" lon="6.7785">
        <ele>1876.6</ele>
        <time>2026-06-26T10:48:00Z</time>
      </trkpt>
      <trkpt lat="46.07302" lon="6.77849">
        <ele>1876.6</ele>
        <time>2026-06-26T10:48:01Z</time>
      </trkpt>
      <trkpt lat="46.07302" lon="6.77848">
        <ele>1876.7</ele>
        <time>2026-06-26T10:48:02Z</time>
      </trkpt>
      <trkpt lat="46.07301" lon="6.77848">
        <ele>1876.8</ele>
        <time>2026-06-26T10:48:03Z</time>
      </trkpt>
      <trkpt lat="46.07301" lon="6.77848">
        <ele>1876.9</ele>
        <time>2026-06-26T10:48:04Z</time>
      </trkpt>
      <trkpt lat="46.073" lon="6.77848">
        <ele>1877.1</ele>
        <time>2026-06-26T10:48:05Z</time>
      </trkpt>
      <trkpt lat="46.07299" lon="6.77848">
        <ele>1877.2</ele>
        <time>2026-06-26T10:48:06Z</time>
      </trkpt>
      <trkpt lat="46.07298" lon="6.77848">
        <ele>1877.4</ele>
        <time>2026-06-26T10:48:07Z</time>
      </trkpt>
      <trkpt lat="46.07298" lon="6.77848">
        <ele>1877.8</ele>
        <time>2026-06-26T10:48:08Z</time>
      </trkpt>
      <trkpt lat="46.07297" lon="6.77848">
        <ele>1878.1</ele>
        <time>2026-06-26T10:48:09Z</time>
      </trkpt>
      <trkpt lat="46.07297" lon="6.77848">
        <ele>1878.3</ele>
        <time>2026-06-26T10:48:10Z</time>
      </trkpt>
      <trkpt lat="46.07296" lon="6.77849">
        <ele>1878.4</ele>
        <time>2026-06-26T10:48:11Z</time>
      </trkpt>
      <trkpt lat="46.07296" lon="6.7785">
        <ele>1878.6</ele>
        <time>2026-06-26T10:48:12Z</time>
      </trkpt>
      <trkpt lat="46.07297" lon="6.7785">
        <ele>1878.9</ele>
        <time>2026-06-26T10:48:13Z</time>
      </trkpt>
      <trkpt lat="46.07297" lon="6.77851">
        <ele>1879.1</ele>
        <time>2026-06-26T10:48:14Z</time>
      </trkpt>
      <trkpt lat="46.07297" lon="6.77852">
        <ele>1879.4</ele>
        <time>2026-06-26T10:48:15Z</time>
      </trkpt>
      <trkpt lat="46.07296" lon="6.77852">
        <ele>1879.6</ele>
        <time>2026-06-26T10:48:16Z</time>
      </trkpt>
      <trkpt lat="46.07297" lon="6.77852">
        <ele>1879.7</ele>
        <time>2026-06-26T10:48:17Z</time>
      </trkpt>
      <trkpt lat="46.07296" lon="6.77852">
        <ele>1879.9</ele>
        <time>2026-06-26T10:48:18Z</time>
      </trkpt>
      <trkpt lat="46.07295" lon="6.77853">
        <ele>1880.1</ele>
        <time>2026-06-26T10:48:19Z</time>
      </trkpt>
      <trkpt lat="46.07295" lon="6.77853">
        <ele>1880.3</ele>
        <time>2026-06-26T10:48:20Z</time>
      </trkpt>
      <trkpt lat="46.07295" lon="6.77853">
        <ele>1880.5</ele>
        <time>2026-06-26T10:48:21Z</time>
      </trkpt>
      <trkpt lat="46.07295" lon="6.77853">
        <ele>1880.7</ele>
        <time>2026-06-26T10:48:22Z</time>
      </trkpt>
      <trkpt lat="46.07294" lon="6.77854">
        <ele>1880.9</ele>
        <time>2026-06-26T10:48:23Z</time>
      </trkpt>
      <trkpt lat="46.07294" lon="6.77854">
        <ele>1881.1</ele>
        <time>2026-06-26T10:48:24Z</time>
      </trkpt>
      <trkpt lat="46.07294" lon="6.77855">
        <ele>1881.3</ele>
        <time>2026-06-26T10:48:25Z</time>
      </trkpt>
      <trkpt lat="46.07293" lon="6.77856">
        <ele>1881.4</ele>
        <time>2026-06-26T10:48:26Z</time>
      </trkpt>
      <trkpt lat="46.07293" lon="6.77856">
        <ele>1881.6</ele>
        <time>2026-06-26T10:48:27Z</time>
      </trkpt>
      <trkpt lat="46.07292" lon="6.77857">
        <ele>1881.7</ele>
        <time>2026-06-26T10:48:28Z</time>
      </trkpt>
      <trkpt lat="46.07292" lon="6.77857">
        <ele>1881.9</ele>
        <time>2026-06-26T10:48:29Z</time>
      </trkpt>
      <trkpt lat="46.0729" lon="6.77857">
        <ele>1882.1</ele>
        <time>2026-06-26T10:48:30Z</time>
      </trkpt>
      <trkpt lat="46.0729" lon="6.77857">
        <ele>1882.3</ele>
        <time>2026-06-26T10:48:31Z</time>
      </trkpt>
      <trkpt lat="46.07291" lon="6.77857">
        <ele>1882.5</ele>
        <time>2026-06-26T10:48:32Z</time>
      </trkpt>
      <trkpt lat="46.07291" lon="6.77857">
        <ele>1882.7</ele>
        <time>2026-06-26T10:48:33Z</time>
      </trkpt>
      <trkpt lat="46.07291" lon="6.77856">
        <ele>1882.8</ele>
        <time>2026-06-26T10:48:34Z</time>
      </trkpt>
      <trkpt lat="46.0729" lon="6.77857">
        <ele>1883</ele>
        <time>2026-06-26T10:48:35Z</time>
      </trkpt>
      <trkpt lat="46.0729" lon="6.77857">
        <ele>1883.2</ele>
        <time>2026-06-26T10:48:36Z</time>
      </trkpt>
      <trkpt lat="46.0729" lon="6.77857">
        <ele>1883.4</ele>
        <time>2026-06-26T10:48:37Z</time>
      </trkpt>
      <trkpt lat="46.0729" lon="6.77857">
        <ele>1883.6</ele>
        <time>2026-06-26T10:48:38Z</time>
      </trkpt>
      <trkpt lat="46.0729" lon="6.77857">
        <ele>1883.7</ele>
        <time>2026-06-26T10:48:39Z</time>
      </trkpt>
      <trkpt lat="46.0729" lon="6.77857">
        <ele>1884</ele>
        <time>2026-06-26T10:48:40Z</time>
      </trkpt>
      <trkpt lat="46.0729" lon="6.77857">
        <ele>1884.2</ele>
        <time>2026-06-26T10:48:41Z</time>
      </trkpt>
      <trkpt lat="46.0729" lon="6.77856">
        <ele>1884.4</ele>
        <time>2026-06-26T10:48:42Z</time>
      </trkpt>
      <trkpt lat="46.0729" lon="6.77855">
        <ele>1884.5</ele>
        <time>2026-06-26T10:48:43Z</time>
      </trkpt>
      <trkpt lat="46.0729" lon="6.77855">
        <ele>1884.7</ele>
        <time>2026-06-26T10:48:44Z</time>
      </trkpt>
      <trkpt lat="46.07289" lon="6.77856">
        <ele>1884.8</ele>
        <time>2026-06-26T10:48:45Z</time>
      </trkpt>
      <trkpt lat="46.07288" lon="6.77857">
        <ele>1884.9</ele>
        <time>2026-06-26T10:48:46Z</time>
      </trkpt>
      <trkpt lat="46.07289" lon="6.77856">
        <ele>1885</ele>
        <time>2026-06-26T10:48:47Z</time>
      </trkpt>
      <trkpt lat="46.07288" lon="6.77856">
        <ele>1885.2</ele>
        <time>2026-06-26T10:48:48Z</time>
      </trkpt>
      <trkpt lat="46.07288" lon="6.77856">
        <ele>1885.4</ele>
        <time>2026-06-26T10:48:49Z</time>
      </trkpt>
      <trkpt lat="46.07289" lon="6.77853">
        <ele>1885.5</ele>
        <time>2026-06-26T10:48:50Z</time>
      </trkpt>
      <trkpt lat="46.07289" lon="6.77852">
        <ele>1885.7</ele>
        <time>2026-06-26T10:48:51Z</time>
      </trkpt>
      <trkpt lat="46.07288" lon="6.77852">
        <ele>1885.8</ele>
        <time>2026-06-26T10:48:52Z</time>
      </trkpt>
      <trkpt lat="46.07288" lon="6.77851">
        <ele>1886</ele>
        <time>2026-06-26T10:48:53Z</time>
      </trkpt>
      <trkpt lat="46.07288" lon="6.77851">
        <ele>1886.3</ele>
        <time>2026-06-26T10:48:54Z</time>
      </trkpt>
      <trkpt lat="46.07287" lon="6.7785">
        <ele>1886.5</ele>
        <time>2026-06-26T10:48:55Z</time>
      </trkpt>
      <trkpt lat="46.07287" lon="6.7785">
        <ele>1886.7</ele>
        <time>2026-06-26T10:48:56Z</time>
      </trkpt>
      <trkpt lat="46.07287" lon="6.77849">
        <ele>1887</ele>
        <time>2026-06-26T10:48:57Z</time>
      </trkpt>
      <trkpt lat="46.07286" lon="6.77848">
        <ele>1887.2</ele>
        <time>2026-06-26T10:48:58Z</time>
      </trkpt>
      <trkpt lat="46.07286" lon="6.77845">
        <ele>1887.4</ele>
        <time>2026-06-26T10:48:59Z</time>
      </trkpt>
      <trkpt lat="46.07286" lon="6.77845">
        <ele>1887.6</ele>
        <time>2026-06-26T10:49:00Z</time>
      </trkpt>
      <trkpt lat="46.07285" lon="6.77848">
        <ele>1887.7</ele>
        <time>2026-06-26T10:49:01Z</time>
      </trkpt>
      <trkpt lat="46.07285" lon="6.77849">
        <ele>1887.6</ele>
        <time>2026-06-26T10:49:02Z</time>
      </trkpt>
      <trkpt lat="46.07285" lon="6.77848">
        <ele>1887.7</ele>
        <time>2026-06-26T10:49:03Z</time>
      </trkpt>
      <trkpt lat="46.07284" lon="6.77847">
        <ele>1887.7</ele>
        <time>2026-06-26T10:49:04Z</time>
      </trkpt>
      <trkpt lat="46.07284" lon="6.77848">
        <ele>1887.9</ele>
        <time>2026-06-26T10:49:05Z</time>
      </trkpt>
      <trkpt lat="46.07284" lon="6.77848">
        <ele>1888</ele>
        <time>2026-06-26T10:49:06Z</time>
      </trkpt>
      <trkpt lat="46.07284" lon="6.77847">
        <ele>1888.1</ele>
        <time>2026-06-26T10:49:07Z</time>
      </trkpt>
      <trkpt lat="46.07284" lon="6.77846">
        <ele>1888.1</ele>
        <time>2026-06-26T10:49:08Z</time>
      </trkpt>
      <trkpt lat="46.07284" lon="6.77845">
        <ele>1888.2</ele>
        <time>2026-06-26T10:49:09Z</time>
      </trkpt>
      <trkpt lat="46.07284" lon="6.77845">
        <ele>1888.3</ele>
        <time>2026-06-26T10:49:10Z</time>
      </trkpt>
      <trkpt lat="46.07284" lon="6.77845">
        <ele>1888.3</ele>
        <time>2026-06-26T10:49:11Z</time>
      </trkpt>
      <trkpt lat="46.07283" lon="6.77845">
        <ele>1888.3</ele>
        <time>2026-06-26T10:49:12Z</time>
      </trkpt>
      <trkpt lat="46.07283" lon="6.77845">
        <ele>1888.3</ele>
        <time>2026-06-26T10:49:13Z</time>
      </trkpt>
      <trkpt lat="46.07283" lon="6.77844">
        <ele>1888.5</ele>
        <time>2026-06-26T10:49:14Z</time>
      </trkpt>
      <trkpt lat="46.07282" lon="6.77845">
        <ele>1888.6</ele>
        <time>2026-06-26T10:49:15Z</time>
      </trkpt>
      <trkpt lat="46.07282" lon="6.77844">
        <ele>1888.4</ele>
        <time>2026-06-26T10:49:16Z</time>
      </trkpt>
      <trkpt lat="46.07281" lon="6.77844">
        <ele>1888.5</ele>
        <time>2026-06-26T10:49:17Z</time>
      </trkpt>
      <trkpt lat="46.07281" lon="6.77844">
        <ele>1888.6</ele>
        <time>2026-06-26T10:49:18Z</time>
      </trkpt>
      <trkpt lat="46.07281" lon="6.77844">
        <ele>1888.7</ele>
        <time>2026-06-26T10:49:19Z</time>
      </trkpt>
      <trkpt lat="46.07281" lon="6.77844">
        <ele>1888.7</ele>
        <time>2026-06-26T10:49:20Z</time>
      </trkpt>
      <trkpt lat="46.07281" lon="6.77844">
        <ele>1888.8</ele>
        <time>2026-06-26T10:49:21Z</time>
      </trkpt>
      <trkpt lat="46.0728" lon="6.77844">
        <ele>1888.8</ele>
        <time>2026-06-26T10:49:22Z</time>
      </trkpt>
      <trkpt lat="46.0728" lon="6.77845">
        <ele>1888.9</ele>
        <time>2026-06-26T10:49:23Z</time>
      </trkpt>
      <trkpt lat="46.0728" lon="6.77845">
        <ele>1888.9</ele>
        <time>2026-06-26T10:49:24Z</time>
      </trkpt>
      <trkpt lat="46.07279" lon="6.77845">
        <ele>1888.9</ele>
        <time>2026-06-26T10:49:25Z</time>
      </trkpt>
      <trkpt lat="46.07279" lon="6.77845">
        <ele>1888.9</ele>
        <time>2026-06-26T10:49:26Z</time>
      </trkpt>
      <trkpt lat="46.07279" lon="6.77845">
        <ele>1888.9</ele>
        <time>2026-06-26T10:49:27Z</time>
      </trkpt>
      <trkpt lat="46.07278" lon="6.77846">
        <ele>1889</ele>
        <time>2026-06-26T10:49:28Z</time>
      </trkpt>
      <trkpt lat="46.07279" lon="6.77846">
        <ele>1889</ele>
        <time>2026-06-26T10:49:29Z</time>
      </trkpt>
      <trkpt lat="46.07278" lon="6.77846">
        <ele>1889.1</ele>
        <time>2026-06-26T10:49:30Z</time>
      </trkpt>
      <trkpt lat="46.07278" lon="6.77846">
        <ele>1889.1</ele>
        <time>2026-06-26T10:49:31Z</time>
      </trkpt>
      <trkpt lat="46.07279" lon="6.77845">
        <ele>1889.1</ele>
        <time>2026-06-26T10:49:32Z</time>
      </trkpt>
      <trkpt lat="46.07279" lon="6.77844">
        <ele>1889.1</ele>
        <time>2026-06-26T10:49:33Z</time>
      </trkpt>
      <trkpt lat="46.07279" lon="6.77844">
        <ele>1889.3</ele>
        <time>2026-06-26T10:49:34Z</time>
      </trkpt>
      <trkpt lat="46.07279" lon="6.77843">
        <ele>1889.6</ele>
        <time>2026-06-26T10:49:35Z</time>
      </trkpt>
      <trkpt lat="46.07278" lon="6.77843">
        <ele>1889.5</ele>
        <time>2026-06-26T10:49:36Z</time>
      </trkpt>
      <trkpt lat="46.07279" lon="6.77842">
        <ele>1889.5</ele>
        <time>2026-06-26T10:49:37Z</time>
      </trkpt>
      <trkpt lat="46.07279" lon="6.77842">
        <ele>1889.7</ele>
        <time>2026-06-26T10:49:38Z</time>
      </trkpt>
      <trkpt lat="46.07279" lon="6.7784">
        <ele>1889.9</ele>
        <time>2026-06-26T10:49:39Z</time>
      </trkpt>
      <trkpt lat="46.07279" lon="6.7784">
        <ele>1890</ele>
        <time>2026-06-26T10:49:40Z</time>
      </trkpt>
      <trkpt lat="46.07279" lon="6.77839">
        <ele>1890</ele>
        <time>2026-06-26T10:49:41Z</time>
      </trkpt>
      <trkpt lat="46.07279" lon="6.77838">
        <ele>1890.1</ele>
        <time>2026-06-26T10:49:42Z</time>
      </trkpt>
      <trkpt lat="46.07279" lon="6.77837">
        <ele>1890.1</ele>
        <time>2026-06-26T10:49:43Z</time>
      </trkpt>
      <trkpt lat="46.07279" lon="6.77837">
        <ele>1890.1</ele>
        <time>2026-06-26T10:49:44Z</time>
      </trkpt>
      <trkpt lat="46.07279" lon="6.77836">
        <ele>1890.1</ele>
        <time>2026-06-26T10:49:45Z</time>
      </trkpt>
      <trkpt lat="46.07278" lon="6.77835">
        <ele>1890.1</ele>
        <time>2026-06-26T10:49:46Z</time>
      </trkpt>
      <trkpt lat="46.07278" lon="6.77834">
        <ele>1890</ele>
        <time>2026-06-26T10:49:47Z</time>
      </trkpt>
      <trkpt lat="46.07278" lon="6.77833">
        <ele>1890.1</ele>
        <time>2026-06-26T10:49:48Z</time>
      </trkpt>
      <trkpt lat="46.07277" lon="6.77832">
        <ele>1890.2</ele>
        <time>2026-06-26T10:49:49Z</time>
      </trkpt>
      <trkpt lat="46.07277" lon="6.77832">
        <ele>1890.3</ele>
        <time>2026-06-26T10:49:50Z</time>
      </trkpt>
      <trkpt lat="46.07276" lon="6.77832">
        <ele>1890.3</ele>
        <time>2026-06-26T10:49:51Z</time>
      </trkpt>
      <trkpt lat="46.07276" lon="6.77832">
        <ele>1890.4</ele>
        <time>2026-06-26T10:49:52Z</time>
      </trkpt>
      <trkpt lat="46.07275" lon="6.77832">
        <ele>1890.5</ele>
        <time>2026-06-26T10:49:53Z</time>
      </trkpt>
      <trkpt lat="46.07275" lon="6.77833">
        <ele>1890.5</ele>
        <time>2026-06-26T10:49:54Z</time>
      </trkpt>
      <trkpt lat="46.07275" lon="6.77833">
        <ele>1890.7</ele>
        <time>2026-06-26T10:49:55Z</time>
      </trkpt>
      <trkpt lat="46.07274" lon="6.77833">
        <ele>1890.9</ele>
        <time>2026-06-26T10:49:56Z</time>
      </trkpt>
      <trkpt lat="46.07273" lon="6.77833">
        <ele>1891.1</ele>
        <time>2026-06-26T10:49:57Z</time>
      </trkpt>
      <trkpt lat="46.07273" lon="6.77833">
        <ele>1891.4</ele>
        <time>2026-06-26T10:49:58Z</time>
      </trkpt>
      <trkpt lat="46.07272" lon="6.77833">
        <ele>1891.5</ele>
        <time>2026-06-26T10:49:59Z</time>
      </trkpt>
      <trkpt lat="46.07271" lon="6.77833">
        <ele>1891.7</ele>
        <time>2026-06-26T10:50:00Z</time>
      </trkpt>
      <trkpt lat="46.07271" lon="6.77833">
        <ele>1891.9</ele>
        <time>2026-06-26T10:50:01Z</time>
      </trkpt>
      <trkpt lat="46.0727" lon="6.77832">
        <ele>1892</ele>
        <time>2026-06-26T10:50:02Z</time>
      </trkpt>
      <trkpt lat="46.07269" lon="6.77832">
        <ele>1892.2</ele>
        <time>2026-06-26T10:50:03Z</time>
      </trkpt>
      <trkpt lat="46.07269" lon="6.77833">
        <ele>1892.4</ele>
        <time>2026-06-26T10:50:04Z</time>
      </trkpt>
      <trkpt lat="46.07268" lon="6.77833">
        <ele>1892.5</ele>
        <time>2026-06-26T10:50:05Z</time>
      </trkpt>
      <trkpt lat="46.07267" lon="6.77833">
        <ele>1892.6</ele>
        <time>2026-06-26T10:50:06Z</time>
      </trkpt>
      <trkpt lat="46.07267" lon="6.77833">
        <ele>1892.7</ele>
        <time>2026-06-26T10:50:07Z</time>
      </trkpt>
      <trkpt lat="46.07267" lon="6.77833">
        <ele>1892.7</ele>
        <time>2026-06-26T10:50:08Z</time>
      </trkpt>
      <trkpt lat="46.07267" lon="6.77833">
        <ele>1892.8</ele>
        <time>2026-06-26T10:50:09Z</time>
      </trkpt>
      <trkpt lat="46.07267" lon="6.77833">
        <ele>1892.8</ele>
        <time>2026-06-26T10:50:10Z</time>
      </trkpt>
      <trkpt lat="46.07267" lon="6.77833">
        <ele>1892.9</ele>
        <time>2026-06-26T10:50:11Z</time>
      </trkpt>
      <trkpt lat="46.07266" lon="6.77833">
        <ele>1892.9</ele>
        <time>2026-06-26T10:50:12Z</time>
      </trkpt>
      <trkpt lat="46.07266" lon="6.77833">
        <ele>1892.9</ele>
        <time>2026-06-26T10:50:13Z</time>
      </trkpt>
      <trkpt lat="46.07266" lon="6.77833">
        <ele>1892.9</ele>
        <time>2026-06-26T10:50:14Z</time>
      </trkpt>
      <trkpt lat="46.07266" lon="6.77834">
        <ele>1893</ele>
        <time>2026-06-26T10:50:15Z</time>
      </trkpt>
      <trkpt lat="46.07266" lon="6.77834">
        <ele>1893.1</ele>
        <time>2026-06-26T10:50:16Z</time>
      </trkpt>
      <trkpt lat="46.07266" lon="6.77835">
        <ele>1893.1</ele>
        <time>2026-06-26T10:50:17Z</time>
      </trkpt>
      <trkpt lat="46.07266" lon="6.77835">
        <ele>1893.1</ele>
        <time>2026-06-26T10:50:18Z</time>
      </trkpt>
      <trkpt lat="46.07266" lon="6.77835">
        <ele>1893.2</ele>
        <time>2026-06-26T10:50:19Z</time>
      </trkpt>
      <trkpt lat="46.07266" lon="6.77835">
        <ele>1893.3</ele>
        <time>2026-06-26T10:50:20Z</time>
      </trkpt>
      <trkpt lat="46.07266" lon="6.77835">
        <ele>1893.3</ele>
        <time>2026-06-26T10:50:21Z</time>
      </trkpt>
      <trkpt lat="46.07265" lon="6.77835">
        <ele>1893.3</ele>
        <time>2026-06-26T10:50:22Z</time>
      </trkpt>
      <trkpt lat="46.07265" lon="6.77835">
        <ele>1893.3</ele>
        <time>2026-06-26T10:50:23Z</time>
      </trkpt>
      <trkpt lat="46.07265" lon="6.77835">
        <ele>1893.3</ele>
        <time>2026-06-26T10:50:24Z</time>
      </trkpt>
      <trkpt lat="46.07265" lon="6.77835">
        <ele>1893.3</ele>
        <time>2026-06-26T10:50:25Z</time>
      </trkpt>
      <trkpt lat="46.07265" lon="6.77835">
        <ele>1893.2</ele>
        <time>2026-06-26T10:50:26Z</time>
      </trkpt>
      <trkpt lat="46.07265" lon="6.77835">
        <ele>1893.1</ele>
        <time>2026-06-26T10:50:27Z</time>
      </trkpt>
      <trkpt lat="46.07265" lon="6.77835">
        <ele>1893</ele>
        <time>2026-06-26T10:50:28Z</time>
      </trkpt>
      <trkpt lat="46.07265" lon="6.77835">
        <ele>1893</ele>
        <time>2026-06-26T10:50:29Z</time>
      </trkpt>
      <trkpt lat="46.07265" lon="6.77836">
        <ele>1892.9</ele>
        <time>2026-06-26T10:50:30Z</time>
      </trkpt>
      <trkpt lat="46.07265" lon="6.77835">
        <ele>1892.9</ele>
        <time>2026-06-26T10:50:31Z</time>
      </trkpt>
      <trkpt lat="46.07265" lon="6.77835">
        <ele>1892.9</ele>
        <time>2026-06-26T10:50:32Z</time>
      </trkpt>
      <trkpt lat="46.07265" lon="6.77835">
        <ele>1892.9</ele>
        <time>2026-06-26T10:50:33Z</time>
      </trkpt>
      <trkpt lat="46.07265" lon="6.77835">
        <ele>1892.9</ele>
        <time>2026-06-26T10:50:34Z</time>
      </trkpt>
      <trkpt lat="46.07265" lon="6.77835">
        <ele>1892.9</ele>
        <time>2026-06-26T10:50:35Z</time>
      </trkpt>
      <trkpt lat="46.07265" lon="6.77835">
        <ele>1893</ele>
        <time>2026-06-26T10:50:36Z</time>
      </trkpt>
      <trkpt lat="46.07265" lon="6.77835">
        <ele>1892.9</ele>
        <time>2026-06-26T10:50:37Z</time>
      </trkpt>
      <trkpt lat="46.07265" lon="6.77835">
        <ele>1892.9</ele>
        <time>2026-06-26T10:50:38Z</time>
      </trkpt>
      <trkpt lat="46.07265" lon="6.77835">
        <ele>1893</ele>
        <time>2026-06-26T10:50:39Z</time>
      </trkpt>
      <trkpt lat="46.07265" lon="6.77835">
        <ele>1893.1</ele>
        <time>2026-06-26T10:50:40Z</time>
      </trkpt>
      <trkpt lat="46.07264" lon="6.77835">
        <ele>1893.2</ele>
        <time>2026-06-26T10:50:41Z</time>
      </trkpt>
      <trkpt lat="46.07264" lon="6.77835">
        <ele>1893.3</ele>
        <time>2026-06-26T10:50:42Z</time>
      </trkpt>
      <trkpt lat="46.07264" lon="6.77834">
        <ele>1893.2</ele>
        <time>2026-06-26T10:50:43Z</time>
      </trkpt>
      <trkpt lat="46.07264" lon="6.77834">
        <ele>1893.2</ele>
        <time>2026-06-26T10:50:44Z</time>
      </trkpt>
      <trkpt lat="46.07264" lon="6.77834">
        <ele>1893.2</ele>
        <time>2026-06-26T10:50:45Z</time>
      </trkpt>
      <trkpt lat="46.07265" lon="6.77834">
        <ele>1893.3</ele>
        <time>2026-06-26T10:50:46Z</time>
      </trkpt>
      <trkpt lat="46.07265" lon="6.77834">
        <ele>1893.3</ele>
        <time>2026-06-26T10:50:47Z</time>
      </trkpt>
      <trkpt lat="46.07265" lon="6.77834">
        <ele>1893.3</ele>
        <time>2026-06-26T10:50:48Z</time>
      </trkpt>
      <trkpt lat="46.07265" lon="6.77834">
        <ele>1893.3</ele>
        <time>2026-06-26T10:50:49Z</time>
      </trkpt>
      <trkpt lat="46.07265" lon="6.77833">
        <ele>1893.3</ele>
        <time>2026-06-26T10:50:50Z</time>
      </trkpt>
      <trkpt lat="46.07265" lon="6.77833">
        <ele>1893.4</ele>
        <time>2026-06-26T10:50:51Z</time>
      </trkpt>
      <trkpt lat="46.07265" lon="6.77833">
        <ele>1893.4</ele>
        <time>2026-06-26T10:50:52Z</time>
      </trkpt>
      <trkpt lat="46.07264" lon="6.77834">
        <ele>1893.4</ele>
        <time>2026-06-26T10:50:53Z</time>
      </trkpt>
      <trkpt lat="46.07264" lon="6.77834">
        <ele>1893.4</ele>
        <time>2026-06-26T10:50:54Z</time>
      </trkpt>
      <trkpt lat="46.07264" lon="6.77834">
        <ele>1893.4</ele>
        <time>2026-06-26T10:50:55Z</time>
      </trkpt>
      <trkpt lat="46.07264" lon="6.77835">
        <ele>1893.4</ele>
        <time>2026-06-26T10:50:56Z</time>
      </trkpt>
      <trkpt lat="46.07264" lon="6.77835">
        <ele>1893.4</ele>
        <time>2026-06-26T10:50:57Z</time>
      </trkpt>
      <trkpt lat="46.07264" lon="6.77835">
        <ele>1893.3</ele>
        <time>2026-06-26T10:50:58Z</time>
      </trkpt>
      <trkpt lat="46.07264" lon="6.77835">
        <ele>1893.2</ele>
        <time>2026-06-26T10:50:59Z</time>
      </trkpt>
      <trkpt lat="46.07264" lon="6.77835">
        <ele>1893.2</ele>
        <time>2026-06-26T10:51:00Z</time>
      </trkpt>
      <trkpt lat="46.07264" lon="6.77835">
        <ele>1893.2</ele>
        <time>2026-06-26T10:51:01Z</time>
      </trkpt>
      <trkpt lat="46.07264" lon="6.77836">
        <ele>1893.1</ele>
        <time>2026-06-26T10:51:02Z</time>
      </trkpt>
      <trkpt lat="46.07264" lon="6.77836">
        <ele>1893.1</ele>
        <time>2026-06-26T10:51:03Z</time>
      </trkpt>
      <trkpt lat="46.07264" lon="6.77836">
        <ele>1893.2</ele>
        <time>2026-06-26T10:51:04Z</time>
      </trkpt>
      <trkpt lat="46.07264" lon="6.77836">
        <ele>1893.2</ele>
        <time>2026-06-26T10:51:05Z</time>
      </trkpt>
      <trkpt lat="46.07264" lon="6.77836">
        <ele>1893.2</ele>
        <time>2026-06-26T10:51:06Z</time>
      </trkpt>
      <trkpt lat="46.07264" lon="6.77836">
        <ele>1893.2</ele>
        <time>2026-06-26T10:51:07Z</time>
      </trkpt>
      <trkpt lat="46.07264" lon="6.77836">
        <ele>1893.2</ele>
        <time>2026-06-26T10:51:08Z</time>
      </trkpt>
      <trkpt lat="46.07264" lon="6.77836">
        <ele>1893.2</ele>
        <time>2026-06-26T10:51:09Z</time>
      </trkpt>
      <trkpt lat="46.07264" lon="6.77837">
        <ele>1893.2</ele>
        <time>2026-06-26T10:51:10Z</time>
      </trkpt>
      <trkpt lat="46.07264" lon="6.77837">
        <ele>1893.3</ele>
        <time>2026-06-26T10:51:11Z</time>
      </trkpt>
      <trkpt lat="46.07264" lon="6.77837">
        <ele>1893.3</ele>
        <time>2026-06-26T10:51:12Z</time>
      </trkpt>
      <trkpt lat="46.07264" lon="6.77837">
        <ele>1893.4</ele>
        <time>2026-06-26T10:51:13Z</time>
      </trkpt>
      <trkpt lat="46.07264" lon="6.77837">
        <ele>1893.3</ele>
        <time>2026-06-26T10:51:14Z</time>
      </trkpt>
      <trkpt lat="46.07264" lon="6.77837">
        <ele>1893.2</ele>
        <time>2026-06-26T10:51:15Z</time>
      </trkpt>
      <trkpt lat="46.07264" lon="6.77838">
        <ele>1893.2</ele>
        <time>2026-06-26T10:51:16Z</time>
      </trkpt>
      <trkpt lat="46.07264" lon="6.77838">
        <ele>1893.3</ele>
        <time>2026-06-26T10:51:17Z</time>
      </trkpt>
      <trkpt lat="46.07264" lon="6.77838">
        <ele>1893.3</ele>
        <time>2026-06-26T10:51:18Z</time>
      </trkpt>
      <trkpt lat="46.07264" lon="6.77838">
        <ele>1893.3</ele>
        <time>2026-06-26T10:51:19Z</time>
      </trkpt>
      <trkpt lat="46.07264" lon="6.77838">
        <ele>1893.3</ele>
        <time>2026-06-26T10:51:20Z</time>
      </trkpt>
      <trkpt lat="46.07264" lon="6.77838">
        <ele>1893.3</ele>
        <time>2026-06-26T10:51:21Z</time>
      </trkpt>
      <trkpt lat="46.07264" lon="6.77838">
        <ele>1893.3</ele>
        <time>2026-06-26T10:51:22Z</time>
      </trkpt>
      <trkpt lat="46.07264" lon="6.77838">
        <ele>1893.3</ele>
        <time>2026-06-26T10:51:23Z</time>
      </trkpt>
      <trkpt lat="46.07264" lon="6.77838">
        <ele>1893.4</ele>
        <time>2026-06-26T10:51:24Z</time>
      </trkpt>
      <trkpt lat="46.07264" lon="6.77838">
        <ele>1893.5</ele>
        <time>2026-06-26T10:51:25Z</time>
      </trkpt>
      <trkpt lat="46.07264" lon="6.77839">
        <ele>1893.5</ele>
        <time>2026-06-26T10:51:26Z</time>
      </trkpt>
      <trkpt lat="46.07265" lon="6.77839">
        <ele>1893.5</ele>
        <time>2026-06-26T10:51:27Z</time>
      </trkpt>
      <trkpt lat="46.07265" lon="6.77839">
        <ele>1893.6</ele>
        <time>2026-06-26T10:51:28Z</time>
      </trkpt>
      <trkpt lat="46.07265" lon="6.77839">
        <ele>1893.6</ele>
        <time>2026-06-26T10:51:29Z</time>
      </trkpt>
      <trkpt lat="46.07265" lon="6.77839">
        <ele>1893.6</ele>
        <time>2026-06-26T10:51:30Z</time>
      </trkpt>
      <trkpt lat="46.07265" lon="6.77839">
        <ele>1893.6</ele>
        <time>2026-06-26T10:51:31Z</time>
      </trkpt>
      <trkpt lat="46.07264" lon="6.77838">
        <ele>1893.4</ele>
        <time>2026-06-26T10:51:32Z</time>
      </trkpt>
      <trkpt lat="46.07264" lon="6.77838">
        <ele>1893.5</ele>
        <time>2026-06-26T10:51:33Z</time>
      </trkpt>
      <trkpt lat="46.07264" lon="6.77838">
        <ele>1893.4</ele>
        <time>2026-06-26T10:51:34Z</time>
      </trkpt>
      <trkpt lat="46.07264" lon="6.77838">
        <ele>1893.5</ele>
        <time>2026-06-26T10:51:35Z</time>
      </trkpt>
      <trkpt lat="46.07263" lon="6.77838">
        <ele>1893.5</ele>
        <time>2026-06-26T10:51:36Z</time>
      </trkpt>
      <trkpt lat="46.07262" lon="6.77838">
        <ele>1893.5</ele>
        <time>2026-06-26T10:51:37Z</time>
      </trkpt>
      <trkpt lat="46.07262" lon="6.77838">
        <ele>1893.5</ele>
        <time>2026-06-26T10:51:38Z</time>
      </trkpt>
      <trkpt lat="46.07261" lon="6.77839">
        <ele>1893.5</ele>
        <time>2026-06-26T10:51:39Z</time>
      </trkpt>
      <trkpt lat="46.0726" lon="6.77839">
        <ele>1893.3</ele>
        <time>2026-06-26T10:51:40Z</time>
      </trkpt>
      <trkpt lat="46.0726" lon="6.77839">
        <ele>1893.3</ele>
        <time>2026-06-26T10:51:41Z</time>
      </trkpt>
      <trkpt lat="46.07259" lon="6.77839">
        <ele>1893.2</ele>
        <time>2026-06-26T10:51:42Z</time>
      </trkpt>
      <trkpt lat="46.07258" lon="6.7784">
        <ele>1893.1</ele>
        <time>2026-06-26T10:51:43Z</time>
      </trkpt>
      <trkpt lat="46.07257" lon="6.7784">
        <ele>1893</ele>
        <time>2026-06-26T10:51:44Z</time>
      </trkpt>
      <trkpt lat="46.07257" lon="6.7784">
        <ele>1892.9</ele>
        <time>2026-06-26T10:51:45Z</time>
      </trkpt>
      <trkpt lat="46.07256" lon="6.7784">
        <ele>1892.9</ele>
        <time>2026-06-26T10:51:46Z</time>
      </trkpt>
      <trkpt lat="46.07256" lon="6.7784">
        <ele>1892.7</ele>
        <time>2026-06-26T10:51:47Z</time>
      </trkpt>
      <trkpt lat="46.07255" lon="6.77841">
        <ele>1892.6</ele>
        <time>2026-06-26T10:51:48Z</time>
      </trkpt>
      <trkpt lat="46.07254" lon="6.77841">
        <ele>1892.5</ele>
        <time>2026-06-26T10:51:49Z</time>
      </trkpt>
      <trkpt lat="46.07254" lon="6.77841">
        <ele>1892.5</ele>
        <time>2026-06-26T10:51:50Z</time>
      </trkpt>
      <trkpt lat="46.07253" lon="6.77842">
        <ele>1892.5</ele>
        <time>2026-06-26T10:51:51Z</time>
      </trkpt>
      <trkpt lat="46.07252" lon="6.77842">
        <ele>1892.4</ele>
        <time>2026-06-26T10:51:52Z</time>
      </trkpt>
      <trkpt lat="46.07252" lon="6.77842">
        <ele>1892.3</ele>
        <time>2026-06-26T10:51:53Z</time>
      </trkpt>
      <trkpt lat="46.07251" lon="6.77841">
        <ele>1892.2</ele>
        <time>2026-06-26T10:51:54Z</time>
      </trkpt>
      <trkpt lat="46.07251" lon="6.77839">
        <ele>1892.2</ele>
        <time>2026-06-26T10:51:55Z</time>
      </trkpt>
      <trkpt lat="46.0725" lon="6.77838">
        <ele>1892</ele>
        <time>2026-06-26T10:51:56Z</time>
      </trkpt>
      <trkpt lat="46.0725" lon="6.77838">
        <ele>1892</ele>
        <time>2026-06-26T10:51:57Z</time>
      </trkpt>
      <trkpt lat="46.07249" lon="6.77837">
        <ele>1892</ele>
        <time>2026-06-26T10:51:58Z</time>
      </trkpt>
      <trkpt lat="46.07249" lon="6.77836">
        <ele>1892</ele>
        <time>2026-06-26T10:51:59Z</time>
      </trkpt>
      <trkpt lat="46.07249" lon="6.77837">
        <ele>1892.1</ele>
        <time>2026-06-26T10:52:00Z</time>
      </trkpt>
      <trkpt lat="46.07249" lon="6.77836">
        <ele>1892.1</ele>
        <time>2026-06-26T10:52:01Z</time>
      </trkpt>
      <trkpt lat="46.0725" lon="6.77836">
        <ele>1892.2</ele>
        <time>2026-06-26T10:52:02Z</time>
      </trkpt>
      <trkpt lat="46.07249" lon="6.77836">
        <ele>1892.2</ele>
        <time>2026-06-26T10:52:03Z</time>
      </trkpt>
      <trkpt lat="46.07249" lon="6.77835">
        <ele>1892.3</ele>
        <time>2026-06-26T10:52:04Z</time>
      </trkpt>
      <trkpt lat="46.07249" lon="6.77835">
        <ele>1892.4</ele>
        <time>2026-06-26T10:52:05Z</time>
      </trkpt>
      <trkpt lat="46.07248" lon="6.77834">
        <ele>1892.5</ele>
        <time>2026-06-26T10:52:06Z</time>
      </trkpt>
      <trkpt lat="46.07248" lon="6.77834">
        <ele>1892.6</ele>
        <time>2026-06-26T10:52:07Z</time>
      </trkpt>
      <trkpt lat="46.07247" lon="6.77833">
        <ele>1892.8</ele>
        <time>2026-06-26T10:52:08Z</time>
      </trkpt>
      <trkpt lat="46.07247" lon="6.77833">
        <ele>1892.9</ele>
        <time>2026-06-26T10:52:09Z</time>
      </trkpt>
      <trkpt lat="46.07246" lon="6.77833">
        <ele>1893.1</ele>
        <time>2026-06-26T10:52:10Z</time>
      </trkpt>
      <trkpt lat="46.07246" lon="6.77833">
        <ele>1893.3</ele>
        <time>2026-06-26T10:52:11Z</time>
      </trkpt>
      <trkpt lat="46.07245" lon="6.77833">
        <ele>1893.4</ele>
        <time>2026-06-26T10:52:12Z</time>
      </trkpt>
      <trkpt lat="46.07245" lon="6.77833">
        <ele>1893.7</ele>
        <time>2026-06-26T10:52:13Z</time>
      </trkpt>
      <trkpt lat="46.07244" lon="6.77833">
        <ele>1893.8</ele>
        <time>2026-06-26T10:52:14Z</time>
      </trkpt>
      <trkpt lat="46.07244" lon="6.77833">
        <ele>1894</ele>
        <time>2026-06-26T10:52:15Z</time>
      </trkpt>
      <trkpt lat="46.07244" lon="6.77833">
        <ele>1894.1</ele>
        <time>2026-06-26T10:52:16Z</time>
      </trkpt>
      <trkpt lat="46.07243" lon="6.77832">
        <ele>1894.4</ele>
        <time>2026-06-26T10:52:17Z</time>
      </trkpt>
      <trkpt lat="46.07243" lon="6.77833">
        <ele>1894.6</ele>
        <time>2026-06-26T10:52:18Z</time>
      </trkpt>
      <trkpt lat="46.07243" lon="6.77833">
        <ele>1894.7</ele>
        <time>2026-06-26T10:52:19Z</time>
      </trkpt>
      <trkpt lat="46.07243" lon="6.77834">
        <ele>1894.9</ele>
        <time>2026-06-26T10:52:20Z</time>
      </trkpt>
      <trkpt lat="46.07243" lon="6.77834">
        <ele>1895.1</ele>
        <time>2026-06-26T10:52:21Z</time>
      </trkpt>
      <trkpt lat="46.07243" lon="6.77834">
        <ele>1895.2</ele>
        <time>2026-06-26T10:52:22Z</time>
      </trkpt>
      <trkpt lat="46.07243" lon="6.77834">
        <ele>1895.4</ele>
        <time>2026-06-26T10:52:23Z</time>
      </trkpt>
      <trkpt lat="46.07243" lon="6.77834">
        <ele>1895.6</ele>
        <time>2026-06-26T10:52:24Z</time>
      </trkpt>
      <trkpt lat="46.07243" lon="6.77833">
        <ele>1895.6</ele>
        <time>2026-06-26T10:52:25Z</time>
      </trkpt>
      <trkpt lat="46.07242" lon="6.77834">
        <ele>1895.9</ele>
        <time>2026-06-26T10:52:26Z</time>
      </trkpt>
      <trkpt lat="46.07242" lon="6.77833">
        <ele>1896.1</ele>
        <time>2026-06-26T10:52:27Z</time>
      </trkpt>
      <trkpt lat="46.07242" lon="6.77833">
        <ele>1896.3</ele>
        <time>2026-06-26T10:52:28Z</time>
      </trkpt>
      <trkpt lat="46.07242" lon="6.77832">
        <ele>1896.4</ele>
        <time>2026-06-26T10:52:29Z</time>
      </trkpt>
      <trkpt lat="46.07242" lon="6.77831">
        <ele>1896.5</ele>
        <time>2026-06-26T10:52:30Z</time>
      </trkpt>
      <trkpt lat="46.07242" lon="6.77831">
        <ele>1896.7</ele>
        <time>2026-06-26T10:52:31Z</time>
      </trkpt>
      <trkpt lat="46.07241" lon="6.7783">
        <ele>1896.9</ele>
        <time>2026-06-26T10:52:32Z</time>
      </trkpt>
      <trkpt lat="46.07241" lon="6.77829">
        <ele>1897.1</ele>
        <time>2026-06-26T10:52:33Z</time>
      </trkpt>
      <trkpt lat="46.07241" lon="6.77829">
        <ele>1897.4</ele>
        <time>2026-06-26T10:52:34Z</time>
      </trkpt>
      <trkpt lat="46.0724" lon="6.77829">
        <ele>1897.7</ele>
        <time>2026-06-26T10:52:35Z</time>
      </trkpt>
      <trkpt lat="46.07239" lon="6.77829">
        <ele>1897.9</ele>
        <time>2026-06-26T10:52:36Z</time>
      </trkpt>
      <trkpt lat="46.07239" lon="6.77829">
        <ele>1898</ele>
        <time>2026-06-26T10:52:37Z</time>
      </trkpt>
      <trkpt lat="46.07238" lon="6.77829">
        <ele>1898.2</ele>
        <time>2026-06-26T10:52:38Z</time>
      </trkpt>
      <trkpt lat="46.07238" lon="6.77829">
        <ele>1898.2</ele>
        <time>2026-06-26T10:52:39Z</time>
      </trkpt>
      <trkpt lat="46.07238" lon="6.77829">
        <ele>1898.4</ele>
        <time>2026-06-26T10:52:40Z</time>
      </trkpt>
      <trkpt lat="46.07237" lon="6.77829">
        <ele>1898.4</ele>
        <time>2026-06-26T10:52:41Z</time>
      </trkpt>
      <trkpt lat="46.07236" lon="6.77829">
        <ele>1898.6</ele>
        <time>2026-06-26T10:52:42Z</time>
      </trkpt>
      <trkpt lat="46.07236" lon="6.77829">
        <ele>1898.8</ele>
        <time>2026-06-26T10:52:43Z</time>
      </trkpt>
      <trkpt lat="46.07235" lon="6.77829">
        <ele>1898.9</ele>
        <time>2026-06-26T10:52:44Z</time>
      </trkpt>
      <trkpt lat="46.07234" lon="6.77829">
        <ele>1898.9</ele>
        <time>2026-06-26T10:52:45Z</time>
      </trkpt>
      <trkpt lat="46.07233" lon="6.77829">
        <ele>1899.1</ele>
        <time>2026-06-26T10:52:46Z</time>
      </trkpt>
      <trkpt lat="46.07233" lon="6.7783">
        <ele>1899.3</ele>
        <time>2026-06-26T10:52:47Z</time>
      </trkpt>
      <trkpt lat="46.07232" lon="6.7783">
        <ele>1899.5</ele>
        <time>2026-06-26T10:52:48Z</time>
      </trkpt>
      <trkpt lat="46.07232" lon="6.7783">
        <ele>1899.8</ele>
        <time>2026-06-26T10:52:49Z</time>
      </trkpt>
      <trkpt lat="46.07231" lon="6.77831">
        <ele>1900</ele>
        <time>2026-06-26T10:52:50Z</time>
      </trkpt>
      <trkpt lat="46.07231" lon="6.77831">
        <ele>1900.2</ele>
        <time>2026-06-26T10:52:51Z</time>
      </trkpt>
      <trkpt lat="46.0723" lon="6.77831">
        <ele>1900.3</ele>
        <time>2026-06-26T10:52:52Z</time>
      </trkpt>
      <trkpt lat="46.0723" lon="6.77832">
        <ele>1900.4</ele>
        <time>2026-06-26T10:52:53Z</time>
      </trkpt>
      <trkpt lat="46.0723" lon="6.77832">
        <ele>1900.6</ele>
        <time>2026-06-26T10:52:54Z</time>
      </trkpt>
      <trkpt lat="46.0723" lon="6.77832">
        <ele>1900.7</ele>
        <time>2026-06-26T10:52:55Z</time>
      </trkpt>
      <trkpt lat="46.07229" lon="6.77831">
        <ele>1900.8</ele>
        <time>2026-06-26T10:52:56Z</time>
      </trkpt>
      <trkpt lat="46.07229" lon="6.77831">
        <ele>1900.9</ele>
        <time>2026-06-26T10:52:57Z</time>
      </trkpt>
      <trkpt lat="46.07228" lon="6.7783">
        <ele>1901.1</ele>
        <time>2026-06-26T10:52:58Z</time>
      </trkpt>
      <trkpt lat="46.07228" lon="6.7783">
        <ele>1901.2</ele>
        <time>2026-06-26T10:52:59Z</time>
      </trkpt>
      <trkpt lat="46.07227" lon="6.7783">
        <ele>1901.3</ele>
        <time>2026-06-26T10:53:00Z</time>
      </trkpt>
      <trkpt lat="46.07227" lon="6.7783">
        <ele>1901.4</ele>
        <time>2026-06-26T10:53:01Z</time>
      </trkpt>
      <trkpt lat="46.07226" lon="6.7783">
        <ele>1901.6</ele>
        <time>2026-06-26T10:53:02Z</time>
      </trkpt>
      <trkpt lat="46.07225" lon="6.77829">
        <ele>1901.7</ele>
        <time>2026-06-26T10:53:03Z</time>
      </trkpt>
      <trkpt lat="46.07224" lon="6.7783">
        <ele>1901.7</ele>
        <time>2026-06-26T10:53:04Z</time>
      </trkpt>
      <trkpt lat="46.07224" lon="6.7783">
        <ele>1901.7</ele>
        <time>2026-06-26T10:53:05Z</time>
      </trkpt>
      <trkpt lat="46.07223" lon="6.7783">
        <ele>1901.7</ele>
        <time>2026-06-26T10:53:06Z</time>
      </trkpt>
      <trkpt lat="46.07222" lon="6.7783">
        <ele>1901.7</ele>
        <time>2026-06-26T10:53:07Z</time>
      </trkpt>
      <trkpt lat="46.07221" lon="6.77829">
        <ele>1901.6</ele>
        <time>2026-06-26T10:53:08Z</time>
      </trkpt>
      <trkpt lat="46.07221" lon="6.77829">
        <ele>1901.7</ele>
        <time>2026-06-26T10:53:09Z</time>
      </trkpt>
      <trkpt lat="46.0722" lon="6.77829">
        <ele>1901.6</ele>
        <time>2026-06-26T10:53:10Z</time>
      </trkpt>
      <trkpt lat="46.07219" lon="6.77829">
        <ele>1901.6</ele>
        <time>2026-06-26T10:53:11Z</time>
      </trkpt>
      <trkpt lat="46.07219" lon="6.77829">
        <ele>1901.5</ele>
        <time>2026-06-26T10:53:12Z</time>
      </trkpt>
      <trkpt lat="46.07218" lon="6.77829">
        <ele>1901.5</ele>
        <time>2026-06-26T10:53:13Z</time>
      </trkpt>
      <trkpt lat="46.07217" lon="6.77829">
        <ele>1901.4</ele>
        <time>2026-06-26T10:53:14Z</time>
      </trkpt>
      <trkpt lat="46.07217" lon="6.77829">
        <ele>1901.4</ele>
        <time>2026-06-26T10:53:15Z</time>
      </trkpt>
      <trkpt lat="46.07216" lon="6.7783">
        <ele>1901.4</ele>
        <time>2026-06-26T10:53:16Z</time>
      </trkpt>
      <trkpt lat="46.07215" lon="6.7783">
        <ele>1901.5</ele>
        <time>2026-06-26T10:53:17Z</time>
      </trkpt>
      <trkpt lat="46.07215" lon="6.7783">
        <ele>1901.5</ele>
        <time>2026-06-26T10:53:18Z</time>
      </trkpt>
      <trkpt lat="46.07215" lon="6.7783">
        <ele>1901.5</ele>
        <time>2026-06-26T10:53:19Z</time>
      </trkpt>
      <trkpt lat="46.07215" lon="6.7783">
        <ele>1901.6</ele>
        <time>2026-06-26T10:53:20Z</time>
      </trkpt>
      <trkpt lat="46.07215" lon="6.7783">
        <ele>1901.6</ele>
        <time>2026-06-26T10:53:21Z</time>
      </trkpt>
      <trkpt lat="46.07215" lon="6.7783">
        <ele>1901.7</ele>
        <time>2026-06-26T10:53:22Z</time>
      </trkpt>
      <trkpt lat="46.07215" lon="6.7783">
        <ele>1901.7</ele>
        <time>2026-06-26T10:53:23Z</time>
      </trkpt>
      <trkpt lat="46.07215" lon="6.7783">
        <ele>1901.8</ele>
        <time>2026-06-26T10:53:24Z</time>
      </trkpt>
      <trkpt lat="46.07215" lon="6.7783">
        <ele>1901.9</ele>
        <time>2026-06-26T10:53:25Z</time>
      </trkpt>
      <trkpt lat="46.07215" lon="6.7783">
        <ele>1902</ele>
        <time>2026-06-26T10:53:26Z</time>
      </trkpt>
      <trkpt lat="46.07215" lon="6.7783">
        <ele>1902</ele>
        <time>2026-06-26T10:53:27Z</time>
      </trkpt>
      <trkpt lat="46.07215" lon="6.7783">
        <ele>1902.1</ele>
        <time>2026-06-26T10:53:28Z</time>
      </trkpt>
      <trkpt lat="46.07215" lon="6.7783">
        <ele>1902.2</ele>
        <time>2026-06-26T10:53:29Z</time>
      </trkpt>
      <trkpt lat="46.07215" lon="6.7783">
        <ele>1902.1</ele>
        <time>2026-06-26T10:53:30Z</time>
      </trkpt>
      <trkpt lat="46.07215" lon="6.7783">
        <ele>1902</ele>
        <time>2026-06-26T10:53:31Z</time>
      </trkpt>
      <trkpt lat="46.07215" lon="6.7783">
        <ele>1902.1</ele>
        <time>2026-06-26T10:53:32Z</time>
      </trkpt>
      <trkpt lat="46.07215" lon="6.7783">
        <ele>1902</ele>
        <time>2026-06-26T10:53:33Z</time>
      </trkpt>
      <trkpt lat="46.07215" lon="6.7783">
        <ele>1901.9</ele>
        <time>2026-06-26T10:53:34Z</time>
      </trkpt>
      <trkpt lat="46.07215" lon="6.7783">
        <ele>1901.8</ele>
        <time>2026-06-26T10:53:35Z</time>
      </trkpt>
      <trkpt lat="46.07215" lon="6.7783">
        <ele>1901.8</ele>
        <time>2026-06-26T10:53:36Z</time>
      </trkpt>
      <trkpt lat="46.07215" lon="6.77831">
        <ele>1901.9</ele>
        <time>2026-06-26T10:53:37Z</time>
      </trkpt>
      <trkpt lat="46.07215" lon="6.7783">
        <ele>1901.9</ele>
        <time>2026-06-26T10:53:38Z</time>
      </trkpt>
      <trkpt lat="46.07215" lon="6.77831">
        <ele>1901.9</ele>
        <time>2026-06-26T10:53:39Z</time>
      </trkpt>
      <trkpt lat="46.07215" lon="6.77831">
        <ele>1901.9</ele>
        <time>2026-06-26T10:53:40Z</time>
      </trkpt>
      <trkpt lat="46.07215" lon="6.77831">
        <ele>1902</ele>
        <time>2026-06-26T10:53:41Z</time>
      </trkpt>
      <trkpt lat="46.07215" lon="6.77831">
        <ele>1902.1</ele>
        <time>2026-06-26T10:53:42Z</time>
      </trkpt>
      <trkpt lat="46.07215" lon="6.77831">
        <ele>1902</ele>
        <time>2026-06-26T10:53:43Z</time>
      </trkpt>
      <trkpt lat="46.07215" lon="6.7783">
        <ele>1902</ele>
        <time>2026-06-26T10:53:44Z</time>
      </trkpt>
      <trkpt lat="46.07215" lon="6.7783">
        <ele>1902</ele>
        <time>2026-06-26T10:53:45Z</time>
      </trkpt>
      <trkpt lat="46.07215" lon="6.7783">
        <ele>1902</ele>
        <time>2026-06-26T10:53:46Z</time>
      </trkpt>
      <trkpt lat="46.07215" lon="6.7783">
        <ele>1902</ele>
        <time>2026-06-26T10:53:47Z</time>
      </trkpt>
      <trkpt lat="46.07215" lon="6.77831">
        <ele>1901.9</ele>
        <time>2026-06-26T10:53:48Z</time>
      </trkpt>
      <trkpt lat="46.07215" lon="6.7783">
        <ele>1901.9</ele>
        <time>2026-06-26T10:53:49Z</time>
      </trkpt>
      <trkpt lat="46.07215" lon="6.7783">
        <ele>1901.9</ele>
        <time>2026-06-26T10:53:50Z</time>
      </trkpt>
      <trkpt lat="46.07215" lon="6.7783">
        <ele>1901.9</ele>
        <time>2026-06-26T10:53:51Z</time>
      </trkpt>
      <trkpt lat="46.07215" lon="6.7783">
        <ele>1901.9</ele>
        <time>2026-06-26T10:53:52Z</time>
      </trkpt>
      <trkpt lat="46.07215" lon="6.7783">
        <ele>1901.9</ele>
        <time>2026-06-26T10:53:53Z</time>
      </trkpt>
      <trkpt lat="46.07215" lon="6.7783">
        <ele>1901.9</ele>
        <time>2026-06-26T10:53:54Z</time>
      </trkpt>
      <trkpt lat="46.07215" lon="6.7783">
        <ele>1901.9</ele>
        <time>2026-06-26T10:53:55Z</time>
      </trkpt>
      <trkpt lat="46.07215" lon="6.7783">
        <ele>1901.9</ele>
        <time>2026-06-26T10:53:56Z</time>
      </trkpt>
      <trkpt lat="46.07215" lon="6.7783">
        <ele>1901.9</ele>
        <time>2026-06-26T10:53:57Z</time>
      </trkpt>
      <trkpt lat="46.07215" lon="6.7783">
        <ele>1901.9</ele>
        <time>2026-06-26T10:53:58Z</time>
      </trkpt>
      <trkpt lat="46.07215" lon="6.7783">
        <ele>1902</ele>
        <time>2026-06-26T10:53:59Z</time>
      </trkpt>
      <trkpt lat="46.07215" lon="6.7783">
        <ele>1902.1</ele>
        <time>2026-06-26T10:54:00Z</time>
      </trkpt>
      <trkpt lat="46.07215" lon="6.7783">
        <ele>1902.1</ele>
        <time>2026-06-26T10:54:01Z</time>
      </trkpt>
      <trkpt lat="46.07215" lon="6.7783">
        <ele>1902.1</ele>
        <time>2026-06-26T10:54:02Z</time>
      </trkpt>
      <trkpt lat="46.07215" lon="6.7783">
        <ele>1902.1</ele>
        <time>2026-06-26T10:54:03Z</time>
      </trkpt>
      <trkpt lat="46.07215" lon="6.7783">
        <ele>1902.1</ele>
        <time>2026-06-26T10:54:04Z</time>
      </trkpt>
      <trkpt lat="46.07215" lon="6.7783">
        <ele>1902.2</ele>
        <time>2026-06-26T10:54:05Z</time>
      </trkpt>
      <trkpt lat="46.07215" lon="6.7783">
        <ele>1902.2</ele>
        <time>2026-06-26T10:54:06Z</time>
      </trkpt>
      <trkpt lat="46.07215" lon="6.7783">
        <ele>1902.3</ele>
        <time>2026-06-26T10:54:07Z</time>
      </trkpt>
      <trkpt lat="46.07215" lon="6.7783">
        <ele>1902.3</ele>
        <time>2026-06-26T10:54:08Z</time>
      </trkpt>
      <trkpt lat="46.07215" lon="6.7783">
        <ele>1902.2</ele>
        <time>2026-06-26T10:54:09Z</time>
      </trkpt>
      <trkpt lat="46.07215" lon="6.7783">
        <ele>1902.1</ele>
        <time>2026-06-26T10:54:10Z</time>
      </trkpt>
      <trkpt lat="46.07215" lon="6.7783">
        <ele>1902.1</ele>
        <time>2026-06-26T10:54:11Z</time>
      </trkpt>
      <trkpt lat="46.07215" lon="6.7783">
        <ele>1902.1</ele>
        <time>2026-06-26T10:54:12Z</time>
      </trkpt>
      <trkpt lat="46.07215" lon="6.7783">
        <ele>1902.1</ele>
        <time>2026-06-26T10:54:13Z</time>
      </trkpt>
      <trkpt lat="46.07215" lon="6.7783">
        <ele>1902</ele>
        <time>2026-06-26T10:54:14Z</time>
      </trkpt>
      <trkpt lat="46.07215" lon="6.77831">
        <ele>1902.1</ele>
        <time>2026-06-26T10:54:15Z</time>
      </trkpt>
      <trkpt lat="46.07215" lon="6.77831">
        <ele>1902.1</ele>
        <time>2026-06-26T10:54:16Z</time>
      </trkpt>
      <trkpt lat="46.07215" lon="6.77831">
        <ele>1902</ele>
        <time>2026-06-26T10:54:17Z</time>
      </trkpt>
      <trkpt lat="46.07215" lon="6.77831">
        <ele>1902</ele>
        <time>2026-06-26T10:54:18Z</time>
      </trkpt>
      <trkpt lat="46.07215" lon="6.77831">
        <ele>1902.1</ele>
        <time>2026-06-26T10:54:19Z</time>
      </trkpt>
      <trkpt lat="46.07215" lon="6.77831">
        <ele>1901.9</ele>
        <time>2026-06-26T10:54:20Z</time>
      </trkpt>
      <trkpt lat="46.07215" lon="6.77831">
        <ele>1901.8</ele>
        <time>2026-06-26T10:54:21Z</time>
      </trkpt>
      <trkpt lat="46.07215" lon="6.7783">
        <ele>1901.7</ele>
        <time>2026-06-26T10:54:22Z</time>
      </trkpt>
      <trkpt lat="46.07215" lon="6.7783">
        <ele>1901.6</ele>
        <time>2026-06-26T10:54:23Z</time>
      </trkpt>
      <trkpt lat="46.07215" lon="6.7783">
        <ele>1901.6</ele>
        <time>2026-06-26T10:54:24Z</time>
      </trkpt>
      <trkpt lat="46.07215" lon="6.7783">
        <ele>1901.6</ele>
        <time>2026-06-26T10:54:25Z</time>
      </trkpt>
      <trkpt lat="46.07215" lon="6.7783">
        <ele>1901.7</ele>
        <time>2026-06-26T10:54:26Z</time>
      </trkpt>
      <trkpt lat="46.07215" lon="6.7783">
        <ele>1901.7</ele>
        <time>2026-06-26T10:54:27Z</time>
      </trkpt>
      <trkpt lat="46.07215" lon="6.7783">
        <ele>1901.8</ele>
        <time>2026-06-26T10:54:28Z</time>
      </trkpt>
      <trkpt lat="46.07215" lon="6.7783">
        <ele>1901.8</ele>
        <time>2026-06-26T10:54:29Z</time>
      </trkpt>
      <trkpt lat="46.07215" lon="6.7783">
        <ele>1901.8</ele>
        <time>2026-06-26T10:54:30Z</time>
      </trkpt>
      <trkpt lat="46.07215" lon="6.7783">
        <ele>1901.7</ele>
        <time>2026-06-26T10:54:31Z</time>
      </trkpt>
      <trkpt lat="46.07215" lon="6.7783">
        <ele>1901.8</ele>
        <time>2026-06-26T10:54:32Z</time>
      </trkpt>
      <trkpt lat="46.07215" lon="6.7783">
        <ele>1901.8</ele>
        <time>2026-06-26T10:54:33Z</time>
      </trkpt>
      <trkpt lat="46.07215" lon="6.7783">
        <ele>1901.8</ele>
        <time>2026-06-26T10:54:34Z</time>
      </trkpt>
      <trkpt lat="46.07215" lon="6.7783">
        <ele>1901.8</ele>
        <time>2026-06-26T10:54:35Z</time>
      </trkpt>
      <trkpt lat="46.07215" lon="6.7783">
        <ele>1901.8</ele>
        <time>2026-06-26T10:54:36Z</time>
      </trkpt>
      <trkpt lat="46.07215" lon="6.7783">
        <ele>1901.8</ele>
        <time>2026-06-26T10:54:37Z</time>
      </trkpt>
      <trkpt lat="46.07215" lon="6.7783">
        <ele>1901.7</ele>
        <time>2026-06-26T10:54:38Z</time>
      </trkpt>
      <trkpt lat="46.07215" lon="6.7783">
        <ele>1901.7</ele>
        <time>2026-06-26T10:54:39Z</time>
      </trkpt>
      <trkpt lat="46.07215" lon="6.77831">
        <ele>1901.7</ele>
        <time>2026-06-26T10:54:40Z</time>
      </trkpt>
      <trkpt lat="46.07215" lon="6.7783">
        <ele>1901.7</ele>
        <time>2026-06-26T10:54:41Z</time>
      </trkpt>
      <trkpt lat="46.07215" lon="6.7783">
        <ele>1901.8</ele>
        <time>2026-06-26T10:54:42Z</time>
      </trkpt>
      <trkpt lat="46.07215" lon="6.7783">
        <ele>1901.8</ele>
        <time>2026-06-26T10:54:43Z</time>
      </trkpt>
      <trkpt lat="46.07215" lon="6.7783">
        <ele>1901.8</ele>
        <time>2026-06-26T10:54:44Z</time>
      </trkpt>
      <trkpt lat="46.07215" lon="6.7783">
        <ele>1901.8</ele>
        <time>2026-06-26T10:54:45Z</time>
      </trkpt>
      <trkpt lat="46.07215" lon="6.7783">
        <ele>1901.8</ele>
        <time>2026-06-26T10:54:46Z</time>
      </trkpt>
      <trkpt lat="46.07215" lon="6.7783">
        <ele>1901.8</ele>
        <time>2026-06-26T10:54:47Z</time>
      </trkpt>
      <trkpt lat="46.07215" lon="6.7783">
        <ele>1901.8</ele>
        <time>2026-06-26T10:54:48Z</time>
      </trkpt>
      <trkpt lat="46.07215" lon="6.7783">
        <ele>1901.8</ele>
        <time>2026-06-26T10:54:49Z</time>
      </trkpt>
      <trkpt lat="46.07215" lon="6.7783">
        <ele>1901.8</ele>
        <time>2026-06-26T10:54:50Z</time>
      </trkpt>
      <trkpt lat="46.07215" lon="6.7783">
        <ele>1901.8</ele>
        <time>2026-06-26T10:54:51Z</time>
      </trkpt>
      <trkpt lat="46.07215" lon="6.7783">
        <ele>1901.8</ele>
        <time>2026-06-26T10:54:52Z</time>
      </trkpt>
      <trkpt lat="46.07215" lon="6.7783">
        <ele>1901.8</ele>
        <time>2026-06-26T10:54:53Z</time>
      </trkpt>
      <trkpt lat="46.07215" lon="6.7783">
        <ele>1901.8</ele>
        <time>2026-06-26T10:54:54Z</time>
      </trkpt>
      <trkpt lat="46.07215" lon="6.7783">
        <ele>1901.8</ele>
        <time>2026-06-26T10:54:55Z</time>
      </trkpt>
      <trkpt lat="46.07215" lon="6.7783">
        <ele>1901.7</ele>
        <time>2026-06-26T10:54:56Z</time>
      </trkpt>
      <trkpt lat="46.07214" lon="6.7783">
        <ele>1901.7</ele>
        <time>2026-06-26T10:54:57Z</time>
      </trkpt>
      <trkpt lat="46.07214" lon="6.7783">
        <ele>1901.8</ele>
        <time>2026-06-26T10:54:58Z</time>
      </trkpt>
      <trkpt lat="46.07214" lon="6.77829">
        <ele>1901.8</ele>
        <time>2026-06-26T10:54:59Z</time>
      </trkpt>
      <trkpt lat="46.07214" lon="6.77829">
        <ele>1901.9</ele>
        <time>2026-06-26T10:55:00Z</time>
      </trkpt>
      <trkpt lat="46.07214" lon="6.77829">
        <ele>1902</ele>
        <time>2026-06-26T10:55:01Z</time>
      </trkpt>
      <trkpt lat="46.07214" lon="6.77829">
        <ele>1902.1</ele>
        <time>2026-06-26T10:55:02Z</time>
      </trkpt>
      <trkpt lat="46.07213" lon="6.77829">
        <ele>1902.1</ele>
        <time>2026-06-26T10:55:03Z</time>
      </trkpt>
      <trkpt lat="46.07213" lon="6.77829">
        <ele>1902.1</ele>
        <time>2026-06-26T10:55:04Z</time>
      </trkpt>
      <trkpt lat="46.07213" lon="6.77829">
        <ele>1902.1</ele>
        <time>2026-06-26T10:55:05Z</time>
      </trkpt>
      <trkpt lat="46.07213" lon="6.77829">
        <ele>1902</ele>
        <time>2026-06-26T10:55:06Z</time>
      </trkpt>
      <trkpt lat="46.07213" lon="6.77829">
        <ele>1902.1</ele>
        <time>2026-06-26T10:55:07Z</time>
      </trkpt>
      <trkpt lat="46.07213" lon="6.77829">
        <ele>1902.1</ele>
        <time>2026-06-26T10:55:08Z</time>
      </trkpt>
      <trkpt lat="46.07213" lon="6.77829">
        <ele>1902.1</ele>
        <time>2026-06-26T10:55:09Z</time>
      </trkpt>
      <trkpt lat="46.07213" lon="6.77829">
        <ele>1902.1</ele>
        <time>2026-06-26T10:55:10Z</time>
      </trkpt>
      <trkpt lat="46.07213" lon="6.77829">
        <ele>1902.1</ele>
        <time>2026-06-26T10:55:11Z</time>
      </trkpt>
      <trkpt lat="46.07213" lon="6.77829">
        <ele>1902.1</ele>
        <time>2026-06-26T10:55:12Z</time>
      </trkpt>
      <trkpt lat="46.07213" lon="6.77829">
        <ele>1902.2</ele>
        <time>2026-06-26T10:55:13Z</time>
      </trkpt>
      <trkpt lat="46.07213" lon="6.77829">
        <ele>1902.2</ele>
        <time>2026-06-26T10:55:14Z</time>
      </trkpt>
      <trkpt lat="46.07213" lon="6.77829">
        <ele>1902.2</ele>
        <time>2026-06-26T10:55:15Z</time>
      </trkpt>
      <trkpt lat="46.07213" lon="6.77829">
        <ele>1902.3</ele>
        <time>2026-06-26T10:55:16Z</time>
      </trkpt>
      <trkpt lat="46.07213" lon="6.77829">
        <ele>1902.3</ele>
        <time>2026-06-26T10:55:17Z</time>
      </trkpt>
      <trkpt lat="46.07213" lon="6.77829">
        <ele>1902.3</ele>
        <time>2026-06-26T10:55:18Z</time>
      </trkpt>
      <trkpt lat="46.07213" lon="6.77829">
        <ele>1902.3</ele>
        <time>2026-06-26T10:55:19Z</time>
      </trkpt>
      <trkpt lat="46.07213" lon="6.77829">
        <ele>1902.3</ele>
        <time>2026-06-26T10:55:20Z</time>
      </trkpt>
      <trkpt lat="46.07213" lon="6.77829">
        <ele>1902.3</ele>
        <time>2026-06-26T10:55:21Z</time>
      </trkpt>
      <trkpt lat="46.07213" lon="6.77829">
        <ele>1902.3</ele>
        <time>2026-06-26T10:55:22Z</time>
      </trkpt>
      <trkpt lat="46.07213" lon="6.77829">
        <ele>1902.2</ele>
        <time>2026-06-26T10:55:23Z</time>
      </trkpt>
      <trkpt lat="46.07213" lon="6.77829">
        <ele>1902.3</ele>
        <time>2026-06-26T10:55:24Z</time>
      </trkpt>
      <trkpt lat="46.07213" lon="6.7783">
        <ele>1902.3</ele>
        <time>2026-06-26T10:55:25Z</time>
      </trkpt>
      <trkpt lat="46.07213" lon="6.7783">
        <ele>1902.3</ele>
        <time>2026-06-26T10:55:26Z</time>
      </trkpt>
      <trkpt lat="46.07213" lon="6.7783">
        <ele>1902.2</ele>
        <time>2026-06-26T10:55:27Z</time>
      </trkpt>
      <trkpt lat="46.07213" lon="6.7783">
        <ele>1902.2</ele>
        <time>2026-06-26T10:55:28Z</time>
      </trkpt>
      <trkpt lat="46.07213" lon="6.7783">
        <ele>1902.2</ele>
        <time>2026-06-26T10:55:29Z</time>
      </trkpt>
      <trkpt lat="46.07213" lon="6.7783">
        <ele>1902.2</ele>
        <time>2026-06-26T10:55:30Z</time>
      </trkpt>
      <trkpt lat="46.07213" lon="6.7783">
        <ele>1902.3</ele>
        <time>2026-06-26T10:55:31Z</time>
      </trkpt>
      <trkpt lat="46.07213" lon="6.7783">
        <ele>1902.3</ele>
        <time>2026-06-26T10:55:32Z</time>
      </trkpt>
      <trkpt lat="46.07213" lon="6.7783">
        <ele>1902.3</ele>
        <time>2026-06-26T10:55:33Z</time>
      </trkpt>
      <trkpt lat="46.07213" lon="6.7783">
        <ele>1902.2</ele>
        <time>2026-06-26T10:55:34Z</time>
      </trkpt>
      <trkpt lat="46.07213" lon="6.7783">
        <ele>1902.2</ele>
        <time>2026-06-26T10:55:35Z</time>
      </trkpt>
      <trkpt lat="46.07213" lon="6.7783">
        <ele>1902.2</ele>
        <time>2026-06-26T10:55:36Z</time>
      </trkpt>
      <trkpt lat="46.07213" lon="6.7783">
        <ele>1902.3</ele>
        <time>2026-06-26T10:55:37Z</time>
      </trkpt>
      <trkpt lat="46.07213" lon="6.7783">
        <ele>1902.3</ele>
        <time>2026-06-26T10:55:38Z</time>
      </trkpt>
      <trkpt lat="46.07213" lon="6.7783">
        <ele>1902.4</ele>
        <time>2026-06-26T10:55:39Z</time>
      </trkpt>
      <trkpt lat="46.07213" lon="6.7783">
        <ele>1902.4</ele>
        <time>2026-06-26T10:55:40Z</time>
      </trkpt>
      <trkpt lat="46.07213" lon="6.7783">
        <ele>1902.4</ele>
        <time>2026-06-26T10:55:41Z</time>
      </trkpt>
      <trkpt lat="46.07213" lon="6.7783">
        <ele>1902.4</ele>
        <time>2026-06-26T10:55:42Z</time>
      </trkpt>
      <trkpt lat="46.07213" lon="6.7783">
        <ele>1902.4</ele>
        <time>2026-06-26T10:55:43Z</time>
      </trkpt>
      <trkpt lat="46.07213" lon="6.7783">
        <ele>1902.4</ele>
        <time>2026-06-26T10:55:44Z</time>
      </trkpt>
      <trkpt lat="46.07213" lon="6.7783">
        <ele>1902.5</ele>
        <time>2026-06-26T10:55:45Z</time>
      </trkpt>
      <trkpt lat="46.07213" lon="6.7783">
        <ele>1902.6</ele>
        <time>2026-06-26T10:55:46Z</time>
      </trkpt>
      <trkpt lat="46.07213" lon="6.7783">
        <ele>1902.5</ele>
        <time>2026-06-26T10:55:47Z</time>
      </trkpt>
      <trkpt lat="46.07213" lon="6.77829">
        <ele>1902.4</ele>
        <time>2026-06-26T10:55:48Z</time>
      </trkpt>
      <trkpt lat="46.07213" lon="6.77829">
        <ele>1902.3</ele>
        <time>2026-06-26T10:55:49Z</time>
      </trkpt>
      <trkpt lat="46.07213" lon="6.77829">
        <ele>1902.3</ele>
        <time>2026-06-26T10:55:50Z</time>
      </trkpt>
      <trkpt lat="46.07213" lon="6.77829">
        <ele>1902.4</ele>
        <time>2026-06-26T10:55:51Z</time>
      </trkpt>
      <trkpt lat="46.07213" lon="6.77829">
        <ele>1902.4</ele>
        <time>2026-06-26T10:55:52Z</time>
      </trkpt>
      <trkpt lat="46.07213" lon="6.7783">
        <ele>1902.4</ele>
        <time>2026-06-26T10:55:53Z</time>
      </trkpt>
      <trkpt lat="46.07213" lon="6.7783">
        <ele>1902.4</ele>
        <time>2026-06-26T10:55:54Z</time>
      </trkpt>
      <trkpt lat="46.07213" lon="6.7783">
        <ele>1902.4</ele>
        <time>2026-06-26T10:55:55Z</time>
      </trkpt>
      <trkpt lat="46.07213" lon="6.7783">
        <ele>1902.4</ele>
        <time>2026-06-26T10:55:56Z</time>
      </trkpt>
      <trkpt lat="46.07213" lon="6.7783">
        <ele>1902.4</ele>
        <time>2026-06-26T10:55:57Z</time>
      </trkpt>
      <trkpt lat="46.07213" lon="6.7783">
        <ele>1902.4</ele>
        <time>2026-06-26T10:55:58Z</time>
      </trkpt>
      <trkpt lat="46.07213" lon="6.7783">
        <ele>1902.4</ele>
        <time>2026-06-26T10:55:59Z</time>
      </trkpt>
      <trkpt lat="46.07213" lon="6.7783">
        <ele>1902.3</ele>
        <time>2026-06-26T10:56:00Z</time>
      </trkpt>
      <trkpt lat="46.07213" lon="6.7783">
        <ele>1902.3</ele>
        <time>2026-06-26T10:56:01Z</time>
      </trkpt>
      <trkpt lat="46.07213" lon="6.7783">
        <ele>1902.4</ele>
        <time>2026-06-26T10:56:02Z</time>
      </trkpt>
      <trkpt lat="46.07213" lon="6.7783">
        <ele>1902.4</ele>
        <time>2026-06-26T10:56:03Z</time>
      </trkpt>
      <trkpt lat="46.07213" lon="6.7783">
        <ele>1902.4</ele>
        <time>2026-06-26T10:56:04Z</time>
      </trkpt>
      <trkpt lat="46.07213" lon="6.7783">
        <ele>1902.4</ele>
        <time>2026-06-26T10:56:05Z</time>
      </trkpt>
      <trkpt lat="46.07213" lon="6.7783">
        <ele>1902.4</ele>
        <time>2026-06-26T10:56:06Z</time>
      </trkpt>
      <trkpt lat="46.07213" lon="6.7783">
        <ele>1902.4</ele>
        <time>2026-06-26T10:56:07Z</time>
      </trkpt>
      <trkpt lat="46.07213" lon="6.7783">
        <ele>1902.4</ele>
        <time>2026-06-26T10:56:08Z</time>
      </trkpt>
      <trkpt lat="46.07213" lon="6.7783">
        <ele>1902.4</ele>
        <time>2026-06-26T10:56:09Z</time>
      </trkpt>
      <trkpt lat="46.07213" lon="6.7783">
        <ele>1902.4</ele>
        <time>2026-06-26T10:56:10Z</time>
      </trkpt>
      <trkpt lat="46.07213" lon="6.7783">
        <ele>1902.3</ele>
        <time>2026-06-26T10:56:11Z</time>
      </trkpt>
      <trkpt lat="46.07213" lon="6.7783">
        <ele>1902.4</ele>
        <time>2026-06-26T10:56:12Z</time>
      </trkpt>
      <trkpt lat="46.07213" lon="6.77831">
        <ele>1902.4</ele>
        <time>2026-06-26T10:56:13Z</time>
      </trkpt>
      <trkpt lat="46.07212" lon="6.77831">
        <ele>1902.4</ele>
        <time>2026-06-26T10:56:14Z</time>
      </trkpt>
      <trkpt lat="46.07212" lon="6.77831">
        <ele>1902.4</ele>
        <time>2026-06-26T10:56:15Z</time>
      </trkpt>
      <trkpt lat="46.07212" lon="6.77831">
        <ele>1902.4</ele>
        <time>2026-06-26T10:56:16Z</time>
      </trkpt>
      <trkpt lat="46.07212" lon="6.77831">
        <ele>1902.4</ele>
        <time>2026-06-26T10:56:17Z</time>
      </trkpt>
      <trkpt lat="46.07211" lon="6.77831">
        <ele>1902.2</ele>
        <time>2026-06-26T10:56:18Z</time>
      </trkpt>
      <trkpt lat="46.07211" lon="6.77831">
        <ele>1902.1</ele>
        <time>2026-06-26T10:56:19Z</time>
      </trkpt>
      <trkpt lat="46.0721" lon="6.77831">
        <ele>1901.9</ele>
        <time>2026-06-26T10:56:20Z</time>
      </trkpt>
      <trkpt lat="46.0721" lon="6.7783">
        <ele>1901.7</ele>
        <time>2026-06-26T10:56:21Z</time>
      </trkpt>
      <trkpt lat="46.07209" lon="6.7783">
        <ele>1901.5</ele>
        <time>2026-06-26T10:56:22Z</time>
      </trkpt>
      <trkpt lat="46.07209" lon="6.7783">
        <ele>1901.3</ele>
        <time>2026-06-26T10:56:23Z</time>
      </trkpt>
      <trkpt lat="46.07208" lon="6.7783">
        <ele>1901.2</ele>
        <time>2026-06-26T10:56:24Z</time>
      </trkpt>
      <trkpt lat="46.07208" lon="6.77831">
        <ele>1901.1</ele>
        <time>2026-06-26T10:56:25Z</time>
      </trkpt>
      <trkpt lat="46.07207" lon="6.77831">
        <ele>1901</ele>
        <time>2026-06-26T10:56:26Z</time>
      </trkpt>
      <trkpt lat="46.07207" lon="6.77831">
        <ele>1900.9</ele>
        <time>2026-06-26T10:56:27Z</time>
      </trkpt>
      <trkpt lat="46.07206" lon="6.77831">
        <ele>1900.8</ele>
        <time>2026-06-26T10:56:28Z</time>
      </trkpt>
      <trkpt lat="46.07205" lon="6.77831">
        <ele>1900.7</ele>
        <time>2026-06-26T10:56:29Z</time>
      </trkpt>
      <trkpt lat="46.07205" lon="6.77831">
        <ele>1900.6</ele>
        <time>2026-06-26T10:56:30Z</time>
      </trkpt>
      <trkpt lat="46.07204" lon="6.77831">
        <ele>1900.5</ele>
        <time>2026-06-26T10:56:31Z</time>
      </trkpt>
      <trkpt lat="46.07204" lon="6.77832">
        <ele>1900.5</ele>
        <time>2026-06-26T10:56:32Z</time>
      </trkpt>
      <trkpt lat="46.07204" lon="6.77831">
        <ele>1900.3</ele>
        <time>2026-06-26T10:56:33Z</time>
      </trkpt>
      <trkpt lat="46.07203" lon="6.7783">
        <ele>1900.1</ele>
        <time>2026-06-26T10:56:34Z</time>
      </trkpt>
      <trkpt lat="46.07203" lon="6.7783">
        <ele>1900</ele>
        <time>2026-06-26T10:56:35Z</time>
      </trkpt>
      <trkpt lat="46.07202" lon="6.77829">
        <ele>1899.8</ele>
        <time>2026-06-26T10:56:36Z</time>
      </trkpt>
      <trkpt lat="46.07202" lon="6.77829">
        <ele>1899.6</ele>
        <time>2026-06-26T10:56:37Z</time>
      </trkpt>
      <trkpt lat="46.07201" lon="6.77828">
        <ele>1899.4</ele>
        <time>2026-06-26T10:56:38Z</time>
      </trkpt>
      <trkpt lat="46.07201" lon="6.77827">
        <ele>1899.3</ele>
        <time>2026-06-26T10:56:39Z</time>
      </trkpt>
      <trkpt lat="46.072" lon="6.77827">
        <ele>1899</ele>
        <time>2026-06-26T10:56:40Z</time>
      </trkpt>
      <trkpt lat="46.072" lon="6.77826">
        <ele>1898.8</ele>
        <time>2026-06-26T10:56:41Z</time>
      </trkpt>
      <trkpt lat="46.072" lon="6.77826">
        <ele>1898.6</ele>
        <time>2026-06-26T10:56:42Z</time>
      </trkpt>
      <trkpt lat="46.07199" lon="6.77825">
        <ele>1898.4</ele>
        <time>2026-06-26T10:56:43Z</time>
      </trkpt>
      <trkpt lat="46.07199" lon="6.77824">
        <ele>1898.2</ele>
        <time>2026-06-26T10:56:44Z</time>
      </trkpt>
      <trkpt lat="46.07198" lon="6.77824">
        <ele>1898</ele>
        <time>2026-06-26T10:56:45Z</time>
      </trkpt>
      <trkpt lat="46.07198" lon="6.77824">
        <ele>1897.7</ele>
        <time>2026-06-26T10:56:46Z</time>
      </trkpt>
      <trkpt lat="46.07197" lon="6.77824">
        <ele>1897.5</ele>
        <time>2026-06-26T10:56:47Z</time>
      </trkpt>
      <trkpt lat="46.07197" lon="6.77823">
        <ele>1897.2</ele>
        <time>2026-06-26T10:56:48Z</time>
      </trkpt>
      <trkpt lat="46.07197" lon="6.77823">
        <ele>1896.9</ele>
        <time>2026-06-26T10:56:49Z</time>
      </trkpt>
      <trkpt lat="46.07196" lon="6.77822">
        <ele>1896.6</ele>
        <time>2026-06-26T10:56:50Z</time>
      </trkpt>
      <trkpt lat="46.07196" lon="6.77821">
        <ele>1896.7</ele>
        <time>2026-06-26T10:56:51Z</time>
      </trkpt>
      <trkpt lat="46.07195" lon="6.77821">
        <ele>1896.6</ele>
        <time>2026-06-26T10:56:52Z</time>
      </trkpt>
      <trkpt lat="46.07194" lon="6.7782">
        <ele>1896.1</ele>
        <time>2026-06-26T10:56:53Z</time>
      </trkpt>
      <trkpt lat="46.07194" lon="6.77819">
        <ele>1895.7</ele>
        <time>2026-06-26T10:56:54Z</time>
      </trkpt>
      <trkpt lat="46.07193" lon="6.77818">
        <ele>1895.4</ele>
        <time>2026-06-26T10:56:55Z</time>
      </trkpt>
      <trkpt lat="46.07193" lon="6.77818">
        <ele>1895.2</ele>
        <time>2026-06-26T10:56:56Z</time>
      </trkpt>
      <trkpt lat="46.07192" lon="6.77817">
        <ele>1895</ele>
        <time>2026-06-26T10:56:57Z</time>
      </trkpt>
      <trkpt lat="46.07192" lon="6.77816">
        <ele>1894.9</ele>
        <time>2026-06-26T10:56:58Z</time>
      </trkpt>
      <trkpt lat="46.07191" lon="6.77815">
        <ele>1894.7</ele>
        <time>2026-06-26T10:56:59Z</time>
      </trkpt>
      <trkpt lat="46.07191" lon="6.77815">
        <ele>1894.5</ele>
        <time>2026-06-26T10:57:00Z</time>
      </trkpt>
      <trkpt lat="46.0719" lon="6.77814">
        <ele>1894.3</ele>
        <time>2026-06-26T10:57:01Z</time>
      </trkpt>
      <trkpt lat="46.0719" lon="6.77814">
        <ele>1894.1</ele>
        <time>2026-06-26T10:57:02Z</time>
      </trkpt>
      <trkpt lat="46.07189" lon="6.77813">
        <ele>1893.9</ele>
        <time>2026-06-26T10:57:03Z</time>
      </trkpt>
      <trkpt lat="46.07189" lon="6.77813">
        <ele>1893.8</ele>
        <time>2026-06-26T10:57:04Z</time>
      </trkpt>
      <trkpt lat="46.07188" lon="6.77812">
        <ele>1893.7</ele>
        <time>2026-06-26T10:57:05Z</time>
      </trkpt>
      <trkpt lat="46.07188" lon="6.77811">
        <ele>1893.5</ele>
        <time>2026-06-26T10:57:06Z</time>
      </trkpt>
      <trkpt lat="46.07187" lon="6.77811">
        <ele>1893.3</ele>
        <time>2026-06-26T10:57:07Z</time>
      </trkpt>
      <trkpt lat="46.07187" lon="6.7781">
        <ele>1893.1</ele>
        <time>2026-06-26T10:57:08Z</time>
      </trkpt>
      <trkpt lat="46.07186" lon="6.7781">
        <ele>1892.9</ele>
        <time>2026-06-26T10:57:09Z</time>
      </trkpt>
      <trkpt lat="46.07186" lon="6.77809">
        <ele>1892.7</ele>
        <time>2026-06-26T10:57:10Z</time>
      </trkpt>
      <trkpt lat="46.07185" lon="6.77808">
        <ele>1892.5</ele>
        <time>2026-06-26T10:57:11Z</time>
      </trkpt>
      <trkpt lat="46.07185" lon="6.77808">
        <ele>1892.3</ele>
        <time>2026-06-26T10:57:12Z</time>
      </trkpt>
      <trkpt lat="46.07184" lon="6.77807">
        <ele>1892.1</ele>
        <time>2026-06-26T10:57:13Z</time>
      </trkpt>
      <trkpt lat="46.07184" lon="6.77806">
        <ele>1892</ele>
        <time>2026-06-26T10:57:14Z</time>
      </trkpt>
      <trkpt lat="46.07183" lon="6.77806">
        <ele>1891.9</ele>
        <time>2026-06-26T10:57:15Z</time>
      </trkpt>
      <trkpt lat="46.07182" lon="6.77805">
        <ele>1891.8</ele>
        <time>2026-06-26T10:57:16Z</time>
      </trkpt>
      <trkpt lat="46.07182" lon="6.77805">
        <ele>1891.7</ele>
        <time>2026-06-26T10:57:17Z</time>
      </trkpt>
      <trkpt lat="46.07181" lon="6.77804">
        <ele>1891.5</ele>
        <time>2026-06-26T10:57:18Z</time>
      </trkpt>
      <trkpt lat="46.07181" lon="6.77804">
        <ele>1891.3</ele>
        <time>2026-06-26T10:57:19Z</time>
      </trkpt>
      <trkpt lat="46.0718" lon="6.77803">
        <ele>1891.1</ele>
        <time>2026-06-26T10:57:20Z</time>
      </trkpt>
      <trkpt lat="46.0718" lon="6.77802">
        <ele>1890.9</ele>
        <time>2026-06-26T10:57:21Z</time>
      </trkpt>
      <trkpt lat="46.07179" lon="6.77801">
        <ele>1890.7</ele>
        <time>2026-06-26T10:57:22Z</time>
      </trkpt>
      <trkpt lat="46.07179" lon="6.77801">
        <ele>1890.5</ele>
        <time>2026-06-26T10:57:23Z</time>
      </trkpt>
      <trkpt lat="46.07178" lon="6.778">
        <ele>1890.3</ele>
        <time>2026-06-26T10:57:24Z</time>
      </trkpt>
      <trkpt lat="46.07178" lon="6.77799">
        <ele>1890.1</ele>
        <time>2026-06-26T10:57:25Z</time>
      </trkpt>
      <trkpt lat="46.07177" lon="6.77798">
        <ele>1890</ele>
        <time>2026-06-26T10:57:26Z</time>
      </trkpt>
      <trkpt lat="46.07177" lon="6.77797">
        <ele>1889.9</ele>
        <time>2026-06-26T10:57:27Z</time>
      </trkpt>
      <trkpt lat="46.07177" lon="6.77797">
        <ele>1889.8</ele>
        <time>2026-06-26T10:57:28Z</time>
      </trkpt>
      <trkpt lat="46.07176" lon="6.77796">
        <ele>1889.5</ele>
        <time>2026-06-26T10:57:29Z</time>
      </trkpt>
      <trkpt lat="46.07176" lon="6.77795">
        <ele>1889.3</ele>
        <time>2026-06-26T10:57:30Z</time>
      </trkpt>
      <trkpt lat="46.07176" lon="6.77794">
        <ele>1889.1</ele>
        <time>2026-06-26T10:57:31Z</time>
      </trkpt>
      <trkpt lat="46.07175" lon="6.77793">
        <ele>1888.9</ele>
        <time>2026-06-26T10:57:32Z</time>
      </trkpt>
      <trkpt lat="46.07175" lon="6.77792">
        <ele>1888.8</ele>
        <time>2026-06-26T10:57:33Z</time>
      </trkpt>
      <trkpt lat="46.07174" lon="6.77792">
        <ele>1888.4</ele>
        <time>2026-06-26T10:57:34Z</time>
      </trkpt>
      <trkpt lat="46.07174" lon="6.77791">
        <ele>1888</ele>
        <time>2026-06-26T10:57:35Z</time>
      </trkpt>
      <trkpt lat="46.07173" lon="6.7779">
        <ele>1887.8</ele>
        <time>2026-06-26T10:57:36Z</time>
      </trkpt>
      <trkpt lat="46.07172" lon="6.77789">
        <ele>1887.5</ele>
        <time>2026-06-26T10:57:37Z</time>
      </trkpt>
      <trkpt lat="46.07172" lon="6.77789">
        <ele>1887.3</ele>
        <time>2026-06-26T10:57:38Z</time>
      </trkpt>
      <trkpt lat="46.07172" lon="6.77788">
        <ele>1887.1</ele>
        <time>2026-06-26T10:57:39Z</time>
      </trkpt>
      <trkpt lat="46.07171" lon="6.77787">
        <ele>1886.8</ele>
        <time>2026-06-26T10:57:40Z</time>
      </trkpt>
      <trkpt lat="46.07171" lon="6.77786">
        <ele>1886.3</ele>
        <time>2026-06-26T10:57:41Z</time>
      </trkpt>
      <trkpt lat="46.0717" lon="6.77786">
        <ele>1885.8</ele>
        <time>2026-06-26T10:57:42Z</time>
      </trkpt>
      <trkpt lat="46.0717" lon="6.77785">
        <ele>1885.5</ele>
        <time>2026-06-26T10:57:43Z</time>
      </trkpt>
      <trkpt lat="46.0717" lon="6.77784">
        <ele>1885.3</ele>
        <time>2026-06-26T10:57:44Z</time>
      </trkpt>
      <trkpt lat="46.07169" lon="6.77784">
        <ele>1885.7</ele>
        <time>2026-06-26T10:57:45Z</time>
      </trkpt>
      <trkpt lat="46.07168" lon="6.77783">
        <ele>1885.5</ele>
        <time>2026-06-26T10:57:46Z</time>
      </trkpt>
      <trkpt lat="46.07168" lon="6.77783">
        <ele>1885.3</ele>
        <time>2026-06-26T10:57:47Z</time>
      </trkpt>
      <trkpt lat="46.07168" lon="6.77783">
        <ele>1885.1</ele>
        <time>2026-06-26T10:57:48Z</time>
      </trkpt>
      <trkpt lat="46.07167" lon="6.77782">
        <ele>1884.9</ele>
        <time>2026-06-26T10:57:49Z</time>
      </trkpt>
      <trkpt lat="46.07166" lon="6.77781">
        <ele>1884.8</ele>
        <time>2026-06-26T10:57:50Z</time>
      </trkpt>
      <trkpt lat="46.07166" lon="6.7778">
        <ele>1884.4</ele>
        <time>2026-06-26T10:57:51Z</time>
      </trkpt>
      <trkpt lat="46.07166" lon="6.77779">
        <ele>1884.1</ele>
        <time>2026-06-26T10:57:52Z</time>
      </trkpt>
      <trkpt lat="46.07165" lon="6.77778">
        <ele>1883.8</ele>
        <time>2026-06-26T10:57:53Z</time>
      </trkpt>
      <trkpt lat="46.07165" lon="6.77778">
        <ele>1883.6</ele>
        <time>2026-06-26T10:57:54Z</time>
      </trkpt>
      <trkpt lat="46.07164" lon="6.77777">
        <ele>1883.4</ele>
        <time>2026-06-26T10:57:55Z</time>
      </trkpt>
      <trkpt lat="46.07164" lon="6.77776">
        <ele>1883.3</ele>
        <time>2026-06-26T10:57:56Z</time>
      </trkpt>
      <trkpt lat="46.07163" lon="6.77775">
        <ele>1883</ele>
        <time>2026-06-26T10:57:57Z</time>
      </trkpt>
      <trkpt lat="46.07163" lon="6.77775">
        <ele>1882.7</ele>
        <time>2026-06-26T10:57:58Z</time>
      </trkpt>
      <trkpt lat="46.07162" lon="6.77774">
        <ele>1882.5</ele>
        <time>2026-06-26T10:57:59Z</time>
      </trkpt>
      <trkpt lat="46.07162" lon="6.77774">
        <ele>1882.3</ele>
        <time>2026-06-26T10:58:00Z</time>
      </trkpt>
      <trkpt lat="46.07161" lon="6.77773">
        <ele>1882.1</ele>
        <time>2026-06-26T10:58:01Z</time>
      </trkpt>
      <trkpt lat="46.07161" lon="6.77772">
        <ele>1881.9</ele>
        <time>2026-06-26T10:58:02Z</time>
      </trkpt>
      <trkpt lat="46.0716" lon="6.77772">
        <ele>1881.7</ele>
        <time>2026-06-26T10:58:03Z</time>
      </trkpt>
      <trkpt lat="46.07159" lon="6.77771">
        <ele>1881.4</ele>
        <time>2026-06-26T10:58:04Z</time>
      </trkpt>
      <trkpt lat="46.07159" lon="6.7777">
        <ele>1881.1</ele>
        <time>2026-06-26T10:58:05Z</time>
      </trkpt>
      <trkpt lat="46.07158" lon="6.77769">
        <ele>1880.9</ele>
        <time>2026-06-26T10:58:06Z</time>
      </trkpt>
      <trkpt lat="46.07157" lon="6.77769">
        <ele>1880.6</ele>
        <time>2026-06-26T10:58:07Z</time>
      </trkpt>
      <trkpt lat="46.07157" lon="6.77769">
        <ele>1880.3</ele>
        <time>2026-06-26T10:58:08Z</time>
      </trkpt>
      <trkpt lat="46.07156" lon="6.77769">
        <ele>1880</ele>
        <time>2026-06-26T10:58:09Z</time>
      </trkpt>
      <trkpt lat="46.07156" lon="6.77769">
        <ele>1879.7</ele>
        <time>2026-06-26T10:58:10Z</time>
      </trkpt>
      <trkpt lat="46.07155" lon="6.77768">
        <ele>1879.5</ele>
        <time>2026-06-26T10:58:11Z</time>
      </trkpt>
      <trkpt lat="46.07155" lon="6.77768">
        <ele>1879.3</ele>
        <time>2026-06-26T10:58:12Z</time>
      </trkpt>
      <trkpt lat="46.07154" lon="6.77767">
        <ele>1878.8</ele>
        <time>2026-06-26T10:58:13Z</time>
      </trkpt>
      <trkpt lat="46.07154" lon="6.77767">
        <ele>1878.6</ele>
        <time>2026-06-26T10:58:14Z</time>
      </trkpt>
      <trkpt lat="46.07153" lon="6.77767">
        <ele>1878.5</ele>
        <time>2026-06-26T10:58:15Z</time>
      </trkpt>
      <trkpt lat="46.07153" lon="6.77766">
        <ele>1878.3</ele>
        <time>2026-06-26T10:58:16Z</time>
      </trkpt>
      <trkpt lat="46.07152" lon="6.77766">
        <ele>1878.2</ele>
        <time>2026-06-26T10:58:17Z</time>
      </trkpt>
      <trkpt lat="46.07152" lon="6.77765">
        <ele>1878.2</ele>
        <time>2026-06-26T10:58:18Z</time>
      </trkpt>
      <trkpt lat="46.07151" lon="6.77764">
        <ele>1878</ele>
        <time>2026-06-26T10:58:19Z</time>
      </trkpt>
      <trkpt lat="46.07151" lon="6.77763">
        <ele>1877.8</ele>
        <time>2026-06-26T10:58:20Z</time>
      </trkpt>
      <trkpt lat="46.07151" lon="6.77763">
        <ele>1877.6</ele>
        <time>2026-06-26T10:58:21Z</time>
      </trkpt>
      <trkpt lat="46.07152" lon="6.77762">
        <ele>1877.4</ele>
        <time>2026-06-26T10:58:22Z</time>
      </trkpt>
      <trkpt lat="46.07152" lon="6.77761">
        <ele>1877.6</ele>
        <time>2026-06-26T10:58:23Z</time>
      </trkpt>
      <trkpt lat="46.07153" lon="6.7776">
        <ele>1877.4</ele>
        <time>2026-06-26T10:58:24Z</time>
      </trkpt>
      <trkpt lat="46.07154" lon="6.77759">
        <ele>1877</ele>
        <time>2026-06-26T10:58:25Z</time>
      </trkpt>
      <trkpt lat="46.07154" lon="6.77758">
        <ele>1876.6</ele>
        <time>2026-06-26T10:58:26Z</time>
      </trkpt>
      <trkpt lat="46.07155" lon="6.77757">
        <ele>1876.4</ele>
        <time>2026-06-26T10:58:27Z</time>
      </trkpt>
      <trkpt lat="46.07156" lon="6.77756">
        <ele>1876.1</ele>
        <time>2026-06-26T10:58:28Z</time>
      </trkpt>
      <trkpt lat="46.07156" lon="6.77755">
        <ele>1875.8</ele>
        <time>2026-06-26T10:58:29Z</time>
      </trkpt>
      <trkpt lat="46.07157" lon="6.77753">
        <ele>1875.6</ele>
        <time>2026-06-26T10:58:30Z</time>
      </trkpt>
      <trkpt lat="46.07158" lon="6.77752">
        <ele>1875.4</ele>
        <time>2026-06-26T10:58:31Z</time>
      </trkpt>
      <trkpt lat="46.07158" lon="6.77751">
        <ele>1875.2</ele>
        <time>2026-06-26T10:58:32Z</time>
      </trkpt>
      <trkpt lat="46.07159" lon="6.7775">
        <ele>1874.9</ele>
        <time>2026-06-26T10:58:33Z</time>
      </trkpt>
      <trkpt lat="46.07159" lon="6.77749">
        <ele>1874.5</ele>
        <time>2026-06-26T10:58:34Z</time>
      </trkpt>
      <trkpt lat="46.0716" lon="6.77748">
        <ele>1874.4</ele>
        <time>2026-06-26T10:58:35Z</time>
      </trkpt>
      <trkpt lat="46.07161" lon="6.77747">
        <ele>1874.2</ele>
        <time>2026-06-26T10:58:36Z</time>
      </trkpt>
      <trkpt lat="46.07161" lon="6.77746">
        <ele>1873.9</ele>
        <time>2026-06-26T10:58:37Z</time>
      </trkpt>
      <trkpt lat="46.07162" lon="6.77745">
        <ele>1873.7</ele>
        <time>2026-06-26T10:58:38Z</time>
      </trkpt>
      <trkpt lat="46.07162" lon="6.77744">
        <ele>1873.6</ele>
        <time>2026-06-26T10:58:39Z</time>
      </trkpt>
      <trkpt lat="46.07163" lon="6.77744">
        <ele>1873.4</ele>
        <time>2026-06-26T10:58:40Z</time>
      </trkpt>
      <trkpt lat="46.07164" lon="6.77742">
        <ele>1873.2</ele>
        <time>2026-06-26T10:58:41Z</time>
      </trkpt>
      <trkpt lat="46.07164" lon="6.77741">
        <ele>1872.9</ele>
        <time>2026-06-26T10:58:42Z</time>
      </trkpt>
      <trkpt lat="46.07165" lon="6.77741">
        <ele>1872.6</ele>
        <time>2026-06-26T10:58:43Z</time>
      </trkpt>
      <trkpt lat="46.07165" lon="6.7774">
        <ele>1872.3</ele>
        <time>2026-06-26T10:58:44Z</time>
      </trkpt>
      <trkpt lat="46.07166" lon="6.7774">
        <ele>1872.1</ele>
        <time>2026-06-26T10:58:45Z</time>
      </trkpt>
      <trkpt lat="46.07166" lon="6.77739">
        <ele>1871.9</ele>
        <time>2026-06-26T10:58:46Z</time>
      </trkpt>
      <trkpt lat="46.07167" lon="6.77739">
        <ele>1871.7</ele>
        <time>2026-06-26T10:58:47Z</time>
      </trkpt>
      <trkpt lat="46.07167" lon="6.77738">
        <ele>1871.6</ele>
        <time>2026-06-26T10:58:48Z</time>
      </trkpt>
      <trkpt lat="46.07168" lon="6.77738">
        <ele>1871.4</ele>
        <time>2026-06-26T10:58:49Z</time>
      </trkpt>
      <trkpt lat="46.07168" lon="6.77738">
        <ele>1871.3</ele>
        <time>2026-06-26T10:58:50Z</time>
      </trkpt>
      <trkpt lat="46.07168" lon="6.77738">
        <ele>1871.1</ele>
        <time>2026-06-26T10:58:51Z</time>
      </trkpt>
      <trkpt lat="46.07168" lon="6.77737">
        <ele>1871</ele>
        <time>2026-06-26T10:58:52Z</time>
      </trkpt>
      <trkpt lat="46.07168" lon="6.77737">
        <ele>1870.9</ele>
        <time>2026-06-26T10:58:53Z</time>
      </trkpt>
      <trkpt lat="46.07169" lon="6.77736">
        <ele>1870.7</ele>
        <time>2026-06-26T10:58:54Z</time>
      </trkpt>
      <trkpt lat="46.07169" lon="6.77736">
        <ele>1870.5</ele>
        <time>2026-06-26T10:58:55Z</time>
      </trkpt>
      <trkpt lat="46.07169" lon="6.77735">
        <ele>1870.4</ele>
        <time>2026-06-26T10:58:56Z</time>
      </trkpt>
      <trkpt lat="46.0717" lon="6.77735">
        <ele>1870.2</ele>
        <time>2026-06-26T10:58:57Z</time>
      </trkpt>
      <trkpt lat="46.0717" lon="6.77735">
        <ele>1870</ele>
        <time>2026-06-26T10:58:58Z</time>
      </trkpt>
      <trkpt lat="46.07171" lon="6.77734">
        <ele>1869.9</ele>
        <time>2026-06-26T10:58:59Z</time>
      </trkpt>
      <trkpt lat="46.07171" lon="6.77733">
        <ele>1869.7</ele>
        <time>2026-06-26T10:59:00Z</time>
      </trkpt>
      <trkpt lat="46.07171" lon="6.77732">
        <ele>1869.7</ele>
        <time>2026-06-26T10:59:01Z</time>
      </trkpt>
      <trkpt lat="46.07171" lon="6.77732">
        <ele>1869.5</ele>
        <time>2026-06-26T10:59:02Z</time>
      </trkpt>
      <trkpt lat="46.0717" lon="6.77731">
        <ele>1869.3</ele>
        <time>2026-06-26T10:59:03Z</time>
      </trkpt>
      <trkpt lat="46.07169" lon="6.77731">
        <ele>1868.9</ele>
        <time>2026-06-26T10:59:04Z</time>
      </trkpt>
      <trkpt lat="46.07169" lon="6.77731">
        <ele>1868.7</ele>
        <time>2026-06-26T10:59:05Z</time>
      </trkpt>
      <trkpt lat="46.07168" lon="6.7773">
        <ele>1868.5</ele>
        <time>2026-06-26T10:59:06Z</time>
      </trkpt>
      <trkpt lat="46.07168" lon="6.7773">
        <ele>1868</ele>
        <time>2026-06-26T10:59:07Z</time>
      </trkpt>
      <trkpt lat="46.07167" lon="6.7773">
        <ele>1867.8</ele>
        <time>2026-06-26T10:59:08Z</time>
      </trkpt>
      <trkpt lat="46.07166" lon="6.77729">
        <ele>1867.6</ele>
        <time>2026-06-26T10:59:09Z</time>
      </trkpt>
      <trkpt lat="46.07165" lon="6.77729">
        <ele>1867.4</ele>
        <time>2026-06-26T10:59:10Z</time>
      </trkpt>
      <trkpt lat="46.07164" lon="6.77728">
        <ele>1867.2</ele>
        <time>2026-06-26T10:59:11Z</time>
      </trkpt>
      <trkpt lat="46.07163" lon="6.77728">
        <ele>1867</ele>
        <time>2026-06-26T10:59:12Z</time>
      </trkpt>
      <trkpt lat="46.07162" lon="6.77727">
        <ele>1866.8</ele>
        <time>2026-06-26T10:59:13Z</time>
      </trkpt>
      <trkpt lat="46.07161" lon="6.77727">
        <ele>1866.4</ele>
        <time>2026-06-26T10:59:14Z</time>
      </trkpt>
      <trkpt lat="46.0716" lon="6.77726">
        <ele>1866.2</ele>
        <time>2026-06-26T10:59:15Z</time>
      </trkpt>
      <trkpt lat="46.07158" lon="6.77726">
        <ele>1866.2</ele>
        <time>2026-06-26T10:59:16Z</time>
      </trkpt>
      <trkpt lat="46.07158" lon="6.77726">
        <ele>1865.9</ele>
        <time>2026-06-26T10:59:17Z</time>
      </trkpt>
      <trkpt lat="46.07157" lon="6.77726">
        <ele>1865.8</ele>
        <time>2026-06-26T10:59:18Z</time>
      </trkpt>
      <trkpt lat="46.07156" lon="6.77726">
        <ele>1865.6</ele>
        <time>2026-06-26T10:59:19Z</time>
      </trkpt>
      <trkpt lat="46.07156" lon="6.77725">
        <ele>1865.4</ele>
        <time>2026-06-26T10:59:20Z</time>
      </trkpt>
      <trkpt lat="46.07155" lon="6.77725">
        <ele>1865.1</ele>
        <time>2026-06-26T10:59:21Z</time>
      </trkpt>
      <trkpt lat="46.07154" lon="6.77724">
        <ele>1864.9</ele>
        <time>2026-06-26T10:59:22Z</time>
      </trkpt>
      <trkpt lat="46.07153" lon="6.77724">
        <ele>1864.7</ele>
        <time>2026-06-26T10:59:23Z</time>
      </trkpt>
      <trkpt lat="46.07152" lon="6.77724">
        <ele>1864.4</ele>
        <time>2026-06-26T10:59:24Z</time>
      </trkpt>
      <trkpt lat="46.07151" lon="6.77723">
        <ele>1864.1</ele>
        <time>2026-06-26T10:59:25Z</time>
      </trkpt>
      <trkpt lat="46.0715" lon="6.77723">
        <ele>1863.9</ele>
        <time>2026-06-26T10:59:26Z</time>
      </trkpt>
      <trkpt lat="46.0715" lon="6.77723">
        <ele>1863.7</ele>
        <time>2026-06-26T10:59:27Z</time>
      </trkpt>
      <trkpt lat="46.07149" lon="6.77722">
        <ele>1863.6</ele>
        <time>2026-06-26T10:59:28Z</time>
      </trkpt>
      <trkpt lat="46.07148" lon="6.77722">
        <ele>1863.4</ele>
        <time>2026-06-26T10:59:29Z</time>
      </trkpt>
      <trkpt lat="46.07147" lon="6.77722">
        <ele>1863.2</ele>
        <time>2026-06-26T10:59:30Z</time>
      </trkpt>
      <trkpt lat="46.07146" lon="6.77722">
        <ele>1863</ele>
        <time>2026-06-26T10:59:31Z</time>
      </trkpt>
      <trkpt lat="46.07145" lon="6.77722">
        <ele>1862.8</ele>
        <time>2026-06-26T10:59:32Z</time>
      </trkpt>
      <trkpt lat="46.07144" lon="6.77723">
        <ele>1862.6</ele>
        <time>2026-06-26T10:59:33Z</time>
      </trkpt>
      <trkpt lat="46.07142" lon="6.77723">
        <ele>1862.5</ele>
        <time>2026-06-26T10:59:34Z</time>
      </trkpt>
      <trkpt lat="46.07141" lon="6.77723">
        <ele>1862.2</ele>
        <time>2026-06-26T10:59:35Z</time>
      </trkpt>
      <trkpt lat="46.0714" lon="6.77724">
        <ele>1862</ele>
        <time>2026-06-26T10:59:36Z</time>
      </trkpt>
      <trkpt lat="46.0714" lon="6.77724">
        <ele>1861.8</ele>
        <time>2026-06-26T10:59:37Z</time>
      </trkpt>
      <trkpt lat="46.0714" lon="6.77724">
        <ele>1861.8</ele>
        <time>2026-06-26T10:59:38Z</time>
      </trkpt>
      <trkpt lat="46.07139" lon="6.77724">
        <ele>1861.7</ele>
        <time>2026-06-26T10:59:39Z</time>
      </trkpt>
      <trkpt lat="46.07139" lon="6.77725">
        <ele>1861.6</ele>
        <time>2026-06-26T10:59:40Z</time>
      </trkpt>
      <trkpt lat="46.07139" lon="6.77725">
        <ele>1861.4</ele>
        <time>2026-06-26T10:59:41Z</time>
      </trkpt>
      <trkpt lat="46.07138" lon="6.77724">
        <ele>1861.3</ele>
        <time>2026-06-26T10:59:42Z</time>
      </trkpt>
      <trkpt lat="46.07138" lon="6.77724">
        <ele>1861.2</ele>
        <time>2026-06-26T10:59:43Z</time>
      </trkpt>
      <trkpt lat="46.07137" lon="6.77724">
        <ele>1861.1</ele>
        <time>2026-06-26T10:59:44Z</time>
      </trkpt>
      <trkpt lat="46.07136" lon="6.77723">
        <ele>1861</ele>
        <time>2026-06-26T10:59:45Z</time>
      </trkpt>
      <trkpt lat="46.07136" lon="6.77723">
        <ele>1860.9</ele>
        <time>2026-06-26T10:59:46Z</time>
      </trkpt>
      <trkpt lat="46.07135" lon="6.77724">
        <ele>1860.8</ele>
        <time>2026-06-26T10:59:47Z</time>
      </trkpt>
      <trkpt lat="46.07135" lon="6.77724">
        <ele>1860.7</ele>
        <time>2026-06-26T10:59:48Z</time>
      </trkpt>
      <trkpt lat="46.07134" lon="6.77724">
        <ele>1860.5</ele>
        <time>2026-06-26T10:59:49Z</time>
      </trkpt>
      <trkpt lat="46.07134" lon="6.77724">
        <ele>1860.4</ele>
        <time>2026-06-26T10:59:50Z</time>
      </trkpt>
      <trkpt lat="46.07134" lon="6.77724">
        <ele>1860.2</ele>
        <time>2026-06-26T10:59:51Z</time>
      </trkpt>
      <trkpt lat="46.07133" lon="6.77724">
        <ele>1860</ele>
        <time>2026-06-26T10:59:52Z</time>
      </trkpt>
      <trkpt lat="46.07133" lon="6.77724">
        <ele>1859.9</ele>
        <time>2026-06-26T10:59:53Z</time>
      </trkpt>
      <trkpt lat="46.07133" lon="6.77724">
        <ele>1859.8</ele>
        <time>2026-06-26T10:59:54Z</time>
      </trkpt>
      <trkpt lat="46.07133" lon="6.77724">
        <ele>1859.8</ele>
        <time>2026-06-26T10:59:55Z</time>
      </trkpt>
      <trkpt lat="46.07133" lon="6.77724">
        <ele>1859.7</ele>
        <time>2026-06-26T10:59:56Z</time>
      </trkpt>
      <trkpt lat="46.07133" lon="6.77724">
        <ele>1859.7</ele>
        <time>2026-06-26T10:59:57Z</time>
      </trkpt>
      <trkpt lat="46.07132" lon="6.77724">
        <ele>1859.6</ele>
        <time>2026-06-26T10:59:58Z</time>
      </trkpt>
      <trkpt lat="46.07132" lon="6.77724">
        <ele>1859.6</ele>
        <time>2026-06-26T10:59:59Z</time>
      </trkpt>
      <trkpt lat="46.07131" lon="6.77725">
        <ele>1859.7</ele>
        <time>2026-06-26T11:00:00Z</time>
      </trkpt>
      <trkpt lat="46.07131" lon="6.77725">
        <ele>1859.8</ele>
        <time>2026-06-26T11:00:01Z</time>
      </trkpt>
      <trkpt lat="46.07131" lon="6.77726">
        <ele>1859.7</ele>
        <time>2026-06-26T11:00:02Z</time>
      </trkpt>
      <trkpt lat="46.07131" lon="6.77726">
        <ele>1859.6</ele>
        <time>2026-06-26T11:00:03Z</time>
      </trkpt>
      <trkpt lat="46.0713" lon="6.77725">
        <ele>1859.5</ele>
        <time>2026-06-26T11:00:04Z</time>
      </trkpt>
      <trkpt lat="46.0713" lon="6.77725">
        <ele>1859.4</ele>
        <time>2026-06-26T11:00:05Z</time>
      </trkpt>
      <trkpt lat="46.0713" lon="6.77725">
        <ele>1859.3</ele>
        <time>2026-06-26T11:00:06Z</time>
      </trkpt>
      <trkpt lat="46.0713" lon="6.77725">
        <ele>1859.3</ele>
        <time>2026-06-26T11:00:07Z</time>
      </trkpt>
      <trkpt lat="46.0713" lon="6.77724">
        <ele>1859.2</ele>
        <time>2026-06-26T11:00:08Z</time>
      </trkpt>
      <trkpt lat="46.0713" lon="6.77725">
        <ele>1859</ele>
        <time>2026-06-26T11:00:09Z</time>
      </trkpt>
      <trkpt lat="46.0713" lon="6.77725">
        <ele>1858.9</ele>
        <time>2026-06-26T11:00:10Z</time>
      </trkpt>
      <trkpt lat="46.0713" lon="6.77725">
        <ele>1858.8</ele>
        <time>2026-06-26T11:00:11Z</time>
      </trkpt>
      <trkpt lat="46.0713" lon="6.77725">
        <ele>1858.7</ele>
        <time>2026-06-26T11:00:12Z</time>
      </trkpt>
      <trkpt lat="46.0713" lon="6.77725">
        <ele>1858.6</ele>
        <time>2026-06-26T11:00:13Z</time>
      </trkpt>
      <trkpt lat="46.0713" lon="6.77725">
        <ele>1858.5</ele>
        <time>2026-06-26T11:00:14Z</time>
      </trkpt>
      <trkpt lat="46.0713" lon="6.77725">
        <ele>1858.3</ele>
        <time>2026-06-26T11:00:15Z</time>
      </trkpt>
      <trkpt lat="46.0713" lon="6.77725">
        <ele>1858.3</ele>
        <time>2026-06-26T11:00:16Z</time>
      </trkpt>
      <trkpt lat="46.0713" lon="6.77725">
        <ele>1858.4</ele>
        <time>2026-06-26T11:00:17Z</time>
      </trkpt>
      <trkpt lat="46.0713" lon="6.77725">
        <ele>1858.4</ele>
        <time>2026-06-26T11:00:18Z</time>
      </trkpt>
      <trkpt lat="46.0713" lon="6.77725">
        <ele>1858.4</ele>
        <time>2026-06-26T11:00:19Z</time>
      </trkpt>
      <trkpt lat="46.07129" lon="6.77725">
        <ele>1858.2</ele>
        <time>2026-06-26T11:00:20Z</time>
      </trkpt>
      <trkpt lat="46.07129" lon="6.77725">
        <ele>1858.1</ele>
        <time>2026-06-26T11:00:21Z</time>
      </trkpt>
      <trkpt lat="46.07129" lon="6.77725">
        <ele>1858</ele>
        <time>2026-06-26T11:00:22Z</time>
      </trkpt>
      <trkpt lat="46.07129" lon="6.77725">
        <ele>1857.9</ele>
        <time>2026-06-26T11:00:23Z</time>
      </trkpt>
      <trkpt lat="46.07129" lon="6.77724">
        <ele>1857.8</ele>
        <time>2026-06-26T11:00:24Z</time>
      </trkpt>
      <trkpt lat="46.0713" lon="6.77725">
        <ele>1857.7</ele>
        <time>2026-06-26T11:00:25Z</time>
      </trkpt>
      <trkpt lat="46.0713" lon="6.77725">
        <ele>1857.6</ele>
        <time>2026-06-26T11:00:26Z</time>
      </trkpt>
      <trkpt lat="46.07129" lon="6.77725">
        <ele>1857.5</ele>
        <time>2026-06-26T11:00:27Z</time>
      </trkpt>
      <trkpt lat="46.07129" lon="6.77725">
        <ele>1857.4</ele>
        <time>2026-06-26T11:00:28Z</time>
      </trkpt>
      <trkpt lat="46.07129" lon="6.77725">
        <ele>1857.3</ele>
        <time>2026-06-26T11:00:29Z</time>
      </trkpt>
      <trkpt lat="46.07128" lon="6.77725">
        <ele>1857</ele>
        <time>2026-06-26T11:00:30Z</time>
      </trkpt>
      <trkpt lat="46.07127" lon="6.77725">
        <ele>1856.7</ele>
        <time>2026-06-26T11:00:31Z</time>
      </trkpt>
      <trkpt lat="46.07126" lon="6.77726">
        <ele>1856.5</ele>
        <time>2026-06-26T11:00:32Z</time>
      </trkpt>
      <trkpt lat="46.07126" lon="6.77726">
        <ele>1856.3</ele>
        <time>2026-06-26T11:00:33Z</time>
      </trkpt>
      <trkpt lat="46.07125" lon="6.77725">
        <ele>1856.1</ele>
        <time>2026-06-26T11:00:34Z</time>
      </trkpt>
      <trkpt lat="46.07124" lon="6.77726">
        <ele>1855.9</ele>
        <time>2026-06-26T11:00:35Z</time>
      </trkpt>
      <trkpt lat="46.07124" lon="6.77726">
        <ele>1855.7</ele>
        <time>2026-06-26T11:00:36Z</time>
      </trkpt>
      <trkpt lat="46.07124" lon="6.77725">
        <ele>1855.4</ele>
        <time>2026-06-26T11:00:37Z</time>
      </trkpt>
      <trkpt lat="46.07123" lon="6.77724">
        <ele>1855.2</ele>
        <time>2026-06-26T11:00:38Z</time>
      </trkpt>
      <trkpt lat="46.07123" lon="6.77724">
        <ele>1854.9</ele>
        <time>2026-06-26T11:00:39Z</time>
      </trkpt>
      <trkpt lat="46.07123" lon="6.77723">
        <ele>1854.6</ele>
        <time>2026-06-26T11:00:40Z</time>
      </trkpt>
      <trkpt lat="46.07122" lon="6.77723">
        <ele>1854.5</ele>
        <time>2026-06-26T11:00:41Z</time>
      </trkpt>
      <trkpt lat="46.07122" lon="6.77722">
        <ele>1854.3</ele>
        <time>2026-06-26T11:00:42Z</time>
      </trkpt>
      <trkpt lat="46.07122" lon="6.77722">
        <ele>1854.1</ele>
        <time>2026-06-26T11:00:43Z</time>
      </trkpt>
      <trkpt lat="46.07121" lon="6.77721">
        <ele>1853.9</ele>
        <time>2026-06-26T11:00:44Z</time>
      </trkpt>
      <trkpt lat="46.0712" lon="6.77721">
        <ele>1853.8</ele>
        <time>2026-06-26T11:00:45Z</time>
      </trkpt>
      <trkpt lat="46.0712" lon="6.77721">
        <ele>1853.6</ele>
        <time>2026-06-26T11:00:46Z</time>
      </trkpt>
      <trkpt lat="46.0712" lon="6.7772">
        <ele>1853.6</ele>
        <time>2026-06-26T11:00:47Z</time>
      </trkpt>
      <trkpt lat="46.0712" lon="6.77719">
        <ele>1853.5</ele>
        <time>2026-06-26T11:00:48Z</time>
      </trkpt>
      <trkpt lat="46.0712" lon="6.77719">
        <ele>1853.3</ele>
        <time>2026-06-26T11:00:49Z</time>
      </trkpt>
      <trkpt lat="46.07119" lon="6.77719">
        <ele>1853.2</ele>
        <time>2026-06-26T11:00:50Z</time>
      </trkpt>
      <trkpt lat="46.07118" lon="6.77719">
        <ele>1853.1</ele>
        <time>2026-06-26T11:00:51Z</time>
      </trkpt>
      <trkpt lat="46.07118" lon="6.77719">
        <ele>1852.9</ele>
        <time>2026-06-26T11:00:52Z</time>
      </trkpt>
      <trkpt lat="46.07117" lon="6.77718">
        <ele>1852.6</ele>
        <time>2026-06-26T11:00:53Z</time>
      </trkpt>
      <trkpt lat="46.07117" lon="6.77717">
        <ele>1852.4</ele>
        <time>2026-06-26T11:00:54Z</time>
      </trkpt>
      <trkpt lat="46.07116" lon="6.77716">
        <ele>1852.2</ele>
        <time>2026-06-26T11:00:55Z</time>
      </trkpt>
      <trkpt lat="46.07116" lon="6.77716">
        <ele>1851.9</ele>
        <time>2026-06-26T11:00:56Z</time>
      </trkpt>
      <trkpt lat="46.07116" lon="6.77715">
        <ele>1851.8</ele>
        <time>2026-06-26T11:00:57Z</time>
      </trkpt>
      <trkpt lat="46.07115" lon="6.77714">
        <ele>1851.7</ele>
        <time>2026-06-26T11:00:58Z</time>
      </trkpt>
      <trkpt lat="46.07115" lon="6.77713">
        <ele>1851.5</ele>
        <time>2026-06-26T11:00:59Z</time>
      </trkpt>
      <trkpt lat="46.07115" lon="6.77712">
        <ele>1851.4</ele>
        <time>2026-06-26T11:01:00Z</time>
      </trkpt>
      <trkpt lat="46.07115" lon="6.7771">
        <ele>1851.2</ele>
        <time>2026-06-26T11:01:01Z</time>
      </trkpt>
      <trkpt lat="46.07116" lon="6.77709">
        <ele>1851.1</ele>
        <time>2026-06-26T11:01:02Z</time>
      </trkpt>
      <trkpt lat="46.07116" lon="6.77708">
        <ele>1850.8</ele>
        <time>2026-06-26T11:01:03Z</time>
      </trkpt>
      <trkpt lat="46.07116" lon="6.77707">
        <ele>1850.6</ele>
        <time>2026-06-26T11:01:04Z</time>
      </trkpt>
      <trkpt lat="46.07117" lon="6.77707">
        <ele>1850.4</ele>
        <time>2026-06-26T11:01:05Z</time>
      </trkpt>
      <trkpt lat="46.07118" lon="6.77706">
        <ele>1850.2</ele>
        <time>2026-06-26T11:01:06Z</time>
      </trkpt>
      <trkpt lat="46.07119" lon="6.77706">
        <ele>1850</ele>
        <time>2026-06-26T11:01:07Z</time>
      </trkpt>
      <trkpt lat="46.0712" lon="6.77705">
        <ele>1849.9</ele>
        <time>2026-06-26T11:01:08Z</time>
      </trkpt>
      <trkpt lat="46.07121" lon="6.77705">
        <ele>1849.8</ele>
        <time>2026-06-26T11:01:09Z</time>
      </trkpt>
      <trkpt lat="46.07122" lon="6.77704">
        <ele>1849.5</ele>
        <time>2026-06-26T11:01:10Z</time>
      </trkpt>
      <trkpt lat="46.07123" lon="6.77703">
        <ele>1849.3</ele>
        <time>2026-06-26T11:01:11Z</time>
      </trkpt>
      <trkpt lat="46.07124" lon="6.77703">
        <ele>1849.2</ele>
        <time>2026-06-26T11:01:12Z</time>
      </trkpt>
      <trkpt lat="46.07125" lon="6.77702">
        <ele>1849.1</ele>
        <time>2026-06-26T11:01:13Z</time>
      </trkpt>
      <trkpt lat="46.07126" lon="6.77701">
        <ele>1848.9</ele>
        <time>2026-06-26T11:01:14Z</time>
      </trkpt>
      <trkpt lat="46.07126" lon="6.777">
        <ele>1848.7</ele>
        <time>2026-06-26T11:01:15Z</time>
      </trkpt>
      <trkpt lat="46.07127" lon="6.777">
        <ele>1848.6</ele>
        <time>2026-06-26T11:01:16Z</time>
      </trkpt>
      <trkpt lat="46.07127" lon="6.77699">
        <ele>1848.5</ele>
        <time>2026-06-26T11:01:17Z</time>
      </trkpt>
      <trkpt lat="46.07127" lon="6.77698">
        <ele>1848.3</ele>
        <time>2026-06-26T11:01:18Z</time>
      </trkpt>
      <trkpt lat="46.07127" lon="6.77697">
        <ele>1848.2</ele>
        <time>2026-06-26T11:01:19Z</time>
      </trkpt>
      <trkpt lat="46.07128" lon="6.77696">
        <ele>1848.1</ele>
        <time>2026-06-26T11:01:20Z</time>
      </trkpt>
      <trkpt lat="46.07128" lon="6.77695">
        <ele>1847.9</ele>
        <time>2026-06-26T11:01:21Z</time>
      </trkpt>
      <trkpt lat="46.07128" lon="6.77694">
        <ele>1847.7</ele>
        <time>2026-06-26T11:01:22Z</time>
      </trkpt>
      <trkpt lat="46.07128" lon="6.77693">
        <ele>1847.4</ele>
        <time>2026-06-26T11:01:23Z</time>
      </trkpt>
      <trkpt lat="46.07127" lon="6.77692">
        <ele>1847.1</ele>
        <time>2026-06-26T11:01:24Z</time>
      </trkpt>
      <trkpt lat="46.07126" lon="6.77691">
        <ele>1846.8</ele>
        <time>2026-06-26T11:01:25Z</time>
      </trkpt>
      <trkpt lat="46.07125" lon="6.77691">
        <ele>1846.6</ele>
        <time>2026-06-26T11:01:26Z</time>
      </trkpt>
      <trkpt lat="46.07124" lon="6.77691">
        <ele>1846.4</ele>
        <time>2026-06-26T11:01:27Z</time>
      </trkpt>
      <trkpt lat="46.07124" lon="6.77691">
        <ele>1846.2</ele>
        <time>2026-06-26T11:01:28Z</time>
      </trkpt>
      <trkpt lat="46.07123" lon="6.7769">
        <ele>1846</ele>
        <time>2026-06-26T11:01:29Z</time>
      </trkpt>
      <trkpt lat="46.07122" lon="6.77689">
        <ele>1845.8</ele>
        <time>2026-06-26T11:01:30Z</time>
      </trkpt>
      <trkpt lat="46.07122" lon="6.77689">
        <ele>1845.5</ele>
        <time>2026-06-26T11:01:31Z</time>
      </trkpt>
      <trkpt lat="46.07121" lon="6.77689">
        <ele>1845.4</ele>
        <time>2026-06-26T11:01:32Z</time>
      </trkpt>
      <trkpt lat="46.0712" lon="6.77689">
        <ele>1845.2</ele>
        <time>2026-06-26T11:01:33Z</time>
      </trkpt>
      <trkpt lat="46.0712" lon="6.77689">
        <ele>1845</ele>
        <time>2026-06-26T11:01:34Z</time>
      </trkpt>
      <trkpt lat="46.0712" lon="6.77689">
        <ele>1844.8</ele>
        <time>2026-06-26T11:01:35Z</time>
      </trkpt>
      <trkpt lat="46.07119" lon="6.77688">
        <ele>1844.7</ele>
        <time>2026-06-26T11:01:36Z</time>
      </trkpt>
      <trkpt lat="46.07119" lon="6.77687">
        <ele>1844.5</ele>
        <time>2026-06-26T11:01:37Z</time>
      </trkpt>
      <trkpt lat="46.07119" lon="6.77686">
        <ele>1844.4</ele>
        <time>2026-06-26T11:01:38Z</time>
      </trkpt>
      <trkpt lat="46.0712" lon="6.77684">
        <ele>1844.3</ele>
        <time>2026-06-26T11:01:39Z</time>
      </trkpt>
      <trkpt lat="46.0712" lon="6.77683">
        <ele>1844.1</ele>
        <time>2026-06-26T11:01:40Z</time>
      </trkpt>
      <trkpt lat="46.0712" lon="6.77681">
        <ele>1843.9</ele>
        <time>2026-06-26T11:01:41Z</time>
      </trkpt>
      <trkpt lat="46.07121" lon="6.7768">
        <ele>1843.7</ele>
        <time>2026-06-26T11:01:42Z</time>
      </trkpt>
      <trkpt lat="46.07121" lon="6.77679">
        <ele>1843.4</ele>
        <time>2026-06-26T11:01:43Z</time>
      </trkpt>
      <trkpt lat="46.07122" lon="6.77677">
        <ele>1843.3</ele>
        <time>2026-06-26T11:01:44Z</time>
      </trkpt>
      <trkpt lat="46.07122" lon="6.77676">
        <ele>1843.1</ele>
        <time>2026-06-26T11:01:45Z</time>
      </trkpt>
      <trkpt lat="46.07123" lon="6.77675">
        <ele>1843</ele>
        <time>2026-06-26T11:01:46Z</time>
      </trkpt>
      <trkpt lat="46.07123" lon="6.77674">
        <ele>1842.8</ele>
        <time>2026-06-26T11:01:47Z</time>
      </trkpt>
      <trkpt lat="46.07123" lon="6.77673">
        <ele>1842.6</ele>
        <time>2026-06-26T11:01:48Z</time>
      </trkpt>
      <trkpt lat="46.07124" lon="6.77672">
        <ele>1842.4</ele>
        <time>2026-06-26T11:01:49Z</time>
      </trkpt>
      <trkpt lat="46.07124" lon="6.7767">
        <ele>1842.2</ele>
        <time>2026-06-26T11:01:50Z</time>
      </trkpt>
      <trkpt lat="46.07124" lon="6.77669">
        <ele>1842</ele>
        <time>2026-06-26T11:01:51Z</time>
      </trkpt>
      <trkpt lat="46.07124" lon="6.77667">
        <ele>1841.8</ele>
        <time>2026-06-26T11:01:52Z</time>
      </trkpt>
      <trkpt lat="46.07124" lon="6.77665">
        <ele>1841.7</ele>
        <time>2026-06-26T11:01:53Z</time>
      </trkpt>
      <trkpt lat="46.07123" lon="6.77664">
        <ele>1841.6</ele>
        <time>2026-06-26T11:01:54Z</time>
      </trkpt>
      <trkpt lat="46.07123" lon="6.77664">
        <ele>1841.4</ele>
        <time>2026-06-26T11:01:55Z</time>
      </trkpt>
      <trkpt lat="46.07124" lon="6.77663">
        <ele>1841.1</ele>
        <time>2026-06-26T11:01:56Z</time>
      </trkpt>
      <trkpt lat="46.07124" lon="6.77663">
        <ele>1840.9</ele>
        <time>2026-06-26T11:01:57Z</time>
      </trkpt>
      <trkpt lat="46.07124" lon="6.77662">
        <ele>1840.8</ele>
        <time>2026-06-26T11:01:58Z</time>
      </trkpt>
      <trkpt lat="46.07125" lon="6.77662">
        <ele>1840.7</ele>
        <time>2026-06-26T11:01:59Z</time>
      </trkpt>
      <trkpt lat="46.07125" lon="6.77662">
        <ele>1840.5</ele>
        <time>2026-06-26T11:02:00Z</time>
      </trkpt>
      <trkpt lat="46.07126" lon="6.77661">
        <ele>1840.3</ele>
        <time>2026-06-26T11:02:01Z</time>
      </trkpt>
      <trkpt lat="46.07126" lon="6.77661">
        <ele>1840.1</ele>
        <time>2026-06-26T11:02:02Z</time>
      </trkpt>
      <trkpt lat="46.07126" lon="6.77661">
        <ele>1839.9</ele>
        <time>2026-06-26T11:02:03Z</time>
      </trkpt>
      <trkpt lat="46.07127" lon="6.77661">
        <ele>1839.7</ele>
        <time>2026-06-26T11:02:04Z</time>
      </trkpt>
      <trkpt lat="46.07127" lon="6.77661">
        <ele>1839.6</ele>
        <time>2026-06-26T11:02:05Z</time>
      </trkpt>
      <trkpt lat="46.07127" lon="6.77661">
        <ele>1839.4</ele>
        <time>2026-06-26T11:02:06Z</time>
      </trkpt>
      <trkpt lat="46.07127" lon="6.7766">
        <ele>1839.1</ele>
        <time>2026-06-26T11:02:07Z</time>
      </trkpt>
      <trkpt lat="46.07128" lon="6.77659">
        <ele>1838.8</ele>
        <time>2026-06-26T11:02:08Z</time>
      </trkpt>
      <trkpt lat="46.07128" lon="6.77659">
        <ele>1838.6</ele>
        <time>2026-06-26T11:02:09Z</time>
      </trkpt>
      <trkpt lat="46.07128" lon="6.77658">
        <ele>1838.4</ele>
        <time>2026-06-26T11:02:10Z</time>
      </trkpt>
      <trkpt lat="46.07128" lon="6.77658">
        <ele>1838.1</ele>
        <time>2026-06-26T11:02:11Z</time>
      </trkpt>
      <trkpt lat="46.07128" lon="6.77657">
        <ele>1837.8</ele>
        <time>2026-06-26T11:02:12Z</time>
      </trkpt>
      <trkpt lat="46.07128" lon="6.77656">
        <ele>1837.5</ele>
        <time>2026-06-26T11:02:13Z</time>
      </trkpt>
      <trkpt lat="46.07128" lon="6.77655">
        <ele>1837.3</ele>
        <time>2026-06-26T11:02:14Z</time>
      </trkpt>
      <trkpt lat="46.07128" lon="6.77655">
        <ele>1837.1</ele>
        <time>2026-06-26T11:02:15Z</time>
      </trkpt>
      <trkpt lat="46.07127" lon="6.77655">
        <ele>1836.9</ele>
        <time>2026-06-26T11:02:16Z</time>
      </trkpt>
      <trkpt lat="46.07127" lon="6.77655">
        <ele>1836.7</ele>
        <time>2026-06-26T11:02:17Z</time>
      </trkpt>
      <trkpt lat="46.07128" lon="6.77655">
        <ele>1836.5</ele>
        <time>2026-06-26T11:02:18Z</time>
      </trkpt>
      <trkpt lat="46.07128" lon="6.77655">
        <ele>1836.3</ele>
        <time>2026-06-26T11:02:19Z</time>
      </trkpt>
      <trkpt lat="46.07129" lon="6.77654">
        <ele>1836.1</ele>
        <time>2026-06-26T11:02:20Z</time>
      </trkpt>
      <trkpt lat="46.07129" lon="6.77653">
        <ele>1835.9</ele>
        <time>2026-06-26T11:02:21Z</time>
      </trkpt>
      <trkpt lat="46.0713" lon="6.77652">
        <ele>1835.8</ele>
        <time>2026-06-26T11:02:22Z</time>
      </trkpt>
      <trkpt lat="46.0713" lon="6.77651">
        <ele>1835.6</ele>
        <time>2026-06-26T11:02:23Z</time>
      </trkpt>
      <trkpt lat="46.07129" lon="6.77651">
        <ele>1835.5</ele>
        <time>2026-06-26T11:02:24Z</time>
      </trkpt>
      <trkpt lat="46.07129" lon="6.7765">
        <ele>1835.3</ele>
        <time>2026-06-26T11:02:25Z</time>
      </trkpt>
      <trkpt lat="46.07129" lon="6.7765">
        <ele>1835.1</ele>
        <time>2026-06-26T11:02:26Z</time>
      </trkpt>
      <trkpt lat="46.07129" lon="6.7765">
        <ele>1834.9</ele>
        <time>2026-06-26T11:02:27Z</time>
      </trkpt>
      <trkpt lat="46.0713" lon="6.77649">
        <ele>1834.5</ele>
        <time>2026-06-26T11:02:28Z</time>
      </trkpt>
      <trkpt lat="46.0713" lon="6.77649">
        <ele>1834.2</ele>
        <time>2026-06-26T11:02:29Z</time>
      </trkpt>
      <trkpt lat="46.07131" lon="6.77649">
        <ele>1834</ele>
        <time>2026-06-26T11:02:30Z</time>
      </trkpt>
      <trkpt lat="46.07131" lon="6.77649">
        <ele>1833.8</ele>
        <time>2026-06-26T11:02:31Z</time>
      </trkpt>
      <trkpt lat="46.07132" lon="6.77648">
        <ele>1833.5</ele>
        <time>2026-06-26T11:02:32Z</time>
      </trkpt>
      <trkpt lat="46.07132" lon="6.77648">
        <ele>1833.4</ele>
        <time>2026-06-26T11:02:33Z</time>
      </trkpt>
      <trkpt lat="46.07133" lon="6.77647">
        <ele>1833.2</ele>
        <time>2026-06-26T11:02:34Z</time>
      </trkpt>
      <trkpt lat="46.07134" lon="6.77647">
        <ele>1833.1</ele>
        <time>2026-06-26T11:02:35Z</time>
      </trkpt>
      <trkpt lat="46.07134" lon="6.77646">
        <ele>1832.8</ele>
        <time>2026-06-26T11:02:36Z</time>
      </trkpt>
      <trkpt lat="46.07135" lon="6.77645">
        <ele>1832.5</ele>
        <time>2026-06-26T11:02:37Z</time>
      </trkpt>
      <trkpt lat="46.07135" lon="6.77645">
        <ele>1832.3</ele>
        <time>2026-06-26T11:02:38Z</time>
      </trkpt>
      <trkpt lat="46.07136" lon="6.77645">
        <ele>1832.1</ele>
        <time>2026-06-26T11:02:39Z</time>
      </trkpt>
      <trkpt lat="46.07137" lon="6.77645">
        <ele>1832</ele>
        <time>2026-06-26T11:02:40Z</time>
      </trkpt>
      <trkpt lat="46.07137" lon="6.77645">
        <ele>1831.8</ele>
        <time>2026-06-26T11:02:41Z</time>
      </trkpt>
      <trkpt lat="46.07138" lon="6.77645">
        <ele>1831.6</ele>
        <time>2026-06-26T11:02:42Z</time>
      </trkpt>
      <trkpt lat="46.07138" lon="6.77645">
        <ele>1831.5</ele>
        <time>2026-06-26T11:02:43Z</time>
      </trkpt>
      <trkpt lat="46.07139" lon="6.77644">
        <ele>1831.1</ele>
        <time>2026-06-26T11:02:44Z</time>
      </trkpt>
      <trkpt lat="46.07139" lon="6.77644">
        <ele>1830.8</ele>
        <time>2026-06-26T11:02:45Z</time>
      </trkpt>
      <trkpt lat="46.0714" lon="6.77644">
        <ele>1830.5</ele>
        <time>2026-06-26T11:02:46Z</time>
      </trkpt>
      <trkpt lat="46.0714" lon="6.77643">
        <ele>1830.3</ele>
        <time>2026-06-26T11:02:47Z</time>
      </trkpt>
      <trkpt lat="46.07141" lon="6.77642">
        <ele>1830.1</ele>
        <time>2026-06-26T11:02:48Z</time>
      </trkpt>
      <trkpt lat="46.07141" lon="6.77641">
        <ele>1830</ele>
        <time>2026-06-26T11:02:49Z</time>
      </trkpt>
      <trkpt lat="46.07141" lon="6.77641">
        <ele>1829.9</ele>
        <time>2026-06-26T11:02:50Z</time>
      </trkpt>
      <trkpt lat="46.07141" lon="6.7764">
        <ele>1829.6</ele>
        <time>2026-06-26T11:02:51Z</time>
      </trkpt>
      <trkpt lat="46.07141" lon="6.7764">
        <ele>1829.5</ele>
        <time>2026-06-26T11:02:52Z</time>
      </trkpt>
      <trkpt lat="46.07141" lon="6.77639">
        <ele>1829.3</ele>
        <time>2026-06-26T11:02:53Z</time>
      </trkpt>
      <trkpt lat="46.0714" lon="6.77638">
        <ele>1829.2</ele>
        <time>2026-06-26T11:02:54Z</time>
      </trkpt>
      <trkpt lat="46.07141" lon="6.77638">
        <ele>1829.1</ele>
        <time>2026-06-26T11:02:55Z</time>
      </trkpt>
      <trkpt lat="46.07141" lon="6.77637">
        <ele>1828.9</ele>
        <time>2026-06-26T11:02:56Z</time>
      </trkpt>
      <trkpt lat="46.07141" lon="6.77636">
        <ele>1828.8</ele>
        <time>2026-06-26T11:02:57Z</time>
      </trkpt>
      <trkpt lat="46.07141" lon="6.77635">
        <ele>1828.6</ele>
        <time>2026-06-26T11:02:58Z</time>
      </trkpt>
      <trkpt lat="46.07141" lon="6.77634">
        <ele>1828.5</ele>
        <time>2026-06-26T11:02:59Z</time>
      </trkpt>
      <trkpt lat="46.07141" lon="6.77633">
        <ele>1828.3</ele>
        <time>2026-06-26T11:03:00Z</time>
      </trkpt>
      <trkpt lat="46.07141" lon="6.77632">
        <ele>1828</ele>
        <time>2026-06-26T11:03:01Z</time>
      </trkpt>
      <trkpt lat="46.07141" lon="6.77632">
        <ele>1827.8</ele>
        <time>2026-06-26T11:03:02Z</time>
      </trkpt>
      <trkpt lat="46.07141" lon="6.77631">
        <ele>1827.6</ele>
        <time>2026-06-26T11:03:03Z</time>
      </trkpt>
      <trkpt lat="46.0714" lon="6.7763">
        <ele>1827.4</ele>
        <time>2026-06-26T11:03:04Z</time>
      </trkpt>
      <trkpt lat="46.0714" lon="6.77629">
        <ele>1827.1</ele>
        <time>2026-06-26T11:03:05Z</time>
      </trkpt>
      <trkpt lat="46.07141" lon="6.77629">
        <ele>1827</ele>
        <time>2026-06-26T11:03:06Z</time>
      </trkpt>
      <trkpt lat="46.07141" lon="6.77628">
        <ele>1826.8</ele>
        <time>2026-06-26T11:03:07Z</time>
      </trkpt>
      <trkpt lat="46.07141" lon="6.77627">
        <ele>1826.5</ele>
        <time>2026-06-26T11:03:08Z</time>
      </trkpt>
      <trkpt lat="46.07141" lon="6.77627">
        <ele>1826.3</ele>
        <time>2026-06-26T11:03:09Z</time>
      </trkpt>
      <trkpt lat="46.07142" lon="6.77626">
        <ele>1826.2</ele>
        <time>2026-06-26T11:03:10Z</time>
      </trkpt>
      <trkpt lat="46.07143" lon="6.77626">
        <ele>1826</ele>
        <time>2026-06-26T11:03:11Z</time>
      </trkpt>
      <trkpt lat="46.07143" lon="6.77627">
        <ele>1825.6</ele>
        <time>2026-06-26T11:03:12Z</time>
      </trkpt>
      <trkpt lat="46.07145" lon="6.77627">
        <ele>1825.4</ele>
        <time>2026-06-26T11:03:13Z</time>
      </trkpt>
      <trkpt lat="46.07146" lon="6.77627">
        <ele>1825.1</ele>
        <time>2026-06-26T11:03:14Z</time>
      </trkpt>
      <trkpt lat="46.07147" lon="6.77627">
        <ele>1824.9</ele>
        <time>2026-06-26T11:03:15Z</time>
      </trkpt>
      <trkpt lat="46.07148" lon="6.77626">
        <ele>1824.7</ele>
        <time>2026-06-26T11:03:16Z</time>
      </trkpt>
      <trkpt lat="46.0715" lon="6.77625">
        <ele>1824.5</ele>
        <time>2026-06-26T11:03:17Z</time>
      </trkpt>
      <trkpt lat="46.07151" lon="6.77625">
        <ele>1824.2</ele>
        <time>2026-06-26T11:03:18Z</time>
      </trkpt>
      <trkpt lat="46.07152" lon="6.77624">
        <ele>1824</ele>
        <time>2026-06-26T11:03:19Z</time>
      </trkpt>
      <trkpt lat="46.07153" lon="6.77624">
        <ele>1823.8</ele>
        <time>2026-06-26T11:03:20Z</time>
      </trkpt>
      <trkpt lat="46.07154" lon="6.77624">
        <ele>1823.6</ele>
        <time>2026-06-26T11:03:21Z</time>
      </trkpt>
      <trkpt lat="46.07155" lon="6.77624">
        <ele>1823.6</ele>
        <time>2026-06-26T11:03:22Z</time>
      </trkpt>
      <trkpt lat="46.07156" lon="6.77624">
        <ele>1823.4</ele>
        <time>2026-06-26T11:03:23Z</time>
      </trkpt>
      <trkpt lat="46.07156" lon="6.77625">
        <ele>1823.1</ele>
        <time>2026-06-26T11:03:24Z</time>
      </trkpt>
      <trkpt lat="46.07157" lon="6.77625">
        <ele>1822.9</ele>
        <time>2026-06-26T11:03:25Z</time>
      </trkpt>
      <trkpt lat="46.07158" lon="6.77624">
        <ele>1822.8</ele>
        <time>2026-06-26T11:03:26Z</time>
      </trkpt>
      <trkpt lat="46.07159" lon="6.77624">
        <ele>1822.6</ele>
        <time>2026-06-26T11:03:27Z</time>
      </trkpt>
      <trkpt lat="46.0716" lon="6.77623">
        <ele>1822.4</ele>
        <time>2026-06-26T11:03:28Z</time>
      </trkpt>
      <trkpt lat="46.0716" lon="6.77623">
        <ele>1822.3</ele>
        <time>2026-06-26T11:03:29Z</time>
      </trkpt>
      <trkpt lat="46.07161" lon="6.77623">
        <ele>1822.1</ele>
        <time>2026-06-26T11:03:30Z</time>
      </trkpt>
      <trkpt lat="46.07161" lon="6.77622">
        <ele>1822</ele>
        <time>2026-06-26T11:03:31Z</time>
      </trkpt>
      <trkpt lat="46.07161" lon="6.77622">
        <ele>1821.9</ele>
        <time>2026-06-26T11:03:32Z</time>
      </trkpt>
      <trkpt lat="46.07161" lon="6.77622">
        <ele>1821.8</ele>
        <time>2026-06-26T11:03:33Z</time>
      </trkpt>
      <trkpt lat="46.07161" lon="6.77622">
        <ele>1821.6</ele>
        <time>2026-06-26T11:03:34Z</time>
      </trkpt>
      <trkpt lat="46.07162" lon="6.77621">
        <ele>1821.5</ele>
        <time>2026-06-26T11:03:35Z</time>
      </trkpt>
      <trkpt lat="46.07162" lon="6.7762">
        <ele>1821.5</ele>
        <time>2026-06-26T11:03:36Z</time>
      </trkpt>
      <trkpt lat="46.07162" lon="6.7762">
        <ele>1821.2</ele>
        <time>2026-06-26T11:03:37Z</time>
      </trkpt>
      <trkpt lat="46.07162" lon="6.77619">
        <ele>1821</ele>
        <time>2026-06-26T11:03:38Z</time>
      </trkpt>
      <trkpt lat="46.07163" lon="6.77618">
        <ele>1820.7</ele>
        <time>2026-06-26T11:03:39Z</time>
      </trkpt>
      <trkpt lat="46.07163" lon="6.77618">
        <ele>1820.5</ele>
        <time>2026-06-26T11:03:40Z</time>
      </trkpt>
      <trkpt lat="46.07163" lon="6.77617">
        <ele>1820.3</ele>
        <time>2026-06-26T11:03:41Z</time>
      </trkpt>
      <trkpt lat="46.07162" lon="6.77617">
        <ele>1820.1</ele>
        <time>2026-06-26T11:03:42Z</time>
      </trkpt>
      <trkpt lat="46.07162" lon="6.77616">
        <ele>1819.9</ele>
        <time>2026-06-26T11:03:43Z</time>
      </trkpt>
      <trkpt lat="46.07162" lon="6.77616">
        <ele>1819.7</ele>
        <time>2026-06-26T11:03:44Z</time>
      </trkpt>
      <trkpt lat="46.07162" lon="6.77615">
        <ele>1819.5</ele>
        <time>2026-06-26T11:03:45Z</time>
      </trkpt>
      <trkpt lat="46.07162" lon="6.77614">
        <ele>1819.3</ele>
        <time>2026-06-26T11:03:46Z</time>
      </trkpt>
      <trkpt lat="46.07162" lon="6.77614">
        <ele>1819.2</ele>
        <time>2026-06-26T11:03:47Z</time>
      </trkpt>
      <trkpt lat="46.07162" lon="6.77613">
        <ele>1819.1</ele>
        <time>2026-06-26T11:03:48Z</time>
      </trkpt>
      <trkpt lat="46.07161" lon="6.77613">
        <ele>1818.9</ele>
        <time>2026-06-26T11:03:49Z</time>
      </trkpt>
      <trkpt lat="46.07161" lon="6.77612">
        <ele>1818.7</ele>
        <time>2026-06-26T11:03:50Z</time>
      </trkpt>
      <trkpt lat="46.0716" lon="6.77612">
        <ele>1818.5</ele>
        <time>2026-06-26T11:03:51Z</time>
      </trkpt>
      <trkpt lat="46.0716" lon="6.77611">
        <ele>1818.3</ele>
        <time>2026-06-26T11:03:52Z</time>
      </trkpt>
      <trkpt lat="46.0716" lon="6.77611">
        <ele>1817.9</ele>
        <time>2026-06-26T11:03:53Z</time>
      </trkpt>
      <trkpt lat="46.0716" lon="6.7761">
        <ele>1817.7</ele>
        <time>2026-06-26T11:03:54Z</time>
      </trkpt>
      <trkpt lat="46.07161" lon="6.77609">
        <ele>1817.5</ele>
        <time>2026-06-26T11:03:55Z</time>
      </trkpt>
      <trkpt lat="46.07161" lon="6.77607">
        <ele>1817.4</ele>
        <time>2026-06-26T11:03:56Z</time>
      </trkpt>
      <trkpt lat="46.07161" lon="6.77607">
        <ele>1817.2</ele>
        <time>2026-06-26T11:03:57Z</time>
      </trkpt>
      <trkpt lat="46.0716" lon="6.77607">
        <ele>1817</ele>
        <time>2026-06-26T11:03:58Z</time>
      </trkpt>
      <trkpt lat="46.0716" lon="6.77606">
        <ele>1816.9</ele>
        <time>2026-06-26T11:03:59Z</time>
      </trkpt>
      <trkpt lat="46.0716" lon="6.77606">
        <ele>1816.7</ele>
        <time>2026-06-26T11:04:00Z</time>
      </trkpt>
      <trkpt lat="46.0716" lon="6.77606">
        <ele>1816.5</ele>
        <time>2026-06-26T11:04:01Z</time>
      </trkpt>
      <trkpt lat="46.07159" lon="6.77605">
        <ele>1816.4</ele>
        <time>2026-06-26T11:04:02Z</time>
      </trkpt>
      <trkpt lat="46.07159" lon="6.77605">
        <ele>1816.3</ele>
        <time>2026-06-26T11:04:03Z</time>
      </trkpt>
      <trkpt lat="46.0716" lon="6.77604">
        <ele>1816.1</ele>
        <time>2026-06-26T11:04:04Z</time>
      </trkpt>
      <trkpt lat="46.0716" lon="6.77603">
        <ele>1815.9</ele>
        <time>2026-06-26T11:04:05Z</time>
      </trkpt>
      <trkpt lat="46.07159" lon="6.77602">
        <ele>1815.6</ele>
        <time>2026-06-26T11:04:06Z</time>
      </trkpt>
      <trkpt lat="46.07159" lon="6.77601">
        <ele>1815.5</ele>
        <time>2026-06-26T11:04:07Z</time>
      </trkpt>
      <trkpt lat="46.07158" lon="6.776">
        <ele>1815.3</ele>
        <time>2026-06-26T11:04:08Z</time>
      </trkpt>
      <trkpt lat="46.07157" lon="6.776">
        <ele>1815</ele>
        <time>2026-06-26T11:04:09Z</time>
      </trkpt>
      <trkpt lat="46.07157" lon="6.776">
        <ele>1814.8</ele>
        <time>2026-06-26T11:04:10Z</time>
      </trkpt>
      <trkpt lat="46.07156" lon="6.77599">
        <ele>1814.6</ele>
        <time>2026-06-26T11:04:11Z</time>
      </trkpt>
      <trkpt lat="46.07156" lon="6.77599">
        <ele>1814.5</ele>
        <time>2026-06-26T11:04:12Z</time>
      </trkpt>
      <trkpt lat="46.07155" lon="6.77599">
        <ele>1814.2</ele>
        <time>2026-06-26T11:04:13Z</time>
      </trkpt>
      <trkpt lat="46.07155" lon="6.77598">
        <ele>1814</ele>
        <time>2026-06-26T11:04:14Z</time>
      </trkpt>
      <trkpt lat="46.07154" lon="6.77597">
        <ele>1813.8</ele>
        <time>2026-06-26T11:04:15Z</time>
      </trkpt>
      <trkpt lat="46.07154" lon="6.77597">
        <ele>1813.8</ele>
        <time>2026-06-26T11:04:16Z</time>
      </trkpt>
      <trkpt lat="46.07153" lon="6.77596">
        <ele>1813.5</ele>
        <time>2026-06-26T11:04:17Z</time>
      </trkpt>
      <trkpt lat="46.07153" lon="6.77596">
        <ele>1813.3</ele>
        <time>2026-06-26T11:04:18Z</time>
      </trkpt>
      <trkpt lat="46.07153" lon="6.77596">
        <ele>1813</ele>
        <time>2026-06-26T11:04:19Z</time>
      </trkpt>
      <trkpt lat="46.07152" lon="6.77595">
        <ele>1812.8</ele>
        <time>2026-06-26T11:04:20Z</time>
      </trkpt>
      <trkpt lat="46.07152" lon="6.77594">
        <ele>1812.6</ele>
        <time>2026-06-26T11:04:21Z</time>
      </trkpt>
      <trkpt lat="46.07151" lon="6.77593">
        <ele>1812.2</ele>
        <time>2026-06-26T11:04:22Z</time>
      </trkpt>
      <trkpt lat="46.07151" lon="6.77592">
        <ele>1811.9</ele>
        <time>2026-06-26T11:04:23Z</time>
      </trkpt>
      <trkpt lat="46.07151" lon="6.77591">
        <ele>1811.7</ele>
        <time>2026-06-26T11:04:24Z</time>
      </trkpt>
      <trkpt lat="46.0715" lon="6.77591">
        <ele>1811.6</ele>
        <time>2026-06-26T11:04:25Z</time>
      </trkpt>
      <trkpt lat="46.0715" lon="6.7759">
        <ele>1811.3</ele>
        <time>2026-06-26T11:04:26Z</time>
      </trkpt>
      <trkpt lat="46.07149" lon="6.77589">
        <ele>1811</ele>
        <time>2026-06-26T11:04:27Z</time>
      </trkpt>
      <trkpt lat="46.07149" lon="6.77589">
        <ele>1810.8</ele>
        <time>2026-06-26T11:04:28Z</time>
      </trkpt>
      <trkpt lat="46.07149" lon="6.77588">
        <ele>1810.5</ele>
        <time>2026-06-26T11:04:29Z</time>
      </trkpt>
      <trkpt lat="46.07149" lon="6.77588">
        <ele>1810.3</ele>
        <time>2026-06-26T11:04:30Z</time>
      </trkpt>
      <trkpt lat="46.07149" lon="6.77587">
        <ele>1810.1</ele>
        <time>2026-06-26T11:04:31Z</time>
      </trkpt>
      <trkpt lat="46.07149" lon="6.77586">
        <ele>1809.9</ele>
        <time>2026-06-26T11:04:32Z</time>
      </trkpt>
      <trkpt lat="46.07149" lon="6.77585">
        <ele>1809.7</ele>
        <time>2026-06-26T11:04:33Z</time>
      </trkpt>
      <trkpt lat="46.0715" lon="6.77584">
        <ele>1809.6</ele>
        <time>2026-06-26T11:04:34Z</time>
      </trkpt>
      <trkpt lat="46.0715" lon="6.77584">
        <ele>1809.4</ele>
        <time>2026-06-26T11:04:35Z</time>
      </trkpt>
      <trkpt lat="46.0715" lon="6.77583">
        <ele>1809.1</ele>
        <time>2026-06-26T11:04:36Z</time>
      </trkpt>
      <trkpt lat="46.0715" lon="6.77582">
        <ele>1808.8</ele>
        <time>2026-06-26T11:04:37Z</time>
      </trkpt>
      <trkpt lat="46.0715" lon="6.77581">
        <ele>1808.6</ele>
        <time>2026-06-26T11:04:38Z</time>
      </trkpt>
      <trkpt lat="46.0715" lon="6.7758">
        <ele>1808.4</ele>
        <time>2026-06-26T11:04:39Z</time>
      </trkpt>
      <trkpt lat="46.07149" lon="6.7758">
        <ele>1808.2</ele>
        <time>2026-06-26T11:04:40Z</time>
      </trkpt>
      <trkpt lat="46.07149" lon="6.77579">
        <ele>1808.1</ele>
        <time>2026-06-26T11:04:41Z</time>
      </trkpt>
      <trkpt lat="46.07149" lon="6.77578">
        <ele>1807.9</ele>
        <time>2026-06-26T11:04:42Z</time>
      </trkpt>
      <trkpt lat="46.07149" lon="6.77577">
        <ele>1807.7</ele>
        <time>2026-06-26T11:04:43Z</time>
      </trkpt>
      <trkpt lat="46.07149" lon="6.77576">
        <ele>1807.5</ele>
        <time>2026-06-26T11:04:44Z</time>
      </trkpt>
      <trkpt lat="46.07149" lon="6.77575">
        <ele>1807.1</ele>
        <time>2026-06-26T11:04:45Z</time>
      </trkpt>
      <trkpt lat="46.07149" lon="6.77574">
        <ele>1806.8</ele>
        <time>2026-06-26T11:04:46Z</time>
      </trkpt>
      <trkpt lat="46.07148" lon="6.77574">
        <ele>1806.7</ele>
        <time>2026-06-26T11:04:47Z</time>
      </trkpt>
      <trkpt lat="46.07148" lon="6.77573">
        <ele>1806.6</ele>
        <time>2026-06-26T11:04:48Z</time>
      </trkpt>
      <trkpt lat="46.07148" lon="6.77572">
        <ele>1806.5</ele>
        <time>2026-06-26T11:04:49Z</time>
      </trkpt>
      <trkpt lat="46.07147" lon="6.77571">
        <ele>1806.3</ele>
        <time>2026-06-26T11:04:50Z</time>
      </trkpt>
      <trkpt lat="46.07146" lon="6.77571">
        <ele>1806.1</ele>
        <time>2026-06-26T11:04:51Z</time>
      </trkpt>
      <trkpt lat="46.07146" lon="6.77571">
        <ele>1805.9</ele>
        <time>2026-06-26T11:04:52Z</time>
      </trkpt>
      <trkpt lat="46.07145" lon="6.7757">
        <ele>1805.6</ele>
        <time>2026-06-26T11:04:53Z</time>
      </trkpt>
      <trkpt lat="46.07145" lon="6.7757">
        <ele>1805.3</ele>
        <time>2026-06-26T11:04:54Z</time>
      </trkpt>
      <trkpt lat="46.07145" lon="6.77569">
        <ele>1805.1</ele>
        <time>2026-06-26T11:04:55Z</time>
      </trkpt>
      <trkpt lat="46.07145" lon="6.77569">
        <ele>1804.9</ele>
        <time>2026-06-26T11:04:56Z</time>
      </trkpt>
      <trkpt lat="46.07145" lon="6.77568">
        <ele>1804.7</ele>
        <time>2026-06-26T11:04:57Z</time>
      </trkpt>
      <trkpt lat="46.07145" lon="6.77568">
        <ele>1804.6</ele>
        <time>2026-06-26T11:04:58Z</time>
      </trkpt>
      <trkpt lat="46.07145" lon="6.77567">
        <ele>1804.5</ele>
        <time>2026-06-26T11:04:59Z</time>
      </trkpt>
      <trkpt lat="46.07145" lon="6.77566">
        <ele>1804.3</ele>
        <time>2026-06-26T11:05:00Z</time>
      </trkpt>
      <trkpt lat="46.07145" lon="6.77565">
        <ele>1804.1</ele>
        <time>2026-06-26T11:05:01Z</time>
      </trkpt>
      <trkpt lat="46.07144" lon="6.77564">
        <ele>1803.7</ele>
        <time>2026-06-26T11:05:02Z</time>
      </trkpt>
      <trkpt lat="46.07144" lon="6.77563">
        <ele>1803.3</ele>
        <time>2026-06-26T11:05:03Z</time>
      </trkpt>
      <trkpt lat="46.07144" lon="6.77562">
        <ele>1803.2</ele>
        <time>2026-06-26T11:05:04Z</time>
      </trkpt>
      <trkpt lat="46.07144" lon="6.77561">
        <ele>1803</ele>
        <time>2026-06-26T11:05:05Z</time>
      </trkpt>
      <trkpt lat="46.07144" lon="6.7756">
        <ele>1802.9</ele>
        <time>2026-06-26T11:05:06Z</time>
      </trkpt>
      <trkpt lat="46.07144" lon="6.77559">
        <ele>1802.6</ele>
        <time>2026-06-26T11:05:07Z</time>
      </trkpt>
      <trkpt lat="46.07144" lon="6.77558">
        <ele>1802.4</ele>
        <time>2026-06-26T11:05:08Z</time>
      </trkpt>
      <trkpt lat="46.07143" lon="6.77557">
        <ele>1802</ele>
        <time>2026-06-26T11:05:09Z</time>
      </trkpt>
      <trkpt lat="46.07143" lon="6.77556">
        <ele>1801.8</ele>
        <time>2026-06-26T11:05:10Z</time>
      </trkpt>
      <trkpt lat="46.07142" lon="6.77555">
        <ele>1801.5</ele>
        <time>2026-06-26T11:05:11Z</time>
      </trkpt>
      <trkpt lat="46.07142" lon="6.77554">
        <ele>1801.3</ele>
        <time>2026-06-26T11:05:12Z</time>
      </trkpt>
      <trkpt lat="46.07142" lon="6.77553">
        <ele>1801</ele>
        <time>2026-06-26T11:05:13Z</time>
      </trkpt>
      <trkpt lat="46.07142" lon="6.77552">
        <ele>1800.8</ele>
        <time>2026-06-26T11:05:14Z</time>
      </trkpt>
      <trkpt lat="46.07142" lon="6.77551">
        <ele>1800.6</ele>
        <time>2026-06-26T11:05:15Z</time>
      </trkpt>
      <trkpt lat="46.07142" lon="6.77551">
        <ele>1800.4</ele>
        <time>2026-06-26T11:05:16Z</time>
      </trkpt>
      <trkpt lat="46.07142" lon="6.7755">
        <ele>1800.2</ele>
        <time>2026-06-26T11:05:17Z</time>
      </trkpt>
      <trkpt lat="46.07143" lon="6.7755">
        <ele>1800</ele>
        <time>2026-06-26T11:05:18Z</time>
      </trkpt>
      <trkpt lat="46.07143" lon="6.7755">
        <ele>1799.8</ele>
        <time>2026-06-26T11:05:19Z</time>
      </trkpt>
      <trkpt lat="46.07143" lon="6.7755">
        <ele>1799.6</ele>
        <time>2026-06-26T11:05:20Z</time>
      </trkpt>
      <trkpt lat="46.07143" lon="6.77549">
        <ele>1799.5</ele>
        <time>2026-06-26T11:05:21Z</time>
      </trkpt>
      <trkpt lat="46.07144" lon="6.77548">
        <ele>1799.4</ele>
        <time>2026-06-26T11:05:22Z</time>
      </trkpt>
      <trkpt lat="46.07144" lon="6.77547">
        <ele>1799.2</ele>
        <time>2026-06-26T11:05:23Z</time>
      </trkpt>
      <trkpt lat="46.07145" lon="6.77547">
        <ele>1799</ele>
        <time>2026-06-26T11:05:24Z</time>
      </trkpt>
      <trkpt lat="46.07145" lon="6.77546">
        <ele>1798.6</ele>
        <time>2026-06-26T11:05:25Z</time>
      </trkpt>
      <trkpt lat="46.07146" lon="6.77545">
        <ele>1798.4</ele>
        <time>2026-06-26T11:05:26Z</time>
      </trkpt>
      <trkpt lat="46.07147" lon="6.77544">
        <ele>1798.2</ele>
        <time>2026-06-26T11:05:27Z</time>
      </trkpt>
      <trkpt lat="46.07147" lon="6.77543">
        <ele>1798</ele>
        <time>2026-06-26T11:05:28Z</time>
      </trkpt>
      <trkpt lat="46.07148" lon="6.77542">
        <ele>1797.9</ele>
        <time>2026-06-26T11:05:29Z</time>
      </trkpt>
      <trkpt lat="46.07148" lon="6.77541">
        <ele>1797.8</ele>
        <time>2026-06-26T11:05:30Z</time>
      </trkpt>
      <trkpt lat="46.07148" lon="6.77541">
        <ele>1797.5</ele>
        <time>2026-06-26T11:05:31Z</time>
      </trkpt>
      <trkpt lat="46.07149" lon="6.77541">
        <ele>1797.3</ele>
        <time>2026-06-26T11:05:32Z</time>
      </trkpt>
      <trkpt lat="46.07149" lon="6.77541">
        <ele>1797.1</ele>
        <time>2026-06-26T11:05:33Z</time>
      </trkpt>
      <trkpt lat="46.07149" lon="6.7754">
        <ele>1796.8</ele>
        <time>2026-06-26T11:05:34Z</time>
      </trkpt>
      <trkpt lat="46.07149" lon="6.77539">
        <ele>1796.6</ele>
        <time>2026-06-26T11:05:35Z</time>
      </trkpt>
      <trkpt lat="46.07149" lon="6.77539">
        <ele>1796.5</ele>
        <time>2026-06-26T11:05:36Z</time>
      </trkpt>
      <trkpt lat="46.07149" lon="6.77538">
        <ele>1796.3</ele>
        <time>2026-06-26T11:05:37Z</time>
      </trkpt>
      <trkpt lat="46.07149" lon="6.77537">
        <ele>1796</ele>
        <time>2026-06-26T11:05:38Z</time>
      </trkpt>
      <trkpt lat="46.07148" lon="6.77536">
        <ele>1795.8</ele>
        <time>2026-06-26T11:05:39Z</time>
      </trkpt>
      <trkpt lat="46.07148" lon="6.77535">
        <ele>1795.5</ele>
        <time>2026-06-26T11:05:40Z</time>
      </trkpt>
      <trkpt lat="46.07147" lon="6.77534">
        <ele>1795.3</ele>
        <time>2026-06-26T11:05:41Z</time>
      </trkpt>
      <trkpt lat="46.07147" lon="6.77534">
        <ele>1795.1</ele>
        <time>2026-06-26T11:05:42Z</time>
      </trkpt>
      <trkpt lat="46.07147" lon="6.77533">
        <ele>1795</ele>
        <time>2026-06-26T11:05:43Z</time>
      </trkpt>
      <trkpt lat="46.07146" lon="6.77532">
        <ele>1794.7</ele>
        <time>2026-06-26T11:05:44Z</time>
      </trkpt>
      <trkpt lat="46.07147" lon="6.77531">
        <ele>1794.5</ele>
        <time>2026-06-26T11:05:45Z</time>
      </trkpt>
      <trkpt lat="46.07147" lon="6.77531">
        <ele>1794.3</ele>
        <time>2026-06-26T11:05:46Z</time>
      </trkpt>
      <trkpt lat="46.07147" lon="6.7753">
        <ele>1794</ele>
        <time>2026-06-26T11:05:47Z</time>
      </trkpt>
      <trkpt lat="46.07148" lon="6.7753">
        <ele>1793.8</ele>
        <time>2026-06-26T11:05:48Z</time>
      </trkpt>
      <trkpt lat="46.07148" lon="6.7753">
        <ele>1793.2</ele>
        <time>2026-06-26T11:05:49Z</time>
      </trkpt>
      <trkpt lat="46.07149" lon="6.7753">
        <ele>1792.9</ele>
        <time>2026-06-26T11:05:50Z</time>
      </trkpt>
      <trkpt lat="46.0715" lon="6.7753">
        <ele>1792.7</ele>
        <time>2026-06-26T11:05:51Z</time>
      </trkpt>
      <trkpt lat="46.0715" lon="6.7753">
        <ele>1792.4</ele>
        <time>2026-06-26T11:05:52Z</time>
      </trkpt>
      <trkpt lat="46.07151" lon="6.7753">
        <ele>1792.2</ele>
        <time>2026-06-26T11:05:53Z</time>
      </trkpt>
      <trkpt lat="46.07151" lon="6.77529">
        <ele>1792.1</ele>
        <time>2026-06-26T11:05:54Z</time>
      </trkpt>
      <trkpt lat="46.07152" lon="6.77529">
        <ele>1791.9</ele>
        <time>2026-06-26T11:05:55Z</time>
      </trkpt>
      <trkpt lat="46.07152" lon="6.77528">
        <ele>1791.7</ele>
        <time>2026-06-26T11:05:56Z</time>
      </trkpt>
      <trkpt lat="46.07153" lon="6.77528">
        <ele>1791.6</ele>
        <time>2026-06-26T11:05:57Z</time>
      </trkpt>
      <trkpt lat="46.07154" lon="6.77528">
        <ele>1791.4</ele>
        <time>2026-06-26T11:05:58Z</time>
      </trkpt>
      <trkpt lat="46.07155" lon="6.77527">
        <ele>1791.2</ele>
        <time>2026-06-26T11:05:59Z</time>
      </trkpt>
      <trkpt lat="46.07155" lon="6.77527">
        <ele>1791.1</ele>
        <time>2026-06-26T11:06:00Z</time>
      </trkpt>
      <trkpt lat="46.07156" lon="6.77527">
        <ele>1790.9</ele>
        <time>2026-06-26T11:06:01Z</time>
      </trkpt>
      <trkpt lat="46.07157" lon="6.77527">
        <ele>1790.6</ele>
        <time>2026-06-26T11:06:02Z</time>
      </trkpt>
      <trkpt lat="46.07157" lon="6.77527">
        <ele>1790.4</ele>
        <time>2026-06-26T11:06:03Z</time>
      </trkpt>
      <trkpt lat="46.07157" lon="6.77527">
        <ele>1790.2</ele>
        <time>2026-06-26T11:06:04Z</time>
      </trkpt>
      <trkpt lat="46.07157" lon="6.77527">
        <ele>1790</ele>
        <time>2026-06-26T11:06:05Z</time>
      </trkpt>
      <trkpt lat="46.07158" lon="6.77526">
        <ele>1789.8</ele>
        <time>2026-06-26T11:06:06Z</time>
      </trkpt>
      <trkpt lat="46.07158" lon="6.77525">
        <ele>1789.4</ele>
        <time>2026-06-26T11:06:07Z</time>
      </trkpt>
      <trkpt lat="46.07158" lon="6.77525">
        <ele>1789.4</ele>
        <time>2026-06-26T11:06:08Z</time>
      </trkpt>
      <trkpt lat="46.07158" lon="6.77524">
        <ele>1789.1</ele>
        <time>2026-06-26T11:06:09Z</time>
      </trkpt>
      <trkpt lat="46.07159" lon="6.77524">
        <ele>1788.8</ele>
        <time>2026-06-26T11:06:10Z</time>
      </trkpt>
      <trkpt lat="46.07159" lon="6.77523">
        <ele>1788.6</ele>
        <time>2026-06-26T11:06:11Z</time>
      </trkpt>
      <trkpt lat="46.07159" lon="6.77523">
        <ele>1788.4</ele>
        <time>2026-06-26T11:06:12Z</time>
      </trkpt>
      <trkpt lat="46.0716" lon="6.77522">
        <ele>1788.2</ele>
        <time>2026-06-26T11:06:13Z</time>
      </trkpt>
      <trkpt lat="46.0716" lon="6.77521">
        <ele>1787.9</ele>
        <time>2026-06-26T11:06:14Z</time>
      </trkpt>
      <trkpt lat="46.0716" lon="6.7752">
        <ele>1787.7</ele>
        <time>2026-06-26T11:06:15Z</time>
      </trkpt>
      <trkpt lat="46.07161" lon="6.77519">
        <ele>1787.4</ele>
        <time>2026-06-26T11:06:16Z</time>
      </trkpt>
      <trkpt lat="46.07161" lon="6.77519">
        <ele>1787.4</ele>
        <time>2026-06-26T11:06:17Z</time>
      </trkpt>
      <trkpt lat="46.07161" lon="6.77519">
        <ele>1787.3</ele>
        <time>2026-06-26T11:06:18Z</time>
      </trkpt>
      <trkpt lat="46.07162" lon="6.77519">
        <ele>1787.2</ele>
        <time>2026-06-26T11:06:19Z</time>
      </trkpt>
      <trkpt lat="46.07162" lon="6.7752">
        <ele>1787.1</ele>
        <time>2026-06-26T11:06:20Z</time>
      </trkpt>
      <trkpt lat="46.07162" lon="6.77519">
        <ele>1787</ele>
        <time>2026-06-26T11:06:21Z</time>
      </trkpt>
      <trkpt lat="46.07162" lon="6.77519">
        <ele>1787</ele>
        <time>2026-06-26T11:06:22Z</time>
      </trkpt>
      <trkpt lat="46.07162" lon="6.7752">
        <ele>1787</ele>
        <time>2026-06-26T11:06:23Z</time>
      </trkpt>
      <trkpt lat="46.07162" lon="6.77519">
        <ele>1787</ele>
        <time>2026-06-26T11:06:24Z</time>
      </trkpt>
      <trkpt lat="46.07162" lon="6.77519">
        <ele>1787</ele>
        <time>2026-06-26T11:06:25Z</time>
      </trkpt>
      <trkpt lat="46.07163" lon="6.77518">
        <ele>1787</ele>
        <time>2026-06-26T11:06:26Z</time>
      </trkpt>
      <trkpt lat="46.07163" lon="6.77517">
        <ele>1786.8</ele>
        <time>2026-06-26T11:06:27Z</time>
      </trkpt>
      <trkpt lat="46.07163" lon="6.77516">
        <ele>1786.7</ele>
        <time>2026-06-26T11:06:28Z</time>
      </trkpt>
      <trkpt lat="46.07164" lon="6.77515">
        <ele>1786.6</ele>
        <time>2026-06-26T11:06:29Z</time>
      </trkpt>
      <trkpt lat="46.07165" lon="6.77514">
        <ele>1786.4</ele>
        <time>2026-06-26T11:06:30Z</time>
      </trkpt>
      <trkpt lat="46.07166" lon="6.77514">
        <ele>1786.3</ele>
        <time>2026-06-26T11:06:31Z</time>
      </trkpt>
      <trkpt lat="46.07166" lon="6.77514">
        <ele>1786.1</ele>
        <time>2026-06-26T11:06:32Z</time>
      </trkpt>
      <trkpt lat="46.07167" lon="6.77514">
        <ele>1785.8</ele>
        <time>2026-06-26T11:06:33Z</time>
      </trkpt>
      <trkpt lat="46.07167" lon="6.77513">
        <ele>1785.6</ele>
        <time>2026-06-26T11:06:34Z</time>
      </trkpt>
      <trkpt lat="46.07167" lon="6.77513">
        <ele>1785.3</ele>
        <time>2026-06-26T11:06:35Z</time>
      </trkpt>
      <trkpt lat="46.07168" lon="6.77512">
        <ele>1785</ele>
        <time>2026-06-26T11:06:36Z</time>
      </trkpt>
      <trkpt lat="46.07168" lon="6.77512">
        <ele>1784.7</ele>
        <time>2026-06-26T11:06:37Z</time>
      </trkpt>
      <trkpt lat="46.07168" lon="6.77511">
        <ele>1784.4</ele>
        <time>2026-06-26T11:06:38Z</time>
      </trkpt>
      <trkpt lat="46.07168" lon="6.77511">
        <ele>1784.2</ele>
        <time>2026-06-26T11:06:39Z</time>
      </trkpt>
      <trkpt lat="46.07168" lon="6.7751">
        <ele>1784</ele>
        <time>2026-06-26T11:06:40Z</time>
      </trkpt>
      <trkpt lat="46.07168" lon="6.77509">
        <ele>1783.8</ele>
        <time>2026-06-26T11:06:41Z</time>
      </trkpt>
      <trkpt lat="46.07168" lon="6.77508">
        <ele>1783.6</ele>
        <time>2026-06-26T11:06:42Z</time>
      </trkpt>
      <trkpt lat="46.07168" lon="6.77507">
        <ele>1783.3</ele>
        <time>2026-06-26T11:06:43Z</time>
      </trkpt>
      <trkpt lat="46.07167" lon="6.77506">
        <ele>1782.9</ele>
        <time>2026-06-26T11:06:44Z</time>
      </trkpt>
      <trkpt lat="46.07167" lon="6.77505">
        <ele>1782.7</ele>
        <time>2026-06-26T11:06:45Z</time>
      </trkpt>
      <trkpt lat="46.07167" lon="6.77504">
        <ele>1782.5</ele>
        <time>2026-06-26T11:06:46Z</time>
      </trkpt>
      <trkpt lat="46.07167" lon="6.77503">
        <ele>1782.4</ele>
        <time>2026-06-26T11:06:47Z</time>
      </trkpt>
      <trkpt lat="46.07168" lon="6.77502">
        <ele>1782</ele>
        <time>2026-06-26T11:06:48Z</time>
      </trkpt>
      <trkpt lat="46.07168" lon="6.77502">
        <ele>1781.8</ele>
        <time>2026-06-26T11:06:49Z</time>
      </trkpt>
      <trkpt lat="46.07168" lon="6.77501">
        <ele>1781.6</ele>
        <time>2026-06-26T11:06:50Z</time>
      </trkpt>
      <trkpt lat="46.07168" lon="6.775">
        <ele>1781.5</ele>
        <time>2026-06-26T11:06:51Z</time>
      </trkpt>
      <trkpt lat="46.07169" lon="6.77498">
        <ele>1781.3</ele>
        <time>2026-06-26T11:06:52Z</time>
      </trkpt>
      <trkpt lat="46.07169" lon="6.77498">
        <ele>1781.2</ele>
        <time>2026-06-26T11:06:53Z</time>
      </trkpt>
      <trkpt lat="46.07169" lon="6.77497">
        <ele>1781</ele>
        <time>2026-06-26T11:06:54Z</time>
      </trkpt>
      <trkpt lat="46.07169" lon="6.77497">
        <ele>1780.9</ele>
        <time>2026-06-26T11:06:55Z</time>
      </trkpt>
      <trkpt lat="46.07169" lon="6.77497">
        <ele>1780.8</ele>
        <time>2026-06-26T11:06:56Z</time>
      </trkpt>
      <trkpt lat="46.07169" lon="6.77495">
        <ele>1780.4</ele>
        <time>2026-06-26T11:06:57Z</time>
      </trkpt>
      <trkpt lat="46.0717" lon="6.77494">
        <ele>1780.4</ele>
        <time>2026-06-26T11:06:58Z</time>
      </trkpt>
      <trkpt lat="46.0717" lon="6.77493">
        <ele>1780.4</ele>
        <time>2026-06-26T11:06:59Z</time>
      </trkpt>
      <trkpt lat="46.0717" lon="6.77492">
        <ele>1780.2</ele>
        <time>2026-06-26T11:07:00Z</time>
      </trkpt>
      <trkpt lat="46.0717" lon="6.77492">
        <ele>1780</ele>
        <time>2026-06-26T11:07:01Z</time>
      </trkpt>
      <trkpt lat="46.07171" lon="6.77491">
        <ele>1779.8</ele>
        <time>2026-06-26T11:07:02Z</time>
      </trkpt>
      <trkpt lat="46.07171" lon="6.7749">
        <ele>1779.6</ele>
        <time>2026-06-26T11:07:03Z</time>
      </trkpt>
      <trkpt lat="46.07172" lon="6.77489">
        <ele>1779.5</ele>
        <time>2026-06-26T11:07:04Z</time>
      </trkpt>
      <trkpt lat="46.07172" lon="6.77488">
        <ele>1779.3</ele>
        <time>2026-06-26T11:07:05Z</time>
      </trkpt>
      <trkpt lat="46.07172" lon="6.77487">
        <ele>1779.1</ele>
        <time>2026-06-26T11:07:06Z</time>
      </trkpt>
      <trkpt lat="46.07173" lon="6.77487">
        <ele>1778.9</ele>
        <time>2026-06-26T11:07:07Z</time>
      </trkpt>
      <trkpt lat="46.07173" lon="6.77487">
        <ele>1778.7</ele>
        <time>2026-06-26T11:07:08Z</time>
      </trkpt>
      <trkpt lat="46.07174" lon="6.77486">
        <ele>1778.5</ele>
        <time>2026-06-26T11:07:09Z</time>
      </trkpt>
      <trkpt lat="46.07174" lon="6.77485">
        <ele>1778.3</ele>
        <time>2026-06-26T11:07:10Z</time>
      </trkpt>
      <trkpt lat="46.07175" lon="6.77485">
        <ele>1778.1</ele>
        <time>2026-06-26T11:07:11Z</time>
      </trkpt>
      <trkpt lat="46.07175" lon="6.77484">
        <ele>1777.9</ele>
        <time>2026-06-26T11:07:12Z</time>
      </trkpt>
      <trkpt lat="46.07176" lon="6.77483">
        <ele>1777.7</ele>
        <time>2026-06-26T11:07:13Z</time>
      </trkpt>
      <trkpt lat="46.07176" lon="6.77482">
        <ele>1777.6</ele>
        <time>2026-06-26T11:07:14Z</time>
      </trkpt>
      <trkpt lat="46.07176" lon="6.77482">
        <ele>1777.4</ele>
        <time>2026-06-26T11:07:15Z</time>
      </trkpt>
      <trkpt lat="46.07177" lon="6.77481">
        <ele>1777.2</ele>
        <time>2026-06-26T11:07:16Z</time>
      </trkpt>
      <trkpt lat="46.07177" lon="6.77481">
        <ele>1777.1</ele>
        <time>2026-06-26T11:07:17Z</time>
      </trkpt>
      <trkpt lat="46.07178" lon="6.7748">
        <ele>1776.9</ele>
        <time>2026-06-26T11:07:18Z</time>
      </trkpt>
      <trkpt lat="46.07178" lon="6.77479">
        <ele>1776.7</ele>
        <time>2026-06-26T11:07:19Z</time>
      </trkpt>
      <trkpt lat="46.07178" lon="6.77478">
        <ele>1776.3</ele>
        <time>2026-06-26T11:07:20Z</time>
      </trkpt>
      <trkpt lat="46.07179" lon="6.77478">
        <ele>1776</ele>
        <time>2026-06-26T11:07:21Z</time>
      </trkpt>
      <trkpt lat="46.0718" lon="6.77478">
        <ele>1775.8</ele>
        <time>2026-06-26T11:07:22Z</time>
      </trkpt>
      <trkpt lat="46.0718" lon="6.77478">
        <ele>1775.7</ele>
        <time>2026-06-26T11:07:23Z</time>
      </trkpt>
      <trkpt lat="46.07181" lon="6.77478">
        <ele>1775.5</ele>
        <time>2026-06-26T11:07:24Z</time>
      </trkpt>
      <trkpt lat="46.07181" lon="6.77478">
        <ele>1775.2</ele>
        <time>2026-06-26T11:07:25Z</time>
      </trkpt>
      <trkpt lat="46.07181" lon="6.77477">
        <ele>1774.9</ele>
        <time>2026-06-26T11:07:26Z</time>
      </trkpt>
      <trkpt lat="46.07182" lon="6.77477">
        <ele>1774.6</ele>
        <time>2026-06-26T11:07:27Z</time>
      </trkpt>
      <trkpt lat="46.07182" lon="6.77477">
        <ele>1774.3</ele>
        <time>2026-06-26T11:07:28Z</time>
      </trkpt>
      <trkpt lat="46.07183" lon="6.77476">
        <ele>1774</ele>
        <time>2026-06-26T11:07:29Z</time>
      </trkpt>
      <trkpt lat="46.07184" lon="6.77476">
        <ele>1773.8</ele>
        <time>2026-06-26T11:07:30Z</time>
      </trkpt>
      <trkpt lat="46.07184" lon="6.77476">
        <ele>1773.5</ele>
        <time>2026-06-26T11:07:31Z</time>
      </trkpt>
      <trkpt lat="46.07185" lon="6.77476">
        <ele>1773.3</ele>
        <time>2026-06-26T11:07:32Z</time>
      </trkpt>
      <trkpt lat="46.07186" lon="6.77475">
        <ele>1773</ele>
        <time>2026-06-26T11:07:33Z</time>
      </trkpt>
      <trkpt lat="46.07187" lon="6.77475">
        <ele>1772.7</ele>
        <time>2026-06-26T11:07:34Z</time>
      </trkpt>
      <trkpt lat="46.07188" lon="6.77475">
        <ele>1772.6</ele>
        <time>2026-06-26T11:07:35Z</time>
      </trkpt>
      <trkpt lat="46.07189" lon="6.77474">
        <ele>1772.4</ele>
        <time>2026-06-26T11:07:36Z</time>
      </trkpt>
      <trkpt lat="46.07189" lon="6.77473">
        <ele>1772.2</ele>
        <time>2026-06-26T11:07:37Z</time>
      </trkpt>
      <trkpt lat="46.0719" lon="6.77472">
        <ele>1771.8</ele>
        <time>2026-06-26T11:07:38Z</time>
      </trkpt>
      <trkpt lat="46.07191" lon="6.7747">
        <ele>1771.5</ele>
        <time>2026-06-26T11:07:39Z</time>
      </trkpt>
      <trkpt lat="46.07191" lon="6.77469">
        <ele>1771.3</ele>
        <time>2026-06-26T11:07:40Z</time>
      </trkpt>
      <trkpt lat="46.07192" lon="6.77467">
        <ele>1771.1</ele>
        <time>2026-06-26T11:07:41Z</time>
      </trkpt>
      <trkpt lat="46.07192" lon="6.77466">
        <ele>1770.8</ele>
        <time>2026-06-26T11:07:42Z</time>
      </trkpt>
      <trkpt lat="46.07192" lon="6.77464">
        <ele>1770.5</ele>
        <time>2026-06-26T11:07:43Z</time>
      </trkpt>
      <trkpt lat="46.07192" lon="6.77462">
        <ele>1770.4</ele>
        <time>2026-06-26T11:07:44Z</time>
      </trkpt>
      <trkpt lat="46.07191" lon="6.7746">
        <ele>1770.3</ele>
        <time>2026-06-26T11:07:45Z</time>
      </trkpt>
      <trkpt lat="46.07191" lon="6.77459">
        <ele>1770</ele>
        <time>2026-06-26T11:07:46Z</time>
      </trkpt>
      <trkpt lat="46.0719" lon="6.77457">
        <ele>1769.8</ele>
        <time>2026-06-26T11:07:47Z</time>
      </trkpt>
      <trkpt lat="46.07189" lon="6.77455">
        <ele>1769.7</ele>
        <time>2026-06-26T11:07:48Z</time>
      </trkpt>
      <trkpt lat="46.0719" lon="6.77453">
        <ele>1769.6</ele>
        <time>2026-06-26T11:07:49Z</time>
      </trkpt>
      <trkpt lat="46.07191" lon="6.77452">
        <ele>1769.5</ele>
        <time>2026-06-26T11:07:50Z</time>
      </trkpt>
      <trkpt lat="46.07191" lon="6.7745">
        <ele>1769.5</ele>
        <time>2026-06-26T11:07:51Z</time>
      </trkpt>
      <trkpt lat="46.07192" lon="6.77449">
        <ele>1769.5</ele>
        <time>2026-06-26T11:07:52Z</time>
      </trkpt>
      <trkpt lat="46.07192" lon="6.77448">
        <ele>1769.5</ele>
        <time>2026-06-26T11:07:53Z</time>
      </trkpt>
      <trkpt lat="46.07192" lon="6.77448">
        <ele>1769.5</ele>
        <time>2026-06-26T11:07:54Z</time>
      </trkpt>
      <trkpt lat="46.07192" lon="6.77448">
        <ele>1769.5</ele>
        <time>2026-06-26T11:07:55Z</time>
      </trkpt>
      <trkpt lat="46.07192" lon="6.77447">
        <ele>1769.4</ele>
        <time>2026-06-26T11:07:56Z</time>
      </trkpt>
      <trkpt lat="46.07191" lon="6.77447">
        <ele>1769.4</ele>
        <time>2026-06-26T11:07:57Z</time>
      </trkpt>
      <trkpt lat="46.07191" lon="6.77446">
        <ele>1769.4</ele>
        <time>2026-06-26T11:07:58Z</time>
      </trkpt>
      <trkpt lat="46.07191" lon="6.77445">
        <ele>1769.3</ele>
        <time>2026-06-26T11:07:59Z</time>
      </trkpt>
      <trkpt lat="46.07192" lon="6.77444">
        <ele>1769.2</ele>
        <time>2026-06-26T11:08:00Z</time>
      </trkpt>
      <trkpt lat="46.07192" lon="6.77443">
        <ele>1769.2</ele>
        <time>2026-06-26T11:08:01Z</time>
      </trkpt>
      <trkpt lat="46.07192" lon="6.77442">
        <ele>1769.2</ele>
        <time>2026-06-26T11:08:02Z</time>
      </trkpt>
      <trkpt lat="46.07192" lon="6.77441">
        <ele>1769.1</ele>
        <time>2026-06-26T11:08:03Z</time>
      </trkpt>
      <trkpt lat="46.07192" lon="6.77441">
        <ele>1769</ele>
        <time>2026-06-26T11:08:04Z</time>
      </trkpt>
      <trkpt lat="46.07193" lon="6.77441">
        <ele>1769</ele>
        <time>2026-06-26T11:08:05Z</time>
      </trkpt>
      <trkpt lat="46.07193" lon="6.77442">
        <ele>1769</ele>
        <time>2026-06-26T11:08:06Z</time>
      </trkpt>
      <trkpt lat="46.07193" lon="6.77442">
        <ele>1768.9</ele>
        <time>2026-06-26T11:08:07Z</time>
      </trkpt>
      <trkpt lat="46.07194" lon="6.77442">
        <ele>1768.9</ele>
        <time>2026-06-26T11:08:08Z</time>
      </trkpt>
      <trkpt lat="46.07194" lon="6.77442">
        <ele>1769</ele>
        <time>2026-06-26T11:08:09Z</time>
      </trkpt>
      <trkpt lat="46.07194" lon="6.77442">
        <ele>1769</ele>
        <time>2026-06-26T11:08:10Z</time>
      </trkpt>
      <trkpt lat="46.07194" lon="6.77441">
        <ele>1769</ele>
        <time>2026-06-26T11:08:11Z</time>
      </trkpt>
      <trkpt lat="46.07194" lon="6.77441">
        <ele>1769</ele>
        <time>2026-06-26T11:08:12Z</time>
      </trkpt>
      <trkpt lat="46.07195" lon="6.77441">
        <ele>1768.9</ele>
        <time>2026-06-26T11:08:13Z</time>
      </trkpt>
      <trkpt lat="46.07195" lon="6.77441">
        <ele>1768.9</ele>
        <time>2026-06-26T11:08:14Z</time>
      </trkpt>
      <trkpt lat="46.07195" lon="6.77441">
        <ele>1768.9</ele>
        <time>2026-06-26T11:08:15Z</time>
      </trkpt>
      <trkpt lat="46.07195" lon="6.77441">
        <ele>1768.8</ele>
        <time>2026-06-26T11:08:16Z</time>
      </trkpt>
      <trkpt lat="46.07195" lon="6.7744">
        <ele>1768.7</ele>
        <time>2026-06-26T11:08:17Z</time>
      </trkpt>
      <trkpt lat="46.07196" lon="6.77439">
        <ele>1768.7</ele>
        <time>2026-06-26T11:08:18Z</time>
      </trkpt>
      <trkpt lat="46.07196" lon="6.77438">
        <ele>1768.6</ele>
        <time>2026-06-26T11:08:19Z</time>
      </trkpt>
      <trkpt lat="46.07196" lon="6.77437">
        <ele>1768.6</ele>
        <time>2026-06-26T11:08:20Z</time>
      </trkpt>
      <trkpt lat="46.07196" lon="6.77435">
        <ele>1768.5</ele>
        <time>2026-06-26T11:08:21Z</time>
      </trkpt>
      <trkpt lat="46.07196" lon="6.77434">
        <ele>1768.5</ele>
        <time>2026-06-26T11:08:22Z</time>
      </trkpt>
      <trkpt lat="46.07196" lon="6.77433">
        <ele>1768.4</ele>
        <time>2026-06-26T11:08:23Z</time>
      </trkpt>
      <trkpt lat="46.07195" lon="6.77431">
        <ele>1768.2</ele>
        <time>2026-06-26T11:08:24Z</time>
      </trkpt>
      <trkpt lat="46.07195" lon="6.7743">
        <ele>1768.2</ele>
        <time>2026-06-26T11:08:25Z</time>
      </trkpt>
      <trkpt lat="46.07194" lon="6.77428">
        <ele>1768.3</ele>
        <time>2026-06-26T11:08:26Z</time>
      </trkpt>
      <trkpt lat="46.07194" lon="6.77427">
        <ele>1768.1</ele>
        <time>2026-06-26T11:08:27Z</time>
      </trkpt>
      <trkpt lat="46.07194" lon="6.77425">
        <ele>1768</ele>
        <time>2026-06-26T11:08:28Z</time>
      </trkpt>
      <trkpt lat="46.07193" lon="6.77424">
        <ele>1767.9</ele>
        <time>2026-06-26T11:08:29Z</time>
      </trkpt>
      <trkpt lat="46.07192" lon="6.77423">
        <ele>1767.8</ele>
        <time>2026-06-26T11:08:30Z</time>
      </trkpt>
      <trkpt lat="46.07192" lon="6.77422">
        <ele>1767.7</ele>
        <time>2026-06-26T11:08:31Z</time>
      </trkpt>
      <trkpt lat="46.07191" lon="6.77421">
        <ele>1767.6</ele>
        <time>2026-06-26T11:08:32Z</time>
      </trkpt>
      <trkpt lat="46.07191" lon="6.7742">
        <ele>1767.5</ele>
        <time>2026-06-26T11:08:33Z</time>
      </trkpt>
      <trkpt lat="46.07191" lon="6.77419">
        <ele>1767.4</ele>
        <time>2026-06-26T11:08:34Z</time>
      </trkpt>
      <trkpt lat="46.0719" lon="6.77419">
        <ele>1767.4</ele>
        <time>2026-06-26T11:08:35Z</time>
      </trkpt>
      <trkpt lat="46.0719" lon="6.77418">
        <ele>1767.3</ele>
        <time>2026-06-26T11:08:36Z</time>
      </trkpt>
      <trkpt lat="46.0719" lon="6.77418">
        <ele>1767.3</ele>
        <time>2026-06-26T11:08:37Z</time>
      </trkpt>
      <trkpt lat="46.07189" lon="6.77417">
        <ele>1767.2</ele>
        <time>2026-06-26T11:08:38Z</time>
      </trkpt>
      <trkpt lat="46.07189" lon="6.77417">
        <ele>1767.1</ele>
        <time>2026-06-26T11:08:39Z</time>
      </trkpt>
      <trkpt lat="46.07189" lon="6.77417">
        <ele>1767</ele>
        <time>2026-06-26T11:08:40Z</time>
      </trkpt>
      <trkpt lat="46.07189" lon="6.77417">
        <ele>1766.9</ele>
        <time>2026-06-26T11:08:41Z</time>
      </trkpt>
      <trkpt lat="46.07189" lon="6.77417">
        <ele>1766.6</ele>
        <time>2026-06-26T11:08:42Z</time>
      </trkpt>
      <trkpt lat="46.07189" lon="6.77416">
        <ele>1766.5</ele>
        <time>2026-06-26T11:08:43Z</time>
      </trkpt>
      <trkpt lat="46.07189" lon="6.77416">
        <ele>1766.4</ele>
        <time>2026-06-26T11:08:44Z</time>
      </trkpt>
      <trkpt lat="46.07188" lon="6.77415">
        <ele>1766.2</ele>
        <time>2026-06-26T11:08:45Z</time>
      </trkpt>
      <trkpt lat="46.07188" lon="6.77414">
        <ele>1766.1</ele>
        <time>2026-06-26T11:08:46Z</time>
      </trkpt>
      <trkpt lat="46.07187" lon="6.77414">
        <ele>1766</ele>
        <time>2026-06-26T11:08:47Z</time>
      </trkpt>
      <trkpt lat="46.07187" lon="6.77413">
        <ele>1765.8</ele>
        <time>2026-06-26T11:08:48Z</time>
      </trkpt>
      <trkpt lat="46.07186" lon="6.77412">
        <ele>1765.6</ele>
        <time>2026-06-26T11:08:49Z</time>
      </trkpt>
      <trkpt lat="46.07186" lon="6.7741">
        <ele>1765.5</ele>
        <time>2026-06-26T11:08:50Z</time>
      </trkpt>
      <trkpt lat="46.07186" lon="6.77408">
        <ele>1765.3</ele>
        <time>2026-06-26T11:08:51Z</time>
      </trkpt>
      <trkpt lat="46.07186" lon="6.77407">
        <ele>1765.1</ele>
        <time>2026-06-26T11:08:52Z</time>
      </trkpt>
      <trkpt lat="46.07186" lon="6.77406">
        <ele>1764.8</ele>
        <time>2026-06-26T11:08:53Z</time>
      </trkpt>
      <trkpt lat="46.07186" lon="6.77406">
        <ele>1764.6</ele>
        <time>2026-06-26T11:08:54Z</time>
      </trkpt>
      <trkpt lat="46.07185" lon="6.77405">
        <ele>1764.5</ele>
        <time>2026-06-26T11:08:55Z</time>
      </trkpt>
      <trkpt lat="46.07185" lon="6.77405">
        <ele>1764.4</ele>
        <time>2026-06-26T11:08:56Z</time>
      </trkpt>
      <trkpt lat="46.07185" lon="6.77403">
        <ele>1764.3</ele>
        <time>2026-06-26T11:08:57Z</time>
      </trkpt>
      <trkpt lat="46.07185" lon="6.77402">
        <ele>1764.2</ele>
        <time>2026-06-26T11:08:58Z</time>
      </trkpt>
      <trkpt lat="46.07185" lon="6.774">
        <ele>1764</ele>
        <time>2026-06-26T11:08:59Z</time>
      </trkpt>
      <trkpt lat="46.07185" lon="6.77399">
        <ele>1763.9</ele>
        <time>2026-06-26T11:09:00Z</time>
      </trkpt>
      <trkpt lat="46.07185" lon="6.77398">
        <ele>1763.8</ele>
        <time>2026-06-26T11:09:01Z</time>
      </trkpt>
      <trkpt lat="46.07185" lon="6.77397">
        <ele>1763.7</ele>
        <time>2026-06-26T11:09:02Z</time>
      </trkpt>
      <trkpt lat="46.07184" lon="6.77397">
        <ele>1763.3</ele>
        <time>2026-06-26T11:09:03Z</time>
      </trkpt>
      <trkpt lat="46.07184" lon="6.77396">
        <ele>1763.2</ele>
        <time>2026-06-26T11:09:04Z</time>
      </trkpt>
      <trkpt lat="46.07184" lon="6.77395">
        <ele>1763</ele>
        <time>2026-06-26T11:09:05Z</time>
      </trkpt>
      <trkpt lat="46.07184" lon="6.77394">
        <ele>1762.9</ele>
        <time>2026-06-26T11:09:06Z</time>
      </trkpt>
      <trkpt lat="46.07184" lon="6.77393">
        <ele>1762.8</ele>
        <time>2026-06-26T11:09:07Z</time>
      </trkpt>
      <trkpt lat="46.07183" lon="6.77392">
        <ele>1762.6</ele>
        <time>2026-06-26T11:09:08Z</time>
      </trkpt>
      <trkpt lat="46.07184" lon="6.7739">
        <ele>1762.4</ele>
        <time>2026-06-26T11:09:09Z</time>
      </trkpt>
      <trkpt lat="46.07184" lon="6.77389">
        <ele>1762.3</ele>
        <time>2026-06-26T11:09:10Z</time>
      </trkpt>
      <trkpt lat="46.07184" lon="6.77387">
        <ele>1762.2</ele>
        <time>2026-06-26T11:09:11Z</time>
      </trkpt>
      <trkpt lat="46.07185" lon="6.77385">
        <ele>1762.1</ele>
        <time>2026-06-26T11:09:12Z</time>
      </trkpt>
      <trkpt lat="46.07185" lon="6.77384">
        <ele>1761.8</ele>
        <time>2026-06-26T11:09:13Z</time>
      </trkpt>
      <trkpt lat="46.07185" lon="6.77382">
        <ele>1761.6</ele>
        <time>2026-06-26T11:09:14Z</time>
      </trkpt>
      <trkpt lat="46.07185" lon="6.77381">
        <ele>1761.3</ele>
        <time>2026-06-26T11:09:15Z</time>
      </trkpt>
      <trkpt lat="46.07185" lon="6.77379">
        <ele>1761.1</ele>
        <time>2026-06-26T11:09:16Z</time>
      </trkpt>
      <trkpt lat="46.07185" lon="6.77378">
        <ele>1760.9</ele>
        <time>2026-06-26T11:09:17Z</time>
      </trkpt>
      <trkpt lat="46.07185" lon="6.77376">
        <ele>1760.6</ele>
        <time>2026-06-26T11:09:18Z</time>
      </trkpt>
      <trkpt lat="46.07186" lon="6.77374">
        <ele>1760.2</ele>
        <time>2026-06-26T11:09:19Z</time>
      </trkpt>
      <trkpt lat="46.07185" lon="6.77373">
        <ele>1760</ele>
        <time>2026-06-26T11:09:20Z</time>
      </trkpt>
      <trkpt lat="46.07185" lon="6.77371">
        <ele>1759.9</ele>
        <time>2026-06-26T11:09:21Z</time>
      </trkpt>
      <trkpt lat="46.07185" lon="6.7737">
        <ele>1759.5</ele>
        <time>2026-06-26T11:09:22Z</time>
      </trkpt>
      <trkpt lat="46.07185" lon="6.77368">
        <ele>1759.2</ele>
        <time>2026-06-26T11:09:23Z</time>
      </trkpt>
      <trkpt lat="46.07185" lon="6.77367">
        <ele>1758.9</ele>
        <time>2026-06-26T11:09:24Z</time>
      </trkpt>
      <trkpt lat="46.07185" lon="6.77366">
        <ele>1758.8</ele>
        <time>2026-06-26T11:09:25Z</time>
      </trkpt>
      <trkpt lat="46.07185" lon="6.77365">
        <ele>1758.6</ele>
        <time>2026-06-26T11:09:26Z</time>
      </trkpt>
      <trkpt lat="46.07185" lon="6.77363">
        <ele>1758.3</ele>
        <time>2026-06-26T11:09:27Z</time>
      </trkpt>
      <trkpt lat="46.07185" lon="6.77361">
        <ele>1758.1</ele>
        <time>2026-06-26T11:09:28Z</time>
      </trkpt>
      <trkpt lat="46.07185" lon="6.7736">
        <ele>1757.9</ele>
        <time>2026-06-26T11:09:29Z</time>
      </trkpt>
      <trkpt lat="46.07186" lon="6.77358">
        <ele>1757.7</ele>
        <time>2026-06-26T11:09:30Z</time>
      </trkpt>
      <trkpt lat="46.07186" lon="6.77356">
        <ele>1757.5</ele>
        <time>2026-06-26T11:09:31Z</time>
      </trkpt>
      <trkpt lat="46.07186" lon="6.77354">
        <ele>1757.1</ele>
        <time>2026-06-26T11:09:32Z</time>
      </trkpt>
      <trkpt lat="46.07186" lon="6.77353">
        <ele>1756.9</ele>
        <time>2026-06-26T11:09:33Z</time>
      </trkpt>
      <trkpt lat="46.07186" lon="6.77351">
        <ele>1756.7</ele>
        <time>2026-06-26T11:09:34Z</time>
      </trkpt>
      <trkpt lat="46.07185" lon="6.77349">
        <ele>1756.5</ele>
        <time>2026-06-26T11:09:35Z</time>
      </trkpt>
      <trkpt lat="46.07185" lon="6.77348">
        <ele>1756.4</ele>
        <time>2026-06-26T11:09:36Z</time>
      </trkpt>
      <trkpt lat="46.07184" lon="6.77347">
        <ele>1756.3</ele>
        <time>2026-06-26T11:09:37Z</time>
      </trkpt>
      <trkpt lat="46.07184" lon="6.77346">
        <ele>1755.9</ele>
        <time>2026-06-26T11:09:38Z</time>
      </trkpt>
      <trkpt lat="46.07184" lon="6.77345">
        <ele>1755.7</ele>
        <time>2026-06-26T11:09:39Z</time>
      </trkpt>
      <trkpt lat="46.07185" lon="6.77344">
        <ele>1755.6</ele>
        <time>2026-06-26T11:09:40Z</time>
      </trkpt>
      <trkpt lat="46.07184" lon="6.77342">
        <ele>1755.4</ele>
        <time>2026-06-26T11:09:41Z</time>
      </trkpt>
      <trkpt lat="46.07184" lon="6.77341">
        <ele>1755.3</ele>
        <time>2026-06-26T11:09:42Z</time>
      </trkpt>
      <trkpt lat="46.07184" lon="6.77339">
        <ele>1755.2</ele>
        <time>2026-06-26T11:09:43Z</time>
      </trkpt>
      <trkpt lat="46.07185" lon="6.77338">
        <ele>1755</ele>
        <time>2026-06-26T11:09:44Z</time>
      </trkpt>
      <trkpt lat="46.07184" lon="6.77336">
        <ele>1754.8</ele>
        <time>2026-06-26T11:09:45Z</time>
      </trkpt>
      <trkpt lat="46.07184" lon="6.77335">
        <ele>1754.6</ele>
        <time>2026-06-26T11:09:46Z</time>
      </trkpt>
      <trkpt lat="46.07184" lon="6.77333">
        <ele>1754.6</ele>
        <time>2026-06-26T11:09:47Z</time>
      </trkpt>
      <trkpt lat="46.07184" lon="6.77332">
        <ele>1754.4</ele>
        <time>2026-06-26T11:09:48Z</time>
      </trkpt>
      <trkpt lat="46.07184" lon="6.77331">
        <ele>1754.2</ele>
        <time>2026-06-26T11:09:49Z</time>
      </trkpt>
      <trkpt lat="46.07184" lon="6.7733">
        <ele>1754.1</ele>
        <time>2026-06-26T11:09:50Z</time>
      </trkpt>
      <trkpt lat="46.07183" lon="6.77329">
        <ele>1753.8</ele>
        <time>2026-06-26T11:09:51Z</time>
      </trkpt>
      <trkpt lat="46.07183" lon="6.77328">
        <ele>1753.7</ele>
        <time>2026-06-26T11:09:52Z</time>
      </trkpt>
      <trkpt lat="46.07182" lon="6.77327">
        <ele>1753.4</ele>
        <time>2026-06-26T11:09:53Z</time>
      </trkpt>
      <trkpt lat="46.07182" lon="6.77326">
        <ele>1753.2</ele>
        <time>2026-06-26T11:09:54Z</time>
      </trkpt>
      <trkpt lat="46.07181" lon="6.77325">
        <ele>1753</ele>
        <time>2026-06-26T11:09:55Z</time>
      </trkpt>
      <trkpt lat="46.0718" lon="6.77324">
        <ele>1753</ele>
        <time>2026-06-26T11:09:56Z</time>
      </trkpt>
      <trkpt lat="46.0718" lon="6.77323">
        <ele>1752.8</ele>
        <time>2026-06-26T11:09:57Z</time>
      </trkpt>
      <trkpt lat="46.07179" lon="6.77323">
        <ele>1752.6</ele>
        <time>2026-06-26T11:09:58Z</time>
      </trkpt>
      <trkpt lat="46.07178" lon="6.77324">
        <ele>1752.5</ele>
        <time>2026-06-26T11:09:59Z</time>
      </trkpt>
      <trkpt lat="46.07177" lon="6.77324">
        <ele>1752.4</ele>
        <time>2026-06-26T11:10:00Z</time>
      </trkpt>
      <trkpt lat="46.07176" lon="6.77324">
        <ele>1752.1</ele>
        <time>2026-06-26T11:10:01Z</time>
      </trkpt>
      <trkpt lat="46.07175" lon="6.77325">
        <ele>1751.8</ele>
        <time>2026-06-26T11:10:02Z</time>
      </trkpt>
      <trkpt lat="46.07175" lon="6.77325">
        <ele>1751.6</ele>
        <time>2026-06-26T11:10:03Z</time>
      </trkpt>
      <trkpt lat="46.07174" lon="6.77325">
        <ele>1751.4</ele>
        <time>2026-06-26T11:10:04Z</time>
      </trkpt>
      <trkpt lat="46.07173" lon="6.77325">
        <ele>1751.3</ele>
        <time>2026-06-26T11:10:05Z</time>
      </trkpt>
      <trkpt lat="46.07172" lon="6.77325">
        <ele>1751</ele>
        <time>2026-06-26T11:10:06Z</time>
      </trkpt>
      <trkpt lat="46.07171" lon="6.77325">
        <ele>1750.7</ele>
        <time>2026-06-26T11:10:07Z</time>
      </trkpt>
      <trkpt lat="46.0717" lon="6.77325">
        <ele>1750.5</ele>
        <time>2026-06-26T11:10:08Z</time>
      </trkpt>
      <trkpt lat="46.07169" lon="6.77325">
        <ele>1750.3</ele>
        <time>2026-06-26T11:10:09Z</time>
      </trkpt>
      <trkpt lat="46.07168" lon="6.77326">
        <ele>1750.2</ele>
        <time>2026-06-26T11:10:10Z</time>
      </trkpt>
      <trkpt lat="46.07168" lon="6.77326">
        <ele>1750.1</ele>
        <time>2026-06-26T11:10:11Z</time>
      </trkpt>
      <trkpt lat="46.07167" lon="6.77326">
        <ele>1749.8</ele>
        <time>2026-06-26T11:10:12Z</time>
      </trkpt>
      <trkpt lat="46.07167" lon="6.77326">
        <ele>1749.6</ele>
        <time>2026-06-26T11:10:13Z</time>
      </trkpt>
      <trkpt lat="46.07166" lon="6.77326">
        <ele>1749.4</ele>
        <time>2026-06-26T11:10:14Z</time>
      </trkpt>
      <trkpt lat="46.07166" lon="6.77326">
        <ele>1749.2</ele>
        <time>2026-06-26T11:10:15Z</time>
      </trkpt>
      <trkpt lat="46.07165" lon="6.77326">
        <ele>1749</ele>
        <time>2026-06-26T11:10:16Z</time>
      </trkpt>
      <trkpt lat="46.07165" lon="6.77325">
        <ele>1748.8</ele>
        <time>2026-06-26T11:10:17Z</time>
      </trkpt>
      <trkpt lat="46.07164" lon="6.77325">
        <ele>1748.6</ele>
        <time>2026-06-26T11:10:18Z</time>
      </trkpt>
      <trkpt lat="46.07164" lon="6.77325">
        <ele>1748.3</ele>
        <time>2026-06-26T11:10:19Z</time>
      </trkpt>
      <trkpt lat="46.07164" lon="6.77325">
        <ele>1748.2</ele>
        <time>2026-06-26T11:10:20Z</time>
      </trkpt>
      <trkpt lat="46.07164" lon="6.77324">
        <ele>1748</ele>
        <time>2026-06-26T11:10:21Z</time>
      </trkpt>
      <trkpt lat="46.07164" lon="6.77324">
        <ele>1747.9</ele>
        <time>2026-06-26T11:10:22Z</time>
      </trkpt>
      <trkpt lat="46.07163" lon="6.77324">
        <ele>1747.7</ele>
        <time>2026-06-26T11:10:23Z</time>
      </trkpt>
      <trkpt lat="46.07163" lon="6.77324">
        <ele>1747.5</ele>
        <time>2026-06-26T11:10:24Z</time>
      </trkpt>
      <trkpt lat="46.07162" lon="6.77324">
        <ele>1747.3</ele>
        <time>2026-06-26T11:10:25Z</time>
      </trkpt>
      <trkpt lat="46.07162" lon="6.77324">
        <ele>1747.2</ele>
        <time>2026-06-26T11:10:26Z</time>
      </trkpt>
      <trkpt lat="46.07161" lon="6.77324">
        <ele>1747</ele>
        <time>2026-06-26T11:10:27Z</time>
      </trkpt>
      <trkpt lat="46.07161" lon="6.77324">
        <ele>1746.9</ele>
        <time>2026-06-26T11:10:28Z</time>
      </trkpt>
      <trkpt lat="46.07161" lon="6.77324">
        <ele>1746.7</ele>
        <time>2026-06-26T11:10:29Z</time>
      </trkpt>
      <trkpt lat="46.0716" lon="6.77324">
        <ele>1746.6</ele>
        <time>2026-06-26T11:10:30Z</time>
      </trkpt>
      <trkpt lat="46.0716" lon="6.77324">
        <ele>1746.5</ele>
        <time>2026-06-26T11:10:31Z</time>
      </trkpt>
      <trkpt lat="46.07159" lon="6.77323">
        <ele>1746.3</ele>
        <time>2026-06-26T11:10:32Z</time>
      </trkpt>
      <trkpt lat="46.07159" lon="6.77323">
        <ele>1746.2</ele>
        <time>2026-06-26T11:10:33Z</time>
      </trkpt>
      <trkpt lat="46.07158" lon="6.77323">
        <ele>1745.9</ele>
        <time>2026-06-26T11:10:34Z</time>
      </trkpt>
      <trkpt lat="46.07158" lon="6.77323">
        <ele>1745.8</ele>
        <time>2026-06-26T11:10:35Z</time>
      </trkpt>
      <trkpt lat="46.07157" lon="6.77321">
        <ele>1745.6</ele>
        <time>2026-06-26T11:10:36Z</time>
      </trkpt>
      <trkpt lat="46.07156" lon="6.77321">
        <ele>1745.4</ele>
        <time>2026-06-26T11:10:37Z</time>
      </trkpt>
      <trkpt lat="46.07156" lon="6.77321">
        <ele>1745.1</ele>
        <time>2026-06-26T11:10:38Z</time>
      </trkpt>
      <trkpt lat="46.07155" lon="6.77321">
        <ele>1744.9</ele>
        <time>2026-06-26T11:10:39Z</time>
      </trkpt>
      <trkpt lat="46.07154" lon="6.77321">
        <ele>1744.7</ele>
        <time>2026-06-26T11:10:40Z</time>
      </trkpt>
      <trkpt lat="46.07154" lon="6.77322">
        <ele>1744.5</ele>
        <time>2026-06-26T11:10:41Z</time>
      </trkpt>
      <trkpt lat="46.07154" lon="6.77322">
        <ele>1744.2</ele>
        <time>2026-06-26T11:10:42Z</time>
      </trkpt>
      <trkpt lat="46.07153" lon="6.77321">
        <ele>1744</ele>
        <time>2026-06-26T11:10:43Z</time>
      </trkpt>
      <trkpt lat="46.07153" lon="6.77321">
        <ele>1743.8</ele>
        <time>2026-06-26T11:10:44Z</time>
      </trkpt>
      <trkpt lat="46.07153" lon="6.7732">
        <ele>1743.5</ele>
        <time>2026-06-26T11:10:45Z</time>
      </trkpt>
      <trkpt lat="46.07153" lon="6.7732">
        <ele>1743.3</ele>
        <time>2026-06-26T11:10:46Z</time>
      </trkpt>
      <trkpt lat="46.07152" lon="6.77319">
        <ele>1743.1</ele>
        <time>2026-06-26T11:10:47Z</time>
      </trkpt>
      <trkpt lat="46.07152" lon="6.77319">
        <ele>1742.9</ele>
        <time>2026-06-26T11:10:48Z</time>
      </trkpt>
      <trkpt lat="46.07152" lon="6.77318">
        <ele>1742.7</ele>
        <time>2026-06-26T11:10:49Z</time>
      </trkpt>
      <trkpt lat="46.07152" lon="6.77317">
        <ele>1742.4</ele>
        <time>2026-06-26T11:10:50Z</time>
      </trkpt>
      <trkpt lat="46.07152" lon="6.77316">
        <ele>1742.3</ele>
        <time>2026-06-26T11:10:51Z</time>
      </trkpt>
      <trkpt lat="46.07151" lon="6.77316">
        <ele>1742.1</ele>
        <time>2026-06-26T11:10:52Z</time>
      </trkpt>
      <trkpt lat="46.07151" lon="6.77315">
        <ele>1742</ele>
        <time>2026-06-26T11:10:53Z</time>
      </trkpt>
      <trkpt lat="46.07151" lon="6.77314">
        <ele>1741.7</ele>
        <time>2026-06-26T11:10:54Z</time>
      </trkpt>
      <trkpt lat="46.0715" lon="6.77313">
        <ele>1741.6</ele>
        <time>2026-06-26T11:10:55Z</time>
      </trkpt>
      <trkpt lat="46.0715" lon="6.77312">
        <ele>1741.4</ele>
        <time>2026-06-26T11:10:56Z</time>
      </trkpt>
      <trkpt lat="46.07149" lon="6.77312">
        <ele>1741.3</ele>
        <time>2026-06-26T11:10:57Z</time>
      </trkpt>
      <trkpt lat="46.07149" lon="6.77311">
        <ele>1741</ele>
        <time>2026-06-26T11:10:58Z</time>
      </trkpt>
      <trkpt lat="46.07148" lon="6.77311">
        <ele>1740.8</ele>
        <time>2026-06-26T11:10:59Z</time>
      </trkpt>
      <trkpt lat="46.07148" lon="6.7731">
        <ele>1740.6</ele>
        <time>2026-06-26T11:11:00Z</time>
      </trkpt>
      <trkpt lat="46.07147" lon="6.77309">
        <ele>1740.4</ele>
        <time>2026-06-26T11:11:01Z</time>
      </trkpt>
      <trkpt lat="46.07147" lon="6.77309">
        <ele>1740.2</ele>
        <time>2026-06-26T11:11:02Z</time>
      </trkpt>
      <trkpt lat="46.07146" lon="6.77308">
        <ele>1739.9</ele>
        <time>2026-06-26T11:11:03Z</time>
      </trkpt>
      <trkpt lat="46.07146" lon="6.77307">
        <ele>1739.7</ele>
        <time>2026-06-26T11:11:04Z</time>
      </trkpt>
      <trkpt lat="46.07146" lon="6.77306">
        <ele>1739.5</ele>
        <time>2026-06-26T11:11:05Z</time>
      </trkpt>
      <trkpt lat="46.07146" lon="6.77306">
        <ele>1739.3</ele>
        <time>2026-06-26T11:11:06Z</time>
      </trkpt>
      <trkpt lat="46.07146" lon="6.77305">
        <ele>1739.2</ele>
        <time>2026-06-26T11:11:07Z</time>
      </trkpt>
      <trkpt lat="46.07146" lon="6.77305">
        <ele>1739</ele>
        <time>2026-06-26T11:11:08Z</time>
      </trkpt>
      <trkpt lat="46.07146" lon="6.77304">
        <ele>1738.9</ele>
        <time>2026-06-26T11:11:09Z</time>
      </trkpt>
      <trkpt lat="46.07146" lon="6.77303">
        <ele>1738.6</ele>
        <time>2026-06-26T11:11:10Z</time>
      </trkpt>
      <trkpt lat="46.07145" lon="6.77302">
        <ele>1738.3</ele>
        <time>2026-06-26T11:11:11Z</time>
      </trkpt>
      <trkpt lat="46.07145" lon="6.77301">
        <ele>1738.1</ele>
        <time>2026-06-26T11:11:12Z</time>
      </trkpt>
      <trkpt lat="46.07145" lon="6.773">
        <ele>1737.8</ele>
        <time>2026-06-26T11:11:13Z</time>
      </trkpt>
      <trkpt lat="46.07145" lon="6.77299">
        <ele>1737.5</ele>
        <time>2026-06-26T11:11:14Z</time>
      </trkpt>
      <trkpt lat="46.07144" lon="6.77299">
        <ele>1737.2</ele>
        <time>2026-06-26T11:11:15Z</time>
      </trkpt>
      <trkpt lat="46.07144" lon="6.77298">
        <ele>1737</ele>
        <time>2026-06-26T11:11:16Z</time>
      </trkpt>
      <trkpt lat="46.07144" lon="6.77297">
        <ele>1736.9</ele>
        <time>2026-06-26T11:11:17Z</time>
      </trkpt>
      <trkpt lat="46.07143" lon="6.77297">
        <ele>1736.7</ele>
        <time>2026-06-26T11:11:18Z</time>
      </trkpt>
      <trkpt lat="46.07142" lon="6.77296">
        <ele>1736.5</ele>
        <time>2026-06-26T11:11:19Z</time>
      </trkpt>
      <trkpt lat="46.07142" lon="6.77296">
        <ele>1736.1</ele>
        <time>2026-06-26T11:11:20Z</time>
      </trkpt>
      <trkpt lat="46.07142" lon="6.77296">
        <ele>1735.9</ele>
        <time>2026-06-26T11:11:21Z</time>
      </trkpt>
      <trkpt lat="46.07141" lon="6.77295">
        <ele>1735.7</ele>
        <time>2026-06-26T11:11:22Z</time>
      </trkpt>
      <trkpt lat="46.07141" lon="6.77294">
        <ele>1735.5</ele>
        <time>2026-06-26T11:11:23Z</time>
      </trkpt>
      <trkpt lat="46.0714" lon="6.77293">
        <ele>1735.2</ele>
        <time>2026-06-26T11:11:24Z</time>
      </trkpt>
      <trkpt lat="46.0714" lon="6.77293">
        <ele>1735</ele>
        <time>2026-06-26T11:11:25Z</time>
      </trkpt>
      <trkpt lat="46.0714" lon="6.77291">
        <ele>1734.8</ele>
        <time>2026-06-26T11:11:26Z</time>
      </trkpt>
      <trkpt lat="46.0714" lon="6.7729">
        <ele>1734.6</ele>
        <time>2026-06-26T11:11:27Z</time>
      </trkpt>
      <trkpt lat="46.0714" lon="6.7729">
        <ele>1734.3</ele>
        <time>2026-06-26T11:11:28Z</time>
      </trkpt>
      <trkpt lat="46.0714" lon="6.77289">
        <ele>1734.1</ele>
        <time>2026-06-26T11:11:29Z</time>
      </trkpt>
      <trkpt lat="46.0714" lon="6.77288">
        <ele>1733.9</ele>
        <time>2026-06-26T11:11:30Z</time>
      </trkpt>
      <trkpt lat="46.0714" lon="6.77287">
        <ele>1733.5</ele>
        <time>2026-06-26T11:11:31Z</time>
      </trkpt>
      <trkpt lat="46.07139" lon="6.77285">
        <ele>1733.3</ele>
        <time>2026-06-26T11:11:32Z</time>
      </trkpt>
      <trkpt lat="46.07139" lon="6.77284">
        <ele>1733.2</ele>
        <time>2026-06-26T11:11:33Z</time>
      </trkpt>
      <trkpt lat="46.07139" lon="6.77283">
        <ele>1733</ele>
        <time>2026-06-26T11:11:34Z</time>
      </trkpt>
      <trkpt lat="46.07139" lon="6.77282">
        <ele>1732.8</ele>
        <time>2026-06-26T11:11:35Z</time>
      </trkpt>
      <trkpt lat="46.0714" lon="6.77281">
        <ele>1732.6</ele>
        <time>2026-06-26T11:11:36Z</time>
      </trkpt>
      <trkpt lat="46.0714" lon="6.7728">
        <ele>1732.5</ele>
        <time>2026-06-26T11:11:37Z</time>
      </trkpt>
      <trkpt lat="46.07141" lon="6.77279">
        <ele>1732.4</ele>
        <time>2026-06-26T11:11:38Z</time>
      </trkpt>
      <trkpt lat="46.07141" lon="6.77278">
        <ele>1732.1</ele>
        <time>2026-06-26T11:11:39Z</time>
      </trkpt>
      <trkpt lat="46.07141" lon="6.77277">
        <ele>1731.8</ele>
        <time>2026-06-26T11:11:40Z</time>
      </trkpt>
      <trkpt lat="46.07141" lon="6.77277">
        <ele>1731.6</ele>
        <time>2026-06-26T11:11:41Z</time>
      </trkpt>
      <trkpt lat="46.07141" lon="6.77276">
        <ele>1731.4</ele>
        <time>2026-06-26T11:11:42Z</time>
      </trkpt>
      <trkpt lat="46.07141" lon="6.77275">
        <ele>1731.1</ele>
        <time>2026-06-26T11:11:43Z</time>
      </trkpt>
      <trkpt lat="46.07141" lon="6.77274">
        <ele>1730.9</ele>
        <time>2026-06-26T11:11:44Z</time>
      </trkpt>
      <trkpt lat="46.07141" lon="6.77273">
        <ele>1730.7</ele>
        <time>2026-06-26T11:11:45Z</time>
      </trkpt>
      <trkpt lat="46.07141" lon="6.77273">
        <ele>1730</ele>
        <time>2026-06-26T11:11:46Z</time>
      </trkpt>
      <trkpt lat="46.0714" lon="6.77272">
        <ele>1729.8</ele>
        <time>2026-06-26T11:11:47Z</time>
      </trkpt>
      <trkpt lat="46.0714" lon="6.77271">
        <ele>1729.7</ele>
        <time>2026-06-26T11:11:48Z</time>
      </trkpt>
      <trkpt lat="46.0714" lon="6.7727">
        <ele>1729.6</ele>
        <time>2026-06-26T11:11:49Z</time>
      </trkpt>
      <trkpt lat="46.0714" lon="6.77269">
        <ele>1729.5</ele>
        <time>2026-06-26T11:11:50Z</time>
      </trkpt>
      <trkpt lat="46.07139" lon="6.77268">
        <ele>1729.3</ele>
        <time>2026-06-26T11:11:51Z</time>
      </trkpt>
      <trkpt lat="46.07139" lon="6.77267">
        <ele>1729.2</ele>
        <time>2026-06-26T11:11:52Z</time>
      </trkpt>
      <trkpt lat="46.07138" lon="6.77265">
        <ele>1728.9</ele>
        <time>2026-06-26T11:11:53Z</time>
      </trkpt>
      <trkpt lat="46.07138" lon="6.77264">
        <ele>1728.7</ele>
        <time>2026-06-26T11:11:54Z</time>
      </trkpt>
      <trkpt lat="46.07138" lon="6.77263">
        <ele>1728.4</ele>
        <time>2026-06-26T11:11:55Z</time>
      </trkpt>
      <trkpt lat="46.07138" lon="6.77263">
        <ele>1728.1</ele>
        <time>2026-06-26T11:11:56Z</time>
      </trkpt>
      <trkpt lat="46.07138" lon="6.77262">
        <ele>1727.9</ele>
        <time>2026-06-26T11:11:57Z</time>
      </trkpt>
      <trkpt lat="46.07139" lon="6.77262">
        <ele>1727.7</ele>
        <time>2026-06-26T11:11:58Z</time>
      </trkpt>
      <trkpt lat="46.07138" lon="6.7726">
        <ele>1727.6</ele>
        <time>2026-06-26T11:11:59Z</time>
      </trkpt>
      <trkpt lat="46.07138" lon="6.77259">
        <ele>1727.5</ele>
        <time>2026-06-26T11:12:00Z</time>
      </trkpt>
      <trkpt lat="46.07138" lon="6.77258">
        <ele>1727.4</ele>
        <time>2026-06-26T11:12:01Z</time>
      </trkpt>
      <trkpt lat="46.07138" lon="6.77257">
        <ele>1727.1</ele>
        <time>2026-06-26T11:12:02Z</time>
      </trkpt>
      <trkpt lat="46.07138" lon="6.77256">
        <ele>1726.9</ele>
        <time>2026-06-26T11:12:03Z</time>
      </trkpt>
      <trkpt lat="46.07138" lon="6.77256">
        <ele>1726.8</ele>
        <time>2026-06-26T11:12:04Z</time>
      </trkpt>
      <trkpt lat="46.07139" lon="6.77256">
        <ele>1726.8</ele>
        <time>2026-06-26T11:12:05Z</time>
      </trkpt>
      <trkpt lat="46.07139" lon="6.77256">
        <ele>1726.3</ele>
        <time>2026-06-26T11:12:06Z</time>
      </trkpt>
      <trkpt lat="46.07139" lon="6.77254">
        <ele>1726.1</ele>
        <time>2026-06-26T11:12:07Z</time>
      </trkpt>
      <trkpt lat="46.07139" lon="6.77253">
        <ele>1725.9</ele>
        <time>2026-06-26T11:12:08Z</time>
      </trkpt>
      <trkpt lat="46.07138" lon="6.77253">
        <ele>1725.7</ele>
        <time>2026-06-26T11:12:09Z</time>
      </trkpt>
      <trkpt lat="46.07138" lon="6.77251">
        <ele>1725.6</ele>
        <time>2026-06-26T11:12:10Z</time>
      </trkpt>
      <trkpt lat="46.07138" lon="6.7725">
        <ele>1725.4</ele>
        <time>2026-06-26T11:12:11Z</time>
      </trkpt>
      <trkpt lat="46.07137" lon="6.77249">
        <ele>1725.1</ele>
        <time>2026-06-26T11:12:12Z</time>
      </trkpt>
      <trkpt lat="46.07137" lon="6.77248">
        <ele>1724.9</ele>
        <time>2026-06-26T11:12:13Z</time>
      </trkpt>
      <trkpt lat="46.07137" lon="6.77247">
        <ele>1724.8</ele>
        <time>2026-06-26T11:12:14Z</time>
      </trkpt>
      <trkpt lat="46.07136" lon="6.77247">
        <ele>1724.8</ele>
        <time>2026-06-26T11:12:15Z</time>
      </trkpt>
      <trkpt lat="46.07135" lon="6.77246">
        <ele>1724.5</ele>
        <time>2026-06-26T11:12:16Z</time>
      </trkpt>
      <trkpt lat="46.07135" lon="6.77245">
        <ele>1724.2</ele>
        <time>2026-06-26T11:12:17Z</time>
      </trkpt>
      <trkpt lat="46.07134" lon="6.77245">
        <ele>1723.9</ele>
        <time>2026-06-26T11:12:18Z</time>
      </trkpt>
      <trkpt lat="46.07134" lon="6.77244">
        <ele>1723.5</ele>
        <time>2026-06-26T11:12:19Z</time>
      </trkpt>
      <trkpt lat="46.07133" lon="6.77243">
        <ele>1723.3</ele>
        <time>2026-06-26T11:12:20Z</time>
      </trkpt>
      <trkpt lat="46.07133" lon="6.77242">
        <ele>1723.1</ele>
        <time>2026-06-26T11:12:21Z</time>
      </trkpt>
      <trkpt lat="46.07133" lon="6.77242">
        <ele>1722.9</ele>
        <time>2026-06-26T11:12:22Z</time>
      </trkpt>
      <trkpt lat="46.07132" lon="6.77242">
        <ele>1722.8</ele>
        <time>2026-06-26T11:12:23Z</time>
      </trkpt>
      <trkpt lat="46.07132" lon="6.77241">
        <ele>1722.6</ele>
        <time>2026-06-26T11:12:24Z</time>
      </trkpt>
      <trkpt lat="46.07132" lon="6.77241">
        <ele>1722.4</ele>
        <time>2026-06-26T11:12:25Z</time>
      </trkpt>
      <trkpt lat="46.07132" lon="6.77242">
        <ele>1722.3</ele>
        <time>2026-06-26T11:12:26Z</time>
      </trkpt>
      <trkpt lat="46.07132" lon="6.77241">
        <ele>1722.2</ele>
        <time>2026-06-26T11:12:27Z</time>
      </trkpt>
      <trkpt lat="46.07132" lon="6.77241">
        <ele>1722.1</ele>
        <time>2026-06-26T11:12:28Z</time>
      </trkpt>
      <trkpt lat="46.07132" lon="6.77239">
        <ele>1721.8</ele>
        <time>2026-06-26T11:12:29Z</time>
      </trkpt>
      <trkpt lat="46.07132" lon="6.77239">
        <ele>1721.6</ele>
        <time>2026-06-26T11:12:30Z</time>
      </trkpt>
      <trkpt lat="46.07131" lon="6.77238">
        <ele>1721.4</ele>
        <time>2026-06-26T11:12:31Z</time>
      </trkpt>
      <trkpt lat="46.07131" lon="6.77237">
        <ele>1721.3</ele>
        <time>2026-06-26T11:12:32Z</time>
      </trkpt>
      <trkpt lat="46.07131" lon="6.77236">
        <ele>1721</ele>
        <time>2026-06-26T11:12:33Z</time>
      </trkpt>
      <trkpt lat="46.07131" lon="6.77235">
        <ele>1720.8</ele>
        <time>2026-06-26T11:12:34Z</time>
      </trkpt>
      <trkpt lat="46.0713" lon="6.77233">
        <ele>1720.5</ele>
        <time>2026-06-26T11:12:35Z</time>
      </trkpt>
      <trkpt lat="46.0713" lon="6.77232">
        <ele>1720.3</ele>
        <time>2026-06-26T11:12:36Z</time>
      </trkpt>
      <trkpt lat="46.0713" lon="6.77231">
        <ele>1720.1</ele>
        <time>2026-06-26T11:12:37Z</time>
      </trkpt>
      <trkpt lat="46.0713" lon="6.7723">
        <ele>1720</ele>
        <time>2026-06-26T11:12:38Z</time>
      </trkpt>
      <trkpt lat="46.0713" lon="6.7723">
        <ele>1719.8</ele>
        <time>2026-06-26T11:12:39Z</time>
      </trkpt>
      <trkpt lat="46.0713" lon="6.77229">
        <ele>1719.4</ele>
        <time>2026-06-26T11:12:40Z</time>
      </trkpt>
      <trkpt lat="46.07129" lon="6.77228">
        <ele>1719.2</ele>
        <time>2026-06-26T11:12:41Z</time>
      </trkpt>
      <trkpt lat="46.07129" lon="6.77227">
        <ele>1719</ele>
        <time>2026-06-26T11:12:42Z</time>
      </trkpt>
      <trkpt lat="46.07129" lon="6.77225">
        <ele>1718.6</ele>
        <time>2026-06-26T11:12:43Z</time>
      </trkpt>
      <trkpt lat="46.07129" lon="6.77224">
        <ele>1718.3</ele>
        <time>2026-06-26T11:12:44Z</time>
      </trkpt>
      <trkpt lat="46.07129" lon="6.77223">
        <ele>1718</ele>
        <time>2026-06-26T11:12:45Z</time>
      </trkpt>
      <trkpt lat="46.07128" lon="6.77222">
        <ele>1717.8</ele>
        <time>2026-06-26T11:12:46Z</time>
      </trkpt>
      <trkpt lat="46.07128" lon="6.77221">
        <ele>1717.5</ele>
        <time>2026-06-26T11:12:47Z</time>
      </trkpt>
      <trkpt lat="46.07127" lon="6.7722">
        <ele>1717.3</ele>
        <time>2026-06-26T11:12:48Z</time>
      </trkpt>
      <trkpt lat="46.07127" lon="6.77219">
        <ele>1717.1</ele>
        <time>2026-06-26T11:12:49Z</time>
      </trkpt>
      <trkpt lat="46.07126" lon="6.77218">
        <ele>1716.9</ele>
        <time>2026-06-26T11:12:50Z</time>
      </trkpt>
      <trkpt lat="46.07126" lon="6.77217">
        <ele>1716.8</ele>
        <time>2026-06-26T11:12:51Z</time>
      </trkpt>
      <trkpt lat="46.07125" lon="6.77216">
        <ele>1716.5</ele>
        <time>2026-06-26T11:12:52Z</time>
      </trkpt>
      <trkpt lat="46.07125" lon="6.77214">
        <ele>1716.3</ele>
        <time>2026-06-26T11:12:53Z</time>
      </trkpt>
      <trkpt lat="46.07124" lon="6.77213">
        <ele>1716.2</ele>
        <time>2026-06-26T11:12:54Z</time>
      </trkpt>
      <trkpt lat="46.07124" lon="6.77213">
        <ele>1716</ele>
        <time>2026-06-26T11:12:55Z</time>
      </trkpt>
      <trkpt lat="46.07123" lon="6.77212">
        <ele>1715.7</ele>
        <time>2026-06-26T11:12:56Z</time>
      </trkpt>
      <trkpt lat="46.07123" lon="6.77211">
        <ele>1715.5</ele>
        <time>2026-06-26T11:12:57Z</time>
      </trkpt>
      <trkpt lat="46.07123" lon="6.7721">
        <ele>1715.2</ele>
        <time>2026-06-26T11:12:58Z</time>
      </trkpt>
      <trkpt lat="46.07123" lon="6.77209">
        <ele>1715.1</ele>
        <time>2026-06-26T11:12:59Z</time>
      </trkpt>
      <trkpt lat="46.07124" lon="6.77208">
        <ele>1714.9</ele>
        <time>2026-06-26T11:13:00Z</time>
      </trkpt>
      <trkpt lat="46.07124" lon="6.77207">
        <ele>1714.6</ele>
        <time>2026-06-26T11:13:01Z</time>
      </trkpt>
      <trkpt lat="46.07124" lon="6.77206">
        <ele>1714.4</ele>
        <time>2026-06-26T11:13:02Z</time>
      </trkpt>
      <trkpt lat="46.07123" lon="6.77205">
        <ele>1714.2</ele>
        <time>2026-06-26T11:13:03Z</time>
      </trkpt>
      <trkpt lat="46.07123" lon="6.77205">
        <ele>1713.9</ele>
        <time>2026-06-26T11:13:04Z</time>
      </trkpt>
      <trkpt lat="46.07122" lon="6.77205">
        <ele>1713.7</ele>
        <time>2026-06-26T11:13:05Z</time>
      </trkpt>
      <trkpt lat="46.07122" lon="6.77204">
        <ele>1713.5</ele>
        <time>2026-06-26T11:13:06Z</time>
      </trkpt>
      <trkpt lat="46.0712" lon="6.77203">
        <ele>1713.2</ele>
        <time>2026-06-26T11:13:07Z</time>
      </trkpt>
      <trkpt lat="46.07119" lon="6.77203">
        <ele>1713</ele>
        <time>2026-06-26T11:13:08Z</time>
      </trkpt>
      <trkpt lat="46.07118" lon="6.77203">
        <ele>1712.8</ele>
        <time>2026-06-26T11:13:09Z</time>
      </trkpt>
      <trkpt lat="46.07117" lon="6.77203">
        <ele>1712.5</ele>
        <time>2026-06-26T11:13:10Z</time>
      </trkpt>
      <trkpt lat="46.07116" lon="6.77204">
        <ele>1712.4</ele>
        <time>2026-06-26T11:13:11Z</time>
      </trkpt>
      <trkpt lat="46.07115" lon="6.77205">
        <ele>1712.2</ele>
        <time>2026-06-26T11:13:12Z</time>
      </trkpt>
      <trkpt lat="46.07114" lon="6.77206">
        <ele>1712.1</ele>
        <time>2026-06-26T11:13:13Z</time>
      </trkpt>
      <trkpt lat="46.07114" lon="6.77207">
        <ele>1711.8</ele>
        <time>2026-06-26T11:13:14Z</time>
      </trkpt>
      <trkpt lat="46.07113" lon="6.77207">
        <ele>1711.6</ele>
        <time>2026-06-26T11:13:15Z</time>
      </trkpt>
      <trkpt lat="46.07112" lon="6.77207">
        <ele>1711.4</ele>
        <time>2026-06-26T11:13:16Z</time>
      </trkpt>
      <trkpt lat="46.07112" lon="6.77207">
        <ele>1711.3</ele>
        <time>2026-06-26T11:13:17Z</time>
      </trkpt>
      <trkpt lat="46.07111" lon="6.77208">
        <ele>1711.1</ele>
        <time>2026-06-26T11:13:18Z</time>
      </trkpt>
      <trkpt lat="46.0711" lon="6.77208">
        <ele>1711</ele>
        <time>2026-06-26T11:13:19Z</time>
      </trkpt>
      <trkpt lat="46.07109" lon="6.77208">
        <ele>1710.8</ele>
        <time>2026-06-26T11:13:20Z</time>
      </trkpt>
      <trkpt lat="46.07108" lon="6.77208">
        <ele>1710.7</ele>
        <time>2026-06-26T11:13:21Z</time>
      </trkpt>
      <trkpt lat="46.07107" lon="6.77208">
        <ele>1710.5</ele>
        <time>2026-06-26T11:13:22Z</time>
      </trkpt>
      <trkpt lat="46.07106" lon="6.77208">
        <ele>1710.3</ele>
        <time>2026-06-26T11:13:23Z</time>
      </trkpt>
      <trkpt lat="46.07106" lon="6.77209">
        <ele>1710</ele>
        <time>2026-06-26T11:13:24Z</time>
      </trkpt>
      <trkpt lat="46.07105" lon="6.7721">
        <ele>1709.8</ele>
        <time>2026-06-26T11:13:25Z</time>
      </trkpt>
      <trkpt lat="46.07104" lon="6.7721">
        <ele>1709.5</ele>
        <time>2026-06-26T11:13:26Z</time>
      </trkpt>
      <trkpt lat="46.07104" lon="6.7721">
        <ele>1709.3</ele>
        <time>2026-06-26T11:13:27Z</time>
      </trkpt>
      <trkpt lat="46.07104" lon="6.77211">
        <ele>1709.1</ele>
        <time>2026-06-26T11:13:28Z</time>
      </trkpt>
      <trkpt lat="46.07103" lon="6.77212">
        <ele>1708.9</ele>
        <time>2026-06-26T11:13:29Z</time>
      </trkpt>
      <trkpt lat="46.07103" lon="6.77213">
        <ele>1708.7</ele>
        <time>2026-06-26T11:13:30Z</time>
      </trkpt>
      <trkpt lat="46.07102" lon="6.77214">
        <ele>1708.6</ele>
        <time>2026-06-26T11:13:31Z</time>
      </trkpt>
      <trkpt lat="46.07101" lon="6.77215">
        <ele>1708.3</ele>
        <time>2026-06-26T11:13:32Z</time>
      </trkpt>
      <trkpt lat="46.07101" lon="6.77216">
        <ele>1708.1</ele>
        <time>2026-06-26T11:13:33Z</time>
      </trkpt>
      <trkpt lat="46.071" lon="6.77217">
        <ele>1707.9</ele>
        <time>2026-06-26T11:13:34Z</time>
      </trkpt>
      <trkpt lat="46.07099" lon="6.77218">
        <ele>1707.6</ele>
        <time>2026-06-26T11:13:35Z</time>
      </trkpt>
      <trkpt lat="46.07099" lon="6.77219">
        <ele>1707.4</ele>
        <time>2026-06-26T11:13:36Z</time>
      </trkpt>
      <trkpt lat="46.07098" lon="6.7722">
        <ele>1707.2</ele>
        <time>2026-06-26T11:13:37Z</time>
      </trkpt>
      <trkpt lat="46.07098" lon="6.77221">
        <ele>1707</ele>
        <time>2026-06-26T11:13:38Z</time>
      </trkpt>
      <trkpt lat="46.07097" lon="6.77221">
        <ele>1706.7</ele>
        <time>2026-06-26T11:13:39Z</time>
      </trkpt>
      <trkpt lat="46.07097" lon="6.77222">
        <ele>1706.4</ele>
        <time>2026-06-26T11:13:40Z</time>
      </trkpt>
      <trkpt lat="46.07097" lon="6.77222">
        <ele>1706.2</ele>
        <time>2026-06-26T11:13:41Z</time>
      </trkpt>
      <trkpt lat="46.07096" lon="6.77222">
        <ele>1706.1</ele>
        <time>2026-06-26T11:13:42Z</time>
      </trkpt>
      <trkpt lat="46.07095" lon="6.77223">
        <ele>1706</ele>
        <time>2026-06-26T11:13:43Z</time>
      </trkpt>
      <trkpt lat="46.07094" lon="6.77224">
        <ele>1705.8</ele>
        <time>2026-06-26T11:13:44Z</time>
      </trkpt>
      <trkpt lat="46.07094" lon="6.77226">
        <ele>1705.7</ele>
        <time>2026-06-26T11:13:45Z</time>
      </trkpt>
      <trkpt lat="46.07093" lon="6.77227">
        <ele>1705.6</ele>
        <time>2026-06-26T11:13:46Z</time>
      </trkpt>
      <trkpt lat="46.07093" lon="6.77229">
        <ele>1705.6</ele>
        <time>2026-06-26T11:13:47Z</time>
      </trkpt>
      <trkpt lat="46.07092" lon="6.7723">
        <ele>1705.5</ele>
        <time>2026-06-26T11:13:48Z</time>
      </trkpt>
      <trkpt lat="46.07091" lon="6.77231">
        <ele>1705.3</ele>
        <time>2026-06-26T11:13:49Z</time>
      </trkpt>
      <trkpt lat="46.07091" lon="6.77232">
        <ele>1705.2</ele>
        <time>2026-06-26T11:13:50Z</time>
      </trkpt>
      <trkpt lat="46.0709" lon="6.77233">
        <ele>1705.2</ele>
        <time>2026-06-26T11:13:51Z</time>
      </trkpt>
      <trkpt lat="46.07089" lon="6.77235">
        <ele>1705</ele>
        <time>2026-06-26T11:13:52Z</time>
      </trkpt>
      <trkpt lat="46.07089" lon="6.77236">
        <ele>1704.9</ele>
        <time>2026-06-26T11:13:53Z</time>
      </trkpt>
      <trkpt lat="46.07088" lon="6.77238">
        <ele>1704.8</ele>
        <time>2026-06-26T11:13:54Z</time>
      </trkpt>
      <trkpt lat="46.07087" lon="6.7724">
        <ele>1704.7</ele>
        <time>2026-06-26T11:13:55Z</time>
      </trkpt>
      <trkpt lat="46.07087" lon="6.77241">
        <ele>1704.5</ele>
        <time>2026-06-26T11:13:56Z</time>
      </trkpt>
      <trkpt lat="46.07087" lon="6.77243">
        <ele>1704.4</ele>
        <time>2026-06-26T11:13:57Z</time>
      </trkpt>
      <trkpt lat="46.07086" lon="6.77245">
        <ele>1704.4</ele>
        <time>2026-06-26T11:13:58Z</time>
      </trkpt>
      <trkpt lat="46.07086" lon="6.77247">
        <ele>1704.3</ele>
        <time>2026-06-26T11:13:59Z</time>
      </trkpt>
      <trkpt lat="46.07086" lon="6.77249">
        <ele>1704.1</ele>
        <time>2026-06-26T11:14:00Z</time>
      </trkpt>
      <trkpt lat="46.07085" lon="6.77251">
        <ele>1703.9</ele>
        <time>2026-06-26T11:14:01Z</time>
      </trkpt>
      <trkpt lat="46.07084" lon="6.77252">
        <ele>1703.8</ele>
        <time>2026-06-26T11:14:02Z</time>
      </trkpt>
      <trkpt lat="46.07084" lon="6.77254">
        <ele>1703.7</ele>
        <time>2026-06-26T11:14:03Z</time>
      </trkpt>
      <trkpt lat="46.07083" lon="6.77255">
        <ele>1703.5</ele>
        <time>2026-06-26T11:14:04Z</time>
      </trkpt>
      <trkpt lat="46.07082" lon="6.77255">
        <ele>1703.4</ele>
        <time>2026-06-26T11:14:05Z</time>
      </trkpt>
      <trkpt lat="46.07081" lon="6.77256">
        <ele>1703.2</ele>
        <time>2026-06-26T11:14:06Z</time>
      </trkpt>
      <trkpt lat="46.07081" lon="6.77257">
        <ele>1703</ele>
        <time>2026-06-26T11:14:07Z</time>
      </trkpt>
      <trkpt lat="46.0708" lon="6.77258">
        <ele>1702.9</ele>
        <time>2026-06-26T11:14:08Z</time>
      </trkpt>
      <trkpt lat="46.07079" lon="6.77259">
        <ele>1702.8</ele>
        <time>2026-06-26T11:14:09Z</time>
      </trkpt>
      <trkpt lat="46.07079" lon="6.7726">
        <ele>1702.5</ele>
        <time>2026-06-26T11:14:10Z</time>
      </trkpt>
      <trkpt lat="46.07079" lon="6.77262">
        <ele>1702.3</ele>
        <time>2026-06-26T11:14:11Z</time>
      </trkpt>
      <trkpt lat="46.07078" lon="6.77263">
        <ele>1702.2</ele>
        <time>2026-06-26T11:14:12Z</time>
      </trkpt>
      <trkpt lat="46.07078" lon="6.77265">
        <ele>1702</ele>
        <time>2026-06-26T11:14:13Z</time>
      </trkpt>
      <trkpt lat="46.07077" lon="6.77266">
        <ele>1701.7</ele>
        <time>2026-06-26T11:14:14Z</time>
      </trkpt>
      <trkpt lat="46.07076" lon="6.77268">
        <ele>1701.4</ele>
        <time>2026-06-26T11:14:15Z</time>
      </trkpt>
      <trkpt lat="46.07075" lon="6.77269">
        <ele>1701.3</ele>
        <time>2026-06-26T11:14:16Z</time>
      </trkpt>
      <trkpt lat="46.07075" lon="6.77271">
        <ele>1701.2</ele>
        <time>2026-06-26T11:14:17Z</time>
      </trkpt>
      <trkpt lat="46.07074" lon="6.77272">
        <ele>1701.1</ele>
        <time>2026-06-26T11:14:18Z</time>
      </trkpt>
      <trkpt lat="46.07073" lon="6.77273">
        <ele>1700.8</ele>
        <time>2026-06-26T11:14:19Z</time>
      </trkpt>
      <trkpt lat="46.07072" lon="6.77274">
        <ele>1700.6</ele>
        <time>2026-06-26T11:14:20Z</time>
      </trkpt>
      <trkpt lat="46.07072" lon="6.77275">
        <ele>1700.4</ele>
        <time>2026-06-26T11:14:21Z</time>
      </trkpt>
      <trkpt lat="46.07071" lon="6.77276">
        <ele>1700.3</ele>
        <time>2026-06-26T11:14:22Z</time>
      </trkpt>
      <trkpt lat="46.0707" lon="6.77276">
        <ele>1700</ele>
        <time>2026-06-26T11:14:23Z</time>
      </trkpt>
      <trkpt lat="46.07069" lon="6.77277">
        <ele>1699.9</ele>
        <time>2026-06-26T11:14:24Z</time>
      </trkpt>
      <trkpt lat="46.07068" lon="6.77277">
        <ele>1699.7</ele>
        <time>2026-06-26T11:14:25Z</time>
      </trkpt>
      <trkpt lat="46.07067" lon="6.77278">
        <ele>1699.5</ele>
        <time>2026-06-26T11:14:26Z</time>
      </trkpt>
      <trkpt lat="46.07065" lon="6.77279">
        <ele>1699.3</ele>
        <time>2026-06-26T11:14:27Z</time>
      </trkpt>
      <trkpt lat="46.07064" lon="6.77279">
        <ele>1699.1</ele>
        <time>2026-06-26T11:14:28Z</time>
      </trkpt>
      <trkpt lat="46.07063" lon="6.7728">
        <ele>1699</ele>
        <time>2026-06-26T11:14:29Z</time>
      </trkpt>
      <trkpt lat="46.07062" lon="6.7728">
        <ele>1698.9</ele>
        <time>2026-06-26T11:14:30Z</time>
      </trkpt>
      <trkpt lat="46.07061" lon="6.77281">
        <ele>1698.9</ele>
        <time>2026-06-26T11:14:31Z</time>
      </trkpt>
      <trkpt lat="46.07059" lon="6.77281">
        <ele>1698.8</ele>
        <time>2026-06-26T11:14:32Z</time>
      </trkpt>
      <trkpt lat="46.07058" lon="6.77281">
        <ele>1698.8</ele>
        <time>2026-06-26T11:14:33Z</time>
      </trkpt>
      <trkpt lat="46.07057" lon="6.77281">
        <ele>1699</ele>
        <time>2026-06-26T11:14:34Z</time>
      </trkpt>
      <trkpt lat="46.07056" lon="6.77281">
        <ele>1699</ele>
        <time>2026-06-26T11:14:35Z</time>
      </trkpt>
      <trkpt lat="46.07055" lon="6.77281">
        <ele>1699</ele>
        <time>2026-06-26T11:14:36Z</time>
      </trkpt>
      <trkpt lat="46.07054" lon="6.77281">
        <ele>1698.8</ele>
        <time>2026-06-26T11:14:37Z</time>
      </trkpt>
      <trkpt lat="46.07054" lon="6.77281">
        <ele>1698.8</ele>
        <time>2026-06-26T11:14:38Z</time>
      </trkpt>
      <trkpt lat="46.07053" lon="6.7728">
        <ele>1698.8</ele>
        <time>2026-06-26T11:14:39Z</time>
      </trkpt>
      <trkpt lat="46.07052" lon="6.7728">
        <ele>1698.9</ele>
        <time>2026-06-26T11:14:40Z</time>
      </trkpt>
      <trkpt lat="46.07052" lon="6.77279">
        <ele>1699</ele>
        <time>2026-06-26T11:14:41Z</time>
      </trkpt>
      <trkpt lat="46.07051" lon="6.77279">
        <ele>1699</ele>
        <time>2026-06-26T11:14:42Z</time>
      </trkpt>
      <trkpt lat="46.0705" lon="6.77279">
        <ele>1699.1</ele>
        <time>2026-06-26T11:14:43Z</time>
      </trkpt>
      <trkpt lat="46.0705" lon="6.77279">
        <ele>1699.1</ele>
        <time>2026-06-26T11:14:44Z</time>
      </trkpt>
      <trkpt lat="46.07049" lon="6.77279">
        <ele>1699.1</ele>
        <time>2026-06-26T11:14:45Z</time>
      </trkpt>
      <trkpt lat="46.07049" lon="6.7728">
        <ele>1699.1</ele>
        <time>2026-06-26T11:14:46Z</time>
      </trkpt>
      <trkpt lat="46.07049" lon="6.7728">
        <ele>1699.1</ele>
        <time>2026-06-26T11:14:47Z</time>
      </trkpt>
      <trkpt lat="46.07049" lon="6.7728">
        <ele>1699.1</ele>
        <time>2026-06-26T11:14:48Z</time>
      </trkpt>
      <trkpt lat="46.07048" lon="6.7728">
        <ele>1699</ele>
        <time>2026-06-26T11:14:49Z</time>
      </trkpt>
      <trkpt lat="46.07048" lon="6.77281">
        <ele>1698.9</ele>
        <time>2026-06-26T11:14:50Z</time>
      </trkpt>
      <trkpt lat="46.07047" lon="6.77281">
        <ele>1698.8</ele>
        <time>2026-06-26T11:14:51Z</time>
      </trkpt>
      <trkpt lat="46.07047" lon="6.77282">
        <ele>1698.8</ele>
        <time>2026-06-26T11:14:52Z</time>
      </trkpt>
      <trkpt lat="46.07047" lon="6.77282">
        <ele>1698.8</ele>
        <time>2026-06-26T11:14:53Z</time>
      </trkpt>
      <trkpt lat="46.07047" lon="6.77283">
        <ele>1698.7</ele>
        <time>2026-06-26T11:14:54Z</time>
      </trkpt>
      <trkpt lat="46.07046" lon="6.77283">
        <ele>1698.7</ele>
        <time>2026-06-26T11:14:55Z</time>
      </trkpt>
      <trkpt lat="46.07045" lon="6.77284">
        <ele>1698.6</ele>
        <time>2026-06-26T11:14:56Z</time>
      </trkpt>
      <trkpt lat="46.07044" lon="6.77284">
        <ele>1698.5</ele>
        <time>2026-06-26T11:14:57Z</time>
      </trkpt>
      <trkpt lat="46.07043" lon="6.77284">
        <ele>1698.4</ele>
        <time>2026-06-26T11:14:58Z</time>
      </trkpt>
      <trkpt lat="46.07042" lon="6.77285">
        <ele>1698.3</ele>
        <time>2026-06-26T11:14:59Z</time>
      </trkpt>
      <trkpt lat="46.07041" lon="6.77286">
        <ele>1698.1</ele>
        <time>2026-06-26T11:15:00Z</time>
      </trkpt>
      <trkpt lat="46.07041" lon="6.77286">
        <ele>1698</ele>
        <time>2026-06-26T11:15:01Z</time>
      </trkpt>
      <trkpt lat="46.0704" lon="6.77286">
        <ele>1697.9</ele>
        <time>2026-06-26T11:15:02Z</time>
      </trkpt>
      <trkpt lat="46.07039" lon="6.77286">
        <ele>1697.7</ele>
        <time>2026-06-26T11:15:03Z</time>
      </trkpt>
      <trkpt lat="46.07038" lon="6.77286">
        <ele>1697.6</ele>
        <time>2026-06-26T11:15:04Z</time>
      </trkpt>
      <trkpt lat="46.07037" lon="6.77286">
        <ele>1697.2</ele>
        <time>2026-06-26T11:15:05Z</time>
      </trkpt>
      <trkpt lat="46.07036" lon="6.77286">
        <ele>1696.9</ele>
        <time>2026-06-26T11:15:06Z</time>
      </trkpt>
      <trkpt lat="46.07036" lon="6.77287">
        <ele>1696.5</ele>
        <time>2026-06-26T11:15:07Z</time>
      </trkpt>
      <trkpt lat="46.07035" lon="6.77287">
        <ele>1696.2</ele>
        <time>2026-06-26T11:15:08Z</time>
      </trkpt>
      <trkpt lat="46.07035" lon="6.77287">
        <ele>1696</ele>
        <time>2026-06-26T11:15:09Z</time>
      </trkpt>
      <trkpt lat="46.07034" lon="6.77287">
        <ele>1695.8</ele>
        <time>2026-06-26T11:15:10Z</time>
      </trkpt>
      <trkpt lat="46.07034" lon="6.77287">
        <ele>1695.8</ele>
        <time>2026-06-26T11:15:11Z</time>
      </trkpt>
      <trkpt lat="46.07034" lon="6.77287">
        <ele>1695.7</ele>
        <time>2026-06-26T11:15:12Z</time>
      </trkpt>
      <trkpt lat="46.07034" lon="6.77287">
        <ele>1695.6</ele>
        <time>2026-06-26T11:15:13Z</time>
      </trkpt>
      <trkpt lat="46.07034" lon="6.77287">
        <ele>1695.5</ele>
        <time>2026-06-26T11:15:14Z</time>
      </trkpt>
      <trkpt lat="46.07034" lon="6.77287">
        <ele>1695.4</ele>
        <time>2026-06-26T11:15:15Z</time>
      </trkpt>
      <trkpt lat="46.07033" lon="6.77287">
        <ele>1695.5</ele>
        <time>2026-06-26T11:15:16Z</time>
      </trkpt>
      <trkpt lat="46.07034" lon="6.77287">
        <ele>1695.5</ele>
        <time>2026-06-26T11:15:17Z</time>
      </trkpt>
      <trkpt lat="46.07034" lon="6.77287">
        <ele>1695.6</ele>
        <time>2026-06-26T11:15:18Z</time>
      </trkpt>
      <trkpt lat="46.07034" lon="6.77287">
        <ele>1695.6</ele>
        <time>2026-06-26T11:15:19Z</time>
      </trkpt>
      <trkpt lat="46.07034" lon="6.77288">
        <ele>1695.6</ele>
        <time>2026-06-26T11:15:20Z</time>
      </trkpt>
      <trkpt lat="46.07034" lon="6.77288">
        <ele>1695.6</ele>
        <time>2026-06-26T11:15:21Z</time>
      </trkpt>
      <trkpt lat="46.07034" lon="6.77288">
        <ele>1695.5</ele>
        <time>2026-06-26T11:15:22Z</time>
      </trkpt>
      <trkpt lat="46.07034" lon="6.77288">
        <ele>1695.4</ele>
        <time>2026-06-26T11:15:23Z</time>
      </trkpt>
      <trkpt lat="46.07033" lon="6.77288">
        <ele>1695.4</ele>
        <time>2026-06-26T11:15:24Z</time>
      </trkpt>
      <trkpt lat="46.07033" lon="6.77289">
        <ele>1695.4</ele>
        <time>2026-06-26T11:15:25Z</time>
      </trkpt>
      <trkpt lat="46.07033" lon="6.77288">
        <ele>1695.5</ele>
        <time>2026-06-26T11:15:26Z</time>
      </trkpt>
      <trkpt lat="46.07032" lon="6.77289">
        <ele>1695.4</ele>
        <time>2026-06-26T11:15:27Z</time>
      </trkpt>
      <trkpt lat="46.07032" lon="6.77289">
        <ele>1695.3</ele>
        <time>2026-06-26T11:15:28Z</time>
      </trkpt>
      <trkpt lat="46.07032" lon="6.77289">
        <ele>1695.2</ele>
        <time>2026-06-26T11:15:29Z</time>
      </trkpt>
      <trkpt lat="46.07031" lon="6.77288">
        <ele>1695.1</ele>
        <time>2026-06-26T11:15:30Z</time>
      </trkpt>
      <trkpt lat="46.07031" lon="6.77286">
        <ele>1695</ele>
        <time>2026-06-26T11:15:31Z</time>
      </trkpt>
      <trkpt lat="46.07031" lon="6.77285">
        <ele>1694.8</ele>
        <time>2026-06-26T11:15:32Z</time>
      </trkpt>
      <trkpt lat="46.07031" lon="6.77285">
        <ele>1694.7</ele>
        <time>2026-06-26T11:15:33Z</time>
      </trkpt>
      <trkpt lat="46.07031" lon="6.77284">
        <ele>1694.5</ele>
        <time>2026-06-26T11:15:34Z</time>
      </trkpt>
      <trkpt lat="46.0703" lon="6.77283">
        <ele>1694.4</ele>
        <time>2026-06-26T11:15:35Z</time>
      </trkpt>
      <trkpt lat="46.0703" lon="6.77282">
        <ele>1694.3</ele>
        <time>2026-06-26T11:15:36Z</time>
      </trkpt>
      <trkpt lat="46.0703" lon="6.77281">
        <ele>1694.1</ele>
        <time>2026-06-26T11:15:37Z</time>
      </trkpt>
      <trkpt lat="46.0703" lon="6.7728">
        <ele>1693.8</ele>
        <time>2026-06-26T11:15:38Z</time>
      </trkpt>
      <trkpt lat="46.0703" lon="6.77279">
        <ele>1693.5</ele>
        <time>2026-06-26T11:15:39Z</time>
      </trkpt>
      <trkpt lat="46.07029" lon="6.77278">
        <ele>1693.2</ele>
        <time>2026-06-26T11:15:40Z</time>
      </trkpt>
      <trkpt lat="46.0703" lon="6.77276">
        <ele>1692.7</ele>
        <time>2026-06-26T11:15:41Z</time>
      </trkpt>
      <trkpt lat="46.0703" lon="6.77276">
        <ele>1692.4</ele>
        <time>2026-06-26T11:15:42Z</time>
      </trkpt>
      <trkpt lat="46.07031" lon="6.77275">
        <ele>1692.2</ele>
        <time>2026-06-26T11:15:43Z</time>
      </trkpt>
      <trkpt lat="46.07031" lon="6.77274">
        <ele>1691.9</ele>
        <time>2026-06-26T11:15:44Z</time>
      </trkpt>
      <trkpt lat="46.07032" lon="6.77273">
        <ele>1691.8</ele>
        <time>2026-06-26T11:15:45Z</time>
      </trkpt>
      <trkpt lat="46.07033" lon="6.77272">
        <ele>1691.6</ele>
        <time>2026-06-26T11:15:46Z</time>
      </trkpt>
      <trkpt lat="46.07034" lon="6.77271">
        <ele>1691.4</ele>
        <time>2026-06-26T11:15:47Z</time>
      </trkpt>
      <trkpt lat="46.07034" lon="6.77269">
        <ele>1691.2</ele>
        <time>2026-06-26T11:15:48Z</time>
      </trkpt>
      <trkpt lat="46.07035" lon="6.77268">
        <ele>1691</ele>
        <time>2026-06-26T11:15:49Z</time>
      </trkpt>
      <trkpt lat="46.07035" lon="6.77266">
        <ele>1690.8</ele>
        <time>2026-06-26T11:15:50Z</time>
      </trkpt>
      <trkpt lat="46.07036" lon="6.77265">
        <ele>1690.6</ele>
        <time>2026-06-26T11:15:51Z</time>
      </trkpt>
      <trkpt lat="46.07037" lon="6.77264">
        <ele>1690.5</ele>
        <time>2026-06-26T11:15:52Z</time>
      </trkpt>
      <trkpt lat="46.07038" lon="6.77263">
        <ele>1690.3</ele>
        <time>2026-06-26T11:15:53Z</time>
      </trkpt>
      <trkpt lat="46.07039" lon="6.77262">
        <ele>1690.2</ele>
        <time>2026-06-26T11:15:54Z</time>
      </trkpt>
      <trkpt lat="46.07039" lon="6.7726">
        <ele>1690.1</ele>
        <time>2026-06-26T11:15:55Z</time>
      </trkpt>
      <trkpt lat="46.0704" lon="6.77259">
        <ele>1690.1</ele>
        <time>2026-06-26T11:15:56Z</time>
      </trkpt>
      <trkpt lat="46.0704" lon="6.77258">
        <ele>1690</ele>
        <time>2026-06-26T11:15:57Z</time>
      </trkpt>
      <trkpt lat="46.0704" lon="6.77257">
        <ele>1689.9</ele>
        <time>2026-06-26T11:15:58Z</time>
      </trkpt>
      <trkpt lat="46.0704" lon="6.77256">
        <ele>1689.8</ele>
        <time>2026-06-26T11:15:59Z</time>
      </trkpt>
      <trkpt lat="46.0704" lon="6.77256">
        <ele>1689.7</ele>
        <time>2026-06-26T11:16:00Z</time>
      </trkpt>
      <trkpt lat="46.07041" lon="6.77255">
        <ele>1689.7</ele>
        <time>2026-06-26T11:16:01Z</time>
      </trkpt>
      <trkpt lat="46.07041" lon="6.77255">
        <ele>1689.6</ele>
        <time>2026-06-26T11:16:02Z</time>
      </trkpt>
      <trkpt lat="46.07041" lon="6.77255">
        <ele>1689.5</ele>
        <time>2026-06-26T11:16:03Z</time>
      </trkpt>
      <trkpt lat="46.07041" lon="6.77255">
        <ele>1689.5</ele>
        <time>2026-06-26T11:16:04Z</time>
      </trkpt>
      <trkpt lat="46.07041" lon="6.77255">
        <ele>1689.4</ele>
        <time>2026-06-26T11:16:05Z</time>
      </trkpt>
      <trkpt lat="46.07041" lon="6.77256">
        <ele>1689.3</ele>
        <time>2026-06-26T11:16:06Z</time>
      </trkpt>
      <trkpt lat="46.07041" lon="6.77256">
        <ele>1689.3</ele>
        <time>2026-06-26T11:16:07Z</time>
      </trkpt>
      <trkpt lat="46.07041" lon="6.77255">
        <ele>1689.2</ele>
        <time>2026-06-26T11:16:08Z</time>
      </trkpt>
      <trkpt lat="46.07041" lon="6.77254">
        <ele>1689.2</ele>
        <time>2026-06-26T11:16:09Z</time>
      </trkpt>
      <trkpt lat="46.07041" lon="6.77253">
        <ele>1689.2</ele>
        <time>2026-06-26T11:16:10Z</time>
      </trkpt>
      <trkpt lat="46.07041" lon="6.77253">
        <ele>1688.9</ele>
        <time>2026-06-26T11:16:11Z</time>
      </trkpt>
      <trkpt lat="46.07041" lon="6.77252">
        <ele>1688.8</ele>
        <time>2026-06-26T11:16:12Z</time>
      </trkpt>
      <trkpt lat="46.07041" lon="6.77251">
        <ele>1688.7</ele>
        <time>2026-06-26T11:16:13Z</time>
      </trkpt>
      <trkpt lat="46.07041" lon="6.77251">
        <ele>1688.7</ele>
        <time>2026-06-26T11:16:14Z</time>
      </trkpt>
      <trkpt lat="46.07041" lon="6.7725">
        <ele>1688.5</ele>
        <time>2026-06-26T11:16:15Z</time>
      </trkpt>
      <trkpt lat="46.07042" lon="6.77249">
        <ele>1688.4</ele>
        <time>2026-06-26T11:16:16Z</time>
      </trkpt>
      <trkpt lat="46.07042" lon="6.77248">
        <ele>1688.1</ele>
        <time>2026-06-26T11:16:17Z</time>
      </trkpt>
      <trkpt lat="46.07042" lon="6.77247">
        <ele>1687.9</ele>
        <time>2026-06-26T11:16:18Z</time>
      </trkpt>
      <trkpt lat="46.07042" lon="6.77246">
        <ele>1687.8</ele>
        <time>2026-06-26T11:16:19Z</time>
      </trkpt>
      <trkpt lat="46.07042" lon="6.77245">
        <ele>1687.7</ele>
        <time>2026-06-26T11:16:20Z</time>
      </trkpt>
      <trkpt lat="46.07042" lon="6.77244">
        <ele>1687.4</ele>
        <time>2026-06-26T11:16:21Z</time>
      </trkpt>
      <trkpt lat="46.07042" lon="6.77244">
        <ele>1687.3</ele>
        <time>2026-06-26T11:16:22Z</time>
      </trkpt>
      <trkpt lat="46.07041" lon="6.77245">
        <ele>1687</ele>
        <time>2026-06-26T11:16:23Z</time>
      </trkpt>
      <trkpt lat="46.0704" lon="6.77245">
        <ele>1686.9</ele>
        <time>2026-06-26T11:16:24Z</time>
      </trkpt>
      <trkpt lat="46.0704" lon="6.77246">
        <ele>1686.7</ele>
        <time>2026-06-26T11:16:25Z</time>
      </trkpt>
      <trkpt lat="46.07039" lon="6.77246">
        <ele>1686.2</ele>
        <time>2026-06-26T11:16:26Z</time>
      </trkpt>
      <trkpt lat="46.07039" lon="6.77245">
        <ele>1685.9</ele>
        <time>2026-06-26T11:16:27Z</time>
      </trkpt>
      <trkpt lat="46.07039" lon="6.77244">
        <ele>1685.6</ele>
        <time>2026-06-26T11:16:28Z</time>
      </trkpt>
      <trkpt lat="46.07039" lon="6.77243">
        <ele>1685.4</ele>
        <time>2026-06-26T11:16:29Z</time>
      </trkpt>
      <trkpt lat="46.07039" lon="6.77242">
        <ele>1685.2</ele>
        <time>2026-06-26T11:16:30Z</time>
      </trkpt>
      <trkpt lat="46.0704" lon="6.77241">
        <ele>1684.8</ele>
        <time>2026-06-26T11:16:31Z</time>
      </trkpt>
      <trkpt lat="46.0704" lon="6.77241">
        <ele>1684.6</ele>
        <time>2026-06-26T11:16:32Z</time>
      </trkpt>
      <trkpt lat="46.0704" lon="6.7724">
        <ele>1684.4</ele>
        <time>2026-06-26T11:16:33Z</time>
      </trkpt>
      <trkpt lat="46.0704" lon="6.77239">
        <ele>1684.3</ele>
        <time>2026-06-26T11:16:34Z</time>
      </trkpt>
      <trkpt lat="46.07039" lon="6.77238">
        <ele>1684</ele>
        <time>2026-06-26T11:16:35Z</time>
      </trkpt>
      <trkpt lat="46.07038" lon="6.77238">
        <ele>1683.8</ele>
        <time>2026-06-26T11:16:36Z</time>
      </trkpt>
      <trkpt lat="46.07038" lon="6.77238">
        <ele>1683.6</ele>
        <time>2026-06-26T11:16:37Z</time>
      </trkpt>
      <trkpt lat="46.07037" lon="6.77239">
        <ele>1683.5</ele>
        <time>2026-06-26T11:16:38Z</time>
      </trkpt>
      <trkpt lat="46.07037" lon="6.7724">
        <ele>1683.3</ele>
        <time>2026-06-26T11:16:39Z</time>
      </trkpt>
      <trkpt lat="46.07037" lon="6.7724">
        <ele>1683.1</ele>
        <time>2026-06-26T11:16:40Z</time>
      </trkpt>
      <trkpt lat="46.07037" lon="6.7724">
        <ele>1682.9</ele>
        <time>2026-06-26T11:16:41Z</time>
      </trkpt>
      <trkpt lat="46.07036" lon="6.7724">
        <ele>1682.7</ele>
        <time>2026-06-26T11:16:42Z</time>
      </trkpt>
      <trkpt lat="46.07036" lon="6.77239">
        <ele>1682.5</ele>
        <time>2026-06-26T11:16:43Z</time>
      </trkpt>
      <trkpt lat="46.07035" lon="6.77239">
        <ele>1682.3</ele>
        <time>2026-06-26T11:16:44Z</time>
      </trkpt>
      <trkpt lat="46.07035" lon="6.77238">
        <ele>1682.1</ele>
        <time>2026-06-26T11:16:45Z</time>
      </trkpt>
      <trkpt lat="46.07035" lon="6.77237">
        <ele>1681.8</ele>
        <time>2026-06-26T11:16:46Z</time>
      </trkpt>
      <trkpt lat="46.07035" lon="6.77236">
        <ele>1681.5</ele>
        <time>2026-06-26T11:16:47Z</time>
      </trkpt>
      <trkpt lat="46.07035" lon="6.77235">
        <ele>1681.3</ele>
        <time>2026-06-26T11:16:48Z</time>
      </trkpt>
      <trkpt lat="46.07035" lon="6.77234">
        <ele>1681.1</ele>
        <time>2026-06-26T11:16:49Z</time>
      </trkpt>
      <trkpt lat="46.07035" lon="6.77233">
        <ele>1680.9</ele>
        <time>2026-06-26T11:16:50Z</time>
      </trkpt>
      <trkpt lat="46.07034" lon="6.77232">
        <ele>1680.8</ele>
        <time>2026-06-26T11:16:51Z</time>
      </trkpt>
      <trkpt lat="46.07033" lon="6.77231">
        <ele>1680.5</ele>
        <time>2026-06-26T11:16:52Z</time>
      </trkpt>
      <trkpt lat="46.07033" lon="6.77231">
        <ele>1680.2</ele>
        <time>2026-06-26T11:16:53Z</time>
      </trkpt>
      <trkpt lat="46.07031" lon="6.7723">
        <ele>1679.9</ele>
        <time>2026-06-26T11:16:54Z</time>
      </trkpt>
      <trkpt lat="46.07031" lon="6.77231">
        <ele>1679.7</ele>
        <time>2026-06-26T11:16:55Z</time>
      </trkpt>
      <trkpt lat="46.0703" lon="6.77231">
        <ele>1679.5</ele>
        <time>2026-06-26T11:16:56Z</time>
      </trkpt>
      <trkpt lat="46.07029" lon="6.77232">
        <ele>1679.4</ele>
        <time>2026-06-26T11:16:57Z</time>
      </trkpt>
      <trkpt lat="46.07029" lon="6.77232">
        <ele>1679.2</ele>
        <time>2026-06-26T11:16:58Z</time>
      </trkpt>
      <trkpt lat="46.07028" lon="6.77232">
        <ele>1679</ele>
        <time>2026-06-26T11:16:59Z</time>
      </trkpt>
      <trkpt lat="46.07027" lon="6.77232">
        <ele>1678.8</ele>
        <time>2026-06-26T11:17:00Z</time>
      </trkpt>
      <trkpt lat="46.07026" lon="6.77232">
        <ele>1678.6</ele>
        <time>2026-06-26T11:17:01Z</time>
      </trkpt>
      <trkpt lat="46.07025" lon="6.77232">
        <ele>1678.4</ele>
        <time>2026-06-26T11:17:02Z</time>
      </trkpt>
      <trkpt lat="46.07025" lon="6.77232">
        <ele>1678.2</ele>
        <time>2026-06-26T11:17:03Z</time>
      </trkpt>
      <trkpt lat="46.07024" lon="6.77232">
        <ele>1678</ele>
        <time>2026-06-26T11:17:04Z</time>
      </trkpt>
      <trkpt lat="46.07023" lon="6.77232">
        <ele>1677.7</ele>
        <time>2026-06-26T11:17:05Z</time>
      </trkpt>
      <trkpt lat="46.07023" lon="6.77232">
        <ele>1677.5</ele>
        <time>2026-06-26T11:17:06Z</time>
      </trkpt>
      <trkpt lat="46.07022" lon="6.77232">
        <ele>1677.3</ele>
        <time>2026-06-26T11:17:07Z</time>
      </trkpt>
      <trkpt lat="46.07022" lon="6.77232">
        <ele>1677.1</ele>
        <time>2026-06-26T11:17:08Z</time>
      </trkpt>
      <trkpt lat="46.07021" lon="6.77232">
        <ele>1676.9</ele>
        <time>2026-06-26T11:17:09Z</time>
      </trkpt>
      <trkpt lat="46.0702" lon="6.77232">
        <ele>1676.7</ele>
        <time>2026-06-26T11:17:10Z</time>
      </trkpt>
      <trkpt lat="46.07019" lon="6.77232">
        <ele>1676.4</ele>
        <time>2026-06-26T11:17:11Z</time>
      </trkpt>
      <trkpt lat="46.07018" lon="6.77232">
        <ele>1676.2</ele>
        <time>2026-06-26T11:17:12Z</time>
      </trkpt>
      <trkpt lat="46.07018" lon="6.77232">
        <ele>1676</ele>
        <time>2026-06-26T11:17:13Z</time>
      </trkpt>
      <trkpt lat="46.07018" lon="6.77232">
        <ele>1675.9</ele>
        <time>2026-06-26T11:17:14Z</time>
      </trkpt>
      <trkpt lat="46.07017" lon="6.77232">
        <ele>1675.7</ele>
        <time>2026-06-26T11:17:15Z</time>
      </trkpt>
      <trkpt lat="46.07017" lon="6.77232">
        <ele>1675.5</ele>
        <time>2026-06-26T11:17:16Z</time>
      </trkpt>
      <trkpt lat="46.07017" lon="6.77232">
        <ele>1675.3</ele>
        <time>2026-06-26T11:17:17Z</time>
      </trkpt>
      <trkpt lat="46.07016" lon="6.77232">
        <ele>1675.2</ele>
        <time>2026-06-26T11:17:18Z</time>
      </trkpt>
      <trkpt lat="46.07016" lon="6.77232">
        <ele>1675</ele>
        <time>2026-06-26T11:17:19Z</time>
      </trkpt>
      <trkpt lat="46.07015" lon="6.77232">
        <ele>1674.9</ele>
        <time>2026-06-26T11:17:20Z</time>
      </trkpt>
      <trkpt lat="46.07014" lon="6.77232">
        <ele>1674.8</ele>
        <time>2026-06-26T11:17:21Z</time>
      </trkpt>
      <trkpt lat="46.07013" lon="6.77232">
        <ele>1674.6</ele>
        <time>2026-06-26T11:17:22Z</time>
      </trkpt>
      <trkpt lat="46.07013" lon="6.77232">
        <ele>1674.5</ele>
        <time>2026-06-26T11:17:23Z</time>
      </trkpt>
      <trkpt lat="46.07012" lon="6.77232">
        <ele>1674.2</ele>
        <time>2026-06-26T11:17:24Z</time>
      </trkpt>
      <trkpt lat="46.07012" lon="6.77232">
        <ele>1674</ele>
        <time>2026-06-26T11:17:25Z</time>
      </trkpt>
      <trkpt lat="46.07011" lon="6.77231">
        <ele>1673.8</ele>
        <time>2026-06-26T11:17:26Z</time>
      </trkpt>
      <trkpt lat="46.07011" lon="6.77231">
        <ele>1673.5</ele>
        <time>2026-06-26T11:17:27Z</time>
      </trkpt>
      <trkpt lat="46.07011" lon="6.7723">
        <ele>1673.2</ele>
        <time>2026-06-26T11:17:28Z</time>
      </trkpt>
      <trkpt lat="46.0701" lon="6.77229">
        <ele>1672.8</ele>
        <time>2026-06-26T11:17:29Z</time>
      </trkpt>
      <trkpt lat="46.07009" lon="6.77228">
        <ele>1672.4</ele>
        <time>2026-06-26T11:17:30Z</time>
      </trkpt>
      <trkpt lat="46.07009" lon="6.77228">
        <ele>1672.1</ele>
        <time>2026-06-26T11:17:31Z</time>
      </trkpt>
      <trkpt lat="46.07009" lon="6.77229">
        <ele>1671.9</ele>
        <time>2026-06-26T11:17:32Z</time>
      </trkpt>
      <trkpt lat="46.07009" lon="6.77229">
        <ele>1671.7</ele>
        <time>2026-06-26T11:17:33Z</time>
      </trkpt>
      <trkpt lat="46.07008" lon="6.77227">
        <ele>1671.5</ele>
        <time>2026-06-26T11:17:34Z</time>
      </trkpt>
      <trkpt lat="46.07007" lon="6.77227">
        <ele>1671.3</ele>
        <time>2026-06-26T11:17:35Z</time>
      </trkpt>
      <trkpt lat="46.07006" lon="6.77227">
        <ele>1671.1</ele>
        <time>2026-06-26T11:17:36Z</time>
      </trkpt>
      <trkpt lat="46.07006" lon="6.77227">
        <ele>1670.8</ele>
        <time>2026-06-26T11:17:37Z</time>
      </trkpt>
      <trkpt lat="46.07005" lon="6.77226">
        <ele>1670.6</ele>
        <time>2026-06-26T11:17:38Z</time>
      </trkpt>
      <trkpt lat="46.07005" lon="6.77225">
        <ele>1670.5</ele>
        <time>2026-06-26T11:17:39Z</time>
      </trkpt>
      <trkpt lat="46.07005" lon="6.77225">
        <ele>1670.4</ele>
        <time>2026-06-26T11:17:40Z</time>
      </trkpt>
      <trkpt lat="46.07005" lon="6.77224">
        <ele>1670.3</ele>
        <time>2026-06-26T11:17:41Z</time>
      </trkpt>
      <trkpt lat="46.07005" lon="6.77223">
        <ele>1670.1</ele>
        <time>2026-06-26T11:17:42Z</time>
      </trkpt>
      <trkpt lat="46.07005" lon="6.77223">
        <ele>1670</ele>
        <time>2026-06-26T11:17:43Z</time>
      </trkpt>
      <trkpt lat="46.07005" lon="6.77222">
        <ele>1669.8</ele>
        <time>2026-06-26T11:17:44Z</time>
      </trkpt>
      <trkpt lat="46.07005" lon="6.77222">
        <ele>1669.6</ele>
        <time>2026-06-26T11:17:45Z</time>
      </trkpt>
      <trkpt lat="46.07004" lon="6.77221">
        <ele>1669.3</ele>
        <time>2026-06-26T11:17:46Z</time>
      </trkpt>
      <trkpt lat="46.07004" lon="6.77221">
        <ele>1669</ele>
        <time>2026-06-26T11:17:47Z</time>
      </trkpt>
      <trkpt lat="46.07004" lon="6.77221">
        <ele>1668.7</ele>
        <time>2026-06-26T11:17:48Z</time>
      </trkpt>
      <trkpt lat="46.07004" lon="6.7722">
        <ele>1668.5</ele>
        <time>2026-06-26T11:17:49Z</time>
      </trkpt>
      <trkpt lat="46.07003" lon="6.77219">
        <ele>1668.3</ele>
        <time>2026-06-26T11:17:50Z</time>
      </trkpt>
      <trkpt lat="46.07003" lon="6.77218">
        <ele>1668.2</ele>
        <time>2026-06-26T11:17:51Z</time>
      </trkpt>
      <trkpt lat="46.07003" lon="6.77217">
        <ele>1668</ele>
        <time>2026-06-26T11:17:52Z</time>
      </trkpt>
      <trkpt lat="46.07002" lon="6.77216">
        <ele>1667.8</ele>
        <time>2026-06-26T11:17:53Z</time>
      </trkpt>
      <trkpt lat="46.07002" lon="6.77216">
        <ele>1667.6</ele>
        <time>2026-06-26T11:17:54Z</time>
      </trkpt>
      <trkpt lat="46.07002" lon="6.77216">
        <ele>1667.4</ele>
        <time>2026-06-26T11:17:55Z</time>
      </trkpt>
      <trkpt lat="46.07002" lon="6.77216">
        <ele>1667.1</ele>
        <time>2026-06-26T11:17:56Z</time>
      </trkpt>
      <trkpt lat="46.07001" lon="6.77215">
        <ele>1666.8</ele>
        <time>2026-06-26T11:17:57Z</time>
      </trkpt>
      <trkpt lat="46.07" lon="6.77215">
        <ele>1666.6</ele>
        <time>2026-06-26T11:17:58Z</time>
      </trkpt>
      <trkpt lat="46.06999" lon="6.77214">
        <ele>1666.4</ele>
        <time>2026-06-26T11:17:59Z</time>
      </trkpt>
      <trkpt lat="46.06998" lon="6.77214">
        <ele>1666.2</ele>
        <time>2026-06-26T11:18:00Z</time>
      </trkpt>
      <trkpt lat="46.06998" lon="6.77214">
        <ele>1666</ele>
        <time>2026-06-26T11:18:01Z</time>
      </trkpt>
      <trkpt lat="46.06997" lon="6.77213">
        <ele>1665.8</ele>
        <time>2026-06-26T11:18:02Z</time>
      </trkpt>
      <trkpt lat="46.06995" lon="6.77213">
        <ele>1665.6</ele>
        <time>2026-06-26T11:18:03Z</time>
      </trkpt>
      <trkpt lat="46.06995" lon="6.77213">
        <ele>1665.5</ele>
        <time>2026-06-26T11:18:04Z</time>
      </trkpt>
      <trkpt lat="46.06994" lon="6.77213">
        <ele>1665.4</ele>
        <time>2026-06-26T11:18:05Z</time>
      </trkpt>
      <trkpt lat="46.06993" lon="6.77213">
        <ele>1665.2</ele>
        <time>2026-06-26T11:18:06Z</time>
      </trkpt>
      <trkpt lat="46.06993" lon="6.77213">
        <ele>1665</ele>
        <time>2026-06-26T11:18:07Z</time>
      </trkpt>
      <trkpt lat="46.06992" lon="6.77213">
        <ele>1664.7</ele>
        <time>2026-06-26T11:18:08Z</time>
      </trkpt>
      <trkpt lat="46.06992" lon="6.77213">
        <ele>1664.5</ele>
        <time>2026-06-26T11:18:09Z</time>
      </trkpt>
      <trkpt lat="46.06991" lon="6.77213">
        <ele>1664.3</ele>
        <time>2026-06-26T11:18:10Z</time>
      </trkpt>
      <trkpt lat="46.0699" lon="6.77213">
        <ele>1664.1</ele>
        <time>2026-06-26T11:18:11Z</time>
      </trkpt>
      <trkpt lat="46.0699" lon="6.77212">
        <ele>1664</ele>
        <time>2026-06-26T11:18:12Z</time>
      </trkpt>
      <trkpt lat="46.06989" lon="6.77212">
        <ele>1663.9</ele>
        <time>2026-06-26T11:18:13Z</time>
      </trkpt>
      <trkpt lat="46.06989" lon="6.77212">
        <ele>1663.7</ele>
        <time>2026-06-26T11:18:14Z</time>
      </trkpt>
      <trkpt lat="46.06989" lon="6.77212">
        <ele>1663.4</ele>
        <time>2026-06-26T11:18:15Z</time>
      </trkpt>
      <trkpt lat="46.06988" lon="6.77211">
        <ele>1663.3</ele>
        <time>2026-06-26T11:18:16Z</time>
      </trkpt>
      <trkpt lat="46.06988" lon="6.77211">
        <ele>1663.1</ele>
        <time>2026-06-26T11:18:17Z</time>
      </trkpt>
      <trkpt lat="46.06987" lon="6.7721">
        <ele>1662.9</ele>
        <time>2026-06-26T11:18:18Z</time>
      </trkpt>
      <trkpt lat="46.06987" lon="6.7721">
        <ele>1662.8</ele>
        <time>2026-06-26T11:18:19Z</time>
      </trkpt>
      <trkpt lat="46.06986" lon="6.7721">
        <ele>1662.7</ele>
        <time>2026-06-26T11:18:20Z</time>
      </trkpt>
      <trkpt lat="46.06986" lon="6.7721">
        <ele>1662.4</ele>
        <time>2026-06-26T11:18:21Z</time>
      </trkpt>
      <trkpt lat="46.06986" lon="6.7721">
        <ele>1662.3</ele>
        <time>2026-06-26T11:18:22Z</time>
      </trkpt>
      <trkpt lat="46.06985" lon="6.7721">
        <ele>1662.1</ele>
        <time>2026-06-26T11:18:23Z</time>
      </trkpt>
      <trkpt lat="46.06985" lon="6.7721">
        <ele>1661.9</ele>
        <time>2026-06-26T11:18:24Z</time>
      </trkpt>
      <trkpt lat="46.06985" lon="6.77209">
        <ele>1661.8</ele>
        <time>2026-06-26T11:18:25Z</time>
      </trkpt>
      <trkpt lat="46.06985" lon="6.77209">
        <ele>1661.6</ele>
        <time>2026-06-26T11:18:26Z</time>
      </trkpt>
      <trkpt lat="46.06985" lon="6.77209">
        <ele>1661.5</ele>
        <time>2026-06-26T11:18:27Z</time>
      </trkpt>
      <trkpt lat="46.06984" lon="6.77209">
        <ele>1661.4</ele>
        <time>2026-06-26T11:18:28Z</time>
      </trkpt>
      <trkpt lat="46.06984" lon="6.77208">
        <ele>1661.1</ele>
        <time>2026-06-26T11:18:29Z</time>
      </trkpt>
      <trkpt lat="46.06984" lon="6.77208">
        <ele>1660.9</ele>
        <time>2026-06-26T11:18:30Z</time>
      </trkpt>
      <trkpt lat="46.06984" lon="6.77207">
        <ele>1660.7</ele>
        <time>2026-06-26T11:18:31Z</time>
      </trkpt>
      <trkpt lat="46.06983" lon="6.77207">
        <ele>1660.5</ele>
        <time>2026-06-26T11:18:32Z</time>
      </trkpt>
      <trkpt lat="46.06983" lon="6.77206">
        <ele>1660.3</ele>
        <time>2026-06-26T11:18:33Z</time>
      </trkpt>
      <trkpt lat="46.06982" lon="6.77206">
        <ele>1660.1</ele>
        <time>2026-06-26T11:18:34Z</time>
      </trkpt>
      <trkpt lat="46.06982" lon="6.77206">
        <ele>1659.8</ele>
        <time>2026-06-26T11:18:35Z</time>
      </trkpt>
      <trkpt lat="46.06982" lon="6.77205">
        <ele>1659.6</ele>
        <time>2026-06-26T11:18:36Z</time>
      </trkpt>
      <trkpt lat="46.06982" lon="6.77204">
        <ele>1659.4</ele>
        <time>2026-06-26T11:18:37Z</time>
      </trkpt>
      <trkpt lat="46.06982" lon="6.77202">
        <ele>1659</ele>
        <time>2026-06-26T11:18:38Z</time>
      </trkpt>
      <trkpt lat="46.06982" lon="6.77202">
        <ele>1658.8</ele>
        <time>2026-06-26T11:18:39Z</time>
      </trkpt>
      <trkpt lat="46.06982" lon="6.77201">
        <ele>1658.6</ele>
        <time>2026-06-26T11:18:40Z</time>
      </trkpt>
      <trkpt lat="46.06982" lon="6.77201">
        <ele>1658.5</ele>
        <time>2026-06-26T11:18:41Z</time>
      </trkpt>
      <trkpt lat="46.06983" lon="6.772">
        <ele>1658.4</ele>
        <time>2026-06-26T11:18:42Z</time>
      </trkpt>
      <trkpt lat="46.06983" lon="6.772">
        <ele>1658.3</ele>
        <time>2026-06-26T11:18:43Z</time>
      </trkpt>
      <trkpt lat="46.06983" lon="6.77199">
        <ele>1658.2</ele>
        <time>2026-06-26T11:18:44Z</time>
      </trkpt>
      <trkpt lat="46.06984" lon="6.77199">
        <ele>1658.1</ele>
        <time>2026-06-26T11:18:45Z</time>
      </trkpt>
      <trkpt lat="46.06984" lon="6.77198">
        <ele>1657.7</ele>
        <time>2026-06-26T11:18:46Z</time>
      </trkpt>
      <trkpt lat="46.06984" lon="6.77198">
        <ele>1657.5</ele>
        <time>2026-06-26T11:18:47Z</time>
      </trkpt>
      <trkpt lat="46.06984" lon="6.77197">
        <ele>1657.4</ele>
        <time>2026-06-26T11:18:48Z</time>
      </trkpt>
      <trkpt lat="46.06984" lon="6.77197">
        <ele>1657.2</ele>
        <time>2026-06-26T11:18:49Z</time>
      </trkpt>
      <trkpt lat="46.06984" lon="6.77196">
        <ele>1657</ele>
        <time>2026-06-26T11:18:50Z</time>
      </trkpt>
      <trkpt lat="46.06984" lon="6.77196">
        <ele>1656.9</ele>
        <time>2026-06-26T11:18:51Z</time>
      </trkpt>
      <trkpt lat="46.06984" lon="6.77195">
        <ele>1656.7</ele>
        <time>2026-06-26T11:18:52Z</time>
      </trkpt>
      <trkpt lat="46.06984" lon="6.77194">
        <ele>1656.9</ele>
        <time>2026-06-26T11:18:53Z</time>
      </trkpt>
      <trkpt lat="46.06985" lon="6.77194">
        <ele>1656.8</ele>
        <time>2026-06-26T11:18:54Z</time>
      </trkpt>
      <trkpt lat="46.06984" lon="6.77193">
        <ele>1656.6</ele>
        <time>2026-06-26T11:18:55Z</time>
      </trkpt>
      <trkpt lat="46.06985" lon="6.77192">
        <ele>1656.4</ele>
        <time>2026-06-26T11:18:56Z</time>
      </trkpt>
      <trkpt lat="46.06985" lon="6.77192">
        <ele>1656.1</ele>
        <time>2026-06-26T11:18:57Z</time>
      </trkpt>
      <trkpt lat="46.06984" lon="6.77191">
        <ele>1655.7</ele>
        <time>2026-06-26T11:18:58Z</time>
      </trkpt>
      <trkpt lat="46.06984" lon="6.7719">
        <ele>1655.5</ele>
        <time>2026-06-26T11:18:59Z</time>
      </trkpt>
      <trkpt lat="46.06984" lon="6.7719">
        <ele>1655.2</ele>
        <time>2026-06-26T11:19:00Z</time>
      </trkpt>
      <trkpt lat="46.06984" lon="6.77189">
        <ele>1655</ele>
        <time>2026-06-26T11:19:01Z</time>
      </trkpt>
      <trkpt lat="46.06984" lon="6.77189">
        <ele>1654.7</ele>
        <time>2026-06-26T11:19:02Z</time>
      </trkpt>
      <trkpt lat="46.06984" lon="6.77189">
        <ele>1654.5</ele>
        <time>2026-06-26T11:19:03Z</time>
      </trkpt>
      <trkpt lat="46.06984" lon="6.77188">
        <ele>1654.3</ele>
        <time>2026-06-26T11:19:04Z</time>
      </trkpt>
      <trkpt lat="46.06983" lon="6.77188">
        <ele>1654.2</ele>
        <time>2026-06-26T11:19:05Z</time>
      </trkpt>
      <trkpt lat="46.06983" lon="6.77187">
        <ele>1654.1</ele>
        <time>2026-06-26T11:19:06Z</time>
      </trkpt>
      <trkpt lat="46.06984" lon="6.77187">
        <ele>1653.7</ele>
        <time>2026-06-26T11:19:07Z</time>
      </trkpt>
      <trkpt lat="46.06984" lon="6.77186">
        <ele>1653.5</ele>
        <time>2026-06-26T11:19:08Z</time>
      </trkpt>
      <trkpt lat="46.06984" lon="6.77185">
        <ele>1653.4</ele>
        <time>2026-06-26T11:19:09Z</time>
      </trkpt>
      <trkpt lat="46.06984" lon="6.77185">
        <ele>1653.2</ele>
        <time>2026-06-26T11:19:10Z</time>
      </trkpt>
      <trkpt lat="46.06985" lon="6.77184">
        <ele>1653</ele>
        <time>2026-06-26T11:19:11Z</time>
      </trkpt>
      <trkpt lat="46.06985" lon="6.77184">
        <ele>1652.9</ele>
        <time>2026-06-26T11:19:12Z</time>
      </trkpt>
      <trkpt lat="46.06985" lon="6.77184">
        <ele>1652.7</ele>
        <time>2026-06-26T11:19:13Z</time>
      </trkpt>
      <trkpt lat="46.06985" lon="6.77184">
        <ele>1652.5</ele>
        <time>2026-06-26T11:19:14Z</time>
      </trkpt>
      <trkpt lat="46.06985" lon="6.77184">
        <ele>1652.4</ele>
        <time>2026-06-26T11:19:15Z</time>
      </trkpt>
      <trkpt lat="46.06985" lon="6.77183">
        <ele>1652.2</ele>
        <time>2026-06-26T11:19:16Z</time>
      </trkpt>
      <trkpt lat="46.06985" lon="6.77183">
        <ele>1652.2</ele>
        <time>2026-06-26T11:19:17Z</time>
      </trkpt>
      <trkpt lat="46.06985" lon="6.77181">
        <ele>1652.1</ele>
        <time>2026-06-26T11:19:18Z</time>
      </trkpt>
      <trkpt lat="46.06985" lon="6.7718">
        <ele>1651.8</ele>
        <time>2026-06-26T11:19:19Z</time>
      </trkpt>
      <trkpt lat="46.06984" lon="6.77179">
        <ele>1651.7</ele>
        <time>2026-06-26T11:19:20Z</time>
      </trkpt>
      <trkpt lat="46.06984" lon="6.77179">
        <ele>1651.5</ele>
        <time>2026-06-26T11:19:21Z</time>
      </trkpt>
      <trkpt lat="46.06984" lon="6.77178">
        <ele>1651.2</ele>
        <time>2026-06-26T11:19:22Z</time>
      </trkpt>
      <trkpt lat="46.06984" lon="6.77177">
        <ele>1651</ele>
        <time>2026-06-26T11:19:23Z</time>
      </trkpt>
      <trkpt lat="46.06983" lon="6.77177">
        <ele>1650.9</ele>
        <time>2026-06-26T11:19:24Z</time>
      </trkpt>
      <trkpt lat="46.06983" lon="6.77177">
        <ele>1650.7</ele>
        <time>2026-06-26T11:19:25Z</time>
      </trkpt>
      <trkpt lat="46.06983" lon="6.77176">
        <ele>1650.5</ele>
        <time>2026-06-26T11:19:26Z</time>
      </trkpt>
      <trkpt lat="46.06983" lon="6.77176">
        <ele>1650.3</ele>
        <time>2026-06-26T11:19:27Z</time>
      </trkpt>
      <trkpt lat="46.06982" lon="6.77176">
        <ele>1650.1</ele>
        <time>2026-06-26T11:19:28Z</time>
      </trkpt>
      <trkpt lat="46.06982" lon="6.77176">
        <ele>1649.8</ele>
        <time>2026-06-26T11:19:29Z</time>
      </trkpt>
      <trkpt lat="46.06982" lon="6.77176">
        <ele>1649.6</ele>
        <time>2026-06-26T11:19:30Z</time>
      </trkpt>
      <trkpt lat="46.06982" lon="6.77175">
        <ele>1649.5</ele>
        <time>2026-06-26T11:19:31Z</time>
      </trkpt>
      <trkpt lat="46.06981" lon="6.77174">
        <ele>1649.4</ele>
        <time>2026-06-26T11:19:32Z</time>
      </trkpt>
      <trkpt lat="46.06981" lon="6.77174">
        <ele>1649.2</ele>
        <time>2026-06-26T11:19:33Z</time>
      </trkpt>
      <trkpt lat="46.06981" lon="6.77174">
        <ele>1649</ele>
        <time>2026-06-26T11:19:34Z</time>
      </trkpt>
      <trkpt lat="46.0698" lon="6.77173">
        <ele>1648.9</ele>
        <time>2026-06-26T11:19:35Z</time>
      </trkpt>
      <trkpt lat="46.0698" lon="6.77172">
        <ele>1648.7</ele>
        <time>2026-06-26T11:19:36Z</time>
      </trkpt>
      <trkpt lat="46.0698" lon="6.77172">
        <ele>1648.5</ele>
        <time>2026-06-26T11:19:37Z</time>
      </trkpt>
      <trkpt lat="46.06979" lon="6.77171">
        <ele>1648</ele>
        <time>2026-06-26T11:19:38Z</time>
      </trkpt>
      <trkpt lat="46.06979" lon="6.77171">
        <ele>1647.9</ele>
        <time>2026-06-26T11:19:39Z</time>
      </trkpt>
      <trkpt lat="46.06979" lon="6.77171">
        <ele>1647.7</ele>
        <time>2026-06-26T11:19:40Z</time>
      </trkpt>
      <trkpt lat="46.06978" lon="6.7717">
        <ele>1647.5</ele>
        <time>2026-06-26T11:19:41Z</time>
      </trkpt>
      <trkpt lat="46.06978" lon="6.7717">
        <ele>1647.3</ele>
        <time>2026-06-26T11:19:42Z</time>
      </trkpt>
      <trkpt lat="46.06978" lon="6.77169">
        <ele>1647</ele>
        <time>2026-06-26T11:19:43Z</time>
      </trkpt>
      <trkpt lat="46.06978" lon="6.77168">
        <ele>1646.8</ele>
        <time>2026-06-26T11:19:44Z</time>
      </trkpt>
      <trkpt lat="46.06978" lon="6.77168">
        <ele>1646.6</ele>
        <time>2026-06-26T11:19:45Z</time>
      </trkpt>
      <trkpt lat="46.06978" lon="6.77167">
        <ele>1646.4</ele>
        <time>2026-06-26T11:19:46Z</time>
      </trkpt>
      <trkpt lat="46.06977" lon="6.77167">
        <ele>1646.2</ele>
        <time>2026-06-26T11:19:47Z</time>
      </trkpt>
      <trkpt lat="46.06977" lon="6.77167">
        <ele>1646</ele>
        <time>2026-06-26T11:19:48Z</time>
      </trkpt>
      <trkpt lat="46.06977" lon="6.77166">
        <ele>1645.9</ele>
        <time>2026-06-26T11:19:49Z</time>
      </trkpt>
      <trkpt lat="46.06977" lon="6.77165">
        <ele>1645.9</ele>
        <time>2026-06-26T11:19:50Z</time>
      </trkpt>
      <trkpt lat="46.06977" lon="6.77164">
        <ele>1645.8</ele>
        <time>2026-06-26T11:19:51Z</time>
      </trkpt>
      <trkpt lat="46.06977" lon="6.77163">
        <ele>1645.6</ele>
        <time>2026-06-26T11:19:52Z</time>
      </trkpt>
      <trkpt lat="46.06977" lon="6.77163">
        <ele>1645.5</ele>
        <time>2026-06-26T11:19:53Z</time>
      </trkpt>
      <trkpt lat="46.06977" lon="6.77163">
        <ele>1645.3</ele>
        <time>2026-06-26T11:19:54Z</time>
      </trkpt>
      <trkpt lat="46.06977" lon="6.77163">
        <ele>1645</ele>
        <time>2026-06-26T11:19:55Z</time>
      </trkpt>
      <trkpt lat="46.06977" lon="6.77162">
        <ele>1644.8</ele>
        <time>2026-06-26T11:19:56Z</time>
      </trkpt>
      <trkpt lat="46.06977" lon="6.77162">
        <ele>1644.7</ele>
        <time>2026-06-26T11:19:57Z</time>
      </trkpt>
      <trkpt lat="46.06977" lon="6.77161">
        <ele>1644.5</ele>
        <time>2026-06-26T11:19:58Z</time>
      </trkpt>
      <trkpt lat="46.06976" lon="6.7716">
        <ele>1644.4</ele>
        <time>2026-06-26T11:19:59Z</time>
      </trkpt>
      <trkpt lat="46.06975" lon="6.77157">
        <ele>1644.1</ele>
        <time>2026-06-26T11:20:00Z</time>
      </trkpt>
      <trkpt lat="46.06974" lon="6.77156">
        <ele>1643.8</ele>
        <time>2026-06-26T11:20:01Z</time>
      </trkpt>
      <trkpt lat="46.06973" lon="6.77156">
        <ele>1643.6</ele>
        <time>2026-06-26T11:20:02Z</time>
      </trkpt>
      <trkpt lat="46.06973" lon="6.77155">
        <ele>1643.3</ele>
        <time>2026-06-26T11:20:03Z</time>
      </trkpt>
      <trkpt lat="46.06972" lon="6.77155">
        <ele>1643</ele>
        <time>2026-06-26T11:20:04Z</time>
      </trkpt>
      <trkpt lat="46.06972" lon="6.77155">
        <ele>1642.7</ele>
        <time>2026-06-26T11:20:05Z</time>
      </trkpt>
      <trkpt lat="46.06972" lon="6.77154">
        <ele>1642.5</ele>
        <time>2026-06-26T11:20:06Z</time>
      </trkpt>
      <trkpt lat="46.06972" lon="6.77154">
        <ele>1642.3</ele>
        <time>2026-06-26T11:20:07Z</time>
      </trkpt>
      <trkpt lat="46.06971" lon="6.77153">
        <ele>1642.1</ele>
        <time>2026-06-26T11:20:08Z</time>
      </trkpt>
      <trkpt lat="46.0697" lon="6.77152">
        <ele>1641.9</ele>
        <time>2026-06-26T11:20:09Z</time>
      </trkpt>
      <trkpt lat="46.06969" lon="6.77151">
        <ele>1641.6</ele>
        <time>2026-06-26T11:20:10Z</time>
      </trkpt>
      <trkpt lat="46.06968" lon="6.77151">
        <ele>1641.2</ele>
        <time>2026-06-26T11:20:11Z</time>
      </trkpt>
      <trkpt lat="46.06968" lon="6.77151">
        <ele>1641</ele>
        <time>2026-06-26T11:20:12Z</time>
      </trkpt>
      <trkpt lat="46.06967" lon="6.77151">
        <ele>1640.7</ele>
        <time>2026-06-26T11:20:13Z</time>
      </trkpt>
      <trkpt lat="46.06966" lon="6.77152">
        <ele>1640.5</ele>
        <time>2026-06-26T11:20:14Z</time>
      </trkpt>
      <trkpt lat="46.06965" lon="6.77152">
        <ele>1640.4</ele>
        <time>2026-06-26T11:20:15Z</time>
      </trkpt>
      <trkpt lat="46.06965" lon="6.77152">
        <ele>1640.1</ele>
        <time>2026-06-26T11:20:16Z</time>
      </trkpt>
      <trkpt lat="46.06964" lon="6.77151">
        <ele>1639.9</ele>
        <time>2026-06-26T11:20:17Z</time>
      </trkpt>
      <trkpt lat="46.06963" lon="6.77151">
        <ele>1639.8</ele>
        <time>2026-06-26T11:20:18Z</time>
      </trkpt>
      <trkpt lat="46.06963" lon="6.77151">
        <ele>1639.6</ele>
        <time>2026-06-26T11:20:19Z</time>
      </trkpt>
      <trkpt lat="46.06963" lon="6.77151">
        <ele>1639.3</ele>
        <time>2026-06-26T11:20:20Z</time>
      </trkpt>
      <trkpt lat="46.06962" lon="6.7715">
        <ele>1639.2</ele>
        <time>2026-06-26T11:20:21Z</time>
      </trkpt>
      <trkpt lat="46.06962" lon="6.7715">
        <ele>1639</ele>
        <time>2026-06-26T11:20:22Z</time>
      </trkpt>
      <trkpt lat="46.06962" lon="6.7715">
        <ele>1638.8</ele>
        <time>2026-06-26T11:20:23Z</time>
      </trkpt>
      <trkpt lat="46.06961" lon="6.7715">
        <ele>1638.6</ele>
        <time>2026-06-26T11:20:24Z</time>
      </trkpt>
      <trkpt lat="46.06961" lon="6.77149">
        <ele>1638.4</ele>
        <time>2026-06-26T11:20:25Z</time>
      </trkpt>
      <trkpt lat="46.06961" lon="6.77149">
        <ele>1638.2</ele>
        <time>2026-06-26T11:20:26Z</time>
      </trkpt>
      <trkpt lat="46.06961" lon="6.77148">
        <ele>1638</ele>
        <time>2026-06-26T11:20:27Z</time>
      </trkpt>
      <trkpt lat="46.06961" lon="6.77148">
        <ele>1637.8</ele>
        <time>2026-06-26T11:20:28Z</time>
      </trkpt>
      <trkpt lat="46.06961" lon="6.77147">
        <ele>1637.7</ele>
        <time>2026-06-26T11:20:29Z</time>
      </trkpt>
      <trkpt lat="46.06961" lon="6.77148">
        <ele>1637.6</ele>
        <time>2026-06-26T11:20:30Z</time>
      </trkpt>
      <trkpt lat="46.06961" lon="6.77148">
        <ele>1637.6</ele>
        <time>2026-06-26T11:20:31Z</time>
      </trkpt>
      <trkpt lat="46.06961" lon="6.77147">
        <ele>1637.6</ele>
        <time>2026-06-26T11:20:32Z</time>
      </trkpt>
      <trkpt lat="46.0696" lon="6.77147">
        <ele>1637.6</ele>
        <time>2026-06-26T11:20:33Z</time>
      </trkpt>
      <trkpt lat="46.0696" lon="6.77147">
        <ele>1637.6</ele>
        <time>2026-06-26T11:20:34Z</time>
      </trkpt>
      <trkpt lat="46.0696" lon="6.77147">
        <ele>1637.6</ele>
        <time>2026-06-26T11:20:35Z</time>
      </trkpt>
      <trkpt lat="46.0696" lon="6.77147">
        <ele>1637.6</ele>
        <time>2026-06-26T11:20:36Z</time>
      </trkpt>
      <trkpt lat="46.0696" lon="6.77147">
        <ele>1637.5</ele>
        <time>2026-06-26T11:20:37Z</time>
      </trkpt>
      <trkpt lat="46.0696" lon="6.77147">
        <ele>1637.5</ele>
        <time>2026-06-26T11:20:38Z</time>
      </trkpt>
      <trkpt lat="46.06959" lon="6.77147">
        <ele>1637.5</ele>
        <time>2026-06-26T11:20:39Z</time>
      </trkpt>
      <trkpt lat="46.06959" lon="6.77147">
        <ele>1637.5</ele>
        <time>2026-06-26T11:20:40Z</time>
      </trkpt>
      <trkpt lat="46.06958" lon="6.77146">
        <ele>1637.5</ele>
        <time>2026-06-26T11:20:41Z</time>
      </trkpt>
      <trkpt lat="46.06958" lon="6.77145">
        <ele>1637.4</ele>
        <time>2026-06-26T11:20:42Z</time>
      </trkpt>
      <trkpt lat="46.06958" lon="6.77143">
        <ele>1637.3</ele>
        <time>2026-06-26T11:20:43Z</time>
      </trkpt>
      <trkpt lat="46.06958" lon="6.77142">
        <ele>1637.2</ele>
        <time>2026-06-26T11:20:44Z</time>
      </trkpt>
      <trkpt lat="46.06959" lon="6.7714">
        <ele>1636.9</ele>
        <time>2026-06-26T11:20:45Z</time>
      </trkpt>
      <trkpt lat="46.06959" lon="6.77139">
        <ele>1636.7</ele>
        <time>2026-06-26T11:20:46Z</time>
      </trkpt>
      <trkpt lat="46.0696" lon="6.77138">
        <ele>1636.5</ele>
        <time>2026-06-26T11:20:47Z</time>
      </trkpt>
      <trkpt lat="46.0696" lon="6.77137">
        <ele>1636.2</ele>
        <time>2026-06-26T11:20:48Z</time>
      </trkpt>
      <trkpt lat="46.0696" lon="6.77137">
        <ele>1635.9</ele>
        <time>2026-06-26T11:20:49Z</time>
      </trkpt>
      <trkpt lat="46.06961" lon="6.77137">
        <ele>1635.6</ele>
        <time>2026-06-26T11:20:50Z</time>
      </trkpt>
      <trkpt lat="46.06961" lon="6.77136">
        <ele>1635.4</ele>
        <time>2026-06-26T11:20:51Z</time>
      </trkpt>
      <trkpt lat="46.06961" lon="6.77136">
        <ele>1635.2</ele>
        <time>2026-06-26T11:20:52Z</time>
      </trkpt>
      <trkpt lat="46.06962" lon="6.77135">
        <ele>1634.8</ele>
        <time>2026-06-26T11:20:53Z</time>
      </trkpt>
      <trkpt lat="46.06963" lon="6.77133">
        <ele>1634.5</ele>
        <time>2026-06-26T11:20:54Z</time>
      </trkpt>
      <trkpt lat="46.06964" lon="6.77133">
        <ele>1634.3</ele>
        <time>2026-06-26T11:20:55Z</time>
      </trkpt>
      <trkpt lat="46.06965" lon="6.77132">
        <ele>1634</ele>
        <time>2026-06-26T11:20:56Z</time>
      </trkpt>
      <trkpt lat="46.06965" lon="6.77131">
        <ele>1633.8</ele>
        <time>2026-06-26T11:20:57Z</time>
      </trkpt>
      <trkpt lat="46.06965" lon="6.7713">
        <ele>1633.5</ele>
        <time>2026-06-26T11:20:58Z</time>
      </trkpt>
      <trkpt lat="46.06965" lon="6.77129">
        <ele>1633.2</ele>
        <time>2026-06-26T11:20:59Z</time>
      </trkpt>
      <trkpt lat="46.06965" lon="6.77129">
        <ele>1633</ele>
        <time>2026-06-26T11:21:00Z</time>
      </trkpt>
      <trkpt lat="46.06965" lon="6.77128">
        <ele>1632.9</ele>
        <time>2026-06-26T11:21:01Z</time>
      </trkpt>
      <trkpt lat="46.06966" lon="6.77128">
        <ele>1632.7</ele>
        <time>2026-06-26T11:21:02Z</time>
      </trkpt>
      <trkpt lat="46.06966" lon="6.77127">
        <ele>1632.5</ele>
        <time>2026-06-26T11:21:03Z</time>
      </trkpt>
      <trkpt lat="46.06965" lon="6.77126">
        <ele>1632.3</ele>
        <time>2026-06-26T11:21:04Z</time>
      </trkpt>
      <trkpt lat="46.06965" lon="6.77126">
        <ele>1632</ele>
        <time>2026-06-26T11:21:05Z</time>
      </trkpt>
      <trkpt lat="46.06965" lon="6.77124">
        <ele>1631.8</ele>
        <time>2026-06-26T11:21:06Z</time>
      </trkpt>
      <trkpt lat="46.06965" lon="6.77123">
        <ele>1631.6</ele>
        <time>2026-06-26T11:21:07Z</time>
      </trkpt>
      <trkpt lat="46.06964" lon="6.77122">
        <ele>1631.5</ele>
        <time>2026-06-26T11:21:08Z</time>
      </trkpt>
      <trkpt lat="46.06964" lon="6.77121">
        <ele>1631.4</ele>
        <time>2026-06-26T11:21:09Z</time>
      </trkpt>
      <trkpt lat="46.06964" lon="6.77121">
        <ele>1631.4</ele>
        <time>2026-06-26T11:21:10Z</time>
      </trkpt>
      <trkpt lat="46.06964" lon="6.7712">
        <ele>1631.3</ele>
        <time>2026-06-26T11:21:11Z</time>
      </trkpt>
      <trkpt lat="46.06964" lon="6.7712">
        <ele>1631.2</ele>
        <time>2026-06-26T11:21:12Z</time>
      </trkpt>
      <trkpt lat="46.06963" lon="6.77119">
        <ele>1631.2</ele>
        <time>2026-06-26T11:21:13Z</time>
      </trkpt>
      <trkpt lat="46.06963" lon="6.77119">
        <ele>1631.2</ele>
        <time>2026-06-26T11:21:14Z</time>
      </trkpt>
      <trkpt lat="46.06963" lon="6.77119">
        <ele>1631.1</ele>
        <time>2026-06-26T11:21:15Z</time>
      </trkpt>
      <trkpt lat="46.06963" lon="6.77119">
        <ele>1631.1</ele>
        <time>2026-06-26T11:21:16Z</time>
      </trkpt>
      <trkpt lat="46.06963" lon="6.77118">
        <ele>1631.3</ele>
        <time>2026-06-26T11:21:17Z</time>
      </trkpt>
      <trkpt lat="46.06963" lon="6.77118">
        <ele>1631.3</ele>
        <time>2026-06-26T11:21:18Z</time>
      </trkpt>
      <trkpt lat="46.06963" lon="6.77117">
        <ele>1631.3</ele>
        <time>2026-06-26T11:21:19Z</time>
      </trkpt>
      <trkpt lat="46.06964" lon="6.77115">
        <ele>1631.2</ele>
        <time>2026-06-26T11:21:20Z</time>
      </trkpt>
      <trkpt lat="46.06964" lon="6.77115">
        <ele>1631.1</ele>
        <time>2026-06-26T11:21:21Z</time>
      </trkpt>
      <trkpt lat="46.06963" lon="6.77113">
        <ele>1631</ele>
        <time>2026-06-26T11:21:22Z</time>
      </trkpt>
      <trkpt lat="46.06962" lon="6.77112">
        <ele>1630.8</ele>
        <time>2026-06-26T11:21:23Z</time>
      </trkpt>
      <trkpt lat="46.06962" lon="6.77111">
        <ele>1630.5</ele>
        <time>2026-06-26T11:21:24Z</time>
      </trkpt>
      <trkpt lat="46.06962" lon="6.7711">
        <ele>1630.2</ele>
        <time>2026-06-26T11:21:25Z</time>
      </trkpt>
      <trkpt lat="46.06962" lon="6.77108">
        <ele>1629.8</ele>
        <time>2026-06-26T11:21:26Z</time>
      </trkpt>
      <trkpt lat="46.06962" lon="6.77108">
        <ele>1629.6</ele>
        <time>2026-06-26T11:21:27Z</time>
      </trkpt>
      <trkpt lat="46.06962" lon="6.77107">
        <ele>1629.3</ele>
        <time>2026-06-26T11:21:28Z</time>
      </trkpt>
      <trkpt lat="46.06962" lon="6.77106">
        <ele>1629</ele>
        <time>2026-06-26T11:21:29Z</time>
      </trkpt>
      <trkpt lat="46.06962" lon="6.77106">
        <ele>1628.6</ele>
        <time>2026-06-26T11:21:30Z</time>
      </trkpt>
      <trkpt lat="46.06961" lon="6.77104">
        <ele>1628.3</ele>
        <time>2026-06-26T11:21:31Z</time>
      </trkpt>
      <trkpt lat="46.06961" lon="6.77104">
        <ele>1628.1</ele>
        <time>2026-06-26T11:21:32Z</time>
      </trkpt>
      <trkpt lat="46.06961" lon="6.77105">
        <ele>1628</ele>
        <time>2026-06-26T11:21:33Z</time>
      </trkpt>
      <trkpt lat="46.06961" lon="6.77104">
        <ele>1627.8</ele>
        <time>2026-06-26T11:21:34Z</time>
      </trkpt>
      <trkpt lat="46.06961" lon="6.77103">
        <ele>1627.6</ele>
        <time>2026-06-26T11:21:35Z</time>
      </trkpt>
      <trkpt lat="46.0696" lon="6.77103">
        <ele>1627.6</ele>
        <time>2026-06-26T11:21:36Z</time>
      </trkpt>
      <trkpt lat="46.0696" lon="6.77102">
        <ele>1627.5</ele>
        <time>2026-06-26T11:21:37Z</time>
      </trkpt>
      <trkpt lat="46.0696" lon="6.77102">
        <ele>1627.4</ele>
        <time>2026-06-26T11:21:38Z</time>
      </trkpt>
      <trkpt lat="46.06959" lon="6.77101">
        <ele>1627.3</ele>
        <time>2026-06-26T11:21:39Z</time>
      </trkpt>
      <trkpt lat="46.06958" lon="6.771">
        <ele>1627.1</ele>
        <time>2026-06-26T11:21:40Z</time>
      </trkpt>
      <trkpt lat="46.06958" lon="6.77099">
        <ele>1626.6</ele>
        <time>2026-06-26T11:21:41Z</time>
      </trkpt>
      <trkpt lat="46.06957" lon="6.77098">
        <ele>1626.3</ele>
        <time>2026-06-26T11:21:42Z</time>
      </trkpt>
      <trkpt lat="46.06957" lon="6.77096">
        <ele>1626</ele>
        <time>2026-06-26T11:21:43Z</time>
      </trkpt>
      <trkpt lat="46.06957" lon="6.77094">
        <ele>1625.8</ele>
        <time>2026-06-26T11:21:44Z</time>
      </trkpt>
      <trkpt lat="46.06957" lon="6.77093">
        <ele>1625.4</ele>
        <time>2026-06-26T11:21:45Z</time>
      </trkpt>
      <trkpt lat="46.06958" lon="6.77092">
        <ele>1625.1</ele>
        <time>2026-06-26T11:21:46Z</time>
      </trkpt>
      <trkpt lat="46.06958" lon="6.77091">
        <ele>1624.9</ele>
        <time>2026-06-26T11:21:47Z</time>
      </trkpt>
      <trkpt lat="46.06958" lon="6.7709">
        <ele>1624.6</ele>
        <time>2026-06-26T11:21:48Z</time>
      </trkpt>
      <trkpt lat="46.06958" lon="6.77089">
        <ele>1624.3</ele>
        <time>2026-06-26T11:21:49Z</time>
      </trkpt>
      <trkpt lat="46.06959" lon="6.77087">
        <ele>1623.9</ele>
        <time>2026-06-26T11:21:50Z</time>
      </trkpt>
      <trkpt lat="46.06959" lon="6.77086">
        <ele>1623.7</ele>
        <time>2026-06-26T11:21:51Z</time>
      </trkpt>
      <trkpt lat="46.06959" lon="6.77085">
        <ele>1623.5</ele>
        <time>2026-06-26T11:21:52Z</time>
      </trkpt>
      <trkpt lat="46.06959" lon="6.77084">
        <ele>1623.2</ele>
        <time>2026-06-26T11:21:53Z</time>
      </trkpt>
      <trkpt lat="46.0696" lon="6.77083">
        <ele>1623</ele>
        <time>2026-06-26T11:21:54Z</time>
      </trkpt>
      <trkpt lat="46.0696" lon="6.77083">
        <ele>1622.7</ele>
        <time>2026-06-26T11:21:55Z</time>
      </trkpt>
      <trkpt lat="46.06959" lon="6.77082">
        <ele>1622.5</ele>
        <time>2026-06-26T11:21:56Z</time>
      </trkpt>
      <trkpt lat="46.06959" lon="6.77082">
        <ele>1622.3</ele>
        <time>2026-06-26T11:21:57Z</time>
      </trkpt>
      <trkpt lat="46.06958" lon="6.77082">
        <ele>1622.1</ele>
        <time>2026-06-26T11:21:58Z</time>
      </trkpt>
      <trkpt lat="46.06958" lon="6.77082">
        <ele>1622</ele>
        <time>2026-06-26T11:21:59Z</time>
      </trkpt>
      <trkpt lat="46.06957" lon="6.77082">
        <ele>1621.8</ele>
        <time>2026-06-26T11:22:00Z</time>
      </trkpt>
      <trkpt lat="46.06957" lon="6.77081">
        <ele>1621.9</ele>
        <time>2026-06-26T11:22:01Z</time>
      </trkpt>
      <trkpt lat="46.06956" lon="6.7708">
        <ele>1621.7</ele>
        <time>2026-06-26T11:22:02Z</time>
      </trkpt>
      <trkpt lat="46.06955" lon="6.7708">
        <ele>1621.6</ele>
        <time>2026-06-26T11:22:03Z</time>
      </trkpt>
      <trkpt lat="46.06956" lon="6.7708">
        <ele>1621.4</ele>
        <time>2026-06-26T11:22:04Z</time>
      </trkpt>
      <trkpt lat="46.06957" lon="6.7708">
        <ele>1621.3</ele>
        <time>2026-06-26T11:22:05Z</time>
      </trkpt>
      <trkpt lat="46.06956" lon="6.77079">
        <ele>1621.2</ele>
        <time>2026-06-26T11:22:06Z</time>
      </trkpt>
      <trkpt lat="46.06957" lon="6.77078">
        <ele>1621.2</ele>
        <time>2026-06-26T11:22:07Z</time>
      </trkpt>
      <trkpt lat="46.06958" lon="6.77078">
        <ele>1621.1</ele>
        <time>2026-06-26T11:22:08Z</time>
      </trkpt>
      <trkpt lat="46.06958" lon="6.77076">
        <ele>1621.1</ele>
        <time>2026-06-26T11:22:09Z</time>
      </trkpt>
      <trkpt lat="46.06958" lon="6.77075">
        <ele>1621</ele>
        <time>2026-06-26T11:22:10Z</time>
      </trkpt>
      <trkpt lat="46.06958" lon="6.77075">
        <ele>1621</ele>
        <time>2026-06-26T11:22:11Z</time>
      </trkpt>
      <trkpt lat="46.06958" lon="6.77075">
        <ele>1621</ele>
        <time>2026-06-26T11:22:12Z</time>
      </trkpt>
      <trkpt lat="46.06958" lon="6.77074">
        <ele>1621</ele>
        <time>2026-06-26T11:22:13Z</time>
      </trkpt>
      <trkpt lat="46.06958" lon="6.77074">
        <ele>1621</ele>
        <time>2026-06-26T11:22:14Z</time>
      </trkpt>
      <trkpt lat="46.06958" lon="6.77074">
        <ele>1621</ele>
        <time>2026-06-26T11:22:15Z</time>
      </trkpt>
      <trkpt lat="46.06958" lon="6.77073">
        <ele>1621.1</ele>
        <time>2026-06-26T11:22:16Z</time>
      </trkpt>
      <trkpt lat="46.06958" lon="6.77073">
        <ele>1621</ele>
        <time>2026-06-26T11:22:17Z</time>
      </trkpt>
      <trkpt lat="46.06958" lon="6.77072">
        <ele>1620.9</ele>
        <time>2026-06-26T11:22:18Z</time>
      </trkpt>
      <trkpt lat="46.06957" lon="6.77071">
        <ele>1621</ele>
        <time>2026-06-26T11:22:19Z</time>
      </trkpt>
      <trkpt lat="46.06956" lon="6.7707">
        <ele>1621</ele>
        <time>2026-06-26T11:22:20Z</time>
      </trkpt>
      <trkpt lat="46.06956" lon="6.7707">
        <ele>1621.1</ele>
        <time>2026-06-26T11:22:21Z</time>
      </trkpt>
      <trkpt lat="46.06956" lon="6.77071">
        <ele>1621</ele>
        <time>2026-06-26T11:22:22Z</time>
      </trkpt>
      <trkpt lat="46.06956" lon="6.77071">
        <ele>1621</ele>
        <time>2026-06-26T11:22:23Z</time>
      </trkpt>
      <trkpt lat="46.06957" lon="6.77071">
        <ele>1621</ele>
        <time>2026-06-26T11:22:24Z</time>
      </trkpt>
      <trkpt lat="46.06957" lon="6.7707">
        <ele>1620.9</ele>
        <time>2026-06-26T11:22:25Z</time>
      </trkpt>
      <trkpt lat="46.06957" lon="6.77069">
        <ele>1620.9</ele>
        <time>2026-06-26T11:22:26Z</time>
      </trkpt>
      <trkpt lat="46.06957" lon="6.77068">
        <ele>1620.9</ele>
        <time>2026-06-26T11:22:27Z</time>
      </trkpt>
      <trkpt lat="46.06957" lon="6.77068">
        <ele>1620.9</ele>
        <time>2026-06-26T11:22:28Z</time>
      </trkpt>
      <trkpt lat="46.06957" lon="6.77068">
        <ele>1620.9</ele>
        <time>2026-06-26T11:22:29Z</time>
      </trkpt>
      <trkpt lat="46.06957" lon="6.77068">
        <ele>1620.9</ele>
        <time>2026-06-26T11:22:30Z</time>
      </trkpt>
      <trkpt lat="46.06957" lon="6.77066">
        <ele>1620.9</ele>
        <time>2026-06-26T11:22:31Z</time>
      </trkpt>
      <trkpt lat="46.06958" lon="6.77065">
        <ele>1620.8</ele>
        <time>2026-06-26T11:22:32Z</time>
      </trkpt>
      <trkpt lat="46.06958" lon="6.77064">
        <ele>1620.7</ele>
        <time>2026-06-26T11:22:33Z</time>
      </trkpt>
      <trkpt lat="46.06959" lon="6.77064">
        <ele>1620.5</ele>
        <time>2026-06-26T11:22:34Z</time>
      </trkpt>
      <trkpt lat="46.06959" lon="6.77062">
        <ele>1620.3</ele>
        <time>2026-06-26T11:22:35Z</time>
      </trkpt>
      <trkpt lat="46.0696" lon="6.77062">
        <ele>1620.2</ele>
        <time>2026-06-26T11:22:36Z</time>
      </trkpt>
      <trkpt lat="46.06961" lon="6.77061">
        <ele>1620.1</ele>
        <time>2026-06-26T11:22:37Z</time>
      </trkpt>
      <trkpt lat="46.06961" lon="6.77061">
        <ele>1620</ele>
        <time>2026-06-26T11:22:38Z</time>
      </trkpt>
      <trkpt lat="46.06961" lon="6.7706">
        <ele>1619.9</ele>
        <time>2026-06-26T11:22:39Z</time>
      </trkpt>
      <trkpt lat="46.06961" lon="6.77059">
        <ele>1619.8</ele>
        <time>2026-06-26T11:22:40Z</time>
      </trkpt>
      <trkpt lat="46.06962" lon="6.77059">
        <ele>1619.7</ele>
        <time>2026-06-26T11:22:41Z</time>
      </trkpt>
      <trkpt lat="46.06961" lon="6.77057">
        <ele>1619.5</ele>
        <time>2026-06-26T11:22:42Z</time>
      </trkpt>
      <trkpt lat="46.0696" lon="6.77055">
        <ele>1619.3</ele>
        <time>2026-06-26T11:22:43Z</time>
      </trkpt>
      <trkpt lat="46.0696" lon="6.77055">
        <ele>1619</ele>
        <time>2026-06-26T11:22:44Z</time>
      </trkpt>
      <trkpt lat="46.0696" lon="6.77054">
        <ele>1618.7</ele>
        <time>2026-06-26T11:22:45Z</time>
      </trkpt>
      <trkpt lat="46.0696" lon="6.77052">
        <ele>1618.4</ele>
        <time>2026-06-26T11:22:46Z</time>
      </trkpt>
      <trkpt lat="46.0696" lon="6.77051">
        <ele>1618.1</ele>
        <time>2026-06-26T11:22:47Z</time>
      </trkpt>
      <trkpt lat="46.0696" lon="6.7705">
        <ele>1617.7</ele>
        <time>2026-06-26T11:22:48Z</time>
      </trkpt>
      <trkpt lat="46.0696" lon="6.77048">
        <ele>1617.3</ele>
        <time>2026-06-26T11:22:49Z</time>
      </trkpt>
      <trkpt lat="46.06959" lon="6.77046">
        <ele>1617</ele>
        <time>2026-06-26T11:22:50Z</time>
      </trkpt>
      <trkpt lat="46.06959" lon="6.77045">
        <ele>1616.7</ele>
        <time>2026-06-26T11:22:51Z</time>
      </trkpt>
      <trkpt lat="46.06958" lon="6.77045">
        <ele>1616.5</ele>
        <time>2026-06-26T11:22:52Z</time>
      </trkpt>
      <trkpt lat="46.06957" lon="6.77045">
        <ele>1616.1</ele>
        <time>2026-06-26T11:22:53Z</time>
      </trkpt>
      <trkpt lat="46.06957" lon="6.77047">
        <ele>1615.8</ele>
        <time>2026-06-26T11:22:54Z</time>
      </trkpt>
      <trkpt lat="46.06956" lon="6.77047">
        <ele>1615.5</ele>
        <time>2026-06-26T11:22:55Z</time>
      </trkpt>
      <trkpt lat="46.06955" lon="6.77047">
        <ele>1615.1</ele>
        <time>2026-06-26T11:22:56Z</time>
      </trkpt>
      <trkpt lat="46.06954" lon="6.77048">
        <ele>1614.8</ele>
        <time>2026-06-26T11:22:57Z</time>
      </trkpt>
      <trkpt lat="46.06954" lon="6.77048">
        <ele>1614.6</ele>
        <time>2026-06-26T11:22:58Z</time>
      </trkpt>
      <trkpt lat="46.06953" lon="6.77048">
        <ele>1614.3</ele>
        <time>2026-06-26T11:22:59Z</time>
      </trkpt>
      <trkpt lat="46.06952" lon="6.77048">
        <ele>1614</ele>
        <time>2026-06-26T11:23:00Z</time>
      </trkpt>
      <trkpt lat="46.0695" lon="6.77046">
        <ele>1613.8</ele>
        <time>2026-06-26T11:23:01Z</time>
      </trkpt>
      <trkpt lat="46.0695" lon="6.77046">
        <ele>1613.5</ele>
        <time>2026-06-26T11:23:02Z</time>
      </trkpt>
      <trkpt lat="46.06948" lon="6.77045">
        <ele>1613.4</ele>
        <time>2026-06-26T11:23:03Z</time>
      </trkpt>
      <trkpt lat="46.06946" lon="6.77044">
        <ele>1613</ele>
        <time>2026-06-26T11:23:04Z</time>
      </trkpt>
      <trkpt lat="46.06944" lon="6.77044">
        <ele>1612.6</ele>
        <time>2026-06-26T11:23:05Z</time>
      </trkpt>
      <trkpt lat="46.06943" lon="6.77045">
        <ele>1612.2</ele>
        <time>2026-06-26T11:23:06Z</time>
      </trkpt>
      <trkpt lat="46.06942" lon="6.77044">
        <ele>1612</ele>
        <time>2026-06-26T11:23:07Z</time>
      </trkpt>
      <trkpt lat="46.06941" lon="6.77044">
        <ele>1611.9</ele>
        <time>2026-06-26T11:23:08Z</time>
      </trkpt>
      <trkpt lat="46.06939" lon="6.77043">
        <ele>1611.7</ele>
        <time>2026-06-26T11:23:09Z</time>
      </trkpt>
      <trkpt lat="46.06939" lon="6.77043">
        <ele>1611.5</ele>
        <time>2026-06-26T11:23:10Z</time>
      </trkpt>
      <trkpt lat="46.06937" lon="6.77041">
        <ele>1611.4</ele>
        <time>2026-06-26T11:23:11Z</time>
      </trkpt>
      <trkpt lat="46.06937" lon="6.7704">
        <ele>1611.1</ele>
        <time>2026-06-26T11:23:12Z</time>
      </trkpt>
      <trkpt lat="46.06937" lon="6.7704">
        <ele>1610.9</ele>
        <time>2026-06-26T11:23:13Z</time>
      </trkpt>
      <trkpt lat="46.06936" lon="6.7704">
        <ele>1610.7</ele>
        <time>2026-06-26T11:23:14Z</time>
      </trkpt>
      <trkpt lat="46.06936" lon="6.77039">
        <ele>1610.4</ele>
        <time>2026-06-26T11:23:15Z</time>
      </trkpt>
      <trkpt lat="46.06935" lon="6.77038">
        <ele>1610.1</ele>
        <time>2026-06-26T11:23:16Z</time>
      </trkpt>
      <trkpt lat="46.06935" lon="6.77038">
        <ele>1609.8</ele>
        <time>2026-06-26T11:23:17Z</time>
      </trkpt>
      <trkpt lat="46.06935" lon="6.77038">
        <ele>1609.6</ele>
        <time>2026-06-26T11:23:18Z</time>
      </trkpt>
      <trkpt lat="46.06935" lon="6.77037">
        <ele>1609.4</ele>
        <time>2026-06-26T11:23:19Z</time>
      </trkpt>
      <trkpt lat="46.06935" lon="6.77037">
        <ele>1609.2</ele>
        <time>2026-06-26T11:23:20Z</time>
      </trkpt>
      <trkpt lat="46.06934" lon="6.77036">
        <ele>1608.9</ele>
        <time>2026-06-26T11:23:21Z</time>
      </trkpt>
      <trkpt lat="46.06934" lon="6.77036">
        <ele>1608.7</ele>
        <time>2026-06-26T11:23:22Z</time>
      </trkpt>
      <trkpt lat="46.06934" lon="6.77035">
        <ele>1608.5</ele>
        <time>2026-06-26T11:23:23Z</time>
      </trkpt>
      <trkpt lat="46.06934" lon="6.77036">
        <ele>1608.2</ele>
        <time>2026-06-26T11:23:24Z</time>
      </trkpt>
      <trkpt lat="46.06934" lon="6.77034">
        <ele>1608</ele>
        <time>2026-06-26T11:23:25Z</time>
      </trkpt>
      <trkpt lat="46.06934" lon="6.77035">
        <ele>1607.7</ele>
        <time>2026-06-26T11:23:26Z</time>
      </trkpt>
      <trkpt lat="46.06934" lon="6.77034">
        <ele>1607.5</ele>
        <time>2026-06-26T11:23:27Z</time>
      </trkpt>
      <trkpt lat="46.06934" lon="6.77033">
        <ele>1607.3</ele>
        <time>2026-06-26T11:23:28Z</time>
      </trkpt>
      <trkpt lat="46.06934" lon="6.77033">
        <ele>1607.1</ele>
        <time>2026-06-26T11:23:29Z</time>
      </trkpt>
      <trkpt lat="46.06934" lon="6.77032">
        <ele>1606.7</ele>
        <time>2026-06-26T11:23:30Z</time>
      </trkpt>
      <trkpt lat="46.06934" lon="6.77032">
        <ele>1606.5</ele>
        <time>2026-06-26T11:23:31Z</time>
      </trkpt>
      <trkpt lat="46.06934" lon="6.77031">
        <ele>1606.2</ele>
        <time>2026-06-26T11:23:32Z</time>
      </trkpt>
      <trkpt lat="46.06935" lon="6.77031">
        <ele>1606</ele>
        <time>2026-06-26T11:23:33Z</time>
      </trkpt>
      <trkpt lat="46.06935" lon="6.7703">
        <ele>1605.7</ele>
        <time>2026-06-26T11:23:34Z</time>
      </trkpt>
      <trkpt lat="46.06934" lon="6.77028">
        <ele>1605.5</ele>
        <time>2026-06-26T11:23:35Z</time>
      </trkpt>
      <trkpt lat="46.06934" lon="6.77027">
        <ele>1605.3</ele>
        <time>2026-06-26T11:23:36Z</time>
      </trkpt>
      <trkpt lat="46.06934" lon="6.77025">
        <ele>1605.1</ele>
        <time>2026-06-26T11:23:37Z</time>
      </trkpt>
      <trkpt lat="46.06934" lon="6.77024">
        <ele>1604.9</ele>
        <time>2026-06-26T11:23:38Z</time>
      </trkpt>
      <trkpt lat="46.06934" lon="6.77022">
        <ele>1604.7</ele>
        <time>2026-06-26T11:23:39Z</time>
      </trkpt>
      <trkpt lat="46.06934" lon="6.77021">
        <ele>1604.5</ele>
        <time>2026-06-26T11:23:40Z</time>
      </trkpt>
      <trkpt lat="46.06934" lon="6.7702">
        <ele>1604.3</ele>
        <time>2026-06-26T11:23:41Z</time>
      </trkpt>
      <trkpt lat="46.06934" lon="6.77019">
        <ele>1604</ele>
        <time>2026-06-26T11:23:42Z</time>
      </trkpt>
      <trkpt lat="46.06934" lon="6.77017">
        <ele>1603.7</ele>
        <time>2026-06-26T11:23:43Z</time>
      </trkpt>
      <trkpt lat="46.06934" lon="6.77017">
        <ele>1603.5</ele>
        <time>2026-06-26T11:23:44Z</time>
      </trkpt>
      <trkpt lat="46.06934" lon="6.77016">
        <ele>1603.3</ele>
        <time>2026-06-26T11:23:45Z</time>
      </trkpt>
      <trkpt lat="46.06935" lon="6.77015">
        <ele>1603</ele>
        <time>2026-06-26T11:23:46Z</time>
      </trkpt>
      <trkpt lat="46.06935" lon="6.77014">
        <ele>1602.6</ele>
        <time>2026-06-26T11:23:47Z</time>
      </trkpt>
      <trkpt lat="46.06936" lon="6.77014">
        <ele>1602.4</ele>
        <time>2026-06-26T11:23:48Z</time>
      </trkpt>
      <trkpt lat="46.06935" lon="6.77013">
        <ele>1602.1</ele>
        <time>2026-06-26T11:23:49Z</time>
      </trkpt>
      <trkpt lat="46.06936" lon="6.77012">
        <ele>1601.9</ele>
        <time>2026-06-26T11:23:50Z</time>
      </trkpt>
      <trkpt lat="46.06935" lon="6.77011">
        <ele>1601.7</ele>
        <time>2026-06-26T11:23:51Z</time>
      </trkpt>
      <trkpt lat="46.06935" lon="6.7701">
        <ele>1601.3</ele>
        <time>2026-06-26T11:23:52Z</time>
      </trkpt>
      <trkpt lat="46.06936" lon="6.7701">
        <ele>1601</ele>
        <time>2026-06-26T11:23:53Z</time>
      </trkpt>
      <trkpt lat="46.06936" lon="6.7701">
        <ele>1600.8</ele>
        <time>2026-06-26T11:23:54Z</time>
      </trkpt>
      <trkpt lat="46.06936" lon="6.77009">
        <ele>1600.4</ele>
        <time>2026-06-26T11:23:55Z</time>
      </trkpt>
      <trkpt lat="46.06936" lon="6.7701">
        <ele>1600.3</ele>
        <time>2026-06-26T11:23:56Z</time>
      </trkpt>
      <trkpt lat="46.06937" lon="6.77011">
        <ele>1600.3</ele>
        <time>2026-06-26T11:23:57Z</time>
      </trkpt>
      <trkpt lat="46.06938" lon="6.77011">
        <ele>1600.2</ele>
        <time>2026-06-26T11:23:58Z</time>
      </trkpt>
      <trkpt lat="46.06938" lon="6.7701">
        <ele>1600.2</ele>
        <time>2026-06-26T11:23:59Z</time>
      </trkpt>
      <trkpt lat="46.06939" lon="6.77011">
        <ele>1600.1</ele>
        <time>2026-06-26T11:24:00Z</time>
      </trkpt>
      <trkpt lat="46.06939" lon="6.77011">
        <ele>1600</ele>
        <time>2026-06-26T11:24:01Z</time>
      </trkpt>
      <trkpt lat="46.06939" lon="6.77011">
        <ele>1599.9</ele>
        <time>2026-06-26T11:24:02Z</time>
      </trkpt>
      <trkpt lat="46.06939" lon="6.77011">
        <ele>1599.9</ele>
        <time>2026-06-26T11:24:03Z</time>
      </trkpt>
      <trkpt lat="46.0694" lon="6.77011">
        <ele>1599.8</ele>
        <time>2026-06-26T11:24:04Z</time>
      </trkpt>
      <trkpt lat="46.0694" lon="6.77011">
        <ele>1599.8</ele>
        <time>2026-06-26T11:24:05Z</time>
      </trkpt>
      <trkpt lat="46.0694" lon="6.77011">
        <ele>1599.8</ele>
        <time>2026-06-26T11:24:06Z</time>
      </trkpt>
      <trkpt lat="46.0694" lon="6.77011">
        <ele>1599.8</ele>
        <time>2026-06-26T11:24:07Z</time>
      </trkpt>
      <trkpt lat="46.0694" lon="6.77012">
        <ele>1599.7</ele>
        <time>2026-06-26T11:24:08Z</time>
      </trkpt>
      <trkpt lat="46.06941" lon="6.77012">
        <ele>1599.7</ele>
        <time>2026-06-26T11:24:09Z</time>
      </trkpt>
      <trkpt lat="46.06941" lon="6.77012">
        <ele>1599.7</ele>
        <time>2026-06-26T11:24:10Z</time>
      </trkpt>
      <trkpt lat="46.06941" lon="6.77012">
        <ele>1599.7</ele>
        <time>2026-06-26T11:24:11Z</time>
      </trkpt>
      <trkpt lat="46.06942" lon="6.77012">
        <ele>1599.7</ele>
        <time>2026-06-26T11:24:12Z</time>
      </trkpt>
      <trkpt lat="46.06942" lon="6.77013">
        <ele>1599.7</ele>
        <time>2026-06-26T11:24:13Z</time>
      </trkpt>
      <trkpt lat="46.06942" lon="6.77013">
        <ele>1599.7</ele>
        <time>2026-06-26T11:24:14Z</time>
      </trkpt>
      <trkpt lat="46.06942" lon="6.77013">
        <ele>1599.7</ele>
        <time>2026-06-26T11:24:15Z</time>
      </trkpt>
      <trkpt lat="46.06942" lon="6.77013">
        <ele>1599.8</ele>
        <time>2026-06-26T11:24:16Z</time>
      </trkpt>
      <trkpt lat="46.06943" lon="6.77014">
        <ele>1599.8</ele>
        <time>2026-06-26T11:24:17Z</time>
      </trkpt>
      <trkpt lat="46.06943" lon="6.77014">
        <ele>1599.7</ele>
        <time>2026-06-26T11:24:18Z</time>
      </trkpt>
      <trkpt lat="46.06943" lon="6.77014">
        <ele>1599.7</ele>
        <time>2026-06-26T11:24:19Z</time>
      </trkpt>
      <trkpt lat="46.06944" lon="6.77015">
        <ele>1599.6</ele>
        <time>2026-06-26T11:24:20Z</time>
      </trkpt>
      <trkpt lat="46.06944" lon="6.77016">
        <ele>1599.6</ele>
        <time>2026-06-26T11:24:21Z</time>
      </trkpt>
      <trkpt lat="46.06945" lon="6.77016">
        <ele>1599.6</ele>
        <time>2026-06-26T11:24:22Z</time>
      </trkpt>
      <trkpt lat="46.06945" lon="6.77017">
        <ele>1599.6</ele>
        <time>2026-06-26T11:24:23Z</time>
      </trkpt>
      <trkpt lat="46.06946" lon="6.77018">
        <ele>1599.5</ele>
        <time>2026-06-26T11:24:24Z</time>
      </trkpt>
      <trkpt lat="46.06946" lon="6.77018">
        <ele>1599.6</ele>
        <time>2026-06-26T11:24:25Z</time>
      </trkpt>
      <trkpt lat="46.06947" lon="6.77018">
        <ele>1599.5</ele>
        <time>2026-06-26T11:24:26Z</time>
      </trkpt>
      <trkpt lat="46.06947" lon="6.77018">
        <ele>1599.5</ele>
        <time>2026-06-26T11:24:27Z</time>
      </trkpt>
      <trkpt lat="46.06948" lon="6.77019">
        <ele>1599.5</ele>
        <time>2026-06-26T11:24:28Z</time>
      </trkpt>
      <trkpt lat="46.06949" lon="6.77021">
        <ele>1599.5</ele>
        <time>2026-06-26T11:24:29Z</time>
      </trkpt>
      <trkpt lat="46.06949" lon="6.77021">
        <ele>1599.5</ele>
        <time>2026-06-26T11:24:30Z</time>
      </trkpt>
      <trkpt lat="46.06949" lon="6.77021">
        <ele>1599.6</ele>
        <time>2026-06-26T11:24:31Z</time>
      </trkpt>
      <trkpt lat="46.06949" lon="6.77021">
        <ele>1599.7</ele>
        <time>2026-06-26T11:24:32Z</time>
      </trkpt>
      <trkpt lat="46.0695" lon="6.77022">
        <ele>1599.6</ele>
        <time>2026-06-26T11:24:33Z</time>
      </trkpt>
      <trkpt lat="46.0695" lon="6.77022">
        <ele>1599.6</ele>
        <time>2026-06-26T11:24:34Z</time>
      </trkpt>
      <trkpt lat="46.0695" lon="6.77023">
        <ele>1599.6</ele>
        <time>2026-06-26T11:24:35Z</time>
      </trkpt>
      <trkpt lat="46.0695" lon="6.77023">
        <ele>1599.6</ele>
        <time>2026-06-26T11:24:36Z</time>
      </trkpt>
      <trkpt lat="46.0695" lon="6.77023">
        <ele>1599.6</ele>
        <time>2026-06-26T11:24:37Z</time>
      </trkpt>
      <trkpt lat="46.0695" lon="6.77023">
        <ele>1599.6</ele>
        <time>2026-06-26T11:24:38Z</time>
      </trkpt>
      <trkpt lat="46.0695" lon="6.77024">
        <ele>1599.7</ele>
        <time>2026-06-26T11:24:39Z</time>
      </trkpt>
      <trkpt lat="46.0695" lon="6.77024">
        <ele>1599.6</ele>
        <time>2026-06-26T11:24:40Z</time>
      </trkpt>
      <trkpt lat="46.0695" lon="6.77025">
        <ele>1599.6</ele>
        <time>2026-06-26T11:24:41Z</time>
      </trkpt>
      <trkpt lat="46.0695" lon="6.77025">
        <ele>1599.6</ele>
        <time>2026-06-26T11:24:42Z</time>
      </trkpt>
      <trkpt lat="46.0695" lon="6.77025">
        <ele>1599.6</ele>
        <time>2026-06-26T11:24:43Z</time>
      </trkpt>
      <trkpt lat="46.0695" lon="6.77025">
        <ele>1599.6</ele>
        <time>2026-06-26T11:24:44Z</time>
      </trkpt>
      <trkpt lat="46.0695" lon="6.77025">
        <ele>1599.7</ele>
        <time>2026-06-26T11:24:45Z</time>
      </trkpt>
      <trkpt lat="46.06949" lon="6.77025">
        <ele>1599.7</ele>
        <time>2026-06-26T11:24:46Z</time>
      </trkpt>
      <trkpt lat="46.06949" lon="6.77026">
        <ele>1599.7</ele>
        <time>2026-06-26T11:24:47Z</time>
      </trkpt>
      <trkpt lat="46.06949" lon="6.77026">
        <ele>1599.7</ele>
        <time>2026-06-26T11:24:48Z</time>
      </trkpt>
      <trkpt lat="46.06949" lon="6.77026">
        <ele>1599.8</ele>
        <time>2026-06-26T11:24:49Z</time>
      </trkpt>
      <trkpt lat="46.06949" lon="6.77026">
        <ele>1599.8</ele>
        <time>2026-06-26T11:24:50Z</time>
      </trkpt>
      <trkpt lat="46.06949" lon="6.77026">
        <ele>1599.8</ele>
        <time>2026-06-26T11:24:51Z</time>
      </trkpt>
      <trkpt lat="46.06948" lon="6.77025">
        <ele>1599.8</ele>
        <time>2026-06-26T11:24:52Z</time>
      </trkpt>
      <trkpt lat="46.06948" lon="6.77025">
        <ele>1599.9</ele>
        <time>2026-06-26T11:24:53Z</time>
      </trkpt>
      <trkpt lat="46.06948" lon="6.77025">
        <ele>1599.9</ele>
        <time>2026-06-26T11:24:54Z</time>
      </trkpt>
      <trkpt lat="46.06948" lon="6.77025">
        <ele>1599.8</ele>
        <time>2026-06-26T11:24:55Z</time>
      </trkpt>
      <trkpt lat="46.06948" lon="6.77025">
        <ele>1599.7</ele>
        <time>2026-06-26T11:24:56Z</time>
      </trkpt>
      <trkpt lat="46.06947" lon="6.77025">
        <ele>1599.7</ele>
        <time>2026-06-26T11:24:57Z</time>
      </trkpt>
      <trkpt lat="46.06947" lon="6.77024">
        <ele>1599.7</ele>
        <time>2026-06-26T11:24:58Z</time>
      </trkpt>
      <trkpt lat="46.06947" lon="6.77024">
        <ele>1599.7</ele>
        <time>2026-06-26T11:24:59Z</time>
      </trkpt>
      <trkpt lat="46.06947" lon="6.77023">
        <ele>1599.7</ele>
        <time>2026-06-26T11:25:00Z</time>
      </trkpt>
      <trkpt lat="46.06947" lon="6.77023">
        <ele>1599.8</ele>
        <time>2026-06-26T11:25:01Z</time>
      </trkpt>
      <trkpt lat="46.06947" lon="6.77023">
        <ele>1599.7</ele>
        <time>2026-06-26T11:25:02Z</time>
      </trkpt>
      <trkpt lat="46.06947" lon="6.77023">
        <ele>1599.8</ele>
        <time>2026-06-26T11:25:03Z</time>
      </trkpt>
      <trkpt lat="46.06947" lon="6.77023">
        <ele>1599.8</ele>
        <time>2026-06-26T11:25:04Z</time>
      </trkpt>
      <trkpt lat="46.06947" lon="6.77023">
        <ele>1599.9</ele>
        <time>2026-06-26T11:25:05Z</time>
      </trkpt>
      <trkpt lat="46.06947" lon="6.77022">
        <ele>1599.9</ele>
        <time>2026-06-26T11:25:06Z</time>
      </trkpt>
      <trkpt lat="46.06947" lon="6.77022">
        <ele>1599.9</ele>
        <time>2026-06-26T11:25:07Z</time>
      </trkpt>
      <trkpt lat="46.06947" lon="6.77022">
        <ele>1600</ele>
        <time>2026-06-26T11:25:08Z</time>
      </trkpt>
      <trkpt lat="46.06947" lon="6.77022">
        <ele>1600</ele>
        <time>2026-06-26T11:25:09Z</time>
      </trkpt>
      <trkpt lat="46.06946" lon="6.77021">
        <ele>1599.9</ele>
        <time>2026-06-26T11:25:10Z</time>
      </trkpt>
      <trkpt lat="46.06946" lon="6.77021">
        <ele>1599.9</ele>
        <time>2026-06-26T11:25:11Z</time>
      </trkpt>
      <trkpt lat="46.06946" lon="6.77021">
        <ele>1599.9</ele>
        <time>2026-06-26T11:25:12Z</time>
      </trkpt>
      <trkpt lat="46.06946" lon="6.7702">
        <ele>1599.9</ele>
        <time>2026-06-26T11:25:13Z</time>
      </trkpt>
      <trkpt lat="46.06946" lon="6.7702">
        <ele>1599.8</ele>
        <time>2026-06-26T11:25:14Z</time>
      </trkpt>
      <trkpt lat="46.06946" lon="6.7702">
        <ele>1599.8</ele>
        <time>2026-06-26T11:25:15Z</time>
      </trkpt>
      <trkpt lat="46.06946" lon="6.7702">
        <ele>1599.8</ele>
        <time>2026-06-26T11:25:16Z</time>
      </trkpt>
      <trkpt lat="46.06946" lon="6.77019">
        <ele>1599.8</ele>
        <time>2026-06-26T11:25:17Z</time>
      </trkpt>
      <trkpt lat="46.06946" lon="6.77019">
        <ele>1599.9</ele>
        <time>2026-06-26T11:25:18Z</time>
      </trkpt>
      <trkpt lat="46.06946" lon="6.77018">
        <ele>1599.9</ele>
        <time>2026-06-26T11:25:19Z</time>
      </trkpt>
      <trkpt lat="46.06946" lon="6.77018">
        <ele>1599.9</ele>
        <time>2026-06-26T11:25:20Z</time>
      </trkpt>
      <trkpt lat="46.06947" lon="6.77018">
        <ele>1600</ele>
        <time>2026-06-26T11:25:21Z</time>
      </trkpt>
      <trkpt lat="46.06947" lon="6.77018">
        <ele>1600</ele>
        <time>2026-06-26T11:25:22Z</time>
      </trkpt>
      <trkpt lat="46.06945" lon="6.77017">
        <ele>1600.1</ele>
        <time>2026-06-26T11:25:23Z</time>
      </trkpt>
      <trkpt lat="46.06945" lon="6.77016">
        <ele>1600.1</ele>
        <time>2026-06-26T11:25:24Z</time>
      </trkpt>
      <trkpt lat="46.06944" lon="6.77015">
        <ele>1600</ele>
        <time>2026-06-26T11:25:25Z</time>
      </trkpt>
      <trkpt lat="46.06944" lon="6.77015">
        <ele>1599.9</ele>
        <time>2026-06-26T11:25:26Z</time>
      </trkpt>
      <trkpt lat="46.06944" lon="6.77016">
        <ele>1599.9</ele>
        <time>2026-06-26T11:25:27Z</time>
      </trkpt>
      <trkpt lat="46.06944" lon="6.77015">
        <ele>1599.9</ele>
        <time>2026-06-26T11:25:28Z</time>
      </trkpt>
      <trkpt lat="46.06943" lon="6.77015">
        <ele>1599.9</ele>
        <time>2026-06-26T11:25:29Z</time>
      </trkpt>
      <trkpt lat="46.06944" lon="6.77015">
        <ele>1599.9</ele>
        <time>2026-06-26T11:25:30Z</time>
      </trkpt>
      <trkpt lat="46.06943" lon="6.77015">
        <ele>1599.9</ele>
        <time>2026-06-26T11:25:31Z</time>
      </trkpt>
      <trkpt lat="46.06943" lon="6.77015">
        <ele>1599.9</ele>
        <time>2026-06-26T11:25:32Z</time>
      </trkpt>
      <trkpt lat="46.06943" lon="6.77015">
        <ele>1599.8</ele>
        <time>2026-06-26T11:25:33Z</time>
      </trkpt>
      <trkpt lat="46.06943" lon="6.77014">
        <ele>1599.7</ele>
        <time>2026-06-26T11:25:34Z</time>
      </trkpt>
      <trkpt lat="46.06943" lon="6.77014">
        <ele>1599.7</ele>
        <time>2026-06-26T11:25:35Z</time>
      </trkpt>
      <trkpt lat="46.06943" lon="6.77014">
        <ele>1599.6</ele>
        <time>2026-06-26T11:25:36Z</time>
      </trkpt>
      <trkpt lat="46.06942" lon="6.77013">
        <ele>1599.7</ele>
        <time>2026-06-26T11:25:37Z</time>
      </trkpt>
      <trkpt lat="46.06942" lon="6.77013">
        <ele>1599.7</ele>
        <time>2026-06-26T11:25:38Z</time>
      </trkpt>
      <trkpt lat="46.06942" lon="6.77013">
        <ele>1599.7</ele>
        <time>2026-06-26T11:25:39Z</time>
      </trkpt>
      <trkpt lat="46.06942" lon="6.77013">
        <ele>1599.7</ele>
        <time>2026-06-26T11:25:40Z</time>
      </trkpt>
      <trkpt lat="46.06943" lon="6.77013">
        <ele>1599.7</ele>
        <time>2026-06-26T11:25:41Z</time>
      </trkpt>
      <trkpt lat="46.06943" lon="6.77013">
        <ele>1599.7</ele>
        <time>2026-06-26T11:25:42Z</time>
      </trkpt>
      <trkpt lat="46.06943" lon="6.77013">
        <ele>1599.6</ele>
        <time>2026-06-26T11:25:43Z</time>
      </trkpt>
      <trkpt lat="46.06943" lon="6.77013">
        <ele>1599.6</ele>
        <time>2026-06-26T11:25:44Z</time>
      </trkpt>
      <trkpt lat="46.06943" lon="6.77012">
        <ele>1599.6</ele>
        <time>2026-06-26T11:25:45Z</time>
      </trkpt>
      <trkpt lat="46.06943" lon="6.77012">
        <ele>1599.7</ele>
        <time>2026-06-26T11:25:46Z</time>
      </trkpt>
      <trkpt lat="46.06943" lon="6.77012">
        <ele>1599.7</ele>
        <time>2026-06-26T11:25:47Z</time>
      </trkpt>
      <trkpt lat="46.06943" lon="6.77012">
        <ele>1599.7</ele>
        <time>2026-06-26T11:25:48Z</time>
      </trkpt>
      <trkpt lat="46.06943" lon="6.77012">
        <ele>1599.7</ele>
        <time>2026-06-26T11:25:49Z</time>
      </trkpt>
      <trkpt lat="46.06944" lon="6.77012">
        <ele>1599.7</ele>
        <time>2026-06-26T11:25:50Z</time>
      </trkpt>
      <trkpt lat="46.06944" lon="6.77012">
        <ele>1599.7</ele>
        <time>2026-06-26T11:25:51Z</time>
      </trkpt>
      <trkpt lat="46.06944" lon="6.77012">
        <ele>1599.7</ele>
        <time>2026-06-26T11:25:52Z</time>
      </trkpt>
      <trkpt lat="46.06944" lon="6.77012">
        <ele>1599.7</ele>
        <time>2026-06-26T11:25:53Z</time>
      </trkpt>
      <trkpt lat="46.06944" lon="6.77012">
        <ele>1599.7</ele>
        <time>2026-06-26T11:25:54Z</time>
      </trkpt>
      <trkpt lat="46.06944" lon="6.77012">
        <ele>1599.7</ele>
        <time>2026-06-26T11:25:55Z</time>
      </trkpt>
      <trkpt lat="46.06944" lon="6.77012">
        <ele>1599.8</ele>
        <time>2026-06-26T11:25:56Z</time>
      </trkpt>
      <trkpt lat="46.06944" lon="6.77011">
        <ele>1599.6</ele>
        <time>2026-06-26T11:25:57Z</time>
      </trkpt>
      <trkpt lat="46.06944" lon="6.7701">
        <ele>1599.4</ele>
        <time>2026-06-26T11:25:58Z</time>
      </trkpt>
      <trkpt lat="46.06943" lon="6.7701">
        <ele>1599.2</ele>
        <time>2026-06-26T11:25:59Z</time>
      </trkpt>
      <trkpt lat="46.06943" lon="6.77009">
        <ele>1599</ele>
        <time>2026-06-26T11:26:00Z</time>
      </trkpt>
      <trkpt lat="46.06943" lon="6.77008">
        <ele>1598.8</ele>
        <time>2026-06-26T11:26:01Z</time>
      </trkpt>
      <trkpt lat="46.06943" lon="6.77006">
        <ele>1598.7</ele>
        <time>2026-06-26T11:26:02Z</time>
      </trkpt>
      <trkpt lat="46.06943" lon="6.77005">
        <ele>1598.4</ele>
        <time>2026-06-26T11:26:03Z</time>
      </trkpt>
      <trkpt lat="46.06942" lon="6.77004">
        <ele>1598.3</ele>
        <time>2026-06-26T11:26:04Z</time>
      </trkpt>
      <trkpt lat="46.06941" lon="6.77003">
        <ele>1598.1</ele>
        <time>2026-06-26T11:26:05Z</time>
      </trkpt>
      <trkpt lat="46.06941" lon="6.77004">
        <ele>1597.9</ele>
        <time>2026-06-26T11:26:06Z</time>
      </trkpt>
      <trkpt lat="46.0694" lon="6.77003">
        <ele>1597.8</ele>
        <time>2026-06-26T11:26:07Z</time>
      </trkpt>
      <trkpt lat="46.06939" lon="6.77002">
        <ele>1597.5</ele>
        <time>2026-06-26T11:26:08Z</time>
      </trkpt>
      <trkpt lat="46.06938" lon="6.77002">
        <ele>1597.3</ele>
        <time>2026-06-26T11:26:09Z</time>
      </trkpt>
      <trkpt lat="46.06938" lon="6.77002">
        <ele>1597.1</ele>
        <time>2026-06-26T11:26:10Z</time>
      </trkpt>
      <trkpt lat="46.06937" lon="6.77001">
        <ele>1596.8</ele>
        <time>2026-06-26T11:26:11Z</time>
      </trkpt>
      <trkpt lat="46.06936" lon="6.76999">
        <ele>1596.5</ele>
        <time>2026-06-26T11:26:12Z</time>
      </trkpt>
      <trkpt lat="46.06935" lon="6.76998">
        <ele>1596.3</ele>
        <time>2026-06-26T11:26:13Z</time>
      </trkpt>
      <trkpt lat="46.06935" lon="6.76998">
        <ele>1596.1</ele>
        <time>2026-06-26T11:26:14Z</time>
      </trkpt>
      <trkpt lat="46.06933" lon="6.76997">
        <ele>1595.8</ele>
        <time>2026-06-26T11:26:15Z</time>
      </trkpt>
      <trkpt lat="46.06933" lon="6.76996">
        <ele>1595.5</ele>
        <time>2026-06-26T11:26:16Z</time>
      </trkpt>
      <trkpt lat="46.06932" lon="6.76995">
        <ele>1595.3</ele>
        <time>2026-06-26T11:26:17Z</time>
      </trkpt>
      <trkpt lat="46.0693" lon="6.76993">
        <ele>1595.1</ele>
        <time>2026-06-26T11:26:18Z</time>
      </trkpt>
      <trkpt lat="46.0693" lon="6.76992">
        <ele>1595</ele>
        <time>2026-06-26T11:26:19Z</time>
      </trkpt>
      <trkpt lat="46.0693" lon="6.76991">
        <ele>1594.8</ele>
        <time>2026-06-26T11:26:20Z</time>
      </trkpt>
      <trkpt lat="46.06929" lon="6.76989">
        <ele>1594.6</ele>
        <time>2026-06-26T11:26:21Z</time>
      </trkpt>
      <trkpt lat="46.06929" lon="6.76988">
        <ele>1594.4</ele>
        <time>2026-06-26T11:26:22Z</time>
      </trkpt>
      <trkpt lat="46.06929" lon="6.76987">
        <ele>1594.3</ele>
        <time>2026-06-26T11:26:23Z</time>
      </trkpt>
      <trkpt lat="46.06929" lon="6.76987">
        <ele>1594.1</ele>
        <time>2026-06-26T11:26:24Z</time>
      </trkpt>
      <trkpt lat="46.06929" lon="6.76986">
        <ele>1594</ele>
        <time>2026-06-26T11:26:25Z</time>
      </trkpt>
      <trkpt lat="46.06929" lon="6.76986">
        <ele>1593.8</ele>
        <time>2026-06-26T11:26:26Z</time>
      </trkpt>
      <trkpt lat="46.06928" lon="6.76984">
        <ele>1593.6</ele>
        <time>2026-06-26T11:26:27Z</time>
      </trkpt>
      <trkpt lat="46.06928" lon="6.76984">
        <ele>1593.4</ele>
        <time>2026-06-26T11:26:28Z</time>
      </trkpt>
      <trkpt lat="46.06928" lon="6.76983">
        <ele>1593.2</ele>
        <time>2026-06-26T11:26:29Z</time>
      </trkpt>
      <trkpt lat="46.06928" lon="6.76981">
        <ele>1593</ele>
        <time>2026-06-26T11:26:30Z</time>
      </trkpt>
      <trkpt lat="46.06928" lon="6.7698">
        <ele>1592.9</ele>
        <time>2026-06-26T11:26:31Z</time>
      </trkpt>
      <trkpt lat="46.06929" lon="6.76979">
        <ele>1592.7</ele>
        <time>2026-06-26T11:26:32Z</time>
      </trkpt>
      <trkpt lat="46.0693" lon="6.76978">
        <ele>1592.6</ele>
        <time>2026-06-26T11:26:33Z</time>
      </trkpt>
      <trkpt lat="46.06931" lon="6.76977">
        <ele>1592.4</ele>
        <time>2026-06-26T11:26:34Z</time>
      </trkpt>
      <trkpt lat="46.06931" lon="6.76976">
        <ele>1592.3</ele>
        <time>2026-06-26T11:26:35Z</time>
      </trkpt>
      <trkpt lat="46.06932" lon="6.76976">
        <ele>1592.3</ele>
        <time>2026-06-26T11:26:36Z</time>
      </trkpt>
      <trkpt lat="46.06932" lon="6.76975">
        <ele>1592.3</ele>
        <time>2026-06-26T11:26:37Z</time>
      </trkpt>
      <trkpt lat="46.06932" lon="6.76974">
        <ele>1592.3</ele>
        <time>2026-06-26T11:26:38Z</time>
      </trkpt>
      <trkpt lat="46.06932" lon="6.76972">
        <ele>1592.1</ele>
        <time>2026-06-26T11:26:39Z</time>
      </trkpt>
      <trkpt lat="46.06933" lon="6.76972">
        <ele>1591.9</ele>
        <time>2026-06-26T11:26:40Z</time>
      </trkpt>
      <trkpt lat="46.06933" lon="6.76971">
        <ele>1591.7</ele>
        <time>2026-06-26T11:26:41Z</time>
      </trkpt>
      <trkpt lat="46.06933" lon="6.76969">
        <ele>1591.5</ele>
        <time>2026-06-26T11:26:42Z</time>
      </trkpt>
      <trkpt lat="46.06933" lon="6.76969">
        <ele>1591.4</ele>
        <time>2026-06-26T11:26:43Z</time>
      </trkpt>
      <trkpt lat="46.06933" lon="6.76967">
        <ele>1591.2</ele>
        <time>2026-06-26T11:26:44Z</time>
      </trkpt>
      <trkpt lat="46.06933" lon="6.76965">
        <ele>1590.9</ele>
        <time>2026-06-26T11:26:45Z</time>
      </trkpt>
      <trkpt lat="46.06933" lon="6.76963">
        <ele>1590.7</ele>
        <time>2026-06-26T11:26:46Z</time>
      </trkpt>
      <trkpt lat="46.06933" lon="6.76962">
        <ele>1590.6</ele>
        <time>2026-06-26T11:26:47Z</time>
      </trkpt>
      <trkpt lat="46.06933" lon="6.76961">
        <ele>1590.3</ele>
        <time>2026-06-26T11:26:48Z</time>
      </trkpt>
      <trkpt lat="46.06933" lon="6.7696">
        <ele>1590.1</ele>
        <time>2026-06-26T11:26:49Z</time>
      </trkpt>
      <trkpt lat="46.06932" lon="6.76959">
        <ele>1589.8</ele>
        <time>2026-06-26T11:26:50Z</time>
      </trkpt>
      <trkpt lat="46.06932" lon="6.76958">
        <ele>1589.5</ele>
        <time>2026-06-26T11:26:51Z</time>
      </trkpt>
      <trkpt lat="46.06931" lon="6.76957">
        <ele>1589.3</ele>
        <time>2026-06-26T11:26:52Z</time>
      </trkpt>
      <trkpt lat="46.0693" lon="6.76956">
        <ele>1589.1</ele>
        <time>2026-06-26T11:26:53Z</time>
      </trkpt>
      <trkpt lat="46.06929" lon="6.76956">
        <ele>1589</ele>
        <time>2026-06-26T11:26:54Z</time>
      </trkpt>
      <trkpt lat="46.06929" lon="6.76956">
        <ele>1588.8</ele>
        <time>2026-06-26T11:26:55Z</time>
      </trkpt>
      <trkpt lat="46.06928" lon="6.76956">
        <ele>1588.7</ele>
        <time>2026-06-26T11:26:56Z</time>
      </trkpt>
      <trkpt lat="46.06927" lon="6.76955">
        <ele>1588.6</ele>
        <time>2026-06-26T11:26:57Z</time>
      </trkpt>
      <trkpt lat="46.06926" lon="6.76954">
        <ele>1588.3</ele>
        <time>2026-06-26T11:26:58Z</time>
      </trkpt>
      <trkpt lat="46.06926" lon="6.76953">
        <ele>1588</ele>
        <time>2026-06-26T11:26:59Z</time>
      </trkpt>
      <trkpt lat="46.06925" lon="6.76952">
        <ele>1587.7</ele>
        <time>2026-06-26T11:27:00Z</time>
      </trkpt>
      <trkpt lat="46.06925" lon="6.76951">
        <ele>1587.4</ele>
        <time>2026-06-26T11:27:01Z</time>
      </trkpt>
      <trkpt lat="46.06925" lon="6.7695">
        <ele>1587.3</ele>
        <time>2026-06-26T11:27:02Z</time>
      </trkpt>
      <trkpt lat="46.06927" lon="6.76949">
        <ele>1587.1</ele>
        <time>2026-06-26T11:27:03Z</time>
      </trkpt>
      <trkpt lat="46.06927" lon="6.76948">
        <ele>1586.9</ele>
        <time>2026-06-26T11:27:04Z</time>
      </trkpt>
      <trkpt lat="46.06927" lon="6.76947">
        <ele>1586.8</ele>
        <time>2026-06-26T11:27:05Z</time>
      </trkpt>
      <trkpt lat="46.06926" lon="6.76946">
        <ele>1586.7</ele>
        <time>2026-06-26T11:27:06Z</time>
      </trkpt>
      <trkpt lat="46.06926" lon="6.76946">
        <ele>1586.6</ele>
        <time>2026-06-26T11:27:07Z</time>
      </trkpt>
      <trkpt lat="46.06926" lon="6.76945">
        <ele>1586.5</ele>
        <time>2026-06-26T11:27:08Z</time>
      </trkpt>
      <trkpt lat="46.06926" lon="6.76945">
        <ele>1586.3</ele>
        <time>2026-06-26T11:27:09Z</time>
      </trkpt>
      <trkpt lat="46.06926" lon="6.76945">
        <ele>1586.2</ele>
        <time>2026-06-26T11:27:10Z</time>
      </trkpt>
      <trkpt lat="46.06927" lon="6.76944">
        <ele>1586.1</ele>
        <time>2026-06-26T11:27:11Z</time>
      </trkpt>
      <trkpt lat="46.06927" lon="6.76944">
        <ele>1586</ele>
        <time>2026-06-26T11:27:12Z</time>
      </trkpt>
      <trkpt lat="46.06926" lon="6.76943">
        <ele>1585.9</ele>
        <time>2026-06-26T11:27:13Z</time>
      </trkpt>
      <trkpt lat="46.06926" lon="6.76941">
        <ele>1585.8</ele>
        <time>2026-06-26T11:27:14Z</time>
      </trkpt>
      <trkpt lat="46.06925" lon="6.7694">
        <ele>1585.7</ele>
        <time>2026-06-26T11:27:15Z</time>
      </trkpt>
      <trkpt lat="46.06926" lon="6.76939">
        <ele>1585.5</ele>
        <time>2026-06-26T11:27:16Z</time>
      </trkpt>
      <trkpt lat="46.06926" lon="6.76938">
        <ele>1585.4</ele>
        <time>2026-06-26T11:27:17Z</time>
      </trkpt>
      <trkpt lat="46.06925" lon="6.76937">
        <ele>1585.3</ele>
        <time>2026-06-26T11:27:18Z</time>
      </trkpt>
      <trkpt lat="46.06924" lon="6.76935">
        <ele>1585.1</ele>
        <time>2026-06-26T11:27:19Z</time>
      </trkpt>
      <trkpt lat="46.06924" lon="6.76934">
        <ele>1584.9</ele>
        <time>2026-06-26T11:27:20Z</time>
      </trkpt>
      <trkpt lat="46.06924" lon="6.76932">
        <ele>1584.7</ele>
        <time>2026-06-26T11:27:21Z</time>
      </trkpt>
      <trkpt lat="46.06923" lon="6.7693">
        <ele>1584.6</ele>
        <time>2026-06-26T11:27:22Z</time>
      </trkpt>
      <trkpt lat="46.06923" lon="6.76929">
        <ele>1584.2</ele>
        <time>2026-06-26T11:27:23Z</time>
      </trkpt>
      <trkpt lat="46.06923" lon="6.76928">
        <ele>1584</ele>
        <time>2026-06-26T11:27:24Z</time>
      </trkpt>
      <trkpt lat="46.06923" lon="6.76927">
        <ele>1583.8</ele>
        <time>2026-06-26T11:27:25Z</time>
      </trkpt>
      <trkpt lat="46.06924" lon="6.76927">
        <ele>1583.6</ele>
        <time>2026-06-26T11:27:26Z</time>
      </trkpt>
      <trkpt lat="46.06925" lon="6.76927">
        <ele>1583.4</ele>
        <time>2026-06-26T11:27:27Z</time>
      </trkpt>
      <trkpt lat="46.06924" lon="6.76926">
        <ele>1583.3</ele>
        <time>2026-06-26T11:27:28Z</time>
      </trkpt>
      <trkpt lat="46.06923" lon="6.76924">
        <ele>1583.2</ele>
        <time>2026-06-26T11:27:29Z</time>
      </trkpt>
      <trkpt lat="46.06923" lon="6.76923">
        <ele>1583</ele>
        <time>2026-06-26T11:27:30Z</time>
      </trkpt>
      <trkpt lat="46.06923" lon="6.76923">
        <ele>1582.9</ele>
        <time>2026-06-26T11:27:31Z</time>
      </trkpt>
      <trkpt lat="46.06923" lon="6.76922">
        <ele>1582.8</ele>
        <time>2026-06-26T11:27:32Z</time>
      </trkpt>
      <trkpt lat="46.06924" lon="6.76921">
        <ele>1582.6</ele>
        <time>2026-06-26T11:27:33Z</time>
      </trkpt>
      <trkpt lat="46.06924" lon="6.76921">
        <ele>1582.5</ele>
        <time>2026-06-26T11:27:34Z</time>
      </trkpt>
      <trkpt lat="46.06924" lon="6.7692">
        <ele>1582.3</ele>
        <time>2026-06-26T11:27:35Z</time>
      </trkpt>
      <trkpt lat="46.06924" lon="6.76919">
        <ele>1582.1</ele>
        <time>2026-06-26T11:27:36Z</time>
      </trkpt>
      <trkpt lat="46.06924" lon="6.76919">
        <ele>1582</ele>
        <time>2026-06-26T11:27:37Z</time>
      </trkpt>
      <trkpt lat="46.06923" lon="6.76919">
        <ele>1581.9</ele>
        <time>2026-06-26T11:27:38Z</time>
      </trkpt>
      <trkpt lat="46.06924" lon="6.76919">
        <ele>1581.7</ele>
        <time>2026-06-26T11:27:39Z</time>
      </trkpt>
      <trkpt lat="46.06923" lon="6.76918">
        <ele>1581.6</ele>
        <time>2026-06-26T11:27:40Z</time>
      </trkpt>
      <trkpt lat="46.06922" lon="6.76918">
        <ele>1581.4</ele>
        <time>2026-06-26T11:27:41Z</time>
      </trkpt>
      <trkpt lat="46.06923" lon="6.76917">
        <ele>1581.2</ele>
        <time>2026-06-26T11:27:42Z</time>
      </trkpt>
      <trkpt lat="46.06922" lon="6.76917">
        <ele>1581</ele>
        <time>2026-06-26T11:27:43Z</time>
      </trkpt>
      <trkpt lat="46.06923" lon="6.76917">
        <ele>1580.9</ele>
        <time>2026-06-26T11:27:44Z</time>
      </trkpt>
      <trkpt lat="46.06923" lon="6.76916">
        <ele>1580.7</ele>
        <time>2026-06-26T11:27:45Z</time>
      </trkpt>
      <trkpt lat="46.06924" lon="6.76915">
        <ele>1580.6</ele>
        <time>2026-06-26T11:27:46Z</time>
      </trkpt>
      <trkpt lat="46.06925" lon="6.76915">
        <ele>1580.3</ele>
        <time>2026-06-26T11:27:47Z</time>
      </trkpt>
      <trkpt lat="46.06925" lon="6.76915">
        <ele>1580</ele>
        <time>2026-06-26T11:27:48Z</time>
      </trkpt>
      <trkpt lat="46.06925" lon="6.76914">
        <ele>1579.8</ele>
        <time>2026-06-26T11:27:49Z</time>
      </trkpt>
      <trkpt lat="46.06925" lon="6.76914">
        <ele>1579.6</ele>
        <time>2026-06-26T11:27:50Z</time>
      </trkpt>
      <trkpt lat="46.06926" lon="6.76915">
        <ele>1579.4</ele>
        <time>2026-06-26T11:27:51Z</time>
      </trkpt>
      <trkpt lat="46.06926" lon="6.76914">
        <ele>1579.2</ele>
        <time>2026-06-26T11:27:52Z</time>
      </trkpt>
      <trkpt lat="46.06927" lon="6.76914">
        <ele>1579.1</ele>
        <time>2026-06-26T11:27:53Z</time>
      </trkpt>
      <trkpt lat="46.06927" lon="6.76914">
        <ele>1578.9</ele>
        <time>2026-06-26T11:27:54Z</time>
      </trkpt>
      <trkpt lat="46.06928" lon="6.76913">
        <ele>1578.8</ele>
        <time>2026-06-26T11:27:55Z</time>
      </trkpt>
      <trkpt lat="46.06928" lon="6.76911">
        <ele>1578.5</ele>
        <time>2026-06-26T11:27:56Z</time>
      </trkpt>
      <trkpt lat="46.06928" lon="6.76911">
        <ele>1578.3</ele>
        <time>2026-06-26T11:27:57Z</time>
      </trkpt>
      <trkpt lat="46.06928" lon="6.76909">
        <ele>1578.1</ele>
        <time>2026-06-26T11:27:58Z</time>
      </trkpt>
      <trkpt lat="46.06928" lon="6.76907">
        <ele>1578</ele>
        <time>2026-06-26T11:27:59Z</time>
      </trkpt>
      <trkpt lat="46.06929" lon="6.76907">
        <ele>1577.8</ele>
        <time>2026-06-26T11:28:00Z</time>
      </trkpt>
      <trkpt lat="46.06929" lon="6.76906">
        <ele>1577.6</ele>
        <time>2026-06-26T11:28:01Z</time>
      </trkpt>
      <trkpt lat="46.0693" lon="6.76905">
        <ele>1577.5</ele>
        <time>2026-06-26T11:28:02Z</time>
      </trkpt>
      <trkpt lat="46.06929" lon="6.76903">
        <ele>1577.3</ele>
        <time>2026-06-26T11:28:03Z</time>
      </trkpt>
      <trkpt lat="46.06929" lon="6.76903">
        <ele>1577.2</ele>
        <time>2026-06-26T11:28:04Z</time>
      </trkpt>
      <trkpt lat="46.06928" lon="6.76902">
        <ele>1577.1</ele>
        <time>2026-06-26T11:28:05Z</time>
      </trkpt>
      <trkpt lat="46.06927" lon="6.76901">
        <ele>1576.9</ele>
        <time>2026-06-26T11:28:06Z</time>
      </trkpt>
      <trkpt lat="46.06927" lon="6.769">
        <ele>1576.8</ele>
        <time>2026-06-26T11:28:07Z</time>
      </trkpt>
      <trkpt lat="46.06927" lon="6.76898">
        <ele>1576.4</ele>
        <time>2026-06-26T11:28:08Z</time>
      </trkpt>
      <trkpt lat="46.06926" lon="6.76897">
        <ele>1576.3</ele>
        <time>2026-06-26T11:28:09Z</time>
      </trkpt>
      <trkpt lat="46.06926" lon="6.76896">
        <ele>1576.2</ele>
        <time>2026-06-26T11:28:10Z</time>
      </trkpt>
      <trkpt lat="46.06925" lon="6.76895">
        <ele>1576.1</ele>
        <time>2026-06-26T11:28:11Z</time>
      </trkpt>
      <trkpt lat="46.06926" lon="6.76894">
        <ele>1575.9</ele>
        <time>2026-06-26T11:28:12Z</time>
      </trkpt>
      <trkpt lat="46.06924" lon="6.76892">
        <ele>1575.7</ele>
        <time>2026-06-26T11:28:13Z</time>
      </trkpt>
      <trkpt lat="46.06924" lon="6.76892">
        <ele>1575.5</ele>
        <time>2026-06-26T11:28:14Z</time>
      </trkpt>
      <trkpt lat="46.06924" lon="6.76891">
        <ele>1575.3</ele>
        <time>2026-06-26T11:28:15Z</time>
      </trkpt>
      <trkpt lat="46.06924" lon="6.7689">
        <ele>1575.2</ele>
        <time>2026-06-26T11:28:16Z</time>
      </trkpt>
      <trkpt lat="46.06923" lon="6.76888">
        <ele>1575</ele>
        <time>2026-06-26T11:28:17Z</time>
      </trkpt>
      <trkpt lat="46.06923" lon="6.76888">
        <ele>1574.8</ele>
        <time>2026-06-26T11:28:18Z</time>
      </trkpt>
      <trkpt lat="46.06923" lon="6.76887">
        <ele>1574.7</ele>
        <time>2026-06-26T11:28:19Z</time>
      </trkpt>
      <trkpt lat="46.06923" lon="6.76887">
        <ele>1574.5</ele>
        <time>2026-06-26T11:28:20Z</time>
      </trkpt>
      <trkpt lat="46.06922" lon="6.76886">
        <ele>1574.4</ele>
        <time>2026-06-26T11:28:21Z</time>
      </trkpt>
      <trkpt lat="46.06922" lon="6.76885">
        <ele>1574.1</ele>
        <time>2026-06-26T11:28:22Z</time>
      </trkpt>
      <trkpt lat="46.06923" lon="6.76884">
        <ele>1573.9</ele>
        <time>2026-06-26T11:28:23Z</time>
      </trkpt>
      <trkpt lat="46.06922" lon="6.76883">
        <ele>1573.5</ele>
        <time>2026-06-26T11:28:24Z</time>
      </trkpt>
      <trkpt lat="46.06922" lon="6.76882">
        <ele>1573.2</ele>
        <time>2026-06-26T11:28:25Z</time>
      </trkpt>
      <trkpt lat="46.06922" lon="6.76881">
        <ele>1572.9</ele>
        <time>2026-06-26T11:28:26Z</time>
      </trkpt>
      <trkpt lat="46.06922" lon="6.76882">
        <ele>1572.7</ele>
        <time>2026-06-26T11:28:27Z</time>
      </trkpt>
      <trkpt lat="46.06923" lon="6.76882">
        <ele>1572.4</ele>
        <time>2026-06-26T11:28:28Z</time>
      </trkpt>
      <trkpt lat="46.06923" lon="6.7688">
        <ele>1572.3</ele>
        <time>2026-06-26T11:28:29Z</time>
      </trkpt>
      <trkpt lat="46.06923" lon="6.76878">
        <ele>1572.2</ele>
        <time>2026-06-26T11:28:30Z</time>
      </trkpt>
      <trkpt lat="46.06922" lon="6.76877">
        <ele>1572.1</ele>
        <time>2026-06-26T11:28:31Z</time>
      </trkpt>
      <trkpt lat="46.06923" lon="6.76876">
        <ele>1571.9</ele>
        <time>2026-06-26T11:28:32Z</time>
      </trkpt>
      <trkpt lat="46.06922" lon="6.76875">
        <ele>1571.6</ele>
        <time>2026-06-26T11:28:33Z</time>
      </trkpt>
      <trkpt lat="46.06922" lon="6.76873">
        <ele>1571.4</ele>
        <time>2026-06-26T11:28:34Z</time>
      </trkpt>
      <trkpt lat="46.06921" lon="6.76873">
        <ele>1571.2</ele>
        <time>2026-06-26T11:28:35Z</time>
      </trkpt>
      <trkpt lat="46.06921" lon="6.76871">
        <ele>1570.9</ele>
        <time>2026-06-26T11:28:36Z</time>
      </trkpt>
      <trkpt lat="46.0692" lon="6.7687">
        <ele>1570.7</ele>
        <time>2026-06-26T11:28:37Z</time>
      </trkpt>
      <trkpt lat="46.06919" lon="6.76869">
        <ele>1570.5</ele>
        <time>2026-06-26T11:28:38Z</time>
      </trkpt>
      <trkpt lat="46.06918" lon="6.76869">
        <ele>1570.3</ele>
        <time>2026-06-26T11:28:39Z</time>
      </trkpt>
      <trkpt lat="46.06917" lon="6.76868">
        <ele>1570.1</ele>
        <time>2026-06-26T11:28:40Z</time>
      </trkpt>
      <trkpt lat="46.06916" lon="6.76866">
        <ele>1569.8</ele>
        <time>2026-06-26T11:28:41Z</time>
      </trkpt>
      <trkpt lat="46.06915" lon="6.76865">
        <ele>1569.6</ele>
        <time>2026-06-26T11:28:42Z</time>
      </trkpt>
      <trkpt lat="46.06915" lon="6.76865">
        <ele>1569.4</ele>
        <time>2026-06-26T11:28:43Z</time>
      </trkpt>
      <trkpt lat="46.06914" lon="6.76866">
        <ele>1569.1</ele>
        <time>2026-06-26T11:28:44Z</time>
      </trkpt>
      <trkpt lat="46.06913" lon="6.76865">
        <ele>1568.9</ele>
        <time>2026-06-26T11:28:45Z</time>
      </trkpt>
      <trkpt lat="46.06912" lon="6.76864">
        <ele>1568.8</ele>
        <time>2026-06-26T11:28:46Z</time>
      </trkpt>
      <trkpt lat="46.06912" lon="6.76864">
        <ele>1568.6</ele>
        <time>2026-06-26T11:28:47Z</time>
      </trkpt>
      <trkpt lat="46.06912" lon="6.76864">
        <ele>1568.5</ele>
        <time>2026-06-26T11:28:48Z</time>
      </trkpt>
      <trkpt lat="46.06911" lon="6.76863">
        <ele>1568.4</ele>
        <time>2026-06-26T11:28:49Z</time>
      </trkpt>
      <trkpt lat="46.06911" lon="6.76862">
        <ele>1567.6</ele>
        <time>2026-06-26T11:28:50Z</time>
      </trkpt>
      <trkpt lat="46.06911" lon="6.76861">
        <ele>1567.4</ele>
        <time>2026-06-26T11:28:51Z</time>
      </trkpt>
      <trkpt lat="46.0691" lon="6.7686">
        <ele>1567.3</ele>
        <time>2026-06-26T11:28:52Z</time>
      </trkpt>
      <trkpt lat="46.0691" lon="6.76859">
        <ele>1567.2</ele>
        <time>2026-06-26T11:28:53Z</time>
      </trkpt>
      <trkpt lat="46.06911" lon="6.76858">
        <ele>1567.1</ele>
        <time>2026-06-26T11:28:54Z</time>
      </trkpt>
      <trkpt lat="46.0691" lon="6.76857">
        <ele>1567</ele>
        <time>2026-06-26T11:28:55Z</time>
      </trkpt>
      <trkpt lat="46.0691" lon="6.76857">
        <ele>1566.8</ele>
        <time>2026-06-26T11:28:56Z</time>
      </trkpt>
      <trkpt lat="46.0691" lon="6.76856">
        <ele>1566.7</ele>
        <time>2026-06-26T11:28:57Z</time>
      </trkpt>
      <trkpt lat="46.06911" lon="6.76856">
        <ele>1566.6</ele>
        <time>2026-06-26T11:28:58Z</time>
      </trkpt>
      <trkpt lat="46.06911" lon="6.76855">
        <ele>1566.5</ele>
        <time>2026-06-26T11:28:59Z</time>
      </trkpt>
      <trkpt lat="46.0691" lon="6.76854">
        <ele>1566.4</ele>
        <time>2026-06-26T11:29:00Z</time>
      </trkpt>
      <trkpt lat="46.06909" lon="6.76853">
        <ele>1566.4</ele>
        <time>2026-06-26T11:29:01Z</time>
      </trkpt>
      <trkpt lat="46.06908" lon="6.76852">
        <ele>1566.3</ele>
        <time>2026-06-26T11:29:02Z</time>
      </trkpt>
      <trkpt lat="46.06908" lon="6.76851">
        <ele>1566.2</ele>
        <time>2026-06-26T11:29:03Z</time>
      </trkpt>
      <trkpt lat="46.06908" lon="6.7685">
        <ele>1566</ele>
        <time>2026-06-26T11:29:04Z</time>
      </trkpt>
      <trkpt lat="46.06909" lon="6.7685">
        <ele>1565.8</ele>
        <time>2026-06-26T11:29:05Z</time>
      </trkpt>
      <trkpt lat="46.06909" lon="6.76849">
        <ele>1565.5</ele>
        <time>2026-06-26T11:29:06Z</time>
      </trkpt>
      <trkpt lat="46.06909" lon="6.76847">
        <ele>1565.2</ele>
        <time>2026-06-26T11:29:07Z</time>
      </trkpt>
      <trkpt lat="46.06909" lon="6.76847">
        <ele>1564.9</ele>
        <time>2026-06-26T11:29:08Z</time>
      </trkpt>
      <trkpt lat="46.06909" lon="6.76846">
        <ele>1564.6</ele>
        <time>2026-06-26T11:29:09Z</time>
      </trkpt>
      <trkpt lat="46.06909" lon="6.76845">
        <ele>1564.4</ele>
        <time>2026-06-26T11:29:10Z</time>
      </trkpt>
      <trkpt lat="46.06909" lon="6.76844">
        <ele>1564.1</ele>
        <time>2026-06-26T11:29:11Z</time>
      </trkpt>
      <trkpt lat="46.0691" lon="6.76843">
        <ele>1563.9</ele>
        <time>2026-06-26T11:29:12Z</time>
      </trkpt>
      <trkpt lat="46.0691" lon="6.76841">
        <ele>1563.6</ele>
        <time>2026-06-26T11:29:13Z</time>
      </trkpt>
      <trkpt lat="46.0691" lon="6.76841">
        <ele>1563.4</ele>
        <time>2026-06-26T11:29:14Z</time>
      </trkpt>
      <trkpt lat="46.0691" lon="6.76839">
        <ele>1563.2</ele>
        <time>2026-06-26T11:29:15Z</time>
      </trkpt>
      <trkpt lat="46.06911" lon="6.76839">
        <ele>1563</ele>
        <time>2026-06-26T11:29:16Z</time>
      </trkpt>
      <trkpt lat="46.0691" lon="6.76837">
        <ele>1562.8</ele>
        <time>2026-06-26T11:29:17Z</time>
      </trkpt>
      <trkpt lat="46.0691" lon="6.76836">
        <ele>1562.6</ele>
        <time>2026-06-26T11:29:18Z</time>
      </trkpt>
      <trkpt lat="46.0691" lon="6.76835">
        <ele>1562.4</ele>
        <time>2026-06-26T11:29:19Z</time>
      </trkpt>
      <trkpt lat="46.06911" lon="6.76836">
        <ele>1562.2</ele>
        <time>2026-06-26T11:29:20Z</time>
      </trkpt>
      <trkpt lat="46.06911" lon="6.76835">
        <ele>1561.9</ele>
        <time>2026-06-26T11:29:21Z</time>
      </trkpt>
      <trkpt lat="46.0691" lon="6.76834">
        <ele>1561.8</ele>
        <time>2026-06-26T11:29:22Z</time>
      </trkpt>
      <trkpt lat="46.0691" lon="6.76833">
        <ele>1561.5</ele>
        <time>2026-06-26T11:29:23Z</time>
      </trkpt>
      <trkpt lat="46.06911" lon="6.76833">
        <ele>1561.3</ele>
        <time>2026-06-26T11:29:24Z</time>
      </trkpt>
      <trkpt lat="46.06911" lon="6.76832">
        <ele>1561.1</ele>
        <time>2026-06-26T11:29:25Z</time>
      </trkpt>
      <trkpt lat="46.06911" lon="6.76832">
        <ele>1561</ele>
        <time>2026-06-26T11:29:26Z</time>
      </trkpt>
      <trkpt lat="46.06911" lon="6.76831">
        <ele>1560.9</ele>
        <time>2026-06-26T11:29:27Z</time>
      </trkpt>
      <trkpt lat="46.06911" lon="6.76831">
        <ele>1560.9</ele>
        <time>2026-06-26T11:29:28Z</time>
      </trkpt>
      <trkpt lat="46.0691" lon="6.7683">
        <ele>1560.8</ele>
        <time>2026-06-26T11:29:29Z</time>
      </trkpt>
      <trkpt lat="46.0691" lon="6.76829">
        <ele>1560.6</ele>
        <time>2026-06-26T11:29:30Z</time>
      </trkpt>
      <trkpt lat="46.06911" lon="6.76829">
        <ele>1560.4</ele>
        <time>2026-06-26T11:29:31Z</time>
      </trkpt>
      <trkpt lat="46.0691" lon="6.76829">
        <ele>1560.2</ele>
        <time>2026-06-26T11:29:32Z</time>
      </trkpt>
      <trkpt lat="46.06909" lon="6.76828">
        <ele>1560.1</ele>
        <time>2026-06-26T11:29:33Z</time>
      </trkpt>
      <trkpt lat="46.06908" lon="6.76826">
        <ele>1559.8</ele>
        <time>2026-06-26T11:29:34Z</time>
      </trkpt>
      <trkpt lat="46.06907" lon="6.76826">
        <ele>1559.6</ele>
        <time>2026-06-26T11:29:35Z</time>
      </trkpt>
      <trkpt lat="46.06905" lon="6.76824">
        <ele>1559.4</ele>
        <time>2026-06-26T11:29:36Z</time>
      </trkpt>
      <trkpt lat="46.06905" lon="6.76823">
        <ele>1559.3</ele>
        <time>2026-06-26T11:29:37Z</time>
      </trkpt>
      <trkpt lat="46.06904" lon="6.76823">
        <ele>1559</ele>
        <time>2026-06-26T11:29:38Z</time>
      </trkpt>
      <trkpt lat="46.06904" lon="6.76821">
        <ele>1558.9</ele>
        <time>2026-06-26T11:29:39Z</time>
      </trkpt>
      <trkpt lat="46.06903" lon="6.76821">
        <ele>1558.6</ele>
        <time>2026-06-26T11:29:40Z</time>
      </trkpt>
      <trkpt lat="46.06903" lon="6.7682">
        <ele>1558.3</ele>
        <time>2026-06-26T11:29:41Z</time>
      </trkpt>
      <trkpt lat="46.06902" lon="6.76819">
        <ele>1558.1</ele>
        <time>2026-06-26T11:29:42Z</time>
      </trkpt>
      <trkpt lat="46.06902" lon="6.76819">
        <ele>1557.9</ele>
        <time>2026-06-26T11:29:43Z</time>
      </trkpt>
      <trkpt lat="46.06901" lon="6.76818">
        <ele>1557.6</ele>
        <time>2026-06-26T11:29:44Z</time>
      </trkpt>
      <trkpt lat="46.06901" lon="6.76817">
        <ele>1557.5</ele>
        <time>2026-06-26T11:29:45Z</time>
      </trkpt>
      <trkpt lat="46.069" lon="6.76816">
        <ele>1557.1</ele>
        <time>2026-06-26T11:29:46Z</time>
      </trkpt>
      <trkpt lat="46.06899" lon="6.76816">
        <ele>1556.9</ele>
        <time>2026-06-26T11:29:47Z</time>
      </trkpt>
      <trkpt lat="46.06897" lon="6.76814">
        <ele>1556.7</ele>
        <time>2026-06-26T11:29:48Z</time>
      </trkpt>
      <trkpt lat="46.06897" lon="6.76814">
        <ele>1556.5</ele>
        <time>2026-06-26T11:29:49Z</time>
      </trkpt>
      <trkpt lat="46.06897" lon="6.76813">
        <ele>1556.4</ele>
        <time>2026-06-26T11:29:50Z</time>
      </trkpt>
      <trkpt lat="46.06896" lon="6.76813">
        <ele>1556.2</ele>
        <time>2026-06-26T11:29:51Z</time>
      </trkpt>
      <trkpt lat="46.06894" lon="6.76812">
        <ele>1556</ele>
        <time>2026-06-26T11:29:52Z</time>
      </trkpt>
      <trkpt lat="46.06894" lon="6.76812">
        <ele>1556</ele>
        <time>2026-06-26T11:29:53Z</time>
      </trkpt>
      <trkpt lat="46.06894" lon="6.76811">
        <ele>1555.9</ele>
        <time>2026-06-26T11:29:54Z</time>
      </trkpt>
      <trkpt lat="46.06894" lon="6.7681">
        <ele>1555.9</ele>
        <time>2026-06-26T11:29:55Z</time>
      </trkpt>
      <trkpt lat="46.06894" lon="6.7681">
        <ele>1555.8</ele>
        <time>2026-06-26T11:29:56Z</time>
      </trkpt>
      <trkpt lat="46.06894" lon="6.76811">
        <ele>1555.8</ele>
        <time>2026-06-26T11:29:57Z</time>
      </trkpt>
      <trkpt lat="46.06894" lon="6.76809">
        <ele>1555.7</ele>
        <time>2026-06-26T11:29:58Z</time>
      </trkpt>
      <trkpt lat="46.06894" lon="6.76809">
        <ele>1555.7</ele>
        <time>2026-06-26T11:29:59Z</time>
      </trkpt>
      <trkpt lat="46.06894" lon="6.7681">
        <ele>1555.7</ele>
        <time>2026-06-26T11:30:00Z</time>
      </trkpt>
      <trkpt lat="46.06894" lon="6.7681">
        <ele>1555.6</ele>
        <time>2026-06-26T11:30:01Z</time>
      </trkpt>
      <trkpt lat="46.06894" lon="6.7681">
        <ele>1555.6</ele>
        <time>2026-06-26T11:30:02Z</time>
      </trkpt>
      <trkpt lat="46.06894" lon="6.76809">
        <ele>1555.6</ele>
        <time>2026-06-26T11:30:03Z</time>
      </trkpt>
      <trkpt lat="46.06893" lon="6.76808">
        <ele>1555.6</ele>
        <time>2026-06-26T11:30:04Z</time>
      </trkpt>
      <trkpt lat="46.06892" lon="6.76808">
        <ele>1555.5</ele>
        <time>2026-06-26T11:30:05Z</time>
      </trkpt>
      <trkpt lat="46.06892" lon="6.76809">
        <ele>1555.5</ele>
        <time>2026-06-26T11:30:06Z</time>
      </trkpt>
      <trkpt lat="46.06891" lon="6.76809">
        <ele>1555.5</ele>
        <time>2026-06-26T11:30:07Z</time>
      </trkpt>
      <trkpt lat="46.0689" lon="6.76808">
        <ele>1555.4</ele>
        <time>2026-06-26T11:30:08Z</time>
      </trkpt>
      <trkpt lat="46.06889" lon="6.76808">
        <ele>1555.3</ele>
        <time>2026-06-26T11:30:09Z</time>
      </trkpt>
      <trkpt lat="46.06888" lon="6.76807">
        <ele>1555.3</ele>
        <time>2026-06-26T11:30:10Z</time>
      </trkpt>
      <trkpt lat="46.06887" lon="6.76807">
        <ele>1555.2</ele>
        <time>2026-06-26T11:30:11Z</time>
      </trkpt>
      <trkpt lat="46.06885" lon="6.76806">
        <ele>1555</ele>
        <time>2026-06-26T11:30:12Z</time>
      </trkpt>
      <trkpt lat="46.06885" lon="6.76806">
        <ele>1554.9</ele>
        <time>2026-06-26T11:30:13Z</time>
      </trkpt>
      <trkpt lat="46.06884" lon="6.76807">
        <ele>1554.9</ele>
        <time>2026-06-26T11:30:14Z</time>
      </trkpt>
      <trkpt lat="46.06883" lon="6.76807">
        <ele>1554.7</ele>
        <time>2026-06-26T11:30:15Z</time>
      </trkpt>
      <trkpt lat="46.06882" lon="6.76807">
        <ele>1554.6</ele>
        <time>2026-06-26T11:30:16Z</time>
      </trkpt>
      <trkpt lat="46.06881" lon="6.76807">
        <ele>1554.5</ele>
        <time>2026-06-26T11:30:17Z</time>
      </trkpt>
      <trkpt lat="46.0688" lon="6.76808">
        <ele>1554.4</ele>
        <time>2026-06-26T11:30:18Z</time>
      </trkpt>
      <trkpt lat="46.0688" lon="6.76809">
        <ele>1554.1</ele>
        <time>2026-06-26T11:30:19Z</time>
      </trkpt>
      <trkpt lat="46.06879" lon="6.76808">
        <ele>1554</ele>
        <time>2026-06-26T11:30:20Z</time>
      </trkpt>
      <trkpt lat="46.0688" lon="6.76809">
        <ele>1553.9</ele>
        <time>2026-06-26T11:30:21Z</time>
      </trkpt>
      <trkpt lat="46.06879" lon="6.76809">
        <ele>1553.7</ele>
        <time>2026-06-26T11:30:22Z</time>
      </trkpt>
      <trkpt lat="46.06878" lon="6.76808">
        <ele>1553.5</ele>
        <time>2026-06-26T11:30:23Z</time>
      </trkpt>
      <trkpt lat="46.06878" lon="6.76809">
        <ele>1553.3</ele>
        <time>2026-06-26T11:30:24Z</time>
      </trkpt>
      <trkpt lat="46.06878" lon="6.7681">
        <ele>1553.3</ele>
        <time>2026-06-26T11:30:25Z</time>
      </trkpt>
      <trkpt lat="46.06878" lon="6.7681">
        <ele>1553.2</ele>
        <time>2026-06-26T11:30:26Z</time>
      </trkpt>
      <trkpt lat="46.06877" lon="6.76809">
        <ele>1553.1</ele>
        <time>2026-06-26T11:30:27Z</time>
      </trkpt>
      <trkpt lat="46.06876" lon="6.76809">
        <ele>1553.2</ele>
        <time>2026-06-26T11:30:28Z</time>
      </trkpt>
      <trkpt lat="46.06876" lon="6.76808">
        <ele>1552.9</ele>
        <time>2026-06-26T11:30:29Z</time>
      </trkpt>
      <trkpt lat="46.06876" lon="6.76808">
        <ele>1552.7</ele>
        <time>2026-06-26T11:30:30Z</time>
      </trkpt>
      <trkpt lat="46.06875" lon="6.76807">
        <ele>1552.5</ele>
        <time>2026-06-26T11:30:31Z</time>
      </trkpt>
      <trkpt lat="46.06874" lon="6.76807">
        <ele>1552.3</ele>
        <time>2026-06-26T11:30:32Z</time>
      </trkpt>
      <trkpt lat="46.06874" lon="6.76808">
        <ele>1552.1</ele>
        <time>2026-06-26T11:30:33Z</time>
      </trkpt>
      <trkpt lat="46.06874" lon="6.76808">
        <ele>1552</ele>
        <time>2026-06-26T11:30:34Z</time>
      </trkpt>
      <trkpt lat="46.06873" lon="6.76808">
        <ele>1551.8</ele>
        <time>2026-06-26T11:30:35Z</time>
      </trkpt>
      <trkpt lat="46.06873" lon="6.76807">
        <ele>1551.7</ele>
        <time>2026-06-26T11:30:36Z</time>
      </trkpt>
      <trkpt lat="46.06873" lon="6.76807">
        <ele>1551.6</ele>
        <time>2026-06-26T11:30:37Z</time>
      </trkpt>
      <trkpt lat="46.06873" lon="6.76808">
        <ele>1551.5</ele>
        <time>2026-06-26T11:30:38Z</time>
      </trkpt>
      <trkpt lat="46.06873" lon="6.76807">
        <ele>1551.2</ele>
        <time>2026-06-26T11:30:39Z</time>
      </trkpt>
      <trkpt lat="46.06873" lon="6.76806">
        <ele>1551</ele>
        <time>2026-06-26T11:30:40Z</time>
      </trkpt>
      <trkpt lat="46.06873" lon="6.76807">
        <ele>1550.9</ele>
        <time>2026-06-26T11:30:41Z</time>
      </trkpt>
      <trkpt lat="46.06873" lon="6.76808">
        <ele>1550.7</ele>
        <time>2026-06-26T11:30:42Z</time>
      </trkpt>
      <trkpt lat="46.06873" lon="6.76808">
        <ele>1550.6</ele>
        <time>2026-06-26T11:30:43Z</time>
      </trkpt>
      <trkpt lat="46.06873" lon="6.76807">
        <ele>1550.5</ele>
        <time>2026-06-26T11:30:44Z</time>
      </trkpt>
      <trkpt lat="46.06873" lon="6.76807">
        <ele>1550.4</ele>
        <time>2026-06-26T11:30:45Z</time>
      </trkpt>
      <trkpt lat="46.06873" lon="6.76806">
        <ele>1550.1</ele>
        <time>2026-06-26T11:30:46Z</time>
      </trkpt>
      <trkpt lat="46.06872" lon="6.76805">
        <ele>1549.7</ele>
        <time>2026-06-26T11:30:47Z</time>
      </trkpt>
      <trkpt lat="46.06872" lon="6.76803">
        <ele>1549.5</ele>
        <time>2026-06-26T11:30:48Z</time>
      </trkpt>
      <trkpt lat="46.0687" lon="6.76802">
        <ele>1549.3</ele>
        <time>2026-06-26T11:30:49Z</time>
      </trkpt>
      <trkpt lat="46.0687" lon="6.76802">
        <ele>1549</ele>
        <time>2026-06-26T11:30:50Z</time>
      </trkpt>
      <trkpt lat="46.06869" lon="6.76802">
        <ele>1548.9</ele>
        <time>2026-06-26T11:30:51Z</time>
      </trkpt>
      <trkpt lat="46.06868" lon="6.76802">
        <ele>1548.7</ele>
        <time>2026-06-26T11:30:52Z</time>
      </trkpt>
      <trkpt lat="46.06866" lon="6.76802">
        <ele>1548.6</ele>
        <time>2026-06-26T11:30:53Z</time>
      </trkpt>
      <trkpt lat="46.06866" lon="6.76803">
        <ele>1548.4</ele>
        <time>2026-06-26T11:30:54Z</time>
      </trkpt>
      <trkpt lat="46.06864" lon="6.76802">
        <ele>1548.3</ele>
        <time>2026-06-26T11:30:55Z</time>
      </trkpt>
      <trkpt lat="46.06863" lon="6.76802">
        <ele>1548.3</ele>
        <time>2026-06-26T11:30:56Z</time>
      </trkpt>
      <trkpt lat="46.06862" lon="6.76802">
        <ele>1548</ele>
        <time>2026-06-26T11:30:57Z</time>
      </trkpt>
      <trkpt lat="46.0686" lon="6.76803">
        <ele>1547.8</ele>
        <time>2026-06-26T11:30:58Z</time>
      </trkpt>
      <trkpt lat="46.06859" lon="6.76803">
        <ele>1547.6</ele>
        <time>2026-06-26T11:30:59Z</time>
      </trkpt>
      <trkpt lat="46.06858" lon="6.76804">
        <ele>1547.6</ele>
        <time>2026-06-26T11:31:00Z</time>
      </trkpt>
      <trkpt lat="46.06857" lon="6.76804">
        <ele>1547.6</ele>
        <time>2026-06-26T11:31:01Z</time>
      </trkpt>
      <trkpt lat="46.06856" lon="6.76804">
        <ele>1547.5</ele>
        <time>2026-06-26T11:31:02Z</time>
      </trkpt>
      <trkpt lat="46.06854" lon="6.76804">
        <ele>1547.4</ele>
        <time>2026-06-26T11:31:03Z</time>
      </trkpt>
      <trkpt lat="46.06853" lon="6.76804">
        <ele>1547.2</ele>
        <time>2026-06-26T11:31:04Z</time>
      </trkpt>
      <trkpt lat="46.06853" lon="6.76803">
        <ele>1547.1</ele>
        <time>2026-06-26T11:31:05Z</time>
      </trkpt>
      <trkpt lat="46.06852" lon="6.76802">
        <ele>1547</ele>
        <time>2026-06-26T11:31:06Z</time>
      </trkpt>
      <trkpt lat="46.06852" lon="6.76802">
        <ele>1546.8</ele>
        <time>2026-06-26T11:31:07Z</time>
      </trkpt>
      <trkpt lat="46.06851" lon="6.76802">
        <ele>1546.7</ele>
        <time>2026-06-26T11:31:08Z</time>
      </trkpt>
      <trkpt lat="46.06849" lon="6.76802">
        <ele>1546.6</ele>
        <time>2026-06-26T11:31:09Z</time>
      </trkpt>
      <trkpt lat="46.06848" lon="6.76802">
        <ele>1546.5</ele>
        <time>2026-06-26T11:31:10Z</time>
      </trkpt>
      <trkpt lat="46.06846" lon="6.76801">
        <ele>1546.4</ele>
        <time>2026-06-26T11:31:11Z</time>
      </trkpt>
      <trkpt lat="46.06845" lon="6.76802">
        <ele>1546.4</ele>
        <time>2026-06-26T11:31:12Z</time>
      </trkpt>
      <trkpt lat="46.06844" lon="6.76802">
        <ele>1546.3</ele>
        <time>2026-06-26T11:31:13Z</time>
      </trkpt>
      <trkpt lat="46.06843" lon="6.76802">
        <ele>1546.2</ele>
        <time>2026-06-26T11:31:14Z</time>
      </trkpt>
      <trkpt lat="46.06842" lon="6.76802">
        <ele>1546.2</ele>
        <time>2026-06-26T11:31:15Z</time>
      </trkpt>
      <trkpt lat="46.0684" lon="6.76802">
        <ele>1546.3</ele>
        <time>2026-06-26T11:31:16Z</time>
      </trkpt>
      <trkpt lat="46.06839" lon="6.76803">
        <ele>1546.2</ele>
        <time>2026-06-26T11:31:17Z</time>
      </trkpt>
      <trkpt lat="46.06839" lon="6.76805">
        <ele>1546.1</ele>
        <time>2026-06-26T11:31:18Z</time>
      </trkpt>
      <trkpt lat="46.06838" lon="6.76806">
        <ele>1546.1</ele>
        <time>2026-06-26T11:31:19Z</time>
      </trkpt>
      <trkpt lat="46.06838" lon="6.76808">
        <ele>1546</ele>
        <time>2026-06-26T11:31:20Z</time>
      </trkpt>
      <trkpt lat="46.06838" lon="6.7681">
        <ele>1545.9</ele>
        <time>2026-06-26T11:31:21Z</time>
      </trkpt>
      <trkpt lat="46.06838" lon="6.76811">
        <ele>1545.8</ele>
        <time>2026-06-26T11:31:22Z</time>
      </trkpt>
      <trkpt lat="46.06837" lon="6.76812">
        <ele>1545.7</ele>
        <time>2026-06-26T11:31:23Z</time>
      </trkpt>
      <trkpt lat="46.06837" lon="6.76813">
        <ele>1545.5</ele>
        <time>2026-06-26T11:31:24Z</time>
      </trkpt>
      <trkpt lat="46.06836" lon="6.76814">
        <ele>1545.4</ele>
        <time>2026-06-26T11:31:25Z</time>
      </trkpt>
      <trkpt lat="46.06836" lon="6.76816">
        <ele>1545.3</ele>
        <time>2026-06-26T11:31:26Z</time>
      </trkpt>
      <trkpt lat="46.06836" lon="6.76818">
        <ele>1544.9</ele>
        <time>2026-06-26T11:31:27Z</time>
      </trkpt>
      <trkpt lat="46.06835" lon="6.7682">
        <ele>1544.8</ele>
        <time>2026-06-26T11:31:28Z</time>
      </trkpt>
      <trkpt lat="46.06835" lon="6.76822">
        <ele>1544.7</ele>
        <time>2026-06-26T11:31:29Z</time>
      </trkpt>
      <trkpt lat="46.06835" lon="6.76823">
        <ele>1544.7</ele>
        <time>2026-06-26T11:31:30Z</time>
      </trkpt>
      <trkpt lat="46.06834" lon="6.76824">
        <ele>1544.7</ele>
        <time>2026-06-26T11:31:31Z</time>
      </trkpt>
      <trkpt lat="46.06834" lon="6.76825">
        <ele>1544.7</ele>
        <time>2026-06-26T11:31:32Z</time>
      </trkpt>
      <trkpt lat="46.06833" lon="6.76826">
        <ele>1544.7</ele>
        <time>2026-06-26T11:31:33Z</time>
      </trkpt>
      <trkpt lat="46.06833" lon="6.76828">
        <ele>1544.6</ele>
        <time>2026-06-26T11:31:34Z</time>
      </trkpt>
      <trkpt lat="46.06833" lon="6.7683">
        <ele>1544.5</ele>
        <time>2026-06-26T11:31:35Z</time>
      </trkpt>
      <trkpt lat="46.06832" lon="6.7683">
        <ele>1544.5</ele>
        <time>2026-06-26T11:31:36Z</time>
      </trkpt>
      <trkpt lat="46.06832" lon="6.76832">
        <ele>1544.3</ele>
        <time>2026-06-26T11:31:37Z</time>
      </trkpt>
      <trkpt lat="46.06832" lon="6.76833">
        <ele>1544.2</ele>
        <time>2026-06-26T11:31:38Z</time>
      </trkpt>
      <trkpt lat="46.06831" lon="6.76833">
        <ele>1544.1</ele>
        <time>2026-06-26T11:31:39Z</time>
      </trkpt>
      <trkpt lat="46.0683" lon="6.76833">
        <ele>1544.1</ele>
        <time>2026-06-26T11:31:40Z</time>
      </trkpt>
      <trkpt lat="46.06829" lon="6.76834">
        <ele>1544</ele>
        <time>2026-06-26T11:31:41Z</time>
      </trkpt>
      <trkpt lat="46.06828" lon="6.76835">
        <ele>1543.9</ele>
        <time>2026-06-26T11:31:42Z</time>
      </trkpt>
      <trkpt lat="46.06828" lon="6.76836">
        <ele>1543.8</ele>
        <time>2026-06-26T11:31:43Z</time>
      </trkpt>
      <trkpt lat="46.06828" lon="6.76837">
        <ele>1543.7</ele>
        <time>2026-06-26T11:31:44Z</time>
      </trkpt>
      <trkpt lat="46.06828" lon="6.76839">
        <ele>1543.5</ele>
        <time>2026-06-26T11:31:45Z</time>
      </trkpt>
      <trkpt lat="46.06827" lon="6.7684">
        <ele>1543.3</ele>
        <time>2026-06-26T11:31:46Z</time>
      </trkpt>
      <trkpt lat="46.06827" lon="6.76841">
        <ele>1543</ele>
        <time>2026-06-26T11:31:47Z</time>
      </trkpt>
      <trkpt lat="46.06827" lon="6.76842">
        <ele>1542.9</ele>
        <time>2026-06-26T11:31:48Z</time>
      </trkpt>
      <trkpt lat="46.06827" lon="6.76843">
        <ele>1542.8</ele>
        <time>2026-06-26T11:31:49Z</time>
      </trkpt>
      <trkpt lat="46.06826" lon="6.76845">
        <ele>1542.6</ele>
        <time>2026-06-26T11:31:50Z</time>
      </trkpt>
      <trkpt lat="46.06826" lon="6.76846">
        <ele>1542.5</ele>
        <time>2026-06-26T11:31:51Z</time>
      </trkpt>
      <trkpt lat="46.06827" lon="6.76848">
        <ele>1542.3</ele>
        <time>2026-06-26T11:31:52Z</time>
      </trkpt>
      <trkpt lat="46.06826" lon="6.76849">
        <ele>1542.2</ele>
        <time>2026-06-26T11:31:53Z</time>
      </trkpt>
      <trkpt lat="46.06826" lon="6.7685">
        <ele>1542</ele>
        <time>2026-06-26T11:31:54Z</time>
      </trkpt>
      <trkpt lat="46.06826" lon="6.76851">
        <ele>1542</ele>
        <time>2026-06-26T11:31:55Z</time>
      </trkpt>
      <trkpt lat="46.06825" lon="6.76852">
        <ele>1541.9</ele>
        <time>2026-06-26T11:31:56Z</time>
      </trkpt>
      <trkpt lat="46.06824" lon="6.76853">
        <ele>1541.9</ele>
        <time>2026-06-26T11:31:57Z</time>
      </trkpt>
      <trkpt lat="46.06824" lon="6.76855">
        <ele>1541.8</ele>
        <time>2026-06-26T11:31:58Z</time>
      </trkpt>
      <trkpt lat="46.06824" lon="6.76856">
        <ele>1541.6</ele>
        <time>2026-06-26T11:31:59Z</time>
      </trkpt>
      <trkpt lat="46.06824" lon="6.76858">
        <ele>1541.4</ele>
        <time>2026-06-26T11:32:00Z</time>
      </trkpt>
      <trkpt lat="46.06823" lon="6.76858">
        <ele>1541.2</ele>
        <time>2026-06-26T11:32:01Z</time>
      </trkpt>
      <trkpt lat="46.06822" lon="6.76859">
        <ele>1541.1</ele>
        <time>2026-06-26T11:32:02Z</time>
      </trkpt>
      <trkpt lat="46.06822" lon="6.76861">
        <ele>1541.1</ele>
        <time>2026-06-26T11:32:03Z</time>
      </trkpt>
      <trkpt lat="46.06821" lon="6.76862">
        <ele>1541</ele>
        <time>2026-06-26T11:32:04Z</time>
      </trkpt>
      <trkpt lat="46.06821" lon="6.76864">
        <ele>1540.9</ele>
        <time>2026-06-26T11:32:05Z</time>
      </trkpt>
      <trkpt lat="46.06821" lon="6.76865">
        <ele>1540.8</ele>
        <time>2026-06-26T11:32:06Z</time>
      </trkpt>
      <trkpt lat="46.0682" lon="6.76867">
        <ele>1540.7</ele>
        <time>2026-06-26T11:32:07Z</time>
      </trkpt>
      <trkpt lat="46.0682" lon="6.76869">
        <ele>1540.6</ele>
        <time>2026-06-26T11:32:08Z</time>
      </trkpt>
      <trkpt lat="46.0682" lon="6.76871">
        <ele>1540.3</ele>
        <time>2026-06-26T11:32:09Z</time>
      </trkpt>
      <trkpt lat="46.06821" lon="6.76873">
        <ele>1540.1</ele>
        <time>2026-06-26T11:32:10Z</time>
      </trkpt>
      <trkpt lat="46.0682" lon="6.76874">
        <ele>1539.9</ele>
        <time>2026-06-26T11:32:11Z</time>
      </trkpt>
      <trkpt lat="46.0682" lon="6.76875">
        <ele>1539.7</ele>
        <time>2026-06-26T11:32:12Z</time>
      </trkpt>
      <trkpt lat="46.06819" lon="6.76876">
        <ele>1539.6</ele>
        <time>2026-06-26T11:32:13Z</time>
      </trkpt>
      <trkpt lat="46.06819" lon="6.76878">
        <ele>1539.6</ele>
        <time>2026-06-26T11:32:14Z</time>
      </trkpt>
      <trkpt lat="46.06819" lon="6.7688">
        <ele>1539.6</ele>
        <time>2026-06-26T11:32:15Z</time>
      </trkpt>
      <trkpt lat="46.06819" lon="6.7688">
        <ele>1539.5</ele>
        <time>2026-06-26T11:32:16Z</time>
      </trkpt>
      <trkpt lat="46.06818" lon="6.76881">
        <ele>1539.5</ele>
        <time>2026-06-26T11:32:17Z</time>
      </trkpt>
      <trkpt lat="46.06818" lon="6.76883">
        <ele>1539.5</ele>
        <time>2026-06-26T11:32:18Z</time>
      </trkpt>
      <trkpt lat="46.06818" lon="6.76885">
        <ele>1539.4</ele>
        <time>2026-06-26T11:32:19Z</time>
      </trkpt>
      <trkpt lat="46.06817" lon="6.76886">
        <ele>1539.3</ele>
        <time>2026-06-26T11:32:20Z</time>
      </trkpt>
      <trkpt lat="46.06817" lon="6.76888">
        <ele>1539.3</ele>
        <time>2026-06-26T11:32:21Z</time>
      </trkpt>
      <trkpt lat="46.06817" lon="6.76889">
        <ele>1539.2</ele>
        <time>2026-06-26T11:32:22Z</time>
      </trkpt>
      <trkpt lat="46.06817" lon="6.7689">
        <ele>1539.2</ele>
        <time>2026-06-26T11:32:23Z</time>
      </trkpt>
      <trkpt lat="46.06817" lon="6.76892">
        <ele>1539.2</ele>
        <time>2026-06-26T11:32:24Z</time>
      </trkpt>
      <trkpt lat="46.06817" lon="6.76893">
        <ele>1539.2</ele>
        <time>2026-06-26T11:32:25Z</time>
      </trkpt>
      <trkpt lat="46.06817" lon="6.76894">
        <ele>1539.2</ele>
        <time>2026-06-26T11:32:26Z</time>
      </trkpt>
      <trkpt lat="46.06816" lon="6.76895">
        <ele>1539.1</ele>
        <time>2026-06-26T11:32:27Z</time>
      </trkpt>
      <trkpt lat="46.06816" lon="6.76896">
        <ele>1539.1</ele>
        <time>2026-06-26T11:32:28Z</time>
      </trkpt>
      <trkpt lat="46.06816" lon="6.76898">
        <ele>1539.1</ele>
        <time>2026-06-26T11:32:29Z</time>
      </trkpt>
      <trkpt lat="46.06816" lon="6.76899">
        <ele>1539</ele>
        <time>2026-06-26T11:32:30Z</time>
      </trkpt>
      <trkpt lat="46.06814" lon="6.76899">
        <ele>1539</ele>
        <time>2026-06-26T11:32:31Z</time>
      </trkpt>
      <trkpt lat="46.06813" lon="6.769">
        <ele>1538.8</ele>
        <time>2026-06-26T11:32:32Z</time>
      </trkpt>
      <trkpt lat="46.06812" lon="6.76901">
        <ele>1538.7</ele>
        <time>2026-06-26T11:32:33Z</time>
      </trkpt>
      <trkpt lat="46.0681" lon="6.76901">
        <ele>1538.6</ele>
        <time>2026-06-26T11:32:34Z</time>
      </trkpt>
      <trkpt lat="46.0681" lon="6.76902">
        <ele>1538.4</ele>
        <time>2026-06-26T11:32:35Z</time>
      </trkpt>
      <trkpt lat="46.06809" lon="6.76902">
        <ele>1538.2</ele>
        <time>2026-06-26T11:32:36Z</time>
      </trkpt>
      <trkpt lat="46.06808" lon="6.76903">
        <ele>1538.1</ele>
        <time>2026-06-26T11:32:37Z</time>
      </trkpt>
      <trkpt lat="46.06808" lon="6.76904">
        <ele>1538</ele>
        <time>2026-06-26T11:32:38Z</time>
      </trkpt>
      <trkpt lat="46.06807" lon="6.76905">
        <ele>1537.9</ele>
        <time>2026-06-26T11:32:39Z</time>
      </trkpt>
      <trkpt lat="46.06806" lon="6.76906">
        <ele>1537.7</ele>
        <time>2026-06-26T11:32:40Z</time>
      </trkpt>
      <trkpt lat="46.06805" lon="6.76907">
        <ele>1537.5</ele>
        <time>2026-06-26T11:32:41Z</time>
      </trkpt>
      <trkpt lat="46.06804" lon="6.76908">
        <ele>1537.3</ele>
        <time>2026-06-26T11:32:42Z</time>
      </trkpt>
      <trkpt lat="46.06803" lon="6.76908">
        <ele>1537.2</ele>
        <time>2026-06-26T11:32:43Z</time>
      </trkpt>
      <trkpt lat="46.06802" lon="6.76909">
        <ele>1537</ele>
        <time>2026-06-26T11:32:44Z</time>
      </trkpt>
      <trkpt lat="46.06802" lon="6.76911">
        <ele>1536.9</ele>
        <time>2026-06-26T11:32:45Z</time>
      </trkpt>
      <trkpt lat="46.06802" lon="6.76912">
        <ele>1536.7</ele>
        <time>2026-06-26T11:32:46Z</time>
      </trkpt>
      <trkpt lat="46.06801" lon="6.76914">
        <ele>1536.6</ele>
        <time>2026-06-26T11:32:47Z</time>
      </trkpt>
      <trkpt lat="46.06801" lon="6.76916">
        <ele>1536.4</ele>
        <time>2026-06-26T11:32:48Z</time>
      </trkpt>
      <trkpt lat="46.068" lon="6.76917">
        <ele>1536.3</ele>
        <time>2026-06-26T11:32:49Z</time>
      </trkpt>
      <trkpt lat="46.068" lon="6.76918">
        <ele>1536.1</ele>
        <time>2026-06-26T11:32:50Z</time>
      </trkpt>
      <trkpt lat="46.06799" lon="6.76918">
        <ele>1535.9</ele>
        <time>2026-06-26T11:32:51Z</time>
      </trkpt>
      <trkpt lat="46.06797" lon="6.76919">
        <ele>1535.8</ele>
        <time>2026-06-26T11:32:52Z</time>
      </trkpt>
      <trkpt lat="46.06797" lon="6.7692">
        <ele>1535.5</ele>
        <time>2026-06-26T11:32:53Z</time>
      </trkpt>
      <trkpt lat="46.06794" lon="6.76921">
        <ele>1535.3</ele>
        <time>2026-06-26T11:32:54Z</time>
      </trkpt>
      <trkpt lat="46.06793" lon="6.76921">
        <ele>1535.1</ele>
        <time>2026-06-26T11:32:55Z</time>
      </trkpt>
      <trkpt lat="46.06792" lon="6.76921">
        <ele>1534.9</ele>
        <time>2026-06-26T11:32:56Z</time>
      </trkpt>
      <trkpt lat="46.06791" lon="6.76921">
        <ele>1534.7</ele>
        <time>2026-06-26T11:32:57Z</time>
      </trkpt>
      <trkpt lat="46.0679" lon="6.76921">
        <ele>1534.4</ele>
        <time>2026-06-26T11:32:58Z</time>
      </trkpt>
      <trkpt lat="46.06789" lon="6.76921">
        <ele>1534.1</ele>
        <time>2026-06-26T11:32:59Z</time>
      </trkpt>
      <trkpt lat="46.06788" lon="6.76922">
        <ele>1533.9</ele>
        <time>2026-06-26T11:33:00Z</time>
      </trkpt>
      <trkpt lat="46.06787" lon="6.76921">
        <ele>1533.7</ele>
        <time>2026-06-26T11:33:01Z</time>
      </trkpt>
      <trkpt lat="46.06786" lon="6.76921">
        <ele>1533.5</ele>
        <time>2026-06-26T11:33:02Z</time>
      </trkpt>
      <trkpt lat="46.06784" lon="6.76921">
        <ele>1533.2</ele>
        <time>2026-06-26T11:33:03Z</time>
      </trkpt>
      <trkpt lat="46.06783" lon="6.7692">
        <ele>1532.9</ele>
        <time>2026-06-26T11:33:04Z</time>
      </trkpt>
      <trkpt lat="46.06781" lon="6.7692">
        <ele>1532.5</ele>
        <time>2026-06-26T11:33:05Z</time>
      </trkpt>
      <trkpt lat="46.0678" lon="6.7692">
        <ele>1532.3</ele>
        <time>2026-06-26T11:33:06Z</time>
      </trkpt>
      <trkpt lat="46.06779" lon="6.76921">
        <ele>1532.1</ele>
        <time>2026-06-26T11:33:07Z</time>
      </trkpt>
      <trkpt lat="46.06779" lon="6.76923">
        <ele>1531.9</ele>
        <time>2026-06-26T11:33:08Z</time>
      </trkpt>
      <trkpt lat="46.06777" lon="6.76923">
        <ele>1531.8</ele>
        <time>2026-06-26T11:33:09Z</time>
      </trkpt>
      <trkpt lat="46.06777" lon="6.76923">
        <ele>1531.6</ele>
        <time>2026-06-26T11:33:10Z</time>
      </trkpt>
      <trkpt lat="46.06776" lon="6.76922">
        <ele>1531.4</ele>
        <time>2026-06-26T11:33:11Z</time>
      </trkpt>
      <trkpt lat="46.06775" lon="6.76924">
        <ele>1531.2</ele>
        <time>2026-06-26T11:33:12Z</time>
      </trkpt>
      <trkpt lat="46.06775" lon="6.76925">
        <ele>1531.3</ele>
        <time>2026-06-26T11:33:13Z</time>
      </trkpt>
      <trkpt lat="46.06775" lon="6.76926">
        <ele>1530.7</ele>
        <time>2026-06-26T11:33:14Z</time>
      </trkpt>
      <trkpt lat="46.06774" lon="6.76927">
        <ele>1530.3</ele>
        <time>2026-06-26T11:33:15Z</time>
      </trkpt>
      <trkpt lat="46.06773" lon="6.76927">
        <ele>1530.1</ele>
        <time>2026-06-26T11:33:16Z</time>
      </trkpt>
      <trkpt lat="46.06772" lon="6.76926">
        <ele>1530</ele>
        <time>2026-06-26T11:33:17Z</time>
      </trkpt>
      <trkpt lat="46.0677" lon="6.76926">
        <ele>1529.9</ele>
        <time>2026-06-26T11:33:18Z</time>
      </trkpt>
      <trkpt lat="46.0677" lon="6.76928">
        <ele>1529.7</ele>
        <time>2026-06-26T11:33:19Z</time>
      </trkpt>
      <trkpt lat="46.06769" lon="6.76929">
        <ele>1529.3</ele>
        <time>2026-06-26T11:33:20Z</time>
      </trkpt>
      <trkpt lat="46.06768" lon="6.76929">
        <ele>1529</ele>
        <time>2026-06-26T11:33:21Z</time>
      </trkpt>
      <trkpt lat="46.06768" lon="6.76929">
        <ele>1528.8</ele>
        <time>2026-06-26T11:33:22Z</time>
      </trkpt>
      <trkpt lat="46.06766" lon="6.76928">
        <ele>1528.4</ele>
        <time>2026-06-26T11:33:23Z</time>
      </trkpt>
      <trkpt lat="46.06765" lon="6.76928">
        <ele>1528.2</ele>
        <time>2026-06-26T11:33:24Z</time>
      </trkpt>
      <trkpt lat="46.06764" lon="6.76928">
        <ele>1527.9</ele>
        <time>2026-06-26T11:33:25Z</time>
      </trkpt>
      <trkpt lat="46.06764" lon="6.76929">
        <ele>1527.7</ele>
        <time>2026-06-26T11:33:26Z</time>
      </trkpt>
      <trkpt lat="46.06763" lon="6.76929">
        <ele>1527.4</ele>
        <time>2026-06-26T11:33:27Z</time>
      </trkpt>
      <trkpt lat="46.06761" lon="6.76928">
        <ele>1527.2</ele>
        <time>2026-06-26T11:33:28Z</time>
      </trkpt>
      <trkpt lat="46.0676" lon="6.76928">
        <ele>1527</ele>
        <time>2026-06-26T11:33:29Z</time>
      </trkpt>
      <trkpt lat="46.06759" lon="6.76928">
        <ele>1526.8</ele>
        <time>2026-06-26T11:33:30Z</time>
      </trkpt>
      <trkpt lat="46.06757" lon="6.76928">
        <ele>1526.7</ele>
        <time>2026-06-26T11:33:31Z</time>
      </trkpt>
      <trkpt lat="46.06756" lon="6.76928">
        <ele>1526.6</ele>
        <time>2026-06-26T11:33:32Z</time>
      </trkpt>
      <trkpt lat="46.06754" lon="6.76928">
        <ele>1526.5</ele>
        <time>2026-06-26T11:33:33Z</time>
      </trkpt>
      <trkpt lat="46.06753" lon="6.76928">
        <ele>1526.2</ele>
        <time>2026-06-26T11:33:34Z</time>
      </trkpt>
      <trkpt lat="46.06751" lon="6.76928">
        <ele>1526</ele>
        <time>2026-06-26T11:33:35Z</time>
      </trkpt>
      <trkpt lat="46.0675" lon="6.76929">
        <ele>1525.8</ele>
        <time>2026-06-26T11:33:36Z</time>
      </trkpt>
      <trkpt lat="46.06749" lon="6.7693">
        <ele>1525.7</ele>
        <time>2026-06-26T11:33:37Z</time>
      </trkpt>
      <trkpt lat="46.06748" lon="6.7693">
        <ele>1525.3</ele>
        <time>2026-06-26T11:33:38Z</time>
      </trkpt>
      <trkpt lat="46.06748" lon="6.76931">
        <ele>1525.4</ele>
        <time>2026-06-26T11:33:39Z</time>
      </trkpt>
      <trkpt lat="46.06747" lon="6.76931">
        <ele>1525</ele>
        <time>2026-06-26T11:33:40Z</time>
      </trkpt>
      <trkpt lat="46.06746" lon="6.76932">
        <ele>1524.5</ele>
        <time>2026-06-26T11:33:41Z</time>
      </trkpt>
      <trkpt lat="46.06746" lon="6.76932">
        <ele>1524.2</ele>
        <time>2026-06-26T11:33:42Z</time>
      </trkpt>
      <trkpt lat="46.06745" lon="6.76933">
        <ele>1523.7</ele>
        <time>2026-06-26T11:33:43Z</time>
      </trkpt>
      <trkpt lat="46.06745" lon="6.76934">
        <ele>1523.4</ele>
        <time>2026-06-26T11:33:44Z</time>
      </trkpt>
      <trkpt lat="46.06744" lon="6.76934">
        <ele>1523</ele>
        <time>2026-06-26T11:33:45Z</time>
      </trkpt>
      <trkpt lat="46.06743" lon="6.76934">
        <ele>1522.8</ele>
        <time>2026-06-26T11:33:46Z</time>
      </trkpt>
      <trkpt lat="46.06743" lon="6.76935">
        <ele>1522.5</ele>
        <time>2026-06-26T11:33:47Z</time>
      </trkpt>
      <trkpt lat="46.06743" lon="6.76936">
        <ele>1522.2</ele>
        <time>2026-06-26T11:33:48Z</time>
      </trkpt>
      <trkpt lat="46.06741" lon="6.76933">
        <ele>1522</ele>
        <time>2026-06-26T11:33:49Z</time>
      </trkpt>
      <trkpt lat="46.06739" lon="6.76932">
        <ele>1521.9</ele>
        <time>2026-06-26T11:33:50Z</time>
      </trkpt>
      <trkpt lat="46.06738" lon="6.76933">
        <ele>1521.7</ele>
        <time>2026-06-26T11:33:51Z</time>
      </trkpt>
      <trkpt lat="46.06737" lon="6.76932">
        <ele>1521.4</ele>
        <time>2026-06-26T11:33:52Z</time>
      </trkpt>
      <trkpt lat="46.06735" lon="6.76931">
        <ele>1521.2</ele>
        <time>2026-06-26T11:33:53Z</time>
      </trkpt>
      <trkpt lat="46.06734" lon="6.76931">
        <ele>1521</ele>
        <time>2026-06-26T11:33:54Z</time>
      </trkpt>
      <trkpt lat="46.06733" lon="6.76931">
        <ele>1520.6</ele>
        <time>2026-06-26T11:33:55Z</time>
      </trkpt>
      <trkpt lat="46.06732" lon="6.76932">
        <ele>1520.4</ele>
        <time>2026-06-26T11:33:56Z</time>
      </trkpt>
      <trkpt lat="46.0673" lon="6.76932">
        <ele>1520.1</ele>
        <time>2026-06-26T11:33:57Z</time>
      </trkpt>
      <trkpt lat="46.06728" lon="6.76932">
        <ele>1520</ele>
        <time>2026-06-26T11:33:58Z</time>
      </trkpt>
      <trkpt lat="46.06727" lon="6.76932">
        <ele>1519.7</ele>
        <time>2026-06-26T11:33:59Z</time>
      </trkpt>
      <trkpt lat="46.06725" lon="6.76932">
        <ele>1519.5</ele>
        <time>2026-06-26T11:34:00Z</time>
      </trkpt>
      <trkpt lat="46.06724" lon="6.76933">
        <ele>1519.4</ele>
        <time>2026-06-26T11:34:01Z</time>
      </trkpt>
      <trkpt lat="46.06722" lon="6.76933">
        <ele>1519.2</ele>
        <time>2026-06-26T11:34:02Z</time>
      </trkpt>
      <trkpt lat="46.06721" lon="6.76934">
        <ele>1519</ele>
        <time>2026-06-26T11:34:03Z</time>
      </trkpt>
      <trkpt lat="46.0672" lon="6.76934">
        <ele>1519</ele>
        <time>2026-06-26T11:34:04Z</time>
      </trkpt>
      <trkpt lat="46.06719" lon="6.76934">
        <ele>1518.6</ele>
        <time>2026-06-26T11:34:05Z</time>
      </trkpt>
      <trkpt lat="46.06718" lon="6.76933">
        <ele>1518.3</ele>
        <time>2026-06-26T11:34:06Z</time>
      </trkpt>
      <trkpt lat="46.06716" lon="6.76932">
        <ele>1518.1</ele>
        <time>2026-06-26T11:34:07Z</time>
      </trkpt>
      <trkpt lat="46.06715" lon="6.76934">
        <ele>1517.8</ele>
        <time>2026-06-26T11:34:08Z</time>
      </trkpt>
      <trkpt lat="46.06714" lon="6.76934">
        <ele>1517.5</ele>
        <time>2026-06-26T11:34:09Z</time>
      </trkpt>
      <trkpt lat="46.06712" lon="6.76934">
        <ele>1517.2</ele>
        <time>2026-06-26T11:34:10Z</time>
      </trkpt>
      <trkpt lat="46.06711" lon="6.76934">
        <ele>1516.9</ele>
        <time>2026-06-26T11:34:11Z</time>
      </trkpt>
      <trkpt lat="46.0671" lon="6.76935">
        <ele>1516.7</ele>
        <time>2026-06-26T11:34:12Z</time>
      </trkpt>
      <trkpt lat="46.06708" lon="6.76935">
        <ele>1516.4</ele>
        <time>2026-06-26T11:34:13Z</time>
      </trkpt>
      <trkpt lat="46.06707" lon="6.76936">
        <ele>1516.1</ele>
        <time>2026-06-26T11:34:14Z</time>
      </trkpt>
      <trkpt lat="46.06705" lon="6.76937">
        <ele>1515.8</ele>
        <time>2026-06-26T11:34:15Z</time>
      </trkpt>
      <trkpt lat="46.06704" lon="6.76937">
        <ele>1515.6</ele>
        <time>2026-06-26T11:34:16Z</time>
      </trkpt>
      <trkpt lat="46.06703" lon="6.76937">
        <ele>1515.7</ele>
        <time>2026-06-26T11:34:17Z</time>
      </trkpt>
      <trkpt lat="46.06701" lon="6.76938">
        <ele>1515.4</ele>
        <time>2026-06-26T11:34:18Z</time>
      </trkpt>
      <trkpt lat="46.067" lon="6.76938">
        <ele>1515</ele>
        <time>2026-06-26T11:34:19Z</time>
      </trkpt>
      <trkpt lat="46.06698" lon="6.76937">
        <ele>1514.7</ele>
        <time>2026-06-26T11:34:20Z</time>
      </trkpt>
      <trkpt lat="46.06697" lon="6.76938">
        <ele>1514.4</ele>
        <time>2026-06-26T11:34:21Z</time>
      </trkpt>
      <trkpt lat="46.06695" lon="6.76938">
        <ele>1514.2</ele>
        <time>2026-06-26T11:34:22Z</time>
      </trkpt>
      <trkpt lat="46.06694" lon="6.76939">
        <ele>1514</ele>
        <time>2026-06-26T11:34:23Z</time>
      </trkpt>
      <trkpt lat="46.06693" lon="6.7694">
        <ele>1513.7</ele>
        <time>2026-06-26T11:34:24Z</time>
      </trkpt>
      <trkpt lat="46.06693" lon="6.76941">
        <ele>1513.5</ele>
        <time>2026-06-26T11:34:25Z</time>
      </trkpt>
      <trkpt lat="46.06693" lon="6.76944">
        <ele>1513.3</ele>
        <time>2026-06-26T11:34:26Z</time>
      </trkpt>
      <trkpt lat="46.06693" lon="6.76946">
        <ele>1512.9</ele>
        <time>2026-06-26T11:34:27Z</time>
      </trkpt>
      <trkpt lat="46.06692" lon="6.76947">
        <ele>1512.6</ele>
        <time>2026-06-26T11:34:28Z</time>
      </trkpt>
      <trkpt lat="46.06691" lon="6.76948">
        <ele>1512.4</ele>
        <time>2026-06-26T11:34:29Z</time>
      </trkpt>
      <trkpt lat="46.06691" lon="6.76949">
        <ele>1512.2</ele>
        <time>2026-06-26T11:34:30Z</time>
      </trkpt>
      <trkpt lat="46.06689" lon="6.76948">
        <ele>1512</ele>
        <time>2026-06-26T11:34:31Z</time>
      </trkpt>
      <trkpt lat="46.06687" lon="6.76947">
        <ele>1511.7</ele>
        <time>2026-06-26T11:34:32Z</time>
      </trkpt>
      <trkpt lat="46.06685" lon="6.76948">
        <ele>1511.4</ele>
        <time>2026-06-26T11:34:33Z</time>
      </trkpt>
      <trkpt lat="46.06684" lon="6.76948">
        <ele>1511.3</ele>
        <time>2026-06-26T11:34:34Z</time>
      </trkpt>
      <trkpt lat="46.06683" lon="6.76949">
        <ele>1511</ele>
        <time>2026-06-26T11:34:35Z</time>
      </trkpt>
      <trkpt lat="46.06682" lon="6.7695">
        <ele>1510.8</ele>
        <time>2026-06-26T11:34:36Z</time>
      </trkpt>
      <trkpt lat="46.06681" lon="6.76951">
        <ele>1510.6</ele>
        <time>2026-06-26T11:34:37Z</time>
      </trkpt>
      <trkpt lat="46.0668" lon="6.76952">
        <ele>1510.3</ele>
        <time>2026-06-26T11:34:38Z</time>
      </trkpt>
      <trkpt lat="46.06679" lon="6.76953">
        <ele>1510</ele>
        <time>2026-06-26T11:34:39Z</time>
      </trkpt>
      <trkpt lat="46.06678" lon="6.76952">
        <ele>1509.8</ele>
        <time>2026-06-26T11:34:40Z</time>
      </trkpt>
      <trkpt lat="46.06677" lon="6.76952">
        <ele>1509.5</ele>
        <time>2026-06-26T11:34:41Z</time>
      </trkpt>
      <trkpt lat="46.06676" lon="6.76953">
        <ele>1509.3</ele>
        <time>2026-06-26T11:34:42Z</time>
      </trkpt>
      <trkpt lat="46.06674" lon="6.76953">
        <ele>1509</ele>
        <time>2026-06-26T11:34:43Z</time>
      </trkpt>
      <trkpt lat="46.06675" lon="6.76957">
        <ele>1508.8</ele>
        <time>2026-06-26T11:34:44Z</time>
      </trkpt>
      <trkpt lat="46.06674" lon="6.76958">
        <ele>1508.6</ele>
        <time>2026-06-26T11:34:45Z</time>
      </trkpt>
      <trkpt lat="46.06673" lon="6.7696">
        <ele>1508.5</ele>
        <time>2026-06-26T11:34:46Z</time>
      </trkpt>
      <trkpt lat="46.06673" lon="6.76961">
        <ele>1508.2</ele>
        <time>2026-06-26T11:34:47Z</time>
      </trkpt>
      <trkpt lat="46.06672" lon="6.76963">
        <ele>1507.9</ele>
        <time>2026-06-26T11:34:48Z</time>
      </trkpt>
      <trkpt lat="46.06672" lon="6.76965">
        <ele>1507.5</ele>
        <time>2026-06-26T11:34:49Z</time>
      </trkpt>
      <trkpt lat="46.06672" lon="6.76967">
        <ele>1507.2</ele>
        <time>2026-06-26T11:34:50Z</time>
      </trkpt>
      <trkpt lat="46.0667" lon="6.76968">
        <ele>1506.9</ele>
        <time>2026-06-26T11:34:51Z</time>
      </trkpt>
      <trkpt lat="46.0667" lon="6.76968">
        <ele>1506.6</ele>
        <time>2026-06-26T11:34:52Z</time>
      </trkpt>
      <trkpt lat="46.06669" lon="6.7697">
        <ele>1506.4</ele>
        <time>2026-06-26T11:34:53Z</time>
      </trkpt>
      <trkpt lat="46.06668" lon="6.7697">
        <ele>1506.1</ele>
        <time>2026-06-26T11:34:54Z</time>
      </trkpt>
      <trkpt lat="46.06666" lon="6.7697">
        <ele>1505.8</ele>
        <time>2026-06-26T11:34:55Z</time>
      </trkpt>
      <trkpt lat="46.06665" lon="6.76971">
        <ele>1505.5</ele>
        <time>2026-06-26T11:34:56Z</time>
      </trkpt>
      <trkpt lat="46.06664" lon="6.76971">
        <ele>1505.2</ele>
        <time>2026-06-26T11:34:57Z</time>
      </trkpt>
      <trkpt lat="46.06663" lon="6.76972">
        <ele>1504.9</ele>
        <time>2026-06-26T11:34:58Z</time>
      </trkpt>
      <trkpt lat="46.06662" lon="6.76973">
        <ele>1504.5</ele>
        <time>2026-06-26T11:34:59Z</time>
      </trkpt>
      <trkpt lat="46.06661" lon="6.76973">
        <ele>1504.3</ele>
        <time>2026-06-26T11:35:00Z</time>
      </trkpt>
      <trkpt lat="46.0666" lon="6.76973">
        <ele>1504.1</ele>
        <time>2026-06-26T11:35:01Z</time>
      </trkpt>
      <trkpt lat="46.06659" lon="6.76973">
        <ele>1503.9</ele>
        <time>2026-06-26T11:35:02Z</time>
      </trkpt>
      <trkpt lat="46.06657" lon="6.76973">
        <ele>1503.6</ele>
        <time>2026-06-26T11:35:03Z</time>
      </trkpt>
      <trkpt lat="46.06656" lon="6.76973">
        <ele>1503.3</ele>
        <time>2026-06-26T11:35:04Z</time>
      </trkpt>
      <trkpt lat="46.06655" lon="6.76974">
        <ele>1502.9</ele>
        <time>2026-06-26T11:35:05Z</time>
      </trkpt>
      <trkpt lat="46.06653" lon="6.76973">
        <ele>1502.7</ele>
        <time>2026-06-26T11:35:06Z</time>
      </trkpt>
      <trkpt lat="46.06652" lon="6.76974">
        <ele>1502.5</ele>
        <time>2026-06-26T11:35:07Z</time>
      </trkpt>
      <trkpt lat="46.0665" lon="6.76974">
        <ele>1502.4</ele>
        <time>2026-06-26T11:35:08Z</time>
      </trkpt>
      <trkpt lat="46.0665" lon="6.76975">
        <ele>1502.2</ele>
        <time>2026-06-26T11:35:09Z</time>
      </trkpt>
      <trkpt lat="46.06649" lon="6.76976">
        <ele>1502.1</ele>
        <time>2026-06-26T11:35:10Z</time>
      </trkpt>
      <trkpt lat="46.06649" lon="6.76978">
        <ele>1501.9</ele>
        <time>2026-06-26T11:35:11Z</time>
      </trkpt>
      <trkpt lat="46.06648" lon="6.76978">
        <ele>1501.7</ele>
        <time>2026-06-26T11:35:12Z</time>
      </trkpt>
      <trkpt lat="46.06647" lon="6.76979">
        <ele>1501.5</ele>
        <time>2026-06-26T11:35:13Z</time>
      </trkpt>
      <trkpt lat="46.06645" lon="6.76978">
        <ele>1501.2</ele>
        <time>2026-06-26T11:35:14Z</time>
      </trkpt>
      <trkpt lat="46.06644" lon="6.76978">
        <ele>1500.9</ele>
        <time>2026-06-26T11:35:15Z</time>
      </trkpt>
      <trkpt lat="46.06642" lon="6.76977">
        <ele>1500.7</ele>
        <time>2026-06-26T11:35:16Z</time>
      </trkpt>
      <trkpt lat="46.06641" lon="6.76977">
        <ele>1500.5</ele>
        <time>2026-06-26T11:35:17Z</time>
      </trkpt>
      <trkpt lat="46.0664" lon="6.76977">
        <ele>1500.3</ele>
        <time>2026-06-26T11:35:18Z</time>
      </trkpt>
      <trkpt lat="46.06639" lon="6.76977">
        <ele>1500.1</ele>
        <time>2026-06-26T11:35:19Z</time>
      </trkpt>
      <trkpt lat="46.06638" lon="6.76977">
        <ele>1499.9</ele>
        <time>2026-06-26T11:35:20Z</time>
      </trkpt>
      <trkpt lat="46.06637" lon="6.76976">
        <ele>1499.7</ele>
        <time>2026-06-26T11:35:21Z</time>
      </trkpt>
      <trkpt lat="46.06635" lon="6.76976">
        <ele>1499.4</ele>
        <time>2026-06-26T11:35:22Z</time>
      </trkpt>
      <trkpt lat="46.06635" lon="6.76976">
        <ele>1499.2</ele>
        <time>2026-06-26T11:35:23Z</time>
      </trkpt>
      <trkpt lat="46.06634" lon="6.76975">
        <ele>1498.9</ele>
        <time>2026-06-26T11:35:24Z</time>
      </trkpt>
      <trkpt lat="46.06634" lon="6.76975">
        <ele>1498.7</ele>
        <time>2026-06-26T11:35:25Z</time>
      </trkpt>
      <trkpt lat="46.06635" lon="6.76976">
        <ele>1498.5</ele>
        <time>2026-06-26T11:35:26Z</time>
      </trkpt>
      <trkpt lat="46.06635" lon="6.76976">
        <ele>1498.1</ele>
        <time>2026-06-26T11:35:27Z</time>
      </trkpt>
      <trkpt lat="46.06635" lon="6.76976">
        <ele>1497.9</ele>
        <time>2026-06-26T11:35:28Z</time>
      </trkpt>
      <trkpt lat="46.06635" lon="6.76975">
        <ele>1497.6</ele>
        <time>2026-06-26T11:35:29Z</time>
      </trkpt>
      <trkpt lat="46.06634" lon="6.76974">
        <ele>1497.4</ele>
        <time>2026-06-26T11:35:30Z</time>
      </trkpt>
      <trkpt lat="46.06635" lon="6.76974">
        <ele>1497.2</ele>
        <time>2026-06-26T11:35:31Z</time>
      </trkpt>
      <trkpt lat="46.06635" lon="6.76974">
        <ele>1497</ele>
        <time>2026-06-26T11:35:32Z</time>
      </trkpt>
      <trkpt lat="46.06635" lon="6.76973">
        <ele>1496.9</ele>
        <time>2026-06-26T11:35:33Z</time>
      </trkpt>
      <trkpt lat="46.06635" lon="6.76974">
        <ele>1496.8</ele>
        <time>2026-06-26T11:35:34Z</time>
      </trkpt>
      <trkpt lat="46.06636" lon="6.76974">
        <ele>1496.6</ele>
        <time>2026-06-26T11:35:35Z</time>
      </trkpt>
      <trkpt lat="46.06637" lon="6.76973">
        <ele>1496.4</ele>
        <time>2026-06-26T11:35:36Z</time>
      </trkpt>
      <trkpt lat="46.06638" lon="6.76973">
        <ele>1496.2</ele>
        <time>2026-06-26T11:35:37Z</time>
      </trkpt>
      <trkpt lat="46.06638" lon="6.76973">
        <ele>1495.9</ele>
        <time>2026-06-26T11:35:38Z</time>
      </trkpt>
      <trkpt lat="46.06638" lon="6.76972">
        <ele>1495.7</ele>
        <time>2026-06-26T11:35:39Z</time>
      </trkpt>
      <trkpt lat="46.06639" lon="6.76971">
        <ele>1495.5</ele>
        <time>2026-06-26T11:35:40Z</time>
      </trkpt>
      <trkpt lat="46.0664" lon="6.76971">
        <ele>1495.3</ele>
        <time>2026-06-26T11:35:41Z</time>
      </trkpt>
      <trkpt lat="46.06642" lon="6.76971">
        <ele>1494.9</ele>
        <time>2026-06-26T11:35:42Z</time>
      </trkpt>
      <trkpt lat="46.06642" lon="6.7697">
        <ele>1494.7</ele>
        <time>2026-06-26T11:35:43Z</time>
      </trkpt>
      <trkpt lat="46.06642" lon="6.76969">
        <ele>1494.5</ele>
        <time>2026-06-26T11:35:44Z</time>
      </trkpt>
      <trkpt lat="46.06642" lon="6.76969">
        <ele>1494.3</ele>
        <time>2026-06-26T11:35:45Z</time>
      </trkpt>
      <trkpt lat="46.06643" lon="6.76968">
        <ele>1494</ele>
        <time>2026-06-26T11:35:46Z</time>
      </trkpt>
      <trkpt lat="46.06644" lon="6.76967">
        <ele>1493.7</ele>
        <time>2026-06-26T11:35:47Z</time>
      </trkpt>
      <trkpt lat="46.06643" lon="6.76966">
        <ele>1493.1</ele>
        <time>2026-06-26T11:35:48Z</time>
      </trkpt>
      <trkpt lat="46.06644" lon="6.76965">
        <ele>1493</ele>
        <time>2026-06-26T11:35:49Z</time>
      </trkpt>
      <trkpt lat="46.06646" lon="6.76965">
        <ele>1492.8</ele>
        <time>2026-06-26T11:35:50Z</time>
      </trkpt>
      <trkpt lat="46.06646" lon="6.76964">
        <ele>1492.7</ele>
        <time>2026-06-26T11:35:51Z</time>
      </trkpt>
      <trkpt lat="46.06646" lon="6.76962">
        <ele>1492.7</ele>
        <time>2026-06-26T11:35:52Z</time>
      </trkpt>
      <trkpt lat="46.06647" lon="6.76961">
        <ele>1492.5</ele>
        <time>2026-06-26T11:35:53Z</time>
      </trkpt>
      <trkpt lat="46.06649" lon="6.76961">
        <ele>1492.3</ele>
        <time>2026-06-26T11:35:54Z</time>
      </trkpt>
      <trkpt lat="46.06649" lon="6.76959">
        <ele>1492.1</ele>
        <time>2026-06-26T11:35:55Z</time>
      </trkpt>
      <trkpt lat="46.0665" lon="6.76958">
        <ele>1491.9</ele>
        <time>2026-06-26T11:35:56Z</time>
      </trkpt>
      <trkpt lat="46.06651" lon="6.76957">
        <ele>1491.7</ele>
        <time>2026-06-26T11:35:57Z</time>
      </trkpt>
      <trkpt lat="46.0665" lon="6.76955">
        <ele>1491.5</ele>
        <time>2026-06-26T11:35:58Z</time>
      </trkpt>
      <trkpt lat="46.06651" lon="6.76955">
        <ele>1491.4</ele>
        <time>2026-06-26T11:35:59Z</time>
      </trkpt>
      <trkpt lat="46.06652" lon="6.76954">
        <ele>1491.2</ele>
        <time>2026-06-26T11:36:00Z</time>
      </trkpt>
      <trkpt lat="46.06652" lon="6.76953">
        <ele>1491</ele>
        <time>2026-06-26T11:36:01Z</time>
      </trkpt>
      <trkpt lat="46.06653" lon="6.76951">
        <ele>1490.7</ele>
        <time>2026-06-26T11:36:02Z</time>
      </trkpt>
      <trkpt lat="46.06653" lon="6.76949">
        <ele>1490.4</ele>
        <time>2026-06-26T11:36:03Z</time>
      </trkpt>
      <trkpt lat="46.06653" lon="6.76947">
        <ele>1490.2</ele>
        <time>2026-06-26T11:36:04Z</time>
      </trkpt>
      <trkpt lat="46.06653" lon="6.76945">
        <ele>1489.9</ele>
        <time>2026-06-26T11:36:05Z</time>
      </trkpt>
      <trkpt lat="46.06654" lon="6.76944">
        <ele>1489.7</ele>
        <time>2026-06-26T11:36:06Z</time>
      </trkpt>
      <trkpt lat="46.06656" lon="6.76944">
        <ele>1489.5</ele>
        <time>2026-06-26T11:36:07Z</time>
      </trkpt>
      <trkpt lat="46.06657" lon="6.76943">
        <ele>1489.2</ele>
        <time>2026-06-26T11:36:08Z</time>
      </trkpt>
      <trkpt lat="46.06659" lon="6.76943">
        <ele>1488.9</ele>
        <time>2026-06-26T11:36:09Z</time>
      </trkpt>
      <trkpt lat="46.06659" lon="6.76942">
        <ele>1488.9</ele>
        <time>2026-06-26T11:36:10Z</time>
      </trkpt>
      <trkpt lat="46.06661" lon="6.76941">
        <ele>1488.7</ele>
        <time>2026-06-26T11:36:11Z</time>
      </trkpt>
      <trkpt lat="46.06661" lon="6.7694">
        <ele>1488.4</ele>
        <time>2026-06-26T11:36:12Z</time>
      </trkpt>
      <trkpt lat="46.06662" lon="6.7694">
        <ele>1488.1</ele>
        <time>2026-06-26T11:36:13Z</time>
      </trkpt>
      <trkpt lat="46.06662" lon="6.76939">
        <ele>1487.8</ele>
        <time>2026-06-26T11:36:14Z</time>
      </trkpt>
      <trkpt lat="46.06662" lon="6.76936">
        <ele>1487.5</ele>
        <time>2026-06-26T11:36:15Z</time>
      </trkpt>
      <trkpt lat="46.06662" lon="6.76934">
        <ele>1487.1</ele>
        <time>2026-06-26T11:36:16Z</time>
      </trkpt>
      <trkpt lat="46.06662" lon="6.76931">
        <ele>1486.7</ele>
        <time>2026-06-26T11:36:17Z</time>
      </trkpt>
      <trkpt lat="46.06661" lon="6.76927">
        <ele>1486.6</ele>
        <time>2026-06-26T11:36:18Z</time>
      </trkpt>
      <trkpt lat="46.06663" lon="6.76926">
        <ele>1486.3</ele>
        <time>2026-06-26T11:36:19Z</time>
      </trkpt>
      <trkpt lat="46.06662" lon="6.76923">
        <ele>1486.1</ele>
        <time>2026-06-26T11:36:20Z</time>
      </trkpt>
      <trkpt lat="46.06662" lon="6.76921">
        <ele>1485.9</ele>
        <time>2026-06-26T11:36:21Z</time>
      </trkpt>
      <trkpt lat="46.06663" lon="6.76919">
        <ele>1485.6</ele>
        <time>2026-06-26T11:36:22Z</time>
      </trkpt>
      <trkpt lat="46.06663" lon="6.76918">
        <ele>1485.3</ele>
        <time>2026-06-26T11:36:23Z</time>
      </trkpt>
      <trkpt lat="46.06664" lon="6.76916">
        <ele>1485</ele>
        <time>2026-06-26T11:36:24Z</time>
      </trkpt>
      <trkpt lat="46.06665" lon="6.76915">
        <ele>1484.6</ele>
        <time>2026-06-26T11:36:25Z</time>
      </trkpt>
      <trkpt lat="46.06665" lon="6.76913">
        <ele>1484.4</ele>
        <time>2026-06-26T11:36:26Z</time>
      </trkpt>
      <trkpt lat="46.06667" lon="6.76912">
        <ele>1484.1</ele>
        <time>2026-06-26T11:36:27Z</time>
      </trkpt>
      <trkpt lat="46.06667" lon="6.76911">
        <ele>1483.8</ele>
        <time>2026-06-26T11:36:28Z</time>
      </trkpt>
      <trkpt lat="46.06667" lon="6.7691">
        <ele>1483.5</ele>
        <time>2026-06-26T11:36:29Z</time>
      </trkpt>
      <trkpt lat="46.06668" lon="6.76909">
        <ele>1483.5</ele>
        <time>2026-06-26T11:36:30Z</time>
      </trkpt>
      <trkpt lat="46.0667" lon="6.76908">
        <ele>1483.2</ele>
        <time>2026-06-26T11:36:31Z</time>
      </trkpt>
      <trkpt lat="46.06671" lon="6.76907">
        <ele>1482.9</ele>
        <time>2026-06-26T11:36:32Z</time>
      </trkpt>
      <trkpt lat="46.06672" lon="6.76906">
        <ele>1482.7</ele>
        <time>2026-06-26T11:36:33Z</time>
      </trkpt>
      <trkpt lat="46.06672" lon="6.76904">
        <ele>1482.3</ele>
        <time>2026-06-26T11:36:34Z</time>
      </trkpt>
      <trkpt lat="46.06673" lon="6.76902">
        <ele>1482</ele>
        <time>2026-06-26T11:36:35Z</time>
      </trkpt>
      <trkpt lat="46.06673" lon="6.769">
        <ele>1481.8</ele>
        <time>2026-06-26T11:36:36Z</time>
      </trkpt>
      <trkpt lat="46.06675" lon="6.76899">
        <ele>1481.5</ele>
        <time>2026-06-26T11:36:37Z</time>
      </trkpt>
      <trkpt lat="46.06677" lon="6.76899">
        <ele>1481.2</ele>
        <time>2026-06-26T11:36:38Z</time>
      </trkpt>
      <trkpt lat="46.06677" lon="6.76898">
        <ele>1481</ele>
        <time>2026-06-26T11:36:39Z</time>
      </trkpt>
      <trkpt lat="46.06677" lon="6.76897">
        <ele>1480.8</ele>
        <time>2026-06-26T11:36:40Z</time>
      </trkpt>
      <trkpt lat="46.06677" lon="6.76895">
        <ele>1480.6</ele>
        <time>2026-06-26T11:36:41Z</time>
      </trkpt>
      <trkpt lat="46.06678" lon="6.76895">
        <ele>1480.4</ele>
        <time>2026-06-26T11:36:42Z</time>
      </trkpt>
      <trkpt lat="46.06678" lon="6.76896">
        <ele>1480.2</ele>
        <time>2026-06-26T11:36:43Z</time>
      </trkpt>
      <trkpt lat="46.06678" lon="6.76895">
        <ele>1479.9</ele>
        <time>2026-06-26T11:36:44Z</time>
      </trkpt>
      <trkpt lat="46.06678" lon="6.76892">
        <ele>1479.7</ele>
        <time>2026-06-26T11:36:45Z</time>
      </trkpt>
      <trkpt lat="46.06678" lon="6.76891">
        <ele>1479.5</ele>
        <time>2026-06-26T11:36:46Z</time>
      </trkpt>
      <trkpt lat="46.06678" lon="6.76891">
        <ele>1479.2</ele>
        <time>2026-06-26T11:36:47Z</time>
      </trkpt>
      <trkpt lat="46.06679" lon="6.76889">
        <ele>1478.9</ele>
        <time>2026-06-26T11:36:48Z</time>
      </trkpt>
      <trkpt lat="46.0668" lon="6.76888">
        <ele>1478.7</ele>
        <time>2026-06-26T11:36:49Z</time>
      </trkpt>
      <trkpt lat="46.0668" lon="6.76884">
        <ele>1478.3</ele>
        <time>2026-06-26T11:36:50Z</time>
      </trkpt>
      <trkpt lat="46.0668" lon="6.76881">
        <ele>1478</ele>
        <time>2026-06-26T11:36:51Z</time>
      </trkpt>
      <trkpt lat="46.06681" lon="6.7688">
        <ele>1477.6</ele>
        <time>2026-06-26T11:36:52Z</time>
      </trkpt>
      <trkpt lat="46.06682" lon="6.76878">
        <ele>1477.3</ele>
        <time>2026-06-26T11:36:53Z</time>
      </trkpt>
      <trkpt lat="46.06684" lon="6.76878">
        <ele>1477</ele>
        <time>2026-06-26T11:36:54Z</time>
      </trkpt>
      <trkpt lat="46.06684" lon="6.76875">
        <ele>1476.7</ele>
        <time>2026-06-26T11:36:55Z</time>
      </trkpt>
      <trkpt lat="46.06685" lon="6.76873">
        <ele>1476.4</ele>
        <time>2026-06-26T11:36:56Z</time>
      </trkpt>
      <trkpt lat="46.06685" lon="6.76871">
        <ele>1476.2</ele>
        <time>2026-06-26T11:36:57Z</time>
      </trkpt>
      <trkpt lat="46.06685" lon="6.76867">
        <ele>1476</ele>
        <time>2026-06-26T11:36:58Z</time>
      </trkpt>
      <trkpt lat="46.06685" lon="6.76865">
        <ele>1476</ele>
        <time>2026-06-26T11:36:59Z</time>
      </trkpt>
      <trkpt lat="46.06685" lon="6.76863">
        <ele>1475.5</ele>
        <time>2026-06-26T11:37:00Z</time>
      </trkpt>
      <trkpt lat="46.06685" lon="6.7686">
        <ele>1475.1</ele>
        <time>2026-06-26T11:37:01Z</time>
      </trkpt>
      <trkpt lat="46.06687" lon="6.7686">
        <ele>1475.1</ele>
        <time>2026-06-26T11:37:02Z</time>
      </trkpt>
      <trkpt lat="46.06689" lon="6.76859">
        <ele>1475</ele>
        <time>2026-06-26T11:37:03Z</time>
      </trkpt>
      <trkpt lat="46.0669" lon="6.76859">
        <ele>1475.2</ele>
        <time>2026-06-26T11:37:04Z</time>
      </trkpt>
      <trkpt lat="46.06691" lon="6.76858">
        <ele>1474.9</ele>
        <time>2026-06-26T11:37:05Z</time>
      </trkpt>
      <trkpt lat="46.06692" lon="6.76857">
        <ele>1474.7</ele>
        <time>2026-06-26T11:37:06Z</time>
      </trkpt>
      <trkpt lat="46.06692" lon="6.76856">
        <ele>1474.6</ele>
        <time>2026-06-26T11:37:07Z</time>
      </trkpt>
      <trkpt lat="46.06692" lon="6.76856">
        <ele>1474.6</ele>
        <time>2026-06-26T11:37:08Z</time>
      </trkpt>
      <trkpt lat="46.06694" lon="6.76855">
        <ele>1474.4</ele>
        <time>2026-06-26T11:37:09Z</time>
      </trkpt>
      <trkpt lat="46.06692" lon="6.76854">
        <ele>1474.2</ele>
        <time>2026-06-26T11:37:10Z</time>
      </trkpt>
      <trkpt lat="46.06691" lon="6.76852">
        <ele>1474.1</ele>
        <time>2026-06-26T11:37:11Z</time>
      </trkpt>
      <trkpt lat="46.06691" lon="6.76852">
        <ele>1474</ele>
        <time>2026-06-26T11:37:12Z</time>
      </trkpt>
      <trkpt lat="46.06691" lon="6.76852">
        <ele>1473.8</ele>
        <time>2026-06-26T11:37:13Z</time>
      </trkpt>
      <trkpt lat="46.06691" lon="6.76854">
        <ele>1473.5</ele>
        <time>2026-06-26T11:37:14Z</time>
      </trkpt>
      <trkpt lat="46.06691" lon="6.76855">
        <ele>1473.3</ele>
        <time>2026-06-26T11:37:15Z</time>
      </trkpt>
      <trkpt lat="46.0669" lon="6.76856">
        <ele>1473</ele>
        <time>2026-06-26T11:37:16Z</time>
      </trkpt>
      <trkpt lat="46.0669" lon="6.76857">
        <ele>1472.7</ele>
        <time>2026-06-26T11:37:17Z</time>
      </trkpt>
      <trkpt lat="46.0669" lon="6.76858">
        <ele>1472.5</ele>
        <time>2026-06-26T11:37:18Z</time>
      </trkpt>
      <trkpt lat="46.0669" lon="6.76859">
        <ele>1472.4</ele>
        <time>2026-06-26T11:37:19Z</time>
      </trkpt>
      <trkpt lat="46.06689" lon="6.76858">
        <ele>1472.1</ele>
        <time>2026-06-26T11:37:20Z</time>
      </trkpt>
      <trkpt lat="46.06689" lon="6.76859">
        <ele>1471.8</ele>
        <time>2026-06-26T11:37:21Z</time>
      </trkpt>
      <trkpt lat="46.06689" lon="6.7686">
        <ele>1471.6</ele>
        <time>2026-06-26T11:37:22Z</time>
      </trkpt>
      <trkpt lat="46.06688" lon="6.7686">
        <ele>1471.3</ele>
        <time>2026-06-26T11:37:23Z</time>
      </trkpt>
      <trkpt lat="46.06686" lon="6.7686">
        <ele>1471.1</ele>
        <time>2026-06-26T11:37:24Z</time>
      </trkpt>
      <trkpt lat="46.06686" lon="6.76861">
        <ele>1470.9</ele>
        <time>2026-06-26T11:37:25Z</time>
      </trkpt>
      <trkpt lat="46.06685" lon="6.76861">
        <ele>1470.7</ele>
        <time>2026-06-26T11:37:26Z</time>
      </trkpt>
      <trkpt lat="46.06684" lon="6.76861">
        <ele>1470.4</ele>
        <time>2026-06-26T11:37:27Z</time>
      </trkpt>
      <trkpt lat="46.06683" lon="6.7686">
        <ele>1470.2</ele>
        <time>2026-06-26T11:37:28Z</time>
      </trkpt>
      <trkpt lat="46.06682" lon="6.7686">
        <ele>1470</ele>
        <time>2026-06-26T11:37:29Z</time>
      </trkpt>
      <trkpt lat="46.06681" lon="6.76861">
        <ele>1469.7</ele>
        <time>2026-06-26T11:37:30Z</time>
      </trkpt>
      <trkpt lat="46.0668" lon="6.76861">
        <ele>1469.5</ele>
        <time>2026-06-26T11:37:31Z</time>
      </trkpt>
      <trkpt lat="46.06679" lon="6.76861">
        <ele>1469.3</ele>
        <time>2026-06-26T11:37:32Z</time>
      </trkpt>
      <trkpt lat="46.06678" lon="6.76862">
        <ele>1469.1</ele>
        <time>2026-06-26T11:37:33Z</time>
      </trkpt>
      <trkpt lat="46.06678" lon="6.76862">
        <ele>1468.7</ele>
        <time>2026-06-26T11:37:34Z</time>
      </trkpt>
      <trkpt lat="46.06677" lon="6.76862">
        <ele>1468.4</ele>
        <time>2026-06-26T11:37:35Z</time>
      </trkpt>
      <trkpt lat="46.06676" lon="6.76862">
        <ele>1468.1</ele>
        <time>2026-06-26T11:37:36Z</time>
      </trkpt>
      <trkpt lat="46.06674" lon="6.76861">
        <ele>1467.8</ele>
        <time>2026-06-26T11:37:37Z</time>
      </trkpt>
      <trkpt lat="46.06674" lon="6.76862">
        <ele>1467.7</ele>
        <time>2026-06-26T11:37:38Z</time>
      </trkpt>
      <trkpt lat="46.06673" lon="6.76861">
        <ele>1467.5</ele>
        <time>2026-06-26T11:37:39Z</time>
      </trkpt>
      <trkpt lat="46.06672" lon="6.76861">
        <ele>1467.3</ele>
        <time>2026-06-26T11:37:40Z</time>
      </trkpt>
      <trkpt lat="46.06672" lon="6.7686">
        <ele>1467.2</ele>
        <time>2026-06-26T11:37:41Z</time>
      </trkpt>
      <trkpt lat="46.06672" lon="6.76861">
        <ele>1467.1</ele>
        <time>2026-06-26T11:37:42Z</time>
      </trkpt>
      <trkpt lat="46.06672" lon="6.76861">
        <ele>1467</ele>
        <time>2026-06-26T11:37:43Z</time>
      </trkpt>
      <trkpt lat="46.06671" lon="6.7686">
        <ele>1466.8</ele>
        <time>2026-06-26T11:37:44Z</time>
      </trkpt>
      <trkpt lat="46.06671" lon="6.7686">
        <ele>1466.7</ele>
        <time>2026-06-26T11:37:45Z</time>
      </trkpt>
      <trkpt lat="46.06671" lon="6.76859">
        <ele>1466.6</ele>
        <time>2026-06-26T11:37:46Z</time>
      </trkpt>
      <trkpt lat="46.0667" lon="6.76859">
        <ele>1466.4</ele>
        <time>2026-06-26T11:37:47Z</time>
      </trkpt>
      <trkpt lat="46.0667" lon="6.76859">
        <ele>1466.4</ele>
        <time>2026-06-26T11:37:48Z</time>
      </trkpt>
      <trkpt lat="46.06669" lon="6.76859">
        <ele>1466.4</ele>
        <time>2026-06-26T11:37:49Z</time>
      </trkpt>
      <trkpt lat="46.06669" lon="6.7686">
        <ele>1466.3</ele>
        <time>2026-06-26T11:37:50Z</time>
      </trkpt>
      <trkpt lat="46.06668" lon="6.7686">
        <ele>1466.3</ele>
        <time>2026-06-26T11:37:51Z</time>
      </trkpt>
      <trkpt lat="46.06668" lon="6.76859">
        <ele>1466.2</ele>
        <time>2026-06-26T11:37:52Z</time>
      </trkpt>
      <trkpt lat="46.06667" lon="6.7686">
        <ele>1466.1</ele>
        <time>2026-06-26T11:37:53Z</time>
      </trkpt>
      <trkpt lat="46.06666" lon="6.76859">
        <ele>1466</ele>
        <time>2026-06-26T11:37:54Z</time>
      </trkpt>
      <trkpt lat="46.06666" lon="6.76859">
        <ele>1465.9</ele>
        <time>2026-06-26T11:37:55Z</time>
      </trkpt>
      <trkpt lat="46.06665" lon="6.76858">
        <ele>1465.8</ele>
        <time>2026-06-26T11:37:56Z</time>
      </trkpt>
      <trkpt lat="46.06664" lon="6.76858">
        <ele>1465.7</ele>
        <time>2026-06-26T11:37:57Z</time>
      </trkpt>
      <trkpt lat="46.06664" lon="6.76858">
        <ele>1465.6</ele>
        <time>2026-06-26T11:37:58Z</time>
      </trkpt>
      <trkpt lat="46.06662" lon="6.76857">
        <ele>1465.4</ele>
        <time>2026-06-26T11:37:59Z</time>
      </trkpt>
      <trkpt lat="46.06661" lon="6.76857">
        <ele>1465.2</ele>
        <time>2026-06-26T11:38:00Z</time>
      </trkpt>
      <trkpt lat="46.06661" lon="6.7686">
        <ele>1465.1</ele>
        <time>2026-06-26T11:38:01Z</time>
      </trkpt>
      <trkpt lat="46.06661" lon="6.76863">
        <ele>1464.9</ele>
        <time>2026-06-26T11:38:02Z</time>
      </trkpt>
      <trkpt lat="46.0666" lon="6.76866">
        <ele>1464.8</ele>
        <time>2026-06-26T11:38:03Z</time>
      </trkpt>
      <trkpt lat="46.0666" lon="6.76867">
        <ele>1464.5</ele>
        <time>2026-06-26T11:38:04Z</time>
      </trkpt>
      <trkpt lat="46.06659" lon="6.76871">
        <ele>1464.2</ele>
        <time>2026-06-26T11:38:05Z</time>
      </trkpt>
      <trkpt lat="46.06659" lon="6.76873">
        <ele>1463.9</ele>
        <time>2026-06-26T11:38:06Z</time>
      </trkpt>
      <trkpt lat="46.06658" lon="6.76875">
        <ele>1463.6</ele>
        <time>2026-06-26T11:38:07Z</time>
      </trkpt>
      <trkpt lat="46.06657" lon="6.76877">
        <ele>1463.3</ele>
        <time>2026-06-26T11:38:08Z</time>
      </trkpt>
      <trkpt lat="46.06655" lon="6.76876">
        <ele>1462.9</ele>
        <time>2026-06-26T11:38:09Z</time>
      </trkpt>
      <trkpt lat="46.06654" lon="6.76877">
        <ele>1462.6</ele>
        <time>2026-06-26T11:38:10Z</time>
      </trkpt>
      <trkpt lat="46.06651" lon="6.76877">
        <ele>1462.3</ele>
        <time>2026-06-26T11:38:11Z</time>
      </trkpt>
      <trkpt lat="46.06648" lon="6.76877">
        <ele>1462.2</ele>
        <time>2026-06-26T11:38:12Z</time>
      </trkpt>
      <trkpt lat="46.06646" lon="6.76876">
        <ele>1461.8</ele>
        <time>2026-06-26T11:38:13Z</time>
      </trkpt>
      <trkpt lat="46.06644" lon="6.76876">
        <ele>1461.4</ele>
        <time>2026-06-26T11:38:14Z</time>
      </trkpt>
      <trkpt lat="46.06643" lon="6.76876">
        <ele>1461.1</ele>
        <time>2026-06-26T11:38:15Z</time>
      </trkpt>
      <trkpt lat="46.0664" lon="6.76875">
        <ele>1460.9</ele>
        <time>2026-06-26T11:38:16Z</time>
      </trkpt>
      <trkpt lat="46.06639" lon="6.76875">
        <ele>1460.6</ele>
        <time>2026-06-26T11:38:17Z</time>
      </trkpt>
      <trkpt lat="46.06638" lon="6.76875">
        <ele>1460.4</ele>
        <time>2026-06-26T11:38:18Z</time>
      </trkpt>
      <trkpt lat="46.06636" lon="6.76877">
        <ele>1459.8</ele>
        <time>2026-06-26T11:38:19Z</time>
      </trkpt>
      <trkpt lat="46.06635" lon="6.76881">
        <ele>1459.4</ele>
        <time>2026-06-26T11:38:20Z</time>
      </trkpt>
      <trkpt lat="46.06633" lon="6.76883">
        <ele>1459.1</ele>
        <time>2026-06-26T11:38:21Z</time>
      </trkpt>
      <trkpt lat="46.06631" lon="6.76884">
        <ele>1458.8</ele>
        <time>2026-06-26T11:38:22Z</time>
      </trkpt>
      <trkpt lat="46.06629" lon="6.76883">
        <ele>1458.4</ele>
        <time>2026-06-26T11:38:23Z</time>
      </trkpt>
      <trkpt lat="46.06628" lon="6.76886">
        <ele>1458.2</ele>
        <time>2026-06-26T11:38:24Z</time>
      </trkpt>
      <trkpt lat="46.06626" lon="6.76886">
        <ele>1458</ele>
        <time>2026-06-26T11:38:25Z</time>
      </trkpt>
      <trkpt lat="46.06626" lon="6.76888">
        <ele>1457.9</ele>
        <time>2026-06-26T11:38:26Z</time>
      </trkpt>
      <trkpt lat="46.06625" lon="6.7689">
        <ele>1457.8</ele>
        <time>2026-06-26T11:38:27Z</time>
      </trkpt>
      <trkpt lat="46.06623" lon="6.7689">
        <ele>1457.6</ele>
        <time>2026-06-26T11:38:28Z</time>
      </trkpt>
      <trkpt lat="46.06621" lon="6.7689">
        <ele>1457.3</ele>
        <time>2026-06-26T11:38:29Z</time>
      </trkpt>
      <trkpt lat="46.0662" lon="6.76889">
        <ele>1457</ele>
        <time>2026-06-26T11:38:30Z</time>
      </trkpt>
      <trkpt lat="46.06619" lon="6.7689">
        <ele>1456.8</ele>
        <time>2026-06-26T11:38:31Z</time>
      </trkpt>
      <trkpt lat="46.06617" lon="6.76891">
        <ele>1456.5</ele>
        <time>2026-06-26T11:38:32Z</time>
      </trkpt>
      <trkpt lat="46.06614" lon="6.7689">
        <ele>1456.2</ele>
        <time>2026-06-26T11:38:33Z</time>
      </trkpt>
      <trkpt lat="46.06612" lon="6.76891">
        <ele>1456</ele>
        <time>2026-06-26T11:38:34Z</time>
      </trkpt>
      <trkpt lat="46.06611" lon="6.76892">
        <ele>1455.7</ele>
        <time>2026-06-26T11:38:35Z</time>
      </trkpt>
      <trkpt lat="46.0661" lon="6.76894">
        <ele>1455.4</ele>
        <time>2026-06-26T11:38:36Z</time>
      </trkpt>
      <trkpt lat="46.0661" lon="6.76895">
        <ele>1455.1</ele>
        <time>2026-06-26T11:38:37Z</time>
      </trkpt>
      <trkpt lat="46.06609" lon="6.76896">
        <ele>1454.9</ele>
        <time>2026-06-26T11:38:38Z</time>
      </trkpt>
      <trkpt lat="46.06607" lon="6.76896">
        <ele>1454.5</ele>
        <time>2026-06-26T11:38:39Z</time>
      </trkpt>
      <trkpt lat="46.06606" lon="6.76897">
        <ele>1454.2</ele>
        <time>2026-06-26T11:38:40Z</time>
      </trkpt>
      <trkpt lat="46.06605" lon="6.76898">
        <ele>1453.8</ele>
        <time>2026-06-26T11:38:41Z</time>
      </trkpt>
      <trkpt lat="46.06604" lon="6.76899">
        <ele>1453.5</ele>
        <time>2026-06-26T11:38:42Z</time>
      </trkpt>
      <trkpt lat="46.06602" lon="6.769">
        <ele>1453.3</ele>
        <time>2026-06-26T11:38:43Z</time>
      </trkpt>
      <trkpt lat="46.06602" lon="6.76901">
        <ele>1453.1</ele>
        <time>2026-06-26T11:38:44Z</time>
      </trkpt>
      <trkpt lat="46.066" lon="6.76902">
        <ele>1452.8</ele>
        <time>2026-06-26T11:38:45Z</time>
      </trkpt>
      <trkpt lat="46.06599" lon="6.76903">
        <ele>1452.8</ele>
        <time>2026-06-26T11:38:46Z</time>
      </trkpt>
      <trkpt lat="46.06598" lon="6.76904">
        <ele>1452.5</ele>
        <time>2026-06-26T11:38:47Z</time>
      </trkpt>
      <trkpt lat="46.06597" lon="6.76905">
        <ele>1452.4</ele>
        <time>2026-06-26T11:38:48Z</time>
      </trkpt>
      <trkpt lat="46.06597" lon="6.76907">
        <ele>1452.1</ele>
        <time>2026-06-26T11:38:49Z</time>
      </trkpt>
      <trkpt lat="46.06596" lon="6.76908">
        <ele>1452.2</ele>
        <time>2026-06-26T11:38:50Z</time>
      </trkpt>
      <trkpt lat="46.06595" lon="6.7691">
        <ele>1452</ele>
        <time>2026-06-26T11:38:51Z</time>
      </trkpt>
      <trkpt lat="46.06594" lon="6.7691">
        <ele>1451.8</ele>
        <time>2026-06-26T11:38:52Z</time>
      </trkpt>
      <trkpt lat="46.06593" lon="6.76912">
        <ele>1451.5</ele>
        <time>2026-06-26T11:38:53Z</time>
      </trkpt>
      <trkpt lat="46.06591" lon="6.76913">
        <ele>1451.3</ele>
        <time>2026-06-26T11:38:54Z</time>
      </trkpt>
      <trkpt lat="46.0659" lon="6.76914">
        <ele>1451.1</ele>
        <time>2026-06-26T11:38:55Z</time>
      </trkpt>
      <trkpt lat="46.06589" lon="6.76914">
        <ele>1451</ele>
        <time>2026-06-26T11:38:56Z</time>
      </trkpt>
      <trkpt lat="46.06588" lon="6.76914">
        <ele>1450.7</ele>
        <time>2026-06-26T11:38:57Z</time>
      </trkpt>
      <trkpt lat="46.06586" lon="6.76914">
        <ele>1450.4</ele>
        <time>2026-06-26T11:38:58Z</time>
      </trkpt>
      <trkpt lat="46.06585" lon="6.76915">
        <ele>1450</ele>
        <time>2026-06-26T11:38:59Z</time>
      </trkpt>
      <trkpt lat="46.06584" lon="6.76915">
        <ele>1449.8</ele>
        <time>2026-06-26T11:39:00Z</time>
      </trkpt>
      <trkpt lat="46.06583" lon="6.76916">
        <ele>1449.5</ele>
        <time>2026-06-26T11:39:01Z</time>
      </trkpt>
      <trkpt lat="46.06582" lon="6.76916">
        <ele>1449.3</ele>
        <time>2026-06-26T11:39:02Z</time>
      </trkpt>
      <trkpt lat="46.0658" lon="6.76917">
        <ele>1449</ele>
        <time>2026-06-26T11:39:03Z</time>
      </trkpt>
      <trkpt lat="46.06578" lon="6.76917">
        <ele>1448.7</ele>
        <time>2026-06-26T11:39:04Z</time>
      </trkpt>
      <trkpt lat="46.06576" lon="6.76918">
        <ele>1448.5</ele>
        <time>2026-06-26T11:39:05Z</time>
      </trkpt>
      <trkpt lat="46.06575" lon="6.76918">
        <ele>1448.3</ele>
        <time>2026-06-26T11:39:06Z</time>
      </trkpt>
      <trkpt lat="46.06574" lon="6.76919">
        <ele>1447.9</ele>
        <time>2026-06-26T11:39:07Z</time>
      </trkpt>
      <trkpt lat="46.06573" lon="6.76919">
        <ele>1447.5</ele>
        <time>2026-06-26T11:39:08Z</time>
      </trkpt>
      <trkpt lat="46.06571" lon="6.7692">
        <ele>1447.2</ele>
        <time>2026-06-26T11:39:09Z</time>
      </trkpt>
      <trkpt lat="46.0657" lon="6.76921">
        <ele>1446.9</ele>
        <time>2026-06-26T11:39:10Z</time>
      </trkpt>
      <trkpt lat="46.06569" lon="6.76923">
        <ele>1446.2</ele>
        <time>2026-06-26T11:39:11Z</time>
      </trkpt>
      <trkpt lat="46.06569" lon="6.76923">
        <ele>1445.9</ele>
        <time>2026-06-26T11:39:12Z</time>
      </trkpt>
      <trkpt lat="46.06567" lon="6.76923">
        <ele>1445.5</ele>
        <time>2026-06-26T11:39:13Z</time>
      </trkpt>
      <trkpt lat="46.06566" lon="6.76924">
        <ele>1445.2</ele>
        <time>2026-06-26T11:39:14Z</time>
      </trkpt>
      <trkpt lat="46.06565" lon="6.76924">
        <ele>1444.9</ele>
        <time>2026-06-26T11:39:15Z</time>
      </trkpt>
      <trkpt lat="46.06565" lon="6.76926">
        <ele>1444.7</ele>
        <time>2026-06-26T11:39:16Z</time>
      </trkpt>
      <trkpt lat="46.06564" lon="6.76926">
        <ele>1444.3</ele>
        <time>2026-06-26T11:39:17Z</time>
      </trkpt>
      <trkpt lat="46.06563" lon="6.76928">
        <ele>1444</ele>
        <time>2026-06-26T11:39:18Z</time>
      </trkpt>
      <trkpt lat="46.06561" lon="6.76929">
        <ele>1443.8</ele>
        <time>2026-06-26T11:39:19Z</time>
      </trkpt>
      <trkpt lat="46.0656" lon="6.7693">
        <ele>1443.6</ele>
        <time>2026-06-26T11:39:20Z</time>
      </trkpt>
      <trkpt lat="46.06559" lon="6.76931">
        <ele>1443.4</ele>
        <time>2026-06-26T11:39:21Z</time>
      </trkpt>
      <trkpt lat="46.06558" lon="6.76932">
        <ele>1443.2</ele>
        <time>2026-06-26T11:39:22Z</time>
      </trkpt>
      <trkpt lat="46.06557" lon="6.76933">
        <ele>1443.1</ele>
        <time>2026-06-26T11:39:23Z</time>
      </trkpt>
      <trkpt lat="46.06557" lon="6.76935">
        <ele>1443</ele>
        <time>2026-06-26T11:39:24Z</time>
      </trkpt>
      <trkpt lat="46.06557" lon="6.76938">
        <ele>1442.8</ele>
        <time>2026-06-26T11:39:25Z</time>
      </trkpt>
      <trkpt lat="46.06556" lon="6.7694">
        <ele>1442.6</ele>
        <time>2026-06-26T11:39:26Z</time>
      </trkpt>
      <trkpt lat="46.06556" lon="6.76942">
        <ele>1442.4</ele>
        <time>2026-06-26T11:39:27Z</time>
      </trkpt>
      <trkpt lat="46.06555" lon="6.76942">
        <ele>1442.1</ele>
        <time>2026-06-26T11:39:28Z</time>
      </trkpt>
      <trkpt lat="46.06554" lon="6.76943">
        <ele>1441.9</ele>
        <time>2026-06-26T11:39:29Z</time>
      </trkpt>
      <trkpt lat="46.06552" lon="6.76944">
        <ele>1441.6</ele>
        <time>2026-06-26T11:39:30Z</time>
      </trkpt>
      <trkpt lat="46.0655" lon="6.76945">
        <ele>1441.4</ele>
        <time>2026-06-26T11:39:31Z</time>
      </trkpt>
      <trkpt lat="46.06549" lon="6.76946">
        <ele>1441.1</ele>
        <time>2026-06-26T11:39:32Z</time>
      </trkpt>
      <trkpt lat="46.06548" lon="6.76946">
        <ele>1440.8</ele>
        <time>2026-06-26T11:39:33Z</time>
      </trkpt>
      <trkpt lat="46.06547" lon="6.76947">
        <ele>1440.6</ele>
        <time>2026-06-26T11:39:34Z</time>
      </trkpt>
      <trkpt lat="46.06546" lon="6.76948">
        <ele>1440.2</ele>
        <time>2026-06-26T11:39:35Z</time>
      </trkpt>
      <trkpt lat="46.06545" lon="6.76948">
        <ele>1440.1</ele>
        <time>2026-06-26T11:39:36Z</time>
      </trkpt>
      <trkpt lat="46.06544" lon="6.76947">
        <ele>1439.3</ele>
        <time>2026-06-26T11:39:37Z</time>
      </trkpt>
      <trkpt lat="46.06543" lon="6.76947">
        <ele>1439</ele>
        <time>2026-06-26T11:39:38Z</time>
      </trkpt>
      <trkpt lat="46.06542" lon="6.76947">
        <ele>1438.7</ele>
        <time>2026-06-26T11:39:39Z</time>
      </trkpt>
      <trkpt lat="46.06541" lon="6.76948">
        <ele>1438.5</ele>
        <time>2026-06-26T11:39:40Z</time>
      </trkpt>
      <trkpt lat="46.0654" lon="6.76948">
        <ele>1438.3</ele>
        <time>2026-06-26T11:39:41Z</time>
      </trkpt>
      <trkpt lat="46.06539" lon="6.76949">
        <ele>1438.1</ele>
        <time>2026-06-26T11:39:42Z</time>
      </trkpt>
      <trkpt lat="46.06538" lon="6.7695">
        <ele>1438</ele>
        <time>2026-06-26T11:39:43Z</time>
      </trkpt>
      <trkpt lat="46.06538" lon="6.76951">
        <ele>1437.8</ele>
        <time>2026-06-26T11:39:44Z</time>
      </trkpt>
      <trkpt lat="46.06537" lon="6.76952">
        <ele>1437.4</ele>
        <time>2026-06-26T11:39:45Z</time>
      </trkpt>
      <trkpt lat="46.06536" lon="6.76952">
        <ele>1437.2</ele>
        <time>2026-06-26T11:39:46Z</time>
      </trkpt>
      <trkpt lat="46.06535" lon="6.76953">
        <ele>1437</ele>
        <time>2026-06-26T11:39:47Z</time>
      </trkpt>
      <trkpt lat="46.06535" lon="6.76954">
        <ele>1436.8</ele>
        <time>2026-06-26T11:39:48Z</time>
      </trkpt>
      <trkpt lat="46.06534" lon="6.76955">
        <ele>1436.6</ele>
        <time>2026-06-26T11:39:49Z</time>
      </trkpt>
      <trkpt lat="46.06533" lon="6.76955">
        <ele>1436.3</ele>
        <time>2026-06-26T11:39:50Z</time>
      </trkpt>
      <trkpt lat="46.06532" lon="6.76956">
        <ele>1436</ele>
        <time>2026-06-26T11:39:51Z</time>
      </trkpt>
      <trkpt lat="46.06531" lon="6.76956">
        <ele>1435.6</ele>
        <time>2026-06-26T11:39:52Z</time>
      </trkpt>
      <trkpt lat="46.0653" lon="6.76957">
        <ele>1435.3</ele>
        <time>2026-06-26T11:39:53Z</time>
      </trkpt>
      <trkpt lat="46.06529" lon="6.76956">
        <ele>1434.9</ele>
        <time>2026-06-26T11:39:54Z</time>
      </trkpt>
      <trkpt lat="46.06529" lon="6.76956">
        <ele>1434.7</ele>
        <time>2026-06-26T11:39:55Z</time>
      </trkpt>
      <trkpt lat="46.06528" lon="6.76957">
        <ele>1434.5</ele>
        <time>2026-06-26T11:39:56Z</time>
      </trkpt>
      <trkpt lat="46.06528" lon="6.76958">
        <ele>1434.3</ele>
        <time>2026-06-26T11:39:57Z</time>
      </trkpt>
      <trkpt lat="46.06527" lon="6.76958">
        <ele>1434.1</ele>
        <time>2026-06-26T11:39:58Z</time>
      </trkpt>
      <trkpt lat="46.06526" lon="6.76958">
        <ele>1433.9</ele>
        <time>2026-06-26T11:39:59Z</time>
      </trkpt>
      <trkpt lat="46.06524" lon="6.76958">
        <ele>1433.7</ele>
        <time>2026-06-26T11:40:00Z</time>
      </trkpt>
      <trkpt lat="46.06523" lon="6.76958">
        <ele>1433.6</ele>
        <time>2026-06-26T11:40:01Z</time>
      </trkpt>
      <trkpt lat="46.06522" lon="6.76958">
        <ele>1433.7</ele>
        <time>2026-06-26T11:40:02Z</time>
      </trkpt>
      <trkpt lat="46.06521" lon="6.76958">
        <ele>1433.4</ele>
        <time>2026-06-26T11:40:03Z</time>
      </trkpt>
      <trkpt lat="46.0652" lon="6.76959">
        <ele>1433.1</ele>
        <time>2026-06-26T11:40:04Z</time>
      </trkpt>
      <trkpt lat="46.06519" lon="6.76959">
        <ele>1432.8</ele>
        <time>2026-06-26T11:40:05Z</time>
      </trkpt>
      <trkpt lat="46.06518" lon="6.76959">
        <ele>1432.6</ele>
        <time>2026-06-26T11:40:06Z</time>
      </trkpt>
      <trkpt lat="46.06517" lon="6.7696">
        <ele>1432.2</ele>
        <time>2026-06-26T11:40:07Z</time>
      </trkpt>
      <trkpt lat="46.06517" lon="6.76961">
        <ele>1432</ele>
        <time>2026-06-26T11:40:08Z</time>
      </trkpt>
      <trkpt lat="46.06516" lon="6.76962">
        <ele>1431.7</ele>
        <time>2026-06-26T11:40:09Z</time>
      </trkpt>
      <trkpt lat="46.06515" lon="6.76963">
        <ele>1431.6</ele>
        <time>2026-06-26T11:40:10Z</time>
      </trkpt>
      <trkpt lat="46.06514" lon="6.76963">
        <ele>1431.5</ele>
        <time>2026-06-26T11:40:11Z</time>
      </trkpt>
      <trkpt lat="46.06513" lon="6.76965">
        <ele>1431.3</ele>
        <time>2026-06-26T11:40:12Z</time>
      </trkpt>
      <trkpt lat="46.06512" lon="6.76966">
        <ele>1431.1</ele>
        <time>2026-06-26T11:40:13Z</time>
      </trkpt>
      <trkpt lat="46.06511" lon="6.76967">
        <ele>1430.9</ele>
        <time>2026-06-26T11:40:14Z</time>
      </trkpt>
      <trkpt lat="46.06511" lon="6.76968">
        <ele>1430.8</ele>
        <time>2026-06-26T11:40:15Z</time>
      </trkpt>
      <trkpt lat="46.0651" lon="6.76969">
        <ele>1430.5</ele>
        <time>2026-06-26T11:40:16Z</time>
      </trkpt>
      <trkpt lat="46.0651" lon="6.76969">
        <ele>1430.1</ele>
        <time>2026-06-26T11:40:17Z</time>
      </trkpt>
      <trkpt lat="46.0651" lon="6.7697">
        <ele>1429.7</ele>
        <time>2026-06-26T11:40:18Z</time>
      </trkpt>
      <trkpt lat="46.06509" lon="6.7697">
        <ele>1429.5</ele>
        <time>2026-06-26T11:40:19Z</time>
      </trkpt>
      <trkpt lat="46.06508" lon="6.7697">
        <ele>1429.3</ele>
        <time>2026-06-26T11:40:20Z</time>
      </trkpt>
      <trkpt lat="46.06509" lon="6.76971">
        <ele>1429.1</ele>
        <time>2026-06-26T11:40:21Z</time>
      </trkpt>
      <trkpt lat="46.06509" lon="6.76971">
        <ele>1429</ele>
        <time>2026-06-26T11:40:22Z</time>
      </trkpt>
      <trkpt lat="46.06509" lon="6.76971">
        <ele>1428.9</ele>
        <time>2026-06-26T11:40:23Z</time>
      </trkpt>
      <trkpt lat="46.06509" lon="6.76971">
        <ele>1428.8</ele>
        <time>2026-06-26T11:40:24Z</time>
      </trkpt>
      <trkpt lat="46.06509" lon="6.76971">
        <ele>1428.7</ele>
        <time>2026-06-26T11:40:25Z</time>
      </trkpt>
      <trkpt lat="46.06509" lon="6.7697">
        <ele>1428.6</ele>
        <time>2026-06-26T11:40:26Z</time>
      </trkpt>
      <trkpt lat="46.06509" lon="6.7697">
        <ele>1428.6</ele>
        <time>2026-06-26T11:40:27Z</time>
      </trkpt>
      <trkpt lat="46.06508" lon="6.7697">
        <ele>1428.6</ele>
        <time>2026-06-26T11:40:28Z</time>
      </trkpt>
      <trkpt lat="46.06507" lon="6.76971">
        <ele>1428.6</ele>
        <time>2026-06-26T11:40:29Z</time>
      </trkpt>
      <trkpt lat="46.06506" lon="6.76971">
        <ele>1428.5</ele>
        <time>2026-06-26T11:40:30Z</time>
      </trkpt>
      <trkpt lat="46.06505" lon="6.76971">
        <ele>1428.5</ele>
        <time>2026-06-26T11:40:31Z</time>
      </trkpt>
      <trkpt lat="46.06505" lon="6.76971">
        <ele>1428.5</ele>
        <time>2026-06-26T11:40:32Z</time>
      </trkpt>
      <trkpt lat="46.06505" lon="6.7697">
        <ele>1428.4</ele>
        <time>2026-06-26T11:40:33Z</time>
      </trkpt>
      <trkpt lat="46.06504" lon="6.7697">
        <ele>1428.3</ele>
        <time>2026-06-26T11:40:34Z</time>
      </trkpt>
      <trkpt lat="46.06505" lon="6.76971">
        <ele>1428.2</ele>
        <time>2026-06-26T11:40:35Z</time>
      </trkpt>
      <trkpt lat="46.06505" lon="6.7697">
        <ele>1428.2</ele>
        <time>2026-06-26T11:40:36Z</time>
      </trkpt>
      <trkpt lat="46.06505" lon="6.7697">
        <ele>1428.2</ele>
        <time>2026-06-26T11:40:37Z</time>
      </trkpt>
      <trkpt lat="46.06505" lon="6.7697">
        <ele>1428.1</ele>
        <time>2026-06-26T11:40:38Z</time>
      </trkpt>
      <trkpt lat="46.06504" lon="6.76969">
        <ele>1428.2</ele>
        <time>2026-06-26T11:40:39Z</time>
      </trkpt>
      <trkpt lat="46.06504" lon="6.76969">
        <ele>1428.2</ele>
        <time>2026-06-26T11:40:40Z</time>
      </trkpt>
      <trkpt lat="46.06504" lon="6.76969">
        <ele>1428.2</ele>
        <time>2026-06-26T11:40:41Z</time>
      </trkpt>
      <trkpt lat="46.06503" lon="6.76968">
        <ele>1428.3</ele>
        <time>2026-06-26T11:40:42Z</time>
      </trkpt>
      <trkpt lat="46.06503" lon="6.76967">
        <ele>1428.2</ele>
        <time>2026-06-26T11:40:43Z</time>
      </trkpt>
      <trkpt lat="46.06503" lon="6.76967">
        <ele>1428.1</ele>
        <time>2026-06-26T11:40:44Z</time>
      </trkpt>
      <trkpt lat="46.06503" lon="6.76967">
        <ele>1428</ele>
        <time>2026-06-26T11:40:45Z</time>
      </trkpt>
      <trkpt lat="46.06503" lon="6.76967">
        <ele>1427.9</ele>
        <time>2026-06-26T11:40:46Z</time>
      </trkpt>
      <trkpt lat="46.06503" lon="6.76967">
        <ele>1428</ele>
        <time>2026-06-26T11:40:47Z</time>
      </trkpt>
      <trkpt lat="46.06503" lon="6.76967">
        <ele>1428</ele>
        <time>2026-06-26T11:40:48Z</time>
      </trkpt>
      <trkpt lat="46.06503" lon="6.76967">
        <ele>1428.1</ele>
        <time>2026-06-26T11:40:49Z</time>
      </trkpt>
      <trkpt lat="46.06503" lon="6.76967">
        <ele>1428.1</ele>
        <time>2026-06-26T11:40:50Z</time>
      </trkpt>
      <trkpt lat="46.06503" lon="6.76967">
        <ele>1428</ele>
        <time>2026-06-26T11:40:51Z</time>
      </trkpt>
      <trkpt lat="46.06503" lon="6.76967">
        <ele>1427.9</ele>
        <time>2026-06-26T11:40:52Z</time>
      </trkpt>
      <trkpt lat="46.06503" lon="6.76966">
        <ele>1427.8</ele>
        <time>2026-06-26T11:40:53Z</time>
      </trkpt>
      <trkpt lat="46.06503" lon="6.76966">
        <ele>1427.9</ele>
        <time>2026-06-26T11:40:54Z</time>
      </trkpt>
      <trkpt lat="46.06503" lon="6.76966">
        <ele>1428</ele>
        <time>2026-06-26T11:40:55Z</time>
      </trkpt>
      <trkpt lat="46.06503" lon="6.76966">
        <ele>1427.9</ele>
        <time>2026-06-26T11:40:56Z</time>
      </trkpt>
      <trkpt lat="46.06502" lon="6.76966">
        <ele>1427.8</ele>
        <time>2026-06-26T11:40:57Z</time>
      </trkpt>
      <trkpt lat="46.06502" lon="6.76965">
        <ele>1427.8</ele>
        <time>2026-06-26T11:40:58Z</time>
      </trkpt>
      <trkpt lat="46.06502" lon="6.76965">
        <ele>1427.8</ele>
        <time>2026-06-26T11:40:59Z</time>
      </trkpt>
      <trkpt lat="46.06502" lon="6.76965">
        <ele>1427.7</ele>
        <time>2026-06-26T11:41:00Z</time>
      </trkpt>
      <trkpt lat="46.06502" lon="6.76965">
        <ele>1427.7</ele>
        <time>2026-06-26T11:41:01Z</time>
      </trkpt>
      <trkpt lat="46.06502" lon="6.76965">
        <ele>1427.7</ele>
        <time>2026-06-26T11:41:02Z</time>
      </trkpt>
      <trkpt lat="46.06502" lon="6.76965">
        <ele>1427.6</ele>
        <time>2026-06-26T11:41:03Z</time>
      </trkpt>
      <trkpt lat="46.06502" lon="6.76965">
        <ele>1427.6</ele>
        <time>2026-06-26T11:41:04Z</time>
      </trkpt>
      <trkpt lat="46.06502" lon="6.76965">
        <ele>1427.6</ele>
        <time>2026-06-26T11:41:05Z</time>
      </trkpt>
      <trkpt lat="46.06502" lon="6.76965">
        <ele>1427.5</ele>
        <time>2026-06-26T11:41:06Z</time>
      </trkpt>
      <trkpt lat="46.06502" lon="6.76965">
        <ele>1427.5</ele>
        <time>2026-06-26T11:41:07Z</time>
      </trkpt>
      <trkpt lat="46.06502" lon="6.76966">
        <ele>1427.5</ele>
        <time>2026-06-26T11:41:08Z</time>
      </trkpt>
      <trkpt lat="46.06502" lon="6.76966">
        <ele>1427.5</ele>
        <time>2026-06-26T11:41:09Z</time>
      </trkpt>
      <trkpt lat="46.06502" lon="6.76966">
        <ele>1427.5</ele>
        <time>2026-06-26T11:41:10Z</time>
      </trkpt>
      <trkpt lat="46.06502" lon="6.76966">
        <ele>1427.5</ele>
        <time>2026-06-26T11:41:11Z</time>
      </trkpt>
      <trkpt lat="46.06502" lon="6.76966">
        <ele>1427.4</ele>
        <time>2026-06-26T11:41:12Z</time>
      </trkpt>
      <trkpt lat="46.06502" lon="6.76966">
        <ele>1427.3</ele>
        <time>2026-06-26T11:41:13Z</time>
      </trkpt>
      <trkpt lat="46.06502" lon="6.76966">
        <ele>1427.2</ele>
        <time>2026-06-26T11:41:14Z</time>
      </trkpt>
      <trkpt lat="46.06502" lon="6.76966">
        <ele>1427.2</ele>
        <time>2026-06-26T11:41:15Z</time>
      </trkpt>
      <trkpt lat="46.06502" lon="6.76965">
        <ele>1427.2</ele>
        <time>2026-06-26T11:41:16Z</time>
      </trkpt>
      <trkpt lat="46.06501" lon="6.76965">
        <ele>1427.3</ele>
        <time>2026-06-26T11:41:17Z</time>
      </trkpt>
      <trkpt lat="46.06501" lon="6.76965">
        <ele>1427.3</ele>
        <time>2026-06-26T11:41:18Z</time>
      </trkpt>
      <trkpt lat="46.06501" lon="6.76965">
        <ele>1427.2</ele>
        <time>2026-06-26T11:41:19Z</time>
      </trkpt>
      <trkpt lat="46.06501" lon="6.76964">
        <ele>1427.2</ele>
        <time>2026-06-26T11:41:20Z</time>
      </trkpt>
      <trkpt lat="46.06501" lon="6.76964">
        <ele>1427.3</ele>
        <time>2026-06-26T11:41:21Z</time>
      </trkpt>
      <trkpt lat="46.065" lon="6.76964">
        <ele>1427.4</ele>
        <time>2026-06-26T11:41:22Z</time>
      </trkpt>
      <trkpt lat="46.065" lon="6.76964">
        <ele>1427.4</ele>
        <time>2026-06-26T11:41:23Z</time>
      </trkpt>
      <trkpt lat="46.065" lon="6.76964">
        <ele>1427.5</ele>
        <time>2026-06-26T11:41:24Z</time>
      </trkpt>
      <trkpt lat="46.065" lon="6.76964">
        <ele>1427.5</ele>
        <time>2026-06-26T11:41:25Z</time>
      </trkpt>
      <trkpt lat="46.065" lon="6.76964">
        <ele>1427.4</ele>
        <time>2026-06-26T11:41:26Z</time>
      </trkpt>
      <trkpt lat="46.065" lon="6.76964">
        <ele>1427.5</ele>
        <time>2026-06-26T11:41:27Z</time>
      </trkpt>
      <trkpt lat="46.065" lon="6.76964">
        <ele>1427.5</ele>
        <time>2026-06-26T11:41:28Z</time>
      </trkpt>
      <trkpt lat="46.065" lon="6.76964">
        <ele>1427.3</ele>
        <time>2026-06-26T11:41:29Z</time>
      </trkpt>
      <trkpt lat="46.065" lon="6.76964">
        <ele>1427.2</ele>
        <time>2026-06-26T11:41:30Z</time>
      </trkpt>
      <trkpt lat="46.065" lon="6.76964">
        <ele>1427.3</ele>
        <time>2026-06-26T11:41:31Z</time>
      </trkpt>
      <trkpt lat="46.065" lon="6.76965">
        <ele>1427.2</ele>
        <time>2026-06-26T11:41:32Z</time>
      </trkpt>
      <trkpt lat="46.065" lon="6.76965">
        <ele>1427.2</ele>
        <time>2026-06-26T11:41:33Z</time>
      </trkpt>
      <trkpt lat="46.06499" lon="6.76965">
        <ele>1427.2</ele>
        <time>2026-06-26T11:41:34Z</time>
      </trkpt>
      <trkpt lat="46.06499" lon="6.76965">
        <ele>1427.2</ele>
        <time>2026-06-26T11:41:35Z</time>
      </trkpt>
      <trkpt lat="46.06499" lon="6.76965">
        <ele>1427.1</ele>
        <time>2026-06-26T11:41:36Z</time>
      </trkpt>
      <trkpt lat="46.06499" lon="6.76965">
        <ele>1427.2</ele>
        <time>2026-06-26T11:41:37Z</time>
      </trkpt>
      <trkpt lat="46.06499" lon="6.76965">
        <ele>1427.2</ele>
        <time>2026-06-26T11:41:38Z</time>
      </trkpt>
      <trkpt lat="46.06499" lon="6.76965">
        <ele>1427.2</ele>
        <time>2026-06-26T11:41:39Z</time>
      </trkpt>
      <trkpt lat="46.06499" lon="6.76966">
        <ele>1427.1</ele>
        <time>2026-06-26T11:41:40Z</time>
      </trkpt>
      <trkpt lat="46.06499" lon="6.76965">
        <ele>1427.1</ele>
        <time>2026-06-26T11:41:41Z</time>
      </trkpt>
      <trkpt lat="46.06499" lon="6.76965">
        <ele>1427.2</ele>
        <time>2026-06-26T11:41:42Z</time>
      </trkpt>
      <trkpt lat="46.06498" lon="6.76964">
        <ele>1427.2</ele>
        <time>2026-06-26T11:41:43Z</time>
      </trkpt>
      <trkpt lat="46.06498" lon="6.76964">
        <ele>1427.2</ele>
        <time>2026-06-26T11:41:44Z</time>
      </trkpt>
      <trkpt lat="46.06498" lon="6.76964">
        <ele>1427.2</ele>
        <time>2026-06-26T11:41:45Z</time>
      </trkpt>
      <trkpt lat="46.06498" lon="6.76963">
        <ele>1427.2</ele>
        <time>2026-06-26T11:41:46Z</time>
      </trkpt>
      <trkpt lat="46.06498" lon="6.76963">
        <ele>1427.2</ele>
        <time>2026-06-26T11:41:47Z</time>
      </trkpt>
      <trkpt lat="46.06497" lon="6.76961">
        <ele>1427.2</ele>
        <time>2026-06-26T11:41:48Z</time>
      </trkpt>
      <trkpt lat="46.06497" lon="6.7696">
        <ele>1427.2</ele>
        <time>2026-06-26T11:41:49Z</time>
      </trkpt>
      <trkpt lat="46.06497" lon="6.7696">
        <ele>1427.2</ele>
        <time>2026-06-26T11:41:50Z</time>
      </trkpt>
      <trkpt lat="46.06496" lon="6.76959">
        <ele>1427.2</ele>
        <time>2026-06-26T11:41:51Z</time>
      </trkpt>
      <trkpt lat="46.06496" lon="6.76958">
        <ele>1427.2</ele>
        <time>2026-06-26T11:41:52Z</time>
      </trkpt>
      <trkpt lat="46.06496" lon="6.76958">
        <ele>1427.2</ele>
        <time>2026-06-26T11:41:53Z</time>
      </trkpt>
      <trkpt lat="46.06497" lon="6.76958">
        <ele>1427.2</ele>
        <time>2026-06-26T11:41:54Z</time>
      </trkpt>
      <trkpt lat="46.06497" lon="6.76957">
        <ele>1427.2</ele>
        <time>2026-06-26T11:41:55Z</time>
      </trkpt>
      <trkpt lat="46.06497" lon="6.76958">
        <ele>1427.2</ele>
        <time>2026-06-26T11:41:56Z</time>
      </trkpt>
      <trkpt lat="46.06497" lon="6.76957">
        <ele>1427.2</ele>
        <time>2026-06-26T11:41:57Z</time>
      </trkpt>
      <trkpt lat="46.06497" lon="6.76957">
        <ele>1427.2</ele>
        <time>2026-06-26T11:41:58Z</time>
      </trkpt>
      <trkpt lat="46.06497" lon="6.76956">
        <ele>1427.1</ele>
        <time>2026-06-26T11:41:59Z</time>
      </trkpt>
      <trkpt lat="46.06497" lon="6.76956">
        <ele>1427.1</ele>
        <time>2026-06-26T11:42:00Z</time>
      </trkpt>
      <trkpt lat="46.06497" lon="6.76956">
        <ele>1427.1</ele>
        <time>2026-06-26T11:42:01Z</time>
      </trkpt>
      <trkpt lat="46.06497" lon="6.76956">
        <ele>1427</ele>
        <time>2026-06-26T11:42:02Z</time>
      </trkpt>
      <trkpt lat="46.06497" lon="6.76956">
        <ele>1426.9</ele>
        <time>2026-06-26T11:42:03Z</time>
      </trkpt>
      <trkpt lat="46.06498" lon="6.76957">
        <ele>1426.8</ele>
        <time>2026-06-26T11:42:04Z</time>
      </trkpt>
      <trkpt lat="46.06498" lon="6.76958">
        <ele>1426.8</ele>
        <time>2026-06-26T11:42:05Z</time>
      </trkpt>
      <trkpt lat="46.06498" lon="6.76958">
        <ele>1426.9</ele>
        <time>2026-06-26T11:42:06Z</time>
      </trkpt>
      <trkpt lat="46.06499" lon="6.76958">
        <ele>1426.9</ele>
        <time>2026-06-26T11:42:07Z</time>
      </trkpt>
      <trkpt lat="46.065" lon="6.76959">
        <ele>1426.9</ele>
        <time>2026-06-26T11:42:08Z</time>
      </trkpt>
      <trkpt lat="46.065" lon="6.76959">
        <ele>1426.9</ele>
        <time>2026-06-26T11:42:09Z</time>
      </trkpt>
      <trkpt lat="46.065" lon="6.76959">
        <ele>1426.9</ele>
        <time>2026-06-26T11:42:10Z</time>
      </trkpt>
      <trkpt lat="46.065" lon="6.76959">
        <ele>1426.9</ele>
        <time>2026-06-26T11:42:11Z</time>
      </trkpt>
      <trkpt lat="46.065" lon="6.7696">
        <ele>1426.9</ele>
        <time>2026-06-26T11:42:12Z</time>
      </trkpt>
      <trkpt lat="46.065" lon="6.7696">
        <ele>1426.9</ele>
        <time>2026-06-26T11:42:13Z</time>
      </trkpt>
      <trkpt lat="46.06501" lon="6.7696">
        <ele>1426.9</ele>
        <time>2026-06-26T11:42:14Z</time>
      </trkpt>
      <trkpt lat="46.06501" lon="6.7696">
        <ele>1426.9</ele>
        <time>2026-06-26T11:42:15Z</time>
      </trkpt>
      <trkpt lat="46.06501" lon="6.7696">
        <ele>1426.9</ele>
        <time>2026-06-26T11:42:16Z</time>
      </trkpt>
      <trkpt lat="46.06501" lon="6.7696">
        <ele>1426.9</ele>
        <time>2026-06-26T11:42:17Z</time>
      </trkpt>
      <trkpt lat="46.06501" lon="6.7696">
        <ele>1426.9</ele>
        <time>2026-06-26T11:42:18Z</time>
      </trkpt>
      <trkpt lat="46.065" lon="6.7696">
        <ele>1426.9</ele>
        <time>2026-06-26T11:42:19Z</time>
      </trkpt>
      <trkpt lat="46.065" lon="6.7696">
        <ele>1426.9</ele>
        <time>2026-06-26T11:42:20Z</time>
      </trkpt>
      <trkpt lat="46.065" lon="6.76959">
        <ele>1426.9</ele>
        <time>2026-06-26T11:42:21Z</time>
      </trkpt>
      <trkpt lat="46.06501" lon="6.76959">
        <ele>1427</ele>
        <time>2026-06-26T11:42:22Z</time>
      </trkpt>
      <trkpt lat="46.06501" lon="6.76959">
        <ele>1426.9</ele>
        <time>2026-06-26T11:42:23Z</time>
      </trkpt>
      <trkpt lat="46.06501" lon="6.76959">
        <ele>1426.9</ele>
        <time>2026-06-26T11:42:24Z</time>
      </trkpt>
      <trkpt lat="46.06501" lon="6.76959">
        <ele>1426.9</ele>
        <time>2026-06-26T11:42:25Z</time>
      </trkpt>
      <trkpt lat="46.06501" lon="6.76959">
        <ele>1426.9</ele>
        <time>2026-06-26T11:42:26Z</time>
      </trkpt>
      <trkpt lat="46.06501" lon="6.76959">
        <ele>1426.9</ele>
        <time>2026-06-26T11:42:27Z</time>
      </trkpt>
      <trkpt lat="46.06501" lon="6.76959">
        <ele>1426.9</ele>
        <time>2026-06-26T11:42:28Z</time>
      </trkpt>
      <trkpt lat="46.06501" lon="6.76959">
        <ele>1426.9</ele>
        <time>2026-06-26T11:42:29Z</time>
      </trkpt>
      <trkpt lat="46.06501" lon="6.76959">
        <ele>1426.9</ele>
        <time>2026-06-26T11:42:30Z</time>
      </trkpt>
      <trkpt lat="46.065" lon="6.76958">
        <ele>1426.9</ele>
        <time>2026-06-26T11:42:31Z</time>
      </trkpt>
      <trkpt lat="46.065" lon="6.76957">
        <ele>1426.9</ele>
        <time>2026-06-26T11:42:32Z</time>
      </trkpt>
      <trkpt lat="46.065" lon="6.76956">
        <ele>1426.8</ele>
        <time>2026-06-26T11:42:33Z</time>
      </trkpt>
      <trkpt lat="46.065" lon="6.76955">
        <ele>1426.8</ele>
        <time>2026-06-26T11:42:34Z</time>
      </trkpt>
      <trkpt lat="46.065" lon="6.76955">
        <ele>1426.8</ele>
        <time>2026-06-26T11:42:35Z</time>
      </trkpt>
      <trkpt lat="46.065" lon="6.76954">
        <ele>1426.8</ele>
        <time>2026-06-26T11:42:36Z</time>
      </trkpt>
      <trkpt lat="46.065" lon="6.76954">
        <ele>1426.8</ele>
        <time>2026-06-26T11:42:37Z</time>
      </trkpt>
      <trkpt lat="46.065" lon="6.76953">
        <ele>1426.9</ele>
        <time>2026-06-26T11:42:38Z</time>
      </trkpt>
      <trkpt lat="46.06499" lon="6.76952">
        <ele>1426.9</ele>
        <time>2026-06-26T11:42:39Z</time>
      </trkpt>
      <trkpt lat="46.06499" lon="6.76952">
        <ele>1426.9</ele>
        <time>2026-06-26T11:42:40Z</time>
      </trkpt>
      <trkpt lat="46.06499" lon="6.76951">
        <ele>1426.9</ele>
        <time>2026-06-26T11:42:41Z</time>
      </trkpt>
      <trkpt lat="46.06498" lon="6.7695">
        <ele>1426.9</ele>
        <time>2026-06-26T11:42:42Z</time>
      </trkpt>
      <trkpt lat="46.06497" lon="6.7695">
        <ele>1426.9</ele>
        <time>2026-06-26T11:42:43Z</time>
      </trkpt>
      <trkpt lat="46.06497" lon="6.76949">
        <ele>1426.9</ele>
        <time>2026-06-26T11:42:44Z</time>
      </trkpt>
      <trkpt lat="46.06497" lon="6.76949">
        <ele>1426.9</ele>
        <time>2026-06-26T11:42:45Z</time>
      </trkpt>
      <trkpt lat="46.06497" lon="6.76948">
        <ele>1426.9</ele>
        <time>2026-06-26T11:42:46Z</time>
      </trkpt>
      <trkpt lat="46.06496" lon="6.76947">
        <ele>1426.8</ele>
        <time>2026-06-26T11:42:47Z</time>
      </trkpt>
      <trkpt lat="46.06496" lon="6.76947">
        <ele>1426.8</ele>
        <time>2026-06-26T11:42:48Z</time>
      </trkpt>
      <trkpt lat="46.06496" lon="6.76946">
        <ele>1426.8</ele>
        <time>2026-06-26T11:42:49Z</time>
      </trkpt>
      <trkpt lat="46.06496" lon="6.76946">
        <ele>1426.8</ele>
        <time>2026-06-26T11:42:50Z</time>
      </trkpt>
      <trkpt lat="46.06496" lon="6.76947">
        <ele>1426.8</ele>
        <time>2026-06-26T11:42:51Z</time>
      </trkpt>
      <trkpt lat="46.06496" lon="6.76947">
        <ele>1426.7</ele>
        <time>2026-06-26T11:42:52Z</time>
      </trkpt>
      <trkpt lat="46.06496" lon="6.76948">
        <ele>1426.7</ele>
        <time>2026-06-26T11:42:53Z</time>
      </trkpt>
      <trkpt lat="46.06496" lon="6.76948">
        <ele>1426.8</ele>
        <time>2026-06-26T11:42:54Z</time>
      </trkpt>
      <trkpt lat="46.06495" lon="6.76948">
        <ele>1426.8</ele>
        <time>2026-06-26T11:42:55Z</time>
      </trkpt>
      <trkpt lat="46.06495" lon="6.76948">
        <ele>1426.8</ele>
        <time>2026-06-26T11:42:56Z</time>
      </trkpt>
      <trkpt lat="46.06495" lon="6.76949">
        <ele>1426.8</ele>
        <time>2026-06-26T11:42:57Z</time>
      </trkpt>
      <trkpt lat="46.06495" lon="6.76949">
        <ele>1426.8</ele>
        <time>2026-06-26T11:42:58Z</time>
      </trkpt>
      <trkpt lat="46.06495" lon="6.76949">
        <ele>1426.8</ele>
        <time>2026-06-26T11:42:59Z</time>
      </trkpt>
      <trkpt lat="46.06495" lon="6.76949">
        <ele>1426.8</ele>
        <time>2026-06-26T11:43:00Z</time>
      </trkpt>
      <trkpt lat="46.06494" lon="6.76948">
        <ele>1426.8</ele>
        <time>2026-06-26T11:43:01Z</time>
      </trkpt>
      <trkpt lat="46.06494" lon="6.76948">
        <ele>1426.8</ele>
        <time>2026-06-26T11:43:02Z</time>
      </trkpt>
      <trkpt lat="46.06494" lon="6.76947">
        <ele>1426.7</ele>
        <time>2026-06-26T11:43:03Z</time>
      </trkpt>
      <trkpt lat="46.06494" lon="6.76948">
        <ele>1426.7</ele>
        <time>2026-06-26T11:43:04Z</time>
      </trkpt>
      <trkpt lat="46.06494" lon="6.76948">
        <ele>1426.7</ele>
        <time>2026-06-26T11:43:05Z</time>
      </trkpt>
      <trkpt lat="46.06494" lon="6.76949">
        <ele>1426.7</ele>
        <time>2026-06-26T11:43:06Z</time>
      </trkpt>
      <trkpt lat="46.06494" lon="6.76949">
        <ele>1426.8</ele>
        <time>2026-06-26T11:43:07Z</time>
      </trkpt>
      <trkpt lat="46.06494" lon="6.76949">
        <ele>1426.8</ele>
        <time>2026-06-26T11:43:08Z</time>
      </trkpt>
      <trkpt lat="46.06494" lon="6.76949">
        <ele>1426.8</ele>
        <time>2026-06-26T11:43:09Z</time>
      </trkpt>
      <trkpt lat="46.06494" lon="6.76949">
        <ele>1426.8</ele>
        <time>2026-06-26T11:43:10Z</time>
      </trkpt>
      <trkpt lat="46.06494" lon="6.76949">
        <ele>1426.8</ele>
        <time>2026-06-26T11:43:11Z</time>
      </trkpt>
      <trkpt lat="46.06494" lon="6.76949">
        <ele>1426.7</ele>
        <time>2026-06-26T11:43:12Z</time>
      </trkpt>
      <trkpt lat="46.06494" lon="6.76948">
        <ele>1426.7</ele>
        <time>2026-06-26T11:43:13Z</time>
      </trkpt>
      <trkpt lat="46.06493" lon="6.76947">
        <ele>1426.6</ele>
        <time>2026-06-26T11:43:14Z</time>
      </trkpt>
      <trkpt lat="46.06493" lon="6.76946">
        <ele>1426.6</ele>
        <time>2026-06-26T11:43:15Z</time>
      </trkpt>
      <trkpt lat="46.06493" lon="6.76946">
        <ele>1426.5</ele>
        <time>2026-06-26T11:43:16Z</time>
      </trkpt>
      <trkpt lat="46.06493" lon="6.76946">
        <ele>1426.6</ele>
        <time>2026-06-26T11:43:17Z</time>
      </trkpt>
      <trkpt lat="46.06493" lon="6.76947">
        <ele>1426.5</ele>
        <time>2026-06-26T11:43:18Z</time>
      </trkpt>
      <trkpt lat="46.06494" lon="6.76947">
        <ele>1426.5</ele>
        <time>2026-06-26T11:43:19Z</time>
      </trkpt>
      <trkpt lat="46.06494" lon="6.76948">
        <ele>1426.4</ele>
        <time>2026-06-26T11:43:20Z</time>
      </trkpt>
      <trkpt lat="46.06494" lon="6.76948">
        <ele>1426.4</ele>
        <time>2026-06-26T11:43:21Z</time>
      </trkpt>
      <trkpt lat="46.06494" lon="6.76949">
        <ele>1426.4</ele>
        <time>2026-06-26T11:43:22Z</time>
      </trkpt>
      <trkpt lat="46.06494" lon="6.76949">
        <ele>1426.4</ele>
        <time>2026-06-26T11:43:23Z</time>
      </trkpt>
      <trkpt lat="46.06494" lon="6.76949">
        <ele>1426.3</ele>
        <time>2026-06-26T11:43:24Z</time>
      </trkpt>
      <trkpt lat="46.06495" lon="6.76949">
        <ele>1426.3</ele>
        <time>2026-06-26T11:43:25Z</time>
      </trkpt>
      <trkpt lat="46.06495" lon="6.76949">
        <ele>1426.2</ele>
        <time>2026-06-26T11:43:26Z</time>
      </trkpt>
      <trkpt lat="46.06495" lon="6.76949">
        <ele>1426.2</ele>
        <time>2026-06-26T11:43:27Z</time>
      </trkpt>
      <trkpt lat="46.06495" lon="6.76949">
        <ele>1426.2</ele>
        <time>2026-06-26T11:43:28Z</time>
      </trkpt>
      <trkpt lat="46.06494" lon="6.76948">
        <ele>1426.2</ele>
        <time>2026-06-26T11:43:29Z</time>
      </trkpt>
      <trkpt lat="46.06494" lon="6.76948">
        <ele>1426.1</ele>
        <time>2026-06-26T11:43:30Z</time>
      </trkpt>
      <trkpt lat="46.06494" lon="6.76948">
        <ele>1426.1</ele>
        <time>2026-06-26T11:43:31Z</time>
      </trkpt>
      <trkpt lat="46.06494" lon="6.76947">
        <ele>1426.1</ele>
        <time>2026-06-26T11:43:32Z</time>
      </trkpt>
      <trkpt lat="46.06494" lon="6.76947">
        <ele>1426.1</ele>
        <time>2026-06-26T11:43:33Z</time>
      </trkpt>
      <trkpt lat="46.06494" lon="6.76947">
        <ele>1426.1</ele>
        <time>2026-06-26T11:43:34Z</time>
      </trkpt>
      <trkpt lat="46.06494" lon="6.76947">
        <ele>1426.2</ele>
        <time>2026-06-26T11:43:35Z</time>
      </trkpt>
      <trkpt lat="46.06494" lon="6.76947">
        <ele>1426.1</ele>
        <time>2026-06-26T11:43:36Z</time>
      </trkpt>
      <trkpt lat="46.06494" lon="6.76946">
        <ele>1426</ele>
        <time>2026-06-26T11:43:37Z</time>
      </trkpt>
      <trkpt lat="46.06493" lon="6.76946">
        <ele>1426</ele>
        <time>2026-06-26T11:43:38Z</time>
      </trkpt>
      <trkpt lat="46.06493" lon="6.76946">
        <ele>1425.9</ele>
        <time>2026-06-26T11:43:39Z</time>
      </trkpt>
      <trkpt lat="46.06493" lon="6.76946">
        <ele>1425.9</ele>
        <time>2026-06-26T11:43:40Z</time>
      </trkpt>
      <trkpt lat="46.06493" lon="6.76946">
        <ele>1425.9</ele>
        <time>2026-06-26T11:43:41Z</time>
      </trkpt>
      <trkpt lat="46.06493" lon="6.76946">
        <ele>1425.9</ele>
        <time>2026-06-26T11:43:42Z</time>
      </trkpt>
      <trkpt lat="46.06493" lon="6.76946">
        <ele>1425.9</ele>
        <time>2026-06-26T11:43:43Z</time>
      </trkpt>
      <trkpt lat="46.06493" lon="6.76946">
        <ele>1425.9</ele>
        <time>2026-06-26T11:43:44Z</time>
      </trkpt>
      <trkpt lat="46.06493" lon="6.76946">
        <ele>1425.9</ele>
        <time>2026-06-26T11:43:45Z</time>
      </trkpt>
      <trkpt lat="46.06493" lon="6.76947">
        <ele>1425.9</ele>
        <time>2026-06-26T11:43:46Z</time>
      </trkpt>
      <trkpt lat="46.06493" lon="6.76947">
        <ele>1425.9</ele>
        <time>2026-06-26T11:43:47Z</time>
      </trkpt>
      <trkpt lat="46.06494" lon="6.76948">
        <ele>1425.9</ele>
        <time>2026-06-26T11:43:48Z</time>
      </trkpt>
      <trkpt lat="46.06494" lon="6.76949">
        <ele>1425.9</ele>
        <time>2026-06-26T11:43:49Z</time>
      </trkpt>
      <trkpt lat="46.06494" lon="6.76949">
        <ele>1425.9</ele>
        <time>2026-06-26T11:43:50Z</time>
      </trkpt>
      <trkpt lat="46.06494" lon="6.76949">
        <ele>1425.9</ele>
        <time>2026-06-26T11:43:51Z</time>
      </trkpt>
      <trkpt lat="46.06494" lon="6.76949">
        <ele>1425.8</ele>
        <time>2026-06-26T11:43:52Z</time>
      </trkpt>
      <trkpt lat="46.06494" lon="6.76949">
        <ele>1425.8</ele>
        <time>2026-06-26T11:43:53Z</time>
      </trkpt>
      <trkpt lat="46.06493" lon="6.76949">
        <ele>1425.8</ele>
        <time>2026-06-26T11:43:54Z</time>
      </trkpt>
      <trkpt lat="46.06493" lon="6.76949">
        <ele>1425.8</ele>
        <time>2026-06-26T11:43:55Z</time>
      </trkpt>
      <trkpt lat="46.06493" lon="6.7695">
        <ele>1425.8</ele>
        <time>2026-06-26T11:43:56Z</time>
      </trkpt>
      <trkpt lat="46.06493" lon="6.76951">
        <ele>1425.7</ele>
        <time>2026-06-26T11:43:57Z</time>
      </trkpt>
      <trkpt lat="46.06493" lon="6.76951">
        <ele>1425.7</ele>
        <time>2026-06-26T11:43:58Z</time>
      </trkpt>
      <trkpt lat="46.06493" lon="6.76952">
        <ele>1425.6</ele>
        <time>2026-06-26T11:43:59Z</time>
      </trkpt>
      <trkpt lat="46.06493" lon="6.76953">
        <ele>1425.6</ele>
        <time>2026-06-26T11:44:00Z</time>
      </trkpt>
      <trkpt lat="46.06492" lon="6.76953">
        <ele>1425.6</ele>
        <time>2026-06-26T11:44:01Z</time>
      </trkpt>
      <trkpt lat="46.06492" lon="6.76954">
        <ele>1425.6</ele>
        <time>2026-06-26T11:44:02Z</time>
      </trkpt>
      <trkpt lat="46.06491" lon="6.76954">
        <ele>1425.5</ele>
        <time>2026-06-26T11:44:03Z</time>
      </trkpt>
      <trkpt lat="46.06491" lon="6.76956">
        <ele>1425.5</ele>
        <time>2026-06-26T11:44:04Z</time>
      </trkpt>
      <trkpt lat="46.06491" lon="6.76958">
        <ele>1425.5</ele>
        <time>2026-06-26T11:44:05Z</time>
      </trkpt>
      <trkpt lat="46.06491" lon="6.76958">
        <ele>1425.4</ele>
        <time>2026-06-26T11:44:06Z</time>
      </trkpt>
      <trkpt lat="46.0649" lon="6.7696">
        <ele>1425.4</ele>
        <time>2026-06-26T11:44:07Z</time>
      </trkpt>
      <trkpt lat="46.0649" lon="6.76962">
        <ele>1425.4</ele>
        <time>2026-06-26T11:44:08Z</time>
      </trkpt>
      <trkpt lat="46.0649" lon="6.76963">
        <ele>1425.3</ele>
        <time>2026-06-26T11:44:09Z</time>
      </trkpt>
      <trkpt lat="46.06491" lon="6.76966">
        <ele>1425.2</ele>
        <time>2026-06-26T11:44:10Z</time>
      </trkpt>
      <trkpt lat="46.06491" lon="6.76968">
        <ele>1425.1</ele>
        <time>2026-06-26T11:44:11Z</time>
      </trkpt>
      <trkpt lat="46.06491" lon="6.76968">
        <ele>1424.8</ele>
        <time>2026-06-26T11:44:12Z</time>
      </trkpt>
      <trkpt lat="46.06491" lon="6.76969">
        <ele>1424.7</ele>
        <time>2026-06-26T11:44:13Z</time>
      </trkpt>
      <trkpt lat="46.0649" lon="6.76969">
        <ele>1424.5</ele>
        <time>2026-06-26T11:44:14Z</time>
      </trkpt>
      <trkpt lat="46.06491" lon="6.76971">
        <ele>1424.1</ele>
        <time>2026-06-26T11:44:15Z</time>
      </trkpt>
      <trkpt lat="46.0649" lon="6.76971">
        <ele>1424</ele>
        <time>2026-06-26T11:44:16Z</time>
      </trkpt>
      <trkpt lat="46.0649" lon="6.76972">
        <ele>1423.8</ele>
        <time>2026-06-26T11:44:17Z</time>
      </trkpt>
      <trkpt lat="46.0649" lon="6.76972">
        <ele>1423.7</ele>
        <time>2026-06-26T11:44:18Z</time>
      </trkpt>
      <trkpt lat="46.06489" lon="6.76973">
        <ele>1423.5</ele>
        <time>2026-06-26T11:44:19Z</time>
      </trkpt>
      <trkpt lat="46.06489" lon="6.76973">
        <ele>1423.4</ele>
        <time>2026-06-26T11:44:20Z</time>
      </trkpt>
      <trkpt lat="46.06489" lon="6.76973">
        <ele>1423.3</ele>
        <time>2026-06-26T11:44:21Z</time>
      </trkpt>
      <trkpt lat="46.06488" lon="6.76972">
        <ele>1423</ele>
        <time>2026-06-26T11:44:22Z</time>
      </trkpt>
      <trkpt lat="46.06487" lon="6.76971">
        <ele>1422.9</ele>
        <time>2026-06-26T11:44:23Z</time>
      </trkpt>
      <trkpt lat="46.06487" lon="6.76971">
        <ele>1422.6</ele>
        <time>2026-06-26T11:44:24Z</time>
      </trkpt>
      <trkpt lat="46.06486" lon="6.76971">
        <ele>1422.4</ele>
        <time>2026-06-26T11:44:25Z</time>
      </trkpt>
      <trkpt lat="46.06487" lon="6.76971">
        <ele>1422.2</ele>
        <time>2026-06-26T11:44:26Z</time>
      </trkpt>
      <trkpt lat="46.06487" lon="6.76971">
        <ele>1422.1</ele>
        <time>2026-06-26T11:44:27Z</time>
      </trkpt>
      <trkpt lat="46.06487" lon="6.7697">
        <ele>1421.9</ele>
        <time>2026-06-26T11:44:28Z</time>
      </trkpt>
      <trkpt lat="46.06487" lon="6.76969">
        <ele>1421.9</ele>
        <time>2026-06-26T11:44:29Z</time>
      </trkpt>
      <trkpt lat="46.06487" lon="6.76969">
        <ele>1421.8</ele>
        <time>2026-06-26T11:44:30Z</time>
      </trkpt>
      <trkpt lat="46.06488" lon="6.7697">
        <ele>1421.8</ele>
        <time>2026-06-26T11:44:31Z</time>
      </trkpt>
      <trkpt lat="46.06487" lon="6.76969">
        <ele>1421.6</ele>
        <time>2026-06-26T11:44:32Z</time>
      </trkpt>
      <trkpt lat="46.06487" lon="6.76967">
        <ele>1421.5</ele>
        <time>2026-06-26T11:44:33Z</time>
      </trkpt>
      <trkpt lat="46.06488" lon="6.76966">
        <ele>1421.5</ele>
        <time>2026-06-26T11:44:34Z</time>
      </trkpt>
      <trkpt lat="46.06488" lon="6.76965">
        <ele>1421.3</ele>
        <time>2026-06-26T11:44:35Z</time>
      </trkpt>
      <trkpt lat="46.06488" lon="6.76965">
        <ele>1421.1</ele>
        <time>2026-06-26T11:44:36Z</time>
      </trkpt>
      <trkpt lat="46.06489" lon="6.76964">
        <ele>1421</ele>
        <time>2026-06-26T11:44:37Z</time>
      </trkpt>
      <trkpt lat="46.0649" lon="6.76964">
        <ele>1420.9</ele>
        <time>2026-06-26T11:44:38Z</time>
      </trkpt>
      <trkpt lat="46.0649" lon="6.76964">
        <ele>1420.9</ele>
        <time>2026-06-26T11:44:39Z</time>
      </trkpt>
      <trkpt lat="46.0649" lon="6.76963">
        <ele>1420.8</ele>
        <time>2026-06-26T11:44:40Z</time>
      </trkpt>
      <trkpt lat="46.0649" lon="6.76962">
        <ele>1420.8</ele>
        <time>2026-06-26T11:44:41Z</time>
      </trkpt>
      <trkpt lat="46.0649" lon="6.76962">
        <ele>1420.7</ele>
        <time>2026-06-26T11:44:42Z</time>
      </trkpt>
      <trkpt lat="46.0649" lon="6.76962">
        <ele>1420.6</ele>
        <time>2026-06-26T11:44:43Z</time>
      </trkpt>
      <trkpt lat="46.06491" lon="6.76962">
        <ele>1420.6</ele>
        <time>2026-06-26T11:44:44Z</time>
      </trkpt>
      <trkpt lat="46.06491" lon="6.76963">
        <ele>1420.5</ele>
        <time>2026-06-26T11:44:45Z</time>
      </trkpt>
      <trkpt lat="46.06491" lon="6.76963">
        <ele>1420.5</ele>
        <time>2026-06-26T11:44:46Z</time>
      </trkpt>
      <trkpt lat="46.06491" lon="6.76962">
        <ele>1420.4</ele>
        <time>2026-06-26T11:44:47Z</time>
      </trkpt>
      <trkpt lat="46.06492" lon="6.76963">
        <ele>1420.4</ele>
        <time>2026-06-26T11:44:48Z</time>
      </trkpt>
      <trkpt lat="46.06492" lon="6.76963">
        <ele>1420.4</ele>
        <time>2026-06-26T11:44:49Z</time>
      </trkpt>
      <trkpt lat="46.06492" lon="6.76963">
        <ele>1420.4</ele>
        <time>2026-06-26T11:44:50Z</time>
      </trkpt>
      <trkpt lat="46.06492" lon="6.76962">
        <ele>1420.3</ele>
        <time>2026-06-26T11:44:51Z</time>
      </trkpt>
      <trkpt lat="46.06492" lon="6.76962">
        <ele>1420.3</ele>
        <time>2026-06-26T11:44:52Z</time>
      </trkpt>
      <trkpt lat="46.06492" lon="6.7696">
        <ele>1420.2</ele>
        <time>2026-06-26T11:44:53Z</time>
      </trkpt>
      <trkpt lat="46.06492" lon="6.7696">
        <ele>1420.2</ele>
        <time>2026-06-26T11:44:54Z</time>
      </trkpt>
      <trkpt lat="46.06492" lon="6.76961">
        <ele>1420.2</ele>
        <time>2026-06-26T11:44:55Z</time>
      </trkpt>
      <trkpt lat="46.06492" lon="6.76961">
        <ele>1420.1</ele>
        <time>2026-06-26T11:44:56Z</time>
      </trkpt>
      <trkpt lat="46.06492" lon="6.76961">
        <ele>1420.1</ele>
        <time>2026-06-26T11:44:57Z</time>
      </trkpt>
      <trkpt lat="46.06491" lon="6.76962">
        <ele>1420</ele>
        <time>2026-06-26T11:44:58Z</time>
      </trkpt>
      <trkpt lat="46.06492" lon="6.76962">
        <ele>1419.9</ele>
        <time>2026-06-26T11:44:59Z</time>
      </trkpt>
      <trkpt lat="46.06491" lon="6.76962">
        <ele>1419.9</ele>
        <time>2026-06-26T11:45:00Z</time>
      </trkpt>
      <trkpt lat="46.06491" lon="6.76962">
        <ele>1419.9</ele>
        <time>2026-06-26T11:45:01Z</time>
      </trkpt>
      <trkpt lat="46.06491" lon="6.76962">
        <ele>1419.9</ele>
        <time>2026-06-26T11:45:02Z</time>
      </trkpt>
      <trkpt lat="46.06491" lon="6.76962">
        <ele>1419.9</ele>
        <time>2026-06-26T11:45:03Z</time>
      </trkpt>
      <trkpt lat="46.06491" lon="6.76962">
        <ele>1419.8</ele>
        <time>2026-06-26T11:45:04Z</time>
      </trkpt>
      <trkpt lat="46.06491" lon="6.76961">
        <ele>1419.8</ele>
        <time>2026-06-26T11:45:05Z</time>
      </trkpt>
      <trkpt lat="46.06491" lon="6.76961">
        <ele>1419.6</ele>
        <time>2026-06-26T11:45:06Z</time>
      </trkpt>
      <trkpt lat="46.06491" lon="6.76961">
        <ele>1419.7</ele>
        <time>2026-06-26T11:45:07Z</time>
      </trkpt>
      <trkpt lat="46.06493" lon="6.7696">
        <ele>1419.7</ele>
        <time>2026-06-26T11:45:08Z</time>
      </trkpt>
      <trkpt lat="46.06494" lon="6.7696">
        <ele>1419.7</ele>
        <time>2026-06-26T11:45:09Z</time>
      </trkpt>
      <trkpt lat="46.06496" lon="6.76959">
        <ele>1419.7</ele>
        <time>2026-06-26T11:45:10Z</time>
      </trkpt>
      <trkpt lat="46.06497" lon="6.76958">
        <ele>1419.6</ele>
        <time>2026-06-26T11:45:11Z</time>
      </trkpt>
      <trkpt lat="46.06497" lon="6.76956">
        <ele>1419.4</ele>
        <time>2026-06-26T11:45:12Z</time>
      </trkpt>
      <trkpt lat="46.06497" lon="6.76954">
        <ele>1419.2</ele>
        <time>2026-06-26T11:45:13Z</time>
      </trkpt>
      <trkpt lat="46.06497" lon="6.76952">
        <ele>1419.1</ele>
        <time>2026-06-26T11:45:14Z</time>
      </trkpt>
      <trkpt lat="46.06498" lon="6.7695">
        <ele>1418.9</ele>
        <time>2026-06-26T11:45:15Z</time>
      </trkpt>
      <trkpt lat="46.06498" lon="6.76947">
        <ele>1418.5</ele>
        <time>2026-06-26T11:45:16Z</time>
      </trkpt>
      <trkpt lat="46.06499" lon="6.76946">
        <ele>1418.3</ele>
        <time>2026-06-26T11:45:17Z</time>
      </trkpt>
      <trkpt lat="46.06499" lon="6.76944">
        <ele>1418</ele>
        <time>2026-06-26T11:45:18Z</time>
      </trkpt>
      <trkpt lat="46.06499" lon="6.76941">
        <ele>1417.7</ele>
        <time>2026-06-26T11:45:19Z</time>
      </trkpt>
      <trkpt lat="46.06499" lon="6.76939">
        <ele>1417.2</ele>
        <time>2026-06-26T11:45:20Z</time>
      </trkpt>
      <trkpt lat="46.06499" lon="6.76937">
        <ele>1416.8</ele>
        <time>2026-06-26T11:45:21Z</time>
      </trkpt>
      <trkpt lat="46.065" lon="6.76934">
        <ele>1416.5</ele>
        <time>2026-06-26T11:45:22Z</time>
      </trkpt>
      <trkpt lat="46.065" lon="6.76932">
        <ele>1416.2</ele>
        <time>2026-06-26T11:45:23Z</time>
      </trkpt>
      <trkpt lat="46.06501" lon="6.7693">
        <ele>1415.8</ele>
        <time>2026-06-26T11:45:24Z</time>
      </trkpt>
      <trkpt lat="46.06501" lon="6.76929">
        <ele>1415.8</ele>
        <time>2026-06-26T11:45:25Z</time>
      </trkpt>
      <trkpt lat="46.06503" lon="6.76928">
        <ele>1415.6</ele>
        <time>2026-06-26T11:45:26Z</time>
      </trkpt>
      <trkpt lat="46.06504" lon="6.76926">
        <ele>1415.4</ele>
        <time>2026-06-26T11:45:27Z</time>
      </trkpt>
      <trkpt lat="46.06505" lon="6.76925">
        <ele>1415</ele>
        <time>2026-06-26T11:45:28Z</time>
      </trkpt>
      <trkpt lat="46.06506" lon="6.76924">
        <ele>1414.7</ele>
        <time>2026-06-26T11:45:29Z</time>
      </trkpt>
      <trkpt lat="46.06506" lon="6.76922">
        <ele>1414.1</ele>
        <time>2026-06-26T11:45:30Z</time>
      </trkpt>
      <trkpt lat="46.06507" lon="6.76921">
        <ele>1413.8</ele>
        <time>2026-06-26T11:45:31Z</time>
      </trkpt>
      <trkpt lat="46.06507" lon="6.7692">
        <ele>1413.6</ele>
        <time>2026-06-26T11:45:32Z</time>
      </trkpt>
      <trkpt lat="46.06508" lon="6.76919">
        <ele>1413.3</ele>
        <time>2026-06-26T11:45:33Z</time>
      </trkpt>
      <trkpt lat="46.06507" lon="6.76916">
        <ele>1413.1</ele>
        <time>2026-06-26T11:45:34Z</time>
      </trkpt>
      <trkpt lat="46.06508" lon="6.76915">
        <ele>1412.9</ele>
        <time>2026-06-26T11:45:35Z</time>
      </trkpt>
      <trkpt lat="46.06509" lon="6.76914">
        <ele>1412.6</ele>
        <time>2026-06-26T11:45:36Z</time>
      </trkpt>
      <trkpt lat="46.06509" lon="6.76912">
        <ele>1412.3</ele>
        <time>2026-06-26T11:45:37Z</time>
      </trkpt>
      <trkpt lat="46.0651" lon="6.76911">
        <ele>1412</ele>
        <time>2026-06-26T11:45:38Z</time>
      </trkpt>
      <trkpt lat="46.0651" lon="6.76909">
        <ele>1411.8</ele>
        <time>2026-06-26T11:45:39Z</time>
      </trkpt>
      <trkpt lat="46.06511" lon="6.76909">
        <ele>1411.6</ele>
        <time>2026-06-26T11:45:40Z</time>
      </trkpt>
      <trkpt lat="46.06512" lon="6.76909">
        <ele>1411.3</ele>
        <time>2026-06-26T11:45:41Z</time>
      </trkpt>
      <trkpt lat="46.06513" lon="6.76909">
        <ele>1411.1</ele>
        <time>2026-06-26T11:45:42Z</time>
      </trkpt>
      <trkpt lat="46.06514" lon="6.76908">
        <ele>1411</ele>
        <time>2026-06-26T11:45:43Z</time>
      </trkpt>
      <trkpt lat="46.06515" lon="6.76908">
        <ele>1410.7</ele>
        <time>2026-06-26T11:45:44Z</time>
      </trkpt>
      <trkpt lat="46.06516" lon="6.76907">
        <ele>1410.4</ele>
        <time>2026-06-26T11:45:45Z</time>
      </trkpt>
      <trkpt lat="46.06516" lon="6.76906">
        <ele>1410.2</ele>
        <time>2026-06-26T11:45:46Z</time>
      </trkpt>
      <trkpt lat="46.06517" lon="6.76906">
        <ele>1409.6</ele>
        <time>2026-06-26T11:45:47Z</time>
      </trkpt>
      <trkpt lat="46.06517" lon="6.76905">
        <ele>1409.4</ele>
        <time>2026-06-26T11:45:48Z</time>
      </trkpt>
      <trkpt lat="46.06517" lon="6.76904">
        <ele>1409.2</ele>
        <time>2026-06-26T11:45:49Z</time>
      </trkpt>
      <trkpt lat="46.06518" lon="6.76903">
        <ele>1409.1</ele>
        <time>2026-06-26T11:45:50Z</time>
      </trkpt>
      <trkpt lat="46.06518" lon="6.769">
        <ele>1408.9</ele>
        <time>2026-06-26T11:45:51Z</time>
      </trkpt>
      <trkpt lat="46.06519" lon="6.76899">
        <ele>1408.6</ele>
        <time>2026-06-26T11:45:52Z</time>
      </trkpt>
      <trkpt lat="46.06519" lon="6.76898">
        <ele>1408.4</ele>
        <time>2026-06-26T11:45:53Z</time>
      </trkpt>
      <trkpt lat="46.0652" lon="6.76897">
        <ele>1408.1</ele>
        <time>2026-06-26T11:45:54Z</time>
      </trkpt>
      <trkpt lat="46.0652" lon="6.76897">
        <ele>1407.8</ele>
        <time>2026-06-26T11:45:55Z</time>
      </trkpt>
      <trkpt lat="46.06521" lon="6.76895">
        <ele>1407.6</ele>
        <time>2026-06-26T11:45:56Z</time>
      </trkpt>
      <trkpt lat="46.06522" lon="6.76894">
        <ele>1407.4</ele>
        <time>2026-06-26T11:45:57Z</time>
      </trkpt>
      <trkpt lat="46.06523" lon="6.76893">
        <ele>1407.2</ele>
        <time>2026-06-26T11:45:58Z</time>
      </trkpt>
      <trkpt lat="46.06523" lon="6.76892">
        <ele>1407</ele>
        <time>2026-06-26T11:45:59Z</time>
      </trkpt>
      <trkpt lat="46.06524" lon="6.76891">
        <ele>1406.9</ele>
        <time>2026-06-26T11:46:00Z</time>
      </trkpt>
      <trkpt lat="46.06524" lon="6.7689">
        <ele>1406.7</ele>
        <time>2026-06-26T11:46:01Z</time>
      </trkpt>
      <trkpt lat="46.06524" lon="6.76888">
        <ele>1406.4</ele>
        <time>2026-06-26T11:46:02Z</time>
      </trkpt>
      <trkpt lat="46.06525" lon="6.76887">
        <ele>1406.1</ele>
        <time>2026-06-26T11:46:03Z</time>
      </trkpt>
      <trkpt lat="46.06526" lon="6.76887">
        <ele>1405.9</ele>
        <time>2026-06-26T11:46:04Z</time>
      </trkpt>
      <trkpt lat="46.06527" lon="6.76886">
        <ele>1405.7</ele>
        <time>2026-06-26T11:46:05Z</time>
      </trkpt>
      <trkpt lat="46.06527" lon="6.76883">
        <ele>1405.4</ele>
        <time>2026-06-26T11:46:06Z</time>
      </trkpt>
      <trkpt lat="46.06527" lon="6.76882">
        <ele>1405.2</ele>
        <time>2026-06-26T11:46:07Z</time>
      </trkpt>
      <trkpt lat="46.06527" lon="6.7688">
        <ele>1404.9</ele>
        <time>2026-06-26T11:46:08Z</time>
      </trkpt>
      <trkpt lat="46.06528" lon="6.76878">
        <ele>1404.8</ele>
        <time>2026-06-26T11:46:09Z</time>
      </trkpt>
      <trkpt lat="46.06528" lon="6.76876">
        <ele>1404.7</ele>
        <time>2026-06-26T11:46:10Z</time>
      </trkpt>
      <trkpt lat="46.06528" lon="6.76875">
        <ele>1404.5</ele>
        <time>2026-06-26T11:46:11Z</time>
      </trkpt>
      <trkpt lat="46.06529" lon="6.76873">
        <ele>1404.4</ele>
        <time>2026-06-26T11:46:12Z</time>
      </trkpt>
      <trkpt lat="46.06529" lon="6.76872">
        <ele>1404.2</ele>
        <time>2026-06-26T11:46:13Z</time>
      </trkpt>
      <trkpt lat="46.0653" lon="6.76872">
        <ele>1404</ele>
        <time>2026-06-26T11:46:14Z</time>
      </trkpt>
      <trkpt lat="46.0653" lon="6.76871">
        <ele>1403.9</ele>
        <time>2026-06-26T11:46:15Z</time>
      </trkpt>
      <trkpt lat="46.06531" lon="6.7687">
        <ele>1403.8</ele>
        <time>2026-06-26T11:46:16Z</time>
      </trkpt>
      <trkpt lat="46.06532" lon="6.76869">
        <ele>1403.7</ele>
        <time>2026-06-26T11:46:17Z</time>
      </trkpt>
      <trkpt lat="46.06532" lon="6.76868">
        <ele>1403.6</ele>
        <time>2026-06-26T11:46:18Z</time>
      </trkpt>
      <trkpt lat="46.06532" lon="6.76867">
        <ele>1403.5</ele>
        <time>2026-06-26T11:46:19Z</time>
      </trkpt>
      <trkpt lat="46.06533" lon="6.76866">
        <ele>1403.4</ele>
        <time>2026-06-26T11:46:20Z</time>
      </trkpt>
      <trkpt lat="46.06533" lon="6.76865">
        <ele>1403.3</ele>
        <time>2026-06-26T11:46:21Z</time>
      </trkpt>
      <trkpt lat="46.06534" lon="6.76864">
        <ele>1403.1</ele>
        <time>2026-06-26T11:46:22Z</time>
      </trkpt>
      <trkpt lat="46.06535" lon="6.76862">
        <ele>1403</ele>
        <time>2026-06-26T11:46:23Z</time>
      </trkpt>
      <trkpt lat="46.06535" lon="6.76861">
        <ele>1402.9</ele>
        <time>2026-06-26T11:46:24Z</time>
      </trkpt>
      <trkpt lat="46.06536" lon="6.76861">
        <ele>1402.7</ele>
        <time>2026-06-26T11:46:25Z</time>
      </trkpt>
      <trkpt lat="46.06536" lon="6.7686">
        <ele>1402.5</ele>
        <time>2026-06-26T11:46:26Z</time>
      </trkpt>
      <trkpt lat="46.06537" lon="6.76859">
        <ele>1402.4</ele>
        <time>2026-06-26T11:46:27Z</time>
      </trkpt>
      <trkpt lat="46.06538" lon="6.76858">
        <ele>1402.2</ele>
        <time>2026-06-26T11:46:28Z</time>
      </trkpt>
      <trkpt lat="46.06539" lon="6.76858">
        <ele>1402</ele>
        <time>2026-06-26T11:46:29Z</time>
      </trkpt>
      <trkpt lat="46.0654" lon="6.76857">
        <ele>1401.9</ele>
        <time>2026-06-26T11:46:30Z</time>
      </trkpt>
      <trkpt lat="46.06541" lon="6.76855">
        <ele>1401.7</ele>
        <time>2026-06-26T11:46:31Z</time>
      </trkpt>
      <trkpt lat="46.06542" lon="6.76855">
        <ele>1401.5</ele>
        <time>2026-06-26T11:46:32Z</time>
      </trkpt>
      <trkpt lat="46.06543" lon="6.76854">
        <ele>1401.3</ele>
        <time>2026-06-26T11:46:33Z</time>
      </trkpt>
      <trkpt lat="46.06544" lon="6.76853">
        <ele>1401.2</ele>
        <time>2026-06-26T11:46:34Z</time>
      </trkpt>
      <trkpt lat="46.06545" lon="6.76852">
        <ele>1401</ele>
        <time>2026-06-26T11:46:35Z</time>
      </trkpt>
      <trkpt lat="46.06545" lon="6.76851">
        <ele>1400.7</ele>
        <time>2026-06-26T11:46:36Z</time>
      </trkpt>
      <trkpt lat="46.06546" lon="6.76849">
        <ele>1400.4</ele>
        <time>2026-06-26T11:46:37Z</time>
      </trkpt>
      <trkpt lat="46.06547" lon="6.76848">
        <ele>1400.2</ele>
        <time>2026-06-26T11:46:38Z</time>
      </trkpt>
      <trkpt lat="46.06547" lon="6.76846">
        <ele>1400</ele>
        <time>2026-06-26T11:46:39Z</time>
      </trkpt>
      <trkpt lat="46.06548" lon="6.76844">
        <ele>1399.7</ele>
        <time>2026-06-26T11:46:40Z</time>
      </trkpt>
      <trkpt lat="46.06549" lon="6.76843">
        <ele>1399.5</ele>
        <time>2026-06-26T11:46:41Z</time>
      </trkpt>
      <trkpt lat="46.06549" lon="6.76841">
        <ele>1399.3</ele>
        <time>2026-06-26T11:46:42Z</time>
      </trkpt>
      <trkpt lat="46.06549" lon="6.7684">
        <ele>1399.1</ele>
        <time>2026-06-26T11:46:43Z</time>
      </trkpt>
      <trkpt lat="46.06549" lon="6.76838">
        <ele>1398.8</ele>
        <time>2026-06-26T11:46:44Z</time>
      </trkpt>
      <trkpt lat="46.06549" lon="6.76836">
        <ele>1398.6</ele>
        <time>2026-06-26T11:46:45Z</time>
      </trkpt>
      <trkpt lat="46.06549" lon="6.76834">
        <ele>1398.5</ele>
        <time>2026-06-26T11:46:46Z</time>
      </trkpt>
      <trkpt lat="46.0655" lon="6.76833">
        <ele>1398.4</ele>
        <time>2026-06-26T11:46:47Z</time>
      </trkpt>
      <trkpt lat="46.0655" lon="6.76831">
        <ele>1398.2</ele>
        <time>2026-06-26T11:46:48Z</time>
      </trkpt>
      <trkpt lat="46.0655" lon="6.7683">
        <ele>1398.1</ele>
        <time>2026-06-26T11:46:49Z</time>
      </trkpt>
      <trkpt lat="46.06551" lon="6.76829">
        <ele>1398</ele>
        <time>2026-06-26T11:46:50Z</time>
      </trkpt>
      <trkpt lat="46.0655" lon="6.76827">
        <ele>1397.9</ele>
        <time>2026-06-26T11:46:51Z</time>
      </trkpt>
      <trkpt lat="46.06551" lon="6.76824">
        <ele>1397.9</ele>
        <time>2026-06-26T11:46:52Z</time>
      </trkpt>
      <trkpt lat="46.06551" lon="6.76822">
        <ele>1397.7</ele>
        <time>2026-06-26T11:46:53Z</time>
      </trkpt>
      <trkpt lat="46.06551" lon="6.76822">
        <ele>1397.6</ele>
        <time>2026-06-26T11:46:54Z</time>
      </trkpt>
      <trkpt lat="46.0655" lon="6.76818">
        <ele>1397.4</ele>
        <time>2026-06-26T11:46:55Z</time>
      </trkpt>
      <trkpt lat="46.06549" lon="6.76817">
        <ele>1397.3</ele>
        <time>2026-06-26T11:46:56Z</time>
      </trkpt>
      <trkpt lat="46.06549" lon="6.76816">
        <ele>1397.3</ele>
        <time>2026-06-26T11:46:57Z</time>
      </trkpt>
      <trkpt lat="46.0655" lon="6.76815">
        <ele>1397.2</ele>
        <time>2026-06-26T11:46:58Z</time>
      </trkpt>
      <trkpt lat="46.06551" lon="6.76815">
        <ele>1397</ele>
        <time>2026-06-26T11:46:59Z</time>
      </trkpt>
      <trkpt lat="46.06552" lon="6.76814">
        <ele>1396.8</ele>
        <time>2026-06-26T11:47:00Z</time>
      </trkpt>
      <trkpt lat="46.06553" lon="6.76813">
        <ele>1396.6</ele>
        <time>2026-06-26T11:47:01Z</time>
      </trkpt>
      <trkpt lat="46.06553" lon="6.76812">
        <ele>1396.4</ele>
        <time>2026-06-26T11:47:02Z</time>
      </trkpt>
      <trkpt lat="46.06554" lon="6.76811">
        <ele>1396.3</ele>
        <time>2026-06-26T11:47:03Z</time>
      </trkpt>
      <trkpt lat="46.06554" lon="6.76809">
        <ele>1396.1</ele>
        <time>2026-06-26T11:47:04Z</time>
      </trkpt>
      <trkpt lat="46.06554" lon="6.76807">
        <ele>1395.9</ele>
        <time>2026-06-26T11:47:05Z</time>
      </trkpt>
      <trkpt lat="46.06555" lon="6.76807">
        <ele>1395.6</ele>
        <time>2026-06-26T11:47:06Z</time>
      </trkpt>
      <trkpt lat="46.06555" lon="6.76807">
        <ele>1395.5</ele>
        <time>2026-06-26T11:47:07Z</time>
      </trkpt>
      <trkpt lat="46.06555" lon="6.76806">
        <ele>1395.3</ele>
        <time>2026-06-26T11:47:08Z</time>
      </trkpt>
      <trkpt lat="46.06555" lon="6.76804">
        <ele>1395.1</ele>
        <time>2026-06-26T11:47:09Z</time>
      </trkpt>
      <trkpt lat="46.06556" lon="6.76804">
        <ele>1394.9</ele>
        <time>2026-06-26T11:47:10Z</time>
      </trkpt>
      <trkpt lat="46.06556" lon="6.76802">
        <ele>1394.7</ele>
        <time>2026-06-26T11:47:11Z</time>
      </trkpt>
      <trkpt lat="46.06557" lon="6.76801">
        <ele>1394.5</ele>
        <time>2026-06-26T11:47:12Z</time>
      </trkpt>
      <trkpt lat="46.06557" lon="6.76799">
        <ele>1394</ele>
        <time>2026-06-26T11:47:13Z</time>
      </trkpt>
      <trkpt lat="46.06558" lon="6.76798">
        <ele>1393.9</ele>
        <time>2026-06-26T11:47:14Z</time>
      </trkpt>
      <trkpt lat="46.06559" lon="6.76797">
        <ele>1393.8</ele>
        <time>2026-06-26T11:47:15Z</time>
      </trkpt>
      <trkpt lat="46.06559" lon="6.76795">
        <ele>1393.7</ele>
        <time>2026-06-26T11:47:16Z</time>
      </trkpt>
      <trkpt lat="46.0656" lon="6.76794">
        <ele>1393.5</ele>
        <time>2026-06-26T11:47:17Z</time>
      </trkpt>
      <trkpt lat="46.0656" lon="6.76792">
        <ele>1393.3</ele>
        <time>2026-06-26T11:47:18Z</time>
      </trkpt>
      <trkpt lat="46.0656" lon="6.76791">
        <ele>1393.1</ele>
        <time>2026-06-26T11:47:19Z</time>
      </trkpt>
      <trkpt lat="46.0656" lon="6.7679">
        <ele>1393</ele>
        <time>2026-06-26T11:47:20Z</time>
      </trkpt>
      <trkpt lat="46.06562" lon="6.76789">
        <ele>1392.7</ele>
        <time>2026-06-26T11:47:21Z</time>
      </trkpt>
      <trkpt lat="46.06563" lon="6.76788">
        <ele>1392.6</ele>
        <time>2026-06-26T11:47:22Z</time>
      </trkpt>
      <trkpt lat="46.06562" lon="6.76785">
        <ele>1392.4</ele>
        <time>2026-06-26T11:47:23Z</time>
      </trkpt>
      <trkpt lat="46.06565" lon="6.76786">
        <ele>1392.3</ele>
        <time>2026-06-26T11:47:24Z</time>
      </trkpt>
      <trkpt lat="46.06567" lon="6.76786">
        <ele>1392</ele>
        <time>2026-06-26T11:47:25Z</time>
      </trkpt>
      <trkpt lat="46.06567" lon="6.76784">
        <ele>1391.6</ele>
        <time>2026-06-26T11:47:26Z</time>
      </trkpt>
      <trkpt lat="46.06567" lon="6.76783">
        <ele>1391.5</ele>
        <time>2026-06-26T11:47:27Z</time>
      </trkpt>
      <trkpt lat="46.06567" lon="6.76781">
        <ele>1391.4</ele>
        <time>2026-06-26T11:47:28Z</time>
      </trkpt>
      <trkpt lat="46.06568" lon="6.7678">
        <ele>1391.3</ele>
        <time>2026-06-26T11:47:29Z</time>
      </trkpt>
      <trkpt lat="46.06569" lon="6.76779">
        <ele>1391</ele>
        <time>2026-06-26T11:47:30Z</time>
      </trkpt>
      <trkpt lat="46.0657" lon="6.76779">
        <ele>1390.9</ele>
        <time>2026-06-26T11:47:31Z</time>
      </trkpt>
      <trkpt lat="46.06569" lon="6.76777">
        <ele>1390.9</ele>
        <time>2026-06-26T11:47:32Z</time>
      </trkpt>
      <trkpt lat="46.06569" lon="6.76776">
        <ele>1390.7</ele>
        <time>2026-06-26T11:47:33Z</time>
      </trkpt>
      <trkpt lat="46.06571" lon="6.76776">
        <ele>1390.5</ele>
        <time>2026-06-26T11:47:34Z</time>
      </trkpt>
      <trkpt lat="46.06572" lon="6.76775">
        <ele>1390.3</ele>
        <time>2026-06-26T11:47:35Z</time>
      </trkpt>
      <trkpt lat="46.06573" lon="6.76776">
        <ele>1390.1</ele>
        <time>2026-06-26T11:47:36Z</time>
      </trkpt>
      <trkpt lat="46.06574" lon="6.76775">
        <ele>1390</ele>
        <time>2026-06-26T11:47:37Z</time>
      </trkpt>
      <trkpt lat="46.06575" lon="6.76773">
        <ele>1389.8</ele>
        <time>2026-06-26T11:47:38Z</time>
      </trkpt>
      <trkpt lat="46.06576" lon="6.76771">
        <ele>1389.6</ele>
        <time>2026-06-26T11:47:39Z</time>
      </trkpt>
      <trkpt lat="46.06577" lon="6.7677">
        <ele>1389.5</ele>
        <time>2026-06-26T11:47:40Z</time>
      </trkpt>
      <trkpt lat="46.06578" lon="6.76769">
        <ele>1389.3</ele>
        <time>2026-06-26T11:47:41Z</time>
      </trkpt>
      <trkpt lat="46.06579" lon="6.76767">
        <ele>1389.1</ele>
        <time>2026-06-26T11:47:42Z</time>
      </trkpt>
      <trkpt lat="46.0658" lon="6.76767">
        <ele>1389</ele>
        <time>2026-06-26T11:47:43Z</time>
      </trkpt>
      <trkpt lat="46.06581" lon="6.76767">
        <ele>1388.8</ele>
        <time>2026-06-26T11:47:44Z</time>
      </trkpt>
      <trkpt lat="46.06581" lon="6.76765">
        <ele>1388.6</ele>
        <time>2026-06-26T11:47:45Z</time>
      </trkpt>
      <trkpt lat="46.06582" lon="6.76764">
        <ele>1388.7</ele>
        <time>2026-06-26T11:47:46Z</time>
      </trkpt>
      <trkpt lat="46.06583" lon="6.76764">
        <ele>1388.4</ele>
        <time>2026-06-26T11:47:47Z</time>
      </trkpt>
      <trkpt lat="46.06584" lon="6.76763">
        <ele>1388.2</ele>
        <time>2026-06-26T11:47:48Z</time>
      </trkpt>
      <trkpt lat="46.06585" lon="6.76763">
        <ele>1387.9</ele>
        <time>2026-06-26T11:47:49Z</time>
      </trkpt>
      <trkpt lat="46.06586" lon="6.76763">
        <ele>1387.7</ele>
        <time>2026-06-26T11:47:50Z</time>
      </trkpt>
      <trkpt lat="46.06587" lon="6.76762">
        <ele>1387.6</ele>
        <time>2026-06-26T11:47:51Z</time>
      </trkpt>
      <trkpt lat="46.06588" lon="6.76762">
        <ele>1387.4</ele>
        <time>2026-06-26T11:47:52Z</time>
      </trkpt>
      <trkpt lat="46.06588" lon="6.76761">
        <ele>1387.3</ele>
        <time>2026-06-26T11:47:53Z</time>
      </trkpt>
      <trkpt lat="46.06589" lon="6.7676">
        <ele>1387.1</ele>
        <time>2026-06-26T11:47:54Z</time>
      </trkpt>
      <trkpt lat="46.0659" lon="6.7676">
        <ele>1386.9</ele>
        <time>2026-06-26T11:47:55Z</time>
      </trkpt>
      <trkpt lat="46.06591" lon="6.76758">
        <ele>1386.7</ele>
        <time>2026-06-26T11:47:56Z</time>
      </trkpt>
      <trkpt lat="46.06591" lon="6.76757">
        <ele>1386.5</ele>
        <time>2026-06-26T11:47:57Z</time>
      </trkpt>
      <trkpt lat="46.06592" lon="6.76757">
        <ele>1386.3</ele>
        <time>2026-06-26T11:47:58Z</time>
      </trkpt>
      <trkpt lat="46.06593" lon="6.76757">
        <ele>1386</ele>
        <time>2026-06-26T11:47:59Z</time>
      </trkpt>
      <trkpt lat="46.06594" lon="6.76756">
        <ele>1385.7</ele>
        <time>2026-06-26T11:48:00Z</time>
      </trkpt>
      <trkpt lat="46.06595" lon="6.76757">
        <ele>1385.5</ele>
        <time>2026-06-26T11:48:01Z</time>
      </trkpt>
      <trkpt lat="46.06596" lon="6.76755">
        <ele>1385.3</ele>
        <time>2026-06-26T11:48:02Z</time>
      </trkpt>
      <trkpt lat="46.06597" lon="6.76754">
        <ele>1385.2</ele>
        <time>2026-06-26T11:48:03Z</time>
      </trkpt>
      <trkpt lat="46.06598" lon="6.76754">
        <ele>1385.1</ele>
        <time>2026-06-26T11:48:04Z</time>
      </trkpt>
      <trkpt lat="46.06599" lon="6.76753">
        <ele>1385</ele>
        <time>2026-06-26T11:48:05Z</time>
      </trkpt>
      <trkpt lat="46.06599" lon="6.76751">
        <ele>1384.9</ele>
        <time>2026-06-26T11:48:06Z</time>
      </trkpt>
      <trkpt lat="46.066" lon="6.7675">
        <ele>1384.7</ele>
        <time>2026-06-26T11:48:07Z</time>
      </trkpt>
      <trkpt lat="46.06601" lon="6.76749">
        <ele>1384.5</ele>
        <time>2026-06-26T11:48:08Z</time>
      </trkpt>
      <trkpt lat="46.06601" lon="6.76748">
        <ele>1384.4</ele>
        <time>2026-06-26T11:48:09Z</time>
      </trkpt>
      <trkpt lat="46.06602" lon="6.76747">
        <ele>1384.2</ele>
        <time>2026-06-26T11:48:10Z</time>
      </trkpt>
      <trkpt lat="46.06602" lon="6.76745">
        <ele>1384</ele>
        <time>2026-06-26T11:48:11Z</time>
      </trkpt>
      <trkpt lat="46.06603" lon="6.76744">
        <ele>1383.8</ele>
        <time>2026-06-26T11:48:12Z</time>
      </trkpt>
      <trkpt lat="46.06603" lon="6.76743">
        <ele>1383.6</ele>
        <time>2026-06-26T11:48:13Z</time>
      </trkpt>
      <trkpt lat="46.06603" lon="6.76741">
        <ele>1383.4</ele>
        <time>2026-06-26T11:48:14Z</time>
      </trkpt>
      <trkpt lat="46.06604" lon="6.76739">
        <ele>1383.2</ele>
        <time>2026-06-26T11:48:15Z</time>
      </trkpt>
      <trkpt lat="46.06604" lon="6.76737">
        <ele>1383</ele>
        <time>2026-06-26T11:48:16Z</time>
      </trkpt>
      <trkpt lat="46.06604" lon="6.76735">
        <ele>1382.8</ele>
        <time>2026-06-26T11:48:17Z</time>
      </trkpt>
      <trkpt lat="46.06606" lon="6.76733">
        <ele>1382.6</ele>
        <time>2026-06-26T11:48:18Z</time>
      </trkpt>
      <trkpt lat="46.06608" lon="6.76733">
        <ele>1382.4</ele>
        <time>2026-06-26T11:48:19Z</time>
      </trkpt>
      <trkpt lat="46.06609" lon="6.76733">
        <ele>1382.3</ele>
        <time>2026-06-26T11:48:20Z</time>
      </trkpt>
      <trkpt lat="46.0661" lon="6.7673">
        <ele>1382.1</ele>
        <time>2026-06-26T11:48:21Z</time>
      </trkpt>
      <trkpt lat="46.06612" lon="6.7673">
        <ele>1382</ele>
        <time>2026-06-26T11:48:22Z</time>
      </trkpt>
      <trkpt lat="46.06613" lon="6.7673">
        <ele>1381.8</ele>
        <time>2026-06-26T11:48:23Z</time>
      </trkpt>
      <trkpt lat="46.06614" lon="6.7673">
        <ele>1381.7</ele>
        <time>2026-06-26T11:48:24Z</time>
      </trkpt>
      <trkpt lat="46.06616" lon="6.7673">
        <ele>1381.6</ele>
        <time>2026-06-26T11:48:25Z</time>
      </trkpt>
      <trkpt lat="46.06616" lon="6.76728">
        <ele>1381.5</ele>
        <time>2026-06-26T11:48:26Z</time>
      </trkpt>
      <trkpt lat="46.06618" lon="6.76727">
        <ele>1381.3</ele>
        <time>2026-06-26T11:48:27Z</time>
      </trkpt>
      <trkpt lat="46.06619" lon="6.76726">
        <ele>1381.1</ele>
        <time>2026-06-26T11:48:28Z</time>
      </trkpt>
      <trkpt lat="46.0662" lon="6.76725">
        <ele>1381.1</ele>
        <time>2026-06-26T11:48:29Z</time>
      </trkpt>
      <trkpt lat="46.06621" lon="6.76725">
        <ele>1380.9</ele>
        <time>2026-06-26T11:48:30Z</time>
      </trkpt>
      <trkpt lat="46.06622" lon="6.76724">
        <ele>1380.7</ele>
        <time>2026-06-26T11:48:31Z</time>
      </trkpt>
      <trkpt lat="46.06622" lon="6.76723">
        <ele>1380.7</ele>
        <time>2026-06-26T11:48:32Z</time>
      </trkpt>
      <trkpt lat="46.06623" lon="6.76721">
        <ele>1380.4</ele>
        <time>2026-06-26T11:48:33Z</time>
      </trkpt>
      <trkpt lat="46.06624" lon="6.7672">
        <ele>1380.2</ele>
        <time>2026-06-26T11:48:34Z</time>
      </trkpt>
      <trkpt lat="46.06624" lon="6.76718">
        <ele>1380.1</ele>
        <time>2026-06-26T11:48:35Z</time>
      </trkpt>
      <trkpt lat="46.06625" lon="6.76717">
        <ele>1379.9</ele>
        <time>2026-06-26T11:48:36Z</time>
      </trkpt>
      <trkpt lat="46.06625" lon="6.76715">
        <ele>1379.6</ele>
        <time>2026-06-26T11:48:37Z</time>
      </trkpt>
      <trkpt lat="46.06625" lon="6.76714">
        <ele>1379.3</ele>
        <time>2026-06-26T11:48:38Z</time>
      </trkpt>
      <trkpt lat="46.06626" lon="6.76712">
        <ele>1379</ele>
        <time>2026-06-26T11:48:39Z</time>
      </trkpt>
      <trkpt lat="46.06626" lon="6.7671">
        <ele>1378.9</ele>
        <time>2026-06-26T11:48:40Z</time>
      </trkpt>
      <trkpt lat="46.06626" lon="6.76708">
        <ele>1378.7</ele>
        <time>2026-06-26T11:48:41Z</time>
      </trkpt>
      <trkpt lat="46.06628" lon="6.76707">
        <ele>1378.6</ele>
        <time>2026-06-26T11:48:42Z</time>
      </trkpt>
      <trkpt lat="46.06628" lon="6.76705">
        <ele>1378.4</ele>
        <time>2026-06-26T11:48:43Z</time>
      </trkpt>
      <trkpt lat="46.06628" lon="6.76702">
        <ele>1378.2</ele>
        <time>2026-06-26T11:48:44Z</time>
      </trkpt>
      <trkpt lat="46.0663" lon="6.76702">
        <ele>1378</ele>
        <time>2026-06-26T11:48:45Z</time>
      </trkpt>
      <trkpt lat="46.0663" lon="6.76699">
        <ele>1377.8</ele>
        <time>2026-06-26T11:48:46Z</time>
      </trkpt>
      <trkpt lat="46.0663" lon="6.76698">
        <ele>1377.6</ele>
        <time>2026-06-26T11:48:47Z</time>
      </trkpt>
      <trkpt lat="46.06631" lon="6.76696">
        <ele>1377.5</ele>
        <time>2026-06-26T11:48:48Z</time>
      </trkpt>
      <trkpt lat="46.06631" lon="6.76695">
        <ele>1377.4</ele>
        <time>2026-06-26T11:48:49Z</time>
      </trkpt>
      <trkpt lat="46.06632" lon="6.76693">
        <ele>1377.1</ele>
        <time>2026-06-26T11:48:50Z</time>
      </trkpt>
      <trkpt lat="46.06632" lon="6.76692">
        <ele>1376.9</ele>
        <time>2026-06-26T11:48:51Z</time>
      </trkpt>
      <trkpt lat="46.06632" lon="6.7669">
        <ele>1376.7</ele>
        <time>2026-06-26T11:48:52Z</time>
      </trkpt>
      <trkpt lat="46.06633" lon="6.76689">
        <ele>1376.4</ele>
        <time>2026-06-26T11:48:53Z</time>
      </trkpt>
      <trkpt lat="46.06634" lon="6.76686">
        <ele>1376.2</ele>
        <time>2026-06-26T11:48:54Z</time>
      </trkpt>
      <trkpt lat="46.06634" lon="6.76685">
        <ele>1375.9</ele>
        <time>2026-06-26T11:48:55Z</time>
      </trkpt>
      <trkpt lat="46.06634" lon="6.76684">
        <ele>1375.8</ele>
        <time>2026-06-26T11:48:56Z</time>
      </trkpt>
      <trkpt lat="46.06633" lon="6.76681">
        <ele>1375.7</ele>
        <time>2026-06-26T11:48:57Z</time>
      </trkpt>
      <trkpt lat="46.06633" lon="6.76681">
        <ele>1375.6</ele>
        <time>2026-06-26T11:48:58Z</time>
      </trkpt>
      <trkpt lat="46.06634" lon="6.76679">
        <ele>1375.5</ele>
        <time>2026-06-26T11:48:59Z</time>
      </trkpt>
      <trkpt lat="46.06634" lon="6.76678">
        <ele>1375.3</ele>
        <time>2026-06-26T11:49:00Z</time>
      </trkpt>
      <trkpt lat="46.06635" lon="6.76677">
        <ele>1375.1</ele>
        <time>2026-06-26T11:49:01Z</time>
      </trkpt>
      <trkpt lat="46.06636" lon="6.76676">
        <ele>1374.9</ele>
        <time>2026-06-26T11:49:02Z</time>
      </trkpt>
      <trkpt lat="46.06637" lon="6.76675">
        <ele>1374.7</ele>
        <time>2026-06-26T11:49:03Z</time>
      </trkpt>
      <trkpt lat="46.06639" lon="6.76674">
        <ele>1374.6</ele>
        <time>2026-06-26T11:49:04Z</time>
      </trkpt>
      <trkpt lat="46.0664" lon="6.76675">
        <ele>1374.5</ele>
        <time>2026-06-26T11:49:05Z</time>
      </trkpt>
      <trkpt lat="46.06641" lon="6.76675">
        <ele>1374.3</ele>
        <time>2026-06-26T11:49:06Z</time>
      </trkpt>
      <trkpt lat="46.06641" lon="6.76672">
        <ele>1374.1</ele>
        <time>2026-06-26T11:49:07Z</time>
      </trkpt>
      <trkpt lat="46.06642" lon="6.7667">
        <ele>1373.8</ele>
        <time>2026-06-26T11:49:08Z</time>
      </trkpt>
      <trkpt lat="46.06642" lon="6.7667">
        <ele>1373.6</ele>
        <time>2026-06-26T11:49:09Z</time>
      </trkpt>
      <trkpt lat="46.06643" lon="6.76669">
        <ele>1373.5</ele>
        <time>2026-06-26T11:49:10Z</time>
      </trkpt>
      <trkpt lat="46.06644" lon="6.76667">
        <ele>1373.3</ele>
        <time>2026-06-26T11:49:11Z</time>
      </trkpt>
      <trkpt lat="46.06644" lon="6.76665">
        <ele>1373.1</ele>
        <time>2026-06-26T11:49:12Z</time>
      </trkpt>
      <trkpt lat="46.06644" lon="6.76663">
        <ele>1373</ele>
        <time>2026-06-26T11:49:13Z</time>
      </trkpt>
      <trkpt lat="46.06645" lon="6.76661">
        <ele>1372.9</ele>
        <time>2026-06-26T11:49:14Z</time>
      </trkpt>
      <trkpt lat="46.06646" lon="6.76659">
        <ele>1372.8</ele>
        <time>2026-06-26T11:49:15Z</time>
      </trkpt>
      <trkpt lat="46.06647" lon="6.76659">
        <ele>1372.7</ele>
        <time>2026-06-26T11:49:16Z</time>
      </trkpt>
      <trkpt lat="46.06647" lon="6.76657">
        <ele>1372.5</ele>
        <time>2026-06-26T11:49:17Z</time>
      </trkpt>
      <trkpt lat="46.06648" lon="6.76656">
        <ele>1372.3</ele>
        <time>2026-06-26T11:49:18Z</time>
      </trkpt>
      <trkpt lat="46.06648" lon="6.76654">
        <ele>1372.1</ele>
        <time>2026-06-26T11:49:19Z</time>
      </trkpt>
      <trkpt lat="46.06648" lon="6.76653">
        <ele>1371.9</ele>
        <time>2026-06-26T11:49:20Z</time>
      </trkpt>
      <trkpt lat="46.06649" lon="6.76651">
        <ele>1371.6</ele>
        <time>2026-06-26T11:49:21Z</time>
      </trkpt>
      <trkpt lat="46.0665" lon="6.7665">
        <ele>1371.4</ele>
        <time>2026-06-26T11:49:22Z</time>
      </trkpt>
      <trkpt lat="46.06653" lon="6.7665">
        <ele>1371.2</ele>
        <time>2026-06-26T11:49:23Z</time>
      </trkpt>
      <trkpt lat="46.06654" lon="6.76648">
        <ele>1370.9</ele>
        <time>2026-06-26T11:49:24Z</time>
      </trkpt>
      <trkpt lat="46.06654" lon="6.76647">
        <ele>1370.7</ele>
        <time>2026-06-26T11:49:25Z</time>
      </trkpt>
      <trkpt lat="46.06654" lon="6.76645">
        <ele>1370.6</ele>
        <time>2026-06-26T11:49:26Z</time>
      </trkpt>
      <trkpt lat="46.06654" lon="6.76644">
        <ele>1370.4</ele>
        <time>2026-06-26T11:49:27Z</time>
      </trkpt>
      <trkpt lat="46.06655" lon="6.76643">
        <ele>1370.2</ele>
        <time>2026-06-26T11:49:28Z</time>
      </trkpt>
      <trkpt lat="46.06655" lon="6.76641">
        <ele>1370.1</ele>
        <time>2026-06-26T11:49:29Z</time>
      </trkpt>
      <trkpt lat="46.06656" lon="6.7664">
        <ele>1369.9</ele>
        <time>2026-06-26T11:49:30Z</time>
      </trkpt>
      <trkpt lat="46.06656" lon="6.76639">
        <ele>1369.9</ele>
        <time>2026-06-26T11:49:31Z</time>
      </trkpt>
      <trkpt lat="46.06657" lon="6.76637">
        <ele>1369.7</ele>
        <time>2026-06-26T11:49:32Z</time>
      </trkpt>
      <trkpt lat="46.06656" lon="6.76635">
        <ele>1369.5</ele>
        <time>2026-06-26T11:49:33Z</time>
      </trkpt>
      <trkpt lat="46.06657" lon="6.76634">
        <ele>1369.2</ele>
        <time>2026-06-26T11:49:34Z</time>
      </trkpt>
      <trkpt lat="46.06658" lon="6.76632">
        <ele>1369.1</ele>
        <time>2026-06-26T11:49:35Z</time>
      </trkpt>
      <trkpt lat="46.06657" lon="6.7663">
        <ele>1369</ele>
        <time>2026-06-26T11:49:36Z</time>
      </trkpt>
      <trkpt lat="46.06659" lon="6.7663">
        <ele>1368.6</ele>
        <time>2026-06-26T11:49:37Z</time>
      </trkpt>
      <trkpt lat="46.06659" lon="6.76627">
        <ele>1368.4</ele>
        <time>2026-06-26T11:49:38Z</time>
      </trkpt>
      <trkpt lat="46.0666" lon="6.76626">
        <ele>1368.1</ele>
        <time>2026-06-26T11:49:39Z</time>
      </trkpt>
      <trkpt lat="46.0666" lon="6.76625">
        <ele>1367.9</ele>
        <time>2026-06-26T11:49:40Z</time>
      </trkpt>
      <trkpt lat="46.06661" lon="6.76624">
        <ele>1367.7</ele>
        <time>2026-06-26T11:49:41Z</time>
      </trkpt>
      <trkpt lat="46.06661" lon="6.76622">
        <ele>1367.5</ele>
        <time>2026-06-26T11:49:42Z</time>
      </trkpt>
      <trkpt lat="46.06662" lon="6.76622">
        <ele>1367.3</ele>
        <time>2026-06-26T11:49:43Z</time>
      </trkpt>
      <trkpt lat="46.06662" lon="6.7662">
        <ele>1367.1</ele>
        <time>2026-06-26T11:49:44Z</time>
      </trkpt>
      <trkpt lat="46.06662" lon="6.76619">
        <ele>1366.8</ele>
        <time>2026-06-26T11:49:45Z</time>
      </trkpt>
      <trkpt lat="46.06662" lon="6.76617">
        <ele>1366.5</ele>
        <time>2026-06-26T11:49:46Z</time>
      </trkpt>
      <trkpt lat="46.06662" lon="6.76616">
        <ele>1366.2</ele>
        <time>2026-06-26T11:49:47Z</time>
      </trkpt>
      <trkpt lat="46.06663" lon="6.76615">
        <ele>1366.2</ele>
        <time>2026-06-26T11:49:48Z</time>
      </trkpt>
      <trkpt lat="46.06664" lon="6.76616">
        <ele>1365.9</ele>
        <time>2026-06-26T11:49:49Z</time>
      </trkpt>
      <trkpt lat="46.06666" lon="6.76615">
        <ele>1365.6</ele>
        <time>2026-06-26T11:49:50Z</time>
      </trkpt>
      <trkpt lat="46.06667" lon="6.76613">
        <ele>1365.4</ele>
        <time>2026-06-26T11:49:51Z</time>
      </trkpt>
      <trkpt lat="46.06667" lon="6.76611">
        <ele>1365.2</ele>
        <time>2026-06-26T11:49:52Z</time>
      </trkpt>
      <trkpt lat="46.06669" lon="6.76611">
        <ele>1365.1</ele>
        <time>2026-06-26T11:49:53Z</time>
      </trkpt>
      <trkpt lat="46.0667" lon="6.7661">
        <ele>1364.9</ele>
        <time>2026-06-26T11:49:54Z</time>
      </trkpt>
      <trkpt lat="46.06671" lon="6.76608">
        <ele>1364.8</ele>
        <time>2026-06-26T11:49:55Z</time>
      </trkpt>
      <trkpt lat="46.06671" lon="6.76607">
        <ele>1364.6</ele>
        <time>2026-06-26T11:49:56Z</time>
      </trkpt>
      <trkpt lat="46.06673" lon="6.76606">
        <ele>1364.4</ele>
        <time>2026-06-26T11:49:57Z</time>
      </trkpt>
      <trkpt lat="46.06673" lon="6.76606">
        <ele>1364.2</ele>
        <time>2026-06-26T11:49:58Z</time>
      </trkpt>
      <trkpt lat="46.06674" lon="6.76605">
        <ele>1364.2</ele>
        <time>2026-06-26T11:49:59Z</time>
      </trkpt>
      <trkpt lat="46.06675" lon="6.76603">
        <ele>1364</ele>
        <time>2026-06-26T11:50:00Z</time>
      </trkpt>
      <trkpt lat="46.06675" lon="6.76602">
        <ele>1363.8</ele>
        <time>2026-06-26T11:50:01Z</time>
      </trkpt>
      <trkpt lat="46.06677" lon="6.76602">
        <ele>1363.4</ele>
        <time>2026-06-26T11:50:02Z</time>
      </trkpt>
      <trkpt lat="46.06676" lon="6.766">
        <ele>1363.1</ele>
        <time>2026-06-26T11:50:03Z</time>
      </trkpt>
      <trkpt lat="46.06677" lon="6.76599">
        <ele>1363</ele>
        <time>2026-06-26T11:50:04Z</time>
      </trkpt>
      <trkpt lat="46.06677" lon="6.76597">
        <ele>1362.9</ele>
        <time>2026-06-26T11:50:05Z</time>
      </trkpt>
      <trkpt lat="46.06678" lon="6.76595">
        <ele>1362.8</ele>
        <time>2026-06-26T11:50:06Z</time>
      </trkpt>
      <trkpt lat="46.0668" lon="6.76595">
        <ele>1362.5</ele>
        <time>2026-06-26T11:50:07Z</time>
      </trkpt>
      <trkpt lat="46.06681" lon="6.76593">
        <ele>1362.3</ele>
        <time>2026-06-26T11:50:08Z</time>
      </trkpt>
      <trkpt lat="46.06681" lon="6.76591">
        <ele>1362.2</ele>
        <time>2026-06-26T11:50:09Z</time>
      </trkpt>
      <trkpt lat="46.06682" lon="6.7659">
        <ele>1362.1</ele>
        <time>2026-06-26T11:50:10Z</time>
      </trkpt>
      <trkpt lat="46.06683" lon="6.76588">
        <ele>1361.9</ele>
        <time>2026-06-26T11:50:11Z</time>
      </trkpt>
      <trkpt lat="46.06684" lon="6.76588">
        <ele>1361.8</ele>
        <time>2026-06-26T11:50:12Z</time>
      </trkpt>
      <trkpt lat="46.06685" lon="6.76587">
        <ele>1361.6</ele>
        <time>2026-06-26T11:50:13Z</time>
      </trkpt>
      <trkpt lat="46.06685" lon="6.76586">
        <ele>1361.4</ele>
        <time>2026-06-26T11:50:14Z</time>
      </trkpt>
      <trkpt lat="46.06687" lon="6.76586">
        <ele>1361.3</ele>
        <time>2026-06-26T11:50:15Z</time>
      </trkpt>
      <trkpt lat="46.06689" lon="6.76586">
        <ele>1361.1</ele>
        <time>2026-06-26T11:50:16Z</time>
      </trkpt>
      <trkpt lat="46.06691" lon="6.76585">
        <ele>1360.7</ele>
        <time>2026-06-26T11:50:17Z</time>
      </trkpt>
      <trkpt lat="46.06692" lon="6.76584">
        <ele>1360.4</ele>
        <time>2026-06-26T11:50:18Z</time>
      </trkpt>
      <trkpt lat="46.06693" lon="6.76583">
        <ele>1360.2</ele>
        <time>2026-06-26T11:50:19Z</time>
      </trkpt>
      <trkpt lat="46.06693" lon="6.76581">
        <ele>1360</ele>
        <time>2026-06-26T11:50:20Z</time>
      </trkpt>
      <trkpt lat="46.06694" lon="6.76581">
        <ele>1359.8</ele>
        <time>2026-06-26T11:50:21Z</time>
      </trkpt>
      <trkpt lat="46.06695" lon="6.7658">
        <ele>1359.7</ele>
        <time>2026-06-26T11:50:22Z</time>
      </trkpt>
      <trkpt lat="46.06694" lon="6.76578">
        <ele>1359.5</ele>
        <time>2026-06-26T11:50:23Z</time>
      </trkpt>
      <trkpt lat="46.06695" lon="6.76575">
        <ele>1359.4</ele>
        <time>2026-06-26T11:50:24Z</time>
      </trkpt>
      <trkpt lat="46.06695" lon="6.76573">
        <ele>1359.3</ele>
        <time>2026-06-26T11:50:25Z</time>
      </trkpt>
      <trkpt lat="46.06697" lon="6.76571">
        <ele>1359.2</ele>
        <time>2026-06-26T11:50:26Z</time>
      </trkpt>
      <trkpt lat="46.06697" lon="6.76569">
        <ele>1359</ele>
        <time>2026-06-26T11:50:27Z</time>
      </trkpt>
      <trkpt lat="46.06698" lon="6.76568">
        <ele>1358.8</ele>
        <time>2026-06-26T11:50:28Z</time>
      </trkpt>
      <trkpt lat="46.06698" lon="6.76567">
        <ele>1358.6</ele>
        <time>2026-06-26T11:50:29Z</time>
      </trkpt>
      <trkpt lat="46.06699" lon="6.76565">
        <ele>1358.4</ele>
        <time>2026-06-26T11:50:30Z</time>
      </trkpt>
      <trkpt lat="46.06699" lon="6.76563">
        <ele>1358.3</ele>
        <time>2026-06-26T11:50:31Z</time>
      </trkpt>
      <trkpt lat="46.06699" lon="6.76562">
        <ele>1358.1</ele>
        <time>2026-06-26T11:50:32Z</time>
      </trkpt>
      <trkpt lat="46.06698" lon="6.7656">
        <ele>1357.9</ele>
        <time>2026-06-26T11:50:33Z</time>
      </trkpt>
      <trkpt lat="46.06698" lon="6.76557">
        <ele>1357.7</ele>
        <time>2026-06-26T11:50:34Z</time>
      </trkpt>
      <trkpt lat="46.06698" lon="6.76555">
        <ele>1357.5</ele>
        <time>2026-06-26T11:50:35Z</time>
      </trkpt>
      <trkpt lat="46.06699" lon="6.76554">
        <ele>1357.4</ele>
        <time>2026-06-26T11:50:36Z</time>
      </trkpt>
      <trkpt lat="46.067" lon="6.76553">
        <ele>1357.3</ele>
        <time>2026-06-26T11:50:37Z</time>
      </trkpt>
      <trkpt lat="46.067" lon="6.76552">
        <ele>1357.2</ele>
        <time>2026-06-26T11:50:38Z</time>
      </trkpt>
      <trkpt lat="46.06701" lon="6.76551">
        <ele>1357</ele>
        <time>2026-06-26T11:50:39Z</time>
      </trkpt>
      <trkpt lat="46.06701" lon="6.7655">
        <ele>1356.8</ele>
        <time>2026-06-26T11:50:40Z</time>
      </trkpt>
      <trkpt lat="46.06702" lon="6.76549">
        <ele>1356.7</ele>
        <time>2026-06-26T11:50:41Z</time>
      </trkpt>
      <trkpt lat="46.06703" lon="6.76548">
        <ele>1356.5</ele>
        <time>2026-06-26T11:50:42Z</time>
      </trkpt>
      <trkpt lat="46.06704" lon="6.76547">
        <ele>1356.3</ele>
        <time>2026-06-26T11:50:43Z</time>
      </trkpt>
      <trkpt lat="46.06705" lon="6.76546">
        <ele>1356</ele>
        <time>2026-06-26T11:50:44Z</time>
      </trkpt>
      <trkpt lat="46.06706" lon="6.76545">
        <ele>1355.8</ele>
        <time>2026-06-26T11:50:45Z</time>
      </trkpt>
      <trkpt lat="46.06707" lon="6.76544">
        <ele>1355.6</ele>
        <time>2026-06-26T11:50:46Z</time>
      </trkpt>
      <trkpt lat="46.06709" lon="6.76544">
        <ele>1355.5</ele>
        <time>2026-06-26T11:50:47Z</time>
      </trkpt>
      <trkpt lat="46.0671" lon="6.76542">
        <ele>1355.3</ele>
        <time>2026-06-26T11:50:48Z</time>
      </trkpt>
      <trkpt lat="46.06711" lon="6.76541">
        <ele>1355.1</ele>
        <time>2026-06-26T11:50:49Z</time>
      </trkpt>
      <trkpt lat="46.06712" lon="6.7654">
        <ele>1355.1</ele>
        <time>2026-06-26T11:50:50Z</time>
      </trkpt>
      <trkpt lat="46.06712" lon="6.7654">
        <ele>1355</ele>
        <time>2026-06-26T11:50:51Z</time>
      </trkpt>
      <trkpt lat="46.06712" lon="6.76539">
        <ele>1354.8</ele>
        <time>2026-06-26T11:50:52Z</time>
      </trkpt>
      <trkpt lat="46.06713" lon="6.76538">
        <ele>1354.6</ele>
        <time>2026-06-26T11:50:53Z</time>
      </trkpt>
      <trkpt lat="46.06713" lon="6.76538">
        <ele>1354.4</ele>
        <time>2026-06-26T11:50:54Z</time>
      </trkpt>
      <trkpt lat="46.06712" lon="6.76535">
        <ele>1354.2</ele>
        <time>2026-06-26T11:50:55Z</time>
      </trkpt>
      <trkpt lat="46.06711" lon="6.76532">
        <ele>1354</ele>
        <time>2026-06-26T11:50:56Z</time>
      </trkpt>
      <trkpt lat="46.0671" lon="6.7653">
        <ele>1353.8</ele>
        <time>2026-06-26T11:50:57Z</time>
      </trkpt>
      <trkpt lat="46.0671" lon="6.76528">
        <ele>1353.7</ele>
        <time>2026-06-26T11:50:58Z</time>
      </trkpt>
      <trkpt lat="46.0671" lon="6.76528">
        <ele>1353.6</ele>
        <time>2026-06-26T11:50:59Z</time>
      </trkpt>
      <trkpt lat="46.06709" lon="6.76527">
        <ele>1353.5</ele>
        <time>2026-06-26T11:51:00Z</time>
      </trkpt>
      <trkpt lat="46.06709" lon="6.76526">
        <ele>1353.4</ele>
        <time>2026-06-26T11:51:01Z</time>
      </trkpt>
      <trkpt lat="46.06709" lon="6.76526">
        <ele>1353.3</ele>
        <time>2026-06-26T11:51:02Z</time>
      </trkpt>
      <trkpt lat="46.06709" lon="6.76527">
        <ele>1353.2</ele>
        <time>2026-06-26T11:51:03Z</time>
      </trkpt>
      <trkpt lat="46.0671" lon="6.76527">
        <ele>1352.9</ele>
        <time>2026-06-26T11:51:04Z</time>
      </trkpt>
      <trkpt lat="46.0671" lon="6.76526">
        <ele>1352.9</ele>
        <time>2026-06-26T11:51:05Z</time>
      </trkpt>
      <trkpt lat="46.0671" lon="6.76526">
        <ele>1352.8</ele>
        <time>2026-06-26T11:51:06Z</time>
      </trkpt>
      <trkpt lat="46.06709" lon="6.76526">
        <ele>1352.8</ele>
        <time>2026-06-26T11:51:07Z</time>
      </trkpt>
      <trkpt lat="46.0671" lon="6.76526">
        <ele>1352.9</ele>
        <time>2026-06-26T11:51:08Z</time>
      </trkpt>
      <trkpt lat="46.06709" lon="6.76526">
        <ele>1352.9</ele>
        <time>2026-06-26T11:51:09Z</time>
      </trkpt>
      <trkpt lat="46.06709" lon="6.76526">
        <ele>1353</ele>
        <time>2026-06-26T11:51:10Z</time>
      </trkpt>
      <trkpt lat="46.0671" lon="6.76526">
        <ele>1353</ele>
        <time>2026-06-26T11:51:11Z</time>
      </trkpt>
      <trkpt lat="46.06709" lon="6.76526">
        <ele>1353</ele>
        <time>2026-06-26T11:51:12Z</time>
      </trkpt>
      <trkpt lat="46.06708" lon="6.76526">
        <ele>1353</ele>
        <time>2026-06-26T11:51:13Z</time>
      </trkpt>
      <trkpt lat="46.06707" lon="6.76525">
        <ele>1353</ele>
        <time>2026-06-26T11:51:14Z</time>
      </trkpt>
      <trkpt lat="46.06707" lon="6.76525">
        <ele>1352.9</ele>
        <time>2026-06-26T11:51:15Z</time>
      </trkpt>
      <trkpt lat="46.06707" lon="6.76525">
        <ele>1352.9</ele>
        <time>2026-06-26T11:51:16Z</time>
      </trkpt>
      <trkpt lat="46.06706" lon="6.76525">
        <ele>1352.9</ele>
        <time>2026-06-26T11:51:17Z</time>
      </trkpt>
      <trkpt lat="46.06706" lon="6.76525">
        <ele>1352.8</ele>
        <time>2026-06-26T11:51:18Z</time>
      </trkpt>
      <trkpt lat="46.06706" lon="6.76525">
        <ele>1352.9</ele>
        <time>2026-06-26T11:51:19Z</time>
      </trkpt>
      <trkpt lat="46.06706" lon="6.76524">
        <ele>1352.9</ele>
        <time>2026-06-26T11:51:20Z</time>
      </trkpt>
      <trkpt lat="46.06705" lon="6.76524">
        <ele>1352.9</ele>
        <time>2026-06-26T11:51:21Z</time>
      </trkpt>
      <trkpt lat="46.06705" lon="6.76524">
        <ele>1352.9</ele>
        <time>2026-06-26T11:51:22Z</time>
      </trkpt>
      <trkpt lat="46.06705" lon="6.76523">
        <ele>1352.9</ele>
        <time>2026-06-26T11:51:23Z</time>
      </trkpt>
      <trkpt lat="46.06706" lon="6.76523">
        <ele>1353</ele>
        <time>2026-06-26T11:51:24Z</time>
      </trkpt>
      <trkpt lat="46.06706" lon="6.76524">
        <ele>1353</ele>
        <time>2026-06-26T11:51:25Z</time>
      </trkpt>
      <trkpt lat="46.06707" lon="6.76524">
        <ele>1353.1</ele>
        <time>2026-06-26T11:51:26Z</time>
      </trkpt>
      <trkpt lat="46.06707" lon="6.76524">
        <ele>1353.1</ele>
        <time>2026-06-26T11:51:27Z</time>
      </trkpt>
      <trkpt lat="46.06707" lon="6.76524">
        <ele>1353.1</ele>
        <time>2026-06-26T11:51:28Z</time>
      </trkpt>
      <trkpt lat="46.06707" lon="6.76524">
        <ele>1353.1</ele>
        <time>2026-06-26T11:51:29Z</time>
      </trkpt>
      <trkpt lat="46.06707" lon="6.76523">
        <ele>1353</ele>
        <time>2026-06-26T11:51:30Z</time>
      </trkpt>
      <trkpt lat="46.06706" lon="6.76523">
        <ele>1353</ele>
        <time>2026-06-26T11:51:31Z</time>
      </trkpt>
      <trkpt lat="46.06706" lon="6.76522">
        <ele>1352.9</ele>
        <time>2026-06-26T11:51:32Z</time>
      </trkpt>
      <trkpt lat="46.06706" lon="6.76522">
        <ele>1352.9</ele>
        <time>2026-06-26T11:51:33Z</time>
      </trkpt>
      <trkpt lat="46.06706" lon="6.76522">
        <ele>1352.9</ele>
        <time>2026-06-26T11:51:34Z</time>
      </trkpt>
      <trkpt lat="46.06706" lon="6.76523">
        <ele>1352.9</ele>
        <time>2026-06-26T11:51:35Z</time>
      </trkpt>
      <trkpt lat="46.06707" lon="6.76523">
        <ele>1352.9</ele>
        <time>2026-06-26T11:51:36Z</time>
      </trkpt>
      <trkpt lat="46.06707" lon="6.76523">
        <ele>1352.9</ele>
        <time>2026-06-26T11:51:37Z</time>
      </trkpt>
      <trkpt lat="46.06707" lon="6.76523">
        <ele>1352.9</ele>
        <time>2026-06-26T11:51:38Z</time>
      </trkpt>
      <trkpt lat="46.06707" lon="6.76523">
        <ele>1352.9</ele>
        <time>2026-06-26T11:51:39Z</time>
      </trkpt>
      <trkpt lat="46.06707" lon="6.76523">
        <ele>1352.9</ele>
        <time>2026-06-26T11:51:40Z</time>
      </trkpt>
      <trkpt lat="46.06707" lon="6.76523">
        <ele>1352.9</ele>
        <time>2026-06-26T11:51:41Z</time>
      </trkpt>
      <trkpt lat="46.06707" lon="6.76523">
        <ele>1352.9</ele>
        <time>2026-06-26T11:51:42Z</time>
      </trkpt>
      <trkpt lat="46.06706" lon="6.76524">
        <ele>1352.8</ele>
        <time>2026-06-26T11:51:43Z</time>
      </trkpt>
      <trkpt lat="46.06706" lon="6.76524">
        <ele>1352.8</ele>
        <time>2026-06-26T11:51:44Z</time>
      </trkpt>
      <trkpt lat="46.06706" lon="6.76525">
        <ele>1352.8</ele>
        <time>2026-06-26T11:51:45Z</time>
      </trkpt>
      <trkpt lat="46.06706" lon="6.76525">
        <ele>1352.8</ele>
        <time>2026-06-26T11:51:46Z</time>
      </trkpt>
      <trkpt lat="46.06706" lon="6.76525">
        <ele>1352.8</ele>
        <time>2026-06-26T11:51:47Z</time>
      </trkpt>
      <trkpt lat="46.06706" lon="6.76524">
        <ele>1352.8</ele>
        <time>2026-06-26T11:51:48Z</time>
      </trkpt>
      <trkpt lat="46.06707" lon="6.76524">
        <ele>1352.7</ele>
        <time>2026-06-26T11:51:49Z</time>
      </trkpt>
      <trkpt lat="46.06707" lon="6.76525">
        <ele>1352.7</ele>
        <time>2026-06-26T11:51:50Z</time>
      </trkpt>
      <trkpt lat="46.06707" lon="6.76524">
        <ele>1352.7</ele>
        <time>2026-06-26T11:51:51Z</time>
      </trkpt>
      <trkpt lat="46.06707" lon="6.76524">
        <ele>1352.7</ele>
        <time>2026-06-26T11:51:52Z</time>
      </trkpt>
      <trkpt lat="46.06706" lon="6.76524">
        <ele>1352.7</ele>
        <time>2026-06-26T11:51:53Z</time>
      </trkpt>
      <trkpt lat="46.06706" lon="6.76525">
        <ele>1352.7</ele>
        <time>2026-06-26T11:51:54Z</time>
      </trkpt>
      <trkpt lat="46.06706" lon="6.76525">
        <ele>1352.6</ele>
        <time>2026-06-26T11:51:55Z</time>
      </trkpt>
      <trkpt lat="46.06706" lon="6.76525">
        <ele>1352.7</ele>
        <time>2026-06-26T11:51:56Z</time>
      </trkpt>
      <trkpt lat="46.06706" lon="6.76525">
        <ele>1352.6</ele>
        <time>2026-06-26T11:51:57Z</time>
      </trkpt>
      <trkpt lat="46.06706" lon="6.76525">
        <ele>1352.6</ele>
        <time>2026-06-26T11:51:58Z</time>
      </trkpt>
      <trkpt lat="46.06706" lon="6.76525">
        <ele>1352.6</ele>
        <time>2026-06-26T11:51:59Z</time>
      </trkpt>
      <trkpt lat="46.06706" lon="6.76525">
        <ele>1352.5</ele>
        <time>2026-06-26T11:52:00Z</time>
      </trkpt>
      <trkpt lat="46.06705" lon="6.76524">
        <ele>1352.5</ele>
        <time>2026-06-26T11:52:01Z</time>
      </trkpt>
      <trkpt lat="46.06706" lon="6.76525">
        <ele>1352.5</ele>
        <time>2026-06-26T11:52:02Z</time>
      </trkpt>
      <trkpt lat="46.06706" lon="6.76525">
        <ele>1352.6</ele>
        <time>2026-06-26T11:52:03Z</time>
      </trkpt>
      <trkpt lat="46.06706" lon="6.76525">
        <ele>1352.7</ele>
        <time>2026-06-26T11:52:04Z</time>
      </trkpt>
      <trkpt lat="46.06706" lon="6.76524">
        <ele>1352.6</ele>
        <time>2026-06-26T11:52:05Z</time>
      </trkpt>
      <trkpt lat="46.06706" lon="6.76524">
        <ele>1352.6</ele>
        <time>2026-06-26T11:52:06Z</time>
      </trkpt>
      <trkpt lat="46.06706" lon="6.76524">
        <ele>1352.5</ele>
        <time>2026-06-26T11:52:07Z</time>
      </trkpt>
      <trkpt lat="46.06706" lon="6.76524">
        <ele>1352.5</ele>
        <time>2026-06-26T11:52:08Z</time>
      </trkpt>
      <trkpt lat="46.06706" lon="6.76523">
        <ele>1352.4</ele>
        <time>2026-06-26T11:52:09Z</time>
      </trkpt>
      <trkpt lat="46.06706" lon="6.76523">
        <ele>1352.3</ele>
        <time>2026-06-26T11:52:10Z</time>
      </trkpt>
      <trkpt lat="46.06706" lon="6.76523">
        <ele>1352.4</ele>
        <time>2026-06-26T11:52:11Z</time>
      </trkpt>
      <trkpt lat="46.06706" lon="6.76523">
        <ele>1352.3</ele>
        <time>2026-06-26T11:52:12Z</time>
      </trkpt>
      <trkpt lat="46.06706" lon="6.76523">
        <ele>1352.2</ele>
        <time>2026-06-26T11:52:13Z</time>
      </trkpt>
      <trkpt lat="46.06706" lon="6.76522">
        <ele>1352.1</ele>
        <time>2026-06-26T11:52:14Z</time>
      </trkpt>
      <trkpt lat="46.06706" lon="6.76522">
        <ele>1352.1</ele>
        <time>2026-06-26T11:52:15Z</time>
      </trkpt>
      <trkpt lat="46.06706" lon="6.76522">
        <ele>1352.2</ele>
        <time>2026-06-26T11:52:16Z</time>
      </trkpt>
      <trkpt lat="46.06706" lon="6.76522">
        <ele>1352.1</ele>
        <time>2026-06-26T11:52:17Z</time>
      </trkpt>
      <trkpt lat="46.06706" lon="6.76522">
        <ele>1352.1</ele>
        <time>2026-06-26T11:52:18Z</time>
      </trkpt>
      <trkpt lat="46.06706" lon="6.76522">
        <ele>1352.1</ele>
        <time>2026-06-26T11:52:19Z</time>
      </trkpt>
      <trkpt lat="46.06706" lon="6.7652">
        <ele>1352.1</ele>
        <time>2026-06-26T11:52:20Z</time>
      </trkpt>
      <trkpt lat="46.06706" lon="6.7652">
        <ele>1352.1</ele>
        <time>2026-06-26T11:52:21Z</time>
      </trkpt>
      <trkpt lat="46.06706" lon="6.76518">
        <ele>1352.1</ele>
        <time>2026-06-26T11:52:22Z</time>
      </trkpt>
      <trkpt lat="46.06706" lon="6.76517">
        <ele>1352.1</ele>
        <time>2026-06-26T11:52:23Z</time>
      </trkpt>
      <trkpt lat="46.06707" lon="6.76517">
        <ele>1352</ele>
        <time>2026-06-26T11:52:24Z</time>
      </trkpt>
      <trkpt lat="46.06707" lon="6.76517">
        <ele>1352</ele>
        <time>2026-06-26T11:52:25Z</time>
      </trkpt>
      <trkpt lat="46.06707" lon="6.76516">
        <ele>1351.9</ele>
        <time>2026-06-26T11:52:26Z</time>
      </trkpt>
      <trkpt lat="46.06707" lon="6.76516">
        <ele>1351.8</ele>
        <time>2026-06-26T11:52:27Z</time>
      </trkpt>
      <trkpt lat="46.06707" lon="6.76515">
        <ele>1351.8</ele>
        <time>2026-06-26T11:52:28Z</time>
      </trkpt>
      <trkpt lat="46.06707" lon="6.76515">
        <ele>1351.8</ele>
        <time>2026-06-26T11:52:29Z</time>
      </trkpt>
      <trkpt lat="46.06707" lon="6.76514">
        <ele>1351.8</ele>
        <time>2026-06-26T11:52:30Z</time>
      </trkpt>
      <trkpt lat="46.06707" lon="6.76514">
        <ele>1351.8</ele>
        <time>2026-06-26T11:52:31Z</time>
      </trkpt>
      <trkpt lat="46.06707" lon="6.76514">
        <ele>1351.8</ele>
        <time>2026-06-26T11:52:32Z</time>
      </trkpt>
      <trkpt lat="46.06707" lon="6.76514">
        <ele>1351.8</ele>
        <time>2026-06-26T11:52:33Z</time>
      </trkpt>
      <trkpt lat="46.06707" lon="6.76514">
        <ele>1351.8</ele>
        <time>2026-06-26T11:52:34Z</time>
      </trkpt>
      <trkpt lat="46.06707" lon="6.76513">
        <ele>1351.8</ele>
        <time>2026-06-26T11:52:35Z</time>
      </trkpt>
      <trkpt lat="46.06707" lon="6.76513">
        <ele>1351.8</ele>
        <time>2026-06-26T11:52:36Z</time>
      </trkpt>
      <trkpt lat="46.06707" lon="6.76513">
        <ele>1351.8</ele>
        <time>2026-06-26T11:52:37Z</time>
      </trkpt>
      <trkpt lat="46.06707" lon="6.76513">
        <ele>1351.8</ele>
        <time>2026-06-26T11:52:38Z</time>
      </trkpt>
      <trkpt lat="46.06707" lon="6.76513">
        <ele>1351.8</ele>
        <time>2026-06-26T11:52:39Z</time>
      </trkpt>
      <trkpt lat="46.06708" lon="6.76513">
        <ele>1351.8</ele>
        <time>2026-06-26T11:52:40Z</time>
      </trkpt>
      <trkpt lat="46.06708" lon="6.76513">
        <ele>1351.8</ele>
        <time>2026-06-26T11:52:41Z</time>
      </trkpt>
      <trkpt lat="46.06708" lon="6.76512">
        <ele>1351.8</ele>
        <time>2026-06-26T11:52:42Z</time>
      </trkpt>
      <trkpt lat="46.06708" lon="6.76512">
        <ele>1351.9</ele>
        <time>2026-06-26T11:52:43Z</time>
      </trkpt>
      <trkpt lat="46.06708" lon="6.76512">
        <ele>1351.8</ele>
        <time>2026-06-26T11:52:44Z</time>
      </trkpt>
      <trkpt lat="46.06707" lon="6.76512">
        <ele>1351.8</ele>
        <time>2026-06-26T11:52:45Z</time>
      </trkpt>
      <trkpt lat="46.06707" lon="6.76512">
        <ele>1351.8</ele>
        <time>2026-06-26T11:52:46Z</time>
      </trkpt>
      <trkpt lat="46.06707" lon="6.76512">
        <ele>1351.7</ele>
        <time>2026-06-26T11:52:47Z</time>
      </trkpt>
      <trkpt lat="46.06707" lon="6.76512">
        <ele>1351.7</ele>
        <time>2026-06-26T11:52:48Z</time>
      </trkpt>
      <trkpt lat="46.06707" lon="6.76512">
        <ele>1351.7</ele>
        <time>2026-06-26T11:52:49Z</time>
      </trkpt>
      <trkpt lat="46.06707" lon="6.76512">
        <ele>1351.7</ele>
        <time>2026-06-26T11:52:50Z</time>
      </trkpt>
      <trkpt lat="46.06707" lon="6.76512">
        <ele>1351.6</ele>
        <time>2026-06-26T11:52:51Z</time>
      </trkpt>
      <trkpt lat="46.06707" lon="6.76512">
        <ele>1351.7</ele>
        <time>2026-06-26T11:52:52Z</time>
      </trkpt>
      <trkpt lat="46.06706" lon="6.76512">
        <ele>1351.8</ele>
        <time>2026-06-26T11:52:53Z</time>
      </trkpt>
      <trkpt lat="46.06707" lon="6.76513">
        <ele>1351.8</ele>
        <time>2026-06-26T11:52:54Z</time>
      </trkpt>
      <trkpt lat="46.06707" lon="6.76513">
        <ele>1351.8</ele>
        <time>2026-06-26T11:52:55Z</time>
      </trkpt>
      <trkpt lat="46.06707" lon="6.76513">
        <ele>1351.8</ele>
        <time>2026-06-26T11:52:56Z</time>
      </trkpt>
      <trkpt lat="46.06707" lon="6.76513">
        <ele>1351.8</ele>
        <time>2026-06-26T11:52:57Z</time>
      </trkpt>
      <trkpt lat="46.06707" lon="6.76513">
        <ele>1351.7</ele>
        <time>2026-06-26T11:52:58Z</time>
      </trkpt>
      <trkpt lat="46.06707" lon="6.76513">
        <ele>1351.7</ele>
        <time>2026-06-26T11:52:59Z</time>
      </trkpt>
      <trkpt lat="46.06707" lon="6.76513">
        <ele>1351.6</ele>
        <time>2026-06-26T11:53:00Z</time>
      </trkpt>
      <trkpt lat="46.06707" lon="6.76513">
        <ele>1351.6</ele>
        <time>2026-06-26T11:53:01Z</time>
      </trkpt>
      <trkpt lat="46.06707" lon="6.76513">
        <ele>1351.6</ele>
        <time>2026-06-26T11:53:02Z</time>
      </trkpt>
      <trkpt lat="46.06707" lon="6.76512">
        <ele>1351.6</ele>
        <time>2026-06-26T11:53:03Z</time>
      </trkpt>
      <trkpt lat="46.06707" lon="6.76512">
        <ele>1351.6</ele>
        <time>2026-06-26T11:53:04Z</time>
      </trkpt>
      <trkpt lat="46.06707" lon="6.76512">
        <ele>1351.6</ele>
        <time>2026-06-26T11:53:05Z</time>
      </trkpt>
      <trkpt lat="46.06707" lon="6.76512">
        <ele>1351.6</ele>
        <time>2026-06-26T11:53:06Z</time>
      </trkpt>
      <trkpt lat="46.06707" lon="6.76511">
        <ele>1351.6</ele>
        <time>2026-06-26T11:53:07Z</time>
      </trkpt>
      <trkpt lat="46.06707" lon="6.76511">
        <ele>1351.6</ele>
        <time>2026-06-26T11:53:08Z</time>
      </trkpt>
      <trkpt lat="46.06707" lon="6.76511">
        <ele>1351.5</ele>
        <time>2026-06-26T11:53:09Z</time>
      </trkpt>
      <trkpt lat="46.06707" lon="6.76511">
        <ele>1351.6</ele>
        <time>2026-06-26T11:53:10Z</time>
      </trkpt>
      <trkpt lat="46.06707" lon="6.76511">
        <ele>1351.7</ele>
        <time>2026-06-26T11:53:11Z</time>
      </trkpt>
      <trkpt lat="46.06708" lon="6.76511">
        <ele>1351.7</ele>
        <time>2026-06-26T11:53:12Z</time>
      </trkpt>
      <trkpt lat="46.06708" lon="6.7651">
        <ele>1351.8</ele>
        <time>2026-06-26T11:53:13Z</time>
      </trkpt>
      <trkpt lat="46.06708" lon="6.7651">
        <ele>1351.8</ele>
        <time>2026-06-26T11:53:14Z</time>
      </trkpt>
      <trkpt lat="46.06708" lon="6.7651">
        <ele>1351.8</ele>
        <time>2026-06-26T11:53:15Z</time>
      </trkpt>
      <trkpt lat="46.06708" lon="6.7651">
        <ele>1351.8</ele>
        <time>2026-06-26T11:53:16Z</time>
      </trkpt>
      <trkpt lat="46.06708" lon="6.76509">
        <ele>1351.8</ele>
        <time>2026-06-26T11:53:17Z</time>
      </trkpt>
      <trkpt lat="46.06708" lon="6.76509">
        <ele>1351.8</ele>
        <time>2026-06-26T11:53:18Z</time>
      </trkpt>
      <trkpt lat="46.06708" lon="6.76509">
        <ele>1351.8</ele>
        <time>2026-06-26T11:53:19Z</time>
      </trkpt>
      <trkpt lat="46.06708" lon="6.7651">
        <ele>1351.7</ele>
        <time>2026-06-26T11:53:20Z</time>
      </trkpt>
      <trkpt lat="46.06708" lon="6.7651">
        <ele>1351.7</ele>
        <time>2026-06-26T11:53:21Z</time>
      </trkpt>
      <trkpt lat="46.06708" lon="6.7651">
        <ele>1351.7</ele>
        <time>2026-06-26T11:53:22Z</time>
      </trkpt>
      <trkpt lat="46.06707" lon="6.7651">
        <ele>1351.7</ele>
        <time>2026-06-26T11:53:23Z</time>
      </trkpt>
      <trkpt lat="46.06708" lon="6.7651">
        <ele>1351.7</ele>
        <time>2026-06-26T11:53:24Z</time>
      </trkpt>
      <trkpt lat="46.06708" lon="6.7651">
        <ele>1351.6</ele>
        <time>2026-06-26T11:53:25Z</time>
      </trkpt>
      <trkpt lat="46.06708" lon="6.7651">
        <ele>1351.6</ele>
        <time>2026-06-26T11:53:26Z</time>
      </trkpt>
      <trkpt lat="46.06708" lon="6.76511">
        <ele>1351.6</ele>
        <time>2026-06-26T11:53:27Z</time>
      </trkpt>
      <trkpt lat="46.06708" lon="6.7651">
        <ele>1351.6</ele>
        <time>2026-06-26T11:53:28Z</time>
      </trkpt>
      <trkpt lat="46.06707" lon="6.7651">
        <ele>1351.6</ele>
        <time>2026-06-26T11:53:29Z</time>
      </trkpt>
      <trkpt lat="46.06706" lon="6.76511">
        <ele>1351.6</ele>
        <time>2026-06-26T11:53:30Z</time>
      </trkpt>
      <trkpt lat="46.06706" lon="6.76511">
        <ele>1351.6</ele>
        <time>2026-06-26T11:53:31Z</time>
      </trkpt>
      <trkpt lat="46.06705" lon="6.76511">
        <ele>1351.5</ele>
        <time>2026-06-26T11:53:32Z</time>
      </trkpt>
      <trkpt lat="46.06705" lon="6.76512">
        <ele>1351.4</ele>
        <time>2026-06-26T11:53:33Z</time>
      </trkpt>
      <trkpt lat="46.06704" lon="6.76512">
        <ele>1351.3</ele>
        <time>2026-06-26T11:53:34Z</time>
      </trkpt>
      <trkpt lat="46.06704" lon="6.76513">
        <ele>1351.2</ele>
        <time>2026-06-26T11:53:35Z</time>
      </trkpt>
      <trkpt lat="46.06703" lon="6.76514">
        <ele>1351.1</ele>
        <time>2026-06-26T11:53:36Z</time>
      </trkpt>
      <trkpt lat="46.06703" lon="6.76514">
        <ele>1351</ele>
        <time>2026-06-26T11:53:37Z</time>
      </trkpt>
      <trkpt lat="46.06702" lon="6.76514">
        <ele>1350.8</ele>
        <time>2026-06-26T11:53:38Z</time>
      </trkpt>
      <trkpt lat="46.06701" lon="6.76515">
        <ele>1350.5</ele>
        <time>2026-06-26T11:53:39Z</time>
      </trkpt>
      <trkpt lat="46.067" lon="6.76516">
        <ele>1350.3</ele>
        <time>2026-06-26T11:53:40Z</time>
      </trkpt>
      <trkpt lat="46.067" lon="6.76517">
        <ele>1350.1</ele>
        <time>2026-06-26T11:53:41Z</time>
      </trkpt>
      <trkpt lat="46.06699" lon="6.76516">
        <ele>1349.9</ele>
        <time>2026-06-26T11:53:42Z</time>
      </trkpt>
      <trkpt lat="46.06698" lon="6.76516">
        <ele>1349.8</ele>
        <time>2026-06-26T11:53:43Z</time>
      </trkpt>
      <trkpt lat="46.06697" lon="6.76517">
        <ele>1349.7</ele>
        <time>2026-06-26T11:53:44Z</time>
      </trkpt>
      <trkpt lat="46.06696" lon="6.76518">
        <ele>1349.5</ele>
        <time>2026-06-26T11:53:45Z</time>
      </trkpt>
      <trkpt lat="46.06695" lon="6.76519">
        <ele>1349.3</ele>
        <time>2026-06-26T11:53:46Z</time>
      </trkpt>
      <trkpt lat="46.06695" lon="6.76519">
        <ele>1349.1</ele>
        <time>2026-06-26T11:53:47Z</time>
      </trkpt>
      <trkpt lat="46.06694" lon="6.7652">
        <ele>1349</ele>
        <time>2026-06-26T11:53:48Z</time>
      </trkpt>
      <trkpt lat="46.06694" lon="6.76521">
        <ele>1349</ele>
        <time>2026-06-26T11:53:49Z</time>
      </trkpt>
      <trkpt lat="46.06693" lon="6.76521">
        <ele>1349</ele>
        <time>2026-06-26T11:53:50Z</time>
      </trkpt>
      <trkpt lat="46.06693" lon="6.76522">
        <ele>1348.9</ele>
        <time>2026-06-26T11:53:51Z</time>
      </trkpt>
      <trkpt lat="46.06692" lon="6.76522">
        <ele>1348.8</ele>
        <time>2026-06-26T11:53:52Z</time>
      </trkpt>
      <trkpt lat="46.06691" lon="6.76523">
        <ele>1348.6</ele>
        <time>2026-06-26T11:53:53Z</time>
      </trkpt>
      <trkpt lat="46.0669" lon="6.76523">
        <ele>1348.4</ele>
        <time>2026-06-26T11:53:54Z</time>
      </trkpt>
      <trkpt lat="46.0669" lon="6.76524">
        <ele>1348.4</ele>
        <time>2026-06-26T11:53:55Z</time>
      </trkpt>
      <trkpt lat="46.06689" lon="6.76525">
        <ele>1348.6</ele>
        <time>2026-06-26T11:53:56Z</time>
      </trkpt>
      <trkpt lat="46.06688" lon="6.76526">
        <ele>1348.3</ele>
        <time>2026-06-26T11:53:57Z</time>
      </trkpt>
      <trkpt lat="46.06688" lon="6.76527">
        <ele>1348.2</ele>
        <time>2026-06-26T11:53:58Z</time>
      </trkpt>
      <trkpt lat="46.06687" lon="6.76529">
        <ele>1348</ele>
        <time>2026-06-26T11:53:59Z</time>
      </trkpt>
      <trkpt lat="46.06687" lon="6.7653">
        <ele>1347.8</ele>
        <time>2026-06-26T11:54:00Z</time>
      </trkpt>
      <trkpt lat="46.06686" lon="6.76532">
        <ele>1347.6</ele>
        <time>2026-06-26T11:54:01Z</time>
      </trkpt>
      <trkpt lat="46.06686" lon="6.76532">
        <ele>1347.4</ele>
        <time>2026-06-26T11:54:02Z</time>
      </trkpt>
      <trkpt lat="46.06686" lon="6.76533">
        <ele>1347.2</ele>
        <time>2026-06-26T11:54:03Z</time>
      </trkpt>
      <trkpt lat="46.06686" lon="6.76533">
        <ele>1347.1</ele>
        <time>2026-06-26T11:54:04Z</time>
      </trkpt>
      <trkpt lat="46.06686" lon="6.76534">
        <ele>1346.9</ele>
        <time>2026-06-26T11:54:05Z</time>
      </trkpt>
      <trkpt lat="46.06686" lon="6.76535">
        <ele>1346.8</ele>
        <time>2026-06-26T11:54:06Z</time>
      </trkpt>
      <trkpt lat="46.06687" lon="6.76535">
        <ele>1346.8</ele>
        <time>2026-06-26T11:54:07Z</time>
      </trkpt>
      <trkpt lat="46.06687" lon="6.76535">
        <ele>1346.7</ele>
        <time>2026-06-26T11:54:08Z</time>
      </trkpt>
      <trkpt lat="46.06687" lon="6.76535">
        <ele>1346.6</ele>
        <time>2026-06-26T11:54:09Z</time>
      </trkpt>
      <trkpt lat="46.06687" lon="6.76536">
        <ele>1346.6</ele>
        <time>2026-06-26T11:54:10Z</time>
      </trkpt>
      <trkpt lat="46.06687" lon="6.76536">
        <ele>1346.6</ele>
        <time>2026-06-26T11:54:11Z</time>
      </trkpt>
      <trkpt lat="46.06687" lon="6.76536">
        <ele>1346.6</ele>
        <time>2026-06-26T11:54:12Z</time>
      </trkpt>
      <trkpt lat="46.06687" lon="6.76536">
        <ele>1346.6</ele>
        <time>2026-06-26T11:54:13Z</time>
      </trkpt>
      <trkpt lat="46.06687" lon="6.76536">
        <ele>1346.6</ele>
        <time>2026-06-26T11:54:14Z</time>
      </trkpt>
      <trkpt lat="46.06687" lon="6.76536">
        <ele>1346.6</ele>
        <time>2026-06-26T11:54:15Z</time>
      </trkpt>
      <trkpt lat="46.06687" lon="6.76536">
        <ele>1346.6</ele>
        <time>2026-06-26T11:54:16Z</time>
      </trkpt>
      <trkpt lat="46.06687" lon="6.76535">
        <ele>1346.5</ele>
        <time>2026-06-26T11:54:17Z</time>
      </trkpt>
      <trkpt lat="46.06686" lon="6.76535">
        <ele>1346.4</ele>
        <time>2026-06-26T11:54:18Z</time>
      </trkpt>
      <trkpt lat="46.06686" lon="6.76535">
        <ele>1346.3</ele>
        <time>2026-06-26T11:54:19Z</time>
      </trkpt>
      <trkpt lat="46.06685" lon="6.76536">
        <ele>1346.2</ele>
        <time>2026-06-26T11:54:20Z</time>
      </trkpt>
      <trkpt lat="46.06685" lon="6.76537">
        <ele>1346.1</ele>
        <time>2026-06-26T11:54:21Z</time>
      </trkpt>
      <trkpt lat="46.06684" lon="6.76538">
        <ele>1346</ele>
        <time>2026-06-26T11:54:22Z</time>
      </trkpt>
      <trkpt lat="46.06683" lon="6.76539">
        <ele>1345.9</ele>
        <time>2026-06-26T11:54:23Z</time>
      </trkpt>
      <trkpt lat="46.06682" lon="6.76541">
        <ele>1345.9</ele>
        <time>2026-06-26T11:54:24Z</time>
      </trkpt>
      <trkpt lat="46.06681" lon="6.76541">
        <ele>1345.8</ele>
        <time>2026-06-26T11:54:25Z</time>
      </trkpt>
      <trkpt lat="46.0668" lon="6.76542">
        <ele>1345.6</ele>
        <time>2026-06-26T11:54:26Z</time>
      </trkpt>
      <trkpt lat="46.0668" lon="6.76544">
        <ele>1345.5</ele>
        <time>2026-06-26T11:54:27Z</time>
      </trkpt>
      <trkpt lat="46.06679" lon="6.76545">
        <ele>1345.4</ele>
        <time>2026-06-26T11:54:28Z</time>
      </trkpt>
      <trkpt lat="46.06677" lon="6.76545">
        <ele>1345.3</ele>
        <time>2026-06-26T11:54:29Z</time>
      </trkpt>
      <trkpt lat="46.06676" lon="6.76546">
        <ele>1345.1</ele>
        <time>2026-06-26T11:54:30Z</time>
      </trkpt>
      <trkpt lat="46.06675" lon="6.76547">
        <ele>1344.9</ele>
        <time>2026-06-26T11:54:31Z</time>
      </trkpt>
      <trkpt lat="46.06673" lon="6.76548">
        <ele>1344.6</ele>
        <time>2026-06-26T11:54:32Z</time>
      </trkpt>
      <trkpt lat="46.06672" lon="6.76548">
        <ele>1344.5</ele>
        <time>2026-06-26T11:54:33Z</time>
      </trkpt>
      <trkpt lat="46.0667" lon="6.76549">
        <ele>1344.4</ele>
        <time>2026-06-26T11:54:34Z</time>
      </trkpt>
      <trkpt lat="46.0667" lon="6.7655">
        <ele>1344.1</ele>
        <time>2026-06-26T11:54:35Z</time>
      </trkpt>
      <trkpt lat="46.06669" lon="6.76551">
        <ele>1343.8</ele>
        <time>2026-06-26T11:54:36Z</time>
      </trkpt>
      <trkpt lat="46.06668" lon="6.76552">
        <ele>1343.5</ele>
        <time>2026-06-26T11:54:37Z</time>
      </trkpt>
      <trkpt lat="46.06666" lon="6.76552">
        <ele>1343.3</ele>
        <time>2026-06-26T11:54:38Z</time>
      </trkpt>
      <trkpt lat="46.06665" lon="6.76552">
        <ele>1343</ele>
        <time>2026-06-26T11:54:39Z</time>
      </trkpt>
      <trkpt lat="46.06664" lon="6.76553">
        <ele>1342.8</ele>
        <time>2026-06-26T11:54:40Z</time>
      </trkpt>
      <trkpt lat="46.06663" lon="6.76555">
        <ele>1342.6</ele>
        <time>2026-06-26T11:54:41Z</time>
      </trkpt>
      <trkpt lat="46.06662" lon="6.76556">
        <ele>1342.4</ele>
        <time>2026-06-26T11:54:42Z</time>
      </trkpt>
      <trkpt lat="46.06661" lon="6.76557">
        <ele>1342.3</ele>
        <time>2026-06-26T11:54:43Z</time>
      </trkpt>
      <trkpt lat="46.0666" lon="6.76558">
        <ele>1342.1</ele>
        <time>2026-06-26T11:54:44Z</time>
      </trkpt>
      <trkpt lat="46.06659" lon="6.76558">
        <ele>1342.2</ele>
        <time>2026-06-26T11:54:45Z</time>
      </trkpt>
      <trkpt lat="46.06658" lon="6.76559">
        <ele>1341.9</ele>
        <time>2026-06-26T11:54:46Z</time>
      </trkpt>
      <trkpt lat="46.06656" lon="6.7656">
        <ele>1341.7</ele>
        <time>2026-06-26T11:54:47Z</time>
      </trkpt>
      <trkpt lat="46.06655" lon="6.7656">
        <ele>1341.4</ele>
        <time>2026-06-26T11:54:48Z</time>
      </trkpt>
      <trkpt lat="46.06654" lon="6.76561">
        <ele>1341.2</ele>
        <time>2026-06-26T11:54:49Z</time>
      </trkpt>
      <trkpt lat="46.06652" lon="6.76561">
        <ele>1341</ele>
        <time>2026-06-26T11:54:50Z</time>
      </trkpt>
      <trkpt lat="46.06651" lon="6.76562">
        <ele>1340.8</ele>
        <time>2026-06-26T11:54:51Z</time>
      </trkpt>
      <trkpt lat="46.0665" lon="6.76562">
        <ele>1340.6</ele>
        <time>2026-06-26T11:54:52Z</time>
      </trkpt>
      <trkpt lat="46.06648" lon="6.76563">
        <ele>1340.4</ele>
        <time>2026-06-26T11:54:53Z</time>
      </trkpt>
      <trkpt lat="46.06647" lon="6.76564">
        <ele>1340.1</ele>
        <time>2026-06-26T11:54:54Z</time>
      </trkpt>
      <trkpt lat="46.06646" lon="6.76565">
        <ele>1339.9</ele>
        <time>2026-06-26T11:54:55Z</time>
      </trkpt>
      <trkpt lat="46.06645" lon="6.76565">
        <ele>1339.5</ele>
        <time>2026-06-26T11:54:56Z</time>
      </trkpt>
      <trkpt lat="46.06644" lon="6.76566">
        <ele>1339.1</ele>
        <time>2026-06-26T11:54:57Z</time>
      </trkpt>
      <trkpt lat="46.06643" lon="6.76566">
        <ele>1338.9</ele>
        <time>2026-06-26T11:54:58Z</time>
      </trkpt>
      <trkpt lat="46.06641" lon="6.76567">
        <ele>1338.6</ele>
        <time>2026-06-26T11:54:59Z</time>
      </trkpt>
      <trkpt lat="46.0664" lon="6.76568">
        <ele>1338.4</ele>
        <time>2026-06-26T11:55:00Z</time>
      </trkpt>
      <trkpt lat="46.06639" lon="6.76568">
        <ele>1338.2</ele>
        <time>2026-06-26T11:55:01Z</time>
      </trkpt>
      <trkpt lat="46.06638" lon="6.76569">
        <ele>1338</ele>
        <time>2026-06-26T11:55:02Z</time>
      </trkpt>
      <trkpt lat="46.06637" lon="6.76569">
        <ele>1337.9</ele>
        <time>2026-06-26T11:55:03Z</time>
      </trkpt>
      <trkpt lat="46.06635" lon="6.7657">
        <ele>1337.7</ele>
        <time>2026-06-26T11:55:04Z</time>
      </trkpt>
      <trkpt lat="46.06634" lon="6.76571">
        <ele>1337.5</ele>
        <time>2026-06-26T11:55:05Z</time>
      </trkpt>
      <trkpt lat="46.06632" lon="6.76571">
        <ele>1337.3</ele>
        <time>2026-06-26T11:55:06Z</time>
      </trkpt>
      <trkpt lat="46.06631" lon="6.76572">
        <ele>1337</ele>
        <time>2026-06-26T11:55:07Z</time>
      </trkpt>
      <trkpt lat="46.0663" lon="6.76573">
        <ele>1336.8</ele>
        <time>2026-06-26T11:55:08Z</time>
      </trkpt>
      <trkpt lat="46.06628" lon="6.76573">
        <ele>1336.6</ele>
        <time>2026-06-26T11:55:09Z</time>
      </trkpt>
      <trkpt lat="46.06627" lon="6.76574">
        <ele>1336.6</ele>
        <time>2026-06-26T11:55:10Z</time>
      </trkpt>
      <trkpt lat="46.06626" lon="6.76575">
        <ele>1336.3</ele>
        <time>2026-06-26T11:55:11Z</time>
      </trkpt>
      <trkpt lat="46.06625" lon="6.76576">
        <ele>1336</ele>
        <time>2026-06-26T11:55:12Z</time>
      </trkpt>
      <trkpt lat="46.06623" lon="6.76577">
        <ele>1335.8</ele>
        <time>2026-06-26T11:55:13Z</time>
      </trkpt>
      <trkpt lat="46.06622" lon="6.76578">
        <ele>1335.6</ele>
        <time>2026-06-26T11:55:14Z</time>
      </trkpt>
      <trkpt lat="46.06621" lon="6.76579">
        <ele>1335.3</ele>
        <time>2026-06-26T11:55:15Z</time>
      </trkpt>
      <trkpt lat="46.0662" lon="6.7658">
        <ele>1335.1</ele>
        <time>2026-06-26T11:55:16Z</time>
      </trkpt>
      <trkpt lat="46.06618" lon="6.76581">
        <ele>1334.8</ele>
        <time>2026-06-26T11:55:17Z</time>
      </trkpt>
      <trkpt lat="46.06617" lon="6.76581">
        <ele>1334.6</ele>
        <time>2026-06-26T11:55:18Z</time>
      </trkpt>
      <trkpt lat="46.06616" lon="6.76582">
        <ele>1334.3</ele>
        <time>2026-06-26T11:55:19Z</time>
      </trkpt>
      <trkpt lat="46.06615" lon="6.76583">
        <ele>1334.2</ele>
        <time>2026-06-26T11:55:20Z</time>
      </trkpt>
      <trkpt lat="46.06614" lon="6.76584">
        <ele>1334</ele>
        <time>2026-06-26T11:55:21Z</time>
      </trkpt>
      <trkpt lat="46.06613" lon="6.76585">
        <ele>1333.7</ele>
        <time>2026-06-26T11:55:22Z</time>
      </trkpt>
      <trkpt lat="46.06612" lon="6.76585">
        <ele>1333.4</ele>
        <time>2026-06-26T11:55:23Z</time>
      </trkpt>
      <trkpt lat="46.06611" lon="6.76586">
        <ele>1333.2</ele>
        <time>2026-06-26T11:55:24Z</time>
      </trkpt>
      <trkpt lat="46.0661" lon="6.76586">
        <ele>1333</ele>
        <time>2026-06-26T11:55:25Z</time>
      </trkpt>
      <trkpt lat="46.06608" lon="6.76586">
        <ele>1332.8</ele>
        <time>2026-06-26T11:55:26Z</time>
      </trkpt>
      <trkpt lat="46.06607" lon="6.76585">
        <ele>1332.5</ele>
        <time>2026-06-26T11:55:27Z</time>
      </trkpt>
      <trkpt lat="46.06606" lon="6.76585">
        <ele>1332.3</ele>
        <time>2026-06-26T11:55:28Z</time>
      </trkpt>
      <trkpt lat="46.06605" lon="6.76585">
        <ele>1332</ele>
        <time>2026-06-26T11:55:29Z</time>
      </trkpt>
      <trkpt lat="46.06604" lon="6.76585">
        <ele>1331.7</ele>
        <time>2026-06-26T11:55:30Z</time>
      </trkpt>
      <trkpt lat="46.06603" lon="6.76585">
        <ele>1331.5</ele>
        <time>2026-06-26T11:55:31Z</time>
      </trkpt>
      <trkpt lat="46.06602" lon="6.76585">
        <ele>1331.3</ele>
        <time>2026-06-26T11:55:32Z</time>
      </trkpt>
      <trkpt lat="46.06601" lon="6.76586">
        <ele>1331</ele>
        <time>2026-06-26T11:55:33Z</time>
      </trkpt>
      <trkpt lat="46.06599" lon="6.76585">
        <ele>1330.7</ele>
        <time>2026-06-26T11:55:34Z</time>
      </trkpt>
      <trkpt lat="46.06598" lon="6.76586">
        <ele>1330.5</ele>
        <time>2026-06-26T11:55:35Z</time>
      </trkpt>
      <trkpt lat="46.06597" lon="6.76586">
        <ele>1330.2</ele>
        <time>2026-06-26T11:55:36Z</time>
      </trkpt>
      <trkpt lat="46.06596" lon="6.76586">
        <ele>1330</ele>
        <time>2026-06-26T11:55:37Z</time>
      </trkpt>
      <trkpt lat="46.06595" lon="6.76586">
        <ele>1329.9</ele>
        <time>2026-06-26T11:55:38Z</time>
      </trkpt>
      <trkpt lat="46.06594" lon="6.76586">
        <ele>1329.8</ele>
        <time>2026-06-26T11:55:39Z</time>
      </trkpt>
      <trkpt lat="46.06593" lon="6.76586">
        <ele>1329.6</ele>
        <time>2026-06-26T11:55:40Z</time>
      </trkpt>
      <trkpt lat="46.06592" lon="6.76587">
        <ele>1329.4</ele>
        <time>2026-06-26T11:55:41Z</time>
      </trkpt>
      <trkpt lat="46.0659" lon="6.76586">
        <ele>1329.1</ele>
        <time>2026-06-26T11:55:42Z</time>
      </trkpt>
      <trkpt lat="46.06589" lon="6.76586">
        <ele>1329</ele>
        <time>2026-06-26T11:55:43Z</time>
      </trkpt>
      <trkpt lat="46.06588" lon="6.76586">
        <ele>1328.8</ele>
        <time>2026-06-26T11:55:44Z</time>
      </trkpt>
      <trkpt lat="46.06587" lon="6.76585">
        <ele>1328.8</ele>
        <time>2026-06-26T11:55:45Z</time>
      </trkpt>
      <trkpt lat="46.06585" lon="6.76585">
        <ele>1328.8</ele>
        <time>2026-06-26T11:55:46Z</time>
      </trkpt>
      <trkpt lat="46.06584" lon="6.76585">
        <ele>1328.7</ele>
        <time>2026-06-26T11:55:47Z</time>
      </trkpt>
      <trkpt lat="46.06583" lon="6.76585">
        <ele>1328.5</ele>
        <time>2026-06-26T11:55:48Z</time>
      </trkpt>
      <trkpt lat="46.06582" lon="6.76584">
        <ele>1328.4</ele>
        <time>2026-06-26T11:55:49Z</time>
      </trkpt>
      <trkpt lat="46.06581" lon="6.76583">
        <ele>1328.3</ele>
        <time>2026-06-26T11:55:50Z</time>
      </trkpt>
      <trkpt lat="46.06581" lon="6.76582">
        <ele>1328.1</ele>
        <time>2026-06-26T11:55:51Z</time>
      </trkpt>
      <trkpt lat="46.06581" lon="6.7658">
        <ele>1327.8</ele>
        <time>2026-06-26T11:55:52Z</time>
      </trkpt>
      <trkpt lat="46.06581" lon="6.76579">
        <ele>1327.5</ele>
        <time>2026-06-26T11:55:53Z</time>
      </trkpt>
      <trkpt lat="46.06582" lon="6.76578">
        <ele>1327.3</ele>
        <time>2026-06-26T11:55:54Z</time>
      </trkpt>
      <trkpt lat="46.06583" lon="6.76578">
        <ele>1327</ele>
        <time>2026-06-26T11:55:55Z</time>
      </trkpt>
      <trkpt lat="46.06584" lon="6.76577">
        <ele>1326.8</ele>
        <time>2026-06-26T11:55:56Z</time>
      </trkpt>
      <trkpt lat="46.06584" lon="6.76577">
        <ele>1326.5</ele>
        <time>2026-06-26T11:55:57Z</time>
      </trkpt>
      <trkpt lat="46.06585" lon="6.76576">
        <ele>1326.3</ele>
        <time>2026-06-26T11:55:58Z</time>
      </trkpt>
      <trkpt lat="46.06586" lon="6.76576">
        <ele>1326</ele>
        <time>2026-06-26T11:55:59Z</time>
      </trkpt>
      <trkpt lat="46.06586" lon="6.76576">
        <ele>1325.8</ele>
        <time>2026-06-26T11:56:00Z</time>
      </trkpt>
      <trkpt lat="46.06587" lon="6.76576">
        <ele>1325.6</ele>
        <time>2026-06-26T11:56:01Z</time>
      </trkpt>
      <trkpt lat="46.06588" lon="6.76577">
        <ele>1325.5</ele>
        <time>2026-06-26T11:56:02Z</time>
      </trkpt>
      <trkpt lat="46.0659" lon="6.76578">
        <ele>1325.2</ele>
        <time>2026-06-26T11:56:03Z</time>
      </trkpt>
      <trkpt lat="46.06591" lon="6.76579">
        <ele>1324.9</ele>
        <time>2026-06-26T11:56:04Z</time>
      </trkpt>
      <trkpt lat="46.06592" lon="6.76579">
        <ele>1324.6</ele>
        <time>2026-06-26T11:56:05Z</time>
      </trkpt>
      <trkpt lat="46.06593" lon="6.76578">
        <ele>1324.3</ele>
        <time>2026-06-26T11:56:06Z</time>
      </trkpt>
      <trkpt lat="46.06595" lon="6.76578">
        <ele>1324.1</ele>
        <time>2026-06-26T11:56:07Z</time>
      </trkpt>
      <trkpt lat="46.06596" lon="6.76577">
        <ele>1324</ele>
        <time>2026-06-26T11:56:08Z</time>
      </trkpt>
      <trkpt lat="46.06597" lon="6.76577">
        <ele>1323.8</ele>
        <time>2026-06-26T11:56:09Z</time>
      </trkpt>
      <trkpt lat="46.06598" lon="6.76577">
        <ele>1323.6</ele>
        <time>2026-06-26T11:56:10Z</time>
      </trkpt>
      <trkpt lat="46.06599" lon="6.76576">
        <ele>1323.4</ele>
        <time>2026-06-26T11:56:11Z</time>
      </trkpt>
      <trkpt lat="46.066" lon="6.76575">
        <ele>1323.2</ele>
        <time>2026-06-26T11:56:12Z</time>
      </trkpt>
      <trkpt lat="46.06601" lon="6.76573">
        <ele>1323</ele>
        <time>2026-06-26T11:56:13Z</time>
      </trkpt>
      <trkpt lat="46.06602" lon="6.76572">
        <ele>1322.8</ele>
        <time>2026-06-26T11:56:14Z</time>
      </trkpt>
      <trkpt lat="46.06603" lon="6.7657">
        <ele>1322.6</ele>
        <time>2026-06-26T11:56:15Z</time>
      </trkpt>
      <trkpt lat="46.06604" lon="6.76569">
        <ele>1322.4</ele>
        <time>2026-06-26T11:56:16Z</time>
      </trkpt>
      <trkpt lat="46.06605" lon="6.76567">
        <ele>1321.9</ele>
        <time>2026-06-26T11:56:17Z</time>
      </trkpt>
      <trkpt lat="46.06606" lon="6.76565">
        <ele>1321.8</ele>
        <time>2026-06-26T11:56:18Z</time>
      </trkpt>
      <trkpt lat="46.06607" lon="6.76563">
        <ele>1321.7</ele>
        <time>2026-06-26T11:56:19Z</time>
      </trkpt>
      <trkpt lat="46.06608" lon="6.76561">
        <ele>1321.6</ele>
        <time>2026-06-26T11:56:20Z</time>
      </trkpt>
      <trkpt lat="46.06608" lon="6.7656">
        <ele>1321.4</ele>
        <time>2026-06-26T11:56:21Z</time>
      </trkpt>
      <trkpt lat="46.06609" lon="6.76558">
        <ele>1321.3</ele>
        <time>2026-06-26T11:56:22Z</time>
      </trkpt>
      <trkpt lat="46.0661" lon="6.76556">
        <ele>1321.1</ele>
        <time>2026-06-26T11:56:23Z</time>
      </trkpt>
      <trkpt lat="46.06611" lon="6.76555">
        <ele>1321</ele>
        <time>2026-06-26T11:56:24Z</time>
      </trkpt>
      <trkpt lat="46.06612" lon="6.76554">
        <ele>1320.9</ele>
        <time>2026-06-26T11:56:25Z</time>
      </trkpt>
      <trkpt lat="46.06612" lon="6.76553">
        <ele>1320.7</ele>
        <time>2026-06-26T11:56:26Z</time>
      </trkpt>
      <trkpt lat="46.06613" lon="6.76552">
        <ele>1320.7</ele>
        <time>2026-06-26T11:56:27Z</time>
      </trkpt>
      <trkpt lat="46.06614" lon="6.76551">
        <ele>1320.5</ele>
        <time>2026-06-26T11:56:28Z</time>
      </trkpt>
      <trkpt lat="46.06615" lon="6.76551">
        <ele>1320.4</ele>
        <time>2026-06-26T11:56:29Z</time>
      </trkpt>
      <trkpt lat="46.06615" lon="6.76549">
        <ele>1320.4</ele>
        <time>2026-06-26T11:56:30Z</time>
      </trkpt>
      <trkpt lat="46.06616" lon="6.76548">
        <ele>1320</ele>
        <time>2026-06-26T11:56:31Z</time>
      </trkpt>
      <trkpt lat="46.06616" lon="6.76546">
        <ele>1319.8</ele>
        <time>2026-06-26T11:56:32Z</time>
      </trkpt>
      <trkpt lat="46.06616" lon="6.76545">
        <ele>1319.7</ele>
        <time>2026-06-26T11:56:33Z</time>
      </trkpt>
      <trkpt lat="46.06617" lon="6.76543">
        <ele>1319.5</ele>
        <time>2026-06-26T11:56:34Z</time>
      </trkpt>
      <trkpt lat="46.06617" lon="6.76541">
        <ele>1319.6</ele>
        <time>2026-06-26T11:56:35Z</time>
      </trkpt>
      <trkpt lat="46.06618" lon="6.7654">
        <ele>1319.2</ele>
        <time>2026-06-26T11:56:36Z</time>
      </trkpt>
      <trkpt lat="46.06619" lon="6.76539">
        <ele>1318.9</ele>
        <time>2026-06-26T11:56:37Z</time>
      </trkpt>
      <trkpt lat="46.06619" lon="6.76538">
        <ele>1318.7</ele>
        <time>2026-06-26T11:56:38Z</time>
      </trkpt>
      <trkpt lat="46.0662" lon="6.76537">
        <ele>1318.5</ele>
        <time>2026-06-26T11:56:39Z</time>
      </trkpt>
      <trkpt lat="46.0662" lon="6.76536">
        <ele>1318.4</ele>
        <time>2026-06-26T11:56:40Z</time>
      </trkpt>
      <trkpt lat="46.06622" lon="6.76534">
        <ele>1318.3</ele>
        <time>2026-06-26T11:56:41Z</time>
      </trkpt>
      <trkpt lat="46.06623" lon="6.76533">
        <ele>1318.1</ele>
        <time>2026-06-26T11:56:42Z</time>
      </trkpt>
      <trkpt lat="46.06624" lon="6.76531">
        <ele>1317.9</ele>
        <time>2026-06-26T11:56:43Z</time>
      </trkpt>
      <trkpt lat="46.06624" lon="6.7653">
        <ele>1317.7</ele>
        <time>2026-06-26T11:56:44Z</time>
      </trkpt>
      <trkpt lat="46.06625" lon="6.76529">
        <ele>1317.5</ele>
        <time>2026-06-26T11:56:45Z</time>
      </trkpt>
      <trkpt lat="46.06626" lon="6.76527">
        <ele>1317.2</ele>
        <time>2026-06-26T11:56:46Z</time>
      </trkpt>
      <trkpt lat="46.06627" lon="6.76526">
        <ele>1317</ele>
        <time>2026-06-26T11:56:47Z</time>
      </trkpt>
      <trkpt lat="46.06628" lon="6.76524">
        <ele>1316.8</ele>
        <time>2026-06-26T11:56:48Z</time>
      </trkpt>
      <trkpt lat="46.06629" lon="6.76523">
        <ele>1316.7</ele>
        <time>2026-06-26T11:56:49Z</time>
      </trkpt>
      <trkpt lat="46.0663" lon="6.76521">
        <ele>1316.5</ele>
        <time>2026-06-26T11:56:50Z</time>
      </trkpt>
      <trkpt lat="46.06631" lon="6.7652">
        <ele>1316.3</ele>
        <time>2026-06-26T11:56:51Z</time>
      </trkpt>
      <trkpt lat="46.06632" lon="6.76518">
        <ele>1316.2</ele>
        <time>2026-06-26T11:56:52Z</time>
      </trkpt>
      <trkpt lat="46.06633" lon="6.76517">
        <ele>1316</ele>
        <time>2026-06-26T11:56:53Z</time>
      </trkpt>
      <trkpt lat="46.06634" lon="6.76516">
        <ele>1315.7</ele>
        <time>2026-06-26T11:56:54Z</time>
      </trkpt>
      <trkpt lat="46.06635" lon="6.76514">
        <ele>1315.6</ele>
        <time>2026-06-26T11:56:55Z</time>
      </trkpt>
      <trkpt lat="46.06635" lon="6.76513">
        <ele>1315.3</ele>
        <time>2026-06-26T11:56:56Z</time>
      </trkpt>
      <trkpt lat="46.06636" lon="6.76511">
        <ele>1315.2</ele>
        <time>2026-06-26T11:56:57Z</time>
      </trkpt>
      <trkpt lat="46.06637" lon="6.7651">
        <ele>1314.7</ele>
        <time>2026-06-26T11:56:58Z</time>
      </trkpt>
      <trkpt lat="46.06637" lon="6.76509">
        <ele>1314.5</ele>
        <time>2026-06-26T11:56:59Z</time>
      </trkpt>
      <trkpt lat="46.06638" lon="6.76507">
        <ele>1314.6</ele>
        <time>2026-06-26T11:57:00Z</time>
      </trkpt>
      <trkpt lat="46.06638" lon="6.76506">
        <ele>1314.5</ele>
        <time>2026-06-26T11:57:01Z</time>
      </trkpt>
      <trkpt lat="46.06639" lon="6.76505">
        <ele>1314.3</ele>
        <time>2026-06-26T11:57:02Z</time>
      </trkpt>
      <trkpt lat="46.06639" lon="6.76503">
        <ele>1314</ele>
        <time>2026-06-26T11:57:03Z</time>
      </trkpt>
      <trkpt lat="46.0664" lon="6.76502">
        <ele>1313.7</ele>
        <time>2026-06-26T11:57:04Z</time>
      </trkpt>
      <trkpt lat="46.06641" lon="6.765">
        <ele>1313.4</ele>
        <time>2026-06-26T11:57:05Z</time>
      </trkpt>
      <trkpt lat="46.06641" lon="6.76499">
        <ele>1313.3</ele>
        <time>2026-06-26T11:57:06Z</time>
      </trkpt>
      <trkpt lat="46.06642" lon="6.76497">
        <ele>1313.1</ele>
        <time>2026-06-26T11:57:07Z</time>
      </trkpt>
      <trkpt lat="46.06643" lon="6.76495">
        <ele>1312.9</ele>
        <time>2026-06-26T11:57:08Z</time>
      </trkpt>
      <trkpt lat="46.06643" lon="6.76494">
        <ele>1312.7</ele>
        <time>2026-06-26T11:57:09Z</time>
      </trkpt>
      <trkpt lat="46.06644" lon="6.76493">
        <ele>1312.6</ele>
        <time>2026-06-26T11:57:10Z</time>
      </trkpt>
      <trkpt lat="46.06644" lon="6.76491">
        <ele>1312.4</ele>
        <time>2026-06-26T11:57:11Z</time>
      </trkpt>
      <trkpt lat="46.06645" lon="6.7649">
        <ele>1312.3</ele>
        <time>2026-06-26T11:57:12Z</time>
      </trkpt>
      <trkpt lat="46.06646" lon="6.76488">
        <ele>1312.2</ele>
        <time>2026-06-26T11:57:13Z</time>
      </trkpt>
      <trkpt lat="46.06647" lon="6.76486">
        <ele>1312</ele>
        <time>2026-06-26T11:57:14Z</time>
      </trkpt>
      <trkpt lat="46.06647" lon="6.76484">
        <ele>1311.7</ele>
        <time>2026-06-26T11:57:15Z</time>
      </trkpt>
      <trkpt lat="46.06648" lon="6.76482">
        <ele>1311.5</ele>
        <time>2026-06-26T11:57:16Z</time>
      </trkpt>
      <trkpt lat="46.06648" lon="6.7648">
        <ele>1311.3</ele>
        <time>2026-06-26T11:57:17Z</time>
      </trkpt>
      <trkpt lat="46.06649" lon="6.76478">
        <ele>1311.1</ele>
        <time>2026-06-26T11:57:18Z</time>
      </trkpt>
      <trkpt lat="46.06649" lon="6.76477">
        <ele>1311</ele>
        <time>2026-06-26T11:57:19Z</time>
      </trkpt>
      <trkpt lat="46.0665" lon="6.76476">
        <ele>1310.8</ele>
        <time>2026-06-26T11:57:20Z</time>
      </trkpt>
      <trkpt lat="46.0665" lon="6.76474">
        <ele>1311.1</ele>
        <time>2026-06-26T11:57:21Z</time>
      </trkpt>
      <trkpt lat="46.06651" lon="6.76473">
        <ele>1310.8</ele>
        <time>2026-06-26T11:57:22Z</time>
      </trkpt>
      <trkpt lat="46.06651" lon="6.76471">
        <ele>1310.5</ele>
        <time>2026-06-26T11:57:23Z</time>
      </trkpt>
      <trkpt lat="46.06652" lon="6.7647">
        <ele>1310.3</ele>
        <time>2026-06-26T11:57:24Z</time>
      </trkpt>
      <trkpt lat="46.06653" lon="6.76469">
        <ele>1310.1</ele>
        <time>2026-06-26T11:57:25Z</time>
      </trkpt>
      <trkpt lat="46.06653" lon="6.76467">
        <ele>1309.9</ele>
        <time>2026-06-26T11:57:26Z</time>
      </trkpt>
      <trkpt lat="46.06654" lon="6.76465">
        <ele>1309.7</ele>
        <time>2026-06-26T11:57:27Z</time>
      </trkpt>
      <trkpt lat="46.06655" lon="6.76463">
        <ele>1309.5</ele>
        <time>2026-06-26T11:57:28Z</time>
      </trkpt>
      <trkpt lat="46.06656" lon="6.76461">
        <ele>1309.1</ele>
        <time>2026-06-26T11:57:29Z</time>
      </trkpt>
      <trkpt lat="46.06656" lon="6.7646">
        <ele>1308.9</ele>
        <time>2026-06-26T11:57:30Z</time>
      </trkpt>
      <trkpt lat="46.06657" lon="6.76459">
        <ele>1308.6</ele>
        <time>2026-06-26T11:57:31Z</time>
      </trkpt>
      <trkpt lat="46.06657" lon="6.76457">
        <ele>1308.4</ele>
        <time>2026-06-26T11:57:32Z</time>
      </trkpt>
      <trkpt lat="46.06658" lon="6.76455">
        <ele>1308.2</ele>
        <time>2026-06-26T11:57:33Z</time>
      </trkpt>
      <trkpt lat="46.06658" lon="6.76453">
        <ele>1308.1</ele>
        <time>2026-06-26T11:57:34Z</time>
      </trkpt>
      <trkpt lat="46.06659" lon="6.76452">
        <ele>1307.8</ele>
        <time>2026-06-26T11:57:35Z</time>
      </trkpt>
      <trkpt lat="46.0666" lon="6.76451">
        <ele>1307.2</ele>
        <time>2026-06-26T11:57:36Z</time>
      </trkpt>
      <trkpt lat="46.06661" lon="6.76449">
        <ele>1307.1</ele>
        <time>2026-06-26T11:57:37Z</time>
      </trkpt>
      <trkpt lat="46.06661" lon="6.76448">
        <ele>1307</ele>
        <time>2026-06-26T11:57:38Z</time>
      </trkpt>
      <trkpt lat="46.06662" lon="6.76447">
        <ele>1307</ele>
        <time>2026-06-26T11:57:39Z</time>
      </trkpt>
      <trkpt lat="46.06663" lon="6.76445">
        <ele>1306.9</ele>
        <time>2026-06-26T11:57:40Z</time>
      </trkpt>
      <trkpt lat="46.06664" lon="6.76444">
        <ele>1306.7</ele>
        <time>2026-06-26T11:57:41Z</time>
      </trkpt>
      <trkpt lat="46.06664" lon="6.76443">
        <ele>1306.5</ele>
        <time>2026-06-26T11:57:42Z</time>
      </trkpt>
      <trkpt lat="46.06665" lon="6.76441">
        <ele>1306.3</ele>
        <time>2026-06-26T11:57:43Z</time>
      </trkpt>
      <trkpt lat="46.06666" lon="6.7644">
        <ele>1306.2</ele>
        <time>2026-06-26T11:57:44Z</time>
      </trkpt>
      <trkpt lat="46.06667" lon="6.76439">
        <ele>1306</ele>
        <time>2026-06-26T11:57:45Z</time>
      </trkpt>
      <trkpt lat="46.06667" lon="6.76438">
        <ele>1305.9</ele>
        <time>2026-06-26T11:57:46Z</time>
      </trkpt>
      <trkpt lat="46.06668" lon="6.76437">
        <ele>1305.7</ele>
        <time>2026-06-26T11:57:47Z</time>
      </trkpt>
      <trkpt lat="46.06669" lon="6.76435">
        <ele>1305.5</ele>
        <time>2026-06-26T11:57:48Z</time>
      </trkpt>
      <trkpt lat="46.06669" lon="6.76433">
        <ele>1305.4</ele>
        <time>2026-06-26T11:57:49Z</time>
      </trkpt>
      <trkpt lat="46.0667" lon="6.76432">
        <ele>1305.1</ele>
        <time>2026-06-26T11:57:50Z</time>
      </trkpt>
      <trkpt lat="46.06671" lon="6.76431">
        <ele>1305</ele>
        <time>2026-06-26T11:57:51Z</time>
      </trkpt>
      <trkpt lat="46.06671" lon="6.7643">
        <ele>1304.9</ele>
        <time>2026-06-26T11:57:52Z</time>
      </trkpt>
      <trkpt lat="46.06672" lon="6.76428">
        <ele>1304.8</ele>
        <time>2026-06-26T11:57:53Z</time>
      </trkpt>
      <trkpt lat="46.06673" lon="6.76427">
        <ele>1304.8</ele>
        <time>2026-06-26T11:57:54Z</time>
      </trkpt>
      <trkpt lat="46.06673" lon="6.76425">
        <ele>1304.7</ele>
        <time>2026-06-26T11:57:55Z</time>
      </trkpt>
      <trkpt lat="46.06675" lon="6.76424">
        <ele>1304.6</ele>
        <time>2026-06-26T11:57:56Z</time>
      </trkpt>
      <trkpt lat="46.06675" lon="6.76423">
        <ele>1304.5</ele>
        <time>2026-06-26T11:57:57Z</time>
      </trkpt>
      <trkpt lat="46.06676" lon="6.76421">
        <ele>1304.2</ele>
        <time>2026-06-26T11:57:58Z</time>
      </trkpt>
      <trkpt lat="46.06677" lon="6.76419">
        <ele>1304.5</ele>
        <time>2026-06-26T11:57:59Z</time>
      </trkpt>
      <trkpt lat="46.06678" lon="6.76418">
        <ele>1304.2</ele>
        <time>2026-06-26T11:58:00Z</time>
      </trkpt>
      <trkpt lat="46.06678" lon="6.76417">
        <ele>1303.7</ele>
        <time>2026-06-26T11:58:01Z</time>
      </trkpt>
      <trkpt lat="46.06679" lon="6.76415">
        <ele>1303.4</ele>
        <time>2026-06-26T11:58:02Z</time>
      </trkpt>
      <trkpt lat="46.0668" lon="6.76414">
        <ele>1303.2</ele>
        <time>2026-06-26T11:58:03Z</time>
      </trkpt>
      <trkpt lat="46.0668" lon="6.76412">
        <ele>1303</ele>
        <time>2026-06-26T11:58:04Z</time>
      </trkpt>
      <trkpt lat="46.06681" lon="6.76411">
        <ele>1302.8</ele>
        <time>2026-06-26T11:58:05Z</time>
      </trkpt>
      <trkpt lat="46.06682" lon="6.76409">
        <ele>1302.5</ele>
        <time>2026-06-26T11:58:06Z</time>
      </trkpt>
      <trkpt lat="46.06682" lon="6.76407">
        <ele>1302.2</ele>
        <time>2026-06-26T11:58:07Z</time>
      </trkpt>
      <trkpt lat="46.06682" lon="6.76406">
        <ele>1302</ele>
        <time>2026-06-26T11:58:08Z</time>
      </trkpt>
      <trkpt lat="46.06682" lon="6.76404">
        <ele>1301.6</ele>
        <time>2026-06-26T11:58:09Z</time>
      </trkpt>
      <trkpt lat="46.06683" lon="6.76403">
        <ele>1301.5</ele>
        <time>2026-06-26T11:58:10Z</time>
      </trkpt>
      <trkpt lat="46.06683" lon="6.76401">
        <ele>1300.9</ele>
        <time>2026-06-26T11:58:11Z</time>
      </trkpt>
      <trkpt lat="46.06684" lon="6.764">
        <ele>1300.8</ele>
        <time>2026-06-26T11:58:12Z</time>
      </trkpt>
      <trkpt lat="46.06684" lon="6.76399">
        <ele>1300.8</ele>
        <time>2026-06-26T11:58:13Z</time>
      </trkpt>
      <trkpt lat="46.06685" lon="6.76398">
        <ele>1300.7</ele>
        <time>2026-06-26T11:58:14Z</time>
      </trkpt>
      <trkpt lat="46.06685" lon="6.76396">
        <ele>1300.5</ele>
        <time>2026-06-26T11:58:15Z</time>
      </trkpt>
      <trkpt lat="46.06686" lon="6.76394">
        <ele>1300.3</ele>
        <time>2026-06-26T11:58:16Z</time>
      </trkpt>
      <trkpt lat="46.06686" lon="6.76393">
        <ele>1300.1</ele>
        <time>2026-06-26T11:58:17Z</time>
      </trkpt>
      <trkpt lat="46.06687" lon="6.76392">
        <ele>1300</ele>
        <time>2026-06-26T11:58:18Z</time>
      </trkpt>
      <trkpt lat="46.06688" lon="6.76391">
        <ele>1299.8</ele>
        <time>2026-06-26T11:58:19Z</time>
      </trkpt>
      <trkpt lat="46.06688" lon="6.76389">
        <ele>1299.6</ele>
        <time>2026-06-26T11:58:20Z</time>
      </trkpt>
      <trkpt lat="46.06689" lon="6.76387">
        <ele>1299.5</ele>
        <time>2026-06-26T11:58:21Z</time>
      </trkpt>
      <trkpt lat="46.0669" lon="6.76386">
        <ele>1299.3</ele>
        <time>2026-06-26T11:58:22Z</time>
      </trkpt>
      <trkpt lat="46.0669" lon="6.76384">
        <ele>1299</ele>
        <time>2026-06-26T11:58:23Z</time>
      </trkpt>
      <trkpt lat="46.06691" lon="6.76383">
        <ele>1298.7</ele>
        <time>2026-06-26T11:58:24Z</time>
      </trkpt>
      <trkpt lat="46.06692" lon="6.76381">
        <ele>1298.6</ele>
        <time>2026-06-26T11:58:25Z</time>
      </trkpt>
      <trkpt lat="46.06692" lon="6.7638">
        <ele>1298.5</ele>
        <time>2026-06-26T11:58:26Z</time>
      </trkpt>
      <trkpt lat="46.06693" lon="6.76378">
        <ele>1298.5</ele>
        <time>2026-06-26T11:58:27Z</time>
      </trkpt>
      <trkpt lat="46.06693" lon="6.76376">
        <ele>1298.2</ele>
        <time>2026-06-26T11:58:28Z</time>
      </trkpt>
      <trkpt lat="46.06693" lon="6.76375">
        <ele>1298.1</ele>
        <time>2026-06-26T11:58:29Z</time>
      </trkpt>
      <trkpt lat="46.06694" lon="6.76373">
        <ele>1298</ele>
        <time>2026-06-26T11:58:30Z</time>
      </trkpt>
      <trkpt lat="46.06694" lon="6.76371">
        <ele>1297.7</ele>
        <time>2026-06-26T11:58:31Z</time>
      </trkpt>
      <trkpt lat="46.06694" lon="6.7637">
        <ele>1297.4</ele>
        <time>2026-06-26T11:58:32Z</time>
      </trkpt>
      <trkpt lat="46.06695" lon="6.76368">
        <ele>1297.2</ele>
        <time>2026-06-26T11:58:33Z</time>
      </trkpt>
      <trkpt lat="46.06695" lon="6.76367">
        <ele>1296.9</ele>
        <time>2026-06-26T11:58:34Z</time>
      </trkpt>
      <trkpt lat="46.06695" lon="6.76366">
        <ele>1296.7</ele>
        <time>2026-06-26T11:58:35Z</time>
      </trkpt>
      <trkpt lat="46.06695" lon="6.76364">
        <ele>1296.5</ele>
        <time>2026-06-26T11:58:36Z</time>
      </trkpt>
      <trkpt lat="46.06695" lon="6.76363">
        <ele>1296.3</ele>
        <time>2026-06-26T11:58:37Z</time>
      </trkpt>
      <trkpt lat="46.06695" lon="6.76361">
        <ele>1296.1</ele>
        <time>2026-06-26T11:58:38Z</time>
      </trkpt>
      <trkpt lat="46.06696" lon="6.76359">
        <ele>1296</ele>
        <time>2026-06-26T11:58:39Z</time>
      </trkpt>
      <trkpt lat="46.06696" lon="6.76357">
        <ele>1295.9</ele>
        <time>2026-06-26T11:58:40Z</time>
      </trkpt>
      <trkpt lat="46.06696" lon="6.76354">
        <ele>1295.8</ele>
        <time>2026-06-26T11:58:41Z</time>
      </trkpt>
      <trkpt lat="46.06696" lon="6.76353">
        <ele>1295.5</ele>
        <time>2026-06-26T11:58:42Z</time>
      </trkpt>
      <trkpt lat="46.06697" lon="6.76351">
        <ele>1295.3</ele>
        <time>2026-06-26T11:58:43Z</time>
      </trkpt>
      <trkpt lat="46.06697" lon="6.76349">
        <ele>1295.2</ele>
        <time>2026-06-26T11:58:44Z</time>
      </trkpt>
      <trkpt lat="46.06697" lon="6.76348">
        <ele>1295.2</ele>
        <time>2026-06-26T11:58:45Z</time>
      </trkpt>
      <trkpt lat="46.06697" lon="6.76346">
        <ele>1295.1</ele>
        <time>2026-06-26T11:58:46Z</time>
      </trkpt>
      <trkpt lat="46.06698" lon="6.76345">
        <ele>1294.6</ele>
        <time>2026-06-26T11:58:47Z</time>
      </trkpt>
      <trkpt lat="46.06698" lon="6.76343">
        <ele>1294.5</ele>
        <time>2026-06-26T11:58:48Z</time>
      </trkpt>
      <trkpt lat="46.06699" lon="6.76342">
        <ele>1294.3</ele>
        <time>2026-06-26T11:58:49Z</time>
      </trkpt>
      <trkpt lat="46.06699" lon="6.7634">
        <ele>1294.2</ele>
        <time>2026-06-26T11:58:50Z</time>
      </trkpt>
      <trkpt lat="46.067" lon="6.76339">
        <ele>1294.1</ele>
        <time>2026-06-26T11:58:51Z</time>
      </trkpt>
      <trkpt lat="46.067" lon="6.76337">
        <ele>1293.9</ele>
        <time>2026-06-26T11:58:52Z</time>
      </trkpt>
      <trkpt lat="46.067" lon="6.76335">
        <ele>1293.8</ele>
        <time>2026-06-26T11:58:53Z</time>
      </trkpt>
      <trkpt lat="46.067" lon="6.76334">
        <ele>1293.7</ele>
        <time>2026-06-26T11:58:54Z</time>
      </trkpt>
      <trkpt lat="46.06701" lon="6.76333">
        <ele>1293.5</ele>
        <time>2026-06-26T11:58:55Z</time>
      </trkpt>
      <trkpt lat="46.06701" lon="6.76332">
        <ele>1293.4</ele>
        <time>2026-06-26T11:58:56Z</time>
      </trkpt>
      <trkpt lat="46.06702" lon="6.76331">
        <ele>1293.3</ele>
        <time>2026-06-26T11:58:57Z</time>
      </trkpt>
      <trkpt lat="46.06702" lon="6.76329">
        <ele>1293.1</ele>
        <time>2026-06-26T11:58:58Z</time>
      </trkpt>
      <trkpt lat="46.06703" lon="6.76328">
        <ele>1293</ele>
        <time>2026-06-26T11:58:59Z</time>
      </trkpt>
      <trkpt lat="46.06703" lon="6.76326">
        <ele>1292.8</ele>
        <time>2026-06-26T11:59:00Z</time>
      </trkpt>
      <trkpt lat="46.06704" lon="6.76324">
        <ele>1292.6</ele>
        <time>2026-06-26T11:59:01Z</time>
      </trkpt>
      <trkpt lat="46.06705" lon="6.76323">
        <ele>1292.4</ele>
        <time>2026-06-26T11:59:02Z</time>
      </trkpt>
      <trkpt lat="46.06705" lon="6.76322">
        <ele>1292.2</ele>
        <time>2026-06-26T11:59:03Z</time>
      </trkpt>
      <trkpt lat="46.06706" lon="6.7632">
        <ele>1292</ele>
        <time>2026-06-26T11:59:04Z</time>
      </trkpt>
      <trkpt lat="46.06707" lon="6.76318">
        <ele>1291.8</ele>
        <time>2026-06-26T11:59:05Z</time>
      </trkpt>
      <trkpt lat="46.06708" lon="6.76317">
        <ele>1291.5</ele>
        <time>2026-06-26T11:59:06Z</time>
      </trkpt>
      <trkpt lat="46.06709" lon="6.76315">
        <ele>1291.3</ele>
        <time>2026-06-26T11:59:07Z</time>
      </trkpt>
      <trkpt lat="46.06709" lon="6.76314">
        <ele>1291</ele>
        <time>2026-06-26T11:59:08Z</time>
      </trkpt>
      <trkpt lat="46.06709" lon="6.76312">
        <ele>1290.8</ele>
        <time>2026-06-26T11:59:09Z</time>
      </trkpt>
      <trkpt lat="46.0671" lon="6.7631">
        <ele>1290.7</ele>
        <time>2026-06-26T11:59:10Z</time>
      </trkpt>
      <trkpt lat="46.0671" lon="6.76309">
        <ele>1290.4</ele>
        <time>2026-06-26T11:59:11Z</time>
      </trkpt>
      <trkpt lat="46.0671" lon="6.76306">
        <ele>1290.2</ele>
        <time>2026-06-26T11:59:12Z</time>
      </trkpt>
      <trkpt lat="46.0671" lon="6.76304">
        <ele>1290</ele>
        <time>2026-06-26T11:59:13Z</time>
      </trkpt>
      <trkpt lat="46.0671" lon="6.76303">
        <ele>1289.9</ele>
        <time>2026-06-26T11:59:14Z</time>
      </trkpt>
      <trkpt lat="46.0671" lon="6.76301">
        <ele>1289.7</ele>
        <time>2026-06-26T11:59:15Z</time>
      </trkpt>
      <trkpt lat="46.0671" lon="6.76299">
        <ele>1289.6</ele>
        <time>2026-06-26T11:59:16Z</time>
      </trkpt>
      <trkpt lat="46.0671" lon="6.76298">
        <ele>1289.4</ele>
        <time>2026-06-26T11:59:17Z</time>
      </trkpt>
      <trkpt lat="46.06711" lon="6.76296">
        <ele>1289.3</ele>
        <time>2026-06-26T11:59:18Z</time>
      </trkpt>
      <trkpt lat="46.06712" lon="6.76295">
        <ele>1289.1</ele>
        <time>2026-06-26T11:59:19Z</time>
      </trkpt>
      <trkpt lat="46.06712" lon="6.76293">
        <ele>1288.9</ele>
        <time>2026-06-26T11:59:20Z</time>
      </trkpt>
      <trkpt lat="46.06712" lon="6.76291">
        <ele>1288.7</ele>
        <time>2026-06-26T11:59:21Z</time>
      </trkpt>
      <trkpt lat="46.06712" lon="6.76289">
        <ele>1288.5</ele>
        <time>2026-06-26T11:59:22Z</time>
      </trkpt>
      <trkpt lat="46.06713" lon="6.76288">
        <ele>1288.2</ele>
        <time>2026-06-26T11:59:23Z</time>
      </trkpt>
      <trkpt lat="46.06712" lon="6.76286">
        <ele>1287.9</ele>
        <time>2026-06-26T11:59:24Z</time>
      </trkpt>
      <trkpt lat="46.06712" lon="6.76284">
        <ele>1287.6</ele>
        <time>2026-06-26T11:59:25Z</time>
      </trkpt>
      <trkpt lat="46.06712" lon="6.76283">
        <ele>1287.3</ele>
        <time>2026-06-26T11:59:26Z</time>
      </trkpt>
      <trkpt lat="46.06712" lon="6.76281">
        <ele>1287.1</ele>
        <time>2026-06-26T11:59:27Z</time>
      </trkpt>
      <trkpt lat="46.06713" lon="6.7628">
        <ele>1287</ele>
        <time>2026-06-26T11:59:28Z</time>
      </trkpt>
      <trkpt lat="46.06714" lon="6.76278">
        <ele>1286.7</ele>
        <time>2026-06-26T11:59:29Z</time>
      </trkpt>
      <trkpt lat="46.06714" lon="6.76276">
        <ele>1286.5</ele>
        <time>2026-06-26T11:59:30Z</time>
      </trkpt>
      <trkpt lat="46.06714" lon="6.76275">
        <ele>1286.3</ele>
        <time>2026-06-26T11:59:31Z</time>
      </trkpt>
      <trkpt lat="46.06715" lon="6.76274">
        <ele>1286</ele>
        <time>2026-06-26T11:59:32Z</time>
      </trkpt>
      <trkpt lat="46.06715" lon="6.76273">
        <ele>1285.9</ele>
        <time>2026-06-26T11:59:33Z</time>
      </trkpt>
      <trkpt lat="46.06715" lon="6.76272">
        <ele>1285.7</ele>
        <time>2026-06-26T11:59:34Z</time>
      </trkpt>
      <trkpt lat="46.06715" lon="6.76271">
        <ele>1285.5</ele>
        <time>2026-06-26T11:59:35Z</time>
      </trkpt>
      <trkpt lat="46.06715" lon="6.76269">
        <ele>1285.4</ele>
        <time>2026-06-26T11:59:36Z</time>
      </trkpt>
      <trkpt lat="46.06715" lon="6.76267">
        <ele>1285.1</ele>
        <time>2026-06-26T11:59:37Z</time>
      </trkpt>
      <trkpt lat="46.06715" lon="6.76265">
        <ele>1284.9</ele>
        <time>2026-06-26T11:59:38Z</time>
      </trkpt>
      <trkpt lat="46.06715" lon="6.76263">
        <ele>1284.8</ele>
        <time>2026-06-26T11:59:39Z</time>
      </trkpt>
      <trkpt lat="46.06715" lon="6.76261">
        <ele>1284.6</ele>
        <time>2026-06-26T11:59:40Z</time>
      </trkpt>
      <trkpt lat="46.06715" lon="6.76259">
        <ele>1284.4</ele>
        <time>2026-06-26T11:59:41Z</time>
      </trkpt>
      <trkpt lat="46.06715" lon="6.76257">
        <ele>1284.3</ele>
        <time>2026-06-26T11:59:42Z</time>
      </trkpt>
      <trkpt lat="46.06716" lon="6.76255">
        <ele>1284.2</ele>
        <time>2026-06-26T11:59:43Z</time>
      </trkpt>
      <trkpt lat="46.06716" lon="6.76253">
        <ele>1284</ele>
        <time>2026-06-26T11:59:44Z</time>
      </trkpt>
      <trkpt lat="46.06716" lon="6.76251">
        <ele>1283.8</ele>
        <time>2026-06-26T11:59:45Z</time>
      </trkpt>
      <trkpt lat="46.06716" lon="6.7625">
        <ele>1283.6</ele>
        <time>2026-06-26T11:59:46Z</time>
      </trkpt>
      <trkpt lat="46.06717" lon="6.76249">
        <ele>1283.5</ele>
        <time>2026-06-26T11:59:47Z</time>
      </trkpt>
      <trkpt lat="46.06717" lon="6.76247">
        <ele>1283.2</ele>
        <time>2026-06-26T11:59:48Z</time>
      </trkpt>
      <trkpt lat="46.06718" lon="6.76246">
        <ele>1283.1</ele>
        <time>2026-06-26T11:59:49Z</time>
      </trkpt>
      <trkpt lat="46.06718" lon="6.76244">
        <ele>1282.8</ele>
        <time>2026-06-26T11:59:50Z</time>
      </trkpt>
      <trkpt lat="46.06718" lon="6.76242">
        <ele>1282.5</ele>
        <time>2026-06-26T11:59:51Z</time>
      </trkpt>
      <trkpt lat="46.06718" lon="6.76241">
        <ele>1282.4</ele>
        <time>2026-06-26T11:59:52Z</time>
      </trkpt>
      <trkpt lat="46.06718" lon="6.76239">
        <ele>1282.1</ele>
        <time>2026-06-26T11:59:53Z</time>
      </trkpt>
      <trkpt lat="46.06719" lon="6.76237">
        <ele>1281.9</ele>
        <time>2026-06-26T11:59:54Z</time>
      </trkpt>
      <trkpt lat="46.06719" lon="6.76235">
        <ele>1281.7</ele>
        <time>2026-06-26T11:59:55Z</time>
      </trkpt>
      <trkpt lat="46.06719" lon="6.76234">
        <ele>1281.5</ele>
        <time>2026-06-26T11:59:56Z</time>
      </trkpt>
      <trkpt lat="46.06719" lon="6.76233">
        <ele>1281.4</ele>
        <time>2026-06-26T11:59:57Z</time>
      </trkpt>
      <trkpt lat="46.0672" lon="6.76232">
        <ele>1281.2</ele>
        <time>2026-06-26T11:59:58Z</time>
      </trkpt>
      <trkpt lat="46.06721" lon="6.76231">
        <ele>1281.1</ele>
        <time>2026-06-26T11:59:59Z</time>
      </trkpt>
      <trkpt lat="46.06722" lon="6.76231">
        <ele>1280.8</ele>
        <time>2026-06-26T12:00:00Z</time>
      </trkpt>
      <trkpt lat="46.06722" lon="6.76231">
        <ele>1280.6</ele>
        <time>2026-06-26T12:00:01Z</time>
      </trkpt>
      <trkpt lat="46.06723" lon="6.76231">
        <ele>1280.4</ele>
        <time>2026-06-26T12:00:02Z</time>
      </trkpt>
      <trkpt lat="46.06722" lon="6.7623">
        <ele>1280.2</ele>
        <time>2026-06-26T12:00:03Z</time>
      </trkpt>
      <trkpt lat="46.06724" lon="6.7623">
        <ele>1280.2</ele>
        <time>2026-06-26T12:00:04Z</time>
      </trkpt>
      <trkpt lat="46.06724" lon="6.7623">
        <ele>1280.1</ele>
        <time>2026-06-26T12:00:05Z</time>
      </trkpt>
      <trkpt lat="46.06724" lon="6.76229">
        <ele>1280</ele>
        <time>2026-06-26T12:00:06Z</time>
      </trkpt>
      <trkpt lat="46.06724" lon="6.76228">
        <ele>1279.9</ele>
        <time>2026-06-26T12:00:07Z</time>
      </trkpt>
      <trkpt lat="46.06725" lon="6.76227">
        <ele>1279.8</ele>
        <time>2026-06-26T12:00:08Z</time>
      </trkpt>
      <trkpt lat="46.06725" lon="6.76227">
        <ele>1279.7</ele>
        <time>2026-06-26T12:00:09Z</time>
      </trkpt>
      <trkpt lat="46.06725" lon="6.76226">
        <ele>1279.7</ele>
        <time>2026-06-26T12:00:10Z</time>
      </trkpt>
      <trkpt lat="46.06726" lon="6.76224">
        <ele>1279.7</ele>
        <time>2026-06-26T12:00:11Z</time>
      </trkpt>
      <trkpt lat="46.06726" lon="6.76223">
        <ele>1279.7</ele>
        <time>2026-06-26T12:00:12Z</time>
      </trkpt>
      <trkpt lat="46.06726" lon="6.76222">
        <ele>1279.7</ele>
        <time>2026-06-26T12:00:13Z</time>
      </trkpt>
      <trkpt lat="46.06727" lon="6.76221">
        <ele>1279.6</ele>
        <time>2026-06-26T12:00:14Z</time>
      </trkpt>
      <trkpt lat="46.06727" lon="6.76219">
        <ele>1279.5</ele>
        <time>2026-06-26T12:00:15Z</time>
      </trkpt>
      <trkpt lat="46.06727" lon="6.76217">
        <ele>1279.5</ele>
        <time>2026-06-26T12:00:16Z</time>
      </trkpt>
      <trkpt lat="46.06726" lon="6.76215">
        <ele>1279.5</ele>
        <time>2026-06-26T12:00:17Z</time>
      </trkpt>
      <trkpt lat="46.06726" lon="6.76213">
        <ele>1279.4</ele>
        <time>2026-06-26T12:00:18Z</time>
      </trkpt>
      <trkpt lat="46.06727" lon="6.76212">
        <ele>1279.3</ele>
        <time>2026-06-26T12:00:19Z</time>
      </trkpt>
      <trkpt lat="46.06727" lon="6.76211">
        <ele>1279.1</ele>
        <time>2026-06-26T12:00:20Z</time>
      </trkpt>
      <trkpt lat="46.06727" lon="6.76209">
        <ele>1279.2</ele>
        <time>2026-06-26T12:00:21Z</time>
      </trkpt>
      <trkpt lat="46.06726" lon="6.76208">
        <ele>1279.1</ele>
        <time>2026-06-26T12:00:22Z</time>
      </trkpt>
      <trkpt lat="46.06725" lon="6.76206">
        <ele>1278.8</ele>
        <time>2026-06-26T12:00:23Z</time>
      </trkpt>
      <trkpt lat="46.06724" lon="6.76204">
        <ele>1278.6</ele>
        <time>2026-06-26T12:00:24Z</time>
      </trkpt>
      <trkpt lat="46.06724" lon="6.76204">
        <ele>1278.4</ele>
        <time>2026-06-26T12:00:25Z</time>
      </trkpt>
      <trkpt lat="46.06723" lon="6.76202">
        <ele>1278.1</ele>
        <time>2026-06-26T12:00:26Z</time>
      </trkpt>
      <trkpt lat="46.06723" lon="6.76201">
        <ele>1277.9</ele>
        <time>2026-06-26T12:00:27Z</time>
      </trkpt>
      <trkpt lat="46.06723" lon="6.762">
        <ele>1277.7</ele>
        <time>2026-06-26T12:00:28Z</time>
      </trkpt>
      <trkpt lat="46.06723" lon="6.76199">
        <ele>1277.6</ele>
        <time>2026-06-26T12:00:29Z</time>
      </trkpt>
      <trkpt lat="46.06723" lon="6.76198">
        <ele>1277.4</ele>
        <time>2026-06-26T12:00:30Z</time>
      </trkpt>
      <trkpt lat="46.06723" lon="6.76198">
        <ele>1277.4</ele>
        <time>2026-06-26T12:00:31Z</time>
      </trkpt>
      <trkpt lat="46.06723" lon="6.76197">
        <ele>1277.3</ele>
        <time>2026-06-26T12:00:32Z</time>
      </trkpt>
      <trkpt lat="46.06723" lon="6.76197">
        <ele>1277.3</ele>
        <time>2026-06-26T12:00:33Z</time>
      </trkpt>
      <trkpt lat="46.06723" lon="6.76196">
        <ele>1277.2</ele>
        <time>2026-06-26T12:00:34Z</time>
      </trkpt>
      <trkpt lat="46.06724" lon="6.76196">
        <ele>1277.1</ele>
        <time>2026-06-26T12:00:35Z</time>
      </trkpt>
      <trkpt lat="46.06724" lon="6.76195">
        <ele>1277.1</ele>
        <time>2026-06-26T12:00:36Z</time>
      </trkpt>
      <trkpt lat="46.06723" lon="6.76195">
        <ele>1277.1</ele>
        <time>2026-06-26T12:00:37Z</time>
      </trkpt>
      <trkpt lat="46.06723" lon="6.76194">
        <ele>1277.1</ele>
        <time>2026-06-26T12:00:38Z</time>
      </trkpt>
      <trkpt lat="46.06723" lon="6.76194">
        <ele>1277.1</ele>
        <time>2026-06-26T12:00:39Z</time>
      </trkpt>
      <trkpt lat="46.06723" lon="6.76193">
        <ele>1277</ele>
        <time>2026-06-26T12:00:40Z</time>
      </trkpt>
      <trkpt lat="46.06723" lon="6.76193">
        <ele>1276.9</ele>
        <time>2026-06-26T12:00:41Z</time>
      </trkpt>
      <trkpt lat="46.06723" lon="6.76193">
        <ele>1276.8</ele>
        <time>2026-06-26T12:00:42Z</time>
      </trkpt>
      <trkpt lat="46.06723" lon="6.76193">
        <ele>1276.8</ele>
        <time>2026-06-26T12:00:43Z</time>
      </trkpt>
      <trkpt lat="46.06723" lon="6.76193">
        <ele>1276.7</ele>
        <time>2026-06-26T12:00:44Z</time>
      </trkpt>
      <trkpt lat="46.06723" lon="6.76193">
        <ele>1276.6</ele>
        <time>2026-06-26T12:00:45Z</time>
      </trkpt>
      <trkpt lat="46.06723" lon="6.76193">
        <ele>1276.6</ele>
        <time>2026-06-26T12:00:46Z</time>
      </trkpt>
      <trkpt lat="46.06723" lon="6.76193">
        <ele>1276.6</ele>
        <time>2026-06-26T12:00:47Z</time>
      </trkpt>
      <trkpt lat="46.06724" lon="6.76193">
        <ele>1276.6</ele>
        <time>2026-06-26T12:00:48Z</time>
      </trkpt>
      <trkpt lat="46.06723" lon="6.76193">
        <ele>1276.6</ele>
        <time>2026-06-26T12:00:49Z</time>
      </trkpt>
      <trkpt lat="46.06724" lon="6.76193">
        <ele>1276.5</ele>
        <time>2026-06-26T12:00:50Z</time>
      </trkpt>
      <trkpt lat="46.06724" lon="6.76193">
        <ele>1276.5</ele>
        <time>2026-06-26T12:00:51Z</time>
      </trkpt>
      <trkpt lat="46.06724" lon="6.76193">
        <ele>1276.6</ele>
        <time>2026-06-26T12:00:52Z</time>
      </trkpt>
      <trkpt lat="46.06723" lon="6.76192">
        <ele>1276.6</ele>
        <time>2026-06-26T12:00:53Z</time>
      </trkpt>
      <trkpt lat="46.06723" lon="6.76192">
        <ele>1276.6</ele>
        <time>2026-06-26T12:00:54Z</time>
      </trkpt>
      <trkpt lat="46.06723" lon="6.76192">
        <ele>1276.6</ele>
        <time>2026-06-26T12:00:55Z</time>
      </trkpt>
      <trkpt lat="46.06723" lon="6.76192">
        <ele>1276.6</ele>
        <time>2026-06-26T12:00:56Z</time>
      </trkpt>
      <trkpt lat="46.06723" lon="6.76191">
        <ele>1276.6</ele>
        <time>2026-06-26T12:00:57Z</time>
      </trkpt>
      <trkpt lat="46.06722" lon="6.76191">
        <ele>1276.6</ele>
        <time>2026-06-26T12:00:58Z</time>
      </trkpt>
      <trkpt lat="46.06722" lon="6.76191">
        <ele>1276.6</ele>
        <time>2026-06-26T12:00:59Z</time>
      </trkpt>
      <trkpt lat="46.06722" lon="6.76191">
        <ele>1276.6</ele>
        <time>2026-06-26T12:01:00Z</time>
      </trkpt>
      <trkpt lat="46.06722" lon="6.76191">
        <ele>1276.7</ele>
        <time>2026-06-26T12:01:01Z</time>
      </trkpt>
      <trkpt lat="46.06722" lon="6.76191">
        <ele>1276.7</ele>
        <time>2026-06-26T12:01:02Z</time>
      </trkpt>
      <trkpt lat="46.06722" lon="6.76191">
        <ele>1276.7</ele>
        <time>2026-06-26T12:01:03Z</time>
      </trkpt>
      <trkpt lat="46.06722" lon="6.76191">
        <ele>1276.7</ele>
        <time>2026-06-26T12:01:04Z</time>
      </trkpt>
      <trkpt lat="46.06722" lon="6.76191">
        <ele>1276.7</ele>
        <time>2026-06-26T12:01:05Z</time>
      </trkpt>
      <trkpt lat="46.06723" lon="6.76191">
        <ele>1276.7</ele>
        <time>2026-06-26T12:01:06Z</time>
      </trkpt>
      <trkpt lat="46.06723" lon="6.76191">
        <ele>1276.7</ele>
        <time>2026-06-26T12:01:07Z</time>
      </trkpt>
      <trkpt lat="46.06722" lon="6.76191">
        <ele>1276.7</ele>
        <time>2026-06-26T12:01:08Z</time>
      </trkpt>
      <trkpt lat="46.06722" lon="6.76191">
        <ele>1276.7</ele>
        <time>2026-06-26T12:01:09Z</time>
      </trkpt>
      <trkpt lat="46.06722" lon="6.7619">
        <ele>1276.6</ele>
        <time>2026-06-26T12:01:10Z</time>
      </trkpt>
      <trkpt lat="46.06722" lon="6.7619">
        <ele>1276.6</ele>
        <time>2026-06-26T12:01:11Z</time>
      </trkpt>
      <trkpt lat="46.06722" lon="6.7619">
        <ele>1276.6</ele>
        <time>2026-06-26T12:01:12Z</time>
      </trkpt>
      <trkpt lat="46.06722" lon="6.7619">
        <ele>1276.6</ele>
        <time>2026-06-26T12:01:13Z</time>
      </trkpt>
      <trkpt lat="46.06721" lon="6.7619">
        <ele>1276.6</ele>
        <time>2026-06-26T12:01:14Z</time>
      </trkpt>
      <trkpt lat="46.06721" lon="6.7619">
        <ele>1276.5</ele>
        <time>2026-06-26T12:01:15Z</time>
      </trkpt>
      <trkpt lat="46.06721" lon="6.7619">
        <ele>1276.5</ele>
        <time>2026-06-26T12:01:16Z</time>
      </trkpt>
      <trkpt lat="46.06721" lon="6.7619">
        <ele>1276.5</ele>
        <time>2026-06-26T12:01:17Z</time>
      </trkpt>
      <trkpt lat="46.06721" lon="6.7619">
        <ele>1276.5</ele>
        <time>2026-06-26T12:01:18Z</time>
      </trkpt>
      <trkpt lat="46.0672" lon="6.76189">
        <ele>1276.4</ele>
        <time>2026-06-26T12:01:19Z</time>
      </trkpt>
      <trkpt lat="46.0672" lon="6.76189">
        <ele>1276.4</ele>
        <time>2026-06-26T12:01:20Z</time>
      </trkpt>
      <trkpt lat="46.0672" lon="6.76189">
        <ele>1276.3</ele>
        <time>2026-06-26T12:01:21Z</time>
      </trkpt>
      <trkpt lat="46.06719" lon="6.76188">
        <ele>1276.4</ele>
        <time>2026-06-26T12:01:22Z</time>
      </trkpt>
      <trkpt lat="46.06719" lon="6.76188">
        <ele>1276.4</ele>
        <time>2026-06-26T12:01:23Z</time>
      </trkpt>
      <trkpt lat="46.06719" lon="6.76187">
        <ele>1276.4</ele>
        <time>2026-06-26T12:01:24Z</time>
      </trkpt>
      <trkpt lat="46.06718" lon="6.76187">
        <ele>1276.4</ele>
        <time>2026-06-26T12:01:25Z</time>
      </trkpt>
      <trkpt lat="46.06718" lon="6.76186">
        <ele>1276.4</ele>
        <time>2026-06-26T12:01:26Z</time>
      </trkpt>
      <trkpt lat="46.06718" lon="6.76186">
        <ele>1276.4</ele>
        <time>2026-06-26T12:01:27Z</time>
      </trkpt>
      <trkpt lat="46.06718" lon="6.76185">
        <ele>1276.5</ele>
        <time>2026-06-26T12:01:28Z</time>
      </trkpt>
      <trkpt lat="46.06717" lon="6.76185">
        <ele>1276.5</ele>
        <time>2026-06-26T12:01:29Z</time>
      </trkpt>
      <trkpt lat="46.06717" lon="6.76185">
        <ele>1276.5</ele>
        <time>2026-06-26T12:01:30Z</time>
      </trkpt>
      <trkpt lat="46.06717" lon="6.76184">
        <ele>1276.5</ele>
        <time>2026-06-26T12:01:31Z</time>
      </trkpt>
      <trkpt lat="46.06717" lon="6.76185">
        <ele>1276.5</ele>
        <time>2026-06-26T12:01:32Z</time>
      </trkpt>
      <trkpt lat="46.06717" lon="6.76185">
        <ele>1276.6</ele>
        <time>2026-06-26T12:01:33Z</time>
      </trkpt>
      <trkpt lat="46.06717" lon="6.76185">
        <ele>1276.6</ele>
        <time>2026-06-26T12:01:34Z</time>
      </trkpt>
      <trkpt lat="46.06717" lon="6.76185">
        <ele>1276.7</ele>
        <time>2026-06-26T12:01:35Z</time>
      </trkpt>
      <trkpt lat="46.06717" lon="6.76185">
        <ele>1276.7</ele>
        <time>2026-06-26T12:01:36Z</time>
      </trkpt>
      <trkpt lat="46.06717" lon="6.76185">
        <ele>1276.7</ele>
        <time>2026-06-26T12:01:37Z</time>
      </trkpt>
      <trkpt lat="46.06717" lon="6.76185">
        <ele>1276.7</ele>
        <time>2026-06-26T12:01:38Z</time>
      </trkpt>
      <trkpt lat="46.06717" lon="6.76185">
        <ele>1276.7</ele>
        <time>2026-06-26T12:01:39Z</time>
      </trkpt>
      <trkpt lat="46.06717" lon="6.76185">
        <ele>1276.7</ele>
        <time>2026-06-26T12:01:40Z</time>
      </trkpt>
      <trkpt lat="46.06717" lon="6.76185">
        <ele>1276.7</ele>
        <time>2026-06-26T12:01:41Z</time>
      </trkpt>
      <trkpt lat="46.06717" lon="6.76185">
        <ele>1276.7</ele>
        <time>2026-06-26T12:01:42Z</time>
      </trkpt>
      <trkpt lat="46.06717" lon="6.76184">
        <ele>1276.6</ele>
        <time>2026-06-26T12:01:43Z</time>
      </trkpt>
      <trkpt lat="46.06717" lon="6.76183">
        <ele>1276.6</ele>
        <time>2026-06-26T12:01:44Z</time>
      </trkpt>
      <trkpt lat="46.06717" lon="6.76183">
        <ele>1276.6</ele>
        <time>2026-06-26T12:01:45Z</time>
      </trkpt>
      <trkpt lat="46.06717" lon="6.76183">
        <ele>1276.6</ele>
        <time>2026-06-26T12:01:46Z</time>
      </trkpt>
      <trkpt lat="46.06717" lon="6.76183">
        <ele>1276.5</ele>
        <time>2026-06-26T12:01:47Z</time>
      </trkpt>
      <trkpt lat="46.06717" lon="6.76183">
        <ele>1276.5</ele>
        <time>2026-06-26T12:01:48Z</time>
      </trkpt>
      <trkpt lat="46.06717" lon="6.76182">
        <ele>1276.4</ele>
        <time>2026-06-26T12:01:49Z</time>
      </trkpt>
      <trkpt lat="46.06717" lon="6.76182">
        <ele>1276.4</ele>
        <time>2026-06-26T12:01:50Z</time>
      </trkpt>
      <trkpt lat="46.06717" lon="6.76182">
        <ele>1276.4</ele>
        <time>2026-06-26T12:01:51Z</time>
      </trkpt>
      <trkpt lat="46.06717" lon="6.76182">
        <ele>1276.4</ele>
        <time>2026-06-26T12:01:52Z</time>
      </trkpt>
      <trkpt lat="46.06717" lon="6.76183">
        <ele>1276.3</ele>
        <time>2026-06-26T12:01:53Z</time>
      </trkpt>
      <trkpt lat="46.06717" lon="6.76184">
        <ele>1276.3</ele>
        <time>2026-06-26T12:01:54Z</time>
      </trkpt>
      <trkpt lat="46.06717" lon="6.76185">
        <ele>1276.3</ele>
        <time>2026-06-26T12:01:55Z</time>
      </trkpt>
      <trkpt lat="46.06716" lon="6.76185">
        <ele>1276.3</ele>
        <time>2026-06-26T12:01:56Z</time>
      </trkpt>
      <trkpt lat="46.06716" lon="6.76186">
        <ele>1276.3</ele>
        <time>2026-06-26T12:01:57Z</time>
      </trkpt>
      <trkpt lat="46.06717" lon="6.76187">
        <ele>1276.3</ele>
        <time>2026-06-26T12:01:58Z</time>
      </trkpt>
      <trkpt lat="46.06717" lon="6.76188">
        <ele>1276.3</ele>
        <time>2026-06-26T12:01:59Z</time>
      </trkpt>
      <trkpt lat="46.06717" lon="6.7619">
        <ele>1276.2</ele>
        <time>2026-06-26T12:02:00Z</time>
      </trkpt>
      <trkpt lat="46.06717" lon="6.76191">
        <ele>1276.1</ele>
        <time>2026-06-26T12:02:01Z</time>
      </trkpt>
      <trkpt lat="46.06717" lon="6.76193">
        <ele>1276</ele>
        <time>2026-06-26T12:02:02Z</time>
      </trkpt>
      <trkpt lat="46.06716" lon="6.76194">
        <ele>1275.9</ele>
        <time>2026-06-26T12:02:03Z</time>
      </trkpt>
      <trkpt lat="46.06716" lon="6.76194">
        <ele>1275.8</ele>
        <time>2026-06-26T12:02:04Z</time>
      </trkpt>
      <trkpt lat="46.06715" lon="6.76196">
        <ele>1275.7</ele>
        <time>2026-06-26T12:02:05Z</time>
      </trkpt>
      <trkpt lat="46.06715" lon="6.76198">
        <ele>1275.5</ele>
        <time>2026-06-26T12:02:06Z</time>
      </trkpt>
      <trkpt lat="46.06715" lon="6.76199">
        <ele>1275.3</ele>
        <time>2026-06-26T12:02:07Z</time>
      </trkpt>
      <trkpt lat="46.06715" lon="6.762">
        <ele>1275.2</ele>
        <time>2026-06-26T12:02:08Z</time>
      </trkpt>
      <trkpt lat="46.06715" lon="6.76201">
        <ele>1275</ele>
        <time>2026-06-26T12:02:09Z</time>
      </trkpt>
      <trkpt lat="46.06715" lon="6.76202">
        <ele>1274.3</ele>
        <time>2026-06-26T12:02:10Z</time>
      </trkpt>
      <trkpt lat="46.06715" lon="6.76203">
        <ele>1274.3</ele>
        <time>2026-06-26T12:02:11Z</time>
      </trkpt>
      <trkpt lat="46.06715" lon="6.76203">
        <ele>1274.4</ele>
        <time>2026-06-26T12:02:12Z</time>
      </trkpt>
      <trkpt lat="46.06716" lon="6.76204">
        <ele>1274.3</ele>
        <time>2026-06-26T12:02:13Z</time>
      </trkpt>
      <trkpt lat="46.06716" lon="6.76204">
        <ele>1274.3</ele>
        <time>2026-06-26T12:02:14Z</time>
      </trkpt>
      <trkpt lat="46.06716" lon="6.76205">
        <ele>1274.3</ele>
        <time>2026-06-26T12:02:15Z</time>
      </trkpt>
      <trkpt lat="46.06717" lon="6.76206">
        <ele>1274.3</ele>
        <time>2026-06-26T12:02:16Z</time>
      </trkpt>
      <trkpt lat="46.06717" lon="6.76207">
        <ele>1274.3</ele>
        <time>2026-06-26T12:02:17Z</time>
      </trkpt>
      <trkpt lat="46.06718" lon="6.76207">
        <ele>1274.3</ele>
        <time>2026-06-26T12:02:18Z</time>
      </trkpt>
      <trkpt lat="46.06718" lon="6.76207">
        <ele>1274.2</ele>
        <time>2026-06-26T12:02:19Z</time>
      </trkpt>
      <trkpt lat="46.06718" lon="6.76208">
        <ele>1274.2</ele>
        <time>2026-06-26T12:02:20Z</time>
      </trkpt>
      <trkpt lat="46.06719" lon="6.76208">
        <ele>1274.2</ele>
        <time>2026-06-26T12:02:21Z</time>
      </trkpt>
      <trkpt lat="46.06719" lon="6.76208">
        <ele>1274.2</ele>
        <time>2026-06-26T12:02:22Z</time>
      </trkpt>
      <trkpt lat="46.06719" lon="6.76208">
        <ele>1274.2</ele>
        <time>2026-06-26T12:02:23Z</time>
      </trkpt>
      <trkpt lat="46.06719" lon="6.76208">
        <ele>1274.2</ele>
        <time>2026-06-26T12:02:24Z</time>
      </trkpt>
      <trkpt lat="46.06719" lon="6.76208">
        <ele>1274.2</ele>
        <time>2026-06-26T12:02:25Z</time>
      </trkpt>
      <trkpt lat="46.0672" lon="6.76208">
        <ele>1274.2</ele>
        <time>2026-06-26T12:02:26Z</time>
      </trkpt>
      <trkpt lat="46.0672" lon="6.76209">
        <ele>1274.2</ele>
        <time>2026-06-26T12:02:27Z</time>
      </trkpt>
      <trkpt lat="46.0672" lon="6.76209">
        <ele>1274.2</ele>
        <time>2026-06-26T12:02:28Z</time>
      </trkpt>
      <trkpt lat="46.06721" lon="6.7621">
        <ele>1274.2</ele>
        <time>2026-06-26T12:02:29Z</time>
      </trkpt>
      <trkpt lat="46.06721" lon="6.7621">
        <ele>1274.1</ele>
        <time>2026-06-26T12:02:30Z</time>
      </trkpt>
      <trkpt lat="46.06721" lon="6.7621">
        <ele>1274.3</ele>
        <time>2026-06-26T12:02:31Z</time>
      </trkpt>
      <trkpt lat="46.06722" lon="6.76211">
        <ele>1274.3</ele>
        <time>2026-06-26T12:02:32Z</time>
      </trkpt>
      <trkpt lat="46.06722" lon="6.76211">
        <ele>1274.3</ele>
        <time>2026-06-26T12:02:33Z</time>
      </trkpt>
      <trkpt lat="46.06722" lon="6.76211">
        <ele>1274.3</ele>
        <time>2026-06-26T12:02:34Z</time>
      </trkpt>
      <trkpt lat="46.06722" lon="6.76212">
        <ele>1274.3</ele>
        <time>2026-06-26T12:02:35Z</time>
      </trkpt>
      <trkpt lat="46.06723" lon="6.76213">
        <ele>1274.3</ele>
        <time>2026-06-26T12:02:36Z</time>
      </trkpt>
      <trkpt lat="46.06721" lon="6.76212">
        <ele>1274.3</ele>
        <time>2026-06-26T12:02:37Z</time>
      </trkpt>
      <trkpt lat="46.06721" lon="6.76212">
        <ele>1274.3</ele>
        <time>2026-06-26T12:02:38Z</time>
      </trkpt>
      <trkpt lat="46.0672" lon="6.76213">
        <ele>1274.1</ele>
        <time>2026-06-26T12:02:39Z</time>
      </trkpt>
      <trkpt lat="46.06719" lon="6.76214">
        <ele>1274.1</ele>
        <time>2026-06-26T12:02:40Z</time>
      </trkpt>
      <trkpt lat="46.06719" lon="6.76215">
        <ele>1274</ele>
        <time>2026-06-26T12:02:41Z</time>
      </trkpt>
      <trkpt lat="46.06718" lon="6.76216">
        <ele>1274</ele>
        <time>2026-06-26T12:02:42Z</time>
      </trkpt>
      <trkpt lat="46.06718" lon="6.76217">
        <ele>1273.9</ele>
        <time>2026-06-26T12:02:43Z</time>
      </trkpt>
      <trkpt lat="46.06718" lon="6.76218">
        <ele>1273.8</ele>
        <time>2026-06-26T12:02:44Z</time>
      </trkpt>
      <trkpt lat="46.06717" lon="6.76219">
        <ele>1273.7</ele>
        <time>2026-06-26T12:02:45Z</time>
      </trkpt>
      <trkpt lat="46.06717" lon="6.7622">
        <ele>1273.6</ele>
        <time>2026-06-26T12:02:46Z</time>
      </trkpt>
      <trkpt lat="46.06716" lon="6.76221">
        <ele>1273.4</ele>
        <time>2026-06-26T12:02:47Z</time>
      </trkpt>
      <trkpt lat="46.06715" lon="6.76222">
        <ele>1273.3</ele>
        <time>2026-06-26T12:02:48Z</time>
      </trkpt>
      <trkpt lat="46.06715" lon="6.76223">
        <ele>1273.1</ele>
        <time>2026-06-26T12:02:49Z</time>
      </trkpt>
      <trkpt lat="46.06714" lon="6.76223">
        <ele>1273</ele>
        <time>2026-06-26T12:02:50Z</time>
      </trkpt>
      <trkpt lat="46.06713" lon="6.76224">
        <ele>1272.8</ele>
        <time>2026-06-26T12:02:51Z</time>
      </trkpt>
      <trkpt lat="46.06713" lon="6.76225">
        <ele>1272.7</ele>
        <time>2026-06-26T12:02:52Z</time>
      </trkpt>
      <trkpt lat="46.06712" lon="6.76226">
        <ele>1272.7</ele>
        <time>2026-06-26T12:02:53Z</time>
      </trkpt>
      <trkpt lat="46.06712" lon="6.76228">
        <ele>1272.6</ele>
        <time>2026-06-26T12:02:54Z</time>
      </trkpt>
      <trkpt lat="46.06711" lon="6.76228">
        <ele>1272.5</ele>
        <time>2026-06-26T12:02:55Z</time>
      </trkpt>
      <trkpt lat="46.0671" lon="6.76229">
        <ele>1272.4</ele>
        <time>2026-06-26T12:02:56Z</time>
      </trkpt>
      <trkpt lat="46.0671" lon="6.76229">
        <ele>1272.4</ele>
        <time>2026-06-26T12:02:57Z</time>
      </trkpt>
      <trkpt lat="46.06709" lon="6.76231">
        <ele>1272.3</ele>
        <time>2026-06-26T12:02:58Z</time>
      </trkpt>
      <trkpt lat="46.06708" lon="6.76232">
        <ele>1272.2</ele>
        <time>2026-06-26T12:02:59Z</time>
      </trkpt>
      <trkpt lat="46.06707" lon="6.76233">
        <ele>1272.1</ele>
        <time>2026-06-26T12:03:00Z</time>
      </trkpt>
      <trkpt lat="46.06707" lon="6.76234">
        <ele>1272</ele>
        <time>2026-06-26T12:03:01Z</time>
      </trkpt>
      <trkpt lat="46.06706" lon="6.76234">
        <ele>1271.8</ele>
        <time>2026-06-26T12:03:02Z</time>
      </trkpt>
      <trkpt lat="46.06705" lon="6.76235">
        <ele>1271.5</ele>
        <time>2026-06-26T12:03:03Z</time>
      </trkpt>
      <trkpt lat="46.06704" lon="6.76235">
        <ele>1271.3</ele>
        <time>2026-06-26T12:03:04Z</time>
      </trkpt>
      <trkpt lat="46.06703" lon="6.76236">
        <ele>1271.2</ele>
        <time>2026-06-26T12:03:05Z</time>
      </trkpt>
      <trkpt lat="46.06702" lon="6.76237">
        <ele>1270.9</ele>
        <time>2026-06-26T12:03:06Z</time>
      </trkpt>
      <trkpt lat="46.06701" lon="6.76237">
        <ele>1270.7</ele>
        <time>2026-06-26T12:03:07Z</time>
      </trkpt>
      <trkpt lat="46.067" lon="6.76238">
        <ele>1270.5</ele>
        <time>2026-06-26T12:03:08Z</time>
      </trkpt>
      <trkpt lat="46.06699" lon="6.76239">
        <ele>1270.3</ele>
        <time>2026-06-26T12:03:09Z</time>
      </trkpt>
      <trkpt lat="46.06698" lon="6.7624">
        <ele>1270.1</ele>
        <time>2026-06-26T12:03:10Z</time>
      </trkpt>
      <trkpt lat="46.06697" lon="6.76241">
        <ele>1269.9</ele>
        <time>2026-06-26T12:03:11Z</time>
      </trkpt>
      <trkpt lat="46.06696" lon="6.76241">
        <ele>1269.8</ele>
        <time>2026-06-26T12:03:12Z</time>
      </trkpt>
      <trkpt lat="46.06695" lon="6.76242">
        <ele>1269.6</ele>
        <time>2026-06-26T12:03:13Z</time>
      </trkpt>
      <trkpt lat="46.06694" lon="6.76243">
        <ele>1269.4</ele>
        <time>2026-06-26T12:03:14Z</time>
      </trkpt>
      <trkpt lat="46.06693" lon="6.76244">
        <ele>1269.3</ele>
        <time>2026-06-26T12:03:15Z</time>
      </trkpt>
      <trkpt lat="46.06693" lon="6.76245">
        <ele>1269.1</ele>
        <time>2026-06-26T12:03:16Z</time>
      </trkpt>
      <trkpt lat="46.06692" lon="6.76246">
        <ele>1269</ele>
        <time>2026-06-26T12:03:17Z</time>
      </trkpt>
      <trkpt lat="46.06692" lon="6.76247">
        <ele>1268.9</ele>
        <time>2026-06-26T12:03:18Z</time>
      </trkpt>
      <trkpt lat="46.06691" lon="6.76249">
        <ele>1268.8</ele>
        <time>2026-06-26T12:03:19Z</time>
      </trkpt>
      <trkpt lat="46.0669" lon="6.7625">
        <ele>1268.7</ele>
        <time>2026-06-26T12:03:20Z</time>
      </trkpt>
      <trkpt lat="46.06689" lon="6.7625">
        <ele>1268.7</ele>
        <time>2026-06-26T12:03:21Z</time>
      </trkpt>
      <trkpt lat="46.06689" lon="6.76251">
        <ele>1268.5</ele>
        <time>2026-06-26T12:03:22Z</time>
      </trkpt>
      <trkpt lat="46.06688" lon="6.76252">
        <ele>1268.3</ele>
        <time>2026-06-26T12:03:23Z</time>
      </trkpt>
      <trkpt lat="46.06687" lon="6.76253">
        <ele>1268.2</ele>
        <time>2026-06-26T12:03:24Z</time>
      </trkpt>
      <trkpt lat="46.06687" lon="6.76255">
        <ele>1268.1</ele>
        <time>2026-06-26T12:03:25Z</time>
      </trkpt>
      <trkpt lat="46.06686" lon="6.76256">
        <ele>1267.9</ele>
        <time>2026-06-26T12:03:26Z</time>
      </trkpt>
      <trkpt lat="46.06685" lon="6.76257">
        <ele>1267.7</ele>
        <time>2026-06-26T12:03:27Z</time>
      </trkpt>
      <trkpt lat="46.06683" lon="6.76259">
        <ele>1267.5</ele>
        <time>2026-06-26T12:03:28Z</time>
      </trkpt>
      <trkpt lat="46.06682" lon="6.7626">
        <ele>1267.3</ele>
        <time>2026-06-26T12:03:29Z</time>
      </trkpt>
      <trkpt lat="46.06681" lon="6.76261">
        <ele>1267.2</ele>
        <time>2026-06-26T12:03:30Z</time>
      </trkpt>
      <trkpt lat="46.0668" lon="6.76262">
        <ele>1267</ele>
        <time>2026-06-26T12:03:31Z</time>
      </trkpt>
      <trkpt lat="46.06678" lon="6.76263">
        <ele>1266.8</ele>
        <time>2026-06-26T12:03:32Z</time>
      </trkpt>
      <trkpt lat="46.06677" lon="6.76264">
        <ele>1266.5</ele>
        <time>2026-06-26T12:03:33Z</time>
      </trkpt>
      <trkpt lat="46.06675" lon="6.76264">
        <ele>1266.2</ele>
        <time>2026-06-26T12:03:34Z</time>
      </trkpt>
      <trkpt lat="46.06674" lon="6.76265">
        <ele>1265.9</ele>
        <time>2026-06-26T12:03:35Z</time>
      </trkpt>
      <trkpt lat="46.06673" lon="6.76266">
        <ele>1265.7</ele>
        <time>2026-06-26T12:03:36Z</time>
      </trkpt>
      <trkpt lat="46.06672" lon="6.76267">
        <ele>1265.5</ele>
        <time>2026-06-26T12:03:37Z</time>
      </trkpt>
      <trkpt lat="46.06671" lon="6.76268">
        <ele>1265.2</ele>
        <time>2026-06-26T12:03:38Z</time>
      </trkpt>
      <trkpt lat="46.0667" lon="6.7627">
        <ele>1265</ele>
        <time>2026-06-26T12:03:39Z</time>
      </trkpt>
      <trkpt lat="46.06669" lon="6.76271">
        <ele>1264.9</ele>
        <time>2026-06-26T12:03:40Z</time>
      </trkpt>
      <trkpt lat="46.06667" lon="6.76272">
        <ele>1264.7</ele>
        <time>2026-06-26T12:03:41Z</time>
      </trkpt>
      <trkpt lat="46.06666" lon="6.76273">
        <ele>1264.5</ele>
        <time>2026-06-26T12:03:42Z</time>
      </trkpt>
      <trkpt lat="46.06665" lon="6.76274">
        <ele>1264.4</ele>
        <time>2026-06-26T12:03:43Z</time>
      </trkpt>
      <trkpt lat="46.06664" lon="6.76275">
        <ele>1264.2</ele>
        <time>2026-06-26T12:03:44Z</time>
      </trkpt>
      <trkpt lat="46.06664" lon="6.76276">
        <ele>1264.1</ele>
        <time>2026-06-26T12:03:45Z</time>
      </trkpt>
      <trkpt lat="46.06664" lon="6.76278">
        <ele>1263.9</ele>
        <time>2026-06-26T12:03:46Z</time>
      </trkpt>
      <trkpt lat="46.06663" lon="6.76279">
        <ele>1263.8</ele>
        <time>2026-06-26T12:03:47Z</time>
      </trkpt>
      <trkpt lat="46.06662" lon="6.76281">
        <ele>1263.7</ele>
        <time>2026-06-26T12:03:48Z</time>
      </trkpt>
      <trkpt lat="46.06661" lon="6.76282">
        <ele>1263.5</ele>
        <time>2026-06-26T12:03:49Z</time>
      </trkpt>
      <trkpt lat="46.0666" lon="6.76282">
        <ele>1263.3</ele>
        <time>2026-06-26T12:03:50Z</time>
      </trkpt>
      <trkpt lat="46.06658" lon="6.76283">
        <ele>1263.2</ele>
        <time>2026-06-26T12:03:51Z</time>
      </trkpt>
      <trkpt lat="46.06658" lon="6.76284">
        <ele>1263.1</ele>
        <time>2026-06-26T12:03:52Z</time>
      </trkpt>
      <trkpt lat="46.06657" lon="6.76285">
        <ele>1262.9</ele>
        <time>2026-06-26T12:03:53Z</time>
      </trkpt>
      <trkpt lat="46.06656" lon="6.76286">
        <ele>1262.6</ele>
        <time>2026-06-26T12:03:54Z</time>
      </trkpt>
      <trkpt lat="46.06655" lon="6.76287">
        <ele>1262.4</ele>
        <time>2026-06-26T12:03:55Z</time>
      </trkpt>
      <trkpt lat="46.06654" lon="6.76287">
        <ele>1262.3</ele>
        <time>2026-06-26T12:03:56Z</time>
      </trkpt>
      <trkpt lat="46.06653" lon="6.76288">
        <ele>1262.1</ele>
        <time>2026-06-26T12:03:57Z</time>
      </trkpt>
      <trkpt lat="46.06652" lon="6.76288">
        <ele>1261.9</ele>
        <time>2026-06-26T12:03:58Z</time>
      </trkpt>
      <trkpt lat="46.06651" lon="6.76288">
        <ele>1261.7</ele>
        <time>2026-06-26T12:03:59Z</time>
      </trkpt>
      <trkpt lat="46.06649" lon="6.76289">
        <ele>1261.5</ele>
        <time>2026-06-26T12:04:00Z</time>
      </trkpt>
      <trkpt lat="46.06648" lon="6.76289">
        <ele>1261.3</ele>
        <time>2026-06-26T12:04:01Z</time>
      </trkpt>
      <trkpt lat="46.06647" lon="6.76289">
        <ele>1261.2</ele>
        <time>2026-06-26T12:04:02Z</time>
      </trkpt>
      <trkpt lat="46.06647" lon="6.7629">
        <ele>1261.1</ele>
        <time>2026-06-26T12:04:03Z</time>
      </trkpt>
      <trkpt lat="46.06646" lon="6.7629">
        <ele>1260.9</ele>
        <time>2026-06-26T12:04:04Z</time>
      </trkpt>
      <trkpt lat="46.06646" lon="6.76291">
        <ele>1260.7</ele>
        <time>2026-06-26T12:04:05Z</time>
      </trkpt>
      <trkpt lat="46.06645" lon="6.76291">
        <ele>1260.6</ele>
        <time>2026-06-26T12:04:06Z</time>
      </trkpt>
      <trkpt lat="46.06644" lon="6.76291">
        <ele>1260.4</ele>
        <time>2026-06-26T12:04:07Z</time>
      </trkpt>
      <trkpt lat="46.06645" lon="6.76292">
        <ele>1260.4</ele>
        <time>2026-06-26T12:04:08Z</time>
      </trkpt>
      <trkpt lat="46.06645" lon="6.76293">
        <ele>1260.2</ele>
        <time>2026-06-26T12:04:09Z</time>
      </trkpt>
      <trkpt lat="46.06644" lon="6.76294">
        <ele>1260.2</ele>
        <time>2026-06-26T12:04:10Z</time>
      </trkpt>
      <trkpt lat="46.06643" lon="6.76295">
        <ele>1260.2</ele>
        <time>2026-06-26T12:04:11Z</time>
      </trkpt>
      <trkpt lat="46.0664" lon="6.76295">
        <ele>1260.1</ele>
        <time>2026-06-26T12:04:12Z</time>
      </trkpt>
      <trkpt lat="46.06638" lon="6.76295">
        <ele>1259.9</ele>
        <time>2026-06-26T12:04:13Z</time>
      </trkpt>
      <trkpt lat="46.06636" lon="6.76296">
        <ele>1259.7</ele>
        <time>2026-06-26T12:04:14Z</time>
      </trkpt>
      <trkpt lat="46.06635" lon="6.76297">
        <ele>1259.6</ele>
        <time>2026-06-26T12:04:15Z</time>
      </trkpt>
      <trkpt lat="46.06634" lon="6.76298">
        <ele>1259.3</ele>
        <time>2026-06-26T12:04:16Z</time>
      </trkpt>
      <trkpt lat="46.06633" lon="6.76298">
        <ele>1259.1</ele>
        <time>2026-06-26T12:04:17Z</time>
      </trkpt>
      <trkpt lat="46.06632" lon="6.76299">
        <ele>1258.9</ele>
        <time>2026-06-26T12:04:18Z</time>
      </trkpt>
      <trkpt lat="46.06631" lon="6.76299">
        <ele>1258.8</ele>
        <time>2026-06-26T12:04:19Z</time>
      </trkpt>
      <trkpt lat="46.0663" lon="6.763">
        <ele>1258.6</ele>
        <time>2026-06-26T12:04:20Z</time>
      </trkpt>
      <trkpt lat="46.06629" lon="6.763">
        <ele>1258.4</ele>
        <time>2026-06-26T12:04:21Z</time>
      </trkpt>
      <trkpt lat="46.06627" lon="6.763">
        <ele>1258.3</ele>
        <time>2026-06-26T12:04:22Z</time>
      </trkpt>
      <trkpt lat="46.06626" lon="6.76301">
        <ele>1258.1</ele>
        <time>2026-06-26T12:04:23Z</time>
      </trkpt>
      <trkpt lat="46.06625" lon="6.76302">
        <ele>1258</ele>
        <time>2026-06-26T12:04:24Z</time>
      </trkpt>
      <trkpt lat="46.06624" lon="6.76303">
        <ele>1257.8</ele>
        <time>2026-06-26T12:04:25Z</time>
      </trkpt>
      <trkpt lat="46.06623" lon="6.76304">
        <ele>1257.7</ele>
        <time>2026-06-26T12:04:26Z</time>
      </trkpt>
      <trkpt lat="46.06621" lon="6.76305">
        <ele>1257.6</ele>
        <time>2026-06-26T12:04:27Z</time>
      </trkpt>
      <trkpt lat="46.0662" lon="6.76307">
        <ele>1257.5</ele>
        <time>2026-06-26T12:04:28Z</time>
      </trkpt>
      <trkpt lat="46.06618" lon="6.76307">
        <ele>1257.2</ele>
        <time>2026-06-26T12:04:29Z</time>
      </trkpt>
      <trkpt lat="46.06617" lon="6.76308">
        <ele>1257</ele>
        <time>2026-06-26T12:04:30Z</time>
      </trkpt>
      <trkpt lat="46.06616" lon="6.76308">
        <ele>1256.9</ele>
        <time>2026-06-26T12:04:31Z</time>
      </trkpt>
      <trkpt lat="46.06615" lon="6.76308">
        <ele>1256.8</ele>
        <time>2026-06-26T12:04:32Z</time>
      </trkpt>
      <trkpt lat="46.06615" lon="6.76309">
        <ele>1256.7</ele>
        <time>2026-06-26T12:04:33Z</time>
      </trkpt>
      <trkpt lat="46.06616" lon="6.7631">
        <ele>1256.6</ele>
        <time>2026-06-26T12:04:34Z</time>
      </trkpt>
      <trkpt lat="46.06615" lon="6.7631">
        <ele>1256.6</ele>
        <time>2026-06-26T12:04:35Z</time>
      </trkpt>
      <trkpt lat="46.06615" lon="6.7631">
        <ele>1256.6</ele>
        <time>2026-06-26T12:04:36Z</time>
      </trkpt>
      <trkpt lat="46.06615" lon="6.76309">
        <ele>1256.6</ele>
        <time>2026-06-26T12:04:37Z</time>
      </trkpt>
      <trkpt lat="46.06615" lon="6.76308">
        <ele>1256.5</ele>
        <time>2026-06-26T12:04:38Z</time>
      </trkpt>
      <trkpt lat="46.06614" lon="6.76308">
        <ele>1256.5</ele>
        <time>2026-06-26T12:04:39Z</time>
      </trkpt>
      <trkpt lat="46.06613" lon="6.76307">
        <ele>1256.4</ele>
        <time>2026-06-26T12:04:40Z</time>
      </trkpt>
      <trkpt lat="46.06612" lon="6.76308">
        <ele>1256.3</ele>
        <time>2026-06-26T12:04:41Z</time>
      </trkpt>
      <trkpt lat="46.06611" lon="6.76309">
        <ele>1256.3</ele>
        <time>2026-06-26T12:04:42Z</time>
      </trkpt>
      <trkpt lat="46.0661" lon="6.76309">
        <ele>1256.2</ele>
        <time>2026-06-26T12:04:43Z</time>
      </trkpt>
      <trkpt lat="46.06609" lon="6.76309">
        <ele>1256.2</ele>
        <time>2026-06-26T12:04:44Z</time>
      </trkpt>
      <trkpt lat="46.06608" lon="6.7631">
        <ele>1256.3</ele>
        <time>2026-06-26T12:04:45Z</time>
      </trkpt>
      <trkpt lat="46.06608" lon="6.76311">
        <ele>1256.1</ele>
        <time>2026-06-26T12:04:46Z</time>
      </trkpt>
      <trkpt lat="46.06607" lon="6.76311">
        <ele>1255.9</ele>
        <time>2026-06-26T12:04:47Z</time>
      </trkpt>
      <trkpt lat="46.06606" lon="6.76312">
        <ele>1255.8</ele>
        <time>2026-06-26T12:04:48Z</time>
      </trkpt>
      <trkpt lat="46.06605" lon="6.76312">
        <ele>1255.7</ele>
        <time>2026-06-26T12:04:49Z</time>
      </trkpt>
      <trkpt lat="46.06604" lon="6.76313">
        <ele>1255.5</ele>
        <time>2026-06-26T12:04:50Z</time>
      </trkpt>
      <trkpt lat="46.06602" lon="6.76313">
        <ele>1255.4</ele>
        <time>2026-06-26T12:04:51Z</time>
      </trkpt>
      <trkpt lat="46.06601" lon="6.76314">
        <ele>1255.2</ele>
        <time>2026-06-26T12:04:52Z</time>
      </trkpt>
      <trkpt lat="46.066" lon="6.76315">
        <ele>1255</ele>
        <time>2026-06-26T12:04:53Z</time>
      </trkpt>
      <trkpt lat="46.06599" lon="6.76316">
        <ele>1254.9</ele>
        <time>2026-06-26T12:04:54Z</time>
      </trkpt>
      <trkpt lat="46.06598" lon="6.76317">
        <ele>1254.8</ele>
        <time>2026-06-26T12:04:55Z</time>
      </trkpt>
      <trkpt lat="46.06597" lon="6.76317">
        <ele>1254.7</ele>
        <time>2026-06-26T12:04:56Z</time>
      </trkpt>
      <trkpt lat="46.06596" lon="6.76317">
        <ele>1254.6</ele>
        <time>2026-06-26T12:04:57Z</time>
      </trkpt>
      <trkpt lat="46.06596" lon="6.76318">
        <ele>1254.4</ele>
        <time>2026-06-26T12:04:58Z</time>
      </trkpt>
      <trkpt lat="46.06594" lon="6.76318">
        <ele>1254.2</ele>
        <time>2026-06-26T12:04:59Z</time>
      </trkpt>
      <trkpt lat="46.06593" lon="6.76319">
        <ele>1254</ele>
        <time>2026-06-26T12:05:00Z</time>
      </trkpt>
      <trkpt lat="46.06592" lon="6.76319">
        <ele>1253.9</ele>
        <time>2026-06-26T12:05:01Z</time>
      </trkpt>
      <trkpt lat="46.06591" lon="6.7632">
        <ele>1253.6</ele>
        <time>2026-06-26T12:05:02Z</time>
      </trkpt>
      <trkpt lat="46.0659" lon="6.76321">
        <ele>1253.2</ele>
        <time>2026-06-26T12:05:03Z</time>
      </trkpt>
      <trkpt lat="46.06588" lon="6.76322">
        <ele>1253</ele>
        <time>2026-06-26T12:05:04Z</time>
      </trkpt>
      <trkpt lat="46.06587" lon="6.76322">
        <ele>1252.7</ele>
        <time>2026-06-26T12:05:05Z</time>
      </trkpt>
      <trkpt lat="46.06585" lon="6.76322">
        <ele>1252.5</ele>
        <time>2026-06-26T12:05:06Z</time>
      </trkpt>
      <trkpt lat="46.06584" lon="6.76322">
        <ele>1252.3</ele>
        <time>2026-06-26T12:05:07Z</time>
      </trkpt>
      <trkpt lat="46.06582" lon="6.76323">
        <ele>1251.9</ele>
        <time>2026-06-26T12:05:08Z</time>
      </trkpt>
      <trkpt lat="46.06582" lon="6.76322">
        <ele>1251.7</ele>
        <time>2026-06-26T12:05:09Z</time>
      </trkpt>
      <trkpt lat="46.06581" lon="6.76322">
        <ele>1251.5</ele>
        <time>2026-06-26T12:05:10Z</time>
      </trkpt>
      <trkpt lat="46.06579" lon="6.76322">
        <ele>1251.4</ele>
        <time>2026-06-26T12:05:11Z</time>
      </trkpt>
      <trkpt lat="46.06578" lon="6.76322">
        <ele>1251.3</ele>
        <time>2026-06-26T12:05:12Z</time>
      </trkpt>
      <trkpt lat="46.06576" lon="6.76322">
        <ele>1251.1</ele>
        <time>2026-06-26T12:05:13Z</time>
      </trkpt>
      <trkpt lat="46.06575" lon="6.76322">
        <ele>1250.9</ele>
        <time>2026-06-26T12:05:14Z</time>
      </trkpt>
      <trkpt lat="46.06574" lon="6.76323">
        <ele>1250.9</ele>
        <time>2026-06-26T12:05:15Z</time>
      </trkpt>
      <trkpt lat="46.06572" lon="6.76322">
        <ele>1250.3</ele>
        <time>2026-06-26T12:05:16Z</time>
      </trkpt>
      <trkpt lat="46.0657" lon="6.76322">
        <ele>1250</ele>
        <time>2026-06-26T12:05:17Z</time>
      </trkpt>
      <trkpt lat="46.06568" lon="6.76322">
        <ele>1249.9</ele>
        <time>2026-06-26T12:05:18Z</time>
      </trkpt>
      <trkpt lat="46.06567" lon="6.76322">
        <ele>1249.8</ele>
        <time>2026-06-26T12:05:19Z</time>
      </trkpt>
      <trkpt lat="46.06565" lon="6.76322">
        <ele>1249.7</ele>
        <time>2026-06-26T12:05:20Z</time>
      </trkpt>
      <trkpt lat="46.06564" lon="6.76322">
        <ele>1249.6</ele>
        <time>2026-06-26T12:05:21Z</time>
      </trkpt>
      <trkpt lat="46.06562" lon="6.76322">
        <ele>1249.5</ele>
        <time>2026-06-26T12:05:22Z</time>
      </trkpt>
      <trkpt lat="46.06561" lon="6.76322">
        <ele>1249.5</ele>
        <time>2026-06-26T12:05:23Z</time>
      </trkpt>
      <trkpt lat="46.0656" lon="6.76322">
        <ele>1249.3</ele>
        <time>2026-06-26T12:05:24Z</time>
      </trkpt>
      <trkpt lat="46.06559" lon="6.76323">
        <ele>1249.2</ele>
        <time>2026-06-26T12:05:25Z</time>
      </trkpt>
      <trkpt lat="46.06557" lon="6.76323">
        <ele>1249.2</ele>
        <time>2026-06-26T12:05:26Z</time>
      </trkpt>
      <trkpt lat="46.06556" lon="6.76322">
        <ele>1249.1</ele>
        <time>2026-06-26T12:05:27Z</time>
      </trkpt>
      <trkpt lat="46.06554" lon="6.76321">
        <ele>1249</ele>
        <time>2026-06-26T12:05:28Z</time>
      </trkpt>
      <trkpt lat="46.06553" lon="6.7632">
        <ele>1248.9</ele>
        <time>2026-06-26T12:05:29Z</time>
      </trkpt>
      <trkpt lat="46.06551" lon="6.7632">
        <ele>1248.8</ele>
        <time>2026-06-26T12:05:30Z</time>
      </trkpt>
      <trkpt lat="46.0655" lon="6.76319">
        <ele>1248.7</ele>
        <time>2026-06-26T12:05:31Z</time>
      </trkpt>
      <trkpt lat="46.0655" lon="6.76318">
        <ele>1248.5</ele>
        <time>2026-06-26T12:05:32Z</time>
      </trkpt>
      <trkpt lat="46.06549" lon="6.76317">
        <ele>1248.1</ele>
        <time>2026-06-26T12:05:33Z</time>
      </trkpt>
      <trkpt lat="46.06549" lon="6.76315">
        <ele>1247.9</ele>
        <time>2026-06-26T12:05:34Z</time>
      </trkpt>
      <trkpt lat="46.06549" lon="6.76314">
        <ele>1247.6</ele>
        <time>2026-06-26T12:05:35Z</time>
      </trkpt>
      <trkpt lat="46.0655" lon="6.76315">
        <ele>1247.4</ele>
        <time>2026-06-26T12:05:36Z</time>
      </trkpt>
      <trkpt lat="46.0655" lon="6.76315">
        <ele>1247.3</ele>
        <time>2026-06-26T12:05:37Z</time>
      </trkpt>
      <trkpt lat="46.0655" lon="6.76316">
        <ele>1247.1</ele>
        <time>2026-06-26T12:05:38Z</time>
      </trkpt>
      <trkpt lat="46.0655" lon="6.76316">
        <ele>1247</ele>
        <time>2026-06-26T12:05:39Z</time>
      </trkpt>
      <trkpt lat="46.06549" lon="6.76315">
        <ele>1246.9</ele>
        <time>2026-06-26T12:05:40Z</time>
      </trkpt>
      <trkpt lat="46.06549" lon="6.76317">
        <ele>1246.9</ele>
        <time>2026-06-26T12:05:41Z</time>
      </trkpt>
      <trkpt lat="46.06548" lon="6.76316">
        <ele>1246.8</ele>
        <time>2026-06-26T12:05:42Z</time>
      </trkpt>
      <trkpt lat="46.06548" lon="6.76317">
        <ele>1246.8</ele>
        <time>2026-06-26T12:05:43Z</time>
      </trkpt>
      <trkpt lat="46.06548" lon="6.76318">
        <ele>1246.8</ele>
        <time>2026-06-26T12:05:44Z</time>
      </trkpt>
      <trkpt lat="46.06548" lon="6.76319">
        <ele>1246.7</ele>
        <time>2026-06-26T12:05:45Z</time>
      </trkpt>
      <trkpt lat="46.06548" lon="6.76318">
        <ele>1246.8</ele>
        <time>2026-06-26T12:05:46Z</time>
      </trkpt>
      <trkpt lat="46.06548" lon="6.76319">
        <ele>1246.8</ele>
        <time>2026-06-26T12:05:47Z</time>
      </trkpt>
      <trkpt lat="46.06548" lon="6.76319">
        <ele>1246.9</ele>
        <time>2026-06-26T12:05:48Z</time>
      </trkpt>
      <trkpt lat="46.06548" lon="6.76319">
        <ele>1246.9</ele>
        <time>2026-06-26T12:05:49Z</time>
      </trkpt>
      <trkpt lat="46.06547" lon="6.76319">
        <ele>1247</ele>
        <time>2026-06-26T12:05:50Z</time>
      </trkpt>
      <trkpt lat="46.06547" lon="6.76319">
        <ele>1247.1</ele>
        <time>2026-06-26T12:05:51Z</time>
      </trkpt>
      <trkpt lat="46.06546" lon="6.7632">
        <ele>1247.2</ele>
        <time>2026-06-26T12:05:52Z</time>
      </trkpt>
      <trkpt lat="46.06547" lon="6.76321">
        <ele>1247.2</ele>
        <time>2026-06-26T12:05:53Z</time>
      </trkpt>
      <trkpt lat="46.06547" lon="6.76321">
        <ele>1247.3</ele>
        <time>2026-06-26T12:05:54Z</time>
      </trkpt>
      <trkpt lat="46.06548" lon="6.76321">
        <ele>1247.3</ele>
        <time>2026-06-26T12:05:55Z</time>
      </trkpt>
      <trkpt lat="46.06548" lon="6.76321">
        <ele>1247.4</ele>
        <time>2026-06-26T12:05:56Z</time>
      </trkpt>
      <trkpt lat="46.06548" lon="6.76321">
        <ele>1247.6</ele>
        <time>2026-06-26T12:05:57Z</time>
      </trkpt>
      <trkpt lat="46.06548" lon="6.76321">
        <ele>1247.8</ele>
        <time>2026-06-26T12:05:58Z</time>
      </trkpt>
      <trkpt lat="46.06548" lon="6.76321">
        <ele>1247.9</ele>
        <time>2026-06-26T12:05:59Z</time>
      </trkpt>
      <trkpt lat="46.06548" lon="6.76321">
        <ele>1248</ele>
        <time>2026-06-26T12:06:00Z</time>
      </trkpt>
      <trkpt lat="46.06548" lon="6.76321">
        <ele>1248</ele>
        <time>2026-06-26T12:06:01Z</time>
      </trkpt>
      <trkpt lat="46.06548" lon="6.7632">
        <ele>1248</ele>
        <time>2026-06-26T12:06:02Z</time>
      </trkpt>
      <trkpt lat="46.06548" lon="6.7632">
        <ele>1248</ele>
        <time>2026-06-26T12:06:03Z</time>
      </trkpt>
      <trkpt lat="46.06548" lon="6.76319">
        <ele>1248.1</ele>
        <time>2026-06-26T12:06:04Z</time>
      </trkpt>
      <trkpt lat="46.06548" lon="6.76319">
        <ele>1248</ele>
        <time>2026-06-26T12:06:05Z</time>
      </trkpt>
      <trkpt lat="46.06548" lon="6.76318">
        <ele>1248</ele>
        <time>2026-06-26T12:06:06Z</time>
      </trkpt>
      <trkpt lat="46.06548" lon="6.76317">
        <ele>1248</ele>
        <time>2026-06-26T12:06:07Z</time>
      </trkpt>
      <trkpt lat="46.06548" lon="6.76317">
        <ele>1248</ele>
        <time>2026-06-26T12:06:08Z</time>
      </trkpt>
      <trkpt lat="46.06548" lon="6.76317">
        <ele>1248</ele>
        <time>2026-06-26T12:06:09Z</time>
      </trkpt>
      <trkpt lat="46.06548" lon="6.76317">
        <ele>1247.9</ele>
        <time>2026-06-26T12:06:10Z</time>
      </trkpt>
      <trkpt lat="46.06548" lon="6.76316">
        <ele>1247.9</ele>
        <time>2026-06-26T12:06:11Z</time>
      </trkpt>
      <trkpt lat="46.06548" lon="6.76316">
        <ele>1247.8</ele>
        <time>2026-06-26T12:06:12Z</time>
      </trkpt>
      <trkpt lat="46.06548" lon="6.76317">
        <ele>1247.9</ele>
        <time>2026-06-26T12:06:13Z</time>
      </trkpt>
      <trkpt lat="46.06548" lon="6.76317">
        <ele>1247.9</ele>
        <time>2026-06-26T12:06:14Z</time>
      </trkpt>
      <trkpt lat="46.06548" lon="6.76318">
        <ele>1247.9</ele>
        <time>2026-06-26T12:06:15Z</time>
      </trkpt>
      <trkpt lat="46.06548" lon="6.76318">
        <ele>1247.9</ele>
        <time>2026-06-26T12:06:16Z</time>
      </trkpt>
      <trkpt lat="46.06549" lon="6.76317">
        <ele>1248</ele>
        <time>2026-06-26T12:06:17Z</time>
      </trkpt>
      <trkpt lat="46.06549" lon="6.76317">
        <ele>1248</ele>
        <time>2026-06-26T12:06:18Z</time>
      </trkpt>
      <trkpt lat="46.06549" lon="6.76317">
        <ele>1248</ele>
        <time>2026-06-26T12:06:19Z</time>
      </trkpt>
      <trkpt lat="46.06549" lon="6.7632">
        <ele>1248.1</ele>
        <time>2026-06-26T12:06:20Z</time>
      </trkpt>
      <trkpt lat="46.0655" lon="6.76322">
        <ele>1248.1</ele>
        <time>2026-06-26T12:06:21Z</time>
      </trkpt>
      <trkpt lat="46.0655" lon="6.76322">
        <ele>1248.1</ele>
        <time>2026-06-26T12:06:22Z</time>
      </trkpt>
      <trkpt lat="46.0655" lon="6.76323">
        <ele>1248.1</ele>
        <time>2026-06-26T12:06:23Z</time>
      </trkpt>
      <trkpt lat="46.06551" lon="6.76323">
        <ele>1248.1</ele>
        <time>2026-06-26T12:06:24Z</time>
      </trkpt>
      <trkpt lat="46.06551" lon="6.76324">
        <ele>1248.1</ele>
        <time>2026-06-26T12:06:25Z</time>
      </trkpt>
      <trkpt lat="46.06551" lon="6.76324">
        <ele>1248.1</ele>
        <time>2026-06-26T12:06:26Z</time>
      </trkpt>
      <trkpt lat="46.06551" lon="6.76325">
        <ele>1248</ele>
        <time>2026-06-26T12:06:27Z</time>
      </trkpt>
      <trkpt lat="46.06551" lon="6.76325">
        <ele>1248</ele>
        <time>2026-06-26T12:06:28Z</time>
      </trkpt>
      <trkpt lat="46.06551" lon="6.76325">
        <ele>1248</ele>
        <time>2026-06-26T12:06:29Z</time>
      </trkpt>
      <trkpt lat="46.06551" lon="6.76324">
        <ele>1248</ele>
        <time>2026-06-26T12:06:30Z</time>
      </trkpt>
      <trkpt lat="46.0655" lon="6.76324">
        <ele>1248</ele>
        <time>2026-06-26T12:06:31Z</time>
      </trkpt>
      <trkpt lat="46.0655" lon="6.76324">
        <ele>1248</ele>
        <time>2026-06-26T12:06:32Z</time>
      </trkpt>
      <trkpt lat="46.0655" lon="6.76324">
        <ele>1248</ele>
        <time>2026-06-26T12:06:33Z</time>
      </trkpt>
      <trkpt lat="46.0655" lon="6.76324">
        <ele>1248.1</ele>
        <time>2026-06-26T12:06:34Z</time>
      </trkpt>
      <trkpt lat="46.0655" lon="6.76324">
        <ele>1248.1</ele>
        <time>2026-06-26T12:06:35Z</time>
      </trkpt>
      <trkpt lat="46.0655" lon="6.76324">
        <ele>1248.1</ele>
        <time>2026-06-26T12:06:36Z</time>
      </trkpt>
      <trkpt lat="46.0655" lon="6.76324">
        <ele>1248.1</ele>
        <time>2026-06-26T12:06:37Z</time>
      </trkpt>
      <trkpt lat="46.0655" lon="6.76324">
        <ele>1247.9</ele>
        <time>2026-06-26T12:06:38Z</time>
      </trkpt>
      <trkpt lat="46.0655" lon="6.76324">
        <ele>1247.9</ele>
        <time>2026-06-26T12:06:39Z</time>
      </trkpt>
      <trkpt lat="46.0655" lon="6.76324">
        <ele>1247.8</ele>
        <time>2026-06-26T12:06:40Z</time>
      </trkpt>
      <trkpt lat="46.0655" lon="6.76324">
        <ele>1247.8</ele>
        <time>2026-06-26T12:06:41Z</time>
      </trkpt>
      <trkpt lat="46.06551" lon="6.76325">
        <ele>1247.8</ele>
        <time>2026-06-26T12:06:42Z</time>
      </trkpt>
      <trkpt lat="46.06551" lon="6.76325">
        <ele>1247.8</ele>
        <time>2026-06-26T12:06:43Z</time>
      </trkpt>
      <trkpt lat="46.06551" lon="6.76326">
        <ele>1247.9</ele>
        <time>2026-06-26T12:06:44Z</time>
      </trkpt>
      <trkpt lat="46.06551" lon="6.76327">
        <ele>1247.9</ele>
        <time>2026-06-26T12:06:45Z</time>
      </trkpt>
      <trkpt lat="46.06552" lon="6.76328">
        <ele>1247.9</ele>
        <time>2026-06-26T12:06:46Z</time>
      </trkpt>
      <trkpt lat="46.06552" lon="6.76328">
        <ele>1248</ele>
        <time>2026-06-26T12:06:47Z</time>
      </trkpt>
      <trkpt lat="46.06552" lon="6.76329">
        <ele>1248</ele>
        <time>2026-06-26T12:06:48Z</time>
      </trkpt>
      <trkpt lat="46.06552" lon="6.76329">
        <ele>1248</ele>
        <time>2026-06-26T12:06:49Z</time>
      </trkpt>
      <trkpt lat="46.06553" lon="6.7633">
        <ele>1248</ele>
        <time>2026-06-26T12:06:50Z</time>
      </trkpt>
      <trkpt lat="46.06553" lon="6.7633">
        <ele>1248</ele>
        <time>2026-06-26T12:06:51Z</time>
      </trkpt>
      <trkpt lat="46.06553" lon="6.7633">
        <ele>1248</ele>
        <time>2026-06-26T12:06:52Z</time>
      </trkpt>
      <trkpt lat="46.06553" lon="6.76331">
        <ele>1248</ele>
        <time>2026-06-26T12:06:53Z</time>
      </trkpt>
      <trkpt lat="46.06553" lon="6.76331">
        <ele>1248</ele>
        <time>2026-06-26T12:06:54Z</time>
      </trkpt>
      <trkpt lat="46.06554" lon="6.76331">
        <ele>1248</ele>
        <time>2026-06-26T12:06:55Z</time>
      </trkpt>
      <trkpt lat="46.06554" lon="6.76332">
        <ele>1248.1</ele>
        <time>2026-06-26T12:06:56Z</time>
      </trkpt>
      <trkpt lat="46.06554" lon="6.76331">
        <ele>1248.1</ele>
        <time>2026-06-26T12:06:57Z</time>
      </trkpt>
      <trkpt lat="46.06553" lon="6.76331">
        <ele>1248.1</ele>
        <time>2026-06-26T12:06:58Z</time>
      </trkpt>
      <trkpt lat="46.06553" lon="6.76331">
        <ele>1248.1</ele>
        <time>2026-06-26T12:06:59Z</time>
      </trkpt>
      <trkpt lat="46.06553" lon="6.7633">
        <ele>1248.1</ele>
        <time>2026-06-26T12:07:00Z</time>
      </trkpt>
      <trkpt lat="46.06553" lon="6.76331">
        <ele>1248.1</ele>
        <time>2026-06-26T12:07:01Z</time>
      </trkpt>
      <trkpt lat="46.06554" lon="6.76331">
        <ele>1248.1</ele>
        <time>2026-06-26T12:07:02Z</time>
      </trkpt>
      <trkpt lat="46.06554" lon="6.76332">
        <ele>1248.1</ele>
        <time>2026-06-26T12:07:03Z</time>
      </trkpt>
      <trkpt lat="46.06555" lon="6.76332">
        <ele>1248.1</ele>
        <time>2026-06-26T12:07:04Z</time>
      </trkpt>
      <trkpt lat="46.06555" lon="6.76333">
        <ele>1248.1</ele>
        <time>2026-06-26T12:07:05Z</time>
      </trkpt>
      <trkpt lat="46.06556" lon="6.76333">
        <ele>1248.1</ele>
        <time>2026-06-26T12:07:06Z</time>
      </trkpt>
      <trkpt lat="46.06555" lon="6.76332">
        <ele>1248.1</ele>
        <time>2026-06-26T12:07:07Z</time>
      </trkpt>
      <trkpt lat="46.06555" lon="6.76332">
        <ele>1248.2</ele>
        <time>2026-06-26T12:07:08Z</time>
      </trkpt>
      <trkpt lat="46.06554" lon="6.76332">
        <ele>1248.2</ele>
        <time>2026-06-26T12:07:09Z</time>
      </trkpt>
      <trkpt lat="46.06554" lon="6.76331">
        <ele>1248.1</ele>
        <time>2026-06-26T12:07:10Z</time>
      </trkpt>
      <trkpt lat="46.06553" lon="6.76331">
        <ele>1248.1</ele>
        <time>2026-06-26T12:07:11Z</time>
      </trkpt>
      <trkpt lat="46.06553" lon="6.7633">
        <ele>1248</ele>
        <time>2026-06-26T12:07:12Z</time>
      </trkpt>
      <trkpt lat="46.06553" lon="6.76331">
        <ele>1248</ele>
        <time>2026-06-26T12:07:13Z</time>
      </trkpt>
      <trkpt lat="46.06553" lon="6.76332">
        <ele>1247.9</ele>
        <time>2026-06-26T12:07:14Z</time>
      </trkpt>
      <trkpt lat="46.06553" lon="6.76332">
        <ele>1247.9</ele>
        <time>2026-06-26T12:07:15Z</time>
      </trkpt>
      <trkpt lat="46.06553" lon="6.76332">
        <ele>1247.9</ele>
        <time>2026-06-26T12:07:16Z</time>
      </trkpt>
      <trkpt lat="46.06553" lon="6.76332">
        <ele>1247.9</ele>
        <time>2026-06-26T12:07:17Z</time>
      </trkpt>
      <trkpt lat="46.06553" lon="6.76332">
        <ele>1247.9</ele>
        <time>2026-06-26T12:07:18Z</time>
      </trkpt>
      <trkpt lat="46.06553" lon="6.76332">
        <ele>1247.9</ele>
        <time>2026-06-26T12:07:19Z</time>
      </trkpt>
      <trkpt lat="46.06553" lon="6.76333">
        <ele>1248</ele>
        <time>2026-06-26T12:07:20Z</time>
      </trkpt>
      <trkpt lat="46.06553" lon="6.76333">
        <ele>1248</ele>
        <time>2026-06-26T12:07:21Z</time>
      </trkpt>
      <trkpt lat="46.06553" lon="6.76333">
        <ele>1248</ele>
        <time>2026-06-26T12:07:22Z</time>
      </trkpt>
      <trkpt lat="46.06553" lon="6.76332">
        <ele>1248</ele>
        <time>2026-06-26T12:07:23Z</time>
      </trkpt>
      <trkpt lat="46.06553" lon="6.76332">
        <ele>1248.1</ele>
        <time>2026-06-26T12:07:24Z</time>
      </trkpt>
      <trkpt lat="46.06553" lon="6.76333">
        <ele>1248.1</ele>
        <time>2026-06-26T12:07:25Z</time>
      </trkpt>
      <trkpt lat="46.06553" lon="6.76332">
        <ele>1248.2</ele>
        <time>2026-06-26T12:07:26Z</time>
      </trkpt>
      <trkpt lat="46.06553" lon="6.76332">
        <ele>1248.2</ele>
        <time>2026-06-26T12:07:27Z</time>
      </trkpt>
      <trkpt lat="46.06552" lon="6.76332">
        <ele>1248.1</ele>
        <time>2026-06-26T12:07:28Z</time>
      </trkpt>
      <trkpt lat="46.06551" lon="6.76331">
        <ele>1248.1</ele>
        <time>2026-06-26T12:07:29Z</time>
      </trkpt>
      <trkpt lat="46.06551" lon="6.76329">
        <ele>1248</ele>
        <time>2026-06-26T12:07:30Z</time>
      </trkpt>
      <trkpt lat="46.0655" lon="6.76328">
        <ele>1247.8</ele>
        <time>2026-06-26T12:07:31Z</time>
      </trkpt>
      <trkpt lat="46.0655" lon="6.76327">
        <ele>1247.7</ele>
        <time>2026-06-26T12:07:32Z</time>
      </trkpt>
      <trkpt lat="46.0655" lon="6.76326">
        <ele>1247.5</ele>
        <time>2026-06-26T12:07:33Z</time>
      </trkpt>
      <trkpt lat="46.06551" lon="6.76325">
        <ele>1247.4</ele>
        <time>2026-06-26T12:07:34Z</time>
      </trkpt>
      <trkpt lat="46.06551" lon="6.76325">
        <ele>1247.3</ele>
        <time>2026-06-26T12:07:35Z</time>
      </trkpt>
      <trkpt lat="46.06551" lon="6.76325">
        <ele>1247.2</ele>
        <time>2026-06-26T12:07:36Z</time>
      </trkpt>
      <trkpt lat="46.06552" lon="6.76324">
        <ele>1247.1</ele>
        <time>2026-06-26T12:07:37Z</time>
      </trkpt>
      <trkpt lat="46.06553" lon="6.76323">
        <ele>1246.9</ele>
        <time>2026-06-26T12:07:38Z</time>
      </trkpt>
      <trkpt lat="46.06555" lon="6.76323">
        <ele>1246.8</ele>
        <time>2026-06-26T12:07:39Z</time>
      </trkpt>
      <trkpt lat="46.06556" lon="6.76322">
        <ele>1246.6</ele>
        <time>2026-06-26T12:07:40Z</time>
      </trkpt>
      <trkpt lat="46.06556" lon="6.76322">
        <ele>1246.5</ele>
        <time>2026-06-26T12:07:41Z</time>
      </trkpt>
      <trkpt lat="46.06557" lon="6.76321">
        <ele>1246.2</ele>
        <time>2026-06-26T12:07:42Z</time>
      </trkpt>
      <trkpt lat="46.06557" lon="6.7632">
        <ele>1246.1</ele>
        <time>2026-06-26T12:07:43Z</time>
      </trkpt>
      <trkpt lat="46.06559" lon="6.76321">
        <ele>1245.9</ele>
        <time>2026-06-26T12:07:44Z</time>
      </trkpt>
      <trkpt lat="46.06561" lon="6.76322">
        <ele>1245.8</ele>
        <time>2026-06-26T12:07:45Z</time>
      </trkpt>
      <trkpt lat="46.06562" lon="6.76321">
        <ele>1245.6</ele>
        <time>2026-06-26T12:07:46Z</time>
      </trkpt>
      <trkpt lat="46.06562" lon="6.76318">
        <ele>1245.4</ele>
        <time>2026-06-26T12:07:47Z</time>
      </trkpt>
      <trkpt lat="46.06563" lon="6.76317">
        <ele>1245.2</ele>
        <time>2026-06-26T12:07:48Z</time>
      </trkpt>
      <trkpt lat="46.06564" lon="6.76317">
        <ele>1245</ele>
        <time>2026-06-26T12:07:49Z</time>
      </trkpt>
      <trkpt lat="46.06564" lon="6.76315">
        <ele>1244.8</ele>
        <time>2026-06-26T12:07:50Z</time>
      </trkpt>
      <trkpt lat="46.06565" lon="6.76313">
        <ele>1244.6</ele>
        <time>2026-06-26T12:07:51Z</time>
      </trkpt>
      <trkpt lat="46.06566" lon="6.76311">
        <ele>1244.4</ele>
        <time>2026-06-26T12:07:52Z</time>
      </trkpt>
      <trkpt lat="46.06566" lon="6.76309">
        <ele>1244.2</ele>
        <time>2026-06-26T12:07:53Z</time>
      </trkpt>
      <trkpt lat="46.06567" lon="6.76308">
        <ele>1244</ele>
        <time>2026-06-26T12:07:54Z</time>
      </trkpt>
      <trkpt lat="46.06569" lon="6.76307">
        <ele>1243.8</ele>
        <time>2026-06-26T12:07:55Z</time>
      </trkpt>
      <trkpt lat="46.06569" lon="6.76306">
        <ele>1243.6</ele>
        <time>2026-06-26T12:07:56Z</time>
      </trkpt>
      <trkpt lat="46.0657" lon="6.76305">
        <ele>1243.4</ele>
        <time>2026-06-26T12:07:57Z</time>
      </trkpt>
      <trkpt lat="46.06571" lon="6.76303">
        <ele>1243.2</ele>
        <time>2026-06-26T12:07:58Z</time>
      </trkpt>
      <trkpt lat="46.06572" lon="6.76302">
        <ele>1243</ele>
        <time>2026-06-26T12:07:59Z</time>
      </trkpt>
      <trkpt lat="46.06572" lon="6.763">
        <ele>1242.8</ele>
        <time>2026-06-26T12:08:00Z</time>
      </trkpt>
      <trkpt lat="46.06573" lon="6.76299">
        <ele>1242.8</ele>
        <time>2026-06-26T12:08:01Z</time>
      </trkpt>
      <trkpt lat="46.06574" lon="6.76298">
        <ele>1242.7</ele>
        <time>2026-06-26T12:08:02Z</time>
      </trkpt>
      <trkpt lat="46.06574" lon="6.76297">
        <ele>1242.5</ele>
        <time>2026-06-26T12:08:03Z</time>
      </trkpt>
      <trkpt lat="46.06575" lon="6.76295">
        <ele>1242.4</ele>
        <time>2026-06-26T12:08:04Z</time>
      </trkpt>
      <trkpt lat="46.06575" lon="6.76295">
        <ele>1242.3</ele>
        <time>2026-06-26T12:08:05Z</time>
      </trkpt>
      <trkpt lat="46.06576" lon="6.76294">
        <ele>1242.1</ele>
        <time>2026-06-26T12:08:06Z</time>
      </trkpt>
      <trkpt lat="46.06576" lon="6.76293">
        <ele>1241.9</ele>
        <time>2026-06-26T12:08:07Z</time>
      </trkpt>
      <trkpt lat="46.06575" lon="6.76293">
        <ele>1241.8</ele>
        <time>2026-06-26T12:08:08Z</time>
      </trkpt>
      <trkpt lat="46.06575" lon="6.76293">
        <ele>1241.7</ele>
        <time>2026-06-26T12:08:09Z</time>
      </trkpt>
      <trkpt lat="46.06575" lon="6.76292">
        <ele>1241.6</ele>
        <time>2026-06-26T12:08:10Z</time>
      </trkpt>
      <trkpt lat="46.06576" lon="6.76291">
        <ele>1241.6</ele>
        <time>2026-06-26T12:08:11Z</time>
      </trkpt>
      <trkpt lat="46.06576" lon="6.76289">
        <ele>1241.5</ele>
        <time>2026-06-26T12:08:12Z</time>
      </trkpt>
      <trkpt lat="46.06576" lon="6.76289">
        <ele>1241.3</ele>
        <time>2026-06-26T12:08:13Z</time>
      </trkpt>
      <trkpt lat="46.06576" lon="6.76288">
        <ele>1241.2</ele>
        <time>2026-06-26T12:08:14Z</time>
      </trkpt>
      <trkpt lat="46.06576" lon="6.76288">
        <ele>1241.2</ele>
        <time>2026-06-26T12:08:15Z</time>
      </trkpt>
      <trkpt lat="46.06576" lon="6.76288">
        <ele>1241</ele>
        <time>2026-06-26T12:08:16Z</time>
      </trkpt>
      <trkpt lat="46.06575" lon="6.76288">
        <ele>1240.9</ele>
        <time>2026-06-26T12:08:17Z</time>
      </trkpt>
      <trkpt lat="46.06575" lon="6.76288">
        <ele>1240.9</ele>
        <time>2026-06-26T12:08:18Z</time>
      </trkpt>
      <trkpt lat="46.06575" lon="6.76288">
        <ele>1240.8</ele>
        <time>2026-06-26T12:08:19Z</time>
      </trkpt>
      <trkpt lat="46.06575" lon="6.76287">
        <ele>1240.7</ele>
        <time>2026-06-26T12:08:20Z</time>
      </trkpt>
      <trkpt lat="46.06575" lon="6.76287">
        <ele>1240.6</ele>
        <time>2026-06-26T12:08:21Z</time>
      </trkpt>
      <trkpt lat="46.06575" lon="6.76286">
        <ele>1240.5</ele>
        <time>2026-06-26T12:08:22Z</time>
      </trkpt>
      <trkpt lat="46.06575" lon="6.76285">
        <ele>1240.5</ele>
        <time>2026-06-26T12:08:23Z</time>
      </trkpt>
      <trkpt lat="46.06575" lon="6.76284">
        <ele>1240.4</ele>
        <time>2026-06-26T12:08:24Z</time>
      </trkpt>
      <trkpt lat="46.06575" lon="6.76283">
        <ele>1240.4</ele>
        <time>2026-06-26T12:08:25Z</time>
      </trkpt>
      <trkpt lat="46.06576" lon="6.76282">
        <ele>1240.4</ele>
        <time>2026-06-26T12:08:26Z</time>
      </trkpt>
      <trkpt lat="46.06576" lon="6.76281">
        <ele>1240.3</ele>
        <time>2026-06-26T12:08:27Z</time>
      </trkpt>
      <trkpt lat="46.06576" lon="6.7628">
        <ele>1240.3</ele>
        <time>2026-06-26T12:08:28Z</time>
      </trkpt>
      <trkpt lat="46.06576" lon="6.76278">
        <ele>1240.3</ele>
        <time>2026-06-26T12:08:29Z</time>
      </trkpt>
      <trkpt lat="46.06576" lon="6.76277">
        <ele>1240.1</ele>
        <time>2026-06-26T12:08:30Z</time>
      </trkpt>
      <trkpt lat="46.06576" lon="6.76276">
        <ele>1240</ele>
        <time>2026-06-26T12:08:31Z</time>
      </trkpt>
      <trkpt lat="46.06576" lon="6.76275">
        <ele>1239.9</ele>
        <time>2026-06-26T12:08:32Z</time>
      </trkpt>
      <trkpt lat="46.06575" lon="6.76273">
        <ele>1239.8</ele>
        <time>2026-06-26T12:08:33Z</time>
      </trkpt>
      <trkpt lat="46.06575" lon="6.76272">
        <ele>1239.6</ele>
        <time>2026-06-26T12:08:34Z</time>
      </trkpt>
      <trkpt lat="46.06575" lon="6.76271">
        <ele>1239.5</ele>
        <time>2026-06-26T12:08:35Z</time>
      </trkpt>
      <trkpt lat="46.06575" lon="6.7627">
        <ele>1239.3</ele>
        <time>2026-06-26T12:08:36Z</time>
      </trkpt>
      <trkpt lat="46.06575" lon="6.76269">
        <ele>1239.2</ele>
        <time>2026-06-26T12:08:37Z</time>
      </trkpt>
      <trkpt lat="46.06575" lon="6.76268">
        <ele>1239.1</ele>
        <time>2026-06-26T12:08:38Z</time>
      </trkpt>
      <trkpt lat="46.06575" lon="6.76267">
        <ele>1238.9</ele>
        <time>2026-06-26T12:08:39Z</time>
      </trkpt>
      <trkpt lat="46.06575" lon="6.76266">
        <ele>1238.7</ele>
        <time>2026-06-26T12:08:40Z</time>
      </trkpt>
      <trkpt lat="46.06574" lon="6.76265">
        <ele>1238.6</ele>
        <time>2026-06-26T12:08:41Z</time>
      </trkpt>
      <trkpt lat="46.06574" lon="6.76263">
        <ele>1238.5</ele>
        <time>2026-06-26T12:08:42Z</time>
      </trkpt>
      <trkpt lat="46.06575" lon="6.76262">
        <ele>1238.2</ele>
        <time>2026-06-26T12:08:43Z</time>
      </trkpt>
      <trkpt lat="46.06575" lon="6.7626">
        <ele>1238</ele>
        <time>2026-06-26T12:08:44Z</time>
      </trkpt>
      <trkpt lat="46.06575" lon="6.76259">
        <ele>1238</ele>
        <time>2026-06-26T12:08:45Z</time>
      </trkpt>
      <trkpt lat="46.06575" lon="6.76257">
        <ele>1237.9</ele>
        <time>2026-06-26T12:08:46Z</time>
      </trkpt>
      <trkpt lat="46.06576" lon="6.76256">
        <ele>1237.8</ele>
        <time>2026-06-26T12:08:47Z</time>
      </trkpt>
      <trkpt lat="46.06576" lon="6.76254">
        <ele>1237.7</ele>
        <time>2026-06-26T12:08:48Z</time>
      </trkpt>
      <trkpt lat="46.06576" lon="6.76253">
        <ele>1237.6</ele>
        <time>2026-06-26T12:08:49Z</time>
      </trkpt>
      <trkpt lat="46.06577" lon="6.76252">
        <ele>1237.6</ele>
        <time>2026-06-26T12:08:50Z</time>
      </trkpt>
      <trkpt lat="46.06578" lon="6.76251">
        <ele>1237.4</ele>
        <time>2026-06-26T12:08:51Z</time>
      </trkpt>
      <trkpt lat="46.06578" lon="6.7625">
        <ele>1237.3</ele>
        <time>2026-06-26T12:08:52Z</time>
      </trkpt>
      <trkpt lat="46.06578" lon="6.76248">
        <ele>1237.1</ele>
        <time>2026-06-26T12:08:53Z</time>
      </trkpt>
      <trkpt lat="46.06579" lon="6.76246">
        <ele>1237</ele>
        <time>2026-06-26T12:08:54Z</time>
      </trkpt>
      <trkpt lat="46.0658" lon="6.76246">
        <ele>1236.8</ele>
        <time>2026-06-26T12:08:55Z</time>
      </trkpt>
      <trkpt lat="46.0658" lon="6.76244">
        <ele>1236.8</ele>
        <time>2026-06-26T12:08:56Z</time>
      </trkpt>
      <trkpt lat="46.0658" lon="6.76242">
        <ele>1236.7</ele>
        <time>2026-06-26T12:08:57Z</time>
      </trkpt>
      <trkpt lat="46.0658" lon="6.76241">
        <ele>1236.6</ele>
        <time>2026-06-26T12:08:58Z</time>
      </trkpt>
      <trkpt lat="46.0658" lon="6.76241">
        <ele>1236.4</ele>
        <time>2026-06-26T12:08:59Z</time>
      </trkpt>
      <trkpt lat="46.0658" lon="6.7624">
        <ele>1236.3</ele>
        <time>2026-06-26T12:09:00Z</time>
      </trkpt>
      <trkpt lat="46.0658" lon="6.76241">
        <ele>1236.2</ele>
        <time>2026-06-26T12:09:01Z</time>
      </trkpt>
      <trkpt lat="46.0658" lon="6.76241">
        <ele>1236.2</ele>
        <time>2026-06-26T12:09:02Z</time>
      </trkpt>
      <trkpt lat="46.0658" lon="6.76241">
        <ele>1236.3</ele>
        <time>2026-06-26T12:09:03Z</time>
      </trkpt>
      <trkpt lat="46.0658" lon="6.76241">
        <ele>1236.3</ele>
        <time>2026-06-26T12:09:04Z</time>
      </trkpt>
      <trkpt lat="46.0658" lon="6.76241">
        <ele>1236.3</ele>
        <time>2026-06-26T12:09:05Z</time>
      </trkpt>
      <trkpt lat="46.0658" lon="6.76241">
        <ele>1236.3</ele>
        <time>2026-06-26T12:09:06Z</time>
      </trkpt>
      <trkpt lat="46.0658" lon="6.76242">
        <ele>1236.2</ele>
        <time>2026-06-26T12:09:07Z</time>
      </trkpt>
      <trkpt lat="46.06581" lon="6.76241">
        <ele>1236.3</ele>
        <time>2026-06-26T12:09:08Z</time>
      </trkpt>
      <trkpt lat="46.06581" lon="6.76241">
        <ele>1236.3</ele>
        <time>2026-06-26T12:09:09Z</time>
      </trkpt>
      <trkpt lat="46.06581" lon="6.76241">
        <ele>1236.4</ele>
        <time>2026-06-26T12:09:10Z</time>
      </trkpt>
      <trkpt lat="46.06581" lon="6.76241">
        <ele>1236.4</ele>
        <time>2026-06-26T12:09:11Z</time>
      </trkpt>
      <trkpt lat="46.06581" lon="6.76241">
        <ele>1236.4</ele>
        <time>2026-06-26T12:09:12Z</time>
      </trkpt>
      <trkpt lat="46.06581" lon="6.76241">
        <ele>1236.4</ele>
        <time>2026-06-26T12:09:13Z</time>
      </trkpt>
      <trkpt lat="46.06582" lon="6.76241">
        <ele>1236.4</ele>
        <time>2026-06-26T12:09:14Z</time>
      </trkpt>
      <trkpt lat="46.06582" lon="6.76241">
        <ele>1236.5</ele>
        <time>2026-06-26T12:09:15Z</time>
      </trkpt>
      <trkpt lat="46.06582" lon="6.76241">
        <ele>1236.5</ele>
        <time>2026-06-26T12:09:16Z</time>
      </trkpt>
      <trkpt lat="46.06582" lon="6.76242">
        <ele>1236.5</ele>
        <time>2026-06-26T12:09:17Z</time>
      </trkpt>
      <trkpt lat="46.06582" lon="6.76242">
        <ele>1236.5</ele>
        <time>2026-06-26T12:09:18Z</time>
      </trkpt>
      <trkpt lat="46.06582" lon="6.76242">
        <ele>1236.5</ele>
        <time>2026-06-26T12:09:19Z</time>
      </trkpt>
      <trkpt lat="46.06583" lon="6.76242">
        <ele>1236.5</ele>
        <time>2026-06-26T12:09:20Z</time>
      </trkpt>
      <trkpt lat="46.06583" lon="6.76241">
        <ele>1236.4</ele>
        <time>2026-06-26T12:09:21Z</time>
      </trkpt>
      <trkpt lat="46.06584" lon="6.76241">
        <ele>1236.4</ele>
        <time>2026-06-26T12:09:22Z</time>
      </trkpt>
      <trkpt lat="46.06584" lon="6.7624">
        <ele>1236.4</ele>
        <time>2026-06-26T12:09:23Z</time>
      </trkpt>
      <trkpt lat="46.06584" lon="6.7624">
        <ele>1236.4</ele>
        <time>2026-06-26T12:09:24Z</time>
      </trkpt>
      <trkpt lat="46.06585" lon="6.7624">
        <ele>1236.3</ele>
        <time>2026-06-26T12:09:25Z</time>
      </trkpt>
      <trkpt lat="46.06585" lon="6.7624">
        <ele>1236.3</ele>
        <time>2026-06-26T12:09:26Z</time>
      </trkpt>
      <trkpt lat="46.06585" lon="6.7624">
        <ele>1236.3</ele>
        <time>2026-06-26T12:09:27Z</time>
      </trkpt>
      <trkpt lat="46.06586" lon="6.7624">
        <ele>1236.4</ele>
        <time>2026-06-26T12:09:28Z</time>
      </trkpt>
      <trkpt lat="46.06587" lon="6.76239">
        <ele>1236.3</ele>
        <time>2026-06-26T12:09:29Z</time>
      </trkpt>
      <trkpt lat="46.06588" lon="6.76238">
        <ele>1236.1</ele>
        <time>2026-06-26T12:09:30Z</time>
      </trkpt>
      <trkpt lat="46.06588" lon="6.76237">
        <ele>1235.9</ele>
        <time>2026-06-26T12:09:31Z</time>
      </trkpt>
      <trkpt lat="46.06589" lon="6.76235">
        <ele>1235.8</ele>
        <time>2026-06-26T12:09:32Z</time>
      </trkpt>
      <trkpt lat="46.0659" lon="6.76234">
        <ele>1235.7</ele>
        <time>2026-06-26T12:09:33Z</time>
      </trkpt>
      <trkpt lat="46.06591" lon="6.76233">
        <ele>1235.5</ele>
        <time>2026-06-26T12:09:34Z</time>
      </trkpt>
      <trkpt lat="46.06592" lon="6.76231">
        <ele>1235.3</ele>
        <time>2026-06-26T12:09:35Z</time>
      </trkpt>
      <trkpt lat="46.06593" lon="6.7623">
        <ele>1235.2</ele>
        <time>2026-06-26T12:09:36Z</time>
      </trkpt>
      <trkpt lat="46.06593" lon="6.76229">
        <ele>1235.1</ele>
        <time>2026-06-26T12:09:37Z</time>
      </trkpt>
      <trkpt lat="46.06594" lon="6.76227">
        <ele>1235</ele>
        <time>2026-06-26T12:09:38Z</time>
      </trkpt>
      <trkpt lat="46.06594" lon="6.76226">
        <ele>1234.8</ele>
        <time>2026-06-26T12:09:39Z</time>
      </trkpt>
      <trkpt lat="46.06595" lon="6.76224">
        <ele>1234.6</ele>
        <time>2026-06-26T12:09:40Z</time>
      </trkpt>
      <trkpt lat="46.06595" lon="6.76223">
        <ele>1234.4</ele>
        <time>2026-06-26T12:09:41Z</time>
      </trkpt>
      <trkpt lat="46.06596" lon="6.76222">
        <ele>1234.3</ele>
        <time>2026-06-26T12:09:42Z</time>
      </trkpt>
      <trkpt lat="46.06596" lon="6.7622">
        <ele>1234.1</ele>
        <time>2026-06-26T12:09:43Z</time>
      </trkpt>
      <trkpt lat="46.06596" lon="6.76218">
        <ele>1233.9</ele>
        <time>2026-06-26T12:09:44Z</time>
      </trkpt>
      <trkpt lat="46.06596" lon="6.76216">
        <ele>1233.8</ele>
        <time>2026-06-26T12:09:45Z</time>
      </trkpt>
      <trkpt lat="46.06596" lon="6.76215">
        <ele>1233.6</ele>
        <time>2026-06-26T12:09:46Z</time>
      </trkpt>
      <trkpt lat="46.06596" lon="6.76213">
        <ele>1233.5</ele>
        <time>2026-06-26T12:09:47Z</time>
      </trkpt>
      <trkpt lat="46.06596" lon="6.76211">
        <ele>1233.4</ele>
        <time>2026-06-26T12:09:48Z</time>
      </trkpt>
      <trkpt lat="46.06596" lon="6.7621">
        <ele>1233.2</ele>
        <time>2026-06-26T12:09:49Z</time>
      </trkpt>
      <trkpt lat="46.06596" lon="6.76208">
        <ele>1233</ele>
        <time>2026-06-26T12:09:50Z</time>
      </trkpt>
      <trkpt lat="46.06596" lon="6.76207">
        <ele>1232.8</ele>
        <time>2026-06-26T12:09:51Z</time>
      </trkpt>
      <trkpt lat="46.06595" lon="6.76205">
        <ele>1232.7</ele>
        <time>2026-06-26T12:09:52Z</time>
      </trkpt>
      <trkpt lat="46.06595" lon="6.76204">
        <ele>1232.6</ele>
        <time>2026-06-26T12:09:53Z</time>
      </trkpt>
      <trkpt lat="46.06595" lon="6.76202">
        <ele>1232.4</ele>
        <time>2026-06-26T12:09:54Z</time>
      </trkpt>
      <trkpt lat="46.06595" lon="6.76201">
        <ele>1232.2</ele>
        <time>2026-06-26T12:09:55Z</time>
      </trkpt>
      <trkpt lat="46.06594" lon="6.76199">
        <ele>1231.9</ele>
        <time>2026-06-26T12:09:56Z</time>
      </trkpt>
      <trkpt lat="46.06594" lon="6.76197">
        <ele>1231.7</ele>
        <time>2026-06-26T12:09:57Z</time>
      </trkpt>
      <trkpt lat="46.06594" lon="6.76196">
        <ele>1231.5</ele>
        <time>2026-06-26T12:09:58Z</time>
      </trkpt>
      <trkpt lat="46.06594" lon="6.76194">
        <ele>1231.3</ele>
        <time>2026-06-26T12:09:59Z</time>
      </trkpt>
      <trkpt lat="46.06594" lon="6.76192">
        <ele>1231.1</ele>
        <time>2026-06-26T12:10:00Z</time>
      </trkpt>
      <trkpt lat="46.06593" lon="6.7619">
        <ele>1230.8</ele>
        <time>2026-06-26T12:10:01Z</time>
      </trkpt>
      <trkpt lat="46.06593" lon="6.76188">
        <ele>1230.5</ele>
        <time>2026-06-26T12:10:02Z</time>
      </trkpt>
      <trkpt lat="46.06593" lon="6.76187">
        <ele>1230.3</ele>
        <time>2026-06-26T12:10:03Z</time>
      </trkpt>
      <trkpt lat="46.06592" lon="6.76185">
        <ele>1230.3</ele>
        <time>2026-06-26T12:10:04Z</time>
      </trkpt>
      <trkpt lat="46.06592" lon="6.76183">
        <ele>1230.1</ele>
        <time>2026-06-26T12:10:05Z</time>
      </trkpt>
      <trkpt lat="46.06592" lon="6.76181">
        <ele>1229.9</ele>
        <time>2026-06-26T12:10:06Z</time>
      </trkpt>
      <trkpt lat="46.06592" lon="6.7618">
        <ele>1229.7</ele>
        <time>2026-06-26T12:10:07Z</time>
      </trkpt>
      <trkpt lat="46.06592" lon="6.76178">
        <ele>1229.6</ele>
        <time>2026-06-26T12:10:08Z</time>
      </trkpt>
      <trkpt lat="46.06592" lon="6.76176">
        <ele>1229.4</ele>
        <time>2026-06-26T12:10:09Z</time>
      </trkpt>
      <trkpt lat="46.06593" lon="6.76174">
        <ele>1229.2</ele>
        <time>2026-06-26T12:10:10Z</time>
      </trkpt>
      <trkpt lat="46.06593" lon="6.76173">
        <ele>1229</ele>
        <time>2026-06-26T12:10:11Z</time>
      </trkpt>
      <trkpt lat="46.06594" lon="6.76172">
        <ele>1228.9</ele>
        <time>2026-06-26T12:10:12Z</time>
      </trkpt>
      <trkpt lat="46.06594" lon="6.7617">
        <ele>1228.8</ele>
        <time>2026-06-26T12:10:13Z</time>
      </trkpt>
      <trkpt lat="46.06595" lon="6.76168">
        <ele>1228.7</ele>
        <time>2026-06-26T12:10:14Z</time>
      </trkpt>
      <trkpt lat="46.06595" lon="6.76166">
        <ele>1228.5</ele>
        <time>2026-06-26T12:10:15Z</time>
      </trkpt>
      <trkpt lat="46.06595" lon="6.76165">
        <ele>1228.3</ele>
        <time>2026-06-26T12:10:16Z</time>
      </trkpt>
      <trkpt lat="46.06595" lon="6.76163">
        <ele>1228.2</ele>
        <time>2026-06-26T12:10:17Z</time>
      </trkpt>
      <trkpt lat="46.06596" lon="6.76162">
        <ele>1227.9</ele>
        <time>2026-06-26T12:10:18Z</time>
      </trkpt>
      <trkpt lat="46.06596" lon="6.7616">
        <ele>1227.6</ele>
        <time>2026-06-26T12:10:19Z</time>
      </trkpt>
      <trkpt lat="46.06596" lon="6.76158">
        <ele>1227.4</ele>
        <time>2026-06-26T12:10:20Z</time>
      </trkpt>
      <trkpt lat="46.06596" lon="6.76156">
        <ele>1227</ele>
        <time>2026-06-26T12:10:21Z</time>
      </trkpt>
      <trkpt lat="46.06597" lon="6.76154">
        <ele>1226.8</ele>
        <time>2026-06-26T12:10:22Z</time>
      </trkpt>
      <trkpt lat="46.06597" lon="6.76152">
        <ele>1226.7</ele>
        <time>2026-06-26T12:10:23Z</time>
      </trkpt>
      <trkpt lat="46.06597" lon="6.76151">
        <ele>1226.5</ele>
        <time>2026-06-26T12:10:24Z</time>
      </trkpt>
      <trkpt lat="46.06598" lon="6.7615">
        <ele>1226.3</ele>
        <time>2026-06-26T12:10:25Z</time>
      </trkpt>
      <trkpt lat="46.06599" lon="6.76148">
        <ele>1226.1</ele>
        <time>2026-06-26T12:10:26Z</time>
      </trkpt>
      <trkpt lat="46.06599" lon="6.76147">
        <ele>1226</ele>
        <time>2026-06-26T12:10:27Z</time>
      </trkpt>
      <trkpt lat="46.066" lon="6.76145">
        <ele>1225.8</ele>
        <time>2026-06-26T12:10:28Z</time>
      </trkpt>
      <trkpt lat="46.066" lon="6.76144">
        <ele>1225.6</ele>
        <time>2026-06-26T12:10:29Z</time>
      </trkpt>
      <trkpt lat="46.06601" lon="6.76143">
        <ele>1225.5</ele>
        <time>2026-06-26T12:10:30Z</time>
      </trkpt>
      <trkpt lat="46.06601" lon="6.76141">
        <ele>1225.3</ele>
        <time>2026-06-26T12:10:31Z</time>
      </trkpt>
      <trkpt lat="46.06602" lon="6.76139">
        <ele>1225.2</ele>
        <time>2026-06-26T12:10:32Z</time>
      </trkpt>
      <trkpt lat="46.06602" lon="6.76138">
        <ele>1224.9</ele>
        <time>2026-06-26T12:10:33Z</time>
      </trkpt>
      <trkpt lat="46.06602" lon="6.76136">
        <ele>1224.8</ele>
        <time>2026-06-26T12:10:34Z</time>
      </trkpt>
      <trkpt lat="46.06603" lon="6.76135">
        <ele>1224.6</ele>
        <time>2026-06-26T12:10:35Z</time>
      </trkpt>
      <trkpt lat="46.06604" lon="6.76133">
        <ele>1224.4</ele>
        <time>2026-06-26T12:10:36Z</time>
      </trkpt>
      <trkpt lat="46.06604" lon="6.76132">
        <ele>1224.3</ele>
        <time>2026-06-26T12:10:37Z</time>
      </trkpt>
      <trkpt lat="46.06605" lon="6.76131">
        <ele>1224.2</ele>
        <time>2026-06-26T12:10:38Z</time>
      </trkpt>
      <trkpt lat="46.06605" lon="6.76129">
        <ele>1223.9</ele>
        <time>2026-06-26T12:10:39Z</time>
      </trkpt>
      <trkpt lat="46.06606" lon="6.76128">
        <ele>1223.7</ele>
        <time>2026-06-26T12:10:40Z</time>
      </trkpt>
      <trkpt lat="46.06606" lon="6.76126">
        <ele>1223.6</ele>
        <time>2026-06-26T12:10:41Z</time>
      </trkpt>
      <trkpt lat="46.06607" lon="6.76125">
        <ele>1223.4</ele>
        <time>2026-06-26T12:10:42Z</time>
      </trkpt>
      <trkpt lat="46.06607" lon="6.76124">
        <ele>1223.2</ele>
        <time>2026-06-26T12:10:43Z</time>
      </trkpt>
      <trkpt lat="46.06608" lon="6.76122">
        <ele>1223.1</ele>
        <time>2026-06-26T12:10:44Z</time>
      </trkpt>
      <trkpt lat="46.06609" lon="6.76121">
        <ele>1222.9</ele>
        <time>2026-06-26T12:10:45Z</time>
      </trkpt>
      <trkpt lat="46.0661" lon="6.7612">
        <ele>1222.7</ele>
        <time>2026-06-26T12:10:46Z</time>
      </trkpt>
      <trkpt lat="46.06611" lon="6.76119">
        <ele>1222.5</ele>
        <time>2026-06-26T12:10:47Z</time>
      </trkpt>
      <trkpt lat="46.06612" lon="6.76118">
        <ele>1222.3</ele>
        <time>2026-06-26T12:10:48Z</time>
      </trkpt>
      <trkpt lat="46.06613" lon="6.76117">
        <ele>1222.2</ele>
        <time>2026-06-26T12:10:49Z</time>
      </trkpt>
      <trkpt lat="46.06615" lon="6.76116">
        <ele>1222</ele>
        <time>2026-06-26T12:10:50Z</time>
      </trkpt>
      <trkpt lat="46.06615" lon="6.76115">
        <ele>1221.8</ele>
        <time>2026-06-26T12:10:51Z</time>
      </trkpt>
      <trkpt lat="46.06617" lon="6.76115">
        <ele>1221.7</ele>
        <time>2026-06-26T12:10:52Z</time>
      </trkpt>
      <trkpt lat="46.06618" lon="6.76114">
        <ele>1221.5</ele>
        <time>2026-06-26T12:10:53Z</time>
      </trkpt>
      <trkpt lat="46.06618" lon="6.76113">
        <ele>1221.3</ele>
        <time>2026-06-26T12:10:54Z</time>
      </trkpt>
      <trkpt lat="46.06619" lon="6.76112">
        <ele>1221</ele>
        <time>2026-06-26T12:10:55Z</time>
      </trkpt>
      <trkpt lat="46.0662" lon="6.76112">
        <ele>1220.8</ele>
        <time>2026-06-26T12:10:56Z</time>
      </trkpt>
      <trkpt lat="46.06622" lon="6.76111">
        <ele>1220.6</ele>
        <time>2026-06-26T12:10:57Z</time>
      </trkpt>
      <trkpt lat="46.06623" lon="6.76111">
        <ele>1220.4</ele>
        <time>2026-06-26T12:10:58Z</time>
      </trkpt>
      <trkpt lat="46.06624" lon="6.7611">
        <ele>1220.2</ele>
        <time>2026-06-26T12:10:59Z</time>
      </trkpt>
      <trkpt lat="46.06625" lon="6.7611">
        <ele>1220.3</ele>
        <time>2026-06-26T12:11:00Z</time>
      </trkpt>
      <trkpt lat="46.06626" lon="6.76109">
        <ele>1220</ele>
        <time>2026-06-26T12:11:01Z</time>
      </trkpt>
      <trkpt lat="46.06627" lon="6.76109">
        <ele>1219.8</ele>
        <time>2026-06-26T12:11:02Z</time>
      </trkpt>
      <trkpt lat="46.06627" lon="6.76107">
        <ele>1219.5</ele>
        <time>2026-06-26T12:11:03Z</time>
      </trkpt>
      <trkpt lat="46.06628" lon="6.76107">
        <ele>1219.3</ele>
        <time>2026-06-26T12:11:04Z</time>
      </trkpt>
      <trkpt lat="46.06629" lon="6.76105">
        <ele>1219.2</ele>
        <time>2026-06-26T12:11:05Z</time>
      </trkpt>
      <trkpt lat="46.06629" lon="6.76104">
        <ele>1219</ele>
        <time>2026-06-26T12:11:06Z</time>
      </trkpt>
      <trkpt lat="46.0663" lon="6.76102">
        <ele>1218.8</ele>
        <time>2026-06-26T12:11:07Z</time>
      </trkpt>
      <trkpt lat="46.06631" lon="6.76101">
        <ele>1218.5</ele>
        <time>2026-06-26T12:11:08Z</time>
      </trkpt>
      <trkpt lat="46.06631" lon="6.76099">
        <ele>1218.3</ele>
        <time>2026-06-26T12:11:09Z</time>
      </trkpt>
      <trkpt lat="46.06631" lon="6.76098">
        <ele>1218</ele>
        <time>2026-06-26T12:11:10Z</time>
      </trkpt>
      <trkpt lat="46.06631" lon="6.76096">
        <ele>1217.8</ele>
        <time>2026-06-26T12:11:11Z</time>
      </trkpt>
      <trkpt lat="46.06632" lon="6.76094">
        <ele>1217.6</ele>
        <time>2026-06-26T12:11:12Z</time>
      </trkpt>
      <trkpt lat="46.06631" lon="6.76093">
        <ele>1217.5</ele>
        <time>2026-06-26T12:11:13Z</time>
      </trkpt>
      <trkpt lat="46.06631" lon="6.76092">
        <ele>1217.3</ele>
        <time>2026-06-26T12:11:14Z</time>
      </trkpt>
      <trkpt lat="46.06631" lon="6.7609">
        <ele>1217</ele>
        <time>2026-06-26T12:11:15Z</time>
      </trkpt>
      <trkpt lat="46.06631" lon="6.76088">
        <ele>1216.9</ele>
        <time>2026-06-26T12:11:16Z</time>
      </trkpt>
      <trkpt lat="46.06631" lon="6.76087">
        <ele>1216.8</ele>
        <time>2026-06-26T12:11:17Z</time>
      </trkpt>
      <trkpt lat="46.06631" lon="6.76085">
        <ele>1216.7</ele>
        <time>2026-06-26T12:11:18Z</time>
      </trkpt>
      <trkpt lat="46.0663" lon="6.76084">
        <ele>1216.6</ele>
        <time>2026-06-26T12:11:19Z</time>
      </trkpt>
      <trkpt lat="46.0663" lon="6.76082">
        <ele>1216.4</ele>
        <time>2026-06-26T12:11:20Z</time>
      </trkpt>
      <trkpt lat="46.0663" lon="6.7608">
        <ele>1216.3</ele>
        <time>2026-06-26T12:11:21Z</time>
      </trkpt>
      <trkpt lat="46.06629" lon="6.76078">
        <ele>1216.2</ele>
        <time>2026-06-26T12:11:22Z</time>
      </trkpt>
      <trkpt lat="46.06629" lon="6.76077">
        <ele>1216</ele>
        <time>2026-06-26T12:11:23Z</time>
      </trkpt>
      <trkpt lat="46.06628" lon="6.76076">
        <ele>1215.9</ele>
        <time>2026-06-26T12:11:24Z</time>
      </trkpt>
      <trkpt lat="46.06627" lon="6.76074">
        <ele>1215.8</ele>
        <time>2026-06-26T12:11:25Z</time>
      </trkpt>
      <trkpt lat="46.06626" lon="6.76073">
        <ele>1215.7</ele>
        <time>2026-06-26T12:11:26Z</time>
      </trkpt>
      <trkpt lat="46.06625" lon="6.76072">
        <ele>1215.6</ele>
        <time>2026-06-26T12:11:27Z</time>
      </trkpt>
      <trkpt lat="46.06624" lon="6.76072">
        <ele>1215.4</ele>
        <time>2026-06-26T12:11:28Z</time>
      </trkpt>
      <trkpt lat="46.06623" lon="6.76071">
        <ele>1215.3</ele>
        <time>2026-06-26T12:11:29Z</time>
      </trkpt>
      <trkpt lat="46.06623" lon="6.76071">
        <ele>1215.2</ele>
        <time>2026-06-26T12:11:30Z</time>
      </trkpt>
      <trkpt lat="46.06622" lon="6.7607">
        <ele>1215.1</ele>
        <time>2026-06-26T12:11:31Z</time>
      </trkpt>
      <trkpt lat="46.06621" lon="6.7607">
        <ele>1215</ele>
        <time>2026-06-26T12:11:32Z</time>
      </trkpt>
      <trkpt lat="46.0662" lon="6.7607">
        <ele>1214.8</ele>
        <time>2026-06-26T12:11:33Z</time>
      </trkpt>
      <trkpt lat="46.06619" lon="6.7607">
        <ele>1214.7</ele>
        <time>2026-06-26T12:11:34Z</time>
      </trkpt>
      <trkpt lat="46.06618" lon="6.7607">
        <ele>1214.6</ele>
        <time>2026-06-26T12:11:35Z</time>
      </trkpt>
      <trkpt lat="46.06617" lon="6.7607">
        <ele>1214.3</ele>
        <time>2026-06-26T12:11:36Z</time>
      </trkpt>
      <trkpt lat="46.06616" lon="6.7607">
        <ele>1214.2</ele>
        <time>2026-06-26T12:11:37Z</time>
      </trkpt>
      <trkpt lat="46.06615" lon="6.7607">
        <ele>1214</ele>
        <time>2026-06-26T12:11:38Z</time>
      </trkpt>
      <trkpt lat="46.06614" lon="6.7607">
        <ele>1213.9</ele>
        <time>2026-06-26T12:11:39Z</time>
      </trkpt>
      <trkpt lat="46.06613" lon="6.7607">
        <ele>1213.9</ele>
        <time>2026-06-26T12:11:40Z</time>
      </trkpt>
      <trkpt lat="46.06612" lon="6.7607">
        <ele>1213.9</ele>
        <time>2026-06-26T12:11:41Z</time>
      </trkpt>
      <trkpt lat="46.06611" lon="6.7607">
        <ele>1213.9</ele>
        <time>2026-06-26T12:11:42Z</time>
      </trkpt>
      <trkpt lat="46.0661" lon="6.7607">
        <ele>1213.8</ele>
        <time>2026-06-26T12:11:43Z</time>
      </trkpt>
      <trkpt lat="46.06609" lon="6.7607">
        <ele>1213.7</ele>
        <time>2026-06-26T12:11:44Z</time>
      </trkpt>
      <trkpt lat="46.06608" lon="6.7607">
        <ele>1213.6</ele>
        <time>2026-06-26T12:11:45Z</time>
      </trkpt>
      <trkpt lat="46.06607" lon="6.7607">
        <ele>1213.5</ele>
        <time>2026-06-26T12:11:46Z</time>
      </trkpt>
      <trkpt lat="46.06606" lon="6.7607">
        <ele>1213.4</ele>
        <time>2026-06-26T12:11:47Z</time>
      </trkpt>
      <trkpt lat="46.06605" lon="6.76071">
        <ele>1213.1</ele>
        <time>2026-06-26T12:11:48Z</time>
      </trkpt>
      <trkpt lat="46.06604" lon="6.76071">
        <ele>1212.9</ele>
        <time>2026-06-26T12:11:49Z</time>
      </trkpt>
      <trkpt lat="46.06603" lon="6.76071">
        <ele>1212.7</ele>
        <time>2026-06-26T12:11:50Z</time>
      </trkpt>
      <trkpt lat="46.06601" lon="6.7607">
        <ele>1212.4</ele>
        <time>2026-06-26T12:11:51Z</time>
      </trkpt>
      <trkpt lat="46.066" lon="6.7607">
        <ele>1211.9</ele>
        <time>2026-06-26T12:11:52Z</time>
      </trkpt>
      <trkpt lat="46.066" lon="6.76071">
        <ele>1211.7</ele>
        <time>2026-06-26T12:11:53Z</time>
      </trkpt>
      <trkpt lat="46.06599" lon="6.76071">
        <ele>1211.4</ele>
        <time>2026-06-26T12:11:54Z</time>
      </trkpt>
      <trkpt lat="46.06598" lon="6.76072">
        <ele>1211.3</ele>
        <time>2026-06-26T12:11:55Z</time>
      </trkpt>
      <trkpt lat="46.06597" lon="6.76072">
        <ele>1211.1</ele>
        <time>2026-06-26T12:11:56Z</time>
      </trkpt>
      <trkpt lat="46.06596" lon="6.76071">
        <ele>1210.8</ele>
        <time>2026-06-26T12:11:57Z</time>
      </trkpt>
      <trkpt lat="46.06595" lon="6.76071">
        <ele>1210.6</ele>
        <time>2026-06-26T12:11:58Z</time>
      </trkpt>
      <trkpt lat="46.06594" lon="6.76071">
        <ele>1210.5</ele>
        <time>2026-06-26T12:11:59Z</time>
      </trkpt>
      <trkpt lat="46.06592" lon="6.76071">
        <ele>1210.4</ele>
        <time>2026-06-26T12:12:00Z</time>
      </trkpt>
      <trkpt lat="46.06591" lon="6.76071">
        <ele>1210.2</ele>
        <time>2026-06-26T12:12:01Z</time>
      </trkpt>
      <trkpt lat="46.0659" lon="6.76071">
        <ele>1210.1</ele>
        <time>2026-06-26T12:12:02Z</time>
      </trkpt>
      <trkpt lat="46.06589" lon="6.76071">
        <ele>1209.9</ele>
        <time>2026-06-26T12:12:03Z</time>
      </trkpt>
      <trkpt lat="46.06587" lon="6.76072">
        <ele>1209.9</ele>
        <time>2026-06-26T12:12:04Z</time>
      </trkpt>
      <trkpt lat="46.06586" lon="6.76072">
        <ele>1209.7</ele>
        <time>2026-06-26T12:12:05Z</time>
      </trkpt>
      <trkpt lat="46.06585" lon="6.76072">
        <ele>1209.6</ele>
        <time>2026-06-26T12:12:06Z</time>
      </trkpt>
      <trkpt lat="46.06583" lon="6.76073">
        <ele>1209.3</ele>
        <time>2026-06-26T12:12:07Z</time>
      </trkpt>
      <trkpt lat="46.06582" lon="6.76073">
        <ele>1209.1</ele>
        <time>2026-06-26T12:12:08Z</time>
      </trkpt>
      <trkpt lat="46.06581" lon="6.76073">
        <ele>1208.9</ele>
        <time>2026-06-26T12:12:09Z</time>
      </trkpt>
      <trkpt lat="46.0658" lon="6.76073">
        <ele>1208.7</ele>
        <time>2026-06-26T12:12:10Z</time>
      </trkpt>
      <trkpt lat="46.06579" lon="6.76074">
        <ele>1208.6</ele>
        <time>2026-06-26T12:12:11Z</time>
      </trkpt>
      <trkpt lat="46.06578" lon="6.76075">
        <ele>1208.4</ele>
        <time>2026-06-26T12:12:12Z</time>
      </trkpt>
      <trkpt lat="46.06577" lon="6.76075">
        <ele>1208.2</ele>
        <time>2026-06-26T12:12:13Z</time>
      </trkpt>
      <trkpt lat="46.06576" lon="6.76076">
        <ele>1208</ele>
        <time>2026-06-26T12:12:14Z</time>
      </trkpt>
      <trkpt lat="46.06575" lon="6.76076">
        <ele>1207.8</ele>
        <time>2026-06-26T12:12:15Z</time>
      </trkpt>
      <trkpt lat="46.06574" lon="6.76077">
        <ele>1207.6</ele>
        <time>2026-06-26T12:12:16Z</time>
      </trkpt>
      <trkpt lat="46.06572" lon="6.76077">
        <ele>1207.4</ele>
        <time>2026-06-26T12:12:17Z</time>
      </trkpt>
      <trkpt lat="46.06571" lon="6.76077">
        <ele>1207.2</ele>
        <time>2026-06-26T12:12:18Z</time>
      </trkpt>
      <trkpt lat="46.0657" lon="6.76077">
        <ele>1207</ele>
        <time>2026-06-26T12:12:19Z</time>
      </trkpt>
      <trkpt lat="46.06569" lon="6.76078">
        <ele>1206.9</ele>
        <time>2026-06-26T12:12:20Z</time>
      </trkpt>
      <trkpt lat="46.06568" lon="6.76078">
        <ele>1206.7</ele>
        <time>2026-06-26T12:12:21Z</time>
      </trkpt>
      <trkpt lat="46.06567" lon="6.76079">
        <ele>1206.5</ele>
        <time>2026-06-26T12:12:22Z</time>
      </trkpt>
      <trkpt lat="46.06566" lon="6.76079">
        <ele>1206.2</ele>
        <time>2026-06-26T12:12:23Z</time>
      </trkpt>
      <trkpt lat="46.06565" lon="6.76079">
        <ele>1205.8</ele>
        <time>2026-06-26T12:12:24Z</time>
      </trkpt>
      <trkpt lat="46.06565" lon="6.7608">
        <ele>1205.6</ele>
        <time>2026-06-26T12:12:25Z</time>
      </trkpt>
      <trkpt lat="46.06564" lon="6.7608">
        <ele>1205.4</ele>
        <time>2026-06-26T12:12:26Z</time>
      </trkpt>
      <trkpt lat="46.06563" lon="6.76081">
        <ele>1205.1</ele>
        <time>2026-06-26T12:12:27Z</time>
      </trkpt>
      <trkpt lat="46.06562" lon="6.76081">
        <ele>1205</ele>
        <time>2026-06-26T12:12:28Z</time>
      </trkpt>
      <trkpt lat="46.06562" lon="6.76081">
        <ele>1204.8</ele>
        <time>2026-06-26T12:12:29Z</time>
      </trkpt>
      <trkpt lat="46.06561" lon="6.76081">
        <ele>1204.7</ele>
        <time>2026-06-26T12:12:30Z</time>
      </trkpt>
      <trkpt lat="46.06561" lon="6.76082">
        <ele>1204.4</ele>
        <time>2026-06-26T12:12:31Z</time>
      </trkpt>
      <trkpt lat="46.0656" lon="6.76083">
        <ele>1204.2</ele>
        <time>2026-06-26T12:12:32Z</time>
      </trkpt>
      <trkpt lat="46.0656" lon="6.76083">
        <ele>1204</ele>
        <time>2026-06-26T12:12:33Z</time>
      </trkpt>
      <trkpt lat="46.06559" lon="6.76084">
        <ele>1203.8</ele>
        <time>2026-06-26T12:12:34Z</time>
      </trkpt>
      <trkpt lat="46.06558" lon="6.76084">
        <ele>1203.7</ele>
        <time>2026-06-26T12:12:35Z</time>
      </trkpt>
      <trkpt lat="46.06557" lon="6.76084">
        <ele>1203.6</ele>
        <time>2026-06-26T12:12:36Z</time>
      </trkpt>
      <trkpt lat="46.06555" lon="6.76085">
        <ele>1203.4</ele>
        <time>2026-06-26T12:12:37Z</time>
      </trkpt>
      <trkpt lat="46.06554" lon="6.76085">
        <ele>1203.3</ele>
        <time>2026-06-26T12:12:38Z</time>
      </trkpt>
      <trkpt lat="46.06552" lon="6.76086">
        <ele>1203.1</ele>
        <time>2026-06-26T12:12:39Z</time>
      </trkpt>
      <trkpt lat="46.06552" lon="6.76087">
        <ele>1203.1</ele>
        <time>2026-06-26T12:12:40Z</time>
      </trkpt>
      <trkpt lat="46.06551" lon="6.76087">
        <ele>1202.9</ele>
        <time>2026-06-26T12:12:41Z</time>
      </trkpt>
      <trkpt lat="46.06551" lon="6.76088">
        <ele>1202.5</ele>
        <time>2026-06-26T12:12:42Z</time>
      </trkpt>
      <trkpt lat="46.0655" lon="6.76089">
        <ele>1202.3</ele>
        <time>2026-06-26T12:12:43Z</time>
      </trkpt>
      <trkpt lat="46.0655" lon="6.76089">
        <ele>1202.2</ele>
        <time>2026-06-26T12:12:44Z</time>
      </trkpt>
      <trkpt lat="46.06549" lon="6.7609">
        <ele>1202.2</ele>
        <time>2026-06-26T12:12:45Z</time>
      </trkpt>
      <trkpt lat="46.06548" lon="6.76091">
        <ele>1202</ele>
        <time>2026-06-26T12:12:46Z</time>
      </trkpt>
      <trkpt lat="46.06547" lon="6.76092">
        <ele>1201.9</ele>
        <time>2026-06-26T12:12:47Z</time>
      </trkpt>
      <trkpt lat="46.06547" lon="6.76093">
        <ele>1201.8</ele>
        <time>2026-06-26T12:12:48Z</time>
      </trkpt>
      <trkpt lat="46.06546" lon="6.76093">
        <ele>1201.6</ele>
        <time>2026-06-26T12:12:49Z</time>
      </trkpt>
      <trkpt lat="46.06545" lon="6.76094">
        <ele>1201.4</ele>
        <time>2026-06-26T12:12:50Z</time>
      </trkpt>
      <trkpt lat="46.06544" lon="6.76094">
        <ele>1201.2</ele>
        <time>2026-06-26T12:12:51Z</time>
      </trkpt>
      <trkpt lat="46.06543" lon="6.76095">
        <ele>1200.9</ele>
        <time>2026-06-26T12:12:52Z</time>
      </trkpt>
      <trkpt lat="46.06543" lon="6.76095">
        <ele>1200.8</ele>
        <time>2026-06-26T12:12:53Z</time>
      </trkpt>
      <trkpt lat="46.06542" lon="6.76096">
        <ele>1200.7</ele>
        <time>2026-06-26T12:12:54Z</time>
      </trkpt>
      <trkpt lat="46.06541" lon="6.76096">
        <ele>1200.6</ele>
        <time>2026-06-26T12:12:55Z</time>
      </trkpt>
      <trkpt lat="46.06541" lon="6.76096">
        <ele>1200.5</ele>
        <time>2026-06-26T12:12:56Z</time>
      </trkpt>
      <trkpt lat="46.06541" lon="6.76097">
        <ele>1200.3</ele>
        <time>2026-06-26T12:12:57Z</time>
      </trkpt>
      <trkpt lat="46.0654" lon="6.76097">
        <ele>1200.2</ele>
        <time>2026-06-26T12:12:58Z</time>
      </trkpt>
      <trkpt lat="46.0654" lon="6.76098">
        <ele>1200</ele>
        <time>2026-06-26T12:12:59Z</time>
      </trkpt>
      <trkpt lat="46.06539" lon="6.76098">
        <ele>1199.9</ele>
        <time>2026-06-26T12:13:00Z</time>
      </trkpt>
      <trkpt lat="46.06538" lon="6.76097">
        <ele>1199.8</ele>
        <time>2026-06-26T12:13:01Z</time>
      </trkpt>
      <trkpt lat="46.06538" lon="6.76097">
        <ele>1199.7</ele>
        <time>2026-06-26T12:13:02Z</time>
      </trkpt>
      <trkpt lat="46.06538" lon="6.76097">
        <ele>1199.6</ele>
        <time>2026-06-26T12:13:03Z</time>
      </trkpt>
      <trkpt lat="46.06538" lon="6.76097">
        <ele>1199.6</ele>
        <time>2026-06-26T12:13:04Z</time>
      </trkpt>
      <trkpt lat="46.06537" lon="6.76096">
        <ele>1199.5</ele>
        <time>2026-06-26T12:13:05Z</time>
      </trkpt>
      <trkpt lat="46.06538" lon="6.76096">
        <ele>1199.5</ele>
        <time>2026-06-26T12:13:06Z</time>
      </trkpt>
      <trkpt lat="46.06538" lon="6.76095">
        <ele>1199.5</ele>
        <time>2026-06-26T12:13:07Z</time>
      </trkpt>
      <trkpt lat="46.06537" lon="6.76095">
        <ele>1199.5</ele>
        <time>2026-06-26T12:13:08Z</time>
      </trkpt>
      <trkpt lat="46.06537" lon="6.76095">
        <ele>1199.6</ele>
        <time>2026-06-26T12:13:09Z</time>
      </trkpt>
      <trkpt lat="46.06537" lon="6.76095">
        <ele>1199.6</ele>
        <time>2026-06-26T12:13:10Z</time>
      </trkpt>
      <trkpt lat="46.06536" lon="6.76094">
        <ele>1199.6</ele>
        <time>2026-06-26T12:13:11Z</time>
      </trkpt>
      <trkpt lat="46.06536" lon="6.76094">
        <ele>1199.6</ele>
        <time>2026-06-26T12:13:12Z</time>
      </trkpt>
      <trkpt lat="46.06536" lon="6.76094">
        <ele>1199.6</ele>
        <time>2026-06-26T12:13:13Z</time>
      </trkpt>
      <trkpt lat="46.06536" lon="6.76094">
        <ele>1199.5</ele>
        <time>2026-06-26T12:13:14Z</time>
      </trkpt>
      <trkpt lat="46.06536" lon="6.76094">
        <ele>1199.5</ele>
        <time>2026-06-26T12:13:15Z</time>
      </trkpt>
      <trkpt lat="46.06535" lon="6.76094">
        <ele>1199.4</ele>
        <time>2026-06-26T12:13:16Z</time>
      </trkpt>
      <trkpt lat="46.06535" lon="6.76094">
        <ele>1199.4</ele>
        <time>2026-06-26T12:13:17Z</time>
      </trkpt>
      <trkpt lat="46.06535" lon="6.76094">
        <ele>1199.4</ele>
        <time>2026-06-26T12:13:18Z</time>
      </trkpt>
      <trkpt lat="46.06535" lon="6.76094">
        <ele>1199.3</ele>
        <time>2026-06-26T12:13:19Z</time>
      </trkpt>
      <trkpt lat="46.06535" lon="6.76094">
        <ele>1199.3</ele>
        <time>2026-06-26T12:13:20Z</time>
      </trkpt>
      <trkpt lat="46.06535" lon="6.76095">
        <ele>1199.3</ele>
        <time>2026-06-26T12:13:21Z</time>
      </trkpt>
      <trkpt lat="46.06535" lon="6.76095">
        <ele>1199.3</ele>
        <time>2026-06-26T12:13:22Z</time>
      </trkpt>
      <trkpt lat="46.06534" lon="6.76095">
        <ele>1199.3</ele>
        <time>2026-06-26T12:13:23Z</time>
      </trkpt>
      <trkpt lat="46.06534" lon="6.76095">
        <ele>1199.2</ele>
        <time>2026-06-26T12:13:24Z</time>
      </trkpt>
      <trkpt lat="46.06534" lon="6.76094">
        <ele>1199.2</ele>
        <time>2026-06-26T12:13:25Z</time>
      </trkpt>
      <trkpt lat="46.06533" lon="6.76094">
        <ele>1199.2</ele>
        <time>2026-06-26T12:13:26Z</time>
      </trkpt>
      <trkpt lat="46.06533" lon="6.76094">
        <ele>1199.2</ele>
        <time>2026-06-26T12:13:27Z</time>
      </trkpt>
      <trkpt lat="46.06533" lon="6.76094">
        <ele>1199.2</ele>
        <time>2026-06-26T12:13:28Z</time>
      </trkpt>
      <trkpt lat="46.06533" lon="6.76094">
        <ele>1199.2</ele>
        <time>2026-06-26T12:13:29Z</time>
      </trkpt>
      <trkpt lat="46.06534" lon="6.76094">
        <ele>1199.2</ele>
        <time>2026-06-26T12:13:30Z</time>
      </trkpt>
      <trkpt lat="46.06534" lon="6.76094">
        <ele>1199.3</ele>
        <time>2026-06-26T12:13:31Z</time>
      </trkpt>
      <trkpt lat="46.06534" lon="6.76094">
        <ele>1199.3</ele>
        <time>2026-06-26T12:13:32Z</time>
      </trkpt>
      <trkpt lat="46.06534" lon="6.76094">
        <ele>1199.3</ele>
        <time>2026-06-26T12:13:33Z</time>
      </trkpt>
      <trkpt lat="46.06534" lon="6.76094">
        <ele>1199.4</ele>
        <time>2026-06-26T12:13:34Z</time>
      </trkpt>
      <trkpt lat="46.06534" lon="6.76094">
        <ele>1199.4</ele>
        <time>2026-06-26T12:13:35Z</time>
      </trkpt>
      <trkpt lat="46.06534" lon="6.76094">
        <ele>1199.4</ele>
        <time>2026-06-26T12:13:36Z</time>
      </trkpt>
      <trkpt lat="46.06534" lon="6.76095">
        <ele>1199.4</ele>
        <time>2026-06-26T12:13:37Z</time>
      </trkpt>
      <trkpt lat="46.06534" lon="6.76095">
        <ele>1199.5</ele>
        <time>2026-06-26T12:13:38Z</time>
      </trkpt>
      <trkpt lat="46.06534" lon="6.76095">
        <ele>1199.5</ele>
        <time>2026-06-26T12:13:39Z</time>
      </trkpt>
      <trkpt lat="46.06534" lon="6.76095">
        <ele>1199.4</ele>
        <time>2026-06-26T12:13:40Z</time>
      </trkpt>
      <trkpt lat="46.06535" lon="6.76095">
        <ele>1199.4</ele>
        <time>2026-06-26T12:13:41Z</time>
      </trkpt>
      <trkpt lat="46.06535" lon="6.76095">
        <ele>1199.4</ele>
        <time>2026-06-26T12:13:42Z</time>
      </trkpt>
      <trkpt lat="46.06535" lon="6.76096">
        <ele>1199.4</ele>
        <time>2026-06-26T12:13:43Z</time>
      </trkpt>
      <trkpt lat="46.06534" lon="6.76095">
        <ele>1199.4</ele>
        <time>2026-06-26T12:13:44Z</time>
      </trkpt>
      <trkpt lat="46.06534" lon="6.76095">
        <ele>1199.4</ele>
        <time>2026-06-26T12:13:45Z</time>
      </trkpt>
      <trkpt lat="46.06534" lon="6.76095">
        <ele>1199.4</ele>
        <time>2026-06-26T12:13:46Z</time>
      </trkpt>
      <trkpt lat="46.06534" lon="6.76094">
        <ele>1199.4</ele>
        <time>2026-06-26T12:13:47Z</time>
      </trkpt>
      <trkpt lat="46.06534" lon="6.76094">
        <ele>1199.5</ele>
        <time>2026-06-26T12:13:48Z</time>
      </trkpt>
      <trkpt lat="46.06534" lon="6.76094">
        <ele>1199.5</ele>
        <time>2026-06-26T12:13:49Z</time>
      </trkpt>
      <trkpt lat="46.06533" lon="6.76094">
        <ele>1199.6</ele>
        <time>2026-06-26T12:13:50Z</time>
      </trkpt>
      <trkpt lat="46.06533" lon="6.76093">
        <ele>1199.5</ele>
        <time>2026-06-26T12:13:51Z</time>
      </trkpt>
      <trkpt lat="46.06533" lon="6.76093">
        <ele>1199.5</ele>
        <time>2026-06-26T12:13:52Z</time>
      </trkpt>
      <trkpt lat="46.06533" lon="6.76093">
        <ele>1199.5</ele>
        <time>2026-06-26T12:13:53Z</time>
      </trkpt>
      <trkpt lat="46.06533" lon="6.76094">
        <ele>1199.5</ele>
        <time>2026-06-26T12:13:54Z</time>
      </trkpt>
      <trkpt lat="46.06533" lon="6.76094">
        <ele>1199.4</ele>
        <time>2026-06-26T12:13:55Z</time>
      </trkpt>
      <trkpt lat="46.06533" lon="6.76094">
        <ele>1199.4</ele>
        <time>2026-06-26T12:13:56Z</time>
      </trkpt>
      <trkpt lat="46.06533" lon="6.76094">
        <ele>1199.3</ele>
        <time>2026-06-26T12:13:57Z</time>
      </trkpt>
      <trkpt lat="46.06533" lon="6.76093">
        <ele>1199.3</ele>
        <time>2026-06-26T12:13:58Z</time>
      </trkpt>
      <trkpt lat="46.06532" lon="6.76094">
        <ele>1199.5</ele>
        <time>2026-06-26T12:13:59Z</time>
      </trkpt>
      <trkpt lat="46.06532" lon="6.76094">
        <ele>1199.6</ele>
        <time>2026-06-26T12:14:00Z</time>
      </trkpt>
      <trkpt lat="46.06531" lon="6.76095">
        <ele>1199.6</ele>
        <time>2026-06-26T12:14:01Z</time>
      </trkpt>
      <trkpt lat="46.06531" lon="6.76095">
        <ele>1199.6</ele>
        <time>2026-06-26T12:14:02Z</time>
      </trkpt>
      <trkpt lat="46.06531" lon="6.76095">
        <ele>1199.7</ele>
        <time>2026-06-26T12:14:03Z</time>
      </trkpt>
      <trkpt lat="46.06531" lon="6.76095">
        <ele>1199.8</ele>
        <time>2026-06-26T12:14:04Z</time>
      </trkpt>
      <trkpt lat="46.0653" lon="6.76094">
        <ele>1199.8</ele>
        <time>2026-06-26T12:14:05Z</time>
      </trkpt>
      <trkpt lat="46.0653" lon="6.76095">
        <ele>1199.8</ele>
        <time>2026-06-26T12:14:06Z</time>
      </trkpt>
      <trkpt lat="46.0653" lon="6.76094">
        <ele>1199.7</ele>
        <time>2026-06-26T12:14:07Z</time>
      </trkpt>
      <trkpt lat="46.0653" lon="6.76094">
        <ele>1199.5</ele>
        <time>2026-06-26T12:14:08Z</time>
      </trkpt>
      <trkpt lat="46.0653" lon="6.76094">
        <ele>1199.5</ele>
        <time>2026-06-26T12:14:09Z</time>
      </trkpt>
      <trkpt lat="46.0653" lon="6.76094">
        <ele>1199.4</ele>
        <time>2026-06-26T12:14:10Z</time>
      </trkpt>
      <trkpt lat="46.0653" lon="6.76095">
        <ele>1199.4</ele>
        <time>2026-06-26T12:14:11Z</time>
      </trkpt>
      <trkpt lat="46.0653" lon="6.76095">
        <ele>1199.3</ele>
        <time>2026-06-26T12:14:12Z</time>
      </trkpt>
      <trkpt lat="46.0653" lon="6.76096">
        <ele>1199.2</ele>
        <time>2026-06-26T12:14:13Z</time>
      </trkpt>
      <trkpt lat="46.0653" lon="6.76096">
        <ele>1199.2</ele>
        <time>2026-06-26T12:14:14Z</time>
      </trkpt>
      <trkpt lat="46.0653" lon="6.76097">
        <ele>1199.2</ele>
        <time>2026-06-26T12:14:15Z</time>
      </trkpt>
      <trkpt lat="46.06531" lon="6.76097">
        <ele>1199.1</ele>
        <time>2026-06-26T12:14:16Z</time>
      </trkpt>
      <trkpt lat="46.06531" lon="6.76097">
        <ele>1199.1</ele>
        <time>2026-06-26T12:14:17Z</time>
      </trkpt>
      <trkpt lat="46.06531" lon="6.76097">
        <ele>1199.1</ele>
        <time>2026-06-26T12:14:18Z</time>
      </trkpt>
      <trkpt lat="46.06531" lon="6.76097">
        <ele>1199.1</ele>
        <time>2026-06-26T12:14:19Z</time>
      </trkpt>
      <trkpt lat="46.0653" lon="6.76098">
        <ele>1199.1</ele>
        <time>2026-06-26T12:14:20Z</time>
      </trkpt>
      <trkpt lat="46.0653" lon="6.76098">
        <ele>1199.1</ele>
        <time>2026-06-26T12:14:21Z</time>
      </trkpt>
      <trkpt lat="46.0653" lon="6.76098">
        <ele>1199.1</ele>
        <time>2026-06-26T12:14:22Z</time>
      </trkpt>
      <trkpt lat="46.0653" lon="6.76098">
        <ele>1199.1</ele>
        <time>2026-06-26T12:14:23Z</time>
      </trkpt>
      <trkpt lat="46.0653" lon="6.76098">
        <ele>1199.1</ele>
        <time>2026-06-26T12:14:24Z</time>
      </trkpt>
      <trkpt lat="46.0653" lon="6.76098">
        <ele>1199</ele>
        <time>2026-06-26T12:14:25Z</time>
      </trkpt>
      <trkpt lat="46.0653" lon="6.76099">
        <ele>1199</ele>
        <time>2026-06-26T12:14:26Z</time>
      </trkpt>
      <trkpt lat="46.0653" lon="6.76099">
        <ele>1198.9</ele>
        <time>2026-06-26T12:14:27Z</time>
      </trkpt>
      <trkpt lat="46.0653" lon="6.76099">
        <ele>1198.9</ele>
        <time>2026-06-26T12:14:28Z</time>
      </trkpt>
      <trkpt lat="46.0653" lon="6.76099">
        <ele>1198.9</ele>
        <time>2026-06-26T12:14:29Z</time>
      </trkpt>
      <trkpt lat="46.06531" lon="6.761">
        <ele>1198.9</ele>
        <time>2026-06-26T12:14:30Z</time>
      </trkpt>
      <trkpt lat="46.06531" lon="6.761">
        <ele>1199</ele>
        <time>2026-06-26T12:14:31Z</time>
      </trkpt>
      <trkpt lat="46.06531" lon="6.761">
        <ele>1199</ele>
        <time>2026-06-26T12:14:32Z</time>
      </trkpt>
      <trkpt lat="46.06531" lon="6.761">
        <ele>1199</ele>
        <time>2026-06-26T12:14:33Z</time>
      </trkpt>
      <trkpt lat="46.06531" lon="6.76101">
        <ele>1199</ele>
        <time>2026-06-26T12:14:34Z</time>
      </trkpt>
      <trkpt lat="46.06532" lon="6.76101">
        <ele>1199</ele>
        <time>2026-06-26T12:14:35Z</time>
      </trkpt>
      <trkpt lat="46.06531" lon="6.76101">
        <ele>1199</ele>
        <time>2026-06-26T12:14:36Z</time>
      </trkpt>
      <trkpt lat="46.06531" lon="6.76101">
        <ele>1199.1</ele>
        <time>2026-06-26T12:14:37Z</time>
      </trkpt>
      <trkpt lat="46.06531" lon="6.76101">
        <ele>1199.1</ele>
        <time>2026-06-26T12:14:38Z</time>
      </trkpt>
      <trkpt lat="46.06531" lon="6.76102">
        <ele>1199.1</ele>
        <time>2026-06-26T12:14:39Z</time>
      </trkpt>
      <trkpt lat="46.06531" lon="6.76102">
        <ele>1199.1</ele>
        <time>2026-06-26T12:14:40Z</time>
      </trkpt>
      <trkpt lat="46.06531" lon="6.76103">
        <ele>1199.1</ele>
        <time>2026-06-26T12:14:41Z</time>
      </trkpt>
      <trkpt lat="46.06532" lon="6.76103">
        <ele>1199.1</ele>
        <time>2026-06-26T12:14:42Z</time>
      </trkpt>
      <trkpt lat="46.06532" lon="6.76103">
        <ele>1199.1</ele>
        <time>2026-06-26T12:14:43Z</time>
      </trkpt>
      <trkpt lat="46.06532" lon="6.76103">
        <ele>1199.1</ele>
        <time>2026-06-26T12:14:44Z</time>
      </trkpt>
      <trkpt lat="46.06532" lon="6.76104">
        <ele>1199.1</ele>
        <time>2026-06-26T12:14:45Z</time>
      </trkpt>
      <trkpt lat="46.06532" lon="6.76104">
        <ele>1199</ele>
        <time>2026-06-26T12:14:46Z</time>
      </trkpt>
      <trkpt lat="46.06532" lon="6.76104">
        <ele>1199</ele>
        <time>2026-06-26T12:14:47Z</time>
      </trkpt>
      <trkpt lat="46.06532" lon="6.76104">
        <ele>1199</ele>
        <time>2026-06-26T12:14:48Z</time>
      </trkpt>
      <trkpt lat="46.06532" lon="6.76104">
        <ele>1199</ele>
        <time>2026-06-26T12:14:49Z</time>
      </trkpt>
      <trkpt lat="46.06532" lon="6.76103">
        <ele>1199</ele>
        <time>2026-06-26T12:14:50Z</time>
      </trkpt>
      <trkpt lat="46.06532" lon="6.76104">
        <ele>1199</ele>
        <time>2026-06-26T12:14:51Z</time>
      </trkpt>
      <trkpt lat="46.06532" lon="6.76104">
        <ele>1199</ele>
        <time>2026-06-26T12:14:52Z</time>
      </trkpt>
      <trkpt lat="46.06533" lon="6.76104">
        <ele>1199.1</ele>
        <time>2026-06-26T12:14:53Z</time>
      </trkpt>
      <trkpt lat="46.06533" lon="6.76105">
        <ele>1199.2</ele>
        <time>2026-06-26T12:14:54Z</time>
      </trkpt>
      <trkpt lat="46.06533" lon="6.76105">
        <ele>1199.3</ele>
        <time>2026-06-26T12:14:55Z</time>
      </trkpt>
      <trkpt lat="46.06534" lon="6.76107">
        <ele>1199.4</ele>
        <time>2026-06-26T12:14:56Z</time>
      </trkpt>
      <trkpt lat="46.06534" lon="6.76108">
        <ele>1199.5</ele>
        <time>2026-06-26T12:14:57Z</time>
      </trkpt>
      <trkpt lat="46.06535" lon="6.76109">
        <ele>1199.6</ele>
        <time>2026-06-26T12:14:58Z</time>
      </trkpt>
      <trkpt lat="46.06535" lon="6.76109">
        <ele>1199.7</ele>
        <time>2026-06-26T12:14:59Z</time>
      </trkpt>
      <trkpt lat="46.06536" lon="6.76109">
        <ele>1199.8</ele>
        <time>2026-06-26T12:15:00Z</time>
      </trkpt>
      <trkpt lat="46.06536" lon="6.7611">
        <ele>1199.8</ele>
        <time>2026-06-26T12:15:01Z</time>
      </trkpt>
      <trkpt lat="46.06537" lon="6.76111">
        <ele>1199.9</ele>
        <time>2026-06-26T12:15:02Z</time>
      </trkpt>
      <trkpt lat="46.06537" lon="6.76111">
        <ele>1199.9</ele>
        <time>2026-06-26T12:15:03Z</time>
      </trkpt>
      <trkpt lat="46.06537" lon="6.76112">
        <ele>1199.9</ele>
        <time>2026-06-26T12:15:04Z</time>
      </trkpt>
      <trkpt lat="46.06537" lon="6.76112">
        <ele>1199.9</ele>
        <time>2026-06-26T12:15:05Z</time>
      </trkpt>
      <trkpt lat="46.06537" lon="6.76113">
        <ele>1199.8</ele>
        <time>2026-06-26T12:15:06Z</time>
      </trkpt>
      <trkpt lat="46.06537" lon="6.76113">
        <ele>1199.8</ele>
        <time>2026-06-26T12:15:07Z</time>
      </trkpt>
      <trkpt lat="46.06537" lon="6.76113">
        <ele>1199.7</ele>
        <time>2026-06-26T12:15:08Z</time>
      </trkpt>
      <trkpt lat="46.06537" lon="6.76113">
        <ele>1199.7</ele>
        <time>2026-06-26T12:15:09Z</time>
      </trkpt>
      <trkpt lat="46.06536" lon="6.76114">
        <ele>1199.8</ele>
        <time>2026-06-26T12:15:10Z</time>
      </trkpt>
      <trkpt lat="46.06536" lon="6.76114">
        <ele>1199.8</ele>
        <time>2026-06-26T12:15:11Z</time>
      </trkpt>
      <trkpt lat="46.06536" lon="6.76114">
        <ele>1199.8</ele>
        <time>2026-06-26T12:15:12Z</time>
      </trkpt>
      <trkpt lat="46.06536" lon="6.76114">
        <ele>1199.9</ele>
        <time>2026-06-26T12:15:13Z</time>
      </trkpt>
      <trkpt lat="46.06536" lon="6.76114">
        <ele>1199.8</ele>
        <time>2026-06-26T12:15:14Z</time>
      </trkpt>
      <trkpt lat="46.06537" lon="6.76114">
        <ele>1199.8</ele>
        <time>2026-06-26T12:15:15Z</time>
      </trkpt>
      <trkpt lat="46.06536" lon="6.76113">
        <ele>1199.8</ele>
        <time>2026-06-26T12:15:16Z</time>
      </trkpt>
      <trkpt lat="46.06535" lon="6.76112">
        <ele>1199.8</ele>
        <time>2026-06-26T12:15:17Z</time>
      </trkpt>
      <trkpt lat="46.06535" lon="6.76112">
        <ele>1199.8</ele>
        <time>2026-06-26T12:15:18Z</time>
      </trkpt>
      <trkpt lat="46.06534" lon="6.76111">
        <ele>1199.8</ele>
        <time>2026-06-26T12:15:19Z</time>
      </trkpt>
      <trkpt lat="46.06534" lon="6.76111">
        <ele>1199.7</ele>
        <time>2026-06-26T12:15:20Z</time>
      </trkpt>
      <trkpt lat="46.06533" lon="6.76111">
        <ele>1199.8</ele>
        <time>2026-06-26T12:15:21Z</time>
      </trkpt>
      <trkpt lat="46.06533" lon="6.7611">
        <ele>1199.8</ele>
        <time>2026-06-26T12:15:22Z</time>
      </trkpt>
      <trkpt lat="46.06532" lon="6.7611">
        <ele>1199.8</ele>
        <time>2026-06-26T12:15:23Z</time>
      </trkpt>
      <trkpt lat="46.06532" lon="6.7611">
        <ele>1199.8</ele>
        <time>2026-06-26T12:15:24Z</time>
      </trkpt>
      <trkpt lat="46.06532" lon="6.7611">
        <ele>1199.8</ele>
        <time>2026-06-26T12:15:25Z</time>
      </trkpt>
      <trkpt lat="46.06532" lon="6.76109">
        <ele>1199.8</ele>
        <time>2026-06-26T12:15:26Z</time>
      </trkpt>
      <trkpt lat="46.06531" lon="6.76109">
        <ele>1199.9</ele>
        <time>2026-06-26T12:15:27Z</time>
      </trkpt>
      <trkpt lat="46.06531" lon="6.76109">
        <ele>1199.9</ele>
        <time>2026-06-26T12:15:28Z</time>
      </trkpt>
      <trkpt lat="46.06531" lon="6.76109">
        <ele>1199.9</ele>
        <time>2026-06-26T12:15:29Z</time>
      </trkpt>
      <trkpt lat="46.06531" lon="6.76109">
        <ele>1200</ele>
        <time>2026-06-26T12:15:30Z</time>
      </trkpt>
      <trkpt lat="46.06531" lon="6.76109">
        <ele>1200.1</ele>
        <time>2026-06-26T12:15:31Z</time>
      </trkpt>
      <trkpt lat="46.0653" lon="6.76109">
        <ele>1200.2</ele>
        <time>2026-06-26T12:15:32Z</time>
      </trkpt>
      <trkpt lat="46.0653" lon="6.76109">
        <ele>1200.2</ele>
        <time>2026-06-26T12:15:33Z</time>
      </trkpt>
      <trkpt lat="46.0653" lon="6.76109">
        <ele>1200.3</ele>
        <time>2026-06-26T12:15:34Z</time>
      </trkpt>
      <trkpt lat="46.0653" lon="6.76109">
        <ele>1200.3</ele>
        <time>2026-06-26T12:15:35Z</time>
      </trkpt>
      <trkpt lat="46.0653" lon="6.76109">
        <ele>1200.3</ele>
        <time>2026-06-26T12:15:36Z</time>
      </trkpt>
      <trkpt lat="46.06529" lon="6.7611">
        <ele>1200.4</ele>
        <time>2026-06-26T12:15:37Z</time>
      </trkpt>
      <trkpt lat="46.06529" lon="6.7611">
        <ele>1200.4</ele>
        <time>2026-06-26T12:15:38Z</time>
      </trkpt>
      <trkpt lat="46.06529" lon="6.7611">
        <ele>1200.5</ele>
        <time>2026-06-26T12:15:39Z</time>
      </trkpt>
      <trkpt lat="46.0653" lon="6.76109">
        <ele>1200.4</ele>
        <time>2026-06-26T12:15:40Z</time>
      </trkpt>
      <trkpt lat="46.0653" lon="6.76108">
        <ele>1200.4</ele>
        <time>2026-06-26T12:15:41Z</time>
      </trkpt>
      <trkpt lat="46.0653" lon="6.76108">
        <ele>1200.3</ele>
        <time>2026-06-26T12:15:42Z</time>
      </trkpt>
      <trkpt lat="46.0653" lon="6.76107">
        <ele>1200.2</ele>
        <time>2026-06-26T12:15:43Z</time>
      </trkpt>
      <trkpt lat="46.0653" lon="6.76107">
        <ele>1200.2</ele>
        <time>2026-06-26T12:15:44Z</time>
      </trkpt>
      <trkpt lat="46.0653" lon="6.76106">
        <ele>1200.2</ele>
        <time>2026-06-26T12:15:45Z</time>
      </trkpt>
      <trkpt lat="46.0653" lon="6.76106">
        <ele>1200.1</ele>
        <time>2026-06-26T12:15:46Z</time>
      </trkpt>
      <trkpt lat="46.0653" lon="6.76107">
        <ele>1200</ele>
        <time>2026-06-26T12:15:47Z</time>
      </trkpt>
      <trkpt lat="46.0653" lon="6.76106">
        <ele>1200</ele>
        <time>2026-06-26T12:15:48Z</time>
      </trkpt>
      <trkpt lat="46.0653" lon="6.76106">
        <ele>1199.9</ele>
        <time>2026-06-26T12:15:49Z</time>
      </trkpt>
      <trkpt lat="46.0653" lon="6.76106">
        <ele>1199.9</ele>
        <time>2026-06-26T12:15:50Z</time>
      </trkpt>
      <trkpt lat="46.0653" lon="6.76106">
        <ele>1199.9</ele>
        <time>2026-06-26T12:15:51Z</time>
      </trkpt>
      <trkpt lat="46.06529" lon="6.76106">
        <ele>1199.8</ele>
        <time>2026-06-26T12:15:52Z</time>
      </trkpt>
      <trkpt lat="46.06528" lon="6.76106">
        <ele>1199.8</ele>
        <time>2026-06-26T12:15:53Z</time>
      </trkpt>
      <trkpt lat="46.06528" lon="6.76106">
        <ele>1199.7</ele>
        <time>2026-06-26T12:15:54Z</time>
      </trkpt>
      <trkpt lat="46.06528" lon="6.76107">
        <ele>1199.7</ele>
        <time>2026-06-26T12:15:55Z</time>
      </trkpt>
      <trkpt lat="46.06527" lon="6.76108">
        <ele>1199.7</ele>
        <time>2026-06-26T12:15:56Z</time>
      </trkpt>
      <trkpt lat="46.06526" lon="6.76108">
        <ele>1199.6</ele>
        <time>2026-06-26T12:15:57Z</time>
      </trkpt>
      <trkpt lat="46.06525" lon="6.76109">
        <ele>1199.5</ele>
        <time>2026-06-26T12:15:58Z</time>
      </trkpt>
      <trkpt lat="46.06525" lon="6.76109">
        <ele>1199.4</ele>
        <time>2026-06-26T12:15:59Z</time>
      </trkpt>
      <trkpt lat="46.06525" lon="6.76109">
        <ele>1199.2</ele>
        <time>2026-06-26T12:16:00Z</time>
      </trkpt>
      <trkpt lat="46.06524" lon="6.7611">
        <ele>1199.1</ele>
        <time>2026-06-26T12:16:01Z</time>
      </trkpt>
      <trkpt lat="46.06523" lon="6.7611">
        <ele>1199.1</ele>
        <time>2026-06-26T12:16:02Z</time>
      </trkpt>
      <trkpt lat="46.06522" lon="6.76111">
        <ele>1199</ele>
        <time>2026-06-26T12:16:03Z</time>
      </trkpt>
      <trkpt lat="46.06522" lon="6.76111">
        <ele>1198.7</ele>
        <time>2026-06-26T12:16:04Z</time>
      </trkpt>
      <trkpt lat="46.06521" lon="6.76111">
        <ele>1198.5</ele>
        <time>2026-06-26T12:16:05Z</time>
      </trkpt>
      <trkpt lat="46.0652" lon="6.76111">
        <ele>1198.3</ele>
        <time>2026-06-26T12:16:06Z</time>
      </trkpt>
      <trkpt lat="46.06519" lon="6.76111">
        <ele>1198.1</ele>
        <time>2026-06-26T12:16:07Z</time>
      </trkpt>
      <trkpt lat="46.06518" lon="6.76111">
        <ele>1198</ele>
        <time>2026-06-26T12:16:08Z</time>
      </trkpt>
      <trkpt lat="46.06516" lon="6.76111">
        <ele>1197.9</ele>
        <time>2026-06-26T12:16:09Z</time>
      </trkpt>
      <trkpt lat="46.06515" lon="6.76112">
        <ele>1197.8</ele>
        <time>2026-06-26T12:16:10Z</time>
      </trkpt>
      <trkpt lat="46.06514" lon="6.76112">
        <ele>1197.8</ele>
        <time>2026-06-26T12:16:11Z</time>
      </trkpt>
      <trkpt lat="46.06513" lon="6.76112">
        <ele>1197.7</ele>
        <time>2026-06-26T12:16:12Z</time>
      </trkpt>
      <trkpt lat="46.06512" lon="6.76112">
        <ele>1197.6</ele>
        <time>2026-06-26T12:16:13Z</time>
      </trkpt>
      <trkpt lat="46.06511" lon="6.76113">
        <ele>1197.4</ele>
        <time>2026-06-26T12:16:14Z</time>
      </trkpt>
      <trkpt lat="46.06511" lon="6.76114">
        <ele>1197.3</ele>
        <time>2026-06-26T12:16:15Z</time>
      </trkpt>
      <trkpt lat="46.0651" lon="6.76114">
        <ele>1197.1</ele>
        <time>2026-06-26T12:16:16Z</time>
      </trkpt>
      <trkpt lat="46.06509" lon="6.76115">
        <ele>1197.1</ele>
        <time>2026-06-26T12:16:17Z</time>
      </trkpt>
      <trkpt lat="46.06508" lon="6.76115">
        <ele>1196.9</ele>
        <time>2026-06-26T12:16:18Z</time>
      </trkpt>
      <trkpt lat="46.06507" lon="6.76116">
        <ele>1196.8</ele>
        <time>2026-06-26T12:16:19Z</time>
      </trkpt>
      <trkpt lat="46.06506" lon="6.76116">
        <ele>1196.6</ele>
        <time>2026-06-26T12:16:20Z</time>
      </trkpt>
      <trkpt lat="46.06505" lon="6.76117">
        <ele>1196.5</ele>
        <time>2026-06-26T12:16:21Z</time>
      </trkpt>
      <trkpt lat="46.06504" lon="6.76117">
        <ele>1196.4</ele>
        <time>2026-06-26T12:16:22Z</time>
      </trkpt>
      <trkpt lat="46.06503" lon="6.76119">
        <ele>1196.3</ele>
        <time>2026-06-26T12:16:23Z</time>
      </trkpt>
      <trkpt lat="46.06502" lon="6.76119">
        <ele>1196.3</ele>
        <time>2026-06-26T12:16:24Z</time>
      </trkpt>
      <trkpt lat="46.06502" lon="6.7612">
        <ele>1196.2</ele>
        <time>2026-06-26T12:16:25Z</time>
      </trkpt>
      <trkpt lat="46.06501" lon="6.7612">
        <ele>1196.1</ele>
        <time>2026-06-26T12:16:26Z</time>
      </trkpt>
      <trkpt lat="46.065" lon="6.76121">
        <ele>1196</ele>
        <time>2026-06-26T12:16:27Z</time>
      </trkpt>
      <trkpt lat="46.06499" lon="6.76121">
        <ele>1195.7</ele>
        <time>2026-06-26T12:16:28Z</time>
      </trkpt>
      <trkpt lat="46.06498" lon="6.76122">
        <ele>1195.6</ele>
        <time>2026-06-26T12:16:29Z</time>
      </trkpt>
      <trkpt lat="46.06497" lon="6.76122">
        <ele>1195.4</ele>
        <time>2026-06-26T12:16:30Z</time>
      </trkpt>
      <trkpt lat="46.06496" lon="6.76123">
        <ele>1195.3</ele>
        <time>2026-06-26T12:16:31Z</time>
      </trkpt>
      <trkpt lat="46.06495" lon="6.76124">
        <ele>1195.2</ele>
        <time>2026-06-26T12:16:32Z</time>
      </trkpt>
      <trkpt lat="46.06494" lon="6.76124">
        <ele>1195.1</ele>
        <time>2026-06-26T12:16:33Z</time>
      </trkpt>
      <trkpt lat="46.06493" lon="6.76125">
        <ele>1194.9</ele>
        <time>2026-06-26T12:16:34Z</time>
      </trkpt>
      <trkpt lat="46.06492" lon="6.76125">
        <ele>1194.4</ele>
        <time>2026-06-26T12:16:35Z</time>
      </trkpt>
      <trkpt lat="46.06492" lon="6.76126">
        <ele>1194.1</ele>
        <time>2026-06-26T12:16:36Z</time>
      </trkpt>
      <trkpt lat="46.06491" lon="6.76127">
        <ele>1193.8</ele>
        <time>2026-06-26T12:16:37Z</time>
      </trkpt>
      <trkpt lat="46.0649" lon="6.76128">
        <ele>1193.6</ele>
        <time>2026-06-26T12:16:38Z</time>
      </trkpt>
      <trkpt lat="46.06489" lon="6.76129">
        <ele>1193.5</ele>
        <time>2026-06-26T12:16:39Z</time>
      </trkpt>
      <trkpt lat="46.06488" lon="6.7613">
        <ele>1193.2</ele>
        <time>2026-06-26T12:16:40Z</time>
      </trkpt>
      <trkpt lat="46.06487" lon="6.76131">
        <ele>1193</ele>
        <time>2026-06-26T12:16:41Z</time>
      </trkpt>
      <trkpt lat="46.06486" lon="6.76132">
        <ele>1192.9</ele>
        <time>2026-06-26T12:16:42Z</time>
      </trkpt>
      <trkpt lat="46.06485" lon="6.76133">
        <ele>1192.8</ele>
        <time>2026-06-26T12:16:43Z</time>
      </trkpt>
      <trkpt lat="46.06485" lon="6.76134">
        <ele>1192.7</ele>
        <time>2026-06-26T12:16:44Z</time>
      </trkpt>
      <trkpt lat="46.06484" lon="6.76135">
        <ele>1192.6</ele>
        <time>2026-06-26T12:16:45Z</time>
      </trkpt>
      <trkpt lat="46.06483" lon="6.76136">
        <ele>1192.5</ele>
        <time>2026-06-26T12:16:46Z</time>
      </trkpt>
      <trkpt lat="46.06482" lon="6.76137">
        <ele>1192.4</ele>
        <time>2026-06-26T12:16:47Z</time>
      </trkpt>
      <trkpt lat="46.06481" lon="6.76138">
        <ele>1192.3</ele>
        <time>2026-06-26T12:16:48Z</time>
      </trkpt>
      <trkpt lat="46.06479" lon="6.76139">
        <ele>1192.1</ele>
        <time>2026-06-26T12:16:49Z</time>
      </trkpt>
      <trkpt lat="46.06478" lon="6.76139">
        <ele>1192</ele>
        <time>2026-06-26T12:16:50Z</time>
      </trkpt>
      <trkpt lat="46.06477" lon="6.7614">
        <ele>1191.7</ele>
        <time>2026-06-26T12:16:51Z</time>
      </trkpt>
      <trkpt lat="46.06477" lon="6.76141">
        <ele>1191.6</ele>
        <time>2026-06-26T12:16:52Z</time>
      </trkpt>
      <trkpt lat="46.06476" lon="6.76142">
        <ele>1191.5</ele>
        <time>2026-06-26T12:16:53Z</time>
      </trkpt>
      <trkpt lat="46.06475" lon="6.76142">
        <ele>1191.3</ele>
        <time>2026-06-26T12:16:54Z</time>
      </trkpt>
      <trkpt lat="46.06474" lon="6.76143">
        <ele>1191.2</ele>
        <time>2026-06-26T12:16:55Z</time>
      </trkpt>
      <trkpt lat="46.06473" lon="6.76144">
        <ele>1191.1</ele>
        <time>2026-06-26T12:16:56Z</time>
      </trkpt>
      <trkpt lat="46.06472" lon="6.76144">
        <ele>1190.9</ele>
        <time>2026-06-26T12:16:57Z</time>
      </trkpt>
      <trkpt lat="46.06471" lon="6.76145">
        <ele>1190.7</ele>
        <time>2026-06-26T12:16:58Z</time>
      </trkpt>
      <trkpt lat="46.0647" lon="6.76145">
        <ele>1190.6</ele>
        <time>2026-06-26T12:16:59Z</time>
      </trkpt>
      <trkpt lat="46.06469" lon="6.76146">
        <ele>1190.4</ele>
        <time>2026-06-26T12:17:00Z</time>
      </trkpt>
      <trkpt lat="46.06468" lon="6.76146">
        <ele>1190.3</ele>
        <time>2026-06-26T12:17:01Z</time>
      </trkpt>
      <trkpt lat="46.06468" lon="6.76146">
        <ele>1190.1</ele>
        <time>2026-06-26T12:17:02Z</time>
      </trkpt>
      <trkpt lat="46.06468" lon="6.76146">
        <ele>1189.9</ele>
        <time>2026-06-26T12:17:03Z</time>
      </trkpt>
      <trkpt lat="46.06467" lon="6.76147">
        <ele>1189.7</ele>
        <time>2026-06-26T12:17:04Z</time>
      </trkpt>
      <trkpt lat="46.06466" lon="6.76148">
        <ele>1189.5</ele>
        <time>2026-06-26T12:17:05Z</time>
      </trkpt>
      <trkpt lat="46.06465" lon="6.76149">
        <ele>1189.4</ele>
        <time>2026-06-26T12:17:06Z</time>
      </trkpt>
      <trkpt lat="46.06464" lon="6.7615">
        <ele>1189.2</ele>
        <time>2026-06-26T12:17:07Z</time>
      </trkpt>
      <trkpt lat="46.06463" lon="6.7615">
        <ele>1189</ele>
        <time>2026-06-26T12:17:08Z</time>
      </trkpt>
      <trkpt lat="46.06462" lon="6.76151">
        <ele>1188.8</ele>
        <time>2026-06-26T12:17:09Z</time>
      </trkpt>
      <trkpt lat="46.06461" lon="6.76151">
        <ele>1188.6</ele>
        <time>2026-06-26T12:17:10Z</time>
      </trkpt>
      <trkpt lat="46.0646" lon="6.76152">
        <ele>1188.5</ele>
        <time>2026-06-26T12:17:11Z</time>
      </trkpt>
      <trkpt lat="46.06459" lon="6.76152">
        <ele>1188.3</ele>
        <time>2026-06-26T12:17:12Z</time>
      </trkpt>
      <trkpt lat="46.06458" lon="6.76152">
        <ele>1188.2</ele>
        <time>2026-06-26T12:17:13Z</time>
      </trkpt>
      <trkpt lat="46.06457" lon="6.76152">
        <ele>1188</ele>
        <time>2026-06-26T12:17:14Z</time>
      </trkpt>
      <trkpt lat="46.06456" lon="6.76153">
        <ele>1188</ele>
        <time>2026-06-26T12:17:15Z</time>
      </trkpt>
      <trkpt lat="46.06455" lon="6.76153">
        <ele>1187.7</ele>
        <time>2026-06-26T12:17:16Z</time>
      </trkpt>
      <trkpt lat="46.06454" lon="6.76153">
        <ele>1187.3</ele>
        <time>2026-06-26T12:17:17Z</time>
      </trkpt>
      <trkpt lat="46.06453" lon="6.76153">
        <ele>1187.1</ele>
        <time>2026-06-26T12:17:18Z</time>
      </trkpt>
      <trkpt lat="46.06452" lon="6.76153">
        <ele>1186.9</ele>
        <time>2026-06-26T12:17:19Z</time>
      </trkpt>
      <trkpt lat="46.06451" lon="6.76153">
        <ele>1186.8</ele>
        <time>2026-06-26T12:17:20Z</time>
      </trkpt>
      <trkpt lat="46.06449" lon="6.76152">
        <ele>1186.6</ele>
        <time>2026-06-26T12:17:21Z</time>
      </trkpt>
      <trkpt lat="46.06448" lon="6.76152">
        <ele>1186.5</ele>
        <time>2026-06-26T12:17:22Z</time>
      </trkpt>
      <trkpt lat="46.06447" lon="6.76152">
        <ele>1186.3</ele>
        <time>2026-06-26T12:17:23Z</time>
      </trkpt>
      <trkpt lat="46.06446" lon="6.76152">
        <ele>1186.1</ele>
        <time>2026-06-26T12:17:24Z</time>
      </trkpt>
      <trkpt lat="46.06445" lon="6.76152">
        <ele>1185.9</ele>
        <time>2026-06-26T12:17:25Z</time>
      </trkpt>
      <trkpt lat="46.06443" lon="6.76152">
        <ele>1185.9</ele>
        <time>2026-06-26T12:17:26Z</time>
      </trkpt>
      <trkpt lat="46.06442" lon="6.76151">
        <ele>1186</ele>
        <time>2026-06-26T12:17:27Z</time>
      </trkpt>
      <trkpt lat="46.06441" lon="6.7615">
        <ele>1185.9</ele>
        <time>2026-06-26T12:17:28Z</time>
      </trkpt>
      <trkpt lat="46.0644" lon="6.7615">
        <ele>1185.7</ele>
        <time>2026-06-26T12:17:29Z</time>
      </trkpt>
      <trkpt lat="46.06439" lon="6.76149">
        <ele>1185.5</ele>
        <time>2026-06-26T12:17:30Z</time>
      </trkpt>
      <trkpt lat="46.06438" lon="6.76149">
        <ele>1185.4</ele>
        <time>2026-06-26T12:17:31Z</time>
      </trkpt>
      <trkpt lat="46.06437" lon="6.76148">
        <ele>1185.2</ele>
        <time>2026-06-26T12:17:32Z</time>
      </trkpt>
      <trkpt lat="46.06435" lon="6.76146">
        <ele>1185.1</ele>
        <time>2026-06-26T12:17:33Z</time>
      </trkpt>
      <trkpt lat="46.06434" lon="6.76144">
        <ele>1185</ele>
        <time>2026-06-26T12:17:34Z</time>
      </trkpt>
      <trkpt lat="46.06433" lon="6.76143">
        <ele>1184.7</ele>
        <time>2026-06-26T12:17:35Z</time>
      </trkpt>
      <trkpt lat="46.06432" lon="6.76143">
        <ele>1184.6</ele>
        <time>2026-06-26T12:17:36Z</time>
      </trkpt>
      <trkpt lat="46.06431" lon="6.76142">
        <ele>1184.6</ele>
        <time>2026-06-26T12:17:37Z</time>
      </trkpt>
      <trkpt lat="46.06429" lon="6.76141">
        <ele>1184.5</ele>
        <time>2026-06-26T12:17:38Z</time>
      </trkpt>
      <trkpt lat="46.06428" lon="6.7614">
        <ele>1184.4</ele>
        <time>2026-06-26T12:17:39Z</time>
      </trkpt>
      <trkpt lat="46.06427" lon="6.7614">
        <ele>1184.4</ele>
        <time>2026-06-26T12:17:40Z</time>
      </trkpt>
      <trkpt lat="46.06426" lon="6.7614">
        <ele>1184.1</ele>
        <time>2026-06-26T12:17:41Z</time>
      </trkpt>
      <trkpt lat="46.06425" lon="6.7614">
        <ele>1183.9</ele>
        <time>2026-06-26T12:17:42Z</time>
      </trkpt>
      <trkpt lat="46.06424" lon="6.76139">
        <ele>1183.7</ele>
        <time>2026-06-26T12:17:43Z</time>
      </trkpt>
      <trkpt lat="46.06423" lon="6.76138">
        <ele>1183.7</ele>
        <time>2026-06-26T12:17:44Z</time>
      </trkpt>
      <trkpt lat="46.06422" lon="6.76138">
        <ele>1183.6</ele>
        <time>2026-06-26T12:17:45Z</time>
      </trkpt>
      <trkpt lat="46.06421" lon="6.76137">
        <ele>1183.6</ele>
        <time>2026-06-26T12:17:46Z</time>
      </trkpt>
      <trkpt lat="46.0642" lon="6.76136">
        <ele>1183.5</ele>
        <time>2026-06-26T12:17:47Z</time>
      </trkpt>
      <trkpt lat="46.06419" lon="6.76136">
        <ele>1183.3</ele>
        <time>2026-06-26T12:17:48Z</time>
      </trkpt>
      <trkpt lat="46.06417" lon="6.76135">
        <ele>1183.1</ele>
        <time>2026-06-26T12:17:49Z</time>
      </trkpt>
      <trkpt lat="46.06416" lon="6.76135">
        <ele>1183</ele>
        <time>2026-06-26T12:17:50Z</time>
      </trkpt>
      <trkpt lat="46.06415" lon="6.76135">
        <ele>1182.7</ele>
        <time>2026-06-26T12:17:51Z</time>
      </trkpt>
      <trkpt lat="46.06414" lon="6.76134">
        <ele>1182.6</ele>
        <time>2026-06-26T12:17:52Z</time>
      </trkpt>
      <trkpt lat="46.06413" lon="6.76134">
        <ele>1182.4</ele>
        <time>2026-06-26T12:17:53Z</time>
      </trkpt>
      <trkpt lat="46.06411" lon="6.76134">
        <ele>1182.3</ele>
        <time>2026-06-26T12:17:54Z</time>
      </trkpt>
      <trkpt lat="46.0641" lon="6.76133">
        <ele>1182.1</ele>
        <time>2026-06-26T12:17:55Z</time>
      </trkpt>
      <trkpt lat="46.06409" lon="6.76134">
        <ele>1182</ele>
        <time>2026-06-26T12:17:56Z</time>
      </trkpt>
      <trkpt lat="46.06408" lon="6.76134">
        <ele>1181.8</ele>
        <time>2026-06-26T12:17:57Z</time>
      </trkpt>
      <trkpt lat="46.06407" lon="6.76134">
        <ele>1181.6</ele>
        <time>2026-06-26T12:17:58Z</time>
      </trkpt>
      <trkpt lat="46.06406" lon="6.76134">
        <ele>1181.5</ele>
        <time>2026-06-26T12:17:59Z</time>
      </trkpt>
      <trkpt lat="46.06405" lon="6.76134">
        <ele>1181.4</ele>
        <time>2026-06-26T12:18:00Z</time>
      </trkpt>
      <trkpt lat="46.06404" lon="6.76135">
        <ele>1181.1</ele>
        <time>2026-06-26T12:18:01Z</time>
      </trkpt>
      <trkpt lat="46.06403" lon="6.76136">
        <ele>1180.9</ele>
        <time>2026-06-26T12:18:02Z</time>
      </trkpt>
      <trkpt lat="46.06401" lon="6.76135">
        <ele>1180.6</ele>
        <time>2026-06-26T12:18:03Z</time>
      </trkpt>
      <trkpt lat="46.064" lon="6.76135">
        <ele>1180.4</ele>
        <time>2026-06-26T12:18:04Z</time>
      </trkpt>
      <trkpt lat="46.06399" lon="6.76135">
        <ele>1180.2</ele>
        <time>2026-06-26T12:18:05Z</time>
      </trkpt>
      <trkpt lat="46.06398" lon="6.76135">
        <ele>1180.1</ele>
        <time>2026-06-26T12:18:06Z</time>
      </trkpt>
      <trkpt lat="46.06397" lon="6.76135">
        <ele>1179.7</ele>
        <time>2026-06-26T12:18:07Z</time>
      </trkpt>
      <trkpt lat="46.06396" lon="6.76135">
        <ele>1179.5</ele>
        <time>2026-06-26T12:18:08Z</time>
      </trkpt>
      <trkpt lat="46.06395" lon="6.76135">
        <ele>1179.3</ele>
        <time>2026-06-26T12:18:09Z</time>
      </trkpt>
      <trkpt lat="46.06394" lon="6.76135">
        <ele>1179.2</ele>
        <time>2026-06-26T12:18:10Z</time>
      </trkpt>
      <trkpt lat="46.06392" lon="6.76135">
        <ele>1178.9</ele>
        <time>2026-06-26T12:18:11Z</time>
      </trkpt>
      <trkpt lat="46.06391" lon="6.76135">
        <ele>1178.8</ele>
        <time>2026-06-26T12:18:12Z</time>
      </trkpt>
      <trkpt lat="46.0639" lon="6.76135">
        <ele>1178.6</ele>
        <time>2026-06-26T12:18:13Z</time>
      </trkpt>
      <trkpt lat="46.06389" lon="6.76136">
        <ele>1178.3</ele>
        <time>2026-06-26T12:18:14Z</time>
      </trkpt>
      <trkpt lat="46.06388" lon="6.76136">
        <ele>1178.1</ele>
        <time>2026-06-26T12:18:15Z</time>
      </trkpt>
      <trkpt lat="46.06387" lon="6.76135">
        <ele>1178</ele>
        <time>2026-06-26T12:18:16Z</time>
      </trkpt>
      <trkpt lat="46.06386" lon="6.76136">
        <ele>1177.8</ele>
        <time>2026-06-26T12:18:17Z</time>
      </trkpt>
      <trkpt lat="46.06385" lon="6.76136">
        <ele>1177.7</ele>
        <time>2026-06-26T12:18:18Z</time>
      </trkpt>
      <trkpt lat="46.06384" lon="6.76136">
        <ele>1177.5</ele>
        <time>2026-06-26T12:18:19Z</time>
      </trkpt>
      <trkpt lat="46.06384" lon="6.76137">
        <ele>1177.3</ele>
        <time>2026-06-26T12:18:20Z</time>
      </trkpt>
      <trkpt lat="46.06382" lon="6.76137">
        <ele>1177.1</ele>
        <time>2026-06-26T12:18:21Z</time>
      </trkpt>
      <trkpt lat="46.06381" lon="6.76137">
        <ele>1177</ele>
        <time>2026-06-26T12:18:22Z</time>
      </trkpt>
      <trkpt lat="46.0638" lon="6.76137">
        <ele>1176.9</ele>
        <time>2026-06-26T12:18:23Z</time>
      </trkpt>
      <trkpt lat="46.06379" lon="6.76137">
        <ele>1176.8</ele>
        <time>2026-06-26T12:18:24Z</time>
      </trkpt>
      <trkpt lat="46.06378" lon="6.76137">
        <ele>1176.7</ele>
        <time>2026-06-26T12:18:25Z</time>
      </trkpt>
      <trkpt lat="46.06377" lon="6.76138">
        <ele>1176.5</ele>
        <time>2026-06-26T12:18:26Z</time>
      </trkpt>
      <trkpt lat="46.06376" lon="6.76138">
        <ele>1176.3</ele>
        <time>2026-06-26T12:18:27Z</time>
      </trkpt>
      <trkpt lat="46.06375" lon="6.76138">
        <ele>1176.2</ele>
        <time>2026-06-26T12:18:28Z</time>
      </trkpt>
      <trkpt lat="46.06373" lon="6.76138">
        <ele>1176.1</ele>
        <time>2026-06-26T12:18:29Z</time>
      </trkpt>
      <trkpt lat="46.06372" lon="6.76138">
        <ele>1176</ele>
        <time>2026-06-26T12:18:30Z</time>
      </trkpt>
      <trkpt lat="46.06371" lon="6.76138">
        <ele>1175.9</ele>
        <time>2026-06-26T12:18:31Z</time>
      </trkpt>
      <trkpt lat="46.0637" lon="6.76138">
        <ele>1175.8</ele>
        <time>2026-06-26T12:18:32Z</time>
      </trkpt>
      <trkpt lat="46.06369" lon="6.76138">
        <ele>1175.5</ele>
        <time>2026-06-26T12:18:33Z</time>
      </trkpt>
      <trkpt lat="46.06368" lon="6.76138">
        <ele>1175.3</ele>
        <time>2026-06-26T12:18:34Z</time>
      </trkpt>
      <trkpt lat="46.06367" lon="6.76139">
        <ele>1175.1</ele>
        <time>2026-06-26T12:18:35Z</time>
      </trkpt>
      <trkpt lat="46.06366" lon="6.76139">
        <ele>1175.1</ele>
        <time>2026-06-26T12:18:36Z</time>
      </trkpt>
      <trkpt lat="46.06365" lon="6.76139">
        <ele>1175.1</ele>
        <time>2026-06-26T12:18:37Z</time>
      </trkpt>
      <trkpt lat="46.06364" lon="6.76139">
        <ele>1174.9</ele>
        <time>2026-06-26T12:18:38Z</time>
      </trkpt>
      <trkpt lat="46.06363" lon="6.7614">
        <ele>1174.7</ele>
        <time>2026-06-26T12:18:39Z</time>
      </trkpt>
      <trkpt lat="46.06361" lon="6.7614">
        <ele>1174.5</ele>
        <time>2026-06-26T12:18:40Z</time>
      </trkpt>
      <trkpt lat="46.0636" lon="6.76141">
        <ele>1174.3</ele>
        <time>2026-06-26T12:18:41Z</time>
      </trkpt>
      <trkpt lat="46.06359" lon="6.7614">
        <ele>1174.2</ele>
        <time>2026-06-26T12:18:42Z</time>
      </trkpt>
      <trkpt lat="46.06358" lon="6.76141">
        <ele>1174</ele>
        <time>2026-06-26T12:18:43Z</time>
      </trkpt>
      <trkpt lat="46.06357" lon="6.7614">
        <ele>1173.9</ele>
        <time>2026-06-26T12:18:44Z</time>
      </trkpt>
      <trkpt lat="46.06356" lon="6.7614">
        <ele>1173.7</ele>
        <time>2026-06-26T12:18:45Z</time>
      </trkpt>
      <trkpt lat="46.06355" lon="6.76141">
        <ele>1173.5</ele>
        <time>2026-06-26T12:18:46Z</time>
      </trkpt>
      <trkpt lat="46.06353" lon="6.7614">
        <ele>1173.2</ele>
        <time>2026-06-26T12:18:47Z</time>
      </trkpt>
      <trkpt lat="46.06352" lon="6.7614">
        <ele>1172.9</ele>
        <time>2026-06-26T12:18:48Z</time>
      </trkpt>
      <trkpt lat="46.06351" lon="6.7614">
        <ele>1172.8</ele>
        <time>2026-06-26T12:18:49Z</time>
      </trkpt>
      <trkpt lat="46.0635" lon="6.7614">
        <ele>1172.6</ele>
        <time>2026-06-26T12:18:50Z</time>
      </trkpt>
      <trkpt lat="46.06349" lon="6.7614">
        <ele>1172.2</ele>
        <time>2026-06-26T12:18:51Z</time>
      </trkpt>
      <trkpt lat="46.06348" lon="6.76141">
        <ele>1172.1</ele>
        <time>2026-06-26T12:18:52Z</time>
      </trkpt>
      <trkpt lat="46.06347" lon="6.76141">
        <ele>1171.8</ele>
        <time>2026-06-26T12:18:53Z</time>
      </trkpt>
      <trkpt lat="46.06346" lon="6.76141">
        <ele>1171.6</ele>
        <time>2026-06-26T12:18:54Z</time>
      </trkpt>
      <trkpt lat="46.06345" lon="6.76141">
        <ele>1171.5</ele>
        <time>2026-06-26T12:18:55Z</time>
      </trkpt>
      <trkpt lat="46.06344" lon="6.76141">
        <ele>1171.4</ele>
        <time>2026-06-26T12:18:56Z</time>
      </trkpt>
      <trkpt lat="46.06342" lon="6.76141">
        <ele>1171.3</ele>
        <time>2026-06-26T12:18:57Z</time>
      </trkpt>
      <trkpt lat="46.06341" lon="6.76141">
        <ele>1171.1</ele>
        <time>2026-06-26T12:18:58Z</time>
      </trkpt>
      <trkpt lat="46.0634" lon="6.7614">
        <ele>1170.9</ele>
        <time>2026-06-26T12:18:59Z</time>
      </trkpt>
      <trkpt lat="46.06339" lon="6.7614">
        <ele>1170.7</ele>
        <time>2026-06-26T12:19:00Z</time>
      </trkpt>
      <trkpt lat="46.06338" lon="6.7614">
        <ele>1170.5</ele>
        <time>2026-06-26T12:19:01Z</time>
      </trkpt>
      <trkpt lat="46.06337" lon="6.76141">
        <ele>1170.4</ele>
        <time>2026-06-26T12:19:02Z</time>
      </trkpt>
      <trkpt lat="46.06336" lon="6.7614">
        <ele>1170.2</ele>
        <time>2026-06-26T12:19:03Z</time>
      </trkpt>
      <trkpt lat="46.06334" lon="6.7614">
        <ele>1170.1</ele>
        <time>2026-06-26T12:19:04Z</time>
      </trkpt>
      <trkpt lat="46.06333" lon="6.76139">
        <ele>1169.8</ele>
        <time>2026-06-26T12:19:05Z</time>
      </trkpt>
      <trkpt lat="46.06332" lon="6.76139">
        <ele>1169.6</ele>
        <time>2026-06-26T12:19:06Z</time>
      </trkpt>
      <trkpt lat="46.06331" lon="6.76139">
        <ele>1169.4</ele>
        <time>2026-06-26T12:19:07Z</time>
      </trkpt>
      <trkpt lat="46.0633" lon="6.76138">
        <ele>1169.3</ele>
        <time>2026-06-26T12:19:08Z</time>
      </trkpt>
      <trkpt lat="46.06329" lon="6.76139">
        <ele>1169.1</ele>
        <time>2026-06-26T12:19:09Z</time>
      </trkpt>
      <trkpt lat="46.06327" lon="6.76138">
        <ele>1168.9</ele>
        <time>2026-06-26T12:19:10Z</time>
      </trkpt>
      <trkpt lat="46.06326" lon="6.76137">
        <ele>1168.7</ele>
        <time>2026-06-26T12:19:11Z</time>
      </trkpt>
      <trkpt lat="46.06325" lon="6.76137">
        <ele>1168.5</ele>
        <time>2026-06-26T12:19:12Z</time>
      </trkpt>
      <trkpt lat="46.06324" lon="6.76136">
        <ele>1168.3</ele>
        <time>2026-06-26T12:19:13Z</time>
      </trkpt>
      <trkpt lat="46.06323" lon="6.76137">
        <ele>1168.1</ele>
        <time>2026-06-26T12:19:14Z</time>
      </trkpt>
      <trkpt lat="46.06322" lon="6.76137">
        <ele>1167.9</ele>
        <time>2026-06-26T12:19:15Z</time>
      </trkpt>
      <trkpt lat="46.06321" lon="6.76137">
        <ele>1167.8</ele>
        <time>2026-06-26T12:19:16Z</time>
      </trkpt>
      <trkpt lat="46.0632" lon="6.76136">
        <ele>1167.6</ele>
        <time>2026-06-26T12:19:17Z</time>
      </trkpt>
      <trkpt lat="46.06319" lon="6.76137">
        <ele>1167.6</ele>
        <time>2026-06-26T12:19:18Z</time>
      </trkpt>
      <trkpt lat="46.06318" lon="6.76137">
        <ele>1167.5</ele>
        <time>2026-06-26T12:19:19Z</time>
      </trkpt>
      <trkpt lat="46.06317" lon="6.76138">
        <ele>1167.4</ele>
        <time>2026-06-26T12:19:20Z</time>
      </trkpt>
      <trkpt lat="46.06315" lon="6.76138">
        <ele>1167.4</ele>
        <time>2026-06-26T12:19:21Z</time>
      </trkpt>
      <trkpt lat="46.06314" lon="6.76139">
        <ele>1167.4</ele>
        <time>2026-06-26T12:19:22Z</time>
      </trkpt>
      <trkpt lat="46.06313" lon="6.76139">
        <ele>1167.2</ele>
        <time>2026-06-26T12:19:23Z</time>
      </trkpt>
      <trkpt lat="46.06312" lon="6.7614">
        <ele>1167</ele>
        <time>2026-06-26T12:19:24Z</time>
      </trkpt>
      <trkpt lat="46.06311" lon="6.7614">
        <ele>1166.9</ele>
        <time>2026-06-26T12:19:25Z</time>
      </trkpt>
      <trkpt lat="46.0631" lon="6.7614">
        <ele>1166.7</ele>
        <time>2026-06-26T12:19:26Z</time>
      </trkpt>
      <trkpt lat="46.06309" lon="6.7614">
        <ele>1166.6</ele>
        <time>2026-06-26T12:19:27Z</time>
      </trkpt>
      <trkpt lat="46.06308" lon="6.76141">
        <ele>1166.4</ele>
        <time>2026-06-26T12:19:28Z</time>
      </trkpt>
      <trkpt lat="46.06307" lon="6.76141">
        <ele>1166.2</ele>
        <time>2026-06-26T12:19:29Z</time>
      </trkpt>
      <trkpt lat="46.06306" lon="6.76142">
        <ele>1166.1</ele>
        <time>2026-06-26T12:19:30Z</time>
      </trkpt>
      <trkpt lat="46.06305" lon="6.76143">
        <ele>1165.9</ele>
        <time>2026-06-26T12:19:31Z</time>
      </trkpt>
      <trkpt lat="46.06304" lon="6.76144">
        <ele>1165.8</ele>
        <time>2026-06-26T12:19:32Z</time>
      </trkpt>
      <trkpt lat="46.06303" lon="6.76144">
        <ele>1165.4</ele>
        <time>2026-06-26T12:19:33Z</time>
      </trkpt>
      <trkpt lat="46.06302" lon="6.76145">
        <ele>1165.1</ele>
        <time>2026-06-26T12:19:34Z</time>
      </trkpt>
      <trkpt lat="46.06301" lon="6.76146">
        <ele>1165</ele>
        <time>2026-06-26T12:19:35Z</time>
      </trkpt>
      <trkpt lat="46.063" lon="6.76146">
        <ele>1164.8</ele>
        <time>2026-06-26T12:19:36Z</time>
      </trkpt>
      <trkpt lat="46.06299" lon="6.76147">
        <ele>1164.6</ele>
        <time>2026-06-26T12:19:37Z</time>
      </trkpt>
      <trkpt lat="46.06298" lon="6.76148">
        <ele>1164.4</ele>
        <time>2026-06-26T12:19:38Z</time>
      </trkpt>
      <trkpt lat="46.06297" lon="6.76149">
        <ele>1164.2</ele>
        <time>2026-06-26T12:19:39Z</time>
      </trkpt>
      <trkpt lat="46.06296" lon="6.7615">
        <ele>1164.1</ele>
        <time>2026-06-26T12:19:40Z</time>
      </trkpt>
      <trkpt lat="46.06295" lon="6.7615">
        <ele>1163.9</ele>
        <time>2026-06-26T12:19:41Z</time>
      </trkpt>
      <trkpt lat="46.06294" lon="6.76151">
        <ele>1163.6</ele>
        <time>2026-06-26T12:19:42Z</time>
      </trkpt>
      <trkpt lat="46.06293" lon="6.76152">
        <ele>1163.4</ele>
        <time>2026-06-26T12:19:43Z</time>
      </trkpt>
      <trkpt lat="46.06292" lon="6.76153">
        <ele>1163.2</ele>
        <time>2026-06-26T12:19:44Z</time>
      </trkpt>
      <trkpt lat="46.06291" lon="6.76154">
        <ele>1163.1</ele>
        <time>2026-06-26T12:19:45Z</time>
      </trkpt>
      <trkpt lat="46.0629" lon="6.76155">
        <ele>1162.9</ele>
        <time>2026-06-26T12:19:46Z</time>
      </trkpt>
      <trkpt lat="46.06289" lon="6.76156">
        <ele>1162.7</ele>
        <time>2026-06-26T12:19:47Z</time>
      </trkpt>
      <trkpt lat="46.06288" lon="6.76157">
        <ele>1162.6</ele>
        <time>2026-06-26T12:19:48Z</time>
      </trkpt>
      <trkpt lat="46.06287" lon="6.76158">
        <ele>1162.5</ele>
        <time>2026-06-26T12:19:49Z</time>
      </trkpt>
      <trkpt lat="46.06286" lon="6.76159">
        <ele>1162.3</ele>
        <time>2026-06-26T12:19:50Z</time>
      </trkpt>
      <trkpt lat="46.06285" lon="6.7616">
        <ele>1162.2</ele>
        <time>2026-06-26T12:19:51Z</time>
      </trkpt>
      <trkpt lat="46.06284" lon="6.7616">
        <ele>1161.9</ele>
        <time>2026-06-26T12:19:52Z</time>
      </trkpt>
      <trkpt lat="46.06284" lon="6.76161">
        <ele>1161.8</ele>
        <time>2026-06-26T12:19:53Z</time>
      </trkpt>
      <trkpt lat="46.06283" lon="6.76162">
        <ele>1161.6</ele>
        <time>2026-06-26T12:19:54Z</time>
      </trkpt>
      <trkpt lat="46.06282" lon="6.76162">
        <ele>1161.4</ele>
        <time>2026-06-26T12:19:55Z</time>
      </trkpt>
      <trkpt lat="46.06281" lon="6.76163">
        <ele>1161.4</ele>
        <time>2026-06-26T12:19:56Z</time>
      </trkpt>
      <trkpt lat="46.0628" lon="6.76164">
        <ele>1161.2</ele>
        <time>2026-06-26T12:19:57Z</time>
      </trkpt>
      <trkpt lat="46.06279" lon="6.76165">
        <ele>1161</ele>
        <time>2026-06-26T12:19:58Z</time>
      </trkpt>
      <trkpt lat="46.06278" lon="6.76166">
        <ele>1160.8</ele>
        <time>2026-06-26T12:19:59Z</time>
      </trkpt>
      <trkpt lat="46.06278" lon="6.76168">
        <ele>1160.6</ele>
        <time>2026-06-26T12:20:00Z</time>
      </trkpt>
      <trkpt lat="46.06277" lon="6.76169">
        <ele>1160.5</ele>
        <time>2026-06-26T12:20:01Z</time>
      </trkpt>
      <trkpt lat="46.06277" lon="6.7617">
        <ele>1160.5</ele>
        <time>2026-06-26T12:20:02Z</time>
      </trkpt>
      <trkpt lat="46.06276" lon="6.76171">
        <ele>1160.2</ele>
        <time>2026-06-26T12:20:03Z</time>
      </trkpt>
      <trkpt lat="46.06275" lon="6.76172">
        <ele>1160.2</ele>
        <time>2026-06-26T12:20:04Z</time>
      </trkpt>
      <trkpt lat="46.06275" lon="6.76172">
        <ele>1159.9</ele>
        <time>2026-06-26T12:20:05Z</time>
      </trkpt>
      <trkpt lat="46.06274" lon="6.76173">
        <ele>1159.7</ele>
        <time>2026-06-26T12:20:06Z</time>
      </trkpt>
      <trkpt lat="46.06273" lon="6.76174">
        <ele>1159.5</ele>
        <time>2026-06-26T12:20:07Z</time>
      </trkpt>
      <trkpt lat="46.06272" lon="6.76176">
        <ele>1159.3</ele>
        <time>2026-06-26T12:20:08Z</time>
      </trkpt>
      <trkpt lat="46.06271" lon="6.76177">
        <ele>1159.2</ele>
        <time>2026-06-26T12:20:09Z</time>
      </trkpt>
      <trkpt lat="46.0627" lon="6.76178">
        <ele>1159</ele>
        <time>2026-06-26T12:20:10Z</time>
      </trkpt>
      <trkpt lat="46.06269" lon="6.76179">
        <ele>1158.8</ele>
        <time>2026-06-26T12:20:11Z</time>
      </trkpt>
      <trkpt lat="46.06268" lon="6.7618">
        <ele>1158.7</ele>
        <time>2026-06-26T12:20:12Z</time>
      </trkpt>
      <trkpt lat="46.06267" lon="6.7618">
        <ele>1158.5</ele>
        <time>2026-06-26T12:20:13Z</time>
      </trkpt>
      <trkpt lat="46.06266" lon="6.76181">
        <ele>1158.4</ele>
        <time>2026-06-26T12:20:14Z</time>
      </trkpt>
      <trkpt lat="46.06265" lon="6.76181">
        <ele>1158.1</ele>
        <time>2026-06-26T12:20:15Z</time>
      </trkpt>
      <trkpt lat="46.06264" lon="6.76181">
        <ele>1157.8</ele>
        <time>2026-06-26T12:20:16Z</time>
      </trkpt>
      <trkpt lat="46.06263" lon="6.76181">
        <ele>1157.6</ele>
        <time>2026-06-26T12:20:17Z</time>
      </trkpt>
      <trkpt lat="46.06261" lon="6.76181">
        <ele>1157.4</ele>
        <time>2026-06-26T12:20:18Z</time>
      </trkpt>
      <trkpt lat="46.0626" lon="6.76181">
        <ele>1157.3</ele>
        <time>2026-06-26T12:20:19Z</time>
      </trkpt>
      <trkpt lat="46.06259" lon="6.76181">
        <ele>1157.1</ele>
        <time>2026-06-26T12:20:20Z</time>
      </trkpt>
      <trkpt lat="46.06258" lon="6.76182">
        <ele>1156.9</ele>
        <time>2026-06-26T12:20:21Z</time>
      </trkpt>
      <trkpt lat="46.06256" lon="6.76181">
        <ele>1156.8</ele>
        <time>2026-06-26T12:20:22Z</time>
      </trkpt>
      <trkpt lat="46.06255" lon="6.7618">
        <ele>1156.7</ele>
        <time>2026-06-26T12:20:23Z</time>
      </trkpt>
      <trkpt lat="46.06254" lon="6.76181">
        <ele>1156.5</ele>
        <time>2026-06-26T12:20:24Z</time>
      </trkpt>
      <trkpt lat="46.06252" lon="6.76181">
        <ele>1156.4</ele>
        <time>2026-06-26T12:20:25Z</time>
      </trkpt>
      <trkpt lat="46.06251" lon="6.76181">
        <ele>1156.1</ele>
        <time>2026-06-26T12:20:26Z</time>
      </trkpt>
      <trkpt lat="46.0625" lon="6.76181">
        <ele>1156</ele>
        <time>2026-06-26T12:20:27Z</time>
      </trkpt>
      <trkpt lat="46.0625" lon="6.7618">
        <ele>1155.7</ele>
        <time>2026-06-26T12:20:28Z</time>
      </trkpt>
      <trkpt lat="46.06248" lon="6.7618">
        <ele>1155.5</ele>
        <time>2026-06-26T12:20:29Z</time>
      </trkpt>
      <trkpt lat="46.06247" lon="6.7618">
        <ele>1155.3</ele>
        <time>2026-06-26T12:20:30Z</time>
      </trkpt>
      <trkpt lat="46.06246" lon="6.7618">
        <ele>1155</ele>
        <time>2026-06-26T12:20:31Z</time>
      </trkpt>
      <trkpt lat="46.06245" lon="6.7618">
        <ele>1154.8</ele>
        <time>2026-06-26T12:20:32Z</time>
      </trkpt>
      <trkpt lat="46.06244" lon="6.7618">
        <ele>1154.7</ele>
        <time>2026-06-26T12:20:33Z</time>
      </trkpt>
      <trkpt lat="46.06243" lon="6.7618">
        <ele>1154.5</ele>
        <time>2026-06-26T12:20:34Z</time>
      </trkpt>
      <trkpt lat="46.06241" lon="6.76181">
        <ele>1154.4</ele>
        <time>2026-06-26T12:20:35Z</time>
      </trkpt>
      <trkpt lat="46.0624" lon="6.76181">
        <ele>1154.1</ele>
        <time>2026-06-26T12:20:36Z</time>
      </trkpt>
      <trkpt lat="46.06239" lon="6.76181">
        <ele>1154</ele>
        <time>2026-06-26T12:20:37Z</time>
      </trkpt>
      <trkpt lat="46.06238" lon="6.76182">
        <ele>1154</ele>
        <time>2026-06-26T12:20:38Z</time>
      </trkpt>
      <trkpt lat="46.06238" lon="6.76183">
        <ele>1153.7</ele>
        <time>2026-06-26T12:20:39Z</time>
      </trkpt>
      <trkpt lat="46.06237" lon="6.76183">
        <ele>1153.4</ele>
        <time>2026-06-26T12:20:40Z</time>
      </trkpt>
      <trkpt lat="46.06235" lon="6.76183">
        <ele>1153.3</ele>
        <time>2026-06-26T12:20:41Z</time>
      </trkpt>
      <trkpt lat="46.06234" lon="6.76183">
        <ele>1153.1</ele>
        <time>2026-06-26T12:20:42Z</time>
      </trkpt>
      <trkpt lat="46.06233" lon="6.76184">
        <ele>1153</ele>
        <time>2026-06-26T12:20:43Z</time>
      </trkpt>
      <trkpt lat="46.06232" lon="6.76184">
        <ele>1152.9</ele>
        <time>2026-06-26T12:20:44Z</time>
      </trkpt>
      <trkpt lat="46.06231" lon="6.76185">
        <ele>1152.7</ele>
        <time>2026-06-26T12:20:45Z</time>
      </trkpt>
      <trkpt lat="46.0623" lon="6.76186">
        <ele>1152.6</ele>
        <time>2026-06-26T12:20:46Z</time>
      </trkpt>
      <trkpt lat="46.06229" lon="6.76186">
        <ele>1152.5</ele>
        <time>2026-06-26T12:20:47Z</time>
      </trkpt>
      <trkpt lat="46.06228" lon="6.76187">
        <ele>1152.5</ele>
        <time>2026-06-26T12:20:48Z</time>
      </trkpt>
      <trkpt lat="46.06227" lon="6.76188">
        <ele>1152.4</ele>
        <time>2026-06-26T12:20:49Z</time>
      </trkpt>
      <trkpt lat="46.06226" lon="6.76189">
        <ele>1152.3</ele>
        <time>2026-06-26T12:20:50Z</time>
      </trkpt>
      <trkpt lat="46.06225" lon="6.76189">
        <ele>1152.1</ele>
        <time>2026-06-26T12:20:51Z</time>
      </trkpt>
      <trkpt lat="46.06224" lon="6.76189">
        <ele>1152</ele>
        <time>2026-06-26T12:20:52Z</time>
      </trkpt>
      <trkpt lat="46.06223" lon="6.7619">
        <ele>1151.9</ele>
        <time>2026-06-26T12:20:53Z</time>
      </trkpt>
      <trkpt lat="46.06222" lon="6.7619">
        <ele>1151.7</ele>
        <time>2026-06-26T12:20:54Z</time>
      </trkpt>
      <trkpt lat="46.06222" lon="6.76191">
        <ele>1151.6</ele>
        <time>2026-06-26T12:20:55Z</time>
      </trkpt>
      <trkpt lat="46.06221" lon="6.76191">
        <ele>1151.4</ele>
        <time>2026-06-26T12:20:56Z</time>
      </trkpt>
      <trkpt lat="46.0622" lon="6.76192">
        <ele>1151.3</ele>
        <time>2026-06-26T12:20:57Z</time>
      </trkpt>
      <trkpt lat="46.06219" lon="6.76193">
        <ele>1151.1</ele>
        <time>2026-06-26T12:20:58Z</time>
      </trkpt>
      <trkpt lat="46.06218" lon="6.76193">
        <ele>1150.8</ele>
        <time>2026-06-26T12:20:59Z</time>
      </trkpt>
      <trkpt lat="46.06217" lon="6.76194">
        <ele>1150.7</ele>
        <time>2026-06-26T12:21:00Z</time>
      </trkpt>
      <trkpt lat="46.06217" lon="6.76194">
        <ele>1150.6</ele>
        <time>2026-06-26T12:21:01Z</time>
      </trkpt>
      <trkpt lat="46.06216" lon="6.76194">
        <ele>1150.3</ele>
        <time>2026-06-26T12:21:02Z</time>
      </trkpt>
      <trkpt lat="46.06215" lon="6.76194">
        <ele>1150.1</ele>
        <time>2026-06-26T12:21:03Z</time>
      </trkpt>
      <trkpt lat="46.06214" lon="6.76194">
        <ele>1150</ele>
        <time>2026-06-26T12:21:04Z</time>
      </trkpt>
      <trkpt lat="46.06213" lon="6.76193">
        <ele>1149.8</ele>
        <time>2026-06-26T12:21:05Z</time>
      </trkpt>
      <trkpt lat="46.06212" lon="6.76192">
        <ele>1149.7</ele>
        <time>2026-06-26T12:21:06Z</time>
      </trkpt>
      <trkpt lat="46.06212" lon="6.76191">
        <ele>1149.7</ele>
        <time>2026-06-26T12:21:07Z</time>
      </trkpt>
      <trkpt lat="46.06212" lon="6.7619">
        <ele>1149.7</ele>
        <time>2026-06-26T12:21:08Z</time>
      </trkpt>
      <trkpt lat="46.06212" lon="6.76189">
        <ele>1149.5</ele>
        <time>2026-06-26T12:21:09Z</time>
      </trkpt>
      <trkpt lat="46.06212" lon="6.76188">
        <ele>1149.4</ele>
        <time>2026-06-26T12:21:10Z</time>
      </trkpt>
      <trkpt lat="46.06212" lon="6.76186">
        <ele>1149.2</ele>
        <time>2026-06-26T12:21:11Z</time>
      </trkpt>
      <trkpt lat="46.06212" lon="6.76185">
        <ele>1149.1</ele>
        <time>2026-06-26T12:21:12Z</time>
      </trkpt>
      <trkpt lat="46.06213" lon="6.76184">
        <ele>1149</ele>
        <time>2026-06-26T12:21:13Z</time>
      </trkpt>
      <trkpt lat="46.06213" lon="6.76183">
        <ele>1148.9</ele>
        <time>2026-06-26T12:21:14Z</time>
      </trkpt>
      <trkpt lat="46.06213" lon="6.76181">
        <ele>1148.8</ele>
        <time>2026-06-26T12:21:15Z</time>
      </trkpt>
      <trkpt lat="46.06214" lon="6.7618">
        <ele>1148.7</ele>
        <time>2026-06-26T12:21:16Z</time>
      </trkpt>
      <trkpt lat="46.06215" lon="6.7618">
        <ele>1148.6</ele>
        <time>2026-06-26T12:21:17Z</time>
      </trkpt>
      <trkpt lat="46.06216" lon="6.76179">
        <ele>1148.5</ele>
        <time>2026-06-26T12:21:18Z</time>
      </trkpt>
      <trkpt lat="46.06216" lon="6.76178">
        <ele>1148.4</ele>
        <time>2026-06-26T12:21:19Z</time>
      </trkpt>
      <trkpt lat="46.06217" lon="6.76178">
        <ele>1148.2</ele>
        <time>2026-06-26T12:21:20Z</time>
      </trkpt>
      <trkpt lat="46.06218" lon="6.76177">
        <ele>1148</ele>
        <time>2026-06-26T12:21:21Z</time>
      </trkpt>
      <trkpt lat="46.06219" lon="6.76176">
        <ele>1147.9</ele>
        <time>2026-06-26T12:21:22Z</time>
      </trkpt>
      <trkpt lat="46.0622" lon="6.76175">
        <ele>1147.8</ele>
        <time>2026-06-26T12:21:23Z</time>
      </trkpt>
      <trkpt lat="46.0622" lon="6.76174">
        <ele>1147.8</ele>
        <time>2026-06-26T12:21:24Z</time>
      </trkpt>
      <trkpt lat="46.06221" lon="6.76173">
        <ele>1147.7</ele>
        <time>2026-06-26T12:21:25Z</time>
      </trkpt>
      <trkpt lat="46.06221" lon="6.76172">
        <ele>1147.5</ele>
        <time>2026-06-26T12:21:26Z</time>
      </trkpt>
      <trkpt lat="46.06222" lon="6.76171">
        <ele>1147.5</ele>
        <time>2026-06-26T12:21:27Z</time>
      </trkpt>
      <trkpt lat="46.06222" lon="6.7617">
        <ele>1147.2</ele>
        <time>2026-06-26T12:21:28Z</time>
      </trkpt>
      <trkpt lat="46.06223" lon="6.7617">
        <ele>1147</ele>
        <time>2026-06-26T12:21:29Z</time>
      </trkpt>
      <trkpt lat="46.06224" lon="6.76169">
        <ele>1146.9</ele>
        <time>2026-06-26T12:21:30Z</time>
      </trkpt>
      <trkpt lat="46.06225" lon="6.76168">
        <ele>1146.6</ele>
        <time>2026-06-26T12:21:31Z</time>
      </trkpt>
      <trkpt lat="46.06226" lon="6.76167">
        <ele>1146.4</ele>
        <time>2026-06-26T12:21:32Z</time>
      </trkpt>
      <trkpt lat="46.06227" lon="6.76166">
        <ele>1146.2</ele>
        <time>2026-06-26T12:21:33Z</time>
      </trkpt>
      <trkpt lat="46.06227" lon="6.76166">
        <ele>1146.1</ele>
        <time>2026-06-26T12:21:34Z</time>
      </trkpt>
      <trkpt lat="46.06228" lon="6.76165">
        <ele>1145.9</ele>
        <time>2026-06-26T12:21:35Z</time>
      </trkpt>
      <trkpt lat="46.06229" lon="6.76165">
        <ele>1145.7</ele>
        <time>2026-06-26T12:21:36Z</time>
      </trkpt>
      <trkpt lat="46.06229" lon="6.76165">
        <ele>1145.6</ele>
        <time>2026-06-26T12:21:37Z</time>
      </trkpt>
      <trkpt lat="46.06229" lon="6.76165">
        <ele>1145.5</ele>
        <time>2026-06-26T12:21:38Z</time>
      </trkpt>
      <trkpt lat="46.06229" lon="6.76165">
        <ele>1145.4</ele>
        <time>2026-06-26T12:21:39Z</time>
      </trkpt>
      <trkpt lat="46.0623" lon="6.76165">
        <ele>1145.3</ele>
        <time>2026-06-26T12:21:40Z</time>
      </trkpt>
      <trkpt lat="46.0623" lon="6.76165">
        <ele>1145.2</ele>
        <time>2026-06-26T12:21:41Z</time>
      </trkpt>
      <trkpt lat="46.0623" lon="6.76165">
        <ele>1145.1</ele>
        <time>2026-06-26T12:21:42Z</time>
      </trkpt>
      <trkpt lat="46.0623" lon="6.76165">
        <ele>1145.1</ele>
        <time>2026-06-26T12:21:43Z</time>
      </trkpt>
      <trkpt lat="46.0623" lon="6.76165">
        <ele>1145</ele>
        <time>2026-06-26T12:21:44Z</time>
      </trkpt>
      <trkpt lat="46.0623" lon="6.76165">
        <ele>1145.1</ele>
        <time>2026-06-26T12:21:45Z</time>
      </trkpt>
      <trkpt lat="46.0623" lon="6.76164">
        <ele>1144.9</ele>
        <time>2026-06-26T12:21:46Z</time>
      </trkpt>
      <trkpt lat="46.0623" lon="6.76163">
        <ele>1144.9</ele>
        <time>2026-06-26T12:21:47Z</time>
      </trkpt>
      <trkpt lat="46.06231" lon="6.76162">
        <ele>1144.8</ele>
        <time>2026-06-26T12:21:48Z</time>
      </trkpt>
      <trkpt lat="46.06232" lon="6.76161">
        <ele>1144.7</ele>
        <time>2026-06-26T12:21:49Z</time>
      </trkpt>
      <trkpt lat="46.06232" lon="6.7616">
        <ele>1144.7</ele>
        <time>2026-06-26T12:21:50Z</time>
      </trkpt>
      <trkpt lat="46.06233" lon="6.7616">
        <ele>1144.7</ele>
        <time>2026-06-26T12:21:51Z</time>
      </trkpt>
      <trkpt lat="46.06234" lon="6.76159">
        <ele>1144.6</ele>
        <time>2026-06-26T12:21:52Z</time>
      </trkpt>
      <trkpt lat="46.06234" lon="6.76157">
        <ele>1144.6</ele>
        <time>2026-06-26T12:21:53Z</time>
      </trkpt>
      <trkpt lat="46.06235" lon="6.76156">
        <ele>1144.5</ele>
        <time>2026-06-26T12:21:54Z</time>
      </trkpt>
      <trkpt lat="46.06236" lon="6.76155">
        <ele>1144.5</ele>
        <time>2026-06-26T12:21:55Z</time>
      </trkpt>
      <trkpt lat="46.06237" lon="6.76154">
        <ele>1144.3</ele>
        <time>2026-06-26T12:21:56Z</time>
      </trkpt>
      <trkpt lat="46.06238" lon="6.76153">
        <ele>1144.2</ele>
        <time>2026-06-26T12:21:57Z</time>
      </trkpt>
      <trkpt lat="46.06238" lon="6.76151">
        <ele>1144.1</ele>
        <time>2026-06-26T12:21:58Z</time>
      </trkpt>
      <trkpt lat="46.06239" lon="6.7615">
        <ele>1144</ele>
        <time>2026-06-26T12:21:59Z</time>
      </trkpt>
      <trkpt lat="46.0624" lon="6.76148">
        <ele>1143.9</ele>
        <time>2026-06-26T12:22:00Z</time>
      </trkpt>
      <trkpt lat="46.0624" lon="6.76147">
        <ele>1143.9</ele>
        <time>2026-06-26T12:22:01Z</time>
      </trkpt>
      <trkpt lat="46.06241" lon="6.76145">
        <ele>1143.8</ele>
        <time>2026-06-26T12:22:02Z</time>
      </trkpt>
      <trkpt lat="46.06242" lon="6.76144">
        <ele>1143.5</ele>
        <time>2026-06-26T12:22:03Z</time>
      </trkpt>
      <trkpt lat="46.06243" lon="6.76143">
        <ele>1143.3</ele>
        <time>2026-06-26T12:22:04Z</time>
      </trkpt>
      <trkpt lat="46.06244" lon="6.76142">
        <ele>1143.1</ele>
        <time>2026-06-26T12:22:05Z</time>
      </trkpt>
      <trkpt lat="46.06245" lon="6.7614">
        <ele>1143</ele>
        <time>2026-06-26T12:22:06Z</time>
      </trkpt>
      <trkpt lat="46.06246" lon="6.76139">
        <ele>1142.9</ele>
        <time>2026-06-26T12:22:07Z</time>
      </trkpt>
      <trkpt lat="46.06246" lon="6.76137">
        <ele>1142.8</ele>
        <time>2026-06-26T12:22:08Z</time>
      </trkpt>
      <trkpt lat="46.06247" lon="6.76136">
        <ele>1142.7</ele>
        <time>2026-06-26T12:22:09Z</time>
      </trkpt>
      <trkpt lat="46.06248" lon="6.76135">
        <ele>1142.6</ele>
        <time>2026-06-26T12:22:10Z</time>
      </trkpt>
      <trkpt lat="46.06249" lon="6.76135">
        <ele>1142.5</ele>
        <time>2026-06-26T12:22:11Z</time>
      </trkpt>
      <trkpt lat="46.0625" lon="6.76134">
        <ele>1142.4</ele>
        <time>2026-06-26T12:22:12Z</time>
      </trkpt>
      <trkpt lat="46.06251" lon="6.76133">
        <ele>1142.2</ele>
        <time>2026-06-26T12:22:13Z</time>
      </trkpt>
      <trkpt lat="46.06251" lon="6.76132">
        <ele>1142</ele>
        <time>2026-06-26T12:22:14Z</time>
      </trkpt>
      <trkpt lat="46.06252" lon="6.76131">
        <ele>1141.9</ele>
        <time>2026-06-26T12:22:15Z</time>
      </trkpt>
      <trkpt lat="46.06253" lon="6.7613">
        <ele>1141.8</ele>
        <time>2026-06-26T12:22:16Z</time>
      </trkpt>
      <trkpt lat="46.06254" lon="6.76128">
        <ele>1141.7</ele>
        <time>2026-06-26T12:22:17Z</time>
      </trkpt>
      <trkpt lat="46.06255" lon="6.76127">
        <ele>1141.5</ele>
        <time>2026-06-26T12:22:18Z</time>
      </trkpt>
      <trkpt lat="46.06256" lon="6.76125">
        <ele>1141.4</ele>
        <time>2026-06-26T12:22:19Z</time>
      </trkpt>
      <trkpt lat="46.06255" lon="6.76123">
        <ele>1141.3</ele>
        <time>2026-06-26T12:22:20Z</time>
      </trkpt>
      <trkpt lat="46.06255" lon="6.76121">
        <ele>1141.2</ele>
        <time>2026-06-26T12:22:21Z</time>
      </trkpt>
      <trkpt lat="46.06254" lon="6.7612">
        <ele>1141.1</ele>
        <time>2026-06-26T12:22:22Z</time>
      </trkpt>
      <trkpt lat="46.06253" lon="6.76119">
        <ele>1141</ele>
        <time>2026-06-26T12:22:23Z</time>
      </trkpt>
      <trkpt lat="46.06252" lon="6.76118">
        <ele>1140.8</ele>
        <time>2026-06-26T12:22:24Z</time>
      </trkpt>
      <trkpt lat="46.06251" lon="6.76117">
        <ele>1140.4</ele>
        <time>2026-06-26T12:22:25Z</time>
      </trkpt>
      <trkpt lat="46.0625" lon="6.76117">
        <ele>1140.2</ele>
        <time>2026-06-26T12:22:26Z</time>
      </trkpt>
      <trkpt lat="46.06249" lon="6.76117">
        <ele>1140</ele>
        <time>2026-06-26T12:22:27Z</time>
      </trkpt>
      <trkpt lat="46.06248" lon="6.76118">
        <ele>1139.9</ele>
        <time>2026-06-26T12:22:28Z</time>
      </trkpt>
      <trkpt lat="46.06247" lon="6.76119">
        <ele>1139.7</ele>
        <time>2026-06-26T12:22:29Z</time>
      </trkpt>
      <trkpt lat="46.06246" lon="6.7612">
        <ele>1139.5</ele>
        <time>2026-06-26T12:22:30Z</time>
      </trkpt>
      <trkpt lat="46.06245" lon="6.7612">
        <ele>1139.3</ele>
        <time>2026-06-26T12:22:31Z</time>
      </trkpt>
      <trkpt lat="46.06244" lon="6.76121">
        <ele>1139.2</ele>
        <time>2026-06-26T12:22:32Z</time>
      </trkpt>
      <trkpt lat="46.06243" lon="6.76121">
        <ele>1139.1</ele>
        <time>2026-06-26T12:22:33Z</time>
      </trkpt>
      <trkpt lat="46.06242" lon="6.76121">
        <ele>1138.9</ele>
        <time>2026-06-26T12:22:34Z</time>
      </trkpt>
      <trkpt lat="46.06242" lon="6.76122">
        <ele>1138.9</ele>
        <time>2026-06-26T12:22:35Z</time>
      </trkpt>
      <trkpt lat="46.0624" lon="6.76122">
        <ele>1138.8</ele>
        <time>2026-06-26T12:22:36Z</time>
      </trkpt>
      <trkpt lat="46.06239" lon="6.76122">
        <ele>1138.7</ele>
        <time>2026-06-26T12:22:37Z</time>
      </trkpt>
      <trkpt lat="46.06238" lon="6.76122">
        <ele>1138.6</ele>
        <time>2026-06-26T12:22:38Z</time>
      </trkpt>
      <trkpt lat="46.06237" lon="6.76122">
        <ele>1138.4</ele>
        <time>2026-06-26T12:22:39Z</time>
      </trkpt>
      <trkpt lat="46.06236" lon="6.76123">
        <ele>1138.3</ele>
        <time>2026-06-26T12:22:40Z</time>
      </trkpt>
      <trkpt lat="46.06235" lon="6.76123">
        <ele>1138</ele>
        <time>2026-06-26T12:22:41Z</time>
      </trkpt>
      <trkpt lat="46.06234" lon="6.76124">
        <ele>1137.9</ele>
        <time>2026-06-26T12:22:42Z</time>
      </trkpt>
      <trkpt lat="46.06233" lon="6.76124">
        <ele>1137.8</ele>
        <time>2026-06-26T12:22:43Z</time>
      </trkpt>
      <trkpt lat="46.06231" lon="6.76124">
        <ele>1137.7</ele>
        <time>2026-06-26T12:22:44Z</time>
      </trkpt>
      <trkpt lat="46.0623" lon="6.76125">
        <ele>1137.5</ele>
        <time>2026-06-26T12:22:45Z</time>
      </trkpt>
      <trkpt lat="46.06229" lon="6.76126">
        <ele>1137.4</ele>
        <time>2026-06-26T12:22:46Z</time>
      </trkpt>
      <trkpt lat="46.06228" lon="6.76126">
        <ele>1137.2</ele>
        <time>2026-06-26T12:22:47Z</time>
      </trkpt>
      <trkpt lat="46.06227" lon="6.76126">
        <ele>1137.1</ele>
        <time>2026-06-26T12:22:48Z</time>
      </trkpt>
      <trkpt lat="46.06226" lon="6.76126">
        <ele>1137</ele>
        <time>2026-06-26T12:22:49Z</time>
      </trkpt>
      <trkpt lat="46.06225" lon="6.76127">
        <ele>1136.9</ele>
        <time>2026-06-26T12:22:50Z</time>
      </trkpt>
      <trkpt lat="46.06223" lon="6.76127">
        <ele>1136.8</ele>
        <time>2026-06-26T12:22:51Z</time>
      </trkpt>
      <trkpt lat="46.06222" lon="6.76127">
        <ele>1136.7</ele>
        <time>2026-06-26T12:22:52Z</time>
      </trkpt>
      <trkpt lat="46.06221" lon="6.76127">
        <ele>1136.4</ele>
        <time>2026-06-26T12:22:53Z</time>
      </trkpt>
      <trkpt lat="46.0622" lon="6.76128">
        <ele>1136.2</ele>
        <time>2026-06-26T12:22:54Z</time>
      </trkpt>
      <trkpt lat="46.06219" lon="6.76128">
        <ele>1136</ele>
        <time>2026-06-26T12:22:55Z</time>
      </trkpt>
      <trkpt lat="46.06218" lon="6.76128">
        <ele>1135.9</ele>
        <time>2026-06-26T12:22:56Z</time>
      </trkpt>
      <trkpt lat="46.06217" lon="6.76128">
        <ele>1135.7</ele>
        <time>2026-06-26T12:22:57Z</time>
      </trkpt>
      <trkpt lat="46.06216" lon="6.76128">
        <ele>1135.6</ele>
        <time>2026-06-26T12:22:58Z</time>
      </trkpt>
      <trkpt lat="46.06214" lon="6.76129">
        <ele>1135.5</ele>
        <time>2026-06-26T12:22:59Z</time>
      </trkpt>
      <trkpt lat="46.06213" lon="6.76129">
        <ele>1135.3</ele>
        <time>2026-06-26T12:23:00Z</time>
      </trkpt>
      <trkpt lat="46.06212" lon="6.76129">
        <ele>1135.3</ele>
        <time>2026-06-26T12:23:01Z</time>
      </trkpt>
      <trkpt lat="46.0621" lon="6.7613">
        <ele>1135.2</ele>
        <time>2026-06-26T12:23:02Z</time>
      </trkpt>
      <trkpt lat="46.06209" lon="6.7613">
        <ele>1135.1</ele>
        <time>2026-06-26T12:23:03Z</time>
      </trkpt>
      <trkpt lat="46.06208" lon="6.76131">
        <ele>1134.9</ele>
        <time>2026-06-26T12:23:04Z</time>
      </trkpt>
      <trkpt lat="46.06207" lon="6.76131">
        <ele>1134.7</ele>
        <time>2026-06-26T12:23:05Z</time>
      </trkpt>
      <trkpt lat="46.06206" lon="6.76131">
        <ele>1134.6</ele>
        <time>2026-06-26T12:23:06Z</time>
      </trkpt>
      <trkpt lat="46.06204" lon="6.76131">
        <ele>1134.5</ele>
        <time>2026-06-26T12:23:07Z</time>
      </trkpt>
      <trkpt lat="46.06203" lon="6.76132">
        <ele>1134.4</ele>
        <time>2026-06-26T12:23:08Z</time>
      </trkpt>
      <trkpt lat="46.06202" lon="6.76132">
        <ele>1134.3</ele>
        <time>2026-06-26T12:23:09Z</time>
      </trkpt>
      <trkpt lat="46.06201" lon="6.76133">
        <ele>1134.1</ele>
        <time>2026-06-26T12:23:10Z</time>
      </trkpt>
      <trkpt lat="46.06199" lon="6.76133">
        <ele>1133.9</ele>
        <time>2026-06-26T12:23:11Z</time>
      </trkpt>
      <trkpt lat="46.06198" lon="6.76133">
        <ele>1133.8</ele>
        <time>2026-06-26T12:23:12Z</time>
      </trkpt>
      <trkpt lat="46.06197" lon="6.76134">
        <ele>1133.7</ele>
        <time>2026-06-26T12:23:13Z</time>
      </trkpt>
      <trkpt lat="46.06197" lon="6.76134">
        <ele>1133.4</ele>
        <time>2026-06-26T12:23:14Z</time>
      </trkpt>
      <trkpt lat="46.06196" lon="6.76135">
        <ele>1133.3</ele>
        <time>2026-06-26T12:23:15Z</time>
      </trkpt>
      <trkpt lat="46.06195" lon="6.76135">
        <ele>1133.2</ele>
        <time>2026-06-26T12:23:16Z</time>
      </trkpt>
      <trkpt lat="46.06194" lon="6.76136">
        <ele>1132.9</ele>
        <time>2026-06-26T12:23:17Z</time>
      </trkpt>
      <trkpt lat="46.06192" lon="6.76136">
        <ele>1132.8</ele>
        <time>2026-06-26T12:23:18Z</time>
      </trkpt>
      <trkpt lat="46.06191" lon="6.76136">
        <ele>1132.6</ele>
        <time>2026-06-26T12:23:19Z</time>
      </trkpt>
      <trkpt lat="46.0619" lon="6.76136">
        <ele>1132.4</ele>
        <time>2026-06-26T12:23:20Z</time>
      </trkpt>
      <trkpt lat="46.06189" lon="6.76137">
        <ele>1132.3</ele>
        <time>2026-06-26T12:23:21Z</time>
      </trkpt>
      <trkpt lat="46.06188" lon="6.76137">
        <ele>1132.1</ele>
        <time>2026-06-26T12:23:22Z</time>
      </trkpt>
      <trkpt lat="46.06187" lon="6.76138">
        <ele>1131.9</ele>
        <time>2026-06-26T12:23:23Z</time>
      </trkpt>
      <trkpt lat="46.06185" lon="6.76137">
        <ele>1131.7</ele>
        <time>2026-06-26T12:23:24Z</time>
      </trkpt>
      <trkpt lat="46.06184" lon="6.76137">
        <ele>1131.4</ele>
        <time>2026-06-26T12:23:25Z</time>
      </trkpt>
      <trkpt lat="46.06183" lon="6.76137">
        <ele>1131.2</ele>
        <time>2026-06-26T12:23:26Z</time>
      </trkpt>
      <trkpt lat="46.06182" lon="6.76138">
        <ele>1131</ele>
        <time>2026-06-26T12:23:27Z</time>
      </trkpt>
      <trkpt lat="46.06181" lon="6.76138">
        <ele>1130.9</ele>
        <time>2026-06-26T12:23:28Z</time>
      </trkpt>
      <trkpt lat="46.0618" lon="6.76139">
        <ele>1130.7</ele>
        <time>2026-06-26T12:23:29Z</time>
      </trkpt>
      <trkpt lat="46.06178" lon="6.76139">
        <ele>1130.6</ele>
        <time>2026-06-26T12:23:30Z</time>
      </trkpt>
      <trkpt lat="46.06178" lon="6.76139">
        <ele>1130.5</ele>
        <time>2026-06-26T12:23:31Z</time>
      </trkpt>
      <trkpt lat="46.06176" lon="6.76138">
        <ele>1130.3</ele>
        <time>2026-06-26T12:23:32Z</time>
      </trkpt>
      <trkpt lat="46.06175" lon="6.76138">
        <ele>1130.2</ele>
        <time>2026-06-26T12:23:33Z</time>
      </trkpt>
      <trkpt lat="46.06175" lon="6.76139">
        <ele>1130.1</ele>
        <time>2026-06-26T12:23:34Z</time>
      </trkpt>
      <trkpt lat="46.06174" lon="6.7614">
        <ele>1129.9</ele>
        <time>2026-06-26T12:23:35Z</time>
      </trkpt>
      <trkpt lat="46.06173" lon="6.7614">
        <ele>1129.8</ele>
        <time>2026-06-26T12:23:36Z</time>
      </trkpt>
      <trkpt lat="46.06172" lon="6.7614">
        <ele>1129.6</ele>
        <time>2026-06-26T12:23:37Z</time>
      </trkpt>
      <trkpt lat="46.06171" lon="6.76141">
        <ele>1129.4</ele>
        <time>2026-06-26T12:23:38Z</time>
      </trkpt>
      <trkpt lat="46.06169" lon="6.76141">
        <ele>1129.4</ele>
        <time>2026-06-26T12:23:39Z</time>
      </trkpt>
      <trkpt lat="46.06168" lon="6.76142">
        <ele>1129.2</ele>
        <time>2026-06-26T12:23:40Z</time>
      </trkpt>
      <trkpt lat="46.06167" lon="6.76143">
        <ele>1128.9</ele>
        <time>2026-06-26T12:23:41Z</time>
      </trkpt>
      <trkpt lat="46.06166" lon="6.76144">
        <ele>1128.6</ele>
        <time>2026-06-26T12:23:42Z</time>
      </trkpt>
      <trkpt lat="46.06165" lon="6.76145">
        <ele>1128.3</ele>
        <time>2026-06-26T12:23:43Z</time>
      </trkpt>
      <trkpt lat="46.06165" lon="6.76147">
        <ele>1128.1</ele>
        <time>2026-06-26T12:23:44Z</time>
      </trkpt>
      <trkpt lat="46.06164" lon="6.76147">
        <ele>1127.9</ele>
        <time>2026-06-26T12:23:45Z</time>
      </trkpt>
      <trkpt lat="46.06163" lon="6.76148">
        <ele>1127.8</ele>
        <time>2026-06-26T12:23:46Z</time>
      </trkpt>
      <trkpt lat="46.06162" lon="6.76149">
        <ele>1127.7</ele>
        <time>2026-06-26T12:23:47Z</time>
      </trkpt>
      <trkpt lat="46.0616" lon="6.76149">
        <ele>1127.6</ele>
        <time>2026-06-26T12:23:48Z</time>
      </trkpt>
      <trkpt lat="46.06159" lon="6.76149">
        <ele>1127.4</ele>
        <time>2026-06-26T12:23:49Z</time>
      </trkpt>
      <trkpt lat="46.06158" lon="6.7615">
        <ele>1127.2</ele>
        <time>2026-06-26T12:23:50Z</time>
      </trkpt>
      <trkpt lat="46.06157" lon="6.76151">
        <ele>1126.9</ele>
        <time>2026-06-26T12:23:51Z</time>
      </trkpt>
      <trkpt lat="46.06156" lon="6.76151">
        <ele>1126.7</ele>
        <time>2026-06-26T12:23:52Z</time>
      </trkpt>
      <trkpt lat="46.06155" lon="6.76152">
        <ele>1126.6</ele>
        <time>2026-06-26T12:23:53Z</time>
      </trkpt>
      <trkpt lat="46.06154" lon="6.76153">
        <ele>1126.5</ele>
        <time>2026-06-26T12:23:54Z</time>
      </trkpt>
      <trkpt lat="46.06153" lon="6.76154">
        <ele>1126.3</ele>
        <time>2026-06-26T12:23:55Z</time>
      </trkpt>
      <trkpt lat="46.06153" lon="6.76154">
        <ele>1126.3</ele>
        <time>2026-06-26T12:23:56Z</time>
      </trkpt>
      <trkpt lat="46.06152" lon="6.76155">
        <ele>1126.1</ele>
        <time>2026-06-26T12:23:57Z</time>
      </trkpt>
      <trkpt lat="46.06151" lon="6.76156">
        <ele>1125.8</ele>
        <time>2026-06-26T12:23:58Z</time>
      </trkpt>
      <trkpt lat="46.0615" lon="6.76156">
        <ele>1125.7</ele>
        <time>2026-06-26T12:23:59Z</time>
      </trkpt>
      <trkpt lat="46.06149" lon="6.76158">
        <ele>1125.6</ele>
        <time>2026-06-26T12:24:00Z</time>
      </trkpt>
      <trkpt lat="46.06147" lon="6.76158">
        <ele>1125.4</ele>
        <time>2026-06-26T12:24:01Z</time>
      </trkpt>
      <trkpt lat="46.06146" lon="6.76157">
        <ele>1125.3</ele>
        <time>2026-06-26T12:24:02Z</time>
      </trkpt>
      <trkpt lat="46.06144" lon="6.76158">
        <ele>1125.1</ele>
        <time>2026-06-26T12:24:03Z</time>
      </trkpt>
      <trkpt lat="46.06143" lon="6.76158">
        <ele>1124.9</ele>
        <time>2026-06-26T12:24:04Z</time>
      </trkpt>
      <trkpt lat="46.06141" lon="6.76158">
        <ele>1124.5</ele>
        <time>2026-06-26T12:24:05Z</time>
      </trkpt>
      <trkpt lat="46.06141" lon="6.76159">
        <ele>1124.2</ele>
        <time>2026-06-26T12:24:06Z</time>
      </trkpt>
      <trkpt lat="46.06139" lon="6.7616">
        <ele>1124</ele>
        <time>2026-06-26T12:24:07Z</time>
      </trkpt>
      <trkpt lat="46.06139" lon="6.76161">
        <ele>1123.8</ele>
        <time>2026-06-26T12:24:08Z</time>
      </trkpt>
      <trkpt lat="46.06138" lon="6.76161">
        <ele>1123.7</ele>
        <time>2026-06-26T12:24:09Z</time>
      </trkpt>
      <trkpt lat="46.06138" lon="6.76162">
        <ele>1123.4</ele>
        <time>2026-06-26T12:24:10Z</time>
      </trkpt>
      <trkpt lat="46.06137" lon="6.76163">
        <ele>1123.2</ele>
        <time>2026-06-26T12:24:11Z</time>
      </trkpt>
      <trkpt lat="46.06135" lon="6.76164">
        <ele>1123</ele>
        <time>2026-06-26T12:24:12Z</time>
      </trkpt>
      <trkpt lat="46.06134" lon="6.76164">
        <ele>1122.8</ele>
        <time>2026-06-26T12:24:13Z</time>
      </trkpt>
      <trkpt lat="46.06132" lon="6.76165">
        <ele>1122.7</ele>
        <time>2026-06-26T12:24:14Z</time>
      </trkpt>
      <trkpt lat="46.06131" lon="6.76166">
        <ele>1122.2</ele>
        <time>2026-06-26T12:24:15Z</time>
      </trkpt>
      <trkpt lat="46.06129" lon="6.76166">
        <ele>1122.1</ele>
        <time>2026-06-26T12:24:16Z</time>
      </trkpt>
      <trkpt lat="46.06127" lon="6.76167">
        <ele>1121.9</ele>
        <time>2026-06-26T12:24:17Z</time>
      </trkpt>
      <trkpt lat="46.06126" lon="6.76168">
        <ele>1121.6</ele>
        <time>2026-06-26T12:24:18Z</time>
      </trkpt>
      <trkpt lat="46.06125" lon="6.76169">
        <ele>1121.4</ele>
        <time>2026-06-26T12:24:19Z</time>
      </trkpt>
      <trkpt lat="46.06123" lon="6.76169">
        <ele>1121.3</ele>
        <time>2026-06-26T12:24:20Z</time>
      </trkpt>
      <trkpt lat="46.06122" lon="6.7617">
        <ele>1121.3</ele>
        <time>2026-06-26T12:24:21Z</time>
      </trkpt>
      <trkpt lat="46.06121" lon="6.76171">
        <ele>1121.2</ele>
        <time>2026-06-26T12:24:22Z</time>
      </trkpt>
      <trkpt lat="46.0612" lon="6.76171">
        <ele>1121</ele>
        <time>2026-06-26T12:24:23Z</time>
      </trkpt>
      <trkpt lat="46.06119" lon="6.76172">
        <ele>1120.9</ele>
        <time>2026-06-26T12:24:24Z</time>
      </trkpt>
      <trkpt lat="46.06118" lon="6.76173">
        <ele>1120.7</ele>
        <time>2026-06-26T12:24:25Z</time>
      </trkpt>
      <trkpt lat="46.06117" lon="6.76174">
        <ele>1120.6</ele>
        <time>2026-06-26T12:24:26Z</time>
      </trkpt>
      <trkpt lat="46.06115" lon="6.76175">
        <ele>1120.5</ele>
        <time>2026-06-26T12:24:27Z</time>
      </trkpt>
      <trkpt lat="46.06115" lon="6.76176">
        <ele>1120.4</ele>
        <time>2026-06-26T12:24:28Z</time>
      </trkpt>
      <trkpt lat="46.06113" lon="6.76177">
        <ele>1120.3</ele>
        <time>2026-06-26T12:24:29Z</time>
      </trkpt>
      <trkpt lat="46.06112" lon="6.76178">
        <ele>1120.2</ele>
        <time>2026-06-26T12:24:30Z</time>
      </trkpt>
      <trkpt lat="46.06111" lon="6.76179">
        <ele>1119.9</ele>
        <time>2026-06-26T12:24:31Z</time>
      </trkpt>
      <trkpt lat="46.0611" lon="6.7618">
        <ele>1119.7</ele>
        <time>2026-06-26T12:24:32Z</time>
      </trkpt>
      <trkpt lat="46.06109" lon="6.7618">
        <ele>1119.7</ele>
        <time>2026-06-26T12:24:33Z</time>
      </trkpt>
      <trkpt lat="46.06108" lon="6.7618">
        <ele>1119.5</ele>
        <time>2026-06-26T12:24:34Z</time>
      </trkpt>
      <trkpt lat="46.06106" lon="6.7618">
        <ele>1119.3</ele>
        <time>2026-06-26T12:24:35Z</time>
      </trkpt>
      <trkpt lat="46.06105" lon="6.7618">
        <ele>1119.1</ele>
        <time>2026-06-26T12:24:36Z</time>
      </trkpt>
      <trkpt lat="46.06104" lon="6.7618">
        <ele>1118.9</ele>
        <time>2026-06-26T12:24:37Z</time>
      </trkpt>
      <trkpt lat="46.06103" lon="6.7618">
        <ele>1118.7</ele>
        <time>2026-06-26T12:24:38Z</time>
      </trkpt>
      <trkpt lat="46.06101" lon="6.76179">
        <ele>1118.4</ele>
        <time>2026-06-26T12:24:39Z</time>
      </trkpt>
      <trkpt lat="46.061" lon="6.76179">
        <ele>1118.2</ele>
        <time>2026-06-26T12:24:40Z</time>
      </trkpt>
      <trkpt lat="46.06099" lon="6.76179">
        <ele>1118</ele>
        <time>2026-06-26T12:24:41Z</time>
      </trkpt>
      <trkpt lat="46.06098" lon="6.76179">
        <ele>1117.8</ele>
        <time>2026-06-26T12:24:42Z</time>
      </trkpt>
      <trkpt lat="46.06097" lon="6.7618">
        <ele>1117.6</ele>
        <time>2026-06-26T12:24:43Z</time>
      </trkpt>
      <trkpt lat="46.06096" lon="6.7618">
        <ele>1117.5</ele>
        <time>2026-06-26T12:24:44Z</time>
      </trkpt>
      <trkpt lat="46.06095" lon="6.76181">
        <ele>1117.3</ele>
        <time>2026-06-26T12:24:45Z</time>
      </trkpt>
      <trkpt lat="46.06095" lon="6.76182">
        <ele>1116.9</ele>
        <time>2026-06-26T12:24:46Z</time>
      </trkpt>
      <trkpt lat="46.06095" lon="6.76183">
        <ele>1116.7</ele>
        <time>2026-06-26T12:24:47Z</time>
      </trkpt>
      <trkpt lat="46.06094" lon="6.76183">
        <ele>1116.5</ele>
        <time>2026-06-26T12:24:48Z</time>
      </trkpt>
      <trkpt lat="46.06093" lon="6.76182">
        <ele>1116.3</ele>
        <time>2026-06-26T12:24:49Z</time>
      </trkpt>
      <trkpt lat="46.06093" lon="6.76183">
        <ele>1116.1</ele>
        <time>2026-06-26T12:24:50Z</time>
      </trkpt>
      <trkpt lat="46.06092" lon="6.76183">
        <ele>1116</ele>
        <time>2026-06-26T12:24:51Z</time>
      </trkpt>
      <trkpt lat="46.06091" lon="6.76183">
        <ele>1115.9</ele>
        <time>2026-06-26T12:24:52Z</time>
      </trkpt>
      <trkpt lat="46.0609" lon="6.76183">
        <ele>1115.7</ele>
        <time>2026-06-26T12:24:53Z</time>
      </trkpt>
      <trkpt lat="46.06088" lon="6.76183">
        <ele>1115.5</ele>
        <time>2026-06-26T12:24:54Z</time>
      </trkpt>
      <trkpt lat="46.06087" lon="6.76183">
        <ele>1115.1</ele>
        <time>2026-06-26T12:24:55Z</time>
      </trkpt>
      <trkpt lat="46.06086" lon="6.76183">
        <ele>1114.9</ele>
        <time>2026-06-26T12:24:56Z</time>
      </trkpt>
      <trkpt lat="46.06084" lon="6.76183">
        <ele>1114.7</ele>
        <time>2026-06-26T12:24:57Z</time>
      </trkpt>
      <trkpt lat="46.06083" lon="6.76183">
        <ele>1114.5</ele>
        <time>2026-06-26T12:24:58Z</time>
      </trkpt>
      <trkpt lat="46.06082" lon="6.76182">
        <ele>1114.3</ele>
        <time>2026-06-26T12:24:59Z</time>
      </trkpt>
      <trkpt lat="46.06081" lon="6.76181">
        <ele>1114.2</ele>
        <time>2026-06-26T12:25:00Z</time>
      </trkpt>
      <trkpt lat="46.0608" lon="6.76181">
        <ele>1113.9</ele>
        <time>2026-06-26T12:25:01Z</time>
      </trkpt>
      <trkpt lat="46.0608" lon="6.7618">
        <ele>1113.6</ele>
        <time>2026-06-26T12:25:02Z</time>
      </trkpt>
      <trkpt lat="46.06079" lon="6.7618">
        <ele>1113.5</ele>
        <time>2026-06-26T12:25:03Z</time>
      </trkpt>
      <trkpt lat="46.06078" lon="6.76181">
        <ele>1113.2</ele>
        <time>2026-06-26T12:25:04Z</time>
      </trkpt>
      <trkpt lat="46.06077" lon="6.76181">
        <ele>1113</ele>
        <time>2026-06-26T12:25:05Z</time>
      </trkpt>
      <trkpt lat="46.06076" lon="6.76182">
        <ele>1112.8</ele>
        <time>2026-06-26T12:25:06Z</time>
      </trkpt>
      <trkpt lat="46.06076" lon="6.76182">
        <ele>1112.6</ele>
        <time>2026-06-26T12:25:07Z</time>
      </trkpt>
      <trkpt lat="46.06075" lon="6.76183">
        <ele>1112.3</ele>
        <time>2026-06-26T12:25:08Z</time>
      </trkpt>
      <trkpt lat="46.06074" lon="6.76184">
        <ele>1112.1</ele>
        <time>2026-06-26T12:25:09Z</time>
      </trkpt>
      <trkpt lat="46.06073" lon="6.76184">
        <ele>1111.8</ele>
        <time>2026-06-26T12:25:10Z</time>
      </trkpt>
      <trkpt lat="46.06071" lon="6.76184">
        <ele>1111.7</ele>
        <time>2026-06-26T12:25:11Z</time>
      </trkpt>
      <trkpt lat="46.06069" lon="6.76184">
        <ele>1111.4</ele>
        <time>2026-06-26T12:25:12Z</time>
      </trkpt>
      <trkpt lat="46.06068" lon="6.76184">
        <ele>1111.1</ele>
        <time>2026-06-26T12:25:13Z</time>
      </trkpt>
      <trkpt lat="46.06066" lon="6.76184">
        <ele>1111</ele>
        <time>2026-06-26T12:25:14Z</time>
      </trkpt>
      <trkpt lat="46.06064" lon="6.76184">
        <ele>1110.8</ele>
        <time>2026-06-26T12:25:15Z</time>
      </trkpt>
      <trkpt lat="46.06063" lon="6.76184">
        <ele>1110.7</ele>
        <time>2026-06-26T12:25:16Z</time>
      </trkpt>
      <trkpt lat="46.06062" lon="6.76184">
        <ele>1110.5</ele>
        <time>2026-06-26T12:25:17Z</time>
      </trkpt>
      <trkpt lat="46.0606" lon="6.76183">
        <ele>1110.3</ele>
        <time>2026-06-26T12:25:18Z</time>
      </trkpt>
      <trkpt lat="46.06059" lon="6.76183">
        <ele>1110.1</ele>
        <time>2026-06-26T12:25:19Z</time>
      </trkpt>
      <trkpt lat="46.06058" lon="6.76183">
        <ele>1110</ele>
        <time>2026-06-26T12:25:20Z</time>
      </trkpt>
      <trkpt lat="46.06057" lon="6.76183">
        <ele>1109.9</ele>
        <time>2026-06-26T12:25:21Z</time>
      </trkpt>
      <trkpt lat="46.06056" lon="6.76184">
        <ele>1109.8</ele>
        <time>2026-06-26T12:25:22Z</time>
      </trkpt>
      <trkpt lat="46.06055" lon="6.76184">
        <ele>1109.7</ele>
        <time>2026-06-26T12:25:23Z</time>
      </trkpt>
      <trkpt lat="46.06054" lon="6.76184">
        <ele>1109.7</ele>
        <time>2026-06-26T12:25:24Z</time>
      </trkpt>
      <trkpt lat="46.06053" lon="6.76184">
        <ele>1109.5</ele>
        <time>2026-06-26T12:25:25Z</time>
      </trkpt>
      <trkpt lat="46.06052" lon="6.76184">
        <ele>1109.4</ele>
        <time>2026-06-26T12:25:26Z</time>
      </trkpt>
      <trkpt lat="46.06051" lon="6.76184">
        <ele>1109.3</ele>
        <time>2026-06-26T12:25:27Z</time>
      </trkpt>
      <trkpt lat="46.0605" lon="6.76185">
        <ele>1108.9</ele>
        <time>2026-06-26T12:25:28Z</time>
      </trkpt>
      <trkpt lat="46.06049" lon="6.76185">
        <ele>1108.8</ele>
        <time>2026-06-26T12:25:29Z</time>
      </trkpt>
      <trkpt lat="46.06047" lon="6.76185">
        <ele>1108.6</ele>
        <time>2026-06-26T12:25:30Z</time>
      </trkpt>
      <trkpt lat="46.06046" lon="6.76185">
        <ele>1108.5</ele>
        <time>2026-06-26T12:25:31Z</time>
      </trkpt>
      <trkpt lat="46.06045" lon="6.76184">
        <ele>1108.3</ele>
        <time>2026-06-26T12:25:32Z</time>
      </trkpt>
      <trkpt lat="46.06044" lon="6.76184">
        <ele>1108.1</ele>
        <time>2026-06-26T12:25:33Z</time>
      </trkpt>
      <trkpt lat="46.06043" lon="6.76184">
        <ele>1108</ele>
        <time>2026-06-26T12:25:34Z</time>
      </trkpt>
      <trkpt lat="46.06042" lon="6.76184">
        <ele>1107.9</ele>
        <time>2026-06-26T12:25:35Z</time>
      </trkpt>
      <trkpt lat="46.06041" lon="6.76184">
        <ele>1107.5</ele>
        <time>2026-06-26T12:25:36Z</time>
      </trkpt>
      <trkpt lat="46.0604" lon="6.76183">
        <ele>1107.4</ele>
        <time>2026-06-26T12:25:37Z</time>
      </trkpt>
      <trkpt lat="46.06039" lon="6.76184">
        <ele>1107.4</ele>
        <time>2026-06-26T12:25:38Z</time>
      </trkpt>
      <trkpt lat="46.06037" lon="6.76184">
        <ele>1107.4</ele>
        <time>2026-06-26T12:25:39Z</time>
      </trkpt>
      <trkpt lat="46.06036" lon="6.76184">
        <ele>1107.4</ele>
        <time>2026-06-26T12:25:40Z</time>
      </trkpt>
      <trkpt lat="46.06036" lon="6.76184">
        <ele>1107.2</ele>
        <time>2026-06-26T12:25:41Z</time>
      </trkpt>
      <trkpt lat="46.06035" lon="6.76183">
        <ele>1107.2</ele>
        <time>2026-06-26T12:25:42Z</time>
      </trkpt>
      <trkpt lat="46.06035" lon="6.76183">
        <ele>1107.1</ele>
        <time>2026-06-26T12:25:43Z</time>
      </trkpt>
      <trkpt lat="46.06035" lon="6.76183">
        <ele>1107</ele>
        <time>2026-06-26T12:25:44Z</time>
      </trkpt>
      <trkpt lat="46.06034" lon="6.76182">
        <ele>1106.9</ele>
        <time>2026-06-26T12:25:45Z</time>
      </trkpt>
      <trkpt lat="46.06034" lon="6.76182">
        <ele>1106.8</ele>
        <time>2026-06-26T12:25:46Z</time>
      </trkpt>
      <trkpt lat="46.06034" lon="6.7618">
        <ele>1106.7</ele>
        <time>2026-06-26T12:25:47Z</time>
      </trkpt>
      <trkpt lat="46.06034" lon="6.76181">
        <ele>1106.5</ele>
        <time>2026-06-26T12:25:48Z</time>
      </trkpt>
      <trkpt lat="46.06034" lon="6.7618">
        <ele>1106.3</ele>
        <time>2026-06-26T12:25:49Z</time>
      </trkpt>
      <trkpt lat="46.06035" lon="6.7618">
        <ele>1106</ele>
        <time>2026-06-26T12:25:50Z</time>
      </trkpt>
      <trkpt lat="46.06035" lon="6.76179">
        <ele>1105.8</ele>
        <time>2026-06-26T12:25:51Z</time>
      </trkpt>
      <trkpt lat="46.06036" lon="6.76179">
        <ele>1105.4</ele>
        <time>2026-06-26T12:25:52Z</time>
      </trkpt>
      <trkpt lat="46.06037" lon="6.7618">
        <ele>1105.2</ele>
        <time>2026-06-26T12:25:53Z</time>
      </trkpt>
      <trkpt lat="46.06038" lon="6.76181">
        <ele>1104.9</ele>
        <time>2026-06-26T12:25:54Z</time>
      </trkpt>
      <trkpt lat="46.06038" lon="6.7618">
        <ele>1104.7</ele>
        <time>2026-06-26T12:25:55Z</time>
      </trkpt>
      <trkpt lat="46.06039" lon="6.7618">
        <ele>1104.5</ele>
        <time>2026-06-26T12:25:56Z</time>
      </trkpt>
      <trkpt lat="46.0604" lon="6.7618">
        <ele>1104.3</ele>
        <time>2026-06-26T12:25:57Z</time>
      </trkpt>
      <trkpt lat="46.0604" lon="6.76179">
        <ele>1104.2</ele>
        <time>2026-06-26T12:25:58Z</time>
      </trkpt>
      <trkpt lat="46.06041" lon="6.7618">
        <ele>1103.9</ele>
        <time>2026-06-26T12:25:59Z</time>
      </trkpt>
      <trkpt lat="46.06041" lon="6.7618">
        <ele>1103.6</ele>
        <time>2026-06-26T12:26:00Z</time>
      </trkpt>
      <trkpt lat="46.06042" lon="6.76179">
        <ele>1103.4</ele>
        <time>2026-06-26T12:26:01Z</time>
      </trkpt>
      <trkpt lat="46.06043" lon="6.7618">
        <ele>1103.3</ele>
        <time>2026-06-26T12:26:02Z</time>
      </trkpt>
      <trkpt lat="46.06044" lon="6.7618">
        <ele>1103.2</ele>
        <time>2026-06-26T12:26:03Z</time>
      </trkpt>
      <trkpt lat="46.06045" lon="6.76179">
        <ele>1103.1</ele>
        <time>2026-06-26T12:26:04Z</time>
      </trkpt>
      <trkpt lat="46.06046" lon="6.76179">
        <ele>1102.8</ele>
        <time>2026-06-26T12:26:05Z</time>
      </trkpt>
      <trkpt lat="46.06048" lon="6.7618">
        <ele>1102.6</ele>
        <time>2026-06-26T12:26:06Z</time>
      </trkpt>
      <trkpt lat="46.06049" lon="6.7618">
        <ele>1102.5</ele>
        <time>2026-06-26T12:26:07Z</time>
      </trkpt>
      <trkpt lat="46.0605" lon="6.76178">
        <ele>1102.3</ele>
        <time>2026-06-26T12:26:08Z</time>
      </trkpt>
      <trkpt lat="46.06051" lon="6.76178">
        <ele>1102.2</ele>
        <time>2026-06-26T12:26:09Z</time>
      </trkpt>
      <trkpt lat="46.06051" lon="6.76177">
        <ele>1102</ele>
        <time>2026-06-26T12:26:10Z</time>
      </trkpt>
      <trkpt lat="46.06052" lon="6.76176">
        <ele>1101.9</ele>
        <time>2026-06-26T12:26:11Z</time>
      </trkpt>
      <trkpt lat="46.06053" lon="6.76175">
        <ele>1101.8</ele>
        <time>2026-06-26T12:26:12Z</time>
      </trkpt>
      <trkpt lat="46.06054" lon="6.76175">
        <ele>1101.6</ele>
        <time>2026-06-26T12:26:13Z</time>
      </trkpt>
      <trkpt lat="46.06054" lon="6.76173">
        <ele>1101.3</ele>
        <time>2026-06-26T12:26:14Z</time>
      </trkpt>
      <trkpt lat="46.06055" lon="6.76173">
        <ele>1101.2</ele>
        <time>2026-06-26T12:26:15Z</time>
      </trkpt>
      <trkpt lat="46.06056" lon="6.76173">
        <ele>1101</ele>
        <time>2026-06-26T12:26:16Z</time>
      </trkpt>
      <trkpt lat="46.06057" lon="6.76172">
        <ele>1100.8</ele>
        <time>2026-06-26T12:26:17Z</time>
      </trkpt>
      <trkpt lat="46.06057" lon="6.76172">
        <ele>1100.6</ele>
        <time>2026-06-26T12:26:18Z</time>
      </trkpt>
      <trkpt lat="46.06058" lon="6.76171">
        <ele>1100.3</ele>
        <time>2026-06-26T12:26:19Z</time>
      </trkpt>
      <trkpt lat="46.06059" lon="6.76171">
        <ele>1099.9</ele>
        <time>2026-06-26T12:26:20Z</time>
      </trkpt>
      <trkpt lat="46.0606" lon="6.7617">
        <ele>1099.8</ele>
        <time>2026-06-26T12:26:21Z</time>
      </trkpt>
      <trkpt lat="46.06061" lon="6.7617">
        <ele>1099.6</ele>
        <time>2026-06-26T12:26:22Z</time>
      </trkpt>
      <trkpt lat="46.06063" lon="6.7617">
        <ele>1099.4</ele>
        <time>2026-06-26T12:26:23Z</time>
      </trkpt>
      <trkpt lat="46.06063" lon="6.76169">
        <ele>1099.1</ele>
        <time>2026-06-26T12:26:24Z</time>
      </trkpt>
      <trkpt lat="46.06064" lon="6.76169">
        <ele>1099</ele>
        <time>2026-06-26T12:26:25Z</time>
      </trkpt>
      <trkpt lat="46.06065" lon="6.76168">
        <ele>1098.8</ele>
        <time>2026-06-26T12:26:26Z</time>
      </trkpt>
      <trkpt lat="46.06066" lon="6.76168">
        <ele>1098.6</ele>
        <time>2026-06-26T12:26:27Z</time>
      </trkpt>
      <trkpt lat="46.06067" lon="6.76167">
        <ele>1098.5</ele>
        <time>2026-06-26T12:26:28Z</time>
      </trkpt>
      <trkpt lat="46.06068" lon="6.76167">
        <ele>1098.3</ele>
        <time>2026-06-26T12:26:29Z</time>
      </trkpt>
      <trkpt lat="46.06069" lon="6.76167">
        <ele>1098.1</ele>
        <time>2026-06-26T12:26:30Z</time>
      </trkpt>
      <trkpt lat="46.0607" lon="6.76166">
        <ele>1097.9</ele>
        <time>2026-06-26T12:26:31Z</time>
      </trkpt>
      <trkpt lat="46.06071" lon="6.76165">
        <ele>1097.8</ele>
        <time>2026-06-26T12:26:32Z</time>
      </trkpt>
      <trkpt lat="46.06071" lon="6.76164">
        <ele>1097.7</ele>
        <time>2026-06-26T12:26:33Z</time>
      </trkpt>
      <trkpt lat="46.06072" lon="6.76163">
        <ele>1097.5</ele>
        <time>2026-06-26T12:26:34Z</time>
      </trkpt>
      <trkpt lat="46.06074" lon="6.76162">
        <ele>1097.2</ele>
        <time>2026-06-26T12:26:35Z</time>
      </trkpt>
      <trkpt lat="46.06074" lon="6.76162">
        <ele>1097</ele>
        <time>2026-06-26T12:26:36Z</time>
      </trkpt>
      <trkpt lat="46.06075" lon="6.76162">
        <ele>1096.8</ele>
        <time>2026-06-26T12:26:37Z</time>
      </trkpt>
      <trkpt lat="46.06076" lon="6.76161">
        <ele>1096.6</ele>
        <time>2026-06-26T12:26:38Z</time>
      </trkpt>
      <trkpt lat="46.06076" lon="6.7616">
        <ele>1096.5</ele>
        <time>2026-06-26T12:26:39Z</time>
      </trkpt>
      <trkpt lat="46.06077" lon="6.76159">
        <ele>1096.3</ele>
        <time>2026-06-26T12:26:40Z</time>
      </trkpt>
      <trkpt lat="46.06078" lon="6.76158">
        <ele>1096.2</ele>
        <time>2026-06-26T12:26:41Z</time>
      </trkpt>
      <trkpt lat="46.06079" lon="6.76157">
        <ele>1095.8</ele>
        <time>2026-06-26T12:26:42Z</time>
      </trkpt>
      <trkpt lat="46.06079" lon="6.76156">
        <ele>1095.5</ele>
        <time>2026-06-26T12:26:43Z</time>
      </trkpt>
      <trkpt lat="46.0608" lon="6.76155">
        <ele>1095.4</ele>
        <time>2026-06-26T12:26:44Z</time>
      </trkpt>
      <trkpt lat="46.0608" lon="6.76154">
        <ele>1095.3</ele>
        <time>2026-06-26T12:26:45Z</time>
      </trkpt>
      <trkpt lat="46.06081" lon="6.76153">
        <ele>1095.1</ele>
        <time>2026-06-26T12:26:46Z</time>
      </trkpt>
      <trkpt lat="46.06081" lon="6.76151">
        <ele>1094.9</ele>
        <time>2026-06-26T12:26:47Z</time>
      </trkpt>
      <trkpt lat="46.06081" lon="6.7615">
        <ele>1094.7</ele>
        <time>2026-06-26T12:26:48Z</time>
      </trkpt>
      <trkpt lat="46.06082" lon="6.76149">
        <ele>1094.5</ele>
        <time>2026-06-26T12:26:49Z</time>
      </trkpt>
      <trkpt lat="46.06083" lon="6.76148">
        <ele>1094.3</ele>
        <time>2026-06-26T12:26:50Z</time>
      </trkpt>
      <trkpt lat="46.06083" lon="6.76148">
        <ele>1094.2</ele>
        <time>2026-06-26T12:26:51Z</time>
      </trkpt>
      <trkpt lat="46.06084" lon="6.76147">
        <ele>1093.9</ele>
        <time>2026-06-26T12:26:52Z</time>
      </trkpt>
      <trkpt lat="46.06085" lon="6.76146">
        <ele>1093.6</ele>
        <time>2026-06-26T12:26:53Z</time>
      </trkpt>
      <trkpt lat="46.06085" lon="6.76145">
        <ele>1093.5</ele>
        <time>2026-06-26T12:26:54Z</time>
      </trkpt>
      <trkpt lat="46.06086" lon="6.76144">
        <ele>1093.3</ele>
        <time>2026-06-26T12:26:55Z</time>
      </trkpt>
      <trkpt lat="46.06087" lon="6.76143">
        <ele>1093.1</ele>
        <time>2026-06-26T12:26:56Z</time>
      </trkpt>
      <trkpt lat="46.06087" lon="6.76142">
        <ele>1093</ele>
        <time>2026-06-26T12:26:57Z</time>
      </trkpt>
      <trkpt lat="46.06088" lon="6.76141">
        <ele>1093</ele>
        <time>2026-06-26T12:26:58Z</time>
      </trkpt>
      <trkpt lat="46.06089" lon="6.7614">
        <ele>1092.8</ele>
        <time>2026-06-26T12:26:59Z</time>
      </trkpt>
      <trkpt lat="46.0609" lon="6.7614">
        <ele>1092.6</ele>
        <time>2026-06-26T12:27:00Z</time>
      </trkpt>
      <trkpt lat="46.0609" lon="6.76139">
        <ele>1092.3</ele>
        <time>2026-06-26T12:27:01Z</time>
      </trkpt>
      <trkpt lat="46.06091" lon="6.76138">
        <ele>1092.1</ele>
        <time>2026-06-26T12:27:02Z</time>
      </trkpt>
      <trkpt lat="46.06092" lon="6.76138">
        <ele>1092.2</ele>
        <time>2026-06-26T12:27:03Z</time>
      </trkpt>
      <trkpt lat="46.06093" lon="6.76137">
        <ele>1092.1</ele>
        <time>2026-06-26T12:27:04Z</time>
      </trkpt>
      <trkpt lat="46.06093" lon="6.76135">
        <ele>1091.8</ele>
        <time>2026-06-26T12:27:05Z</time>
      </trkpt>
      <trkpt lat="46.06094" lon="6.76134">
        <ele>1091.5</ele>
        <time>2026-06-26T12:27:06Z</time>
      </trkpt>
      <trkpt lat="46.06095" lon="6.76133">
        <ele>1091.1</ele>
        <time>2026-06-26T12:27:07Z</time>
      </trkpt>
      <trkpt lat="46.06095" lon="6.76131">
        <ele>1090.8</ele>
        <time>2026-06-26T12:27:08Z</time>
      </trkpt>
      <trkpt lat="46.06096" lon="6.7613">
        <ele>1090.5</ele>
        <time>2026-06-26T12:27:09Z</time>
      </trkpt>
      <trkpt lat="46.06095" lon="6.76128">
        <ele>1090.2</ele>
        <time>2026-06-26T12:27:10Z</time>
      </trkpt>
      <trkpt lat="46.06095" lon="6.76126">
        <ele>1090</ele>
        <time>2026-06-26T12:27:11Z</time>
      </trkpt>
      <trkpt lat="46.06095" lon="6.76125">
        <ele>1089.7</ele>
        <time>2026-06-26T12:27:12Z</time>
      </trkpt>
      <trkpt lat="46.06094" lon="6.76124">
        <ele>1089.5</ele>
        <time>2026-06-26T12:27:13Z</time>
      </trkpt>
      <trkpt lat="46.06093" lon="6.76123">
        <ele>1089.3</ele>
        <time>2026-06-26T12:27:14Z</time>
      </trkpt>
      <trkpt lat="46.06092" lon="6.76121">
        <ele>1089</ele>
        <time>2026-06-26T12:27:15Z</time>
      </trkpt>
      <trkpt lat="46.06091" lon="6.7612">
        <ele>1088.8</ele>
        <time>2026-06-26T12:27:16Z</time>
      </trkpt>
      <trkpt lat="46.0609" lon="6.7612">
        <ele>1088.7</ele>
        <time>2026-06-26T12:27:17Z</time>
      </trkpt>
      <trkpt lat="46.06089" lon="6.7612">
        <ele>1088.6</ele>
        <time>2026-06-26T12:27:18Z</time>
      </trkpt>
      <trkpt lat="46.06088" lon="6.76119">
        <ele>1088.4</ele>
        <time>2026-06-26T12:27:19Z</time>
      </trkpt>
      <trkpt lat="46.06087" lon="6.76119">
        <ele>1088.3</ele>
        <time>2026-06-26T12:27:20Z</time>
      </trkpt>
      <trkpt lat="46.06086" lon="6.76119">
        <ele>1088</ele>
        <time>2026-06-26T12:27:21Z</time>
      </trkpt>
      <trkpt lat="46.06085" lon="6.76119">
        <ele>1087.8</ele>
        <time>2026-06-26T12:27:22Z</time>
      </trkpt>
      <trkpt lat="46.06084" lon="6.76119">
        <ele>1087.6</ele>
        <time>2026-06-26T12:27:23Z</time>
      </trkpt>
      <trkpt lat="46.06083" lon="6.76118">
        <ele>1087.3</ele>
        <time>2026-06-26T12:27:24Z</time>
      </trkpt>
      <trkpt lat="46.06083" lon="6.76119">
        <ele>1087.2</ele>
        <time>2026-06-26T12:27:25Z</time>
      </trkpt>
      <trkpt lat="46.06082" lon="6.76119">
        <ele>1086.8</ele>
        <time>2026-06-26T12:27:26Z</time>
      </trkpt>
      <trkpt lat="46.06081" lon="6.7612">
        <ele>1086.5</ele>
        <time>2026-06-26T12:27:27Z</time>
      </trkpt>
      <trkpt lat="46.0608" lon="6.7612">
        <ele>1086.3</ele>
        <time>2026-06-26T12:27:28Z</time>
      </trkpt>
      <trkpt lat="46.06079" lon="6.7612">
        <ele>1086.1</ele>
        <time>2026-06-26T12:27:29Z</time>
      </trkpt>
      <trkpt lat="46.06078" lon="6.7612">
        <ele>1085.9</ele>
        <time>2026-06-26T12:27:30Z</time>
      </trkpt>
      <trkpt lat="46.06077" lon="6.76121">
        <ele>1085.6</ele>
        <time>2026-06-26T12:27:31Z</time>
      </trkpt>
      <trkpt lat="46.06076" lon="6.76122">
        <ele>1085.5</ele>
        <time>2026-06-26T12:27:32Z</time>
      </trkpt>
      <trkpt lat="46.06076" lon="6.76122">
        <ele>1085.3</ele>
        <time>2026-06-26T12:27:33Z</time>
      </trkpt>
      <trkpt lat="46.06075" lon="6.76123">
        <ele>1085.1</ele>
        <time>2026-06-26T12:27:34Z</time>
      </trkpt>
      <trkpt lat="46.06075" lon="6.76124">
        <ele>1085</ele>
        <time>2026-06-26T12:27:35Z</time>
      </trkpt>
      <trkpt lat="46.06074" lon="6.76125">
        <ele>1084.9</ele>
        <time>2026-06-26T12:27:36Z</time>
      </trkpt>
      <trkpt lat="46.06073" lon="6.76125">
        <ele>1084.8</ele>
        <time>2026-06-26T12:27:37Z</time>
      </trkpt>
      <trkpt lat="46.06072" lon="6.76126">
        <ele>1084.7</ele>
        <time>2026-06-26T12:27:38Z</time>
      </trkpt>
      <trkpt lat="46.06071" lon="6.76126">
        <ele>1084.5</ele>
        <time>2026-06-26T12:27:39Z</time>
      </trkpt>
      <trkpt lat="46.0607" lon="6.76126">
        <ele>1084.3</ele>
        <time>2026-06-26T12:27:40Z</time>
      </trkpt>
      <trkpt lat="46.06069" lon="6.76127">
        <ele>1084.2</ele>
        <time>2026-06-26T12:27:41Z</time>
      </trkpt>
      <trkpt lat="46.06068" lon="6.76127">
        <ele>1084.1</ele>
        <time>2026-06-26T12:27:42Z</time>
      </trkpt>
      <trkpt lat="46.06067" lon="6.76127">
        <ele>1084.1</ele>
        <time>2026-06-26T12:27:43Z</time>
      </trkpt>
      <trkpt lat="46.06066" lon="6.76127">
        <ele>1084</ele>
        <time>2026-06-26T12:27:44Z</time>
      </trkpt>
      <trkpt lat="46.06065" lon="6.76127">
        <ele>1083.9</ele>
        <time>2026-06-26T12:27:45Z</time>
      </trkpt>
      <trkpt lat="46.06064" lon="6.76127">
        <ele>1083.6</ele>
        <time>2026-06-26T12:27:46Z</time>
      </trkpt>
      <trkpt lat="46.06063" lon="6.76126">
        <ele>1083.6</ele>
        <time>2026-06-26T12:27:47Z</time>
      </trkpt>
      <trkpt lat="46.06062" lon="6.76125">
        <ele>1083.5</ele>
        <time>2026-06-26T12:27:48Z</time>
      </trkpt>
      <trkpt lat="46.06061" lon="6.76126">
        <ele>1083.4</ele>
        <time>2026-06-26T12:27:49Z</time>
      </trkpt>
      <trkpt lat="46.0606" lon="6.76126">
        <ele>1083.2</ele>
        <time>2026-06-26T12:27:50Z</time>
      </trkpt>
      <trkpt lat="46.06059" lon="6.76126">
        <ele>1083</ele>
        <time>2026-06-26T12:27:51Z</time>
      </trkpt>
      <trkpt lat="46.06058" lon="6.76126">
        <ele>1082.8</ele>
        <time>2026-06-26T12:27:52Z</time>
      </trkpt>
      <trkpt lat="46.06057" lon="6.76126">
        <ele>1082.6</ele>
        <time>2026-06-26T12:27:53Z</time>
      </trkpt>
      <trkpt lat="46.06056" lon="6.76126">
        <ele>1082.5</ele>
        <time>2026-06-26T12:27:54Z</time>
      </trkpt>
      <trkpt lat="46.06055" lon="6.76126">
        <ele>1082.3</ele>
        <time>2026-06-26T12:27:55Z</time>
      </trkpt>
      <trkpt lat="46.06054" lon="6.76126">
        <ele>1082.2</ele>
        <time>2026-06-26T12:27:56Z</time>
      </trkpt>
      <trkpt lat="46.06053" lon="6.76126">
        <ele>1082</ele>
        <time>2026-06-26T12:27:57Z</time>
      </trkpt>
      <trkpt lat="46.06052" lon="6.76126">
        <ele>1081.8</ele>
        <time>2026-06-26T12:27:58Z</time>
      </trkpt>
      <trkpt lat="46.06051" lon="6.76126">
        <ele>1081.6</ele>
        <time>2026-06-26T12:27:59Z</time>
      </trkpt>
      <trkpt lat="46.0605" lon="6.76126">
        <ele>1081.5</ele>
        <time>2026-06-26T12:28:00Z</time>
      </trkpt>
      <trkpt lat="46.06049" lon="6.76127">
        <ele>1081.3</ele>
        <time>2026-06-26T12:28:01Z</time>
      </trkpt>
      <trkpt lat="46.06047" lon="6.76127">
        <ele>1081.3</ele>
        <time>2026-06-26T12:28:02Z</time>
      </trkpt>
      <trkpt lat="46.06046" lon="6.76127">
        <ele>1081.2</ele>
        <time>2026-06-26T12:28:03Z</time>
      </trkpt>
      <trkpt lat="46.06045" lon="6.76127">
        <ele>1081.1</ele>
        <time>2026-06-26T12:28:04Z</time>
      </trkpt>
      <trkpt lat="46.06044" lon="6.76127">
        <ele>1081</ele>
        <time>2026-06-26T12:28:05Z</time>
      </trkpt>
      <trkpt lat="46.06044" lon="6.76128">
        <ele>1080.8</ele>
        <time>2026-06-26T12:28:06Z</time>
      </trkpt>
      <trkpt lat="46.06043" lon="6.76128">
        <ele>1080.7</ele>
        <time>2026-06-26T12:28:07Z</time>
      </trkpt>
      <trkpt lat="46.06042" lon="6.76128">
        <ele>1080.4</ele>
        <time>2026-06-26T12:28:08Z</time>
      </trkpt>
      <trkpt lat="46.06041" lon="6.76128">
        <ele>1080.1</ele>
        <time>2026-06-26T12:28:09Z</time>
      </trkpt>
      <trkpt lat="46.0604" lon="6.76129">
        <ele>1079.9</ele>
        <time>2026-06-26T12:28:10Z</time>
      </trkpt>
      <trkpt lat="46.06039" lon="6.76129">
        <ele>1079.6</ele>
        <time>2026-06-26T12:28:11Z</time>
      </trkpt>
      <trkpt lat="46.06038" lon="6.76129">
        <ele>1079.5</ele>
        <time>2026-06-26T12:28:12Z</time>
      </trkpt>
      <trkpt lat="46.06037" lon="6.76129">
        <ele>1079.3</ele>
        <time>2026-06-26T12:28:13Z</time>
      </trkpt>
      <trkpt lat="46.06036" lon="6.76129">
        <ele>1079.1</ele>
        <time>2026-06-26T12:28:14Z</time>
      </trkpt>
      <trkpt lat="46.06035" lon="6.76129">
        <ele>1078.9</ele>
        <time>2026-06-26T12:28:15Z</time>
      </trkpt>
      <trkpt lat="46.06034" lon="6.76128">
        <ele>1078.8</ele>
        <time>2026-06-26T12:28:16Z</time>
      </trkpt>
      <trkpt lat="46.06033" lon="6.76128">
        <ele>1078.6</ele>
        <time>2026-06-26T12:28:17Z</time>
      </trkpt>
      <trkpt lat="46.06032" lon="6.76128">
        <ele>1078.5</ele>
        <time>2026-06-26T12:28:18Z</time>
      </trkpt>
      <trkpt lat="46.0603" lon="6.76127">
        <ele>1078.4</ele>
        <time>2026-06-26T12:28:19Z</time>
      </trkpt>
      <trkpt lat="46.06029" lon="6.76128">
        <ele>1078.2</ele>
        <time>2026-06-26T12:28:20Z</time>
      </trkpt>
      <trkpt lat="46.06028" lon="6.76128">
        <ele>1077.9</ele>
        <time>2026-06-26T12:28:21Z</time>
      </trkpt>
      <trkpt lat="46.06027" lon="6.76129">
        <ele>1077.7</ele>
        <time>2026-06-26T12:28:22Z</time>
      </trkpt>
      <trkpt lat="46.06026" lon="6.76129">
        <ele>1077.3</ele>
        <time>2026-06-26T12:28:23Z</time>
      </trkpt>
      <trkpt lat="46.06025" lon="6.7613">
        <ele>1077</ele>
        <time>2026-06-26T12:28:24Z</time>
      </trkpt>
      <trkpt lat="46.06024" lon="6.7613">
        <ele>1076.9</ele>
        <time>2026-06-26T12:28:25Z</time>
      </trkpt>
      <trkpt lat="46.06023" lon="6.7613">
        <ele>1076.8</ele>
        <time>2026-06-26T12:28:26Z</time>
      </trkpt>
      <trkpt lat="46.06022" lon="6.7613">
        <ele>1076.6</ele>
        <time>2026-06-26T12:28:27Z</time>
      </trkpt>
      <trkpt lat="46.06021" lon="6.7613">
        <ele>1076.3</ele>
        <time>2026-06-26T12:28:28Z</time>
      </trkpt>
      <trkpt lat="46.0602" lon="6.76131">
        <ele>1076.1</ele>
        <time>2026-06-26T12:28:29Z</time>
      </trkpt>
      <trkpt lat="46.06019" lon="6.76132">
        <ele>1075.9</ele>
        <time>2026-06-26T12:28:30Z</time>
      </trkpt>
      <trkpt lat="46.06017" lon="6.76133">
        <ele>1075.7</ele>
        <time>2026-06-26T12:28:31Z</time>
      </trkpt>
      <trkpt lat="46.06016" lon="6.76134">
        <ele>1075.6</ele>
        <time>2026-06-26T12:28:32Z</time>
      </trkpt>
      <trkpt lat="46.06015" lon="6.76136">
        <ele>1075.6</ele>
        <time>2026-06-26T12:28:33Z</time>
      </trkpt>
      <trkpt lat="46.06014" lon="6.76137">
        <ele>1075.4</ele>
        <time>2026-06-26T12:28:34Z</time>
      </trkpt>
      <trkpt lat="46.06013" lon="6.76137">
        <ele>1075.3</ele>
        <time>2026-06-26T12:28:35Z</time>
      </trkpt>
      <trkpt lat="46.06012" lon="6.76138">
        <ele>1075.2</ele>
        <time>2026-06-26T12:28:36Z</time>
      </trkpt>
      <trkpt lat="46.06012" lon="6.76139">
        <ele>1075</ele>
        <time>2026-06-26T12:28:37Z</time>
      </trkpt>
      <trkpt lat="46.06011" lon="6.7614">
        <ele>1074.8</ele>
        <time>2026-06-26T12:28:38Z</time>
      </trkpt>
      <trkpt lat="46.0601" lon="6.7614">
        <ele>1074.6</ele>
        <time>2026-06-26T12:28:39Z</time>
      </trkpt>
      <trkpt lat="46.06009" lon="6.7614">
        <ele>1074.5</ele>
        <time>2026-06-26T12:28:40Z</time>
      </trkpt>
      <trkpt lat="46.06007" lon="6.7614">
        <ele>1074.3</ele>
        <time>2026-06-26T12:28:41Z</time>
      </trkpt>
      <trkpt lat="46.06006" lon="6.7614">
        <ele>1074.1</ele>
        <time>2026-06-26T12:28:42Z</time>
      </trkpt>
      <trkpt lat="46.06004" lon="6.76139">
        <ele>1073.9</ele>
        <time>2026-06-26T12:28:43Z</time>
      </trkpt>
      <trkpt lat="46.06003" lon="6.76139">
        <ele>1073.8</ele>
        <time>2026-06-26T12:28:44Z</time>
      </trkpt>
      <trkpt lat="46.06002" lon="6.76137">
        <ele>1073.6</ele>
        <time>2026-06-26T12:28:45Z</time>
      </trkpt>
      <trkpt lat="46.06001" lon="6.76136">
        <ele>1073.4</ele>
        <time>2026-06-26T12:28:46Z</time>
      </trkpt>
      <trkpt lat="46.06001" lon="6.76135">
        <ele>1073.2</ele>
        <time>2026-06-26T12:28:47Z</time>
      </trkpt>
      <trkpt lat="46.06001" lon="6.76134">
        <ele>1073</ele>
        <time>2026-06-26T12:28:48Z</time>
      </trkpt>
      <trkpt lat="46.06001" lon="6.76132">
        <ele>1072.9</ele>
        <time>2026-06-26T12:28:49Z</time>
      </trkpt>
      <trkpt lat="46.06002" lon="6.76131">
        <ele>1072.8</ele>
        <time>2026-06-26T12:28:50Z</time>
      </trkpt>
      <trkpt lat="46.06003" lon="6.7613">
        <ele>1072.7</ele>
        <time>2026-06-26T12:28:51Z</time>
      </trkpt>
      <trkpt lat="46.06004" lon="6.76129">
        <ele>1072.5</ele>
        <time>2026-06-26T12:28:52Z</time>
      </trkpt>
      <trkpt lat="46.06004" lon="6.76128">
        <ele>1072.4</ele>
        <time>2026-06-26T12:28:53Z</time>
      </trkpt>
      <trkpt lat="46.06005" lon="6.76127">
        <ele>1072.2</ele>
        <time>2026-06-26T12:28:54Z</time>
      </trkpt>
      <trkpt lat="46.06006" lon="6.76126">
        <ele>1072.1</ele>
        <time>2026-06-26T12:28:55Z</time>
      </trkpt>
      <trkpt lat="46.06007" lon="6.76125">
        <ele>1071.9</ele>
        <time>2026-06-26T12:28:56Z</time>
      </trkpt>
      <trkpt lat="46.06007" lon="6.76125">
        <ele>1071.6</ele>
        <time>2026-06-26T12:28:57Z</time>
      </trkpt>
      <trkpt lat="46.06008" lon="6.76124">
        <ele>1071.4</ele>
        <time>2026-06-26T12:28:58Z</time>
      </trkpt>
      <trkpt lat="46.06008" lon="6.76123">
        <ele>1071.2</ele>
        <time>2026-06-26T12:28:59Z</time>
      </trkpt>
      <trkpt lat="46.06009" lon="6.76122">
        <ele>1071</ele>
        <time>2026-06-26T12:29:00Z</time>
      </trkpt>
      <trkpt lat="46.0601" lon="6.7612">
        <ele>1070.9</ele>
        <time>2026-06-26T12:29:01Z</time>
      </trkpt>
      <trkpt lat="46.06012" lon="6.76121">
        <ele>1070.8</ele>
        <time>2026-06-26T12:29:02Z</time>
      </trkpt>
      <trkpt lat="46.06013" lon="6.7612">
        <ele>1070.7</ele>
        <time>2026-06-26T12:29:03Z</time>
      </trkpt>
      <trkpt lat="46.06014" lon="6.76119">
        <ele>1070.7</ele>
        <time>2026-06-26T12:29:04Z</time>
      </trkpt>
      <trkpt lat="46.06015" lon="6.76118">
        <ele>1070.5</ele>
        <time>2026-06-26T12:29:05Z</time>
      </trkpt>
      <trkpt lat="46.06015" lon="6.76117">
        <ele>1070.3</ele>
        <time>2026-06-26T12:29:06Z</time>
      </trkpt>
      <trkpt lat="46.06016" lon="6.76117">
        <ele>1070.2</ele>
        <time>2026-06-26T12:29:07Z</time>
      </trkpt>
      <trkpt lat="46.06017" lon="6.76116">
        <ele>1069.9</ele>
        <time>2026-06-26T12:29:08Z</time>
      </trkpt>
      <trkpt lat="46.06019" lon="6.76116">
        <ele>1069.8</ele>
        <time>2026-06-26T12:29:09Z</time>
      </trkpt>
      <trkpt lat="46.06019" lon="6.76114">
        <ele>1069.6</ele>
        <time>2026-06-26T12:29:10Z</time>
      </trkpt>
      <trkpt lat="46.0602" lon="6.76113">
        <ele>1069.5</ele>
        <time>2026-06-26T12:29:11Z</time>
      </trkpt>
      <trkpt lat="46.0602" lon="6.76112">
        <ele>1069.3</ele>
        <time>2026-06-26T12:29:12Z</time>
      </trkpt>
      <trkpt lat="46.06021" lon="6.76111">
        <ele>1069.2</ele>
        <time>2026-06-26T12:29:13Z</time>
      </trkpt>
      <trkpt lat="46.06021" lon="6.7611">
        <ele>1069</ele>
        <time>2026-06-26T12:29:14Z</time>
      </trkpt>
      <trkpt lat="46.06022" lon="6.76109">
        <ele>1068.8</ele>
        <time>2026-06-26T12:29:15Z</time>
      </trkpt>
      <trkpt lat="46.06023" lon="6.76108">
        <ele>1068.6</ele>
        <time>2026-06-26T12:29:16Z</time>
      </trkpt>
      <trkpt lat="46.06024" lon="6.76108">
        <ele>1068.3</ele>
        <time>2026-06-26T12:29:17Z</time>
      </trkpt>
      <trkpt lat="46.06026" lon="6.76108">
        <ele>1068.1</ele>
        <time>2026-06-26T12:29:18Z</time>
      </trkpt>
      <trkpt lat="46.06027" lon="6.76107">
        <ele>1067.9</ele>
        <time>2026-06-26T12:29:19Z</time>
      </trkpt>
      <trkpt lat="46.06027" lon="6.76106">
        <ele>1067.7</ele>
        <time>2026-06-26T12:29:20Z</time>
      </trkpt>
      <trkpt lat="46.06028" lon="6.76106">
        <ele>1067.6</ele>
        <time>2026-06-26T12:29:21Z</time>
      </trkpt>
      <trkpt lat="46.06029" lon="6.76105">
        <ele>1067.3</ele>
        <time>2026-06-26T12:29:22Z</time>
      </trkpt>
      <trkpt lat="46.0603" lon="6.76104">
        <ele>1067</ele>
        <time>2026-06-26T12:29:23Z</time>
      </trkpt>
      <trkpt lat="46.06031" lon="6.76103">
        <ele>1066.8</ele>
        <time>2026-06-26T12:29:24Z</time>
      </trkpt>
      <trkpt lat="46.06032" lon="6.76103">
        <ele>1066.6</ele>
        <time>2026-06-26T12:29:25Z</time>
      </trkpt>
      <trkpt lat="46.06033" lon="6.76103">
        <ele>1066.4</ele>
        <time>2026-06-26T12:29:26Z</time>
      </trkpt>
      <trkpt lat="46.06034" lon="6.76102">
        <ele>1066.3</ele>
        <time>2026-06-26T12:29:27Z</time>
      </trkpt>
      <trkpt lat="46.06036" lon="6.76102">
        <ele>1066.2</ele>
        <time>2026-06-26T12:29:28Z</time>
      </trkpt>
      <trkpt lat="46.06036" lon="6.76101">
        <ele>1066.1</ele>
        <time>2026-06-26T12:29:29Z</time>
      </trkpt>
      <trkpt lat="46.06037" lon="6.76101">
        <ele>1066</ele>
        <time>2026-06-26T12:29:30Z</time>
      </trkpt>
      <trkpt lat="46.06037" lon="6.76101">
        <ele>1065.9</ele>
        <time>2026-06-26T12:29:31Z</time>
      </trkpt>
      <trkpt lat="46.06038" lon="6.761">
        <ele>1065.9</ele>
        <time>2026-06-26T12:29:32Z</time>
      </trkpt>
      <trkpt lat="46.06039" lon="6.761">
        <ele>1065.7</ele>
        <time>2026-06-26T12:29:33Z</time>
      </trkpt>
      <trkpt lat="46.0604" lon="6.76099">
        <ele>1065.5</ele>
        <time>2026-06-26T12:29:34Z</time>
      </trkpt>
      <trkpt lat="46.0604" lon="6.76098">
        <ele>1065.4</ele>
        <time>2026-06-26T12:29:35Z</time>
      </trkpt>
      <trkpt lat="46.06041" lon="6.76097">
        <ele>1065.2</ele>
        <time>2026-06-26T12:29:36Z</time>
      </trkpt>
      <trkpt lat="46.06041" lon="6.76096">
        <ele>1065</ele>
        <time>2026-06-26T12:29:37Z</time>
      </trkpt>
      <trkpt lat="46.06042" lon="6.76095">
        <ele>1064.8</ele>
        <time>2026-06-26T12:29:38Z</time>
      </trkpt>
      <trkpt lat="46.06043" lon="6.76094">
        <ele>1064.7</ele>
        <time>2026-06-26T12:29:39Z</time>
      </trkpt>
      <trkpt lat="46.06044" lon="6.76093">
        <ele>1064.5</ele>
        <time>2026-06-26T12:29:40Z</time>
      </trkpt>
      <trkpt lat="46.06046" lon="6.76092">
        <ele>1064.4</ele>
        <time>2026-06-26T12:29:41Z</time>
      </trkpt>
      <trkpt lat="46.06047" lon="6.76091">
        <ele>1064.2</ele>
        <time>2026-06-26T12:29:42Z</time>
      </trkpt>
      <trkpt lat="46.06048" lon="6.7609">
        <ele>1064</ele>
        <time>2026-06-26T12:29:43Z</time>
      </trkpt>
      <trkpt lat="46.06049" lon="6.76089">
        <ele>1063.8</ele>
        <time>2026-06-26T12:29:44Z</time>
      </trkpt>
      <trkpt lat="46.06051" lon="6.76088">
        <ele>1063.6</ele>
        <time>2026-06-26T12:29:45Z</time>
      </trkpt>
      <trkpt lat="46.06051" lon="6.76088">
        <ele>1063.4</ele>
        <time>2026-06-26T12:29:46Z</time>
      </trkpt>
      <trkpt lat="46.06053" lon="6.76087">
        <ele>1063.3</ele>
        <time>2026-06-26T12:29:47Z</time>
      </trkpt>
      <trkpt lat="46.06054" lon="6.76087">
        <ele>1063</ele>
        <time>2026-06-26T12:29:48Z</time>
      </trkpt>
      <trkpt lat="46.06055" lon="6.76086">
        <ele>1062.8</ele>
        <time>2026-06-26T12:29:49Z</time>
      </trkpt>
      <trkpt lat="46.06056" lon="6.76085">
        <ele>1062.6</ele>
        <time>2026-06-26T12:29:50Z</time>
      </trkpt>
      <trkpt lat="46.06056" lon="6.76084">
        <ele>1062.4</ele>
        <time>2026-06-26T12:29:51Z</time>
      </trkpt>
      <trkpt lat="46.06057" lon="6.76084">
        <ele>1062.3</ele>
        <time>2026-06-26T12:29:52Z</time>
      </trkpt>
      <trkpt lat="46.06058" lon="6.76082">
        <ele>1062.1</ele>
        <time>2026-06-26T12:29:53Z</time>
      </trkpt>
      <trkpt lat="46.06059" lon="6.76081">
        <ele>1062</ele>
        <time>2026-06-26T12:29:54Z</time>
      </trkpt>
      <trkpt lat="46.0606" lon="6.76079">
        <ele>1061.9</ele>
        <time>2026-06-26T12:29:55Z</time>
      </trkpt>
      <trkpt lat="46.06061" lon="6.76078">
        <ele>1061.8</ele>
        <time>2026-06-26T12:29:56Z</time>
      </trkpt>
      <trkpt lat="46.06062" lon="6.76076">
        <ele>1061.6</ele>
        <time>2026-06-26T12:29:57Z</time>
      </trkpt>
      <trkpt lat="46.06063" lon="6.76075">
        <ele>1061.3</ele>
        <time>2026-06-26T12:29:58Z</time>
      </trkpt>
      <trkpt lat="46.06064" lon="6.76074">
        <ele>1061.1</ele>
        <time>2026-06-26T12:29:59Z</time>
      </trkpt>
      <trkpt lat="46.06065" lon="6.76073">
        <ele>1060.9</ele>
        <time>2026-06-26T12:30:00Z</time>
      </trkpt>
      <trkpt lat="46.06066" lon="6.76072">
        <ele>1060.7</ele>
        <time>2026-06-26T12:30:01Z</time>
      </trkpt>
      <trkpt lat="46.06067" lon="6.76071">
        <ele>1060.6</ele>
        <time>2026-06-26T12:30:02Z</time>
      </trkpt>
      <trkpt lat="46.06068" lon="6.7607">
        <ele>1060.5</ele>
        <time>2026-06-26T12:30:03Z</time>
      </trkpt>
      <trkpt lat="46.06068" lon="6.76068">
        <ele>1060.4</ele>
        <time>2026-06-26T12:30:04Z</time>
      </trkpt>
      <trkpt lat="46.06069" lon="6.76066">
        <ele>1060.1</ele>
        <time>2026-06-26T12:30:05Z</time>
      </trkpt>
      <trkpt lat="46.0607" lon="6.76065">
        <ele>1060</ele>
        <time>2026-06-26T12:30:06Z</time>
      </trkpt>
      <trkpt lat="46.06071" lon="6.76064">
        <ele>1059.8</ele>
        <time>2026-06-26T12:30:07Z</time>
      </trkpt>
      <trkpt lat="46.06072" lon="6.76062">
        <ele>1059.6</ele>
        <time>2026-06-26T12:30:08Z</time>
      </trkpt>
      <trkpt lat="46.06073" lon="6.76061">
        <ele>1059.4</ele>
        <time>2026-06-26T12:30:09Z</time>
      </trkpt>
      <trkpt lat="46.06073" lon="6.76059">
        <ele>1059.2</ele>
        <time>2026-06-26T12:30:10Z</time>
      </trkpt>
      <trkpt lat="46.06074" lon="6.76058">
        <ele>1059.1</ele>
        <time>2026-06-26T12:30:11Z</time>
      </trkpt>
      <trkpt lat="46.06074" lon="6.76057">
        <ele>1058.9</ele>
        <time>2026-06-26T12:30:12Z</time>
      </trkpt>
      <trkpt lat="46.06075" lon="6.76056">
        <ele>1058.8</ele>
        <time>2026-06-26T12:30:13Z</time>
      </trkpt>
      <trkpt lat="46.06076" lon="6.76055">
        <ele>1058.6</ele>
        <time>2026-06-26T12:30:14Z</time>
      </trkpt>
      <trkpt lat="46.06077" lon="6.76054">
        <ele>1058.5</ele>
        <time>2026-06-26T12:30:15Z</time>
      </trkpt>
      <trkpt lat="46.06078" lon="6.76052">
        <ele>1058.3</ele>
        <time>2026-06-26T12:30:16Z</time>
      </trkpt>
      <trkpt lat="46.06078" lon="6.76051">
        <ele>1058.2</ele>
        <time>2026-06-26T12:30:17Z</time>
      </trkpt>
      <trkpt lat="46.06078" lon="6.7605">
        <ele>1058.1</ele>
        <time>2026-06-26T12:30:18Z</time>
      </trkpt>
      <trkpt lat="46.06079" lon="6.76049">
        <ele>1057.9</ele>
        <time>2026-06-26T12:30:19Z</time>
      </trkpt>
      <trkpt lat="46.0608" lon="6.76048">
        <ele>1057.7</ele>
        <time>2026-06-26T12:30:20Z</time>
      </trkpt>
      <trkpt lat="46.06081" lon="6.76047">
        <ele>1057.6</ele>
        <time>2026-06-26T12:30:21Z</time>
      </trkpt>
      <trkpt lat="46.06081" lon="6.76046">
        <ele>1057.5</ele>
        <time>2026-06-26T12:30:22Z</time>
      </trkpt>
      <trkpt lat="46.06082" lon="6.76045">
        <ele>1057.4</ele>
        <time>2026-06-26T12:30:23Z</time>
      </trkpt>
      <trkpt lat="46.06083" lon="6.76044">
        <ele>1057.4</ele>
        <time>2026-06-26T12:30:24Z</time>
      </trkpt>
      <trkpt lat="46.06084" lon="6.76043">
        <ele>1057.1</ele>
        <time>2026-06-26T12:30:25Z</time>
      </trkpt>
      <trkpt lat="46.06085" lon="6.76042">
        <ele>1056.9</ele>
        <time>2026-06-26T12:30:26Z</time>
      </trkpt>
      <trkpt lat="46.06085" lon="6.76041">
        <ele>1056.7</ele>
        <time>2026-06-26T12:30:27Z</time>
      </trkpt>
      <trkpt lat="46.06086" lon="6.76039">
        <ele>1056.5</ele>
        <time>2026-06-26T12:30:28Z</time>
      </trkpt>
      <trkpt lat="46.06087" lon="6.76038">
        <ele>1056.4</ele>
        <time>2026-06-26T12:30:29Z</time>
      </trkpt>
      <trkpt lat="46.06088" lon="6.76037">
        <ele>1056.3</ele>
        <time>2026-06-26T12:30:30Z</time>
      </trkpt>
      <trkpt lat="46.06088" lon="6.76036">
        <ele>1056</ele>
        <time>2026-06-26T12:30:31Z</time>
      </trkpt>
      <trkpt lat="46.06089" lon="6.76035">
        <ele>1055.8</ele>
        <time>2026-06-26T12:30:32Z</time>
      </trkpt>
      <trkpt lat="46.0609" lon="6.76034">
        <ele>1055.6</ele>
        <time>2026-06-26T12:30:33Z</time>
      </trkpt>
      <trkpt lat="46.06091" lon="6.76033">
        <ele>1055.4</ele>
        <time>2026-06-26T12:30:34Z</time>
      </trkpt>
      <trkpt lat="46.06091" lon="6.76031">
        <ele>1055.2</ele>
        <time>2026-06-26T12:30:35Z</time>
      </trkpt>
      <trkpt lat="46.06092" lon="6.7603">
        <ele>1055.1</ele>
        <time>2026-06-26T12:30:36Z</time>
      </trkpt>
      <trkpt lat="46.06092" lon="6.76029">
        <ele>1055</ele>
        <time>2026-06-26T12:30:37Z</time>
      </trkpt>
      <trkpt lat="46.06093" lon="6.76027">
        <ele>1054.9</ele>
        <time>2026-06-26T12:30:38Z</time>
      </trkpt>
      <trkpt lat="46.06093" lon="6.76026">
        <ele>1054.7</ele>
        <time>2026-06-26T12:30:39Z</time>
      </trkpt>
      <trkpt lat="46.06093" lon="6.76024">
        <ele>1054.6</ele>
        <time>2026-06-26T12:30:40Z</time>
      </trkpt>
      <trkpt lat="46.06094" lon="6.76022">
        <ele>1054.5</ele>
        <time>2026-06-26T12:30:41Z</time>
      </trkpt>
      <trkpt lat="46.06094" lon="6.76021">
        <ele>1054.5</ele>
        <time>2026-06-26T12:30:42Z</time>
      </trkpt>
      <trkpt lat="46.06095" lon="6.76019">
        <ele>1054.3</ele>
        <time>2026-06-26T12:30:43Z</time>
      </trkpt>
      <trkpt lat="46.06095" lon="6.76018">
        <ele>1054</ele>
        <time>2026-06-26T12:30:44Z</time>
      </trkpt>
      <trkpt lat="46.06095" lon="6.76017">
        <ele>1053.9</ele>
        <time>2026-06-26T12:30:45Z</time>
      </trkpt>
      <trkpt lat="46.06095" lon="6.76016">
        <ele>1053.6</ele>
        <time>2026-06-26T12:30:46Z</time>
      </trkpt>
      <trkpt lat="46.06096" lon="6.76014">
        <ele>1053.3</ele>
        <time>2026-06-26T12:30:47Z</time>
      </trkpt>
      <trkpt lat="46.06097" lon="6.76013">
        <ele>1053</ele>
        <time>2026-06-26T12:30:48Z</time>
      </trkpt>
      <trkpt lat="46.06097" lon="6.76011">
        <ele>1052.8</ele>
        <time>2026-06-26T12:30:49Z</time>
      </trkpt>
      <trkpt lat="46.06098" lon="6.76009">
        <ele>1052.7</ele>
        <time>2026-06-26T12:30:50Z</time>
      </trkpt>
      <trkpt lat="46.06098" lon="6.76008">
        <ele>1052.6</ele>
        <time>2026-06-26T12:30:51Z</time>
      </trkpt>
      <trkpt lat="46.06099" lon="6.76006">
        <ele>1052.6</ele>
        <time>2026-06-26T12:30:52Z</time>
      </trkpt>
      <trkpt lat="46.06099" lon="6.76005">
        <ele>1052.3</ele>
        <time>2026-06-26T12:30:53Z</time>
      </trkpt>
      <trkpt lat="46.061" lon="6.76004">
        <ele>1052</ele>
        <time>2026-06-26T12:30:54Z</time>
      </trkpt>
      <trkpt lat="46.061" lon="6.76002">
        <ele>1051.8</ele>
        <time>2026-06-26T12:30:55Z</time>
      </trkpt>
      <trkpt lat="46.06101" lon="6.76">
        <ele>1051.6</ele>
        <time>2026-06-26T12:30:56Z</time>
      </trkpt>
      <trkpt lat="46.06102" lon="6.75999">
        <ele>1051.4</ele>
        <time>2026-06-26T12:30:57Z</time>
      </trkpt>
      <trkpt lat="46.06103" lon="6.75998">
        <ele>1051.3</ele>
        <time>2026-06-26T12:30:58Z</time>
      </trkpt>
      <trkpt lat="46.06103" lon="6.75997">
        <ele>1051.1</ele>
        <time>2026-06-26T12:30:59Z</time>
      </trkpt>
      <trkpt lat="46.06104" lon="6.75996">
        <ele>1050.9</ele>
        <time>2026-06-26T12:31:00Z</time>
      </trkpt>
      <trkpt lat="46.06104" lon="6.75995">
        <ele>1050.8</ele>
        <time>2026-06-26T12:31:01Z</time>
      </trkpt>
      <trkpt lat="46.06105" lon="6.75994">
        <ele>1050.6</ele>
        <time>2026-06-26T12:31:02Z</time>
      </trkpt>
      <trkpt lat="46.06106" lon="6.75993">
        <ele>1050.3</ele>
        <time>2026-06-26T12:31:03Z</time>
      </trkpt>
      <trkpt lat="46.06107" lon="6.75993">
        <ele>1050.1</ele>
        <time>2026-06-26T12:31:04Z</time>
      </trkpt>
      <trkpt lat="46.06108" lon="6.75992">
        <ele>1049.9</ele>
        <time>2026-06-26T12:31:05Z</time>
      </trkpt>
      <trkpt lat="46.06109" lon="6.7599">
        <ele>1049.9</ele>
        <time>2026-06-26T12:31:06Z</time>
      </trkpt>
      <trkpt lat="46.06109" lon="6.75989">
        <ele>1049.8</ele>
        <time>2026-06-26T12:31:07Z</time>
      </trkpt>
      <trkpt lat="46.0611" lon="6.75987">
        <ele>1049.6</ele>
        <time>2026-06-26T12:31:08Z</time>
      </trkpt>
      <trkpt lat="46.0611" lon="6.75986">
        <ele>1049.4</ele>
        <time>2026-06-26T12:31:09Z</time>
      </trkpt>
      <trkpt lat="46.06111" lon="6.75984">
        <ele>1049.3</ele>
        <time>2026-06-26T12:31:10Z</time>
      </trkpt>
      <trkpt lat="46.06112" lon="6.75983">
        <ele>1049.1</ele>
        <time>2026-06-26T12:31:11Z</time>
      </trkpt>
      <trkpt lat="46.06112" lon="6.75981">
        <ele>1048.9</ele>
        <time>2026-06-26T12:31:12Z</time>
      </trkpt>
      <trkpt lat="46.06113" lon="6.7598">
        <ele>1048.8</ele>
        <time>2026-06-26T12:31:13Z</time>
      </trkpt>
      <trkpt lat="46.06113" lon="6.75978">
        <ele>1048.6</ele>
        <time>2026-06-26T12:31:14Z</time>
      </trkpt>
      <trkpt lat="46.06114" lon="6.75977">
        <ele>1048.5</ele>
        <time>2026-06-26T12:31:15Z</time>
      </trkpt>
      <trkpt lat="46.06115" lon="6.75975">
        <ele>1048.3</ele>
        <time>2026-06-26T12:31:16Z</time>
      </trkpt>
      <trkpt lat="46.06115" lon="6.75975">
        <ele>1048.2</ele>
        <time>2026-06-26T12:31:17Z</time>
      </trkpt>
      <trkpt lat="46.06116" lon="6.75973">
        <ele>1048</ele>
        <time>2026-06-26T12:31:18Z</time>
      </trkpt>
      <trkpt lat="46.06117" lon="6.75972">
        <ele>1047.7</ele>
        <time>2026-06-26T12:31:19Z</time>
      </trkpt>
      <trkpt lat="46.06117" lon="6.75971">
        <ele>1047.5</ele>
        <time>2026-06-26T12:31:20Z</time>
      </trkpt>
      <trkpt lat="46.06118" lon="6.7597">
        <ele>1047.3</ele>
        <time>2026-06-26T12:31:21Z</time>
      </trkpt>
      <trkpt lat="46.06119" lon="6.75968">
        <ele>1047.3</ele>
        <time>2026-06-26T12:31:22Z</time>
      </trkpt>
      <trkpt lat="46.0612" lon="6.75966">
        <ele>1047</ele>
        <time>2026-06-26T12:31:23Z</time>
      </trkpt>
      <trkpt lat="46.0612" lon="6.75965">
        <ele>1046.8</ele>
        <time>2026-06-26T12:31:24Z</time>
      </trkpt>
      <trkpt lat="46.06121" lon="6.75964">
        <ele>1046.6</ele>
        <time>2026-06-26T12:31:25Z</time>
      </trkpt>
      <trkpt lat="46.06122" lon="6.75962">
        <ele>1046.5</ele>
        <time>2026-06-26T12:31:26Z</time>
      </trkpt>
      <trkpt lat="46.06123" lon="6.75961">
        <ele>1046.4</ele>
        <time>2026-06-26T12:31:27Z</time>
      </trkpt>
      <trkpt lat="46.06123" lon="6.75959">
        <ele>1046.3</ele>
        <time>2026-06-26T12:31:28Z</time>
      </trkpt>
      <trkpt lat="46.06124" lon="6.75958">
        <ele>1046.1</ele>
        <time>2026-06-26T12:31:29Z</time>
      </trkpt>
      <trkpt lat="46.06124" lon="6.75957">
        <ele>1046</ele>
        <time>2026-06-26T12:31:30Z</time>
      </trkpt>
      <trkpt lat="46.06125" lon="6.75955">
        <ele>1045.6</ele>
        <time>2026-06-26T12:31:31Z</time>
      </trkpt>
      <trkpt lat="46.06126" lon="6.75954">
        <ele>1045.3</ele>
        <time>2026-06-26T12:31:32Z</time>
      </trkpt>
      <trkpt lat="46.06126" lon="6.75953">
        <ele>1045.2</ele>
        <time>2026-06-26T12:31:33Z</time>
      </trkpt>
      <trkpt lat="46.06127" lon="6.75951">
        <ele>1045.1</ele>
        <time>2026-06-26T12:31:34Z</time>
      </trkpt>
      <trkpt lat="46.06128" lon="6.7595">
        <ele>1044.9</ele>
        <time>2026-06-26T12:31:35Z</time>
      </trkpt>
      <trkpt lat="46.06128" lon="6.75949">
        <ele>1044.7</ele>
        <time>2026-06-26T12:31:36Z</time>
      </trkpt>
      <trkpt lat="46.06129" lon="6.75947">
        <ele>1044.6</ele>
        <time>2026-06-26T12:31:37Z</time>
      </trkpt>
      <trkpt lat="46.06129" lon="6.75946">
        <ele>1044.3</ele>
        <time>2026-06-26T12:31:38Z</time>
      </trkpt>
      <trkpt lat="46.06129" lon="6.75944">
        <ele>1044.2</ele>
        <time>2026-06-26T12:31:39Z</time>
      </trkpt>
      <trkpt lat="46.0613" lon="6.75943">
        <ele>1044.1</ele>
        <time>2026-06-26T12:31:40Z</time>
      </trkpt>
      <trkpt lat="46.06131" lon="6.75942">
        <ele>1044</ele>
        <time>2026-06-26T12:31:41Z</time>
      </trkpt>
      <trkpt lat="46.06131" lon="6.75941">
        <ele>1043.8</ele>
        <time>2026-06-26T12:31:42Z</time>
      </trkpt>
      <trkpt lat="46.06132" lon="6.7594">
        <ele>1043.6</ele>
        <time>2026-06-26T12:31:43Z</time>
      </trkpt>
      <trkpt lat="46.06133" lon="6.75939">
        <ele>1043.4</ele>
        <time>2026-06-26T12:31:44Z</time>
      </trkpt>
      <trkpt lat="46.06134" lon="6.75938">
        <ele>1043.2</ele>
        <time>2026-06-26T12:31:45Z</time>
      </trkpt>
      <trkpt lat="46.06134" lon="6.75936">
        <ele>1043.1</ele>
        <time>2026-06-26T12:31:46Z</time>
      </trkpt>
      <trkpt lat="46.06135" lon="6.75935">
        <ele>1042.9</ele>
        <time>2026-06-26T12:31:47Z</time>
      </trkpt>
      <trkpt lat="46.06136" lon="6.75934">
        <ele>1042.7</ele>
        <time>2026-06-26T12:31:48Z</time>
      </trkpt>
      <trkpt lat="46.06136" lon="6.75932">
        <ele>1042.5</ele>
        <time>2026-06-26T12:31:49Z</time>
      </trkpt>
      <trkpt lat="46.06137" lon="6.75931">
        <ele>1042.3</ele>
        <time>2026-06-26T12:31:50Z</time>
      </trkpt>
      <trkpt lat="46.06137" lon="6.75929">
        <ele>1042.2</ele>
        <time>2026-06-26T12:31:51Z</time>
      </trkpt>
      <trkpt lat="46.06138" lon="6.75927">
        <ele>1042.1</ele>
        <time>2026-06-26T12:31:52Z</time>
      </trkpt>
      <trkpt lat="46.06138" lon="6.75926">
        <ele>1041.9</ele>
        <time>2026-06-26T12:31:53Z</time>
      </trkpt>
      <trkpt lat="46.06139" lon="6.75924">
        <ele>1041.8</ele>
        <time>2026-06-26T12:31:54Z</time>
      </trkpt>
      <trkpt lat="46.0614" lon="6.75923">
        <ele>1041.7</ele>
        <time>2026-06-26T12:31:55Z</time>
      </trkpt>
      <trkpt lat="46.0614" lon="6.75921">
        <ele>1041.5</ele>
        <time>2026-06-26T12:31:56Z</time>
      </trkpt>
      <trkpt lat="46.06141" lon="6.7592">
        <ele>1041.4</ele>
        <time>2026-06-26T12:31:57Z</time>
      </trkpt>
      <trkpt lat="46.06141" lon="6.75919">
        <ele>1041.2</ele>
        <time>2026-06-26T12:31:58Z</time>
      </trkpt>
      <trkpt lat="46.06142" lon="6.75917">
        <ele>1041.1</ele>
        <time>2026-06-26T12:31:59Z</time>
      </trkpt>
      <trkpt lat="46.06142" lon="6.75915">
        <ele>1041</ele>
        <time>2026-06-26T12:32:00Z</time>
      </trkpt>
      <trkpt lat="46.06142" lon="6.75914">
        <ele>1040.8</ele>
        <time>2026-06-26T12:32:01Z</time>
      </trkpt>
      <trkpt lat="46.06143" lon="6.75912">
        <ele>1040.7</ele>
        <time>2026-06-26T12:32:02Z</time>
      </trkpt>
      <trkpt lat="46.06143" lon="6.7591">
        <ele>1040.6</ele>
        <time>2026-06-26T12:32:03Z</time>
      </trkpt>
      <trkpt lat="46.06143" lon="6.75909">
        <ele>1040.4</ele>
        <time>2026-06-26T12:32:04Z</time>
      </trkpt>
      <trkpt lat="46.06143" lon="6.75908">
        <ele>1040.2</ele>
        <time>2026-06-26T12:32:05Z</time>
      </trkpt>
      <trkpt lat="46.06143" lon="6.75906">
        <ele>1040.1</ele>
        <time>2026-06-26T12:32:06Z</time>
      </trkpt>
      <trkpt lat="46.06143" lon="6.75906">
        <ele>1040</ele>
        <time>2026-06-26T12:32:07Z</time>
      </trkpt>
      <trkpt lat="46.06143" lon="6.75904">
        <ele>1039.8</ele>
        <time>2026-06-26T12:32:08Z</time>
      </trkpt>
      <trkpt lat="46.06143" lon="6.75902">
        <ele>1039.7</ele>
        <time>2026-06-26T12:32:09Z</time>
      </trkpt>
      <trkpt lat="46.06143" lon="6.759">
        <ele>1039.5</ele>
        <time>2026-06-26T12:32:10Z</time>
      </trkpt>
      <trkpt lat="46.06143" lon="6.75898">
        <ele>1039.4</ele>
        <time>2026-06-26T12:32:11Z</time>
      </trkpt>
      <trkpt lat="46.06142" lon="6.75897">
        <ele>1039.2</ele>
        <time>2026-06-26T12:32:12Z</time>
      </trkpt>
      <trkpt lat="46.06142" lon="6.75896">
        <ele>1039.1</ele>
        <time>2026-06-26T12:32:13Z</time>
      </trkpt>
      <trkpt lat="46.06142" lon="6.75894">
        <ele>1038.9</ele>
        <time>2026-06-26T12:32:14Z</time>
      </trkpt>
      <trkpt lat="46.06141" lon="6.75893">
        <ele>1038.8</ele>
        <time>2026-06-26T12:32:15Z</time>
      </trkpt>
      <trkpt lat="46.06141" lon="6.75892">
        <ele>1038.6</ele>
        <time>2026-06-26T12:32:16Z</time>
      </trkpt>
      <trkpt lat="46.06141" lon="6.7589">
        <ele>1038.5</ele>
        <time>2026-06-26T12:32:17Z</time>
      </trkpt>
      <trkpt lat="46.06141" lon="6.75889">
        <ele>1038.3</ele>
        <time>2026-06-26T12:32:18Z</time>
      </trkpt>
      <trkpt lat="46.06141" lon="6.75888">
        <ele>1038.2</ele>
        <time>2026-06-26T12:32:19Z</time>
      </trkpt>
      <trkpt lat="46.06141" lon="6.75887">
        <ele>1038.2</ele>
        <time>2026-06-26T12:32:20Z</time>
      </trkpt>
      <trkpt lat="46.06141" lon="6.75885">
        <ele>1038.1</ele>
        <time>2026-06-26T12:32:21Z</time>
      </trkpt>
      <trkpt lat="46.06141" lon="6.75884">
        <ele>1037.7</ele>
        <time>2026-06-26T12:32:22Z</time>
      </trkpt>
      <trkpt lat="46.0614" lon="6.75882">
        <ele>1037.5</ele>
        <time>2026-06-26T12:32:23Z</time>
      </trkpt>
      <trkpt lat="46.0614" lon="6.75881">
        <ele>1037.4</ele>
        <time>2026-06-26T12:32:24Z</time>
      </trkpt>
      <trkpt lat="46.0614" lon="6.7588">
        <ele>1037.3</ele>
        <time>2026-06-26T12:32:25Z</time>
      </trkpt>
      <trkpt lat="46.06139" lon="6.75879">
        <ele>1037.1</ele>
        <time>2026-06-26T12:32:26Z</time>
      </trkpt>
      <trkpt lat="46.06139" lon="6.75877">
        <ele>1037.1</ele>
        <time>2026-06-26T12:32:27Z</time>
      </trkpt>
      <trkpt lat="46.06139" lon="6.75876">
        <ele>1037</ele>
        <time>2026-06-26T12:32:28Z</time>
      </trkpt>
      <trkpt lat="46.06139" lon="6.75875">
        <ele>1037</ele>
        <time>2026-06-26T12:32:29Z</time>
      </trkpt>
      <trkpt lat="46.06139" lon="6.75874">
        <ele>1036.8</ele>
        <time>2026-06-26T12:32:30Z</time>
      </trkpt>
      <trkpt lat="46.06139" lon="6.75872">
        <ele>1036.7</ele>
        <time>2026-06-26T12:32:31Z</time>
      </trkpt>
      <trkpt lat="46.06139" lon="6.75871">
        <ele>1036.5</ele>
        <time>2026-06-26T12:32:32Z</time>
      </trkpt>
      <trkpt lat="46.06139" lon="6.75869">
        <ele>1036.5</ele>
        <time>2026-06-26T12:32:33Z</time>
      </trkpt>
      <trkpt lat="46.0614" lon="6.75867">
        <ele>1036.4</ele>
        <time>2026-06-26T12:32:34Z</time>
      </trkpt>
      <trkpt lat="46.06141" lon="6.75865">
        <ele>1036.3</ele>
        <time>2026-06-26T12:32:35Z</time>
      </trkpt>
      <trkpt lat="46.06141" lon="6.75863">
        <ele>1036.3</ele>
        <time>2026-06-26T12:32:36Z</time>
      </trkpt>
      <trkpt lat="46.06142" lon="6.75862">
        <ele>1036.3</ele>
        <time>2026-06-26T12:32:37Z</time>
      </trkpt>
      <trkpt lat="46.06143" lon="6.7586">
        <ele>1036.3</ele>
        <time>2026-06-26T12:32:38Z</time>
      </trkpt>
      <trkpt lat="46.06143" lon="6.75859">
        <ele>1036.3</ele>
        <time>2026-06-26T12:32:39Z</time>
      </trkpt>
      <trkpt lat="46.06144" lon="6.75857">
        <ele>1035.9</ele>
        <time>2026-06-26T12:32:40Z</time>
      </trkpt>
      <trkpt lat="46.06145" lon="6.75856">
        <ele>1035.8</ele>
        <time>2026-06-26T12:32:41Z</time>
      </trkpt>
      <trkpt lat="46.06145" lon="6.75854">
        <ele>1035.8</ele>
        <time>2026-06-26T12:32:42Z</time>
      </trkpt>
      <trkpt lat="46.06146" lon="6.75853">
        <ele>1035.7</ele>
        <time>2026-06-26T12:32:43Z</time>
      </trkpt>
      <trkpt lat="46.06147" lon="6.75851">
        <ele>1035.6</ele>
        <time>2026-06-26T12:32:44Z</time>
      </trkpt>
      <trkpt lat="46.06147" lon="6.7585">
        <ele>1035.5</ele>
        <time>2026-06-26T12:32:45Z</time>
      </trkpt>
      <trkpt lat="46.06148" lon="6.75848">
        <ele>1035.5</ele>
        <time>2026-06-26T12:32:46Z</time>
      </trkpt>
      <trkpt lat="46.06148" lon="6.75847">
        <ele>1035.4</ele>
        <time>2026-06-26T12:32:47Z</time>
      </trkpt>
      <trkpt lat="46.06149" lon="6.75846">
        <ele>1035.4</ele>
        <time>2026-06-26T12:32:48Z</time>
      </trkpt>
      <trkpt lat="46.0615" lon="6.75845">
        <ele>1035.3</ele>
        <time>2026-06-26T12:32:49Z</time>
      </trkpt>
      <trkpt lat="46.0615" lon="6.75843">
        <ele>1035</ele>
        <time>2026-06-26T12:32:50Z</time>
      </trkpt>
      <trkpt lat="46.06151" lon="6.75842">
        <ele>1034.8</ele>
        <time>2026-06-26T12:32:51Z</time>
      </trkpt>
      <trkpt lat="46.06151" lon="6.75841">
        <ele>1034.7</ele>
        <time>2026-06-26T12:32:52Z</time>
      </trkpt>
      <trkpt lat="46.06152" lon="6.7584">
        <ele>1034.5</ele>
        <time>2026-06-26T12:32:53Z</time>
      </trkpt>
      <trkpt lat="46.06152" lon="6.75838">
        <ele>1034.4</ele>
        <time>2026-06-26T12:32:54Z</time>
      </trkpt>
      <trkpt lat="46.06153" lon="6.75837">
        <ele>1034.3</ele>
        <time>2026-06-26T12:32:55Z</time>
      </trkpt>
      <trkpt lat="46.06153" lon="6.75835">
        <ele>1034.5</ele>
        <time>2026-06-26T12:32:56Z</time>
      </trkpt>
      <trkpt lat="46.06153" lon="6.75834">
        <ele>1034.4</ele>
        <time>2026-06-26T12:32:57Z</time>
      </trkpt>
      <trkpt lat="46.06153" lon="6.75832">
        <ele>1034.1</ele>
        <time>2026-06-26T12:32:58Z</time>
      </trkpt>
      <trkpt lat="46.06154" lon="6.7583">
        <ele>1033.9</ele>
        <time>2026-06-26T12:32:59Z</time>
      </trkpt>
      <trkpt lat="46.06154" lon="6.75829">
        <ele>1033.7</ele>
        <time>2026-06-26T12:33:00Z</time>
      </trkpt>
      <trkpt lat="46.06155" lon="6.75827">
        <ele>1033.6</ele>
        <time>2026-06-26T12:33:01Z</time>
      </trkpt>
      <trkpt lat="46.06156" lon="6.75826">
        <ele>1033.4</ele>
        <time>2026-06-26T12:33:02Z</time>
      </trkpt>
      <trkpt lat="46.06156" lon="6.75825">
        <ele>1033.2</ele>
        <time>2026-06-26T12:33:03Z</time>
      </trkpt>
      <trkpt lat="46.06156" lon="6.75824">
        <ele>1033</ele>
        <time>2026-06-26T12:33:04Z</time>
      </trkpt>
      <trkpt lat="46.06156" lon="6.75822">
        <ele>1032.8</ele>
        <time>2026-06-26T12:33:05Z</time>
      </trkpt>
      <trkpt lat="46.06157" lon="6.7582">
        <ele>1032.6</ele>
        <time>2026-06-26T12:33:06Z</time>
      </trkpt>
      <trkpt lat="46.06157" lon="6.75818">
        <ele>1032.5</ele>
        <time>2026-06-26T12:33:07Z</time>
      </trkpt>
      <trkpt lat="46.06158" lon="6.75817">
        <ele>1032.4</ele>
        <time>2026-06-26T12:33:08Z</time>
      </trkpt>
      <trkpt lat="46.06158" lon="6.75815">
        <ele>1032.2</ele>
        <time>2026-06-26T12:33:09Z</time>
      </trkpt>
      <trkpt lat="46.06158" lon="6.75813">
        <ele>1032.1</ele>
        <time>2026-06-26T12:33:10Z</time>
      </trkpt>
      <trkpt lat="46.06159" lon="6.75811">
        <ele>1032.1</ele>
        <time>2026-06-26T12:33:11Z</time>
      </trkpt>
      <trkpt lat="46.06159" lon="6.7581">
        <ele>1032</ele>
        <time>2026-06-26T12:33:12Z</time>
      </trkpt>
      <trkpt lat="46.06159" lon="6.75808">
        <ele>1031.9</ele>
        <time>2026-06-26T12:33:13Z</time>
      </trkpt>
      <trkpt lat="46.06159" lon="6.75806">
        <ele>1031.9</ele>
        <time>2026-06-26T12:33:14Z</time>
      </trkpt>
      <trkpt lat="46.06159" lon="6.75805">
        <ele>1031.8</ele>
        <time>2026-06-26T12:33:15Z</time>
      </trkpt>
      <trkpt lat="46.06159" lon="6.75803">
        <ele>1031.7</ele>
        <time>2026-06-26T12:33:16Z</time>
      </trkpt>
      <trkpt lat="46.06159" lon="6.75802">
        <ele>1031.6</ele>
        <time>2026-06-26T12:33:17Z</time>
      </trkpt>
      <trkpt lat="46.0616" lon="6.758">
        <ele>1031.3</ele>
        <time>2026-06-26T12:33:18Z</time>
      </trkpt>
      <trkpt lat="46.0616" lon="6.75799">
        <ele>1031.1</ele>
        <time>2026-06-26T12:33:19Z</time>
      </trkpt>
      <trkpt lat="46.0616" lon="6.75797">
        <ele>1030.8</ele>
        <time>2026-06-26T12:33:20Z</time>
      </trkpt>
      <trkpt lat="46.06161" lon="6.75796">
        <ele>1030.6</ele>
        <time>2026-06-26T12:33:21Z</time>
      </trkpt>
      <trkpt lat="46.06161" lon="6.75794">
        <ele>1030.4</ele>
        <time>2026-06-26T12:33:22Z</time>
      </trkpt>
      <trkpt lat="46.06161" lon="6.75793">
        <ele>1030.4</ele>
        <time>2026-06-26T12:33:23Z</time>
      </trkpt>
      <trkpt lat="46.06162" lon="6.75791">
        <ele>1030.5</ele>
        <time>2026-06-26T12:33:24Z</time>
      </trkpt>
      <trkpt lat="46.06162" lon="6.75789">
        <ele>1030.4</ele>
        <time>2026-06-26T12:33:25Z</time>
      </trkpt>
      <trkpt lat="46.06162" lon="6.75788">
        <ele>1030.3</ele>
        <time>2026-06-26T12:33:26Z</time>
      </trkpt>
      <trkpt lat="46.06162" lon="6.75786">
        <ele>1030.3</ele>
        <time>2026-06-26T12:33:27Z</time>
      </trkpt>
      <trkpt lat="46.06162" lon="6.75784">
        <ele>1030.2</ele>
        <time>2026-06-26T12:33:28Z</time>
      </trkpt>
      <trkpt lat="46.06162" lon="6.75783">
        <ele>1030.4</ele>
        <time>2026-06-26T12:33:29Z</time>
      </trkpt>
      <trkpt lat="46.06163" lon="6.75782">
        <ele>1030.3</ele>
        <time>2026-06-26T12:33:30Z</time>
      </trkpt>
      <trkpt lat="46.06163" lon="6.7578">
        <ele>1030.2</ele>
        <time>2026-06-26T12:33:31Z</time>
      </trkpt>
      <trkpt lat="46.06164" lon="6.75779">
        <ele>1030.1</ele>
        <time>2026-06-26T12:33:32Z</time>
      </trkpt>
      <trkpt lat="46.06164" lon="6.75777">
        <ele>1029.9</ele>
        <time>2026-06-26T12:33:33Z</time>
      </trkpt>
      <trkpt lat="46.06165" lon="6.75775">
        <ele>1029.8</ele>
        <time>2026-06-26T12:33:34Z</time>
      </trkpt>
      <trkpt lat="46.06165" lon="6.75773">
        <ele>1029.6</ele>
        <time>2026-06-26T12:33:35Z</time>
      </trkpt>
      <trkpt lat="46.06166" lon="6.75771">
        <ele>1029.5</ele>
        <time>2026-06-26T12:33:36Z</time>
      </trkpt>
      <trkpt lat="46.06166" lon="6.75769">
        <ele>1029.4</ele>
        <time>2026-06-26T12:33:37Z</time>
      </trkpt>
      <trkpt lat="46.06166" lon="6.75767">
        <ele>1029</ele>
        <time>2026-06-26T12:33:38Z</time>
      </trkpt>
      <trkpt lat="46.06167" lon="6.75765">
        <ele>1029</ele>
        <time>2026-06-26T12:33:39Z</time>
      </trkpt>
      <trkpt lat="46.06167" lon="6.75763">
        <ele>1028.9</ele>
        <time>2026-06-26T12:33:40Z</time>
      </trkpt>
      <trkpt lat="46.06168" lon="6.75762">
        <ele>1028.8</ele>
        <time>2026-06-26T12:33:41Z</time>
      </trkpt>
      <trkpt lat="46.06168" lon="6.7576">
        <ele>1028.7</ele>
        <time>2026-06-26T12:33:42Z</time>
      </trkpt>
      <trkpt lat="46.06169" lon="6.75759">
        <ele>1028.7</ele>
        <time>2026-06-26T12:33:43Z</time>
      </trkpt>
      <trkpt lat="46.06169" lon="6.75758">
        <ele>1028.9</ele>
        <time>2026-06-26T12:33:44Z</time>
      </trkpt>
      <trkpt lat="46.0617" lon="6.75756">
        <ele>1028.8</ele>
        <time>2026-06-26T12:33:45Z</time>
      </trkpt>
      <trkpt lat="46.06171" lon="6.75756">
        <ele>1028.7</ele>
        <time>2026-06-26T12:33:46Z</time>
      </trkpt>
      <trkpt lat="46.06171" lon="6.75754">
        <ele>1028.6</ele>
        <time>2026-06-26T12:33:47Z</time>
      </trkpt>
      <trkpt lat="46.06171" lon="6.75751">
        <ele>1028.5</ele>
        <time>2026-06-26T12:33:48Z</time>
      </trkpt>
      <trkpt lat="46.06172" lon="6.75749">
        <ele>1028.6</ele>
        <time>2026-06-26T12:33:49Z</time>
      </trkpt>
      <trkpt lat="46.06173" lon="6.75747">
        <ele>1028.4</ele>
        <time>2026-06-26T12:33:50Z</time>
      </trkpt>
      <trkpt lat="46.06174" lon="6.75745">
        <ele>1028.4</ele>
        <time>2026-06-26T12:33:51Z</time>
      </trkpt>
      <trkpt lat="46.06174" lon="6.75743">
        <ele>1028.3</ele>
        <time>2026-06-26T12:33:52Z</time>
      </trkpt>
      <trkpt lat="46.06174" lon="6.75741">
        <ele>1028.3</ele>
        <time>2026-06-26T12:33:53Z</time>
      </trkpt>
      <trkpt lat="46.06174" lon="6.75739">
        <ele>1028.2</ele>
        <time>2026-06-26T12:33:54Z</time>
      </trkpt>
      <trkpt lat="46.06174" lon="6.75737">
        <ele>1028.1</ele>
        <time>2026-06-26T12:33:55Z</time>
      </trkpt>
      <trkpt lat="46.06175" lon="6.75736">
        <ele>1028</ele>
        <time>2026-06-26T12:33:56Z</time>
      </trkpt>
      <trkpt lat="46.06176" lon="6.75735">
        <ele>1027.9</ele>
        <time>2026-06-26T12:33:57Z</time>
      </trkpt>
      <trkpt lat="46.06176" lon="6.75733">
        <ele>1027.8</ele>
        <time>2026-06-26T12:33:58Z</time>
      </trkpt>
      <trkpt lat="46.06176" lon="6.75732">
        <ele>1027.7</ele>
        <time>2026-06-26T12:33:59Z</time>
      </trkpt>
      <trkpt lat="46.06177" lon="6.7573">
        <ele>1027.6</ele>
        <time>2026-06-26T12:34:00Z</time>
      </trkpt>
      <trkpt lat="46.06177" lon="6.75728">
        <ele>1027.5</ele>
        <time>2026-06-26T12:34:01Z</time>
      </trkpt>
      <trkpt lat="46.06178" lon="6.75726">
        <ele>1027.4</ele>
        <time>2026-06-26T12:34:02Z</time>
      </trkpt>
      <trkpt lat="46.06178" lon="6.75724">
        <ele>1027.4</ele>
        <time>2026-06-26T12:34:03Z</time>
      </trkpt>
      <trkpt lat="46.06178" lon="6.75722">
        <ele>1027.4</ele>
        <time>2026-06-26T12:34:04Z</time>
      </trkpt>
      <trkpt lat="46.06179" lon="6.7572">
        <ele>1027.4</ele>
        <time>2026-06-26T12:34:05Z</time>
      </trkpt>
      <trkpt lat="46.06179" lon="6.75719">
        <ele>1027.4</ele>
        <time>2026-06-26T12:34:06Z</time>
      </trkpt>
      <trkpt lat="46.06179" lon="6.75717">
        <ele>1027.4</ele>
        <time>2026-06-26T12:34:07Z</time>
      </trkpt>
      <trkpt lat="46.0618" lon="6.75716">
        <ele>1027.3</ele>
        <time>2026-06-26T12:34:08Z</time>
      </trkpt>
      <trkpt lat="46.0618" lon="6.75714">
        <ele>1027.2</ele>
        <time>2026-06-26T12:34:09Z</time>
      </trkpt>
      <trkpt lat="46.0618" lon="6.75712">
        <ele>1027.2</ele>
        <time>2026-06-26T12:34:10Z</time>
      </trkpt>
      <trkpt lat="46.0618" lon="6.7571">
        <ele>1027.2</ele>
        <time>2026-06-26T12:34:11Z</time>
      </trkpt>
      <trkpt lat="46.0618" lon="6.75709">
        <ele>1027.2</ele>
        <time>2026-06-26T12:34:12Z</time>
      </trkpt>
      <trkpt lat="46.06181" lon="6.75707">
        <ele>1027.2</ele>
        <time>2026-06-26T12:34:13Z</time>
      </trkpt>
      <trkpt lat="46.06181" lon="6.75705">
        <ele>1027.2</ele>
        <time>2026-06-26T12:34:14Z</time>
      </trkpt>
      <trkpt lat="46.06181" lon="6.75703">
        <ele>1027.1</ele>
        <time>2026-06-26T12:34:15Z</time>
      </trkpt>
      <trkpt lat="46.06181" lon="6.75701">
        <ele>1027.1</ele>
        <time>2026-06-26T12:34:16Z</time>
      </trkpt>
      <trkpt lat="46.06181" lon="6.75699">
        <ele>1027</ele>
        <time>2026-06-26T12:34:17Z</time>
      </trkpt>
      <trkpt lat="46.06181" lon="6.75697">
        <ele>1027</ele>
        <time>2026-06-26T12:34:18Z</time>
      </trkpt>
      <trkpt lat="46.06182" lon="6.75695">
        <ele>1027</ele>
        <time>2026-06-26T12:34:19Z</time>
      </trkpt>
      <trkpt lat="46.06182" lon="6.75693">
        <ele>1026.8</ele>
        <time>2026-06-26T12:34:20Z</time>
      </trkpt>
      <trkpt lat="46.06182" lon="6.75691">
        <ele>1026.8</ele>
        <time>2026-06-26T12:34:21Z</time>
      </trkpt>
      <trkpt lat="46.06182" lon="6.7569">
        <ele>1026.6</ele>
        <time>2026-06-26T12:34:22Z</time>
      </trkpt>
      <trkpt lat="46.06182" lon="6.75688">
        <ele>1026.6</ele>
        <time>2026-06-26T12:34:23Z</time>
      </trkpt>
      <trkpt lat="46.06182" lon="6.75687">
        <ele>1026.5</ele>
        <time>2026-06-26T12:34:24Z</time>
      </trkpt>
      <trkpt lat="46.06182" lon="6.75685">
        <ele>1026.4</ele>
        <time>2026-06-26T12:34:25Z</time>
      </trkpt>
      <trkpt lat="46.06182" lon="6.75683">
        <ele>1026.4</ele>
        <time>2026-06-26T12:34:26Z</time>
      </trkpt>
      <trkpt lat="46.06182" lon="6.75682">
        <ele>1026.3</ele>
        <time>2026-06-26T12:34:27Z</time>
      </trkpt>
      <trkpt lat="46.06182" lon="6.7568">
        <ele>1026.2</ele>
        <time>2026-06-26T12:34:28Z</time>
      </trkpt>
      <trkpt lat="46.06182" lon="6.75678">
        <ele>1026.2</ele>
        <time>2026-06-26T12:34:29Z</time>
      </trkpt>
      <trkpt lat="46.06182" lon="6.75675">
        <ele>1026.1</ele>
        <time>2026-06-26T12:34:30Z</time>
      </trkpt>
      <trkpt lat="46.06181" lon="6.75673">
        <ele>1026.1</ele>
        <time>2026-06-26T12:34:31Z</time>
      </trkpt>
      <trkpt lat="46.06181" lon="6.75672">
        <ele>1026.1</ele>
        <time>2026-06-26T12:34:32Z</time>
      </trkpt>
      <trkpt lat="46.06181" lon="6.7567">
        <ele>1026</ele>
        <time>2026-06-26T12:34:33Z</time>
      </trkpt>
      <trkpt lat="46.06181" lon="6.75669">
        <ele>1026</ele>
        <time>2026-06-26T12:34:34Z</time>
      </trkpt>
      <trkpt lat="46.06181" lon="6.75667">
        <ele>1026</ele>
        <time>2026-06-26T12:34:35Z</time>
      </trkpt>
      <trkpt lat="46.06181" lon="6.75666">
        <ele>1026</ele>
        <time>2026-06-26T12:34:36Z</time>
      </trkpt>
      <trkpt lat="46.0618" lon="6.75664">
        <ele>1026</ele>
        <time>2026-06-26T12:34:37Z</time>
      </trkpt>
      <trkpt lat="46.0618" lon="6.75663">
        <ele>1026.1</ele>
        <time>2026-06-26T12:34:38Z</time>
      </trkpt>
      <trkpt lat="46.0618" lon="6.75662">
        <ele>1026.1</ele>
        <time>2026-06-26T12:34:39Z</time>
      </trkpt>
      <trkpt lat="46.06179" lon="6.7566">
        <ele>1026.1</ele>
        <time>2026-06-26T12:34:40Z</time>
      </trkpt>
      <trkpt lat="46.06179" lon="6.75659">
        <ele>1026.1</ele>
        <time>2026-06-26T12:34:41Z</time>
      </trkpt>
      <trkpt lat="46.06178" lon="6.75658">
        <ele>1026</ele>
        <time>2026-06-26T12:34:42Z</time>
      </trkpt>
      <trkpt lat="46.06178" lon="6.75656">
        <ele>1026</ele>
        <time>2026-06-26T12:34:43Z</time>
      </trkpt>
      <trkpt lat="46.06177" lon="6.75655">
        <ele>1026</ele>
        <time>2026-06-26T12:34:44Z</time>
      </trkpt>
      <trkpt lat="46.06177" lon="6.75654">
        <ele>1026</ele>
        <time>2026-06-26T12:34:45Z</time>
      </trkpt>
      <trkpt lat="46.06177" lon="6.75653">
        <ele>1025.9</ele>
        <time>2026-06-26T12:34:46Z</time>
      </trkpt>
      <trkpt lat="46.06176" lon="6.75652">
        <ele>1025.9</ele>
        <time>2026-06-26T12:34:47Z</time>
      </trkpt>
      <trkpt lat="46.06176" lon="6.75652">
        <ele>1026</ele>
        <time>2026-06-26T12:34:48Z</time>
      </trkpt>
      <trkpt lat="46.06176" lon="6.75652">
        <ele>1026</ele>
        <time>2026-06-26T12:34:49Z</time>
      </trkpt>
      <trkpt lat="46.06176" lon="6.75652">
        <ele>1026</ele>
        <time>2026-06-26T12:34:50Z</time>
      </trkpt>
      <trkpt lat="46.06176" lon="6.75653">
        <ele>1026</ele>
        <time>2026-06-26T12:34:51Z</time>
      </trkpt>
      <trkpt lat="46.06175" lon="6.75652">
        <ele>1026</ele>
        <time>2026-06-26T12:34:52Z</time>
      </trkpt>
      <trkpt lat="46.06175" lon="6.75653">
        <ele>1025.9</ele>
        <time>2026-06-26T12:34:53Z</time>
      </trkpt>
      <trkpt lat="46.06175" lon="6.75653">
        <ele>1025.9</ele>
        <time>2026-06-26T12:34:54Z</time>
      </trkpt>
      <trkpt lat="46.06175" lon="6.75653">
        <ele>1025.8</ele>
        <time>2026-06-26T12:34:55Z</time>
      </trkpt>
      <trkpt lat="46.06175" lon="6.75653">
        <ele>1025.8</ele>
        <time>2026-06-26T12:34:56Z</time>
      </trkpt>
      <trkpt lat="46.06175" lon="6.75653">
        <ele>1025.7</ele>
        <time>2026-06-26T12:34:57Z</time>
      </trkpt>
      <trkpt lat="46.06175" lon="6.75653">
        <ele>1025.7</ele>
        <time>2026-06-26T12:34:58Z</time>
      </trkpt>
      <trkpt lat="46.06175" lon="6.75653">
        <ele>1025.7</ele>
        <time>2026-06-26T12:34:59Z</time>
      </trkpt>
      <trkpt lat="46.06175" lon="6.75653">
        <ele>1025.7</ele>
        <time>2026-06-26T12:35:00Z</time>
      </trkpt>
      <trkpt lat="46.06175" lon="6.75652">
        <ele>1025.7</ele>
        <time>2026-06-26T12:35:01Z</time>
      </trkpt>
      <trkpt lat="46.06175" lon="6.75652">
        <ele>1025.7</ele>
        <time>2026-06-26T12:35:02Z</time>
      </trkpt>
      <trkpt lat="46.06175" lon="6.75652">
        <ele>1025.7</ele>
        <time>2026-06-26T12:35:03Z</time>
      </trkpt>
      <trkpt lat="46.06175" lon="6.75652">
        <ele>1025.7</ele>
        <time>2026-06-26T12:35:03Z</time>
      </trkpt>
      <trkpt lat="46.06175" lon="6.75652">
        <ele>1025.7</ele>
        <time>2026-06-26T12:35:03Z</time>
      </trkpt>
    </trkseg>
  </trk>
</gpx>